<?xml version="1.0" encoding="UTF-8" standalone="no" ?>
<gpx xmlns="http://www.topografix.com/GPX/1/1" xmlns:xsi="http://www.w3.org/2001/XMLSchema-instance" xsi:schemaLocation="http://www.topografix.com/GPX/1/1 http://www.topografix.com/GPX/1/1/gpx.xsd" version="1.1" creator="VisuGPX - https://www.visugpx.com">
  <metadata>
    <name>CMC Le Pic de Tourroc Sacoué</name>
    <desc><![CDATA[Belle rando ombragée pour les amateurs de forêts avec une vue magnifique sur les Pyrénées en prime.]]></desc>
  </metadata>
  <trk>
    <name><![CDATA[Sacoué Marche à pied]]></name>
    <trkseg>
      <trkpt lat="42.98913" lon="0.56368">
        <ele>594</ele>
        <time>2019-06-30T06:01:14.000Z</time>
      </trkpt>
      <trkpt lat="42.98911" lon="0.56369">
        <ele>593</ele>
        <time>2019-06-30T06:01:16.000Z</time>
      </trkpt>
      <trkpt lat="42.98909" lon="0.56369">
        <ele>593</ele>
        <time>2019-06-30T06:01:18.000Z</time>
      </trkpt>
      <trkpt lat="42.98907" lon="0.56368">
        <ele>593</ele>
        <time>2019-06-30T06:01:20.000Z</time>
      </trkpt>
      <trkpt lat="42.98905" lon="0.56368">
        <ele>593</ele>
        <time>2019-06-30T06:01:22.000Z</time>
      </trkpt>
      <trkpt lat="42.98903" lon="0.56366">
        <ele>593</ele>
        <time>2019-06-30T06:01:24.000Z</time>
      </trkpt>
      <trkpt lat="42.989" lon="0.56365">
        <ele>593</ele>
        <time>2019-06-30T06:01:26.000Z</time>
      </trkpt>
      <trkpt lat="42.98898" lon="0.56365">
        <ele>593</ele>
        <time>2019-06-30T06:01:28.000Z</time>
      </trkpt>
      <trkpt lat="42.98897" lon="0.56364">
        <ele>593</ele>
        <time>2019-06-30T06:01:30.000Z</time>
      </trkpt>
      <trkpt lat="42.98895" lon="0.56364">
        <ele>593</ele>
        <time>2019-06-30T06:01:32.000Z</time>
      </trkpt>
      <trkpt lat="42.98893" lon="0.56362">
        <ele>593</ele>
        <time>2019-06-30T06:01:34.000Z</time>
      </trkpt>
      <trkpt lat="42.98891" lon="0.56361">
        <ele>593</ele>
        <time>2019-06-30T06:01:36.000Z</time>
      </trkpt>
      <trkpt lat="42.98889" lon="0.5636">
        <ele>593</ele>
        <time>2019-06-30T06:01:38.000Z</time>
      </trkpt>
      <trkpt lat="42.98886" lon="0.56359">
        <ele>593</ele>
        <time>2019-06-30T06:01:40.000Z</time>
      </trkpt>
      <trkpt lat="42.98884" lon="0.56359">
        <ele>593</ele>
        <time>2019-06-30T06:01:42.000Z</time>
      </trkpt>
      <trkpt lat="42.98882" lon="0.56358">
        <ele>593</ele>
        <time>2019-06-30T06:01:44.000Z</time>
      </trkpt>
      <trkpt lat="42.9888" lon="0.56357">
        <ele>593</ele>
        <time>2019-06-30T06:01:46.000Z</time>
      </trkpt>
      <trkpt lat="42.98878" lon="0.56358">
        <ele>593</ele>
        <time>2019-06-30T06:01:48.000Z</time>
      </trkpt>
      <trkpt lat="42.98876" lon="0.56357">
        <ele>593</ele>
        <time>2019-06-30T06:01:50.000Z</time>
      </trkpt>
      <trkpt lat="42.98873" lon="0.56356">
        <ele>593</ele>
        <time>2019-06-30T06:01:52.000Z</time>
      </trkpt>
      <trkpt lat="42.98871" lon="0.56354">
        <ele>593</ele>
        <time>2019-06-30T06:01:54.000Z</time>
      </trkpt>
      <trkpt lat="42.98869" lon="0.56354">
        <ele>593</ele>
        <time>2019-06-30T06:01:56.000Z</time>
      </trkpt>
      <trkpt lat="42.98867" lon="0.56353">
        <ele>593</ele>
        <time>2019-06-30T06:01:58.000Z</time>
      </trkpt>
      <trkpt lat="42.98866" lon="0.56352">
        <ele>593</ele>
        <time>2019-06-30T06:02:00.000Z</time>
      </trkpt>
      <trkpt lat="42.98864" lon="0.56353">
        <ele>593</ele>
        <time>2019-06-30T06:02:02.000Z</time>
      </trkpt>
      <trkpt lat="42.98862" lon="0.56351">
        <ele>593</ele>
        <time>2019-06-30T06:02:04.000Z</time>
      </trkpt>
      <trkpt lat="42.9886" lon="0.56353">
        <ele>593</ele>
        <time>2019-06-30T06:02:06.000Z</time>
      </trkpt>
      <trkpt lat="42.98859" lon="0.56351">
        <ele>593</ele>
        <time>2019-06-30T06:02:08.000Z</time>
      </trkpt>
      <trkpt lat="42.9882" lon="0.56324">
        <ele>594</ele>
        <time>2019-06-30T06:02:10.000Z</time>
      </trkpt>
      <trkpt lat="42.98753" lon="0.56263">
        <ele>597</ele>
        <time>2019-06-30T06:02:13.000Z</time>
      </trkpt>
      <trkpt lat="42.98754" lon="0.56323">
        <ele>595</ele>
        <time>2019-06-30T06:02:16.000Z</time>
      </trkpt>
      <trkpt lat="42.98787" lon="0.56328">
        <ele>595</ele>
        <time>2019-06-30T06:02:18.000Z</time>
      </trkpt>
      <trkpt lat="42.9862" lon="0.56282">
        <ele>597</ele>
        <time>2019-06-30T06:02:20.000Z</time>
      </trkpt>
      <trkpt lat="42.98593" lon="0.56277">
        <ele>599</ele>
        <time>2019-06-30T06:02:22.000Z</time>
      </trkpt>
      <trkpt lat="42.98582" lon="0.56273">
        <ele>599</ele>
        <time>2019-06-30T06:02:24.000Z</time>
      </trkpt>
      <trkpt lat="42.9858" lon="0.56275">
        <ele>599</ele>
        <time>2019-06-30T06:02:26.000Z</time>
      </trkpt>
      <trkpt lat="42.98578" lon="0.56276">
        <ele>599</ele>
        <time>2019-06-30T06:02:28.000Z</time>
      </trkpt>
      <trkpt lat="42.98576" lon="0.56277">
        <ele>599</ele>
        <time>2019-06-30T06:02:30.000Z</time>
      </trkpt>
      <trkpt lat="42.98574" lon="0.56279">
        <ele>599</ele>
        <time>2019-06-30T06:02:32.000Z</time>
      </trkpt>
      <trkpt lat="42.98572" lon="0.56281">
        <ele>599</ele>
        <time>2019-06-30T06:02:34.000Z</time>
      </trkpt>
      <trkpt lat="42.9857" lon="0.56283">
        <ele>599</ele>
        <time>2019-06-30T06:02:36.000Z</time>
      </trkpt>
      <trkpt lat="42.98567" lon="0.56284">
        <ele>599</ele>
        <time>2019-06-30T06:02:38.000Z</time>
      </trkpt>
      <trkpt lat="42.98565" lon="0.56286">
        <ele>599</ele>
        <time>2019-06-30T06:02:40.000Z</time>
      </trkpt>
      <trkpt lat="42.98563" lon="0.56287">
        <ele>599</ele>
        <time>2019-06-30T06:02:42.000Z</time>
      </trkpt>
      <trkpt lat="42.98561" lon="0.56289">
        <ele>599</ele>
        <time>2019-06-30T06:02:44.000Z</time>
      </trkpt>
      <trkpt lat="42.98558" lon="0.56291">
        <ele>599</ele>
        <time>2019-06-30T06:02:46.000Z</time>
      </trkpt>
      <trkpt lat="42.98557" lon="0.56292">
        <ele>599</ele>
        <time>2019-06-30T06:02:48.000Z</time>
      </trkpt>
      <trkpt lat="42.98555" lon="0.56295">
        <ele>599</ele>
        <time>2019-06-30T06:02:50.000Z</time>
      </trkpt>
      <trkpt lat="42.98553" lon="0.56296">
        <ele>599</ele>
        <time>2019-06-30T06:02:52.000Z</time>
      </trkpt>
      <trkpt lat="42.98551" lon="0.56298">
        <ele>599</ele>
        <time>2019-06-30T06:02:54.000Z</time>
      </trkpt>
      <trkpt lat="42.98549" lon="0.56298">
        <ele>599</ele>
        <time>2019-06-30T06:02:56.000Z</time>
      </trkpt>
      <trkpt lat="42.98547" lon="0.56299">
        <ele>599</ele>
        <time>2019-06-30T06:02:58.000Z</time>
      </trkpt>
      <trkpt lat="42.98545" lon="0.56298">
        <ele>599</ele>
        <time>2019-06-30T06:03:00.000Z</time>
      </trkpt>
      <trkpt lat="42.98542" lon="0.56299">
        <ele>599</ele>
        <time>2019-06-30T06:03:02.000Z</time>
      </trkpt>
      <trkpt lat="42.9854" lon="0.563">
        <ele>599</ele>
        <time>2019-06-30T06:03:04.000Z</time>
      </trkpt>
      <trkpt lat="42.98538" lon="0.563">
        <ele>599</ele>
        <time>2019-06-30T06:03:06.000Z</time>
      </trkpt>
      <trkpt lat="42.98536" lon="0.56301">
        <ele>599</ele>
        <time>2019-06-30T06:03:08.000Z</time>
      </trkpt>
      <trkpt lat="42.98534" lon="0.56301">
        <ele>599</ele>
        <time>2019-06-30T06:03:10.000Z</time>
      </trkpt>
      <trkpt lat="42.98532" lon="0.56302">
        <ele>598</ele>
        <time>2019-06-30T06:03:12.000Z</time>
      </trkpt>
      <trkpt lat="42.9853" lon="0.56303">
        <ele>598</ele>
        <time>2019-06-30T06:03:14.000Z</time>
      </trkpt>
      <trkpt lat="42.98528" lon="0.56303">
        <ele>598</ele>
        <time>2019-06-30T06:03:16.000Z</time>
      </trkpt>
      <trkpt lat="42.98526" lon="0.56302">
        <ele>599</ele>
        <time>2019-06-30T06:03:18.000Z</time>
      </trkpt>
      <trkpt lat="42.98524" lon="0.56301">
        <ele>599</ele>
        <time>2019-06-30T06:03:20.000Z</time>
      </trkpt>
      <trkpt lat="42.98522" lon="0.563">
        <ele>599</ele>
        <time>2019-06-30T06:03:22.000Z</time>
      </trkpt>
      <trkpt lat="42.9852" lon="0.56298">
        <ele>599</ele>
        <time>2019-06-30T06:03:24.000Z</time>
      </trkpt>
      <trkpt lat="42.98518" lon="0.56299">
        <ele>599</ele>
        <time>2019-06-30T06:03:26.000Z</time>
      </trkpt>
      <trkpt lat="42.98516" lon="0.56298">
        <ele>599</ele>
        <time>2019-06-30T06:03:28.000Z</time>
      </trkpt>
      <trkpt lat="42.98514" lon="0.56298">
        <ele>599</ele>
        <time>2019-06-30T06:03:30.000Z</time>
      </trkpt>
      <trkpt lat="42.98512" lon="0.56297">
        <ele>599</ele>
        <time>2019-06-30T06:03:32.000Z</time>
      </trkpt>
      <trkpt lat="42.98511" lon="0.56296">
        <ele>599</ele>
        <time>2019-06-30T06:03:34.000Z</time>
      </trkpt>
      <trkpt lat="42.98509" lon="0.56296">
        <ele>599</ele>
        <time>2019-06-30T06:03:36.000Z</time>
      </trkpt>
      <trkpt lat="42.98508" lon="0.56296">
        <ele>599</ele>
        <time>2019-06-30T06:03:38.000Z</time>
      </trkpt>
      <trkpt lat="42.98506" lon="0.56295">
        <ele>599</ele>
        <time>2019-06-30T06:03:40.000Z</time>
      </trkpt>
      <trkpt lat="42.98504" lon="0.56295">
        <ele>599</ele>
        <time>2019-06-30T06:03:42.000Z</time>
      </trkpt>
      <trkpt lat="42.98503" lon="0.56296">
        <ele>599</ele>
        <time>2019-06-30T06:03:44.000Z</time>
      </trkpt>
      <trkpt lat="42.98501" lon="0.56295">
        <ele>599</ele>
        <time>2019-06-30T06:03:46.000Z</time>
      </trkpt>
      <trkpt lat="42.98499" lon="0.56294">
        <ele>599</ele>
        <time>2019-06-30T06:03:48.000Z</time>
      </trkpt>
      <trkpt lat="42.98497" lon="0.56293">
        <ele>600</ele>
        <time>2019-06-30T06:03:50.000Z</time>
      </trkpt>
      <trkpt lat="42.98495" lon="0.56291">
        <ele>600</ele>
        <time>2019-06-30T06:03:52.000Z</time>
      </trkpt>
      <trkpt lat="42.98493" lon="0.5629">
        <ele>600</ele>
        <time>2019-06-30T06:03:54.000Z</time>
      </trkpt>
      <trkpt lat="42.98491" lon="0.5629">
        <ele>600</ele>
        <time>2019-06-30T06:03:56.000Z</time>
      </trkpt>
      <trkpt lat="42.98487" lon="0.56291">
        <ele>600</ele>
        <time>2019-06-30T06:03:58.000Z</time>
      </trkpt>
      <trkpt lat="42.98485" lon="0.56291">
        <ele>600</ele>
        <time>2019-06-30T06:04:00.000Z</time>
      </trkpt>
      <trkpt lat="42.98483" lon="0.56291">
        <ele>600</ele>
        <time>2019-06-30T06:04:02.000Z</time>
      </trkpt>
      <trkpt lat="42.98481" lon="0.56292">
        <ele>601</ele>
        <time>2019-06-30T06:04:04.000Z</time>
      </trkpt>
      <trkpt lat="42.98479" lon="0.56292">
        <ele>601</ele>
        <time>2019-06-30T06:04:06.000Z</time>
      </trkpt>
      <trkpt lat="42.98477" lon="0.56292">
        <ele>601</ele>
        <time>2019-06-30T06:04:08.000Z</time>
      </trkpt>
      <trkpt lat="42.98475" lon="0.56292">
        <ele>601</ele>
        <time>2019-06-30T06:04:10.000Z</time>
      </trkpt>
      <trkpt lat="42.98473" lon="0.56293">
        <ele>601</ele>
        <time>2019-06-30T06:04:12.000Z</time>
      </trkpt>
      <trkpt lat="42.98471" lon="0.56294">
        <ele>601</ele>
        <time>2019-06-30T06:04:14.000Z</time>
      </trkpt>
      <trkpt lat="42.98469" lon="0.56295">
        <ele>602</ele>
        <time>2019-06-30T06:04:16.000Z</time>
      </trkpt>
      <trkpt lat="42.98467" lon="0.56296">
        <ele>602</ele>
        <time>2019-06-30T06:04:18.000Z</time>
      </trkpt>
      <trkpt lat="42.98465" lon="0.56297">
        <ele>602</ele>
        <time>2019-06-30T06:04:20.000Z</time>
      </trkpt>
      <trkpt lat="42.98464" lon="0.56299">
        <ele>602</ele>
        <time>2019-06-30T06:04:22.000Z</time>
      </trkpt>
      <trkpt lat="42.98463" lon="0.56301">
        <ele>602</ele>
        <time>2019-06-30T06:04:24.000Z</time>
      </trkpt>
      <trkpt lat="42.98461" lon="0.56302">
        <ele>602</ele>
        <time>2019-06-30T06:04:26.000Z</time>
      </trkpt>
      <trkpt lat="42.9846" lon="0.56303">
        <ele>602</ele>
        <time>2019-06-30T06:04:28.000Z</time>
      </trkpt>
      <trkpt lat="42.98458" lon="0.56305">
        <ele>602</ele>
        <time>2019-06-30T06:04:30.000Z</time>
      </trkpt>
      <trkpt lat="42.98457" lon="0.56307">
        <ele>602</ele>
        <time>2019-06-30T06:04:32.000Z</time>
      </trkpt>
      <trkpt lat="42.98455" lon="0.56308">
        <ele>602</ele>
        <time>2019-06-30T06:04:34.000Z</time>
      </trkpt>
      <trkpt lat="42.98453" lon="0.56309">
        <ele>602</ele>
        <time>2019-06-30T06:04:36.000Z</time>
      </trkpt>
      <trkpt lat="42.98451" lon="0.56311">
        <ele>602</ele>
        <time>2019-06-30T06:04:38.000Z</time>
      </trkpt>
      <trkpt lat="42.98449" lon="0.56312">
        <ele>602</ele>
        <time>2019-06-30T06:04:40.000Z</time>
      </trkpt>
      <trkpt lat="42.98447" lon="0.56313">
        <ele>601</ele>
        <time>2019-06-30T06:04:42.000Z</time>
      </trkpt>
      <trkpt lat="42.98445" lon="0.56314">
        <ele>601</ele>
        <time>2019-06-30T06:04:44.000Z</time>
      </trkpt>
      <trkpt lat="42.98443" lon="0.56316">
        <ele>601</ele>
        <time>2019-06-30T06:04:46.000Z</time>
      </trkpt>
      <trkpt lat="42.98441" lon="0.56316">
        <ele>601</ele>
        <time>2019-06-30T06:04:48.000Z</time>
      </trkpt>
      <trkpt lat="42.9844" lon="0.56317">
        <ele>601</ele>
        <time>2019-06-30T06:04:50.000Z</time>
      </trkpt>
      <trkpt lat="42.98438" lon="0.5632">
        <ele>601</ele>
        <time>2019-06-30T06:04:52.000Z</time>
      </trkpt>
      <trkpt lat="42.98436" lon="0.56321">
        <ele>601</ele>
        <time>2019-06-30T06:04:54.000Z</time>
      </trkpt>
      <trkpt lat="42.98434" lon="0.56322">
        <ele>601</ele>
        <time>2019-06-30T06:04:56.000Z</time>
      </trkpt>
      <trkpt lat="42.98433" lon="0.56323">
        <ele>601</ele>
        <time>2019-06-30T06:04:58.000Z</time>
      </trkpt>
      <trkpt lat="42.98431" lon="0.56325">
        <ele>601</ele>
        <time>2019-06-30T06:05:00.000Z</time>
      </trkpt>
      <trkpt lat="42.98429" lon="0.56327">
        <ele>601</ele>
        <time>2019-06-30T06:05:02.000Z</time>
      </trkpt>
      <trkpt lat="42.98428" lon="0.56328">
        <ele>601</ele>
        <time>2019-06-30T06:05:04.000Z</time>
      </trkpt>
      <trkpt lat="42.98426" lon="0.56329">
        <ele>601</ele>
        <time>2019-06-30T06:05:06.000Z</time>
      </trkpt>
      <trkpt lat="42.98424" lon="0.56331">
        <ele>601</ele>
        <time>2019-06-30T06:05:08.000Z</time>
      </trkpt>
      <trkpt lat="42.98422" lon="0.56331">
        <ele>601</ele>
        <time>2019-06-30T06:05:10.000Z</time>
      </trkpt>
      <trkpt lat="42.9842" lon="0.56332">
        <ele>601</ele>
        <time>2019-06-30T06:05:12.000Z</time>
      </trkpt>
      <trkpt lat="42.98418" lon="0.56333">
        <ele>601</ele>
        <time>2019-06-30T06:05:14.000Z</time>
      </trkpt>
      <trkpt lat="42.98416" lon="0.56334">
        <ele>601</ele>
        <time>2019-06-30T06:05:16.000Z</time>
      </trkpt>
      <trkpt lat="42.98415" lon="0.56335">
        <ele>601</ele>
        <time>2019-06-30T06:05:18.000Z</time>
      </trkpt>
      <trkpt lat="42.98413" lon="0.56336">
        <ele>601</ele>
        <time>2019-06-30T06:05:20.000Z</time>
      </trkpt>
      <trkpt lat="42.98412" lon="0.56336">
        <ele>601</ele>
        <time>2019-06-30T06:05:22.000Z</time>
      </trkpt>
      <trkpt lat="42.9841" lon="0.56337">
        <ele>601</ele>
        <time>2019-06-30T06:05:24.000Z</time>
      </trkpt>
      <trkpt lat="42.98409" lon="0.56338">
        <ele>601</ele>
        <time>2019-06-30T06:05:26.000Z</time>
      </trkpt>
      <trkpt lat="42.98408" lon="0.56339">
        <ele>600</ele>
        <time>2019-06-30T06:05:28.000Z</time>
      </trkpt>
      <trkpt lat="42.98406" lon="0.5634">
        <ele>600</ele>
        <time>2019-06-30T06:05:30.000Z</time>
      </trkpt>
      <trkpt lat="42.98404" lon="0.56341">
        <ele>600</ele>
        <time>2019-06-30T06:05:32.000Z</time>
      </trkpt>
      <trkpt lat="42.98403" lon="0.56342">
        <ele>600</ele>
        <time>2019-06-30T06:05:34.000Z</time>
      </trkpt>
      <trkpt lat="42.98401" lon="0.56343">
        <ele>600</ele>
        <time>2019-06-30T06:05:36.000Z</time>
      </trkpt>
      <trkpt lat="42.984" lon="0.56344">
        <ele>600</ele>
        <time>2019-06-30T06:05:38.000Z</time>
      </trkpt>
      <trkpt lat="42.98398" lon="0.56345">
        <ele>600</ele>
        <time>2019-06-30T06:05:40.000Z</time>
      </trkpt>
      <trkpt lat="42.98396" lon="0.56346">
        <ele>600</ele>
        <time>2019-06-30T06:05:42.000Z</time>
      </trkpt>
      <trkpt lat="42.98394" lon="0.56347">
        <ele>600</ele>
        <time>2019-06-30T06:05:44.000Z</time>
      </trkpt>
      <trkpt lat="42.98392" lon="0.56348">
        <ele>600</ele>
        <time>2019-06-30T06:05:46.000Z</time>
      </trkpt>
      <trkpt lat="42.9839" lon="0.56348">
        <ele>600</ele>
        <time>2019-06-30T06:05:48.000Z</time>
      </trkpt>
      <trkpt lat="42.98388" lon="0.56349">
        <ele>600</ele>
        <time>2019-06-30T06:05:50.000Z</time>
      </trkpt>
      <trkpt lat="42.98386" lon="0.56349">
        <ele>600</ele>
        <time>2019-06-30T06:05:52.000Z</time>
      </trkpt>
      <trkpt lat="42.98385" lon="0.5635">
        <ele>601</ele>
        <time>2019-06-30T06:05:54.000Z</time>
      </trkpt>
      <trkpt lat="42.98382" lon="0.56351">
        <ele>601</ele>
        <time>2019-06-30T06:05:56.000Z</time>
      </trkpt>
      <trkpt lat="42.9838" lon="0.56352">
        <ele>601</ele>
        <time>2019-06-30T06:05:58.000Z</time>
      </trkpt>
      <trkpt lat="42.98378" lon="0.56353">
        <ele>602</ele>
        <time>2019-06-30T06:06:00.000Z</time>
      </trkpt>
      <trkpt lat="42.98376" lon="0.56354">
        <ele>602</ele>
        <time>2019-06-30T06:06:02.000Z</time>
      </trkpt>
      <trkpt lat="42.98374" lon="0.56355">
        <ele>602</ele>
        <time>2019-06-30T06:06:04.000Z</time>
      </trkpt>
      <trkpt lat="42.98372" lon="0.56356">
        <ele>603</ele>
        <time>2019-06-30T06:06:06.000Z</time>
      </trkpt>
      <trkpt lat="42.9837" lon="0.56357">
        <ele>603</ele>
        <time>2019-06-30T06:06:08.000Z</time>
      </trkpt>
      <trkpt lat="42.98368" lon="0.56358">
        <ele>604</ele>
        <time>2019-06-30T06:06:10.000Z</time>
      </trkpt>
      <trkpt lat="42.98366" lon="0.56359">
        <ele>604</ele>
        <time>2019-06-30T06:06:12.000Z</time>
      </trkpt>
      <trkpt lat="42.98364" lon="0.56359">
        <ele>604</ele>
        <time>2019-06-30T06:06:14.000Z</time>
      </trkpt>
      <trkpt lat="42.98362" lon="0.5636">
        <ele>605</ele>
        <time>2019-06-30T06:06:16.000Z</time>
      </trkpt>
      <trkpt lat="42.9836" lon="0.56361">
        <ele>605</ele>
        <time>2019-06-30T06:06:18.000Z</time>
      </trkpt>
      <trkpt lat="42.98359" lon="0.56362">
        <ele>605</ele>
        <time>2019-06-30T06:06:20.000Z</time>
      </trkpt>
      <trkpt lat="42.98357" lon="0.56363">
        <ele>605</ele>
        <time>2019-06-30T06:06:22.000Z</time>
      </trkpt>
      <trkpt lat="42.98355" lon="0.56364">
        <ele>606</ele>
        <time>2019-06-30T06:06:24.000Z</time>
      </trkpt>
      <trkpt lat="42.98353" lon="0.56365">
        <ele>606</ele>
        <time>2019-06-30T06:06:26.000Z</time>
      </trkpt>
      <trkpt lat="42.98352" lon="0.56366">
        <ele>606</ele>
        <time>2019-06-30T06:06:28.000Z</time>
      </trkpt>
      <trkpt lat="42.98351" lon="0.56368">
        <ele>607</ele>
        <time>2019-06-30T06:06:30.000Z</time>
      </trkpt>
      <trkpt lat="42.98349" lon="0.5637">
        <ele>607</ele>
        <time>2019-06-30T06:06:32.000Z</time>
      </trkpt>
      <trkpt lat="42.98347" lon="0.56372">
        <ele>607</ele>
        <time>2019-06-30T06:06:34.000Z</time>
      </trkpt>
      <trkpt lat="42.98345" lon="0.56374">
        <ele>607</ele>
        <time>2019-06-30T06:06:36.000Z</time>
      </trkpt>
      <trkpt lat="42.98344" lon="0.56377">
        <ele>608</ele>
        <time>2019-06-30T06:06:38.000Z</time>
      </trkpt>
      <trkpt lat="42.98342" lon="0.56379">
        <ele>608</ele>
        <time>2019-06-30T06:06:40.000Z</time>
      </trkpt>
      <trkpt lat="42.9834" lon="0.56381">
        <ele>608</ele>
        <time>2019-06-30T06:06:42.000Z</time>
      </trkpt>
      <trkpt lat="42.98339" lon="0.56383">
        <ele>608</ele>
        <time>2019-06-30T06:06:44.000Z</time>
      </trkpt>
      <trkpt lat="42.98337" lon="0.56384">
        <ele>609</ele>
        <time>2019-06-30T06:06:46.000Z</time>
      </trkpt>
      <trkpt lat="42.98336" lon="0.56385">
        <ele>609</ele>
        <time>2019-06-30T06:06:48.000Z</time>
      </trkpt>
      <trkpt lat="42.98334" lon="0.56387">
        <ele>608</ele>
        <time>2019-06-30T06:06:50.000Z</time>
      </trkpt>
      <trkpt lat="42.98332" lon="0.56388">
        <ele>608</ele>
        <time>2019-06-30T06:06:52.000Z</time>
      </trkpt>
      <trkpt lat="42.9833" lon="0.5639">
        <ele>608</ele>
        <time>2019-06-30T06:06:54.000Z</time>
      </trkpt>
      <trkpt lat="42.98328" lon="0.56393">
        <ele>608</ele>
        <time>2019-06-30T06:06:56.000Z</time>
      </trkpt>
      <trkpt lat="42.98326" lon="0.56395">
        <ele>608</ele>
        <time>2019-06-30T06:06:58.000Z</time>
      </trkpt>
      <trkpt lat="42.98324" lon="0.56396">
        <ele>608</ele>
        <time>2019-06-30T06:07:00.000Z</time>
      </trkpt>
      <trkpt lat="42.98323" lon="0.56398">
        <ele>608</ele>
        <time>2019-06-30T06:07:02.000Z</time>
      </trkpt>
      <trkpt lat="42.98322" lon="0.564">
        <ele>608</ele>
        <time>2019-06-30T06:07:04.000Z</time>
      </trkpt>
      <trkpt lat="42.98321" lon="0.56401">
        <ele>607</ele>
        <time>2019-06-30T06:07:06.000Z</time>
      </trkpt>
      <trkpt lat="42.98322" lon="0.56401">
        <ele>607</ele>
        <time>2019-06-30T06:07:08.000Z</time>
      </trkpt>
      <trkpt lat="42.98322" lon="0.56402">
        <ele>607</ele>
        <time>2019-06-30T06:07:10.000Z</time>
      </trkpt>
      <trkpt lat="42.98322" lon="0.56403">
        <ele>607</ele>
        <time>2019-06-30T06:07:12.000Z</time>
      </trkpt>
      <trkpt lat="42.98323" lon="0.56404">
        <ele>607</ele>
        <time>2019-06-30T06:07:14.000Z</time>
      </trkpt>
      <trkpt lat="42.98324" lon="0.56405">
        <ele>607</ele>
        <time>2019-06-30T06:07:16.000Z</time>
      </trkpt>
      <trkpt lat="42.98324" lon="0.56405">
        <ele>606</ele>
        <time>2019-06-30T06:07:18.000Z</time>
      </trkpt>
      <trkpt lat="42.98323" lon="0.56405">
        <ele>606</ele>
        <time>2019-06-30T06:07:20.000Z</time>
      </trkpt>
      <trkpt lat="42.98323" lon="0.56406">
        <ele>606</ele>
        <time>2019-06-30T06:07:22.000Z</time>
      </trkpt>
      <trkpt lat="42.98323" lon="0.56406">
        <ele>606</ele>
        <time>2019-06-30T06:07:24.000Z</time>
      </trkpt>
      <trkpt lat="42.98324" lon="0.56406">
        <ele>606</ele>
        <time>2019-06-30T06:07:26.000Z</time>
      </trkpt>
      <trkpt lat="42.98324" lon="0.56406">
        <ele>606</ele>
        <time>2019-06-30T06:07:28.000Z</time>
      </trkpt>
      <trkpt lat="42.98324" lon="0.56406">
        <ele>606</ele>
        <time>2019-06-30T06:07:30.000Z</time>
      </trkpt>
      <trkpt lat="42.98324" lon="0.56406">
        <ele>606</ele>
        <time>2019-06-30T06:07:32.000Z</time>
      </trkpt>
      <trkpt lat="42.98324" lon="0.56406">
        <ele>606</ele>
        <time>2019-06-30T06:07:34.000Z</time>
      </trkpt>
      <trkpt lat="42.98324" lon="0.56406">
        <ele>606</ele>
        <time>2019-06-30T06:07:36.000Z</time>
      </trkpt>
      <trkpt lat="42.98325" lon="0.56407">
        <ele>606</ele>
        <time>2019-06-30T06:07:38.000Z</time>
      </trkpt>
      <trkpt lat="42.98325" lon="0.56407">
        <ele>606</ele>
        <time>2019-06-30T06:07:40.000Z</time>
      </trkpt>
      <trkpt lat="42.98324" lon="0.56407">
        <ele>606</ele>
        <time>2019-06-30T06:07:42.000Z</time>
      </trkpt>
      <trkpt lat="42.98324" lon="0.56407">
        <ele>606</ele>
        <time>2019-06-30T06:07:44.000Z</time>
      </trkpt>
      <trkpt lat="42.98324" lon="0.56407">
        <ele>606</ele>
        <time>2019-06-30T06:07:46.000Z</time>
      </trkpt>
      <trkpt lat="42.98324" lon="0.56406">
        <ele>606</ele>
        <time>2019-06-30T06:07:48.000Z</time>
      </trkpt>
      <trkpt lat="42.98324" lon="0.56405">
        <ele>607</ele>
        <time>2019-06-30T06:07:50.000Z</time>
      </trkpt>
      <trkpt lat="42.98324" lon="0.56403">
        <ele>607</ele>
        <time>2019-06-30T06:07:52.000Z</time>
      </trkpt>
      <trkpt lat="42.98324" lon="0.56402">
        <ele>607</ele>
        <time>2019-06-30T06:07:54.000Z</time>
      </trkpt>
      <trkpt lat="42.98323" lon="0.56402">
        <ele>607</ele>
        <time>2019-06-30T06:07:56.000Z</time>
      </trkpt>
      <trkpt lat="42.98322" lon="0.56401">
        <ele>607</ele>
        <time>2019-06-30T06:07:58.000Z</time>
      </trkpt>
      <trkpt lat="42.98321" lon="0.56401">
        <ele>607</ele>
        <time>2019-06-30T06:08:00.000Z</time>
      </trkpt>
      <trkpt lat="42.9832" lon="0.56402">
        <ele>607</ele>
        <time>2019-06-30T06:08:02.000Z</time>
      </trkpt>
      <trkpt lat="42.9832" lon="0.56402">
        <ele>607</ele>
        <time>2019-06-30T06:08:04.000Z</time>
      </trkpt>
      <trkpt lat="42.9832" lon="0.56402">
        <ele>607</ele>
        <time>2019-06-30T06:08:06.000Z</time>
      </trkpt>
      <trkpt lat="42.9832" lon="0.56402">
        <ele>607</ele>
        <time>2019-06-30T06:08:08.000Z</time>
      </trkpt>
      <trkpt lat="42.9832" lon="0.56402">
        <ele>607</ele>
        <time>2019-06-30T06:08:10.000Z</time>
      </trkpt>
      <trkpt lat="42.98319" lon="0.56401">
        <ele>608</ele>
        <time>2019-06-30T06:08:12.000Z</time>
      </trkpt>
      <trkpt lat="42.98319" lon="0.56402">
        <ele>608</ele>
        <time>2019-06-30T06:08:14.000Z</time>
      </trkpt>
      <trkpt lat="42.98318" lon="0.56402">
        <ele>608</ele>
        <time>2019-06-30T06:08:16.000Z</time>
      </trkpt>
      <trkpt lat="42.98317" lon="0.56403">
        <ele>608</ele>
        <time>2019-06-30T06:08:18.000Z</time>
      </trkpt>
      <trkpt lat="42.98315" lon="0.56405">
        <ele>607</ele>
        <time>2019-06-30T06:08:20.000Z</time>
      </trkpt>
      <trkpt lat="42.98313" lon="0.56406">
        <ele>607</ele>
        <time>2019-06-30T06:08:22.000Z</time>
      </trkpt>
      <trkpt lat="42.98311" lon="0.56407">
        <ele>607</ele>
        <time>2019-06-30T06:08:24.000Z</time>
      </trkpt>
      <trkpt lat="42.98309" lon="0.56409">
        <ele>607</ele>
        <time>2019-06-30T06:08:26.000Z</time>
      </trkpt>
      <trkpt lat="42.98307" lon="0.56412">
        <ele>607</ele>
        <time>2019-06-30T06:08:28.000Z</time>
      </trkpt>
      <trkpt lat="42.98305" lon="0.56414">
        <ele>607</ele>
        <time>2019-06-30T06:08:30.000Z</time>
      </trkpt>
      <trkpt lat="42.98303" lon="0.56417">
        <ele>607</ele>
        <time>2019-06-30T06:08:32.000Z</time>
      </trkpt>
      <trkpt lat="42.98301" lon="0.56419">
        <ele>606</ele>
        <time>2019-06-30T06:08:34.000Z</time>
      </trkpt>
      <trkpt lat="42.98299" lon="0.56422">
        <ele>606</ele>
        <time>2019-06-30T06:08:36.000Z</time>
      </trkpt>
      <trkpt lat="42.98297" lon="0.56423">
        <ele>606</ele>
        <time>2019-06-30T06:08:38.000Z</time>
      </trkpt>
      <trkpt lat="42.98296" lon="0.56425">
        <ele>606</ele>
        <time>2019-06-30T06:08:40.000Z</time>
      </trkpt>
      <trkpt lat="42.98294" lon="0.56425">
        <ele>606</ele>
        <time>2019-06-30T06:08:42.000Z</time>
      </trkpt>
      <trkpt lat="42.98294" lon="0.56425">
        <ele>607</ele>
        <time>2019-06-30T06:08:44.000Z</time>
      </trkpt>
      <trkpt lat="42.98293" lon="0.56426">
        <ele>607</ele>
        <time>2019-06-30T06:08:46.000Z</time>
      </trkpt>
      <trkpt lat="42.98291" lon="0.56424">
        <ele>607</ele>
        <time>2019-06-30T06:08:48.000Z</time>
      </trkpt>
      <trkpt lat="42.9829" lon="0.56424">
        <ele>607</ele>
        <time>2019-06-30T06:08:50.000Z</time>
      </trkpt>
      <trkpt lat="42.98288" lon="0.56424">
        <ele>608</ele>
        <time>2019-06-30T06:08:52.000Z</time>
      </trkpt>
      <trkpt lat="42.98286" lon="0.56423">
        <ele>608</ele>
        <time>2019-06-30T06:08:54.000Z</time>
      </trkpt>
      <trkpt lat="42.98283" lon="0.56422">
        <ele>609</ele>
        <time>2019-06-30T06:08:56.000Z</time>
      </trkpt>
      <trkpt lat="42.98281" lon="0.56422">
        <ele>609</ele>
        <time>2019-06-30T06:08:58.000Z</time>
      </trkpt>
      <trkpt lat="42.98278" lon="0.56421">
        <ele>610</ele>
        <time>2019-06-30T06:09:00.000Z</time>
      </trkpt>
      <trkpt lat="42.98276" lon="0.56421">
        <ele>610</ele>
        <time>2019-06-30T06:09:02.000Z</time>
      </trkpt>
      <trkpt lat="42.98274" lon="0.5642">
        <ele>610</ele>
        <time>2019-06-30T06:09:04.000Z</time>
      </trkpt>
      <trkpt lat="42.98272" lon="0.56419">
        <ele>611</ele>
        <time>2019-06-30T06:09:06.000Z</time>
      </trkpt>
      <trkpt lat="42.9827" lon="0.56418">
        <ele>611</ele>
        <time>2019-06-30T06:09:08.000Z</time>
      </trkpt>
      <trkpt lat="42.98269" lon="0.56417">
        <ele>612</ele>
        <time>2019-06-30T06:09:10.000Z</time>
      </trkpt>
      <trkpt lat="42.98266" lon="0.56417">
        <ele>612</ele>
        <time>2019-06-30T06:09:12.000Z</time>
      </trkpt>
      <trkpt lat="42.98265" lon="0.56417">
        <ele>612</ele>
        <time>2019-06-30T06:09:14.000Z</time>
      </trkpt>
      <trkpt lat="42.98264" lon="0.56416">
        <ele>613</ele>
        <time>2019-06-30T06:09:16.000Z</time>
      </trkpt>
      <trkpt lat="42.98263" lon="0.56415">
        <ele>613</ele>
        <time>2019-06-30T06:09:18.000Z</time>
      </trkpt>
      <trkpt lat="42.98261" lon="0.56414">
        <ele>613</ele>
        <time>2019-06-30T06:09:20.000Z</time>
      </trkpt>
      <trkpt lat="42.98259" lon="0.56413">
        <ele>614</ele>
        <time>2019-06-30T06:09:22.000Z</time>
      </trkpt>
      <trkpt lat="42.98257" lon="0.56413">
        <ele>614</ele>
        <time>2019-06-30T06:09:24.000Z</time>
      </trkpt>
      <trkpt lat="42.98255" lon="0.56411">
        <ele>615</ele>
        <time>2019-06-30T06:09:26.000Z</time>
      </trkpt>
      <trkpt lat="42.98253" lon="0.5641">
        <ele>616</ele>
        <time>2019-06-30T06:09:28.000Z</time>
      </trkpt>
      <trkpt lat="42.98252" lon="0.56409">
        <ele>617</ele>
        <time>2019-06-30T06:09:30.000Z</time>
      </trkpt>
      <trkpt lat="42.9825" lon="0.56409">
        <ele>618</ele>
        <time>2019-06-30T06:09:32.000Z</time>
      </trkpt>
      <trkpt lat="42.98249" lon="0.56408">
        <ele>619</ele>
        <time>2019-06-30T06:09:34.000Z</time>
      </trkpt>
      <trkpt lat="42.98247" lon="0.56406">
        <ele>619</ele>
        <time>2019-06-30T06:09:36.000Z</time>
      </trkpt>
      <trkpt lat="42.98245" lon="0.56405">
        <ele>620</ele>
        <time>2019-06-30T06:09:38.000Z</time>
      </trkpt>
      <trkpt lat="42.98244" lon="0.56405">
        <ele>621</ele>
        <time>2019-06-30T06:09:40.000Z</time>
      </trkpt>
      <trkpt lat="42.98242" lon="0.56404">
        <ele>622</ele>
        <time>2019-06-30T06:09:42.000Z</time>
      </trkpt>
      <trkpt lat="42.98241" lon="0.56403">
        <ele>622</ele>
        <time>2019-06-30T06:09:44.000Z</time>
      </trkpt>
      <trkpt lat="42.9824" lon="0.56402">
        <ele>623</ele>
        <time>2019-06-30T06:09:46.000Z</time>
      </trkpt>
      <trkpt lat="42.98239" lon="0.56401">
        <ele>623</ele>
        <time>2019-06-30T06:09:48.000Z</time>
      </trkpt>
      <trkpt lat="42.9824" lon="0.564">
        <ele>623</ele>
        <time>2019-06-30T06:09:50.000Z</time>
      </trkpt>
      <trkpt lat="42.98241" lon="0.56397">
        <ele>623</ele>
        <time>2019-06-30T06:09:52.000Z</time>
      </trkpt>
      <trkpt lat="42.98243" lon="0.56396">
        <ele>622</ele>
        <time>2019-06-30T06:09:54.000Z</time>
      </trkpt>
      <trkpt lat="42.98245" lon="0.56393">
        <ele>622</ele>
        <time>2019-06-30T06:09:56.000Z</time>
      </trkpt>
      <trkpt lat="42.98246" lon="0.5639">
        <ele>622</ele>
        <time>2019-06-30T06:09:58.000Z</time>
      </trkpt>
      <trkpt lat="42.98247" lon="0.56388">
        <ele>621</ele>
        <time>2019-06-30T06:10:00.000Z</time>
      </trkpt>
      <trkpt lat="42.98248" lon="0.56386">
        <ele>621</ele>
        <time>2019-06-30T06:10:02.000Z</time>
      </trkpt>
      <trkpt lat="42.98249" lon="0.56385">
        <ele>621</ele>
        <time>2019-06-30T06:10:04.000Z</time>
      </trkpt>
      <trkpt lat="42.9825" lon="0.56383">
        <ele>620</ele>
        <time>2019-06-30T06:10:06.000Z</time>
      </trkpt>
      <trkpt lat="42.98252" lon="0.56383">
        <ele>620</ele>
        <time>2019-06-30T06:10:08.000Z</time>
      </trkpt>
      <trkpt lat="42.98253" lon="0.56381">
        <ele>620</ele>
        <time>2019-06-30T06:10:10.000Z</time>
      </trkpt>
      <trkpt lat="42.98254" lon="0.56378">
        <ele>619</ele>
        <time>2019-06-30T06:10:12.000Z</time>
      </trkpt>
      <trkpt lat="42.98255" lon="0.56376">
        <ele>619</ele>
        <time>2019-06-30T06:10:14.000Z</time>
      </trkpt>
      <trkpt lat="42.98255" lon="0.56374">
        <ele>619</ele>
        <time>2019-06-30T06:10:16.000Z</time>
      </trkpt>
      <trkpt lat="42.98256" lon="0.56372">
        <ele>619</ele>
        <time>2019-06-30T06:10:18.000Z</time>
      </trkpt>
      <trkpt lat="42.98258" lon="0.56368">
        <ele>618</ele>
        <time>2019-06-30T06:10:20.000Z</time>
      </trkpt>
      <trkpt lat="42.98259" lon="0.56366">
        <ele>618</ele>
        <time>2019-06-30T06:10:22.000Z</time>
      </trkpt>
      <trkpt lat="42.98259" lon="0.56363">
        <ele>619</ele>
        <time>2019-06-30T06:10:24.000Z</time>
      </trkpt>
      <trkpt lat="42.9826" lon="0.56361">
        <ele>619</ele>
        <time>2019-06-30T06:10:26.000Z</time>
      </trkpt>
      <trkpt lat="42.9826" lon="0.56358">
        <ele>619</ele>
        <time>2019-06-30T06:10:28.000Z</time>
      </trkpt>
      <trkpt lat="42.9826" lon="0.56355">
        <ele>619</ele>
        <time>2019-06-30T06:10:30.000Z</time>
      </trkpt>
      <trkpt lat="42.9826" lon="0.56352">
        <ele>619</ele>
        <time>2019-06-30T06:10:32.000Z</time>
      </trkpt>
      <trkpt lat="42.98259" lon="0.5635">
        <ele>620</ele>
        <time>2019-06-30T06:10:34.000Z</time>
      </trkpt>
      <trkpt lat="42.98259" lon="0.56348">
        <ele>620</ele>
        <time>2019-06-30T06:10:36.000Z</time>
      </trkpt>
      <trkpt lat="42.9826" lon="0.56345">
        <ele>620</ele>
        <time>2019-06-30T06:10:38.000Z</time>
      </trkpt>
      <trkpt lat="42.9826" lon="0.56343">
        <ele>620</ele>
        <time>2019-06-30T06:10:40.000Z</time>
      </trkpt>
      <trkpt lat="42.98259" lon="0.56341">
        <ele>621</ele>
        <time>2019-06-30T06:10:42.000Z</time>
      </trkpt>
      <trkpt lat="42.9826" lon="0.56339">
        <ele>621</ele>
        <time>2019-06-30T06:10:44.000Z</time>
      </trkpt>
      <trkpt lat="42.98261" lon="0.56336">
        <ele>621</ele>
        <time>2019-06-30T06:10:46.000Z</time>
      </trkpt>
      <trkpt lat="42.98261" lon="0.56334">
        <ele>621</ele>
        <time>2019-06-30T06:10:48.000Z</time>
      </trkpt>
      <trkpt lat="42.98261" lon="0.56332">
        <ele>621</ele>
        <time>2019-06-30T06:10:50.000Z</time>
      </trkpt>
      <trkpt lat="42.98261" lon="0.56329">
        <ele>621</ele>
        <time>2019-06-30T06:10:52.000Z</time>
      </trkpt>
      <trkpt lat="42.98261" lon="0.56327">
        <ele>622</ele>
        <time>2019-06-30T06:10:54.000Z</time>
      </trkpt>
      <trkpt lat="42.98261" lon="0.56325">
        <ele>622</ele>
        <time>2019-06-30T06:10:56.000Z</time>
      </trkpt>
      <trkpt lat="42.98261" lon="0.56322">
        <ele>622</ele>
        <time>2019-06-30T06:10:58.000Z</time>
      </trkpt>
      <trkpt lat="42.98261" lon="0.56319">
        <ele>622</ele>
        <time>2019-06-30T06:11:00.000Z</time>
      </trkpt>
      <trkpt lat="42.98261" lon="0.56316">
        <ele>622</ele>
        <time>2019-06-30T06:11:02.000Z</time>
      </trkpt>
      <trkpt lat="42.98261" lon="0.56314">
        <ele>623</ele>
        <time>2019-06-30T06:11:04.000Z</time>
      </trkpt>
      <trkpt lat="42.9826" lon="0.56311">
        <ele>623</ele>
        <time>2019-06-30T06:11:06.000Z</time>
      </trkpt>
      <trkpt lat="42.9826" lon="0.56309">
        <ele>623</ele>
        <time>2019-06-30T06:11:08.000Z</time>
      </trkpt>
      <trkpt lat="42.9826" lon="0.56305">
        <ele>624</ele>
        <time>2019-06-30T06:11:10.000Z</time>
      </trkpt>
      <trkpt lat="42.9826" lon="0.56302">
        <ele>624</ele>
        <time>2019-06-30T06:11:12.000Z</time>
      </trkpt>
      <trkpt lat="42.9826" lon="0.563">
        <ele>624</ele>
        <time>2019-06-30T06:11:14.000Z</time>
      </trkpt>
      <trkpt lat="42.9826" lon="0.56298">
        <ele>624</ele>
        <time>2019-06-30T06:11:16.000Z</time>
      </trkpt>
      <trkpt lat="42.98261" lon="0.56295">
        <ele>624</ele>
        <time>2019-06-30T06:11:18.000Z</time>
      </trkpt>
      <trkpt lat="42.98261" lon="0.56292">
        <ele>625</ele>
        <time>2019-06-30T06:11:20.000Z</time>
      </trkpt>
      <trkpt lat="42.98261" lon="0.56289">
        <ele>625</ele>
        <time>2019-06-30T06:11:22.000Z</time>
      </trkpt>
      <trkpt lat="42.98262" lon="0.56287">
        <ele>625</ele>
        <time>2019-06-30T06:11:24.000Z</time>
      </trkpt>
      <trkpt lat="42.98263" lon="0.56284">
        <ele>625</ele>
        <time>2019-06-30T06:11:26.000Z</time>
      </trkpt>
      <trkpt lat="42.98262" lon="0.56282">
        <ele>625</ele>
        <time>2019-06-30T06:11:28.000Z</time>
      </trkpt>
      <trkpt lat="42.98261" lon="0.5628">
        <ele>626</ele>
        <time>2019-06-30T06:11:30.000Z</time>
      </trkpt>
      <trkpt lat="42.98259" lon="0.56278">
        <ele>626</ele>
        <time>2019-06-30T06:11:32.000Z</time>
      </trkpt>
      <trkpt lat="42.98259" lon="0.56275">
        <ele>627</ele>
        <time>2019-06-30T06:11:34.000Z</time>
      </trkpt>
      <trkpt lat="42.98258" lon="0.56274">
        <ele>627</ele>
        <time>2019-06-30T06:11:36.000Z</time>
      </trkpt>
      <trkpt lat="42.98257" lon="0.56273">
        <ele>627</ele>
        <time>2019-06-30T06:11:38.000Z</time>
      </trkpt>
      <trkpt lat="42.98257" lon="0.56272">
        <ele>628</ele>
        <time>2019-06-30T06:11:40.000Z</time>
      </trkpt>
      <trkpt lat="42.98256" lon="0.56273">
        <ele>628</ele>
        <time>2019-06-30T06:11:42.000Z</time>
      </trkpt>
      <trkpt lat="42.98256" lon="0.56273">
        <ele>628</ele>
        <time>2019-06-30T06:11:44.000Z</time>
      </trkpt>
      <trkpt lat="42.98256" lon="0.56273">
        <ele>628</ele>
        <time>2019-06-30T06:11:46.000Z</time>
      </trkpt>
      <trkpt lat="42.98255" lon="0.56272">
        <ele>629</ele>
        <time>2019-06-30T06:11:48.000Z</time>
      </trkpt>
      <trkpt lat="42.98255" lon="0.56272">
        <ele>629</ele>
        <time>2019-06-30T06:11:50.000Z</time>
      </trkpt>
      <trkpt lat="42.98255" lon="0.56271">
        <ele>629</ele>
        <time>2019-06-30T06:11:52.000Z</time>
      </trkpt>
      <trkpt lat="42.98255" lon="0.56271">
        <ele>629</ele>
        <time>2019-06-30T06:11:54.000Z</time>
      </trkpt>
      <trkpt lat="42.98255" lon="0.56271">
        <ele>629</ele>
        <time>2019-06-30T06:11:56.000Z</time>
      </trkpt>
      <trkpt lat="42.98256" lon="0.56271">
        <ele>629</ele>
        <time>2019-06-30T06:11:58.000Z</time>
      </trkpt>
      <trkpt lat="42.98256" lon="0.5627">
        <ele>629</ele>
        <time>2019-06-30T06:12:00.000Z</time>
      </trkpt>
      <trkpt lat="42.98256" lon="0.5627">
        <ele>629</ele>
        <time>2019-06-30T06:12:02.000Z</time>
      </trkpt>
      <trkpt lat="42.98256" lon="0.5627">
        <ele>629</ele>
        <time>2019-06-30T06:12:04.000Z</time>
      </trkpt>
      <trkpt lat="42.98255" lon="0.5627">
        <ele>629</ele>
        <time>2019-06-30T06:12:06.000Z</time>
      </trkpt>
      <trkpt lat="42.98255" lon="0.5627">
        <ele>629</ele>
        <time>2019-06-30T06:12:08.000Z</time>
      </trkpt>
      <trkpt lat="42.98254" lon="0.5627">
        <ele>629</ele>
        <time>2019-06-30T06:12:10.000Z</time>
      </trkpt>
      <trkpt lat="42.98254" lon="0.5627">
        <ele>630</ele>
        <time>2019-06-30T06:12:12.000Z</time>
      </trkpt>
      <trkpt lat="42.98252" lon="0.5627">
        <ele>630</ele>
        <time>2019-06-30T06:12:14.000Z</time>
      </trkpt>
      <trkpt lat="42.98251" lon="0.5627">
        <ele>631</ele>
        <time>2019-06-30T06:12:16.000Z</time>
      </trkpt>
      <trkpt lat="42.98251" lon="0.56269">
        <ele>631</ele>
        <time>2019-06-30T06:12:18.000Z</time>
      </trkpt>
      <trkpt lat="42.9825" lon="0.56269">
        <ele>631</ele>
        <time>2019-06-30T06:12:20.000Z</time>
      </trkpt>
      <trkpt lat="42.9825" lon="0.56269">
        <ele>631</ele>
        <time>2019-06-30T06:12:22.000Z</time>
      </trkpt>
      <trkpt lat="42.9825" lon="0.56268">
        <ele>632</ele>
        <time>2019-06-30T06:12:24.000Z</time>
      </trkpt>
      <trkpt lat="42.9825" lon="0.56267">
        <ele>632</ele>
        <time>2019-06-30T06:12:26.000Z</time>
      </trkpt>
      <trkpt lat="42.98251" lon="0.56267">
        <ele>631</ele>
        <time>2019-06-30T06:12:28.000Z</time>
      </trkpt>
      <trkpt lat="42.98251" lon="0.56266">
        <ele>631</ele>
        <time>2019-06-30T06:12:30.000Z</time>
      </trkpt>
      <trkpt lat="42.98251" lon="0.56265">
        <ele>631</ele>
        <time>2019-06-30T06:12:32.000Z</time>
      </trkpt>
      <trkpt lat="42.98251" lon="0.56265">
        <ele>632</ele>
        <time>2019-06-30T06:12:34.000Z</time>
      </trkpt>
      <trkpt lat="42.98251" lon="0.56265">
        <ele>631</ele>
        <time>2019-06-30T06:12:36.000Z</time>
      </trkpt>
      <trkpt lat="42.98252" lon="0.56265">
        <ele>631</ele>
        <time>2019-06-30T06:12:38.000Z</time>
      </trkpt>
      <trkpt lat="42.98253" lon="0.56265">
        <ele>631</ele>
        <time>2019-06-30T06:12:40.000Z</time>
      </trkpt>
      <trkpt lat="42.98253" lon="0.56265">
        <ele>630</ele>
        <time>2019-06-30T06:12:42.000Z</time>
      </trkpt>
      <trkpt lat="42.98254" lon="0.56264">
        <ele>630</ele>
        <time>2019-06-30T06:12:44.000Z</time>
      </trkpt>
      <trkpt lat="42.98254" lon="0.56263">
        <ele>630</ele>
        <time>2019-06-30T06:12:46.000Z</time>
      </trkpt>
      <trkpt lat="42.98255" lon="0.56262">
        <ele>630</ele>
        <time>2019-06-30T06:12:48.000Z</time>
      </trkpt>
      <trkpt lat="42.98255" lon="0.56261">
        <ele>630</ele>
        <time>2019-06-30T06:12:50.000Z</time>
      </trkpt>
      <trkpt lat="42.98255" lon="0.56259">
        <ele>630</ele>
        <time>2019-06-30T06:12:52.000Z</time>
      </trkpt>
      <trkpt lat="42.98254" lon="0.56259">
        <ele>630</ele>
        <time>2019-06-30T06:12:54.000Z</time>
      </trkpt>
      <trkpt lat="42.98254" lon="0.56257">
        <ele>631</ele>
        <time>2019-06-30T06:12:56.000Z</time>
      </trkpt>
      <trkpt lat="42.98254" lon="0.56256">
        <ele>631</ele>
        <time>2019-06-30T06:12:58.000Z</time>
      </trkpt>
      <trkpt lat="42.98253" lon="0.56254">
        <ele>632</ele>
        <time>2019-06-30T06:13:00.000Z</time>
      </trkpt>
      <trkpt lat="42.98253" lon="0.56254">
        <ele>632</ele>
        <time>2019-06-30T06:13:02.000Z</time>
      </trkpt>
      <trkpt lat="42.98252" lon="0.56252">
        <ele>632</ele>
        <time>2019-06-30T06:13:04.000Z</time>
      </trkpt>
      <trkpt lat="42.98251" lon="0.56251">
        <ele>633</ele>
        <time>2019-06-30T06:13:06.000Z</time>
      </trkpt>
      <trkpt lat="42.9825" lon="0.5625">
        <ele>634</ele>
        <time>2019-06-30T06:13:08.000Z</time>
      </trkpt>
      <trkpt lat="42.98249" lon="0.56248">
        <ele>634</ele>
        <time>2019-06-30T06:13:10.000Z</time>
      </trkpt>
      <trkpt lat="42.98248" lon="0.56246">
        <ele>635</ele>
        <time>2019-06-30T06:13:12.000Z</time>
      </trkpt>
      <trkpt lat="42.98247" lon="0.56244">
        <ele>636</ele>
        <time>2019-06-30T06:13:14.000Z</time>
      </trkpt>
      <trkpt lat="42.98246" lon="0.56243">
        <ele>636</ele>
        <time>2019-06-30T06:13:16.000Z</time>
      </trkpt>
      <trkpt lat="42.98245" lon="0.56241">
        <ele>637</ele>
        <time>2019-06-30T06:13:18.000Z</time>
      </trkpt>
      <trkpt lat="42.98245" lon="0.56238">
        <ele>638</ele>
        <time>2019-06-30T06:13:20.000Z</time>
      </trkpt>
      <trkpt lat="42.98244" lon="0.56236">
        <ele>638</ele>
        <time>2019-06-30T06:13:22.000Z</time>
      </trkpt>
      <trkpt lat="42.98244" lon="0.56233">
        <ele>638</ele>
        <time>2019-06-30T06:13:24.000Z</time>
      </trkpt>
      <trkpt lat="42.98244" lon="0.5623">
        <ele>639</ele>
        <time>2019-06-30T06:13:26.000Z</time>
      </trkpt>
      <trkpt lat="42.98243" lon="0.56228">
        <ele>639</ele>
        <time>2019-06-30T06:13:28.000Z</time>
      </trkpt>
      <trkpt lat="42.98243" lon="0.56225">
        <ele>640</ele>
        <time>2019-06-30T06:13:30.000Z</time>
      </trkpt>
      <trkpt lat="42.98244" lon="0.56223">
        <ele>640</ele>
        <time>2019-06-30T06:13:32.000Z</time>
      </trkpt>
      <trkpt lat="42.98244" lon="0.5622">
        <ele>640</ele>
        <time>2019-06-30T06:13:34.000Z</time>
      </trkpt>
      <trkpt lat="42.98244" lon="0.56217">
        <ele>640</ele>
        <time>2019-06-30T06:13:36.000Z</time>
      </trkpt>
      <trkpt lat="42.98245" lon="0.56215">
        <ele>640</ele>
        <time>2019-06-30T06:13:38.000Z</time>
      </trkpt>
      <trkpt lat="42.98245" lon="0.56212">
        <ele>640</ele>
        <time>2019-06-30T06:13:40.000Z</time>
      </trkpt>
      <trkpt lat="42.98246" lon="0.5621">
        <ele>640</ele>
        <time>2019-06-30T06:13:42.000Z</time>
      </trkpt>
      <trkpt lat="42.98246" lon="0.56209">
        <ele>640</ele>
        <time>2019-06-30T06:13:44.000Z</time>
      </trkpt>
      <trkpt lat="42.98248" lon="0.56206">
        <ele>640</ele>
        <time>2019-06-30T06:13:46.000Z</time>
      </trkpt>
      <trkpt lat="42.98249" lon="0.56203">
        <ele>640</ele>
        <time>2019-06-30T06:13:48.000Z</time>
      </trkpt>
      <trkpt lat="42.98252" lon="0.562">
        <ele>639</ele>
        <time>2019-06-30T06:13:50.000Z</time>
      </trkpt>
      <trkpt lat="42.98253" lon="0.56198">
        <ele>639</ele>
        <time>2019-06-30T06:13:52.000Z</time>
      </trkpt>
      <trkpt lat="42.98254" lon="0.56195">
        <ele>639</ele>
        <time>2019-06-30T06:13:54.000Z</time>
      </trkpt>
      <trkpt lat="42.98256" lon="0.56192">
        <ele>639</ele>
        <time>2019-06-30T06:13:56.000Z</time>
      </trkpt>
      <trkpt lat="42.98258" lon="0.5619">
        <ele>638</ele>
        <time>2019-06-30T06:13:58.000Z</time>
      </trkpt>
      <trkpt lat="42.9826" lon="0.56187">
        <ele>638</ele>
        <time>2019-06-30T06:14:00.000Z</time>
      </trkpt>
      <trkpt lat="42.98262" lon="0.56185">
        <ele>638</ele>
        <time>2019-06-30T06:14:02.000Z</time>
      </trkpt>
      <trkpt lat="42.98262" lon="0.56182">
        <ele>638</ele>
        <time>2019-06-30T06:14:04.000Z</time>
      </trkpt>
      <trkpt lat="42.98263" lon="0.5618">
        <ele>638</ele>
        <time>2019-06-30T06:14:06.000Z</time>
      </trkpt>
      <trkpt lat="42.98265" lon="0.56177">
        <ele>638</ele>
        <time>2019-06-30T06:14:08.000Z</time>
      </trkpt>
      <trkpt lat="42.98266" lon="0.56174">
        <ele>639</ele>
        <time>2019-06-30T06:14:10.000Z</time>
      </trkpt>
      <trkpt lat="42.98267" lon="0.56171">
        <ele>639</ele>
        <time>2019-06-30T06:14:12.000Z</time>
      </trkpt>
      <trkpt lat="42.98267" lon="0.56167">
        <ele>639</ele>
        <time>2019-06-30T06:14:14.000Z</time>
      </trkpt>
      <trkpt lat="42.98267" lon="0.56164">
        <ele>640</ele>
        <time>2019-06-30T06:14:16.000Z</time>
      </trkpt>
      <trkpt lat="42.98267" lon="0.56161">
        <ele>641</ele>
        <time>2019-06-30T06:14:18.000Z</time>
      </trkpt>
      <trkpt lat="42.98267" lon="0.56158">
        <ele>641</ele>
        <time>2019-06-30T06:14:20.000Z</time>
      </trkpt>
      <trkpt lat="42.98267" lon="0.56155">
        <ele>642</ele>
        <time>2019-06-30T06:14:22.000Z</time>
      </trkpt>
      <trkpt lat="42.98268" lon="0.56152">
        <ele>642</ele>
        <time>2019-06-30T06:14:24.000Z</time>
      </trkpt>
      <trkpt lat="42.98268" lon="0.56149">
        <ele>643</ele>
        <time>2019-06-30T06:14:26.000Z</time>
      </trkpt>
      <trkpt lat="42.98268" lon="0.56146">
        <ele>643</ele>
        <time>2019-06-30T06:14:28.000Z</time>
      </trkpt>
      <trkpt lat="42.98267" lon="0.56144">
        <ele>644</ele>
        <time>2019-06-30T06:14:30.000Z</time>
      </trkpt>
      <trkpt lat="42.98266" lon="0.56141">
        <ele>644</ele>
        <time>2019-06-30T06:14:32.000Z</time>
      </trkpt>
      <trkpt lat="42.98266" lon="0.5614">
        <ele>645</ele>
        <time>2019-06-30T06:14:34.000Z</time>
      </trkpt>
      <trkpt lat="42.98265" lon="0.56138">
        <ele>645</ele>
        <time>2019-06-30T06:14:36.000Z</time>
      </trkpt>
      <trkpt lat="42.98264" lon="0.56137">
        <ele>646</ele>
        <time>2019-06-30T06:14:38.000Z</time>
      </trkpt>
      <trkpt lat="42.98264" lon="0.56134">
        <ele>646</ele>
        <time>2019-06-30T06:14:40.000Z</time>
      </trkpt>
      <trkpt lat="42.98264" lon="0.56132">
        <ele>646</ele>
        <time>2019-06-30T06:14:42.000Z</time>
      </trkpt>
      <trkpt lat="42.98264" lon="0.56129">
        <ele>647</ele>
        <time>2019-06-30T06:14:44.000Z</time>
      </trkpt>
      <trkpt lat="42.98263" lon="0.56127">
        <ele>648</ele>
        <time>2019-06-30T06:14:46.000Z</time>
      </trkpt>
      <trkpt lat="42.98264" lon="0.56125">
        <ele>648</ele>
        <time>2019-06-30T06:14:48.000Z</time>
      </trkpt>
      <trkpt lat="42.98264" lon="0.56123">
        <ele>649</ele>
        <time>2019-06-30T06:14:50.000Z</time>
      </trkpt>
      <trkpt lat="42.98264" lon="0.56121">
        <ele>649</ele>
        <time>2019-06-30T06:14:52.000Z</time>
      </trkpt>
      <trkpt lat="42.98266" lon="0.56118">
        <ele>650</ele>
        <time>2019-06-30T06:14:54.000Z</time>
      </trkpt>
      <trkpt lat="42.98266" lon="0.56115">
        <ele>650</ele>
        <time>2019-06-30T06:14:56.000Z</time>
      </trkpt>
      <trkpt lat="42.98267" lon="0.56113">
        <ele>651</ele>
        <time>2019-06-30T06:14:58.000Z</time>
      </trkpt>
      <trkpt lat="42.98267" lon="0.56111">
        <ele>651</ele>
        <time>2019-06-30T06:15:00.000Z</time>
      </trkpt>
      <trkpt lat="42.98268" lon="0.56108">
        <ele>651</ele>
        <time>2019-06-30T06:15:02.000Z</time>
      </trkpt>
      <trkpt lat="42.98269" lon="0.56106">
        <ele>652</ele>
        <time>2019-06-30T06:15:04.000Z</time>
      </trkpt>
      <trkpt lat="42.9827" lon="0.56104">
        <ele>652</ele>
        <time>2019-06-30T06:15:06.000Z</time>
      </trkpt>
      <trkpt lat="42.98271" lon="0.56102">
        <ele>652</ele>
        <time>2019-06-30T06:15:08.000Z</time>
      </trkpt>
      <trkpt lat="42.98274" lon="0.56099">
        <ele>652</ele>
        <time>2019-06-30T06:15:10.000Z</time>
      </trkpt>
      <trkpt lat="42.98276" lon="0.56096">
        <ele>652</ele>
        <time>2019-06-30T06:15:12.000Z</time>
      </trkpt>
      <trkpt lat="42.98277" lon="0.56093">
        <ele>652</ele>
        <time>2019-06-30T06:15:14.000Z</time>
      </trkpt>
      <trkpt lat="42.98279" lon="0.56091">
        <ele>652</ele>
        <time>2019-06-30T06:15:16.000Z</time>
      </trkpt>
      <trkpt lat="42.9828" lon="0.56089">
        <ele>652</ele>
        <time>2019-06-30T06:15:18.000Z</time>
      </trkpt>
      <trkpt lat="42.98281" lon="0.56086">
        <ele>653</ele>
        <time>2019-06-30T06:15:20.000Z</time>
      </trkpt>
      <trkpt lat="42.98282" lon="0.56084">
        <ele>653</ele>
        <time>2019-06-30T06:15:22.000Z</time>
      </trkpt>
      <trkpt lat="42.98282" lon="0.56082">
        <ele>653</ele>
        <time>2019-06-30T06:15:24.000Z</time>
      </trkpt>
      <trkpt lat="42.98283" lon="0.56081">
        <ele>653</ele>
        <time>2019-06-30T06:15:26.000Z</time>
      </trkpt>
      <trkpt lat="42.98284" lon="0.56079">
        <ele>653</ele>
        <time>2019-06-30T06:15:28.000Z</time>
      </trkpt>
      <trkpt lat="42.98286" lon="0.56077">
        <ele>653</ele>
        <time>2019-06-30T06:15:30.000Z</time>
      </trkpt>
      <trkpt lat="42.98287" lon="0.56076">
        <ele>653</ele>
        <time>2019-06-30T06:15:32.000Z</time>
      </trkpt>
      <trkpt lat="42.98287" lon="0.56074">
        <ele>653</ele>
        <time>2019-06-30T06:15:34.000Z</time>
      </trkpt>
      <trkpt lat="42.98289" lon="0.56073">
        <ele>652</ele>
        <time>2019-06-30T06:15:36.000Z</time>
      </trkpt>
      <trkpt lat="42.9829" lon="0.56072">
        <ele>652</ele>
        <time>2019-06-30T06:15:38.000Z</time>
      </trkpt>
      <trkpt lat="42.9829" lon="0.56071">
        <ele>652</ele>
        <time>2019-06-30T06:15:40.000Z</time>
      </trkpt>
      <trkpt lat="42.98292" lon="0.56069">
        <ele>652</ele>
        <time>2019-06-30T06:15:42.000Z</time>
      </trkpt>
      <trkpt lat="42.98293" lon="0.56068">
        <ele>651</ele>
        <time>2019-06-30T06:15:44.000Z</time>
      </trkpt>
      <trkpt lat="42.98294" lon="0.56067">
        <ele>651</ele>
        <time>2019-06-30T06:15:46.000Z</time>
      </trkpt>
      <trkpt lat="42.98295" lon="0.56067">
        <ele>650</ele>
        <time>2019-06-30T06:15:48.000Z</time>
      </trkpt>
      <trkpt lat="42.98294" lon="0.56066">
        <ele>651</ele>
        <time>2019-06-30T06:15:50.000Z</time>
      </trkpt>
      <trkpt lat="42.98293" lon="0.56065">
        <ele>652</ele>
        <time>2019-06-30T06:15:52.000Z</time>
      </trkpt>
      <trkpt lat="42.98293" lon="0.56064">
        <ele>652</ele>
        <time>2019-06-30T06:15:54.000Z</time>
      </trkpt>
      <trkpt lat="42.98291" lon="0.56064">
        <ele>653</ele>
        <time>2019-06-30T06:15:56.000Z</time>
      </trkpt>
      <trkpt lat="42.98291" lon="0.56063">
        <ele>653</ele>
        <time>2019-06-30T06:15:58.000Z</time>
      </trkpt>
      <trkpt lat="42.9829" lon="0.56062">
        <ele>653</ele>
        <time>2019-06-30T06:16:00.000Z</time>
      </trkpt>
      <trkpt lat="42.9829" lon="0.56062">
        <ele>654</ele>
        <time>2019-06-30T06:16:02.000Z</time>
      </trkpt>
      <trkpt lat="42.9829" lon="0.56062">
        <ele>654</ele>
        <time>2019-06-30T06:16:04.000Z</time>
      </trkpt>
      <trkpt lat="42.9829" lon="0.56062">
        <ele>653</ele>
        <time>2019-06-30T06:16:06.000Z</time>
      </trkpt>
      <trkpt lat="42.9829" lon="0.56062">
        <ele>653</ele>
        <time>2019-06-30T06:16:08.000Z</time>
      </trkpt>
      <trkpt lat="42.98291" lon="0.56062">
        <ele>653</ele>
        <time>2019-06-30T06:16:10.000Z</time>
      </trkpt>
      <trkpt lat="42.98292" lon="0.56061">
        <ele>653</ele>
        <time>2019-06-30T06:16:12.000Z</time>
      </trkpt>
      <trkpt lat="42.98292" lon="0.56061">
        <ele>653</ele>
        <time>2019-06-30T06:16:14.000Z</time>
      </trkpt>
      <trkpt lat="42.98293" lon="0.5606">
        <ele>653</ele>
        <time>2019-06-30T06:16:16.000Z</time>
      </trkpt>
      <trkpt lat="42.98294" lon="0.56059">
        <ele>652</ele>
        <time>2019-06-30T06:16:18.000Z</time>
      </trkpt>
      <trkpt lat="42.98295" lon="0.56059">
        <ele>652</ele>
        <time>2019-06-30T06:16:20.000Z</time>
      </trkpt>
      <trkpt lat="42.98295" lon="0.56059">
        <ele>652</ele>
        <time>2019-06-30T06:16:22.000Z</time>
      </trkpt>
      <trkpt lat="42.98296" lon="0.56058">
        <ele>652</ele>
        <time>2019-06-30T06:16:24.000Z</time>
      </trkpt>
      <trkpt lat="42.98296" lon="0.56058">
        <ele>651</ele>
        <time>2019-06-30T06:16:26.000Z</time>
      </trkpt>
      <trkpt lat="42.98297" lon="0.56057">
        <ele>651</ele>
        <time>2019-06-30T06:16:28.000Z</time>
      </trkpt>
      <trkpt lat="42.98297" lon="0.56057">
        <ele>651</ele>
        <time>2019-06-30T06:16:30.000Z</time>
      </trkpt>
      <trkpt lat="42.98297" lon="0.56056">
        <ele>651</ele>
        <time>2019-06-30T06:16:32.000Z</time>
      </trkpt>
      <trkpt lat="42.98298" lon="0.56057">
        <ele>651</ele>
        <time>2019-06-30T06:16:34.000Z</time>
      </trkpt>
      <trkpt lat="42.98298" lon="0.56056">
        <ele>651</ele>
        <time>2019-06-30T06:16:36.000Z</time>
      </trkpt>
      <trkpt lat="42.98298" lon="0.56056">
        <ele>651</ele>
        <time>2019-06-30T06:16:38.000Z</time>
      </trkpt>
      <trkpt lat="42.98295" lon="0.56057">
        <ele>652</ele>
        <time>2019-06-30T06:16:40.000Z</time>
      </trkpt>
      <trkpt lat="42.98295" lon="0.56057">
        <ele>652</ele>
        <time>2019-06-30T06:16:42.000Z</time>
      </trkpt>
      <trkpt lat="42.98294" lon="0.56058">
        <ele>652</ele>
        <time>2019-06-30T06:16:44.000Z</time>
      </trkpt>
      <trkpt lat="42.98293" lon="0.56058">
        <ele>653</ele>
        <time>2019-06-30T06:16:46.000Z</time>
      </trkpt>
      <trkpt lat="42.98292" lon="0.56059">
        <ele>653</ele>
        <time>2019-06-30T06:16:48.000Z</time>
      </trkpt>
      <trkpt lat="42.98292" lon="0.56059">
        <ele>653</ele>
        <time>2019-06-30T06:16:50.000Z</time>
      </trkpt>
      <trkpt lat="42.98292" lon="0.56058">
        <ele>653</ele>
        <time>2019-06-30T06:16:52.000Z</time>
      </trkpt>
      <trkpt lat="42.98292" lon="0.56057">
        <ele>653</ele>
        <time>2019-06-30T06:16:54.000Z</time>
      </trkpt>
      <trkpt lat="42.98293" lon="0.56055">
        <ele>653</ele>
        <time>2019-06-30T06:16:56.000Z</time>
      </trkpt>
      <trkpt lat="42.98293" lon="0.56054">
        <ele>654</ele>
        <time>2019-06-30T06:16:58.000Z</time>
      </trkpt>
      <trkpt lat="42.98293" lon="0.56053">
        <ele>654</ele>
        <time>2019-06-30T06:17:00.000Z</time>
      </trkpt>
      <trkpt lat="42.98293" lon="0.56051">
        <ele>654</ele>
        <time>2019-06-30T06:17:02.000Z</time>
      </trkpt>
      <trkpt lat="42.98293" lon="0.5605">
        <ele>654</ele>
        <time>2019-06-30T06:17:04.000Z</time>
      </trkpt>
      <trkpt lat="42.98292" lon="0.56049">
        <ele>655</ele>
        <time>2019-06-30T06:17:06.000Z</time>
      </trkpt>
      <trkpt lat="42.98292" lon="0.56048">
        <ele>655</ele>
        <time>2019-06-30T06:17:08.000Z</time>
      </trkpt>
      <trkpt lat="42.98291" lon="0.56048">
        <ele>656</ele>
        <time>2019-06-30T06:17:10.000Z</time>
      </trkpt>
      <trkpt lat="42.98291" lon="0.56046">
        <ele>656</ele>
        <time>2019-06-30T06:17:12.000Z</time>
      </trkpt>
      <trkpt lat="42.98291" lon="0.56044">
        <ele>657</ele>
        <time>2019-06-30T06:17:14.000Z</time>
      </trkpt>
      <trkpt lat="42.98291" lon="0.56042">
        <ele>657</ele>
        <time>2019-06-30T06:17:16.000Z</time>
      </trkpt>
      <trkpt lat="42.98292" lon="0.56041">
        <ele>657</ele>
        <time>2019-06-30T06:17:18.000Z</time>
      </trkpt>
      <trkpt lat="42.98293" lon="0.5604">
        <ele>657</ele>
        <time>2019-06-30T06:17:20.000Z</time>
      </trkpt>
      <trkpt lat="42.98294" lon="0.56039">
        <ele>657</ele>
        <time>2019-06-30T06:17:22.000Z</time>
      </trkpt>
      <trkpt lat="42.98295" lon="0.56037">
        <ele>657</ele>
        <time>2019-06-30T06:17:24.000Z</time>
      </trkpt>
      <trkpt lat="42.98295" lon="0.56036">
        <ele>657</ele>
        <time>2019-06-30T06:17:26.000Z</time>
      </trkpt>
      <trkpt lat="42.98296" lon="0.56034">
        <ele>657</ele>
        <time>2019-06-30T06:17:28.000Z</time>
      </trkpt>
      <trkpt lat="42.98295" lon="0.56034">
        <ele>657</ele>
        <time>2019-06-30T06:17:30.000Z</time>
      </trkpt>
      <trkpt lat="42.98295" lon="0.56032">
        <ele>658</ele>
        <time>2019-06-30T06:17:32.000Z</time>
      </trkpt>
      <trkpt lat="42.98295" lon="0.5603">
        <ele>658</ele>
        <time>2019-06-30T06:17:34.000Z</time>
      </trkpt>
      <trkpt lat="42.98296" lon="0.56027">
        <ele>659</ele>
        <time>2019-06-30T06:17:36.000Z</time>
      </trkpt>
      <trkpt lat="42.98296" lon="0.56025">
        <ele>659</ele>
        <time>2019-06-30T06:17:38.000Z</time>
      </trkpt>
      <trkpt lat="42.98296" lon="0.56023">
        <ele>659</ele>
        <time>2019-06-30T06:17:40.000Z</time>
      </trkpt>
      <trkpt lat="42.98297" lon="0.56021">
        <ele>660</ele>
        <time>2019-06-30T06:17:42.000Z</time>
      </trkpt>
      <trkpt lat="42.98298" lon="0.56019">
        <ele>659</ele>
        <time>2019-06-30T06:17:44.000Z</time>
      </trkpt>
      <trkpt lat="42.98299" lon="0.56019">
        <ele>659</ele>
        <time>2019-06-30T06:17:46.000Z</time>
      </trkpt>
      <trkpt lat="42.98299" lon="0.56018">
        <ele>659</ele>
        <time>2019-06-30T06:17:48.000Z</time>
      </trkpt>
      <trkpt lat="42.983" lon="0.56016">
        <ele>659</ele>
        <time>2019-06-30T06:17:50.000Z</time>
      </trkpt>
      <trkpt lat="42.983" lon="0.56013">
        <ele>660</ele>
        <time>2019-06-30T06:17:52.000Z</time>
      </trkpt>
      <trkpt lat="42.98299" lon="0.56011">
        <ele>661</ele>
        <time>2019-06-30T06:17:54.000Z</time>
      </trkpt>
      <trkpt lat="42.98299" lon="0.5601">
        <ele>661</ele>
        <time>2019-06-30T06:17:56.000Z</time>
      </trkpt>
      <trkpt lat="42.983" lon="0.56008">
        <ele>661</ele>
        <time>2019-06-30T06:17:58.000Z</time>
      </trkpt>
      <trkpt lat="42.98301" lon="0.56006">
        <ele>661</ele>
        <time>2019-06-30T06:18:00.000Z</time>
      </trkpt>
      <trkpt lat="42.98301" lon="0.56005">
        <ele>661</ele>
        <time>2019-06-30T06:18:02.000Z</time>
      </trkpt>
      <trkpt lat="42.98302" lon="0.56003">
        <ele>661</ele>
        <time>2019-06-30T06:18:04.000Z</time>
      </trkpt>
      <trkpt lat="42.98302" lon="0.56001">
        <ele>662</ele>
        <time>2019-06-30T06:18:06.000Z</time>
      </trkpt>
      <trkpt lat="42.98301" lon="0.55999">
        <ele>663</ele>
        <time>2019-06-30T06:18:08.000Z</time>
      </trkpt>
      <trkpt lat="42.98301" lon="0.55996">
        <ele>664</ele>
        <time>2019-06-30T06:18:10.000Z</time>
      </trkpt>
      <trkpt lat="42.98301" lon="0.55995">
        <ele>664</ele>
        <time>2019-06-30T06:18:12.000Z</time>
      </trkpt>
      <trkpt lat="42.983" lon="0.55992">
        <ele>665</ele>
        <time>2019-06-30T06:18:14.000Z</time>
      </trkpt>
      <trkpt lat="42.983" lon="0.55991">
        <ele>665</ele>
        <time>2019-06-30T06:18:16.000Z</time>
      </trkpt>
      <trkpt lat="42.98301" lon="0.55989">
        <ele>665</ele>
        <time>2019-06-30T06:18:18.000Z</time>
      </trkpt>
      <trkpt lat="42.98301" lon="0.55987">
        <ele>666</ele>
        <time>2019-06-30T06:18:20.000Z</time>
      </trkpt>
      <trkpt lat="42.983" lon="0.55985">
        <ele>667</ele>
        <time>2019-06-30T06:18:22.000Z</time>
      </trkpt>
      <trkpt lat="42.983" lon="0.55983">
        <ele>667</ele>
        <time>2019-06-30T06:18:24.000Z</time>
      </trkpt>
      <trkpt lat="42.983" lon="0.55981">
        <ele>667</ele>
        <time>2019-06-30T06:18:26.000Z</time>
      </trkpt>
      <trkpt lat="42.98301" lon="0.5598">
        <ele>668</ele>
        <time>2019-06-30T06:18:28.000Z</time>
      </trkpt>
      <trkpt lat="42.98301" lon="0.55978">
        <ele>668</ele>
        <time>2019-06-30T06:18:30.000Z</time>
      </trkpt>
      <trkpt lat="42.98302" lon="0.55977">
        <ele>668</ele>
        <time>2019-06-30T06:18:32.000Z</time>
      </trkpt>
      <trkpt lat="42.98304" lon="0.55975">
        <ele>667</ele>
        <time>2019-06-30T06:18:34.000Z</time>
      </trkpt>
      <trkpt lat="42.98305" lon="0.55973">
        <ele>667</ele>
        <time>2019-06-30T06:18:36.000Z</time>
      </trkpt>
      <trkpt lat="42.98306" lon="0.55972">
        <ele>667</ele>
        <time>2019-06-30T06:18:38.000Z</time>
      </trkpt>
      <trkpt lat="42.98308" lon="0.5597">
        <ele>667</ele>
        <time>2019-06-30T06:18:40.000Z</time>
      </trkpt>
      <trkpt lat="42.98308" lon="0.55968">
        <ele>667</ele>
        <time>2019-06-30T06:18:42.000Z</time>
      </trkpt>
      <trkpt lat="42.98308" lon="0.55967">
        <ele>667</ele>
        <time>2019-06-30T06:18:44.000Z</time>
      </trkpt>
      <trkpt lat="42.98309" lon="0.55967">
        <ele>667</ele>
        <time>2019-06-30T06:18:46.000Z</time>
      </trkpt>
      <trkpt lat="42.98309" lon="0.55966">
        <ele>667</ele>
        <time>2019-06-30T06:18:48.000Z</time>
      </trkpt>
      <trkpt lat="42.98309" lon="0.55965">
        <ele>668</ele>
        <time>2019-06-30T06:18:50.000Z</time>
      </trkpt>
      <trkpt lat="42.98309" lon="0.55964">
        <ele>668</ele>
        <time>2019-06-30T06:18:52.000Z</time>
      </trkpt>
      <trkpt lat="42.9831" lon="0.55963">
        <ele>668</ele>
        <time>2019-06-30T06:18:54.000Z</time>
      </trkpt>
      <trkpt lat="42.98312" lon="0.55962">
        <ele>667</ele>
        <time>2019-06-30T06:18:56.000Z</time>
      </trkpt>
      <trkpt lat="42.98313" lon="0.5596">
        <ele>667</ele>
        <time>2019-06-30T06:18:58.000Z</time>
      </trkpt>
      <trkpt lat="42.98314" lon="0.55959">
        <ele>667</ele>
        <time>2019-06-30T06:19:00.000Z</time>
      </trkpt>
      <trkpt lat="42.98315" lon="0.55958">
        <ele>667</ele>
        <time>2019-06-30T06:19:02.000Z</time>
      </trkpt>
      <trkpt lat="42.98317" lon="0.55958">
        <ele>666</ele>
        <time>2019-06-30T06:19:04.000Z</time>
      </trkpt>
      <trkpt lat="42.98317" lon="0.55957">
        <ele>666</ele>
        <time>2019-06-30T06:19:06.000Z</time>
      </trkpt>
      <trkpt lat="42.98319" lon="0.55955">
        <ele>666</ele>
        <time>2019-06-30T06:19:08.000Z</time>
      </trkpt>
      <trkpt lat="42.98319" lon="0.55954">
        <ele>666</ele>
        <time>2019-06-30T06:19:10.000Z</time>
      </trkpt>
      <trkpt lat="42.98318" lon="0.55954">
        <ele>667</ele>
        <time>2019-06-30T06:19:12.000Z</time>
      </trkpt>
      <trkpt lat="42.98318" lon="0.55952">
        <ele>667</ele>
        <time>2019-06-30T06:19:14.000Z</time>
      </trkpt>
      <trkpt lat="42.98318" lon="0.55951">
        <ele>667</ele>
        <time>2019-06-30T06:19:16.000Z</time>
      </trkpt>
      <trkpt lat="42.98319" lon="0.55951">
        <ele>667</ele>
        <time>2019-06-30T06:19:18.000Z</time>
      </trkpt>
      <trkpt lat="42.9832" lon="0.55948">
        <ele>667</ele>
        <time>2019-06-30T06:19:20.000Z</time>
      </trkpt>
      <trkpt lat="42.9832" lon="0.55947">
        <ele>668</ele>
        <time>2019-06-30T06:19:22.000Z</time>
      </trkpt>
      <trkpt lat="42.9832" lon="0.55945">
        <ele>668</ele>
        <time>2019-06-30T06:19:24.000Z</time>
      </trkpt>
      <trkpt lat="42.9832" lon="0.55943">
        <ele>669</ele>
        <time>2019-06-30T06:19:26.000Z</time>
      </trkpt>
      <trkpt lat="42.9832" lon="0.55942">
        <ele>669</ele>
        <time>2019-06-30T06:19:28.000Z</time>
      </trkpt>
      <trkpt lat="42.9832" lon="0.55941">
        <ele>669</ele>
        <time>2019-06-30T06:19:30.000Z</time>
      </trkpt>
      <trkpt lat="42.98321" lon="0.55939">
        <ele>669</ele>
        <time>2019-06-30T06:19:32.000Z</time>
      </trkpt>
      <trkpt lat="42.98321" lon="0.55937">
        <ele>670</ele>
        <time>2019-06-30T06:19:34.000Z</time>
      </trkpt>
      <trkpt lat="42.98321" lon="0.55936">
        <ele>670</ele>
        <time>2019-06-30T06:19:36.000Z</time>
      </trkpt>
      <trkpt lat="42.98321" lon="0.55934">
        <ele>671</ele>
        <time>2019-06-30T06:19:38.000Z</time>
      </trkpt>
      <trkpt lat="42.98322" lon="0.55931">
        <ele>671</ele>
        <time>2019-06-30T06:19:40.000Z</time>
      </trkpt>
      <trkpt lat="42.98323" lon="0.55929">
        <ele>671</ele>
        <time>2019-06-30T06:19:42.000Z</time>
      </trkpt>
      <trkpt lat="42.98323" lon="0.55927">
        <ele>672</ele>
        <time>2019-06-30T06:19:44.000Z</time>
      </trkpt>
      <trkpt lat="42.98323" lon="0.55925">
        <ele>672</ele>
        <time>2019-06-30T06:19:46.000Z</time>
      </trkpt>
      <trkpt lat="42.98324" lon="0.55923">
        <ele>673</ele>
        <time>2019-06-30T06:19:48.000Z</time>
      </trkpt>
      <trkpt lat="42.98324" lon="0.55921">
        <ele>673</ele>
        <time>2019-06-30T06:19:50.000Z</time>
      </trkpt>
      <trkpt lat="42.98323" lon="0.55919">
        <ele>674</ele>
        <time>2019-06-30T06:19:52.000Z</time>
      </trkpt>
      <trkpt lat="42.98323" lon="0.55917">
        <ele>675</ele>
        <time>2019-06-30T06:19:54.000Z</time>
      </trkpt>
      <trkpt lat="42.98322" lon="0.55916">
        <ele>676</ele>
        <time>2019-06-30T06:19:56.000Z</time>
      </trkpt>
      <trkpt lat="42.98321" lon="0.55914">
        <ele>676</ele>
        <time>2019-06-30T06:19:58.000Z</time>
      </trkpt>
      <trkpt lat="42.98321" lon="0.55913">
        <ele>677</ele>
        <time>2019-06-30T06:20:00.000Z</time>
      </trkpt>
      <trkpt lat="42.98322" lon="0.55912">
        <ele>677</ele>
        <time>2019-06-30T06:20:02.000Z</time>
      </trkpt>
      <trkpt lat="42.98321" lon="0.55911">
        <ele>677</ele>
        <time>2019-06-30T06:20:04.000Z</time>
      </trkpt>
      <trkpt lat="42.98321" lon="0.55909">
        <ele>678</ele>
        <time>2019-06-30T06:20:06.000Z</time>
      </trkpt>
      <trkpt lat="42.98321" lon="0.5591">
        <ele>678</ele>
        <time>2019-06-30T06:20:08.000Z</time>
      </trkpt>
      <trkpt lat="42.98322" lon="0.55909">
        <ele>678</ele>
        <time>2019-06-30T06:20:10.000Z</time>
      </trkpt>
      <trkpt lat="42.98321" lon="0.55908">
        <ele>678</ele>
        <time>2019-06-30T06:20:12.000Z</time>
      </trkpt>
      <trkpt lat="42.98322" lon="0.55907">
        <ele>678</ele>
        <time>2019-06-30T06:20:14.000Z</time>
      </trkpt>
      <trkpt lat="42.98322" lon="0.55905">
        <ele>678</ele>
        <time>2019-06-30T06:20:16.000Z</time>
      </trkpt>
      <trkpt lat="42.98323" lon="0.55903">
        <ele>679</ele>
        <time>2019-06-30T06:20:18.000Z</time>
      </trkpt>
      <trkpt lat="42.98323" lon="0.55903">
        <ele>679</ele>
        <time>2019-06-30T06:20:20.000Z</time>
      </trkpt>
      <trkpt lat="42.98323" lon="0.55902">
        <ele>679</ele>
        <time>2019-06-30T06:20:22.000Z</time>
      </trkpt>
      <trkpt lat="42.98323" lon="0.55902">
        <ele>679</ele>
        <time>2019-06-30T06:20:24.000Z</time>
      </trkpt>
      <trkpt lat="42.98322" lon="0.55901">
        <ele>680</ele>
        <time>2019-06-30T06:20:26.000Z</time>
      </trkpt>
      <trkpt lat="42.98321" lon="0.55901">
        <ele>680</ele>
        <time>2019-06-30T06:20:28.000Z</time>
      </trkpt>
      <trkpt lat="42.9832" lon="0.55901">
        <ele>681</ele>
        <time>2019-06-30T06:20:30.000Z</time>
      </trkpt>
      <trkpt lat="42.98319" lon="0.55901">
        <ele>681</ele>
        <time>2019-06-30T06:20:32.000Z</time>
      </trkpt>
      <trkpt lat="42.98319" lon="0.559">
        <ele>682</ele>
        <time>2019-06-30T06:20:34.000Z</time>
      </trkpt>
      <trkpt lat="42.98318" lon="0.55901">
        <ele>682</ele>
        <time>2019-06-30T06:20:36.000Z</time>
      </trkpt>
      <trkpt lat="42.98317" lon="0.55902">
        <ele>682</ele>
        <time>2019-06-30T06:20:38.000Z</time>
      </trkpt>
      <trkpt lat="42.98317" lon="0.55903">
        <ele>682</ele>
        <time>2019-06-30T06:20:40.000Z</time>
      </trkpt>
      <trkpt lat="42.98317" lon="0.55903">
        <ele>681</ele>
        <time>2019-06-30T06:20:42.000Z</time>
      </trkpt>
      <trkpt lat="42.98318" lon="0.55903">
        <ele>681</ele>
        <time>2019-06-30T06:20:44.000Z</time>
      </trkpt>
      <trkpt lat="42.98319" lon="0.55903">
        <ele>681</ele>
        <time>2019-06-30T06:20:46.000Z</time>
      </trkpt>
      <trkpt lat="42.98319" lon="0.55905">
        <ele>680</ele>
        <time>2019-06-30T06:20:48.000Z</time>
      </trkpt>
      <trkpt lat="42.9832" lon="0.55906">
        <ele>680</ele>
        <time>2019-06-30T06:20:50.000Z</time>
      </trkpt>
      <trkpt lat="42.98318" lon="0.55907">
        <ele>680</ele>
        <time>2019-06-30T06:20:52.000Z</time>
      </trkpt>
      <trkpt lat="42.98317" lon="0.55908">
        <ele>680</ele>
        <time>2019-06-30T06:20:54.000Z</time>
      </trkpt>
      <trkpt lat="42.98316" lon="0.5591">
        <ele>680</ele>
        <time>2019-06-30T06:20:56.000Z</time>
      </trkpt>
      <trkpt lat="42.98315" lon="0.55911">
        <ele>680</ele>
        <time>2019-06-30T06:20:58.000Z</time>
      </trkpt>
      <trkpt lat="42.98315" lon="0.55913">
        <ele>680</ele>
        <time>2019-06-30T06:21:00.000Z</time>
      </trkpt>
      <trkpt lat="42.98314" lon="0.55914">
        <ele>680</ele>
        <time>2019-06-30T06:21:02.000Z</time>
      </trkpt>
      <trkpt lat="42.98313" lon="0.55916">
        <ele>680</ele>
        <time>2019-06-30T06:21:04.000Z</time>
      </trkpt>
      <trkpt lat="42.98311" lon="0.55918">
        <ele>680</ele>
        <time>2019-06-30T06:21:06.000Z</time>
      </trkpt>
      <trkpt lat="42.98309" lon="0.5592">
        <ele>680</ele>
        <time>2019-06-30T06:21:08.000Z</time>
      </trkpt>
      <trkpt lat="42.98308" lon="0.55921">
        <ele>680</ele>
        <time>2019-06-30T06:21:10.000Z</time>
      </trkpt>
      <trkpt lat="42.98308" lon="0.55922">
        <ele>680</ele>
        <time>2019-06-30T06:21:12.000Z</time>
      </trkpt>
      <trkpt lat="42.98307" lon="0.55924">
        <ele>680</ele>
        <time>2019-06-30T06:21:14.000Z</time>
      </trkpt>
      <trkpt lat="42.98306" lon="0.55925">
        <ele>680</ele>
        <time>2019-06-30T06:21:16.000Z</time>
      </trkpt>
      <trkpt lat="42.98306" lon="0.55927">
        <ele>680</ele>
        <time>2019-06-30T06:21:18.000Z</time>
      </trkpt>
      <trkpt lat="42.98305" lon="0.55928">
        <ele>680</ele>
        <time>2019-06-30T06:21:20.000Z</time>
      </trkpt>
      <trkpt lat="42.98304" lon="0.55929">
        <ele>680</ele>
        <time>2019-06-30T06:21:22.000Z</time>
      </trkpt>
      <trkpt lat="42.98303" lon="0.5593">
        <ele>680</ele>
        <time>2019-06-30T06:21:24.000Z</time>
      </trkpt>
      <trkpt lat="42.98302" lon="0.55932">
        <ele>680</ele>
        <time>2019-06-30T06:21:26.000Z</time>
      </trkpt>
      <trkpt lat="42.98301" lon="0.55933">
        <ele>680</ele>
        <time>2019-06-30T06:21:28.000Z</time>
      </trkpt>
      <trkpt lat="42.98299" lon="0.55935">
        <ele>680</ele>
        <time>2019-06-30T06:21:30.000Z</time>
      </trkpt>
      <trkpt lat="42.98298" lon="0.55936">
        <ele>681</ele>
        <time>2019-06-30T06:21:32.000Z</time>
      </trkpt>
      <trkpt lat="42.98297" lon="0.55937">
        <ele>681</ele>
        <time>2019-06-30T06:21:34.000Z</time>
      </trkpt>
      <trkpt lat="42.98295" lon="0.55938">
        <ele>681</ele>
        <time>2019-06-30T06:21:36.000Z</time>
      </trkpt>
      <trkpt lat="42.98295" lon="0.55939">
        <ele>681</ele>
        <time>2019-06-30T06:21:38.000Z</time>
      </trkpt>
      <trkpt lat="42.98294" lon="0.5594">
        <ele>681</ele>
        <time>2019-06-30T06:21:40.000Z</time>
      </trkpt>
      <trkpt lat="42.98293" lon="0.55941">
        <ele>682</ele>
        <time>2019-06-30T06:21:42.000Z</time>
      </trkpt>
      <trkpt lat="42.98292" lon="0.55943">
        <ele>681</ele>
        <time>2019-06-30T06:21:44.000Z</time>
      </trkpt>
      <trkpt lat="42.9829" lon="0.55945">
        <ele>682</ele>
        <time>2019-06-30T06:21:46.000Z</time>
      </trkpt>
      <trkpt lat="42.9829" lon="0.55946">
        <ele>682</ele>
        <time>2019-06-30T06:21:48.000Z</time>
      </trkpt>
      <trkpt lat="42.98289" lon="0.55948">
        <ele>682</ele>
        <time>2019-06-30T06:21:50.000Z</time>
      </trkpt>
      <trkpt lat="42.98287" lon="0.5595">
        <ele>682</ele>
        <time>2019-06-30T06:21:52.000Z</time>
      </trkpt>
      <trkpt lat="42.98286" lon="0.55951">
        <ele>682</ele>
        <time>2019-06-30T06:21:54.000Z</time>
      </trkpt>
      <trkpt lat="42.98285" lon="0.55952">
        <ele>682</ele>
        <time>2019-06-30T06:21:56.000Z</time>
      </trkpt>
      <trkpt lat="42.98283" lon="0.55953">
        <ele>683</ele>
        <time>2019-06-30T06:21:58.000Z</time>
      </trkpt>
      <trkpt lat="42.98282" lon="0.55953">
        <ele>683</ele>
        <time>2019-06-30T06:22:00.000Z</time>
      </trkpt>
      <trkpt lat="42.98281" lon="0.55953">
        <ele>684</ele>
        <time>2019-06-30T06:22:02.000Z</time>
      </trkpt>
      <trkpt lat="42.9828" lon="0.55954">
        <ele>684</ele>
        <time>2019-06-30T06:22:04.000Z</time>
      </trkpt>
      <trkpt lat="42.98279" lon="0.55954">
        <ele>684</ele>
        <time>2019-06-30T06:22:06.000Z</time>
      </trkpt>
      <trkpt lat="42.98278" lon="0.55955">
        <ele>685</ele>
        <time>2019-06-30T06:22:08.000Z</time>
      </trkpt>
      <trkpt lat="42.98277" lon="0.55956">
        <ele>685</ele>
        <time>2019-06-30T06:22:10.000Z</time>
      </trkpt>
      <trkpt lat="42.98276" lon="0.55958">
        <ele>684</ele>
        <time>2019-06-30T06:22:12.000Z</time>
      </trkpt>
      <trkpt lat="42.98275" lon="0.55959">
        <ele>685</ele>
        <time>2019-06-30T06:22:14.000Z</time>
      </trkpt>
      <trkpt lat="42.98274" lon="0.5596">
        <ele>685</ele>
        <time>2019-06-30T06:22:16.000Z</time>
      </trkpt>
      <trkpt lat="42.98272" lon="0.55962">
        <ele>685</ele>
        <time>2019-06-30T06:22:18.000Z</time>
      </trkpt>
      <trkpt lat="42.98271" lon="0.55963">
        <ele>686</ele>
        <time>2019-06-30T06:22:20.000Z</time>
      </trkpt>
      <trkpt lat="42.9827" lon="0.55964">
        <ele>686</ele>
        <time>2019-06-30T06:22:22.000Z</time>
      </trkpt>
      <trkpt lat="42.98269" lon="0.55965">
        <ele>686</ele>
        <time>2019-06-30T06:22:24.000Z</time>
      </trkpt>
      <trkpt lat="42.98268" lon="0.55968">
        <ele>686</ele>
        <time>2019-06-30T06:22:26.000Z</time>
      </trkpt>
      <trkpt lat="42.98266" lon="0.55969">
        <ele>686</ele>
        <time>2019-06-30T06:22:28.000Z</time>
      </trkpt>
      <trkpt lat="42.98266" lon="0.55971">
        <ele>686</ele>
        <time>2019-06-30T06:22:30.000Z</time>
      </trkpt>
      <trkpt lat="42.98266" lon="0.55974">
        <ele>685</ele>
        <time>2019-06-30T06:22:32.000Z</time>
      </trkpt>
      <trkpt lat="42.98264" lon="0.55976">
        <ele>685</ele>
        <time>2019-06-30T06:22:34.000Z</time>
      </trkpt>
      <trkpt lat="42.98263" lon="0.55978">
        <ele>685</ele>
        <time>2019-06-30T06:22:36.000Z</time>
      </trkpt>
      <trkpt lat="42.98262" lon="0.5598">
        <ele>685</ele>
        <time>2019-06-30T06:22:38.000Z</time>
      </trkpt>
      <trkpt lat="42.98261" lon="0.55982">
        <ele>685</ele>
        <time>2019-06-30T06:22:40.000Z</time>
      </trkpt>
      <trkpt lat="42.9826" lon="0.55984">
        <ele>685</ele>
        <time>2019-06-30T06:22:42.000Z</time>
      </trkpt>
      <trkpt lat="42.98259" lon="0.55986">
        <ele>685</ele>
        <time>2019-06-30T06:22:44.000Z</time>
      </trkpt>
      <trkpt lat="42.98257" lon="0.55987">
        <ele>686</ele>
        <time>2019-06-30T06:22:46.000Z</time>
      </trkpt>
      <trkpt lat="42.98256" lon="0.55989">
        <ele>686</ele>
        <time>2019-06-30T06:22:48.000Z</time>
      </trkpt>
      <trkpt lat="42.98255" lon="0.55991">
        <ele>686</ele>
        <time>2019-06-30T06:22:50.000Z</time>
      </trkpt>
      <trkpt lat="42.98254" lon="0.55993">
        <ele>686</ele>
        <time>2019-06-30T06:22:52.000Z</time>
      </trkpt>
      <trkpt lat="42.98252" lon="0.55996">
        <ele>686</ele>
        <time>2019-06-30T06:22:54.000Z</time>
      </trkpt>
      <trkpt lat="42.98251" lon="0.55997">
        <ele>686</ele>
        <time>2019-06-30T06:22:56.000Z</time>
      </trkpt>
      <trkpt lat="42.98251" lon="0.55999">
        <ele>686</ele>
        <time>2019-06-30T06:22:58.000Z</time>
      </trkpt>
      <trkpt lat="42.9825" lon="0.56001">
        <ele>687</ele>
        <time>2019-06-30T06:23:00.000Z</time>
      </trkpt>
      <trkpt lat="42.98249" lon="0.56003">
        <ele>687</ele>
        <time>2019-06-30T06:23:02.000Z</time>
      </trkpt>
      <trkpt lat="42.98248" lon="0.56004">
        <ele>687</ele>
        <time>2019-06-30T06:23:04.000Z</time>
      </trkpt>
      <trkpt lat="42.98247" lon="0.56005">
        <ele>687</ele>
        <time>2019-06-30T06:23:06.000Z</time>
      </trkpt>
      <trkpt lat="42.98245" lon="0.56007">
        <ele>687</ele>
        <time>2019-06-30T06:23:08.000Z</time>
      </trkpt>
      <trkpt lat="42.98244" lon="0.56008">
        <ele>688</ele>
        <time>2019-06-30T06:23:10.000Z</time>
      </trkpt>
      <trkpt lat="42.98243" lon="0.56009">
        <ele>688</ele>
        <time>2019-06-30T06:23:12.000Z</time>
      </trkpt>
      <trkpt lat="42.98242" lon="0.56011">
        <ele>688</ele>
        <time>2019-06-30T06:23:14.000Z</time>
      </trkpt>
      <trkpt lat="42.98241" lon="0.56012">
        <ele>688</ele>
        <time>2019-06-30T06:23:16.000Z</time>
      </trkpt>
      <trkpt lat="42.98241" lon="0.56014">
        <ele>688</ele>
        <time>2019-06-30T06:23:18.000Z</time>
      </trkpt>
      <trkpt lat="42.9824" lon="0.56014">
        <ele>689</ele>
        <time>2019-06-30T06:23:20.000Z</time>
      </trkpt>
      <trkpt lat="42.98238" lon="0.56016">
        <ele>689</ele>
        <time>2019-06-30T06:23:22.000Z</time>
      </trkpt>
      <trkpt lat="42.98238" lon="0.56018">
        <ele>689</ele>
        <time>2019-06-30T06:23:24.000Z</time>
      </trkpt>
      <trkpt lat="42.98237" lon="0.56018">
        <ele>689</ele>
        <time>2019-06-30T06:23:26.000Z</time>
      </trkpt>
      <trkpt lat="42.98236" lon="0.5602">
        <ele>689</ele>
        <time>2019-06-30T06:23:28.000Z</time>
      </trkpt>
      <trkpt lat="42.98235" lon="0.56021">
        <ele>690</ele>
        <time>2019-06-30T06:23:30.000Z</time>
      </trkpt>
      <trkpt lat="42.98234" lon="0.56022">
        <ele>690</ele>
        <time>2019-06-30T06:23:32.000Z</time>
      </trkpt>
      <trkpt lat="42.98233" lon="0.56024">
        <ele>690</ele>
        <time>2019-06-30T06:23:34.000Z</time>
      </trkpt>
      <trkpt lat="42.98232" lon="0.56026">
        <ele>690</ele>
        <time>2019-06-30T06:23:36.000Z</time>
      </trkpt>
      <trkpt lat="42.98232" lon="0.56027">
        <ele>690</ele>
        <time>2019-06-30T06:23:38.000Z</time>
      </trkpt>
      <trkpt lat="42.98232" lon="0.56028">
        <ele>689</ele>
        <time>2019-06-30T06:23:40.000Z</time>
      </trkpt>
      <trkpt lat="42.98231" lon="0.56029">
        <ele>689</ele>
        <time>2019-06-30T06:23:42.000Z</time>
      </trkpt>
      <trkpt lat="42.9823" lon="0.5603">
        <ele>689</ele>
        <time>2019-06-30T06:23:44.000Z</time>
      </trkpt>
      <trkpt lat="42.98229" lon="0.56032">
        <ele>690</ele>
        <time>2019-06-30T06:23:46.000Z</time>
      </trkpt>
      <trkpt lat="42.98229" lon="0.56033">
        <ele>689</ele>
        <time>2019-06-30T06:23:48.000Z</time>
      </trkpt>
      <trkpt lat="42.98228" lon="0.56033">
        <ele>690</ele>
        <time>2019-06-30T06:23:50.000Z</time>
      </trkpt>
      <trkpt lat="42.98226" lon="0.56033">
        <ele>691</ele>
        <time>2019-06-30T06:23:52.000Z</time>
      </trkpt>
      <trkpt lat="42.98225" lon="0.56034">
        <ele>691</ele>
        <time>2019-06-30T06:23:54.000Z</time>
      </trkpt>
      <trkpt lat="42.98224" lon="0.56034">
        <ele>692</ele>
        <time>2019-06-30T06:23:56.000Z</time>
      </trkpt>
      <trkpt lat="42.98222" lon="0.56035">
        <ele>692</ele>
        <time>2019-06-30T06:23:58.000Z</time>
      </trkpt>
      <trkpt lat="42.98221" lon="0.56036">
        <ele>692</ele>
        <time>2019-06-30T06:24:00.000Z</time>
      </trkpt>
      <trkpt lat="42.98221" lon="0.56038">
        <ele>692</ele>
        <time>2019-06-30T06:24:02.000Z</time>
      </trkpt>
      <trkpt lat="42.9822" lon="0.5604">
        <ele>692</ele>
        <time>2019-06-30T06:24:04.000Z</time>
      </trkpt>
      <trkpt lat="42.98219" lon="0.56043">
        <ele>692</ele>
        <time>2019-06-30T06:24:06.000Z</time>
      </trkpt>
      <trkpt lat="42.98217" lon="0.56044">
        <ele>692</ele>
        <time>2019-06-30T06:24:08.000Z</time>
      </trkpt>
      <trkpt lat="42.98217" lon="0.56046">
        <ele>692</ele>
        <time>2019-06-30T06:24:10.000Z</time>
      </trkpt>
      <trkpt lat="42.98215" lon="0.56048">
        <ele>692</ele>
        <time>2019-06-30T06:24:12.000Z</time>
      </trkpt>
      <trkpt lat="42.98215" lon="0.56049">
        <ele>692</ele>
        <time>2019-06-30T06:24:14.000Z</time>
      </trkpt>
      <trkpt lat="42.98213" lon="0.5605">
        <ele>692</ele>
        <time>2019-06-30T06:24:16.000Z</time>
      </trkpt>
      <trkpt lat="42.98212" lon="0.56051">
        <ele>693</ele>
        <time>2019-06-30T06:24:18.000Z</time>
      </trkpt>
      <trkpt lat="42.98211" lon="0.56053">
        <ele>693</ele>
        <time>2019-06-30T06:24:20.000Z</time>
      </trkpt>
      <trkpt lat="42.9821" lon="0.56054">
        <ele>693</ele>
        <time>2019-06-30T06:24:22.000Z</time>
      </trkpt>
      <trkpt lat="42.98208" lon="0.56056">
        <ele>693</ele>
        <time>2019-06-30T06:24:24.000Z</time>
      </trkpt>
      <trkpt lat="42.98207" lon="0.56056">
        <ele>694</ele>
        <time>2019-06-30T06:24:26.000Z</time>
      </trkpt>
      <trkpt lat="42.98206" lon="0.56057">
        <ele>694</ele>
        <time>2019-06-30T06:24:28.000Z</time>
      </trkpt>
      <trkpt lat="42.98205" lon="0.56058">
        <ele>694</ele>
        <time>2019-06-30T06:24:30.000Z</time>
      </trkpt>
      <trkpt lat="42.98204" lon="0.56059">
        <ele>695</ele>
        <time>2019-06-30T06:24:32.000Z</time>
      </trkpt>
      <trkpt lat="42.98203" lon="0.56061">
        <ele>695</ele>
        <time>2019-06-30T06:24:34.000Z</time>
      </trkpt>
      <trkpt lat="42.98201" lon="0.56062">
        <ele>695</ele>
        <time>2019-06-30T06:24:36.000Z</time>
      </trkpt>
      <trkpt lat="42.982" lon="0.56063">
        <ele>695</ele>
        <time>2019-06-30T06:24:38.000Z</time>
      </trkpt>
      <trkpt lat="42.98198" lon="0.56065">
        <ele>696</ele>
        <time>2019-06-30T06:24:40.000Z</time>
      </trkpt>
      <trkpt lat="42.98197" lon="0.56066">
        <ele>696</ele>
        <time>2019-06-30T06:24:42.000Z</time>
      </trkpt>
      <trkpt lat="42.98196" lon="0.56067">
        <ele>696</ele>
        <time>2019-06-30T06:24:44.000Z</time>
      </trkpt>
      <trkpt lat="42.98194" lon="0.56068">
        <ele>697</ele>
        <time>2019-06-30T06:24:46.000Z</time>
      </trkpt>
      <trkpt lat="42.98192" lon="0.5607">
        <ele>697</ele>
        <time>2019-06-30T06:24:48.000Z</time>
      </trkpt>
      <trkpt lat="42.98191" lon="0.56071">
        <ele>698</ele>
        <time>2019-06-30T06:24:50.000Z</time>
      </trkpt>
      <trkpt lat="42.98189" lon="0.56073">
        <ele>698</ele>
        <time>2019-06-30T06:24:52.000Z</time>
      </trkpt>
      <trkpt lat="42.98188" lon="0.56074">
        <ele>698</ele>
        <time>2019-06-30T06:24:54.000Z</time>
      </trkpt>
      <trkpt lat="42.98187" lon="0.56076">
        <ele>698</ele>
        <time>2019-06-30T06:24:56.000Z</time>
      </trkpt>
      <trkpt lat="42.98186" lon="0.56077">
        <ele>698</ele>
        <time>2019-06-30T06:24:58.000Z</time>
      </trkpt>
      <trkpt lat="42.98185" lon="0.56079">
        <ele>698</ele>
        <time>2019-06-30T06:25:00.000Z</time>
      </trkpt>
      <trkpt lat="42.98184" lon="0.5608">
        <ele>699</ele>
        <time>2019-06-30T06:25:02.000Z</time>
      </trkpt>
      <trkpt lat="42.98183" lon="0.56081">
        <ele>699</ele>
        <time>2019-06-30T06:25:04.000Z</time>
      </trkpt>
      <trkpt lat="42.98182" lon="0.56082">
        <ele>699</ele>
        <time>2019-06-30T06:25:06.000Z</time>
      </trkpt>
      <trkpt lat="42.98181" lon="0.56084">
        <ele>700</ele>
        <time>2019-06-30T06:25:08.000Z</time>
      </trkpt>
      <trkpt lat="42.98179" lon="0.56085">
        <ele>700</ele>
        <time>2019-06-30T06:25:10.000Z</time>
      </trkpt>
      <trkpt lat="42.98177" lon="0.56085">
        <ele>701</ele>
        <time>2019-06-30T06:25:12.000Z</time>
      </trkpt>
      <trkpt lat="42.98176" lon="0.56087">
        <ele>701</ele>
        <time>2019-06-30T06:25:14.000Z</time>
      </trkpt>
      <trkpt lat="42.98175" lon="0.56088">
        <ele>701</ele>
        <time>2019-06-30T06:25:16.000Z</time>
      </trkpt>
      <trkpt lat="42.98174" lon="0.56088">
        <ele>701</ele>
        <time>2019-06-30T06:25:18.000Z</time>
      </trkpt>
      <trkpt lat="42.98174" lon="0.56089">
        <ele>702</ele>
        <time>2019-06-30T06:25:20.000Z</time>
      </trkpt>
      <trkpt lat="42.98173" lon="0.5609">
        <ele>702</ele>
        <time>2019-06-30T06:25:22.000Z</time>
      </trkpt>
      <trkpt lat="42.98172" lon="0.56091">
        <ele>702</ele>
        <time>2019-06-30T06:25:24.000Z</time>
      </trkpt>
      <trkpt lat="42.98171" lon="0.56094">
        <ele>702</ele>
        <time>2019-06-30T06:25:26.000Z</time>
      </trkpt>
      <trkpt lat="42.9817" lon="0.56095">
        <ele>702</ele>
        <time>2019-06-30T06:25:28.000Z</time>
      </trkpt>
      <trkpt lat="42.9817" lon="0.56096">
        <ele>702</ele>
        <time>2019-06-30T06:25:30.000Z</time>
      </trkpt>
      <trkpt lat="42.98168" lon="0.56097">
        <ele>702</ele>
        <time>2019-06-30T06:25:32.000Z</time>
      </trkpt>
      <trkpt lat="42.98166" lon="0.56098">
        <ele>703</ele>
        <time>2019-06-30T06:25:34.000Z</time>
      </trkpt>
      <trkpt lat="42.98165" lon="0.561">
        <ele>704</ele>
        <time>2019-06-30T06:25:36.000Z</time>
      </trkpt>
      <trkpt lat="42.98164" lon="0.561">
        <ele>704</ele>
        <time>2019-06-30T06:25:38.000Z</time>
      </trkpt>
      <trkpt lat="42.98162" lon="0.56101">
        <ele>704</ele>
        <time>2019-06-30T06:25:40.000Z</time>
      </trkpt>
      <trkpt lat="42.98161" lon="0.56102">
        <ele>705</ele>
        <time>2019-06-30T06:25:42.000Z</time>
      </trkpt>
      <trkpt lat="42.98161" lon="0.56102">
        <ele>705</ele>
        <time>2019-06-30T06:25:44.000Z</time>
      </trkpt>
      <trkpt lat="42.9816" lon="0.56102">
        <ele>705</ele>
        <time>2019-06-30T06:25:46.000Z</time>
      </trkpt>
      <trkpt lat="42.98159" lon="0.56103">
        <ele>706</ele>
        <time>2019-06-30T06:25:48.000Z</time>
      </trkpt>
      <trkpt lat="42.98158" lon="0.56104">
        <ele>706</ele>
        <time>2019-06-30T06:25:50.000Z</time>
      </trkpt>
      <trkpt lat="42.98157" lon="0.56105">
        <ele>706</ele>
        <time>2019-06-30T06:25:52.000Z</time>
      </trkpt>
      <trkpt lat="42.98156" lon="0.56105">
        <ele>706</ele>
        <time>2019-06-30T06:25:54.000Z</time>
      </trkpt>
      <trkpt lat="42.98156" lon="0.56106">
        <ele>706</ele>
        <time>2019-06-30T06:25:56.000Z</time>
      </trkpt>
      <trkpt lat="42.98154" lon="0.56108">
        <ele>707</ele>
        <time>2019-06-30T06:25:58.000Z</time>
      </trkpt>
      <trkpt lat="42.98153" lon="0.56108">
        <ele>707</ele>
        <time>2019-06-30T06:26:00.000Z</time>
      </trkpt>
      <trkpt lat="42.98153" lon="0.56109">
        <ele>707</ele>
        <time>2019-06-30T06:26:02.000Z</time>
      </trkpt>
      <trkpt lat="42.98152" lon="0.56109">
        <ele>708</ele>
        <time>2019-06-30T06:26:04.000Z</time>
      </trkpt>
      <trkpt lat="42.98151" lon="0.5611">
        <ele>708</ele>
        <time>2019-06-30T06:26:06.000Z</time>
      </trkpt>
      <trkpt lat="42.9815" lon="0.5611">
        <ele>708</ele>
        <time>2019-06-30T06:26:08.000Z</time>
      </trkpt>
      <trkpt lat="42.98149" lon="0.56111">
        <ele>709</ele>
        <time>2019-06-30T06:26:10.000Z</time>
      </trkpt>
      <trkpt lat="42.98148" lon="0.56112">
        <ele>709</ele>
        <time>2019-06-30T06:26:12.000Z</time>
      </trkpt>
      <trkpt lat="42.98147" lon="0.56112">
        <ele>709</ele>
        <time>2019-06-30T06:26:14.000Z</time>
      </trkpt>
      <trkpt lat="42.98147" lon="0.56113">
        <ele>710</ele>
        <time>2019-06-30T06:26:16.000Z</time>
      </trkpt>
      <trkpt lat="42.98146" lon="0.56113">
        <ele>710</ele>
        <time>2019-06-30T06:26:18.000Z</time>
      </trkpt>
      <trkpt lat="42.98145" lon="0.56115">
        <ele>710</ele>
        <time>2019-06-30T06:26:20.000Z</time>
      </trkpt>
      <trkpt lat="42.98145" lon="0.56116">
        <ele>710</ele>
        <time>2019-06-30T06:26:22.000Z</time>
      </trkpt>
      <trkpt lat="42.98144" lon="0.56118">
        <ele>709</ele>
        <time>2019-06-30T06:26:24.000Z</time>
      </trkpt>
      <trkpt lat="42.98143" lon="0.5612">
        <ele>710</ele>
        <time>2019-06-30T06:26:26.000Z</time>
      </trkpt>
      <trkpt lat="42.98142" lon="0.56121">
        <ele>710</ele>
        <time>2019-06-30T06:26:28.000Z</time>
      </trkpt>
      <trkpt lat="42.9814" lon="0.56123">
        <ele>710</ele>
        <time>2019-06-30T06:26:30.000Z</time>
      </trkpt>
      <trkpt lat="42.98139" lon="0.56124">
        <ele>711</ele>
        <time>2019-06-30T06:26:32.000Z</time>
      </trkpt>
      <trkpt lat="42.98138" lon="0.56125">
        <ele>711</ele>
        <time>2019-06-30T06:26:34.000Z</time>
      </trkpt>
      <trkpt lat="42.98137" lon="0.56126">
        <ele>711</ele>
        <time>2019-06-30T06:26:36.000Z</time>
      </trkpt>
      <trkpt lat="42.98136" lon="0.56127">
        <ele>712</ele>
        <time>2019-06-30T06:26:38.000Z</time>
      </trkpt>
      <trkpt lat="42.98134" lon="0.56128">
        <ele>712</ele>
        <time>2019-06-30T06:26:40.000Z</time>
      </trkpt>
      <trkpt lat="42.98133" lon="0.5613">
        <ele>712</ele>
        <time>2019-06-30T06:26:42.000Z</time>
      </trkpt>
      <trkpt lat="42.98131" lon="0.56132">
        <ele>713</ele>
        <time>2019-06-30T06:26:44.000Z</time>
      </trkpt>
      <trkpt lat="42.9813" lon="0.56133">
        <ele>713</ele>
        <time>2019-06-30T06:26:46.000Z</time>
      </trkpt>
      <trkpt lat="42.98129" lon="0.56134">
        <ele>713</ele>
        <time>2019-06-30T06:26:48.000Z</time>
      </trkpt>
      <trkpt lat="42.98128" lon="0.56135">
        <ele>713</ele>
        <time>2019-06-30T06:26:50.000Z</time>
      </trkpt>
      <trkpt lat="42.98127" lon="0.56135">
        <ele>714</ele>
        <time>2019-06-30T06:26:52.000Z</time>
      </trkpt>
      <trkpt lat="42.98126" lon="0.56136">
        <ele>714</ele>
        <time>2019-06-30T06:26:54.000Z</time>
      </trkpt>
      <trkpt lat="42.98125" lon="0.56136">
        <ele>715</ele>
        <time>2019-06-30T06:26:56.000Z</time>
      </trkpt>
      <trkpt lat="42.98124" lon="0.56137">
        <ele>716</ele>
        <time>2019-06-30T06:26:58.000Z</time>
      </trkpt>
      <trkpt lat="42.98123" lon="0.56137">
        <ele>716</ele>
        <time>2019-06-30T06:27:00.000Z</time>
      </trkpt>
      <trkpt lat="42.98122" lon="0.56137">
        <ele>716</ele>
        <time>2019-06-30T06:27:02.000Z</time>
      </trkpt>
      <trkpt lat="42.98121" lon="0.56139">
        <ele>716</ele>
        <time>2019-06-30T06:27:04.000Z</time>
      </trkpt>
      <trkpt lat="42.98121" lon="0.5614">
        <ele>717</ele>
        <time>2019-06-30T06:27:06.000Z</time>
      </trkpt>
      <trkpt lat="42.9812" lon="0.5614">
        <ele>717</ele>
        <time>2019-06-30T06:27:08.000Z</time>
      </trkpt>
      <trkpt lat="42.9812" lon="0.56141">
        <ele>717</ele>
        <time>2019-06-30T06:27:10.000Z</time>
      </trkpt>
      <trkpt lat="42.98119" lon="0.56142">
        <ele>717</ele>
        <time>2019-06-30T06:27:12.000Z</time>
      </trkpt>
      <trkpt lat="42.98117" lon="0.56143">
        <ele>718</ele>
        <time>2019-06-30T06:27:14.000Z</time>
      </trkpt>
      <trkpt lat="42.98116" lon="0.56143">
        <ele>719</ele>
        <time>2019-06-30T06:27:16.000Z</time>
      </trkpt>
      <trkpt lat="42.98115" lon="0.56143">
        <ele>719</ele>
        <time>2019-06-30T06:27:18.000Z</time>
      </trkpt>
      <trkpt lat="42.98113" lon="0.56144">
        <ele>720</ele>
        <time>2019-06-30T06:27:20.000Z</time>
      </trkpt>
      <trkpt lat="42.98113" lon="0.56145">
        <ele>720</ele>
        <time>2019-06-30T06:27:22.000Z</time>
      </trkpt>
      <trkpt lat="42.98112" lon="0.56146">
        <ele>720</ele>
        <time>2019-06-30T06:27:24.000Z</time>
      </trkpt>
      <trkpt lat="42.98112" lon="0.56147">
        <ele>720</ele>
        <time>2019-06-30T06:27:26.000Z</time>
      </trkpt>
      <trkpt lat="42.98111" lon="0.56148">
        <ele>720</ele>
        <time>2019-06-30T06:27:28.000Z</time>
      </trkpt>
      <trkpt lat="42.98111" lon="0.56149">
        <ele>720</ele>
        <time>2019-06-30T06:27:30.000Z</time>
      </trkpt>
      <trkpt lat="42.9811" lon="0.5615">
        <ele>721</ele>
        <time>2019-06-30T06:27:32.000Z</time>
      </trkpt>
      <trkpt lat="42.98109" lon="0.5615">
        <ele>721</ele>
        <time>2019-06-30T06:27:34.000Z</time>
      </trkpt>
      <trkpt lat="42.98108" lon="0.5615">
        <ele>722</ele>
        <time>2019-06-30T06:27:36.000Z</time>
      </trkpt>
      <trkpt lat="42.98106" lon="0.56151">
        <ele>722</ele>
        <time>2019-06-30T06:27:38.000Z</time>
      </trkpt>
      <trkpt lat="42.98106" lon="0.56152">
        <ele>722</ele>
        <time>2019-06-30T06:27:40.000Z</time>
      </trkpt>
      <trkpt lat="42.98105" lon="0.56152">
        <ele>723</ele>
        <time>2019-06-30T06:27:42.000Z</time>
      </trkpt>
      <trkpt lat="42.98104" lon="0.56153">
        <ele>723</ele>
        <time>2019-06-30T06:27:44.000Z</time>
      </trkpt>
      <trkpt lat="42.98103" lon="0.56153">
        <ele>724</ele>
        <time>2019-06-30T06:27:46.000Z</time>
      </trkpt>
      <trkpt lat="42.98102" lon="0.56154">
        <ele>724</ele>
        <time>2019-06-30T06:27:48.000Z</time>
      </trkpt>
      <trkpt lat="42.981" lon="0.56155">
        <ele>725</ele>
        <time>2019-06-30T06:27:50.000Z</time>
      </trkpt>
      <trkpt lat="42.98099" lon="0.56156">
        <ele>725</ele>
        <time>2019-06-30T06:27:52.000Z</time>
      </trkpt>
      <trkpt lat="42.981" lon="0.56156">
        <ele>725</ele>
        <time>2019-06-30T06:27:54.000Z</time>
      </trkpt>
      <trkpt lat="42.981" lon="0.56156">
        <ele>725</ele>
        <time>2019-06-30T06:27:56.000Z</time>
      </trkpt>
      <trkpt lat="42.981" lon="0.56156">
        <ele>725</ele>
        <time>2019-06-30T06:27:58.000Z</time>
      </trkpt>
      <trkpt lat="42.981" lon="0.56156">
        <ele>725</ele>
        <time>2019-06-30T06:28:00.000Z</time>
      </trkpt>
      <trkpt lat="42.981" lon="0.56156">
        <ele>725</ele>
        <time>2019-06-30T06:28:02.000Z</time>
      </trkpt>
      <trkpt lat="42.98101" lon="0.56155">
        <ele>725</ele>
        <time>2019-06-30T06:28:04.000Z</time>
      </trkpt>
      <trkpt lat="42.98101" lon="0.56154">
        <ele>725</ele>
        <time>2019-06-30T06:28:06.000Z</time>
      </trkpt>
      <trkpt lat="42.98102" lon="0.56154">
        <ele>724</ele>
        <time>2019-06-30T06:28:08.000Z</time>
      </trkpt>
      <trkpt lat="42.98102" lon="0.56153">
        <ele>724</ele>
        <time>2019-06-30T06:28:10.000Z</time>
      </trkpt>
      <trkpt lat="42.98102" lon="0.56153">
        <ele>724</ele>
        <time>2019-06-30T06:28:12.000Z</time>
      </trkpt>
      <trkpt lat="42.98102" lon="0.56153">
        <ele>724</ele>
        <time>2019-06-30T06:28:14.000Z</time>
      </trkpt>
      <trkpt lat="42.98101" lon="0.56154">
        <ele>725</ele>
        <time>2019-06-30T06:28:16.000Z</time>
      </trkpt>
      <trkpt lat="42.98101" lon="0.56154">
        <ele>725</ele>
        <time>2019-06-30T06:28:18.000Z</time>
      </trkpt>
      <trkpt lat="42.98101" lon="0.56154">
        <ele>725</ele>
        <time>2019-06-30T06:28:20.000Z</time>
      </trkpt>
      <trkpt lat="42.98101" lon="0.56154">
        <ele>725</ele>
        <time>2019-06-30T06:28:22.000Z</time>
      </trkpt>
      <trkpt lat="42.981" lon="0.56155">
        <ele>725</ele>
        <time>2019-06-30T06:28:24.000Z</time>
      </trkpt>
      <trkpt lat="42.981" lon="0.56155">
        <ele>725</ele>
        <time>2019-06-30T06:28:26.000Z</time>
      </trkpt>
      <trkpt lat="42.981" lon="0.56155">
        <ele>725</ele>
        <time>2019-06-30T06:28:28.000Z</time>
      </trkpt>
      <trkpt lat="42.981" lon="0.56155">
        <ele>725</ele>
        <time>2019-06-30T06:28:30.000Z</time>
      </trkpt>
      <trkpt lat="42.981" lon="0.56156">
        <ele>725</ele>
        <time>2019-06-30T06:28:32.000Z</time>
      </trkpt>
      <trkpt lat="42.98101" lon="0.56156">
        <ele>724</ele>
        <time>2019-06-30T06:28:34.000Z</time>
      </trkpt>
      <trkpt lat="42.98101" lon="0.56157">
        <ele>724</ele>
        <time>2019-06-30T06:28:36.000Z</time>
      </trkpt>
      <trkpt lat="42.98101" lon="0.56158">
        <ele>724</ele>
        <time>2019-06-30T06:28:38.000Z</time>
      </trkpt>
      <trkpt lat="42.98102" lon="0.56157">
        <ele>724</ele>
        <time>2019-06-30T06:28:40.000Z</time>
      </trkpt>
      <trkpt lat="42.98102" lon="0.56157">
        <ele>723</ele>
        <time>2019-06-30T06:28:42.000Z</time>
      </trkpt>
      <trkpt lat="42.98102" lon="0.56158">
        <ele>723</ele>
        <time>2019-06-30T06:28:44.000Z</time>
      </trkpt>
      <trkpt lat="42.98102" lon="0.56158">
        <ele>723</ele>
        <time>2019-06-30T06:28:46.000Z</time>
      </trkpt>
      <trkpt lat="42.98102" lon="0.56158">
        <ele>723</ele>
        <time>2019-06-30T06:28:48.000Z</time>
      </trkpt>
      <trkpt lat="42.98102" lon="0.56159">
        <ele>723</ele>
        <time>2019-06-30T06:28:50.000Z</time>
      </trkpt>
      <trkpt lat="42.98102" lon="0.56158">
        <ele>723</ele>
        <time>2019-06-30T06:28:52.000Z</time>
      </trkpt>
      <trkpt lat="42.98103" lon="0.56158">
        <ele>723</ele>
        <time>2019-06-30T06:28:54.000Z</time>
      </trkpt>
      <trkpt lat="42.98103" lon="0.56159">
        <ele>723</ele>
        <time>2019-06-30T06:28:56.000Z</time>
      </trkpt>
      <trkpt lat="42.98103" lon="0.56159">
        <ele>723</ele>
        <time>2019-06-30T06:28:58.000Z</time>
      </trkpt>
      <trkpt lat="42.98103" lon="0.56159">
        <ele>722</ele>
        <time>2019-06-30T06:29:00.000Z</time>
      </trkpt>
      <trkpt lat="42.98104" lon="0.56159">
        <ele>722</ele>
        <time>2019-06-30T06:29:02.000Z</time>
      </trkpt>
      <trkpt lat="42.98104" lon="0.56158">
        <ele>722</ele>
        <time>2019-06-30T06:29:04.000Z</time>
      </trkpt>
      <trkpt lat="42.98104" lon="0.56158">
        <ele>722</ele>
        <time>2019-06-30T06:29:06.000Z</time>
      </trkpt>
      <trkpt lat="42.98105" lon="0.56158">
        <ele>722</ele>
        <time>2019-06-30T06:29:08.000Z</time>
      </trkpt>
      <trkpt lat="42.98106" lon="0.56158">
        <ele>721</ele>
        <time>2019-06-30T06:29:10.000Z</time>
      </trkpt>
      <trkpt lat="42.98109" lon="0.56158">
        <ele>720</ele>
        <time>2019-06-30T06:29:12.000Z</time>
      </trkpt>
      <trkpt lat="42.98109" lon="0.56158">
        <ele>720</ele>
        <time>2019-06-30T06:29:14.000Z</time>
      </trkpt>
      <trkpt lat="42.98109" lon="0.56158">
        <ele>720</ele>
        <time>2019-06-30T06:29:16.000Z</time>
      </trkpt>
      <trkpt lat="42.98109" lon="0.56159">
        <ele>720</ele>
        <time>2019-06-30T06:29:18.000Z</time>
      </trkpt>
      <trkpt lat="42.98108" lon="0.56158">
        <ele>720</ele>
        <time>2019-06-30T06:29:20.000Z</time>
      </trkpt>
      <trkpt lat="42.98108" lon="0.56159">
        <ele>720</ele>
        <time>2019-06-30T06:29:22.000Z</time>
      </trkpt>
      <trkpt lat="42.98108" lon="0.56159">
        <ele>720</ele>
        <time>2019-06-30T06:29:24.000Z</time>
      </trkpt>
      <trkpt lat="42.98108" lon="0.56159">
        <ele>720</ele>
        <time>2019-06-30T06:29:26.000Z</time>
      </trkpt>
      <trkpt lat="42.98109" lon="0.56158">
        <ele>720</ele>
        <time>2019-06-30T06:29:28.000Z</time>
      </trkpt>
      <trkpt lat="42.98108" lon="0.56159">
        <ele>720</ele>
        <time>2019-06-30T06:29:30.000Z</time>
      </trkpt>
      <trkpt lat="42.98108" lon="0.56159">
        <ele>720</ele>
        <time>2019-06-30T06:29:32.000Z</time>
      </trkpt>
      <trkpt lat="42.98107" lon="0.56159">
        <ele>720</ele>
        <time>2019-06-30T06:29:34.000Z</time>
      </trkpt>
      <trkpt lat="42.98107" lon="0.56159">
        <ele>721</ele>
        <time>2019-06-30T06:29:36.000Z</time>
      </trkpt>
      <trkpt lat="42.98106" lon="0.56159">
        <ele>721</ele>
        <time>2019-06-30T06:29:38.000Z</time>
      </trkpt>
      <trkpt lat="42.98104" lon="0.5616">
        <ele>722</ele>
        <time>2019-06-30T06:29:40.000Z</time>
      </trkpt>
      <trkpt lat="42.98102" lon="0.56159">
        <ele>723</ele>
        <time>2019-06-30T06:29:42.000Z</time>
      </trkpt>
      <trkpt lat="42.98101" lon="0.56158">
        <ele>724</ele>
        <time>2019-06-30T06:29:44.000Z</time>
      </trkpt>
      <trkpt lat="42.981" lon="0.56157">
        <ele>724</ele>
        <time>2019-06-30T06:29:46.000Z</time>
      </trkpt>
      <trkpt lat="42.981" lon="0.56157">
        <ele>724</ele>
        <time>2019-06-30T06:29:48.000Z</time>
      </trkpt>
      <trkpt lat="42.98101" lon="0.56157">
        <ele>724</ele>
        <time>2019-06-30T06:29:50.000Z</time>
      </trkpt>
      <trkpt lat="42.98101" lon="0.56157">
        <ele>724</ele>
        <time>2019-06-30T06:29:52.000Z</time>
      </trkpt>
      <trkpt lat="42.98101" lon="0.56157">
        <ele>724</ele>
        <time>2019-06-30T06:29:54.000Z</time>
      </trkpt>
      <trkpt lat="42.98101" lon="0.56157">
        <ele>724</ele>
        <time>2019-06-30T06:29:56.000Z</time>
      </trkpt>
      <trkpt lat="42.98101" lon="0.56158">
        <ele>724</ele>
        <time>2019-06-30T06:29:58.000Z</time>
      </trkpt>
      <trkpt lat="42.98101" lon="0.56159">
        <ele>724</ele>
        <time>2019-06-30T06:30:00.000Z</time>
      </trkpt>
      <trkpt lat="42.981" lon="0.56161">
        <ele>724</ele>
        <time>2019-06-30T06:30:02.000Z</time>
      </trkpt>
      <trkpt lat="42.981" lon="0.56162">
        <ele>723</ele>
        <time>2019-06-30T06:30:04.000Z</time>
      </trkpt>
      <trkpt lat="42.981" lon="0.56163">
        <ele>723</ele>
        <time>2019-06-30T06:30:06.000Z</time>
      </trkpt>
      <trkpt lat="42.98101" lon="0.56163">
        <ele>723</ele>
        <time>2019-06-30T06:30:08.000Z</time>
      </trkpt>
      <trkpt lat="42.98101" lon="0.56163">
        <ele>723</ele>
        <time>2019-06-30T06:30:10.000Z</time>
      </trkpt>
      <trkpt lat="42.98101" lon="0.56163">
        <ele>723</ele>
        <time>2019-06-30T06:30:12.000Z</time>
      </trkpt>
      <trkpt lat="42.98102" lon="0.56163">
        <ele>723</ele>
        <time>2019-06-30T06:30:14.000Z</time>
      </trkpt>
      <trkpt lat="42.98101" lon="0.56163">
        <ele>723</ele>
        <time>2019-06-30T06:30:16.000Z</time>
      </trkpt>
      <trkpt lat="42.98101" lon="0.56163">
        <ele>723</ele>
        <time>2019-06-30T06:30:18.000Z</time>
      </trkpt>
      <trkpt lat="42.98101" lon="0.56163">
        <ele>723</ele>
        <time>2019-06-30T06:30:20.000Z</time>
      </trkpt>
      <trkpt lat="42.981" lon="0.56163">
        <ele>723</ele>
        <time>2019-06-30T06:30:22.000Z</time>
      </trkpt>
      <trkpt lat="42.98101" lon="0.56163">
        <ele>723</ele>
        <time>2019-06-30T06:30:24.000Z</time>
      </trkpt>
      <trkpt lat="42.98102" lon="0.56163">
        <ele>723</ele>
        <time>2019-06-30T06:30:26.000Z</time>
      </trkpt>
      <trkpt lat="42.98102" lon="0.56163">
        <ele>722</ele>
        <time>2019-06-30T06:30:28.000Z</time>
      </trkpt>
      <trkpt lat="42.98102" lon="0.56164">
        <ele>722</ele>
        <time>2019-06-30T06:30:30.000Z</time>
      </trkpt>
      <trkpt lat="42.98103" lon="0.56164">
        <ele>722</ele>
        <time>2019-06-30T06:30:32.000Z</time>
      </trkpt>
      <trkpt lat="42.98103" lon="0.56164">
        <ele>722</ele>
        <time>2019-06-30T06:30:34.000Z</time>
      </trkpt>
      <trkpt lat="42.98103" lon="0.56163">
        <ele>722</ele>
        <time>2019-06-30T06:30:36.000Z</time>
      </trkpt>
      <trkpt lat="42.98103" lon="0.56163">
        <ele>722</ele>
        <time>2019-06-30T06:30:38.000Z</time>
      </trkpt>
      <trkpt lat="42.98104" lon="0.56162">
        <ele>721</ele>
        <time>2019-06-30T06:30:40.000Z</time>
      </trkpt>
      <trkpt lat="42.98104" lon="0.56162">
        <ele>721</ele>
        <time>2019-06-30T06:30:42.000Z</time>
      </trkpt>
      <trkpt lat="42.98105" lon="0.56162">
        <ele>721</ele>
        <time>2019-06-30T06:30:44.000Z</time>
      </trkpt>
      <trkpt lat="42.98105" lon="0.56161">
        <ele>721</ele>
        <time>2019-06-30T06:30:46.000Z</time>
      </trkpt>
      <trkpt lat="42.98104" lon="0.56161">
        <ele>722</ele>
        <time>2019-06-30T06:30:48.000Z</time>
      </trkpt>
      <trkpt lat="42.98104" lon="0.56161">
        <ele>722</ele>
        <time>2019-06-30T06:30:50.000Z</time>
      </trkpt>
      <trkpt lat="42.98104" lon="0.56161">
        <ele>722</ele>
        <time>2019-06-30T06:30:52.000Z</time>
      </trkpt>
      <trkpt lat="42.98103" lon="0.56162">
        <ele>722</ele>
        <time>2019-06-30T06:30:54.000Z</time>
      </trkpt>
      <trkpt lat="42.98103" lon="0.56161">
        <ele>722</ele>
        <time>2019-06-30T06:30:56.000Z</time>
      </trkpt>
      <trkpt lat="42.98103" lon="0.56161">
        <ele>722</ele>
        <time>2019-06-30T06:30:58.000Z</time>
      </trkpt>
      <trkpt lat="42.98102" lon="0.56161">
        <ele>723</ele>
        <time>2019-06-30T06:31:00.000Z</time>
      </trkpt>
      <trkpt lat="42.98101" lon="0.56161">
        <ele>723</ele>
        <time>2019-06-30T06:31:02.000Z</time>
      </trkpt>
      <trkpt lat="42.981" lon="0.56161">
        <ele>724</ele>
        <time>2019-06-30T06:31:04.000Z</time>
      </trkpt>
      <trkpt lat="42.98101" lon="0.56161">
        <ele>723</ele>
        <time>2019-06-30T06:31:06.000Z</time>
      </trkpt>
      <trkpt lat="42.98101" lon="0.56161">
        <ele>723</ele>
        <time>2019-06-30T06:31:08.000Z</time>
      </trkpt>
      <trkpt lat="42.98101" lon="0.56161">
        <ele>723</ele>
        <time>2019-06-30T06:31:10.000Z</time>
      </trkpt>
      <trkpt lat="42.98102" lon="0.56161">
        <ele>723</ele>
        <time>2019-06-30T06:31:12.000Z</time>
      </trkpt>
      <trkpt lat="42.98101" lon="0.56161">
        <ele>723</ele>
        <time>2019-06-30T06:31:14.000Z</time>
      </trkpt>
      <trkpt lat="42.98101" lon="0.56162">
        <ele>723</ele>
        <time>2019-06-30T06:31:16.000Z</time>
      </trkpt>
      <trkpt lat="42.98102" lon="0.56162">
        <ele>722</ele>
        <time>2019-06-30T06:31:18.000Z</time>
      </trkpt>
      <trkpt lat="42.98103" lon="0.56162">
        <ele>722</ele>
        <time>2019-06-30T06:31:20.000Z</time>
      </trkpt>
      <trkpt lat="42.98103" lon="0.56161">
        <ele>722</ele>
        <time>2019-06-30T06:31:22.000Z</time>
      </trkpt>
      <trkpt lat="42.98103" lon="0.56161">
        <ele>722</ele>
        <time>2019-06-30T06:31:24.000Z</time>
      </trkpt>
      <trkpt lat="42.98104" lon="0.5616">
        <ele>722</ele>
        <time>2019-06-30T06:31:26.000Z</time>
      </trkpt>
      <trkpt lat="42.98105" lon="0.5616">
        <ele>721</ele>
        <time>2019-06-30T06:31:28.000Z</time>
      </trkpt>
      <trkpt lat="42.98105" lon="0.5616">
        <ele>722</ele>
        <time>2019-06-30T06:31:30.000Z</time>
      </trkpt>
      <trkpt lat="42.98104" lon="0.5616">
        <ele>722</ele>
        <time>2019-06-30T06:31:32.000Z</time>
      </trkpt>
      <trkpt lat="42.98104" lon="0.5616">
        <ele>722</ele>
        <time>2019-06-30T06:31:34.000Z</time>
      </trkpt>
      <trkpt lat="42.98104" lon="0.5616">
        <ele>722</ele>
        <time>2019-06-30T06:31:36.000Z</time>
      </trkpt>
      <trkpt lat="42.98104" lon="0.56159">
        <ele>722</ele>
        <time>2019-06-30T06:31:38.000Z</time>
      </trkpt>
      <trkpt lat="42.98105" lon="0.56159">
        <ele>721</ele>
        <time>2019-06-30T06:31:40.000Z</time>
      </trkpt>
      <trkpt lat="42.98105" lon="0.56159">
        <ele>722</ele>
        <time>2019-06-30T06:31:42.000Z</time>
      </trkpt>
      <trkpt lat="42.98105" lon="0.56159">
        <ele>722</ele>
        <time>2019-06-30T06:31:44.000Z</time>
      </trkpt>
      <trkpt lat="42.98105" lon="0.56159">
        <ele>722</ele>
        <time>2019-06-30T06:31:46.000Z</time>
      </trkpt>
      <trkpt lat="42.98105" lon="0.56159">
        <ele>721</ele>
        <time>2019-06-30T06:31:48.000Z</time>
      </trkpt>
      <trkpt lat="42.98105" lon="0.56159">
        <ele>721</ele>
        <time>2019-06-30T06:31:50.000Z</time>
      </trkpt>
      <trkpt lat="42.98106" lon="0.5616">
        <ele>721</ele>
        <time>2019-06-30T06:31:52.000Z</time>
      </trkpt>
      <trkpt lat="42.98107" lon="0.5616">
        <ele>720</ele>
        <time>2019-06-30T06:31:54.000Z</time>
      </trkpt>
      <trkpt lat="42.98108" lon="0.56161">
        <ele>720</ele>
        <time>2019-06-30T06:31:56.000Z</time>
      </trkpt>
      <trkpt lat="42.98109" lon="0.56161">
        <ele>719</ele>
        <time>2019-06-30T06:31:58.000Z</time>
      </trkpt>
      <trkpt lat="42.9811" lon="0.56161">
        <ele>719</ele>
        <time>2019-06-30T06:32:00.000Z</time>
      </trkpt>
      <trkpt lat="42.98111" lon="0.56161">
        <ele>718</ele>
        <time>2019-06-30T06:32:02.000Z</time>
      </trkpt>
      <trkpt lat="42.98111" lon="0.56161">
        <ele>718</ele>
        <time>2019-06-30T06:32:04.000Z</time>
      </trkpt>
      <trkpt lat="42.98111" lon="0.56161">
        <ele>718</ele>
        <time>2019-06-30T06:32:06.000Z</time>
      </trkpt>
      <trkpt lat="42.98111" lon="0.56161">
        <ele>718</ele>
        <time>2019-06-30T06:32:08.000Z</time>
      </trkpt>
      <trkpt lat="42.98111" lon="0.56162">
        <ele>718</ele>
        <time>2019-06-30T06:32:10.000Z</time>
      </trkpt>
      <trkpt lat="42.98111" lon="0.56162">
        <ele>718</ele>
        <time>2019-06-30T06:32:12.000Z</time>
      </trkpt>
      <trkpt lat="42.98111" lon="0.56162">
        <ele>718</ele>
        <time>2019-06-30T06:32:14.000Z</time>
      </trkpt>
      <trkpt lat="42.98111" lon="0.56162">
        <ele>718</ele>
        <time>2019-06-30T06:32:16.000Z</time>
      </trkpt>
      <trkpt lat="42.98111" lon="0.56162">
        <ele>718</ele>
        <time>2019-06-30T06:32:18.000Z</time>
      </trkpt>
      <trkpt lat="42.9811" lon="0.56162">
        <ele>719</ele>
        <time>2019-06-30T06:32:20.000Z</time>
      </trkpt>
      <trkpt lat="42.98109" lon="0.56162">
        <ele>719</ele>
        <time>2019-06-30T06:32:22.000Z</time>
      </trkpt>
      <trkpt lat="42.98108" lon="0.56163">
        <ele>720</ele>
        <time>2019-06-30T06:32:24.000Z</time>
      </trkpt>
      <trkpt lat="42.98107" lon="0.56163">
        <ele>720</ele>
        <time>2019-06-30T06:32:26.000Z</time>
      </trkpt>
      <trkpt lat="42.98107" lon="0.56163">
        <ele>720</ele>
        <time>2019-06-30T06:32:28.000Z</time>
      </trkpt>
      <trkpt lat="42.98106" lon="0.56163">
        <ele>720</ele>
        <time>2019-06-30T06:32:30.000Z</time>
      </trkpt>
      <trkpt lat="42.98106" lon="0.56164">
        <ele>720</ele>
        <time>2019-06-30T06:32:32.000Z</time>
      </trkpt>
      <trkpt lat="42.98107" lon="0.56164">
        <ele>720</ele>
        <time>2019-06-30T06:32:34.000Z</time>
      </trkpt>
      <trkpt lat="42.98108" lon="0.56163">
        <ele>719</ele>
        <time>2019-06-30T06:32:36.000Z</time>
      </trkpt>
      <trkpt lat="42.98109" lon="0.56163">
        <ele>719</ele>
        <time>2019-06-30T06:32:38.000Z</time>
      </trkpt>
      <trkpt lat="42.98111" lon="0.56162">
        <ele>718</ele>
        <time>2019-06-30T06:32:40.000Z</time>
      </trkpt>
      <trkpt lat="42.98111" lon="0.56162">
        <ele>718</ele>
        <time>2019-06-30T06:32:42.000Z</time>
      </trkpt>
      <trkpt lat="42.98112" lon="0.56162">
        <ele>718</ele>
        <time>2019-06-30T06:32:44.000Z</time>
      </trkpt>
      <trkpt lat="42.98111" lon="0.56162">
        <ele>718</ele>
        <time>2019-06-30T06:32:46.000Z</time>
      </trkpt>
      <trkpt lat="42.98112" lon="0.56162">
        <ele>717</ele>
        <time>2019-06-30T06:32:48.000Z</time>
      </trkpt>
      <trkpt lat="42.98114" lon="0.56162">
        <ele>717</ele>
        <time>2019-06-30T06:32:50.000Z</time>
      </trkpt>
      <trkpt lat="42.98114" lon="0.56162">
        <ele>716</ele>
        <time>2019-06-30T06:32:52.000Z</time>
      </trkpt>
      <trkpt lat="42.98114" lon="0.56163">
        <ele>716</ele>
        <time>2019-06-30T06:32:54.000Z</time>
      </trkpt>
      <trkpt lat="42.98114" lon="0.56163">
        <ele>716</ele>
        <time>2019-06-30T06:32:56.000Z</time>
      </trkpt>
      <trkpt lat="42.98114" lon="0.56162">
        <ele>716</ele>
        <time>2019-06-30T06:32:58.000Z</time>
      </trkpt>
      <trkpt lat="42.98113" lon="0.56161">
        <ele>717</ele>
        <time>2019-06-30T06:33:00.000Z</time>
      </trkpt>
      <trkpt lat="42.98112" lon="0.56161">
        <ele>718</ele>
        <time>2019-06-30T06:33:02.000Z</time>
      </trkpt>
      <trkpt lat="42.98111" lon="0.56161">
        <ele>718</ele>
        <time>2019-06-30T06:33:04.000Z</time>
      </trkpt>
      <trkpt lat="42.98111" lon="0.56161">
        <ele>718</ele>
        <time>2019-06-30T06:33:06.000Z</time>
      </trkpt>
      <trkpt lat="42.98111" lon="0.56161">
        <ele>718</ele>
        <time>2019-06-30T06:33:08.000Z</time>
      </trkpt>
      <trkpt lat="42.9811" lon="0.56162">
        <ele>718</ele>
        <time>2019-06-30T06:33:10.000Z</time>
      </trkpt>
      <trkpt lat="42.9811" lon="0.56162">
        <ele>719</ele>
        <time>2019-06-30T06:33:12.000Z</time>
      </trkpt>
      <trkpt lat="42.98109" lon="0.56162">
        <ele>719</ele>
        <time>2019-06-30T06:33:14.000Z</time>
      </trkpt>
      <trkpt lat="42.98109" lon="0.56162">
        <ele>719</ele>
        <time>2019-06-30T06:33:16.000Z</time>
      </trkpt>
      <trkpt lat="42.98109" lon="0.56162">
        <ele>719</ele>
        <time>2019-06-30T06:33:18.000Z</time>
      </trkpt>
      <trkpt lat="42.98109" lon="0.56161">
        <ele>719</ele>
        <time>2019-06-30T06:33:20.000Z</time>
      </trkpt>
      <trkpt lat="42.98109" lon="0.5616">
        <ele>719</ele>
        <time>2019-06-30T06:33:22.000Z</time>
      </trkpt>
      <trkpt lat="42.98109" lon="0.56159">
        <ele>719</ele>
        <time>2019-06-30T06:33:24.000Z</time>
      </trkpt>
      <trkpt lat="42.98109" lon="0.56159">
        <ele>720</ele>
        <time>2019-06-30T06:33:26.000Z</time>
      </trkpt>
      <trkpt lat="42.98108" lon="0.56159">
        <ele>720</ele>
        <time>2019-06-30T06:33:28.000Z</time>
      </trkpt>
      <trkpt lat="42.98108" lon="0.56159">
        <ele>720</ele>
        <time>2019-06-30T06:33:30.000Z</time>
      </trkpt>
      <trkpt lat="42.98108" lon="0.56159">
        <ele>720</ele>
        <time>2019-06-30T06:33:32.000Z</time>
      </trkpt>
      <trkpt lat="42.98109" lon="0.56159">
        <ele>719</ele>
        <time>2019-06-30T06:33:34.000Z</time>
      </trkpt>
      <trkpt lat="42.98109" lon="0.5616">
        <ele>719</ele>
        <time>2019-06-30T06:33:36.000Z</time>
      </trkpt>
      <trkpt lat="42.98109" lon="0.5616">
        <ele>719</ele>
        <time>2019-06-30T06:33:38.000Z</time>
      </trkpt>
      <trkpt lat="42.98112" lon="0.56159">
        <ele>718</ele>
        <time>2019-06-30T06:33:40.000Z</time>
      </trkpt>
      <trkpt lat="42.98113" lon="0.56159">
        <ele>717</ele>
        <time>2019-06-30T06:33:42.000Z</time>
      </trkpt>
      <trkpt lat="42.98114" lon="0.56159">
        <ele>717</ele>
        <time>2019-06-30T06:33:44.000Z</time>
      </trkpt>
      <trkpt lat="42.9812" lon="0.56157">
        <ele>714</ele>
        <time>2019-06-30T06:33:46.000Z</time>
      </trkpt>
      <trkpt lat="42.98121" lon="0.56156">
        <ele>714</ele>
        <time>2019-06-30T06:33:48.000Z</time>
      </trkpt>
      <trkpt lat="42.98121" lon="0.56156">
        <ele>713</ele>
        <time>2019-06-30T06:33:50.000Z</time>
      </trkpt>
      <trkpt lat="42.98121" lon="0.56156">
        <ele>714</ele>
        <time>2019-06-30T06:33:52.000Z</time>
      </trkpt>
      <trkpt lat="42.98118" lon="0.56154">
        <ele>716</ele>
        <time>2019-06-30T06:33:54.000Z</time>
      </trkpt>
      <trkpt lat="42.98117" lon="0.56155">
        <ele>716</ele>
        <time>2019-06-30T06:33:56.000Z</time>
      </trkpt>
      <trkpt lat="42.98117" lon="0.56155">
        <ele>716</ele>
        <time>2019-06-30T06:33:58.000Z</time>
      </trkpt>
      <trkpt lat="42.98117" lon="0.56155">
        <ele>716</ele>
        <time>2019-06-30T06:34:00.000Z</time>
      </trkpt>
      <trkpt lat="42.98116" lon="0.56155">
        <ele>716</ele>
        <time>2019-06-30T06:34:02.000Z</time>
      </trkpt>
      <trkpt lat="42.98115" lon="0.56155">
        <ele>717</ele>
        <time>2019-06-30T06:34:04.000Z</time>
      </trkpt>
      <trkpt lat="42.98114" lon="0.56155">
        <ele>718</ele>
        <time>2019-06-30T06:34:06.000Z</time>
      </trkpt>
      <trkpt lat="42.98113" lon="0.56156">
        <ele>718</ele>
        <time>2019-06-30T06:34:08.000Z</time>
      </trkpt>
      <trkpt lat="42.98112" lon="0.56156">
        <ele>718</ele>
        <time>2019-06-30T06:34:10.000Z</time>
      </trkpt>
      <trkpt lat="42.98112" lon="0.56156">
        <ele>718</ele>
        <time>2019-06-30T06:34:12.000Z</time>
      </trkpt>
      <trkpt lat="42.98113" lon="0.56157">
        <ele>718</ele>
        <time>2019-06-30T06:34:14.000Z</time>
      </trkpt>
      <trkpt lat="42.98109" lon="0.56158">
        <ele>719</ele>
        <time>2019-06-30T06:34:16.000Z</time>
      </trkpt>
      <trkpt lat="42.98109" lon="0.56159">
        <ele>720</ele>
        <time>2019-06-30T06:34:18.000Z</time>
      </trkpt>
      <trkpt lat="42.98109" lon="0.56159">
        <ele>720</ele>
        <time>2019-06-30T06:34:20.000Z</time>
      </trkpt>
      <trkpt lat="42.98108" lon="0.5616">
        <ele>720</ele>
        <time>2019-06-30T06:34:22.000Z</time>
      </trkpt>
      <trkpt lat="42.98108" lon="0.56159">
        <ele>720</ele>
        <time>2019-06-30T06:34:24.000Z</time>
      </trkpt>
      <trkpt lat="42.98109" lon="0.56159">
        <ele>720</ele>
        <time>2019-06-30T06:34:26.000Z</time>
      </trkpt>
      <trkpt lat="42.98109" lon="0.56158">
        <ele>720</ele>
        <time>2019-06-30T06:34:28.000Z</time>
      </trkpt>
      <trkpt lat="42.98109" lon="0.56158">
        <ele>720</ele>
        <time>2019-06-30T06:34:30.000Z</time>
      </trkpt>
      <trkpt lat="42.98109" lon="0.56158">
        <ele>720</ele>
        <time>2019-06-30T06:34:32.000Z</time>
      </trkpt>
      <trkpt lat="42.98108" lon="0.56159">
        <ele>720</ele>
        <time>2019-06-30T06:34:34.000Z</time>
      </trkpt>
      <trkpt lat="42.98108" lon="0.5616">
        <ele>720</ele>
        <time>2019-06-30T06:34:36.000Z</time>
      </trkpt>
      <trkpt lat="42.98108" lon="0.5616">
        <ele>720</ele>
        <time>2019-06-30T06:34:38.000Z</time>
      </trkpt>
      <trkpt lat="42.98109" lon="0.56161">
        <ele>719</ele>
        <time>2019-06-30T06:34:40.000Z</time>
      </trkpt>
      <trkpt lat="42.98111" lon="0.56162">
        <ele>718</ele>
        <time>2019-06-30T06:34:42.000Z</time>
      </trkpt>
      <trkpt lat="42.98112" lon="0.56162">
        <ele>717</ele>
        <time>2019-06-30T06:34:44.000Z</time>
      </trkpt>
      <trkpt lat="42.98113" lon="0.56162">
        <ele>717</ele>
        <time>2019-06-30T06:34:46.000Z</time>
      </trkpt>
      <trkpt lat="42.98114" lon="0.56163">
        <ele>716</ele>
        <time>2019-06-30T06:34:48.000Z</time>
      </trkpt>
      <trkpt lat="42.98114" lon="0.56162">
        <ele>716</ele>
        <time>2019-06-30T06:34:50.000Z</time>
      </trkpt>
      <trkpt lat="42.98113" lon="0.56164">
        <ele>717</ele>
        <time>2019-06-30T06:34:52.000Z</time>
      </trkpt>
      <trkpt lat="42.98112" lon="0.56165">
        <ele>717</ele>
        <time>2019-06-30T06:34:54.000Z</time>
      </trkpt>
      <trkpt lat="42.9811" lon="0.56165">
        <ele>718</ele>
        <time>2019-06-30T06:34:56.000Z</time>
      </trkpt>
      <trkpt lat="42.98107" lon="0.56165">
        <ele>719</ele>
        <time>2019-06-30T06:34:58.000Z</time>
      </trkpt>
      <trkpt lat="42.98105" lon="0.56166">
        <ele>720</ele>
        <time>2019-06-30T06:35:00.000Z</time>
      </trkpt>
      <trkpt lat="42.98103" lon="0.56166">
        <ele>722</ele>
        <time>2019-06-30T06:35:02.000Z</time>
      </trkpt>
      <trkpt lat="42.98101" lon="0.56166">
        <ele>722</ele>
        <time>2019-06-30T06:35:04.000Z</time>
      </trkpt>
      <trkpt lat="42.98099" lon="0.56166">
        <ele>723</ele>
        <time>2019-06-30T06:35:06.000Z</time>
      </trkpt>
      <trkpt lat="42.98097" lon="0.56167">
        <ele>724</ele>
        <time>2019-06-30T06:35:08.000Z</time>
      </trkpt>
      <trkpt lat="42.98097" lon="0.56166">
        <ele>725</ele>
        <time>2019-06-30T06:35:10.000Z</time>
      </trkpt>
      <trkpt lat="42.98096" lon="0.56165">
        <ele>725</ele>
        <time>2019-06-30T06:35:12.000Z</time>
      </trkpt>
      <trkpt lat="42.98095" lon="0.56166">
        <ele>725</ele>
        <time>2019-06-30T06:35:14.000Z</time>
      </trkpt>
      <trkpt lat="42.98094" lon="0.56167">
        <ele>726</ele>
        <time>2019-06-30T06:35:16.000Z</time>
      </trkpt>
      <trkpt lat="42.98092" lon="0.56168">
        <ele>726</ele>
        <time>2019-06-30T06:35:18.000Z</time>
      </trkpt>
      <trkpt lat="42.98091" lon="0.56169">
        <ele>727</ele>
        <time>2019-06-30T06:35:20.000Z</time>
      </trkpt>
      <trkpt lat="42.98089" lon="0.5617">
        <ele>728</ele>
        <time>2019-06-30T06:35:22.000Z</time>
      </trkpt>
      <trkpt lat="42.98087" lon="0.56172">
        <ele>728</ele>
        <time>2019-06-30T06:35:24.000Z</time>
      </trkpt>
      <trkpt lat="42.98086" lon="0.56173">
        <ele>729</ele>
        <time>2019-06-30T06:35:26.000Z</time>
      </trkpt>
      <trkpt lat="42.98084" lon="0.56174">
        <ele>729</ele>
        <time>2019-06-30T06:35:28.000Z</time>
      </trkpt>
      <trkpt lat="42.98083" lon="0.56175">
        <ele>729</ele>
        <time>2019-06-30T06:35:30.000Z</time>
      </trkpt>
      <trkpt lat="42.98082" lon="0.56175">
        <ele>730</ele>
        <time>2019-06-30T06:35:32.000Z</time>
      </trkpt>
      <trkpt lat="42.98082" lon="0.56176">
        <ele>730</ele>
        <time>2019-06-30T06:35:34.000Z</time>
      </trkpt>
      <trkpt lat="42.98081" lon="0.56176">
        <ele>730</ele>
        <time>2019-06-30T06:35:36.000Z</time>
      </trkpt>
      <trkpt lat="42.9808" lon="0.56177">
        <ele>730</ele>
        <time>2019-06-30T06:35:38.000Z</time>
      </trkpt>
      <trkpt lat="42.98079" lon="0.56178">
        <ele>731</ele>
        <time>2019-06-30T06:35:40.000Z</time>
      </trkpt>
      <trkpt lat="42.98078" lon="0.56179">
        <ele>731</ele>
        <time>2019-06-30T06:35:42.000Z</time>
      </trkpt>
      <trkpt lat="42.98078" lon="0.5618">
        <ele>731</ele>
        <time>2019-06-30T06:35:44.000Z</time>
      </trkpt>
      <trkpt lat="42.98076" lon="0.56182">
        <ele>731</ele>
        <time>2019-06-30T06:35:46.000Z</time>
      </trkpt>
      <trkpt lat="42.98075" lon="0.56184">
        <ele>731</ele>
        <time>2019-06-30T06:35:48.000Z</time>
      </trkpt>
      <trkpt lat="42.98074" lon="0.56185">
        <ele>732</ele>
        <time>2019-06-30T06:35:50.000Z</time>
      </trkpt>
      <trkpt lat="42.98073" lon="0.56186">
        <ele>732</ele>
        <time>2019-06-30T06:35:52.000Z</time>
      </trkpt>
      <trkpt lat="42.98072" lon="0.56187">
        <ele>732</ele>
        <time>2019-06-30T06:35:54.000Z</time>
      </trkpt>
      <trkpt lat="42.98072" lon="0.56188">
        <ele>732</ele>
        <time>2019-06-30T06:35:56.000Z</time>
      </trkpt>
      <trkpt lat="42.9807" lon="0.56189">
        <ele>733</ele>
        <time>2019-06-30T06:35:58.000Z</time>
      </trkpt>
      <trkpt lat="42.98069" lon="0.5619">
        <ele>733</ele>
        <time>2019-06-30T06:36:00.000Z</time>
      </trkpt>
      <trkpt lat="42.98068" lon="0.56192">
        <ele>733</ele>
        <time>2019-06-30T06:36:02.000Z</time>
      </trkpt>
      <trkpt lat="42.98067" lon="0.56193">
        <ele>733</ele>
        <time>2019-06-30T06:36:04.000Z</time>
      </trkpt>
      <trkpt lat="42.98065" lon="0.56194">
        <ele>734</ele>
        <time>2019-06-30T06:36:06.000Z</time>
      </trkpt>
      <trkpt lat="42.98064" lon="0.56195">
        <ele>734</ele>
        <time>2019-06-30T06:36:08.000Z</time>
      </trkpt>
      <trkpt lat="42.98062" lon="0.56196">
        <ele>734</ele>
        <time>2019-06-30T06:36:10.000Z</time>
      </trkpt>
      <trkpt lat="42.98061" lon="0.56197">
        <ele>735</ele>
        <time>2019-06-30T06:36:12.000Z</time>
      </trkpt>
      <trkpt lat="42.9806" lon="0.56198">
        <ele>735</ele>
        <time>2019-06-30T06:36:14.000Z</time>
      </trkpt>
      <trkpt lat="42.98058" lon="0.562">
        <ele>735</ele>
        <time>2019-06-30T06:36:16.000Z</time>
      </trkpt>
      <trkpt lat="42.98056" lon="0.562">
        <ele>736</ele>
        <time>2019-06-30T06:36:18.000Z</time>
      </trkpt>
      <trkpt lat="42.98056" lon="0.56201">
        <ele>736</ele>
        <time>2019-06-30T06:36:20.000Z</time>
      </trkpt>
      <trkpt lat="42.98054" lon="0.56202">
        <ele>736</ele>
        <time>2019-06-30T06:36:22.000Z</time>
      </trkpt>
      <trkpt lat="42.98052" lon="0.56203">
        <ele>737</ele>
        <time>2019-06-30T06:36:24.000Z</time>
      </trkpt>
      <trkpt lat="42.98051" lon="0.56204">
        <ele>737</ele>
        <time>2019-06-30T06:36:26.000Z</time>
      </trkpt>
      <trkpt lat="42.98049" lon="0.56204">
        <ele>737</ele>
        <time>2019-06-30T06:36:28.000Z</time>
      </trkpt>
      <trkpt lat="42.98047" lon="0.56206">
        <ele>738</ele>
        <time>2019-06-30T06:36:30.000Z</time>
      </trkpt>
      <trkpt lat="42.98046" lon="0.56207">
        <ele>738</ele>
        <time>2019-06-30T06:36:32.000Z</time>
      </trkpt>
      <trkpt lat="42.98045" lon="0.56208">
        <ele>738</ele>
        <time>2019-06-30T06:36:34.000Z</time>
      </trkpt>
      <trkpt lat="42.98043" lon="0.56209">
        <ele>739</ele>
        <time>2019-06-30T06:36:36.000Z</time>
      </trkpt>
      <trkpt lat="42.98041" lon="0.5621">
        <ele>739</ele>
        <time>2019-06-30T06:36:38.000Z</time>
      </trkpt>
      <trkpt lat="42.9804" lon="0.56211">
        <ele>739</ele>
        <time>2019-06-30T06:36:40.000Z</time>
      </trkpt>
      <trkpt lat="42.98039" lon="0.56212">
        <ele>739</ele>
        <time>2019-06-30T06:36:42.000Z</time>
      </trkpt>
      <trkpt lat="42.98038" lon="0.56214">
        <ele>739</ele>
        <time>2019-06-30T06:36:44.000Z</time>
      </trkpt>
      <trkpt lat="42.98037" lon="0.56216">
        <ele>739</ele>
        <time>2019-06-30T06:36:46.000Z</time>
      </trkpt>
      <trkpt lat="42.98036" lon="0.56217">
        <ele>739</ele>
        <time>2019-06-30T06:36:48.000Z</time>
      </trkpt>
      <trkpt lat="42.98035" lon="0.56218">
        <ele>740</ele>
        <time>2019-06-30T06:36:50.000Z</time>
      </trkpt>
      <trkpt lat="42.98033" lon="0.56219">
        <ele>740</ele>
        <time>2019-06-30T06:36:52.000Z</time>
      </trkpt>
      <trkpt lat="42.98033" lon="0.56219">
        <ele>740</ele>
        <time>2019-06-30T06:36:54.000Z</time>
      </trkpt>
      <trkpt lat="42.98031" lon="0.5622">
        <ele>741</ele>
        <time>2019-06-30T06:36:56.000Z</time>
      </trkpt>
      <trkpt lat="42.98031" lon="0.56221">
        <ele>741</ele>
        <time>2019-06-30T06:36:58.000Z</time>
      </trkpt>
      <trkpt lat="42.9803" lon="0.56221">
        <ele>741</ele>
        <time>2019-06-30T06:37:00.000Z</time>
      </trkpt>
      <trkpt lat="42.98029" lon="0.56221">
        <ele>741</ele>
        <time>2019-06-30T06:37:02.000Z</time>
      </trkpt>
      <trkpt lat="42.98029" lon="0.56221">
        <ele>742</ele>
        <time>2019-06-30T06:37:04.000Z</time>
      </trkpt>
      <trkpt lat="42.98028" lon="0.56221">
        <ele>742</ele>
        <time>2019-06-30T06:37:06.000Z</time>
      </trkpt>
      <trkpt lat="42.98028" lon="0.56221">
        <ele>742</ele>
        <time>2019-06-30T06:37:08.000Z</time>
      </trkpt>
      <trkpt lat="42.98027" lon="0.56221">
        <ele>742</ele>
        <time>2019-06-30T06:37:10.000Z</time>
      </trkpt>
      <trkpt lat="42.98027" lon="0.5622">
        <ele>742</ele>
        <time>2019-06-30T06:37:12.000Z</time>
      </trkpt>
      <trkpt lat="42.98028" lon="0.56219">
        <ele>742</ele>
        <time>2019-06-30T06:37:14.000Z</time>
      </trkpt>
      <trkpt lat="42.98028" lon="0.56219">
        <ele>742</ele>
        <time>2019-06-30T06:37:16.000Z</time>
      </trkpt>
      <trkpt lat="42.98028" lon="0.56218">
        <ele>742</ele>
        <time>2019-06-30T06:37:18.000Z</time>
      </trkpt>
      <trkpt lat="42.98028" lon="0.56216">
        <ele>743</ele>
        <time>2019-06-30T06:37:20.000Z</time>
      </trkpt>
      <trkpt lat="42.98028" lon="0.56216">
        <ele>743</ele>
        <time>2019-06-30T06:37:22.000Z</time>
      </trkpt>
      <trkpt lat="42.98028" lon="0.56214">
        <ele>743</ele>
        <time>2019-06-30T06:37:24.000Z</time>
      </trkpt>
      <trkpt lat="42.98028" lon="0.56212">
        <ele>744</ele>
        <time>2019-06-30T06:37:26.000Z</time>
      </trkpt>
      <trkpt lat="42.98028" lon="0.5621">
        <ele>744</ele>
        <time>2019-06-30T06:37:28.000Z</time>
      </trkpt>
      <trkpt lat="42.98029" lon="0.56208">
        <ele>744</ele>
        <time>2019-06-30T06:37:30.000Z</time>
      </trkpt>
      <trkpt lat="42.98028" lon="0.56206">
        <ele>745</ele>
        <time>2019-06-30T06:37:32.000Z</time>
      </trkpt>
      <trkpt lat="42.98027" lon="0.56204">
        <ele>746</ele>
        <time>2019-06-30T06:37:34.000Z</time>
      </trkpt>
      <trkpt lat="42.98027" lon="0.56202">
        <ele>746</ele>
        <time>2019-06-30T06:37:36.000Z</time>
      </trkpt>
      <trkpt lat="42.98028" lon="0.562">
        <ele>747</ele>
        <time>2019-06-30T06:37:38.000Z</time>
      </trkpt>
      <trkpt lat="42.98028" lon="0.56198">
        <ele>747</ele>
        <time>2019-06-30T06:37:40.000Z</time>
      </trkpt>
      <trkpt lat="42.98028" lon="0.56196">
        <ele>748</ele>
        <time>2019-06-30T06:37:42.000Z</time>
      </trkpt>
      <trkpt lat="42.98029" lon="0.56194">
        <ele>748</ele>
        <time>2019-06-30T06:37:44.000Z</time>
      </trkpt>
      <trkpt lat="42.98028" lon="0.56192">
        <ele>748</ele>
        <time>2019-06-30T06:37:46.000Z</time>
      </trkpt>
      <trkpt lat="42.98027" lon="0.5619">
        <ele>749</ele>
        <time>2019-06-30T06:37:48.000Z</time>
      </trkpt>
      <trkpt lat="42.98027" lon="0.56188">
        <ele>750</ele>
        <time>2019-06-30T06:37:50.000Z</time>
      </trkpt>
      <trkpt lat="42.98027" lon="0.56186">
        <ele>751</ele>
        <time>2019-06-30T06:37:52.000Z</time>
      </trkpt>
      <trkpt lat="42.98027" lon="0.56185">
        <ele>750</ele>
        <time>2019-06-30T06:37:54.000Z</time>
      </trkpt>
      <trkpt lat="42.98028" lon="0.56183">
        <ele>751</ele>
        <time>2019-06-30T06:37:56.000Z</time>
      </trkpt>
      <trkpt lat="42.98028" lon="0.56182">
        <ele>751</ele>
        <time>2019-06-30T06:37:58.000Z</time>
      </trkpt>
      <trkpt lat="42.98028" lon="0.56181">
        <ele>751</ele>
        <time>2019-06-30T06:38:00.000Z</time>
      </trkpt>
      <trkpt lat="42.98029" lon="0.5618">
        <ele>751</ele>
        <time>2019-06-30T06:38:02.000Z</time>
      </trkpt>
      <trkpt lat="42.98029" lon="0.56178">
        <ele>752</ele>
        <time>2019-06-30T06:38:04.000Z</time>
      </trkpt>
      <trkpt lat="42.9803" lon="0.56176">
        <ele>751</ele>
        <time>2019-06-30T06:38:06.000Z</time>
      </trkpt>
      <trkpt lat="42.9803" lon="0.56175">
        <ele>752</ele>
        <time>2019-06-30T06:38:08.000Z</time>
      </trkpt>
      <trkpt lat="42.98031" lon="0.56173">
        <ele>752</ele>
        <time>2019-06-30T06:38:10.000Z</time>
      </trkpt>
      <trkpt lat="42.98031" lon="0.56171">
        <ele>752</ele>
        <time>2019-06-30T06:38:12.000Z</time>
      </trkpt>
      <trkpt lat="42.98032" lon="0.5617">
        <ele>752</ele>
        <time>2019-06-30T06:38:14.000Z</time>
      </trkpt>
      <trkpt lat="42.98032" lon="0.56169">
        <ele>753</ele>
        <time>2019-06-30T06:38:16.000Z</time>
      </trkpt>
      <trkpt lat="42.98033" lon="0.56167">
        <ele>753</ele>
        <time>2019-06-30T06:38:18.000Z</time>
      </trkpt>
      <trkpt lat="42.98033" lon="0.56165">
        <ele>753</ele>
        <time>2019-06-30T06:38:20.000Z</time>
      </trkpt>
      <trkpt lat="42.98033" lon="0.56163">
        <ele>754</ele>
        <time>2019-06-30T06:38:22.000Z</time>
      </trkpt>
      <trkpt lat="42.98033" lon="0.56162">
        <ele>754</ele>
        <time>2019-06-30T06:38:24.000Z</time>
      </trkpt>
      <trkpt lat="42.98033" lon="0.5616">
        <ele>754</ele>
        <time>2019-06-30T06:38:26.000Z</time>
      </trkpt>
      <trkpt lat="42.98033" lon="0.56158">
        <ele>755</ele>
        <time>2019-06-30T06:38:28.000Z</time>
      </trkpt>
      <trkpt lat="42.98033" lon="0.56157">
        <ele>755</ele>
        <time>2019-06-30T06:38:30.000Z</time>
      </trkpt>
      <trkpt lat="42.98033" lon="0.56155">
        <ele>755</ele>
        <time>2019-06-30T06:38:32.000Z</time>
      </trkpt>
      <trkpt lat="42.98032" lon="0.56154">
        <ele>756</ele>
        <time>2019-06-30T06:38:34.000Z</time>
      </trkpt>
      <trkpt lat="42.98032" lon="0.56153">
        <ele>756</ele>
        <time>2019-06-30T06:38:36.000Z</time>
      </trkpt>
      <trkpt lat="42.98031" lon="0.56151">
        <ele>757</ele>
        <time>2019-06-30T06:38:38.000Z</time>
      </trkpt>
      <trkpt lat="42.98031" lon="0.5615">
        <ele>757</ele>
        <time>2019-06-30T06:38:40.000Z</time>
      </trkpt>
      <trkpt lat="42.98029" lon="0.56148">
        <ele>758</ele>
        <time>2019-06-30T06:38:42.000Z</time>
      </trkpt>
      <trkpt lat="42.98028" lon="0.56147">
        <ele>759</ele>
        <time>2019-06-30T06:38:44.000Z</time>
      </trkpt>
      <trkpt lat="42.98028" lon="0.56145">
        <ele>759</ele>
        <time>2019-06-30T06:38:46.000Z</time>
      </trkpt>
      <trkpt lat="42.98026" lon="0.56143">
        <ele>760</ele>
        <time>2019-06-30T06:38:48.000Z</time>
      </trkpt>
      <trkpt lat="42.98026" lon="0.56141">
        <ele>761</ele>
        <time>2019-06-30T06:38:50.000Z</time>
      </trkpt>
      <trkpt lat="42.98026" lon="0.5614">
        <ele>761</ele>
        <time>2019-06-30T06:38:52.000Z</time>
      </trkpt>
      <trkpt lat="42.98026" lon="0.56138">
        <ele>761</ele>
        <time>2019-06-30T06:38:54.000Z</time>
      </trkpt>
      <trkpt lat="42.98026" lon="0.56136">
        <ele>762</ele>
        <time>2019-06-30T06:38:56.000Z</time>
      </trkpt>
      <trkpt lat="42.98027" lon="0.56135">
        <ele>762</ele>
        <time>2019-06-30T06:38:58.000Z</time>
      </trkpt>
      <trkpt lat="42.98027" lon="0.56133">
        <ele>762</ele>
        <time>2019-06-30T06:39:00.000Z</time>
      </trkpt>
      <trkpt lat="42.98026" lon="0.56132">
        <ele>762</ele>
        <time>2019-06-30T06:39:02.000Z</time>
      </trkpt>
      <trkpt lat="42.98026" lon="0.56131">
        <ele>763</ele>
        <time>2019-06-30T06:39:04.000Z</time>
      </trkpt>
      <trkpt lat="42.98027" lon="0.56131">
        <ele>762</ele>
        <time>2019-06-30T06:39:06.000Z</time>
      </trkpt>
      <trkpt lat="42.98028" lon="0.5613">
        <ele>762</ele>
        <time>2019-06-30T06:39:08.000Z</time>
      </trkpt>
      <trkpt lat="42.98029" lon="0.56129">
        <ele>762</ele>
        <time>2019-06-30T06:39:10.000Z</time>
      </trkpt>
      <trkpt lat="42.98029" lon="0.56129">
        <ele>762</ele>
        <time>2019-06-30T06:39:12.000Z</time>
      </trkpt>
      <trkpt lat="42.98029" lon="0.56127">
        <ele>762</ele>
        <time>2019-06-30T06:39:14.000Z</time>
      </trkpt>
      <trkpt lat="42.98028" lon="0.56126">
        <ele>763</ele>
        <time>2019-06-30T06:39:16.000Z</time>
      </trkpt>
      <trkpt lat="42.98027" lon="0.56124">
        <ele>764</ele>
        <time>2019-06-30T06:39:18.000Z</time>
      </trkpt>
      <trkpt lat="42.98027" lon="0.56123">
        <ele>764</ele>
        <time>2019-06-30T06:39:20.000Z</time>
      </trkpt>
      <trkpt lat="42.98026" lon="0.56121">
        <ele>765</ele>
        <time>2019-06-30T06:39:22.000Z</time>
      </trkpt>
      <trkpt lat="42.98026" lon="0.56119">
        <ele>765</ele>
        <time>2019-06-30T06:39:24.000Z</time>
      </trkpt>
      <trkpt lat="42.98026" lon="0.56118">
        <ele>766</ele>
        <time>2019-06-30T06:39:26.000Z</time>
      </trkpt>
      <trkpt lat="42.98027" lon="0.56116">
        <ele>766</ele>
        <time>2019-06-30T06:39:28.000Z</time>
      </trkpt>
      <trkpt lat="42.98027" lon="0.56115">
        <ele>766</ele>
        <time>2019-06-30T06:39:30.000Z</time>
      </trkpt>
      <trkpt lat="42.98027" lon="0.56113">
        <ele>766</ele>
        <time>2019-06-30T06:39:32.000Z</time>
      </trkpt>
      <trkpt lat="42.98027" lon="0.56111">
        <ele>766</ele>
        <time>2019-06-30T06:39:34.000Z</time>
      </trkpt>
      <trkpt lat="42.98027" lon="0.56109">
        <ele>767</ele>
        <time>2019-06-30T06:39:36.000Z</time>
      </trkpt>
      <trkpt lat="42.98026" lon="0.56107">
        <ele>768</ele>
        <time>2019-06-30T06:39:38.000Z</time>
      </trkpt>
      <trkpt lat="42.98027" lon="0.56106">
        <ele>768</ele>
        <time>2019-06-30T06:39:40.000Z</time>
      </trkpt>
      <trkpt lat="42.98027" lon="0.56105">
        <ele>768</ele>
        <time>2019-06-30T06:39:42.000Z</time>
      </trkpt>
      <trkpt lat="42.98028" lon="0.56104">
        <ele>768</ele>
        <time>2019-06-30T06:39:44.000Z</time>
      </trkpt>
      <trkpt lat="42.98027" lon="0.56103">
        <ele>768</ele>
        <time>2019-06-30T06:39:46.000Z</time>
      </trkpt>
      <trkpt lat="42.98026" lon="0.56102">
        <ele>769</ele>
        <time>2019-06-30T06:39:48.000Z</time>
      </trkpt>
      <trkpt lat="42.98024" lon="0.56102">
        <ele>770</ele>
        <time>2019-06-30T06:39:50.000Z</time>
      </trkpt>
      <trkpt lat="42.98024" lon="0.561">
        <ele>770</ele>
        <time>2019-06-30T06:39:52.000Z</time>
      </trkpt>
      <trkpt lat="42.98024" lon="0.56098">
        <ele>771</ele>
        <time>2019-06-30T06:39:54.000Z</time>
      </trkpt>
      <trkpt lat="42.98026" lon="0.56097">
        <ele>770</ele>
        <time>2019-06-30T06:39:56.000Z</time>
      </trkpt>
      <trkpt lat="42.98025" lon="0.56096">
        <ele>771</ele>
        <time>2019-06-30T06:39:58.000Z</time>
      </trkpt>
      <trkpt lat="42.98026" lon="0.56095">
        <ele>770</ele>
        <time>2019-06-30T06:40:00.000Z</time>
      </trkpt>
      <trkpt lat="42.98027" lon="0.56095">
        <ele>770</ele>
        <time>2019-06-30T06:40:02.000Z</time>
      </trkpt>
      <trkpt lat="42.98027" lon="0.56094">
        <ele>770</ele>
        <time>2019-06-30T06:40:04.000Z</time>
      </trkpt>
      <trkpt lat="42.98027" lon="0.56092">
        <ele>771</ele>
        <time>2019-06-30T06:40:06.000Z</time>
      </trkpt>
      <trkpt lat="42.98026" lon="0.56091">
        <ele>771</ele>
        <time>2019-06-30T06:40:08.000Z</time>
      </trkpt>
      <trkpt lat="42.98026" lon="0.56089">
        <ele>772</ele>
        <time>2019-06-30T06:40:10.000Z</time>
      </trkpt>
      <trkpt lat="42.98024" lon="0.56087">
        <ele>773</ele>
        <time>2019-06-30T06:40:12.000Z</time>
      </trkpt>
      <trkpt lat="42.98022" lon="0.56084">
        <ele>774</ele>
        <time>2019-06-30T06:40:14.000Z</time>
      </trkpt>
      <trkpt lat="42.98022" lon="0.56082">
        <ele>775</ele>
        <time>2019-06-30T06:40:16.000Z</time>
      </trkpt>
      <trkpt lat="42.98021" lon="0.5608">
        <ele>776</ele>
        <time>2019-06-30T06:40:18.000Z</time>
      </trkpt>
      <trkpt lat="42.98022" lon="0.56078">
        <ele>776</ele>
        <time>2019-06-30T06:40:20.000Z</time>
      </trkpt>
      <trkpt lat="42.98022" lon="0.56077">
        <ele>776</ele>
        <time>2019-06-30T06:40:22.000Z</time>
      </trkpt>
      <trkpt lat="42.98021" lon="0.56076">
        <ele>777</ele>
        <time>2019-06-30T06:40:24.000Z</time>
      </trkpt>
      <trkpt lat="42.98021" lon="0.56075">
        <ele>777</ele>
        <time>2019-06-30T06:40:26.000Z</time>
      </trkpt>
      <trkpt lat="42.98021" lon="0.56073">
        <ele>778</ele>
        <time>2019-06-30T06:40:28.000Z</time>
      </trkpt>
      <trkpt lat="42.9802" lon="0.56072">
        <ele>778</ele>
        <time>2019-06-30T06:40:30.000Z</time>
      </trkpt>
      <trkpt lat="42.9802" lon="0.56071">
        <ele>778</ele>
        <time>2019-06-30T06:40:32.000Z</time>
      </trkpt>
      <trkpt lat="42.9802" lon="0.56071">
        <ele>778</ele>
        <time>2019-06-30T06:40:34.000Z</time>
      </trkpt>
      <trkpt lat="42.9802" lon="0.56069">
        <ele>779</ele>
        <time>2019-06-30T06:40:36.000Z</time>
      </trkpt>
      <trkpt lat="42.98019" lon="0.56068">
        <ele>779</ele>
        <time>2019-06-30T06:40:38.000Z</time>
      </trkpt>
      <trkpt lat="42.98018" lon="0.56066">
        <ele>780</ele>
        <time>2019-06-30T06:40:40.000Z</time>
      </trkpt>
      <trkpt lat="42.98018" lon="0.56065">
        <ele>781</ele>
        <time>2019-06-30T06:40:42.000Z</time>
      </trkpt>
      <trkpt lat="42.98017" lon="0.56062">
        <ele>782</ele>
        <time>2019-06-30T06:40:44.000Z</time>
      </trkpt>
      <trkpt lat="42.98016" lon="0.5606">
        <ele>782</ele>
        <time>2019-06-30T06:40:46.000Z</time>
      </trkpt>
      <trkpt lat="42.98016" lon="0.56059">
        <ele>783</ele>
        <time>2019-06-30T06:40:48.000Z</time>
      </trkpt>
      <trkpt lat="42.98017" lon="0.56058">
        <ele>783</ele>
        <time>2019-06-30T06:40:50.000Z</time>
      </trkpt>
      <trkpt lat="42.98017" lon="0.56057">
        <ele>783</ele>
        <time>2019-06-30T06:40:52.000Z</time>
      </trkpt>
      <trkpt lat="42.98016" lon="0.56055">
        <ele>784</ele>
        <time>2019-06-30T06:40:54.000Z</time>
      </trkpt>
      <trkpt lat="42.98015" lon="0.56053">
        <ele>785</ele>
        <time>2019-06-30T06:40:56.000Z</time>
      </trkpt>
      <trkpt lat="42.98015" lon="0.56052">
        <ele>785</ele>
        <time>2019-06-30T06:40:58.000Z</time>
      </trkpt>
      <trkpt lat="42.98015" lon="0.5605">
        <ele>786</ele>
        <time>2019-06-30T06:41:00.000Z</time>
      </trkpt>
      <trkpt lat="42.98016" lon="0.56048">
        <ele>786</ele>
        <time>2019-06-30T06:41:02.000Z</time>
      </trkpt>
      <trkpt lat="42.98015" lon="0.56046">
        <ele>786</ele>
        <time>2019-06-30T06:41:04.000Z</time>
      </trkpt>
      <trkpt lat="42.98016" lon="0.56044">
        <ele>787</ele>
        <time>2019-06-30T06:41:06.000Z</time>
      </trkpt>
      <trkpt lat="42.98016" lon="0.56042">
        <ele>787</ele>
        <time>2019-06-30T06:41:08.000Z</time>
      </trkpt>
      <trkpt lat="42.98015" lon="0.5604">
        <ele>788</ele>
        <time>2019-06-30T06:41:10.000Z</time>
      </trkpt>
      <trkpt lat="42.98016" lon="0.56038">
        <ele>788</ele>
        <time>2019-06-30T06:41:12.000Z</time>
      </trkpt>
      <trkpt lat="42.98016" lon="0.56037">
        <ele>788</ele>
        <time>2019-06-30T06:41:14.000Z</time>
      </trkpt>
      <trkpt lat="42.98017" lon="0.56036">
        <ele>788</ele>
        <time>2019-06-30T06:41:16.000Z</time>
      </trkpt>
      <trkpt lat="42.98017" lon="0.56035">
        <ele>788</ele>
        <time>2019-06-30T06:41:18.000Z</time>
      </trkpt>
      <trkpt lat="42.98018" lon="0.56034">
        <ele>788</ele>
        <time>2019-06-30T06:41:20.000Z</time>
      </trkpt>
      <trkpt lat="42.98018" lon="0.56031">
        <ele>789</ele>
        <time>2019-06-30T06:41:22.000Z</time>
      </trkpt>
      <trkpt lat="42.98018" lon="0.56029">
        <ele>790</ele>
        <time>2019-06-30T06:41:24.000Z</time>
      </trkpt>
      <trkpt lat="42.9802" lon="0.56027">
        <ele>789</ele>
        <time>2019-06-30T06:41:26.000Z</time>
      </trkpt>
      <trkpt lat="42.98021" lon="0.56026">
        <ele>789</ele>
        <time>2019-06-30T06:41:28.000Z</time>
      </trkpt>
      <trkpt lat="42.98022" lon="0.56025">
        <ele>789</ele>
        <time>2019-06-30T06:41:30.000Z</time>
      </trkpt>
      <trkpt lat="42.98025" lon="0.56024">
        <ele>788</ele>
        <time>2019-06-30T06:41:32.000Z</time>
      </trkpt>
      <trkpt lat="42.98025" lon="0.56021">
        <ele>789</ele>
        <time>2019-06-30T06:41:34.000Z</time>
      </trkpt>
      <trkpt lat="42.98025" lon="0.56018">
        <ele>789</ele>
        <time>2019-06-30T06:41:36.000Z</time>
      </trkpt>
      <trkpt lat="42.98024" lon="0.56016">
        <ele>791</ele>
        <time>2019-06-30T06:41:38.000Z</time>
      </trkpt>
      <trkpt lat="42.98024" lon="0.56012">
        <ele>792</ele>
        <time>2019-06-30T06:41:40.000Z</time>
      </trkpt>
      <trkpt lat="42.98024" lon="0.56009">
        <ele>792</ele>
        <time>2019-06-30T06:41:42.000Z</time>
      </trkpt>
      <trkpt lat="42.98027" lon="0.56008">
        <ele>791</ele>
        <time>2019-06-30T06:41:44.000Z</time>
      </trkpt>
      <trkpt lat="42.98029" lon="0.56007">
        <ele>791</ele>
        <time>2019-06-30T06:41:46.000Z</time>
      </trkpt>
      <trkpt lat="42.9803" lon="0.56005">
        <ele>791</ele>
        <time>2019-06-30T06:41:48.000Z</time>
      </trkpt>
      <trkpt lat="42.9803" lon="0.56003">
        <ele>791</ele>
        <time>2019-06-30T06:41:50.000Z</time>
      </trkpt>
      <trkpt lat="42.9803" lon="0.56001">
        <ele>792</ele>
        <time>2019-06-30T06:41:52.000Z</time>
      </trkpt>
      <trkpt lat="42.9803" lon="0.55999">
        <ele>792</ele>
        <time>2019-06-30T06:41:54.000Z</time>
      </trkpt>
      <trkpt lat="42.98029" lon="0.55996">
        <ele>794</ele>
        <time>2019-06-30T06:41:56.000Z</time>
      </trkpt>
      <trkpt lat="42.9803" lon="0.55994">
        <ele>794</ele>
        <time>2019-06-30T06:41:58.000Z</time>
      </trkpt>
      <trkpt lat="42.98029" lon="0.55991">
        <ele>795</ele>
        <time>2019-06-30T06:42:00.000Z</time>
      </trkpt>
      <trkpt lat="42.98028" lon="0.55989">
        <ele>796</ele>
        <time>2019-06-30T06:42:02.000Z</time>
      </trkpt>
      <trkpt lat="42.98029" lon="0.55987">
        <ele>796</ele>
        <time>2019-06-30T06:42:04.000Z</time>
      </trkpt>
      <trkpt lat="42.98028" lon="0.55984">
        <ele>797</ele>
        <time>2019-06-30T06:42:06.000Z</time>
      </trkpt>
      <trkpt lat="42.98029" lon="0.55982">
        <ele>797</ele>
        <time>2019-06-30T06:42:08.000Z</time>
      </trkpt>
      <trkpt lat="42.98029" lon="0.5598">
        <ele>797</ele>
        <time>2019-06-30T06:42:10.000Z</time>
      </trkpt>
      <trkpt lat="42.98031" lon="0.55979">
        <ele>797</ele>
        <time>2019-06-30T06:42:12.000Z</time>
      </trkpt>
      <trkpt lat="42.98032" lon="0.55977">
        <ele>797</ele>
        <time>2019-06-30T06:42:14.000Z</time>
      </trkpt>
      <trkpt lat="42.98033" lon="0.55975">
        <ele>797</ele>
        <time>2019-06-30T06:42:16.000Z</time>
      </trkpt>
      <trkpt lat="42.98034" lon="0.55974">
        <ele>797</ele>
        <time>2019-06-30T06:42:18.000Z</time>
      </trkpt>
      <trkpt lat="42.98037" lon="0.55973">
        <ele>796</ele>
        <time>2019-06-30T06:42:20.000Z</time>
      </trkpt>
      <trkpt lat="42.98039" lon="0.55971">
        <ele>795</ele>
        <time>2019-06-30T06:42:22.000Z</time>
      </trkpt>
      <trkpt lat="42.98041" lon="0.5597">
        <ele>795</ele>
        <time>2019-06-30T06:42:24.000Z</time>
      </trkpt>
      <trkpt lat="42.98044" lon="0.55967">
        <ele>794</ele>
        <time>2019-06-30T06:42:26.000Z</time>
      </trkpt>
      <trkpt lat="42.98046" lon="0.55964">
        <ele>794</ele>
        <time>2019-06-30T06:42:28.000Z</time>
      </trkpt>
      <trkpt lat="42.98049" lon="0.55961">
        <ele>793</ele>
        <time>2019-06-30T06:42:30.000Z</time>
      </trkpt>
      <trkpt lat="42.98051" lon="0.55958">
        <ele>794</ele>
        <time>2019-06-30T06:42:32.000Z</time>
      </trkpt>
      <trkpt lat="42.98052" lon="0.55956">
        <ele>794</ele>
        <time>2019-06-30T06:42:34.000Z</time>
      </trkpt>
      <trkpt lat="42.98054" lon="0.55953">
        <ele>794</ele>
        <time>2019-06-30T06:42:36.000Z</time>
      </trkpt>
      <trkpt lat="42.98056" lon="0.5595">
        <ele>793</ele>
        <time>2019-06-30T06:42:38.000Z</time>
      </trkpt>
      <trkpt lat="42.98058" lon="0.55948">
        <ele>793</ele>
        <time>2019-06-30T06:42:40.000Z</time>
      </trkpt>
      <trkpt lat="42.9806" lon="0.55945">
        <ele>793</ele>
        <time>2019-06-30T06:42:42.000Z</time>
      </trkpt>
      <trkpt lat="42.98062" lon="0.55942">
        <ele>793</ele>
        <time>2019-06-30T06:42:44.000Z</time>
      </trkpt>
      <trkpt lat="42.98063" lon="0.5594">
        <ele>793</ele>
        <time>2019-06-30T06:42:46.000Z</time>
      </trkpt>
      <trkpt lat="42.98064" lon="0.55938">
        <ele>793</ele>
        <time>2019-06-30T06:42:48.000Z</time>
      </trkpt>
      <trkpt lat="42.98065" lon="0.55936">
        <ele>793</ele>
        <time>2019-06-30T06:42:50.000Z</time>
      </trkpt>
      <trkpt lat="42.98066" lon="0.55933">
        <ele>794</ele>
        <time>2019-06-30T06:42:52.000Z</time>
      </trkpt>
      <trkpt lat="42.98065" lon="0.55931">
        <ele>794</ele>
        <time>2019-06-30T06:42:54.000Z</time>
      </trkpt>
      <trkpt lat="42.98065" lon="0.55929">
        <ele>795</ele>
        <time>2019-06-30T06:42:56.000Z</time>
      </trkpt>
      <trkpt lat="42.98065" lon="0.55927">
        <ele>795</ele>
        <time>2019-06-30T06:42:58.000Z</time>
      </trkpt>
      <trkpt lat="42.98066" lon="0.55924">
        <ele>796</ele>
        <time>2019-06-30T06:43:00.000Z</time>
      </trkpt>
      <trkpt lat="42.98066" lon="0.55923">
        <ele>796</ele>
        <time>2019-06-30T06:43:02.000Z</time>
      </trkpt>
      <trkpt lat="42.98067" lon="0.5592">
        <ele>796</ele>
        <time>2019-06-30T06:43:04.000Z</time>
      </trkpt>
      <trkpt lat="42.98069" lon="0.55918">
        <ele>796</ele>
        <time>2019-06-30T06:43:06.000Z</time>
      </trkpt>
      <trkpt lat="42.9807" lon="0.55916">
        <ele>795</ele>
        <time>2019-06-30T06:43:08.000Z</time>
      </trkpt>
      <trkpt lat="42.98072" lon="0.55913">
        <ele>796</ele>
        <time>2019-06-30T06:43:10.000Z</time>
      </trkpt>
      <trkpt lat="42.98072" lon="0.55911">
        <ele>796</ele>
        <time>2019-06-30T06:43:12.000Z</time>
      </trkpt>
      <trkpt lat="42.98073" lon="0.55907">
        <ele>796</ele>
        <time>2019-06-30T06:43:14.000Z</time>
      </trkpt>
      <trkpt lat="42.98074" lon="0.55904">
        <ele>796</ele>
        <time>2019-06-30T06:43:16.000Z</time>
      </trkpt>
      <trkpt lat="42.98075" lon="0.55902">
        <ele>797</ele>
        <time>2019-06-30T06:43:18.000Z</time>
      </trkpt>
      <trkpt lat="42.98075" lon="0.559">
        <ele>797</ele>
        <time>2019-06-30T06:43:20.000Z</time>
      </trkpt>
      <trkpt lat="42.98076" lon="0.55899">
        <ele>797</ele>
        <time>2019-06-30T06:43:22.000Z</time>
      </trkpt>
      <trkpt lat="42.98077" lon="0.55898">
        <ele>797</ele>
        <time>2019-06-30T06:43:24.000Z</time>
      </trkpt>
      <trkpt lat="42.98076" lon="0.55895">
        <ele>798</ele>
        <time>2019-06-30T06:43:26.000Z</time>
      </trkpt>
      <trkpt lat="42.98076" lon="0.55893">
        <ele>798</ele>
        <time>2019-06-30T06:43:28.000Z</time>
      </trkpt>
      <trkpt lat="42.98075" lon="0.55891">
        <ele>799</ele>
        <time>2019-06-30T06:43:30.000Z</time>
      </trkpt>
      <trkpt lat="42.98076" lon="0.5589">
        <ele>799</ele>
        <time>2019-06-30T06:43:32.000Z</time>
      </trkpt>
      <trkpt lat="42.98076" lon="0.55888">
        <ele>799</ele>
        <time>2019-06-30T06:43:34.000Z</time>
      </trkpt>
      <trkpt lat="42.98075" lon="0.55886">
        <ele>800</ele>
        <time>2019-06-30T06:43:36.000Z</time>
      </trkpt>
      <trkpt lat="42.98075" lon="0.55885">
        <ele>800</ele>
        <time>2019-06-30T06:43:38.000Z</time>
      </trkpt>
      <trkpt lat="42.98075" lon="0.55883">
        <ele>801</ele>
        <time>2019-06-30T06:43:40.000Z</time>
      </trkpt>
      <trkpt lat="42.98074" lon="0.55882">
        <ele>802</ele>
        <time>2019-06-30T06:43:42.000Z</time>
      </trkpt>
      <trkpt lat="42.98074" lon="0.5588">
        <ele>802</ele>
        <time>2019-06-30T06:43:44.000Z</time>
      </trkpt>
      <trkpt lat="42.98076" lon="0.55879">
        <ele>802</ele>
        <time>2019-06-30T06:43:46.000Z</time>
      </trkpt>
      <trkpt lat="42.98077" lon="0.55876">
        <ele>802</ele>
        <time>2019-06-30T06:43:48.000Z</time>
      </trkpt>
      <trkpt lat="42.98079" lon="0.55875">
        <ele>802</ele>
        <time>2019-06-30T06:43:50.000Z</time>
      </trkpt>
      <trkpt lat="42.9808" lon="0.55874">
        <ele>801</ele>
        <time>2019-06-30T06:43:52.000Z</time>
      </trkpt>
      <trkpt lat="42.98081" lon="0.55873">
        <ele>801</ele>
        <time>2019-06-30T06:43:54.000Z</time>
      </trkpt>
      <trkpt lat="42.98083" lon="0.55873">
        <ele>801</ele>
        <time>2019-06-30T06:43:56.000Z</time>
      </trkpt>
      <trkpt lat="42.98083" lon="0.55871">
        <ele>801</ele>
        <time>2019-06-30T06:43:58.000Z</time>
      </trkpt>
      <trkpt lat="42.98083" lon="0.55869">
        <ele>801</ele>
        <time>2019-06-30T06:44:00.000Z</time>
      </trkpt>
      <trkpt lat="42.98083" lon="0.55867">
        <ele>802</ele>
        <time>2019-06-30T06:44:02.000Z</time>
      </trkpt>
      <trkpt lat="42.98083" lon="0.55866">
        <ele>803</ele>
        <time>2019-06-30T06:44:04.000Z</time>
      </trkpt>
      <trkpt lat="42.98084" lon="0.55863">
        <ele>803</ele>
        <time>2019-06-30T06:44:06.000Z</time>
      </trkpt>
      <trkpt lat="42.98084" lon="0.55862">
        <ele>803</ele>
        <time>2019-06-30T06:44:08.000Z</time>
      </trkpt>
      <trkpt lat="42.98084" lon="0.55859">
        <ele>804</ele>
        <time>2019-06-30T06:44:10.000Z</time>
      </trkpt>
      <trkpt lat="42.98085" lon="0.55857">
        <ele>804</ele>
        <time>2019-06-30T06:44:12.000Z</time>
      </trkpt>
      <trkpt lat="42.98085" lon="0.55856">
        <ele>804</ele>
        <time>2019-06-30T06:44:14.000Z</time>
      </trkpt>
      <trkpt lat="42.98086" lon="0.55855">
        <ele>804</ele>
        <time>2019-06-30T06:44:16.000Z</time>
      </trkpt>
      <trkpt lat="42.98088" lon="0.55854">
        <ele>803</ele>
        <time>2019-06-30T06:44:18.000Z</time>
      </trkpt>
      <trkpt lat="42.98089" lon="0.55852">
        <ele>803</ele>
        <time>2019-06-30T06:44:20.000Z</time>
      </trkpt>
      <trkpt lat="42.9809" lon="0.55851">
        <ele>803</ele>
        <time>2019-06-30T06:44:22.000Z</time>
      </trkpt>
      <trkpt lat="42.98091" lon="0.5585">
        <ele>803</ele>
        <time>2019-06-30T06:44:24.000Z</time>
      </trkpt>
      <trkpt lat="42.98091" lon="0.55848">
        <ele>803</ele>
        <time>2019-06-30T06:44:26.000Z</time>
      </trkpt>
      <trkpt lat="42.98089" lon="0.55845">
        <ele>805</ele>
        <time>2019-06-30T06:44:28.000Z</time>
      </trkpt>
      <trkpt lat="42.9809" lon="0.55844">
        <ele>805</ele>
        <time>2019-06-30T06:44:30.000Z</time>
      </trkpt>
      <trkpt lat="42.98092" lon="0.55842">
        <ele>805</ele>
        <time>2019-06-30T06:44:32.000Z</time>
      </trkpt>
      <trkpt lat="42.98093" lon="0.55841">
        <ele>804</ele>
        <time>2019-06-30T06:44:34.000Z</time>
      </trkpt>
      <trkpt lat="42.98094" lon="0.5584">
        <ele>804</ele>
        <time>2019-06-30T06:44:36.000Z</time>
      </trkpt>
      <trkpt lat="42.98095" lon="0.55838">
        <ele>804</ele>
        <time>2019-06-30T06:44:38.000Z</time>
      </trkpt>
      <trkpt lat="42.98095" lon="0.55836">
        <ele>805</ele>
        <time>2019-06-30T06:44:40.000Z</time>
      </trkpt>
      <trkpt lat="42.98095" lon="0.55833">
        <ele>806</ele>
        <time>2019-06-30T06:44:42.000Z</time>
      </trkpt>
      <trkpt lat="42.98095" lon="0.55831">
        <ele>806</ele>
        <time>2019-06-30T06:44:44.000Z</time>
      </trkpt>
      <trkpt lat="42.98095" lon="0.55829">
        <ele>807</ele>
        <time>2019-06-30T06:44:46.000Z</time>
      </trkpt>
      <trkpt lat="42.98095" lon="0.55827">
        <ele>807</ele>
        <time>2019-06-30T06:44:48.000Z</time>
      </trkpt>
      <trkpt lat="42.98095" lon="0.55824">
        <ele>808</ele>
        <time>2019-06-30T06:44:50.000Z</time>
      </trkpt>
      <trkpt lat="42.98095" lon="0.55822">
        <ele>809</ele>
        <time>2019-06-30T06:44:52.000Z</time>
      </trkpt>
      <trkpt lat="42.98095" lon="0.5582">
        <ele>809</ele>
        <time>2019-06-30T06:44:54.000Z</time>
      </trkpt>
      <trkpt lat="42.98096" lon="0.55818">
        <ele>810</ele>
        <time>2019-06-30T06:44:56.000Z</time>
      </trkpt>
      <trkpt lat="42.98095" lon="0.55815">
        <ele>811</ele>
        <time>2019-06-30T06:44:58.000Z</time>
      </trkpt>
      <trkpt lat="42.98095" lon="0.55813">
        <ele>811</ele>
        <time>2019-06-30T06:45:00.000Z</time>
      </trkpt>
      <trkpt lat="42.98096" lon="0.55813">
        <ele>811</ele>
        <time>2019-06-30T06:45:02.000Z</time>
      </trkpt>
      <trkpt lat="42.98097" lon="0.55811">
        <ele>811</ele>
        <time>2019-06-30T06:45:04.000Z</time>
      </trkpt>
      <trkpt lat="42.98099" lon="0.55809">
        <ele>811</ele>
        <time>2019-06-30T06:45:06.000Z</time>
      </trkpt>
      <trkpt lat="42.981" lon="0.55807">
        <ele>810</ele>
        <time>2019-06-30T06:45:08.000Z</time>
      </trkpt>
      <trkpt lat="42.98102" lon="0.55806">
        <ele>810</ele>
        <time>2019-06-30T06:45:10.000Z</time>
      </trkpt>
      <trkpt lat="42.98104" lon="0.55805">
        <ele>809</ele>
        <time>2019-06-30T06:45:12.000Z</time>
      </trkpt>
      <trkpt lat="42.98106" lon="0.55804">
        <ele>809</ele>
        <time>2019-06-30T06:45:14.000Z</time>
      </trkpt>
      <trkpt lat="42.98107" lon="0.55804">
        <ele>809</ele>
        <time>2019-06-30T06:45:16.000Z</time>
      </trkpt>
      <trkpt lat="42.98107" lon="0.55803">
        <ele>809</ele>
        <time>2019-06-30T06:45:18.000Z</time>
      </trkpt>
      <trkpt lat="42.98106" lon="0.558">
        <ele>810</ele>
        <time>2019-06-30T06:45:20.000Z</time>
      </trkpt>
      <trkpt lat="42.98106" lon="0.55798">
        <ele>810</ele>
        <time>2019-06-30T06:45:22.000Z</time>
      </trkpt>
      <trkpt lat="42.98105" lon="0.55796">
        <ele>811</ele>
        <time>2019-06-30T06:45:24.000Z</time>
      </trkpt>
      <trkpt lat="42.98105" lon="0.55795">
        <ele>812</ele>
        <time>2019-06-30T06:45:26.000Z</time>
      </trkpt>
      <trkpt lat="42.98105" lon="0.55792">
        <ele>813</ele>
        <time>2019-06-30T06:45:28.000Z</time>
      </trkpt>
      <trkpt lat="42.98105" lon="0.5579">
        <ele>813</ele>
        <time>2019-06-30T06:45:30.000Z</time>
      </trkpt>
      <trkpt lat="42.98105" lon="0.55789">
        <ele>814</ele>
        <time>2019-06-30T06:45:32.000Z</time>
      </trkpt>
      <trkpt lat="42.98104" lon="0.55787">
        <ele>814</ele>
        <time>2019-06-30T06:45:34.000Z</time>
      </trkpt>
      <trkpt lat="42.98105" lon="0.55786">
        <ele>815</ele>
        <time>2019-06-30T06:45:36.000Z</time>
      </trkpt>
      <trkpt lat="42.98105" lon="0.55785">
        <ele>814</ele>
        <time>2019-06-30T06:45:38.000Z</time>
      </trkpt>
      <trkpt lat="42.98104" lon="0.55783">
        <ele>816</ele>
        <time>2019-06-30T06:45:40.000Z</time>
      </trkpt>
      <trkpt lat="42.98103" lon="0.55782">
        <ele>817</ele>
        <time>2019-06-30T06:45:42.000Z</time>
      </trkpt>
      <trkpt lat="42.98103" lon="0.55779">
        <ele>817</ele>
        <time>2019-06-30T06:45:44.000Z</time>
      </trkpt>
      <trkpt lat="42.98103" lon="0.55778">
        <ele>818</ele>
        <time>2019-06-30T06:45:46.000Z</time>
      </trkpt>
      <trkpt lat="42.98103" lon="0.55777">
        <ele>818</ele>
        <time>2019-06-30T06:45:48.000Z</time>
      </trkpt>
      <trkpt lat="42.98102" lon="0.55775">
        <ele>819</ele>
        <time>2019-06-30T06:45:50.000Z</time>
      </trkpt>
      <trkpt lat="42.98103" lon="0.55774">
        <ele>819</ele>
        <time>2019-06-30T06:45:52.000Z</time>
      </trkpt>
      <trkpt lat="42.98104" lon="0.55773">
        <ele>819</ele>
        <time>2019-06-30T06:45:54.000Z</time>
      </trkpt>
      <trkpt lat="42.98103" lon="0.55771">
        <ele>820</ele>
        <time>2019-06-30T06:45:56.000Z</time>
      </trkpt>
      <trkpt lat="42.98103" lon="0.55769">
        <ele>820</ele>
        <time>2019-06-30T06:45:58.000Z</time>
      </trkpt>
      <trkpt lat="42.98103" lon="0.55768">
        <ele>821</ele>
        <time>2019-06-30T06:46:00.000Z</time>
      </trkpt>
      <trkpt lat="42.98103" lon="0.55766">
        <ele>821</ele>
        <time>2019-06-30T06:46:02.000Z</time>
      </trkpt>
      <trkpt lat="42.98104" lon="0.55764">
        <ele>822</ele>
        <time>2019-06-30T06:46:04.000Z</time>
      </trkpt>
      <trkpt lat="42.98104" lon="0.55762">
        <ele>822</ele>
        <time>2019-06-30T06:46:06.000Z</time>
      </trkpt>
      <trkpt lat="42.98106" lon="0.55761">
        <ele>822</ele>
        <time>2019-06-30T06:46:08.000Z</time>
      </trkpt>
      <trkpt lat="42.98109" lon="0.55759">
        <ele>821</ele>
        <time>2019-06-30T06:46:10.000Z</time>
      </trkpt>
      <trkpt lat="42.98111" lon="0.55758">
        <ele>820</ele>
        <time>2019-06-30T06:46:12.000Z</time>
      </trkpt>
      <trkpt lat="42.98112" lon="0.55756">
        <ele>820</ele>
        <time>2019-06-30T06:46:14.000Z</time>
      </trkpt>
      <trkpt lat="42.98113" lon="0.55755">
        <ele>820</ele>
        <time>2019-06-30T06:46:16.000Z</time>
      </trkpt>
      <trkpt lat="42.98112" lon="0.55754">
        <ele>821</ele>
        <time>2019-06-30T06:46:18.000Z</time>
      </trkpt>
      <trkpt lat="42.98113" lon="0.55754">
        <ele>821</ele>
        <time>2019-06-30T06:46:20.000Z</time>
      </trkpt>
      <trkpt lat="42.98114" lon="0.55752">
        <ele>821</ele>
        <time>2019-06-30T06:46:22.000Z</time>
      </trkpt>
      <trkpt lat="42.98115" lon="0.55749">
        <ele>821</ele>
        <time>2019-06-30T06:46:24.000Z</time>
      </trkpt>
      <trkpt lat="42.98115" lon="0.55747">
        <ele>822</ele>
        <time>2019-06-30T06:46:26.000Z</time>
      </trkpt>
      <trkpt lat="42.98115" lon="0.55746">
        <ele>822</ele>
        <time>2019-06-30T06:46:28.000Z</time>
      </trkpt>
      <trkpt lat="42.98115" lon="0.55744">
        <ele>823</ele>
        <time>2019-06-30T06:46:30.000Z</time>
      </trkpt>
      <trkpt lat="42.98115" lon="0.55742">
        <ele>823</ele>
        <time>2019-06-30T06:46:32.000Z</time>
      </trkpt>
      <trkpt lat="42.98115" lon="0.55741">
        <ele>823</ele>
        <time>2019-06-30T06:46:34.000Z</time>
      </trkpt>
      <trkpt lat="42.98115" lon="0.5574">
        <ele>824</ele>
        <time>2019-06-30T06:46:36.000Z</time>
      </trkpt>
      <trkpt lat="42.98116" lon="0.55738">
        <ele>824</ele>
        <time>2019-06-30T06:46:38.000Z</time>
      </trkpt>
      <trkpt lat="42.98116" lon="0.55737">
        <ele>824</ele>
        <time>2019-06-30T06:46:40.000Z</time>
      </trkpt>
      <trkpt lat="42.98116" lon="0.55735">
        <ele>825</ele>
        <time>2019-06-30T06:46:42.000Z</time>
      </trkpt>
      <trkpt lat="42.98115" lon="0.55733">
        <ele>825</ele>
        <time>2019-06-30T06:46:44.000Z</time>
      </trkpt>
      <trkpt lat="42.98117" lon="0.55732">
        <ele>825</ele>
        <time>2019-06-30T06:46:46.000Z</time>
      </trkpt>
      <trkpt lat="42.98117" lon="0.5573">
        <ele>826</ele>
        <time>2019-06-30T06:46:48.000Z</time>
      </trkpt>
      <trkpt lat="42.98118" lon="0.55728">
        <ele>826</ele>
        <time>2019-06-30T06:46:50.000Z</time>
      </trkpt>
      <trkpt lat="42.98118" lon="0.55726">
        <ele>826</ele>
        <time>2019-06-30T06:46:52.000Z</time>
      </trkpt>
      <trkpt lat="42.98119" lon="0.55725">
        <ele>826</ele>
        <time>2019-06-30T06:46:54.000Z</time>
      </trkpt>
      <trkpt lat="42.98118" lon="0.55723">
        <ele>827</ele>
        <time>2019-06-30T06:46:56.000Z</time>
      </trkpt>
      <trkpt lat="42.98118" lon="0.55721">
        <ele>828</ele>
        <time>2019-06-30T06:46:58.000Z</time>
      </trkpt>
      <trkpt lat="42.98118" lon="0.5572">
        <ele>828</ele>
        <time>2019-06-30T06:47:00.000Z</time>
      </trkpt>
      <trkpt lat="42.9812" lon="0.55717">
        <ele>828</ele>
        <time>2019-06-30T06:47:02.000Z</time>
      </trkpt>
      <trkpt lat="42.9812" lon="0.55715">
        <ele>828</ele>
        <time>2019-06-30T06:47:04.000Z</time>
      </trkpt>
      <trkpt lat="42.9812" lon="0.55712">
        <ele>829</ele>
        <time>2019-06-30T06:47:06.000Z</time>
      </trkpt>
      <trkpt lat="42.98121" lon="0.5571">
        <ele>829</ele>
        <time>2019-06-30T06:47:08.000Z</time>
      </trkpt>
      <trkpt lat="42.98122" lon="0.55708">
        <ele>829</ele>
        <time>2019-06-30T06:47:10.000Z</time>
      </trkpt>
      <trkpt lat="42.98123" lon="0.55706">
        <ele>829</ele>
        <time>2019-06-30T06:47:12.000Z</time>
      </trkpt>
      <trkpt lat="42.98124" lon="0.55705">
        <ele>829</ele>
        <time>2019-06-30T06:47:14.000Z</time>
      </trkpt>
      <trkpt lat="42.98125" lon="0.55703">
        <ele>828</ele>
        <time>2019-06-30T06:47:16.000Z</time>
      </trkpt>
      <trkpt lat="42.98126" lon="0.55702">
        <ele>828</ele>
        <time>2019-06-30T06:47:18.000Z</time>
      </trkpt>
      <trkpt lat="42.98127" lon="0.55701">
        <ele>828</ele>
        <time>2019-06-30T06:47:20.000Z</time>
      </trkpt>
      <trkpt lat="42.98127" lon="0.55701">
        <ele>828</ele>
        <time>2019-06-30T06:47:22.000Z</time>
      </trkpt>
      <trkpt lat="42.98127" lon="0.55702">
        <ele>828</ele>
        <time>2019-06-30T06:47:24.000Z</time>
      </trkpt>
      <trkpt lat="42.98128" lon="0.55701">
        <ele>828</ele>
        <time>2019-06-30T06:47:26.000Z</time>
      </trkpt>
      <trkpt lat="42.98127" lon="0.557">
        <ele>828</ele>
        <time>2019-06-30T06:47:28.000Z</time>
      </trkpt>
      <trkpt lat="42.98127" lon="0.557">
        <ele>828</ele>
        <time>2019-06-30T06:47:30.000Z</time>
      </trkpt>
      <trkpt lat="42.98127" lon="0.55699">
        <ele>829</ele>
        <time>2019-06-30T06:47:32.000Z</time>
      </trkpt>
      <trkpt lat="42.98126" lon="0.55697">
        <ele>829</ele>
        <time>2019-06-30T06:47:34.000Z</time>
      </trkpt>
      <trkpt lat="42.98125" lon="0.55695">
        <ele>830</ele>
        <time>2019-06-30T06:47:36.000Z</time>
      </trkpt>
      <trkpt lat="42.98126" lon="0.55694">
        <ele>831</ele>
        <time>2019-06-30T06:47:38.000Z</time>
      </trkpt>
      <trkpt lat="42.98125" lon="0.55692">
        <ele>831</ele>
        <time>2019-06-30T06:47:40.000Z</time>
      </trkpt>
      <trkpt lat="42.98125" lon="0.55691">
        <ele>831</ele>
        <time>2019-06-30T06:47:42.000Z</time>
      </trkpt>
      <trkpt lat="42.98125" lon="0.55688">
        <ele>832</ele>
        <time>2019-06-30T06:47:44.000Z</time>
      </trkpt>
      <trkpt lat="42.98126" lon="0.55687">
        <ele>832</ele>
        <time>2019-06-30T06:47:46.000Z</time>
      </trkpt>
      <trkpt lat="42.98126" lon="0.55685">
        <ele>832</ele>
        <time>2019-06-30T06:47:48.000Z</time>
      </trkpt>
      <trkpt lat="42.98126" lon="0.55684">
        <ele>832</ele>
        <time>2019-06-30T06:47:50.000Z</time>
      </trkpt>
      <trkpt lat="42.98126" lon="0.55683">
        <ele>833</ele>
        <time>2019-06-30T06:47:52.000Z</time>
      </trkpt>
      <trkpt lat="42.98127" lon="0.55681">
        <ele>833</ele>
        <time>2019-06-30T06:47:54.000Z</time>
      </trkpt>
      <trkpt lat="42.98127" lon="0.55679">
        <ele>833</ele>
        <time>2019-06-30T06:47:56.000Z</time>
      </trkpt>
      <trkpt lat="42.98127" lon="0.55678">
        <ele>834</ele>
        <time>2019-06-30T06:47:58.000Z</time>
      </trkpt>
      <trkpt lat="42.98126" lon="0.55677">
        <ele>834</ele>
        <time>2019-06-30T06:48:00.000Z</time>
      </trkpt>
      <trkpt lat="42.98125" lon="0.55675">
        <ele>835</ele>
        <time>2019-06-30T06:48:02.000Z</time>
      </trkpt>
      <trkpt lat="42.98125" lon="0.55674">
        <ele>835</ele>
        <time>2019-06-30T06:48:04.000Z</time>
      </trkpt>
      <trkpt lat="42.98126" lon="0.55673">
        <ele>835</ele>
        <time>2019-06-30T06:48:06.000Z</time>
      </trkpt>
      <trkpt lat="42.98126" lon="0.55672">
        <ele>835</ele>
        <time>2019-06-30T06:48:08.000Z</time>
      </trkpt>
      <trkpt lat="42.98126" lon="0.55671">
        <ele>835</ele>
        <time>2019-06-30T06:48:10.000Z</time>
      </trkpt>
      <trkpt lat="42.98127" lon="0.55669">
        <ele>836</ele>
        <time>2019-06-30T06:48:12.000Z</time>
      </trkpt>
      <trkpt lat="42.98128" lon="0.55667">
        <ele>836</ele>
        <time>2019-06-30T06:48:14.000Z</time>
      </trkpt>
      <trkpt lat="42.9813" lon="0.55665">
        <ele>835</ele>
        <time>2019-06-30T06:48:16.000Z</time>
      </trkpt>
      <trkpt lat="42.98132" lon="0.55664">
        <ele>835</ele>
        <time>2019-06-30T06:48:18.000Z</time>
      </trkpt>
      <trkpt lat="42.98133" lon="0.55662">
        <ele>835</ele>
        <time>2019-06-30T06:48:20.000Z</time>
      </trkpt>
      <trkpt lat="42.98134" lon="0.55661">
        <ele>835</ele>
        <time>2019-06-30T06:48:22.000Z</time>
      </trkpt>
      <trkpt lat="42.98134" lon="0.5566">
        <ele>835</ele>
        <time>2019-06-30T06:48:24.000Z</time>
      </trkpt>
      <trkpt lat="42.98135" lon="0.55659">
        <ele>835</ele>
        <time>2019-06-30T06:48:26.000Z</time>
      </trkpt>
      <trkpt lat="42.98137" lon="0.55658">
        <ele>835</ele>
        <time>2019-06-30T06:48:28.000Z</time>
      </trkpt>
      <trkpt lat="42.98137" lon="0.55656">
        <ele>835</ele>
        <time>2019-06-30T06:48:30.000Z</time>
      </trkpt>
      <trkpt lat="42.98137" lon="0.55655">
        <ele>836</ele>
        <time>2019-06-30T06:48:32.000Z</time>
      </trkpt>
      <trkpt lat="42.98138" lon="0.55654">
        <ele>836</ele>
        <time>2019-06-30T06:48:34.000Z</time>
      </trkpt>
      <trkpt lat="42.98138" lon="0.55653">
        <ele>836</ele>
        <time>2019-06-30T06:48:36.000Z</time>
      </trkpt>
      <trkpt lat="42.98138" lon="0.55652">
        <ele>836</ele>
        <time>2019-06-30T06:48:38.000Z</time>
      </trkpt>
      <trkpt lat="42.98138" lon="0.55652">
        <ele>836</ele>
        <time>2019-06-30T06:48:40.000Z</time>
      </trkpt>
      <trkpt lat="42.98138" lon="0.5565">
        <ele>837</ele>
        <time>2019-06-30T06:48:42.000Z</time>
      </trkpt>
      <trkpt lat="42.98136" lon="0.55648">
        <ele>838</ele>
        <time>2019-06-30T06:48:44.000Z</time>
      </trkpt>
      <trkpt lat="42.98139" lon="0.55646">
        <ele>838</ele>
        <time>2019-06-30T06:48:46.000Z</time>
      </trkpt>
      <trkpt lat="42.9814" lon="0.55644">
        <ele>838</ele>
        <time>2019-06-30T06:48:48.000Z</time>
      </trkpt>
      <trkpt lat="42.98141" lon="0.55641">
        <ele>838</ele>
        <time>2019-06-30T06:48:50.000Z</time>
      </trkpt>
      <trkpt lat="42.98141" lon="0.55639">
        <ele>839</ele>
        <time>2019-06-30T06:48:52.000Z</time>
      </trkpt>
      <trkpt lat="42.98142" lon="0.55637">
        <ele>839</ele>
        <time>2019-06-30T06:48:54.000Z</time>
      </trkpt>
      <trkpt lat="42.98143" lon="0.55635">
        <ele>839</ele>
        <time>2019-06-30T06:48:56.000Z</time>
      </trkpt>
      <trkpt lat="42.98144" lon="0.55633">
        <ele>840</ele>
        <time>2019-06-30T06:48:58.000Z</time>
      </trkpt>
      <trkpt lat="42.98145" lon="0.55632">
        <ele>840</ele>
        <time>2019-06-30T06:49:00.000Z</time>
      </trkpt>
      <trkpt lat="42.98146" lon="0.55631">
        <ele>839</ele>
        <time>2019-06-30T06:49:02.000Z</time>
      </trkpt>
      <trkpt lat="42.98147" lon="0.55631">
        <ele>839</ele>
        <time>2019-06-30T06:49:04.000Z</time>
      </trkpt>
      <trkpt lat="42.98148" lon="0.55629">
        <ele>839</ele>
        <time>2019-06-30T06:49:06.000Z</time>
      </trkpt>
      <trkpt lat="42.98149" lon="0.55628">
        <ele>839</ele>
        <time>2019-06-30T06:49:08.000Z</time>
      </trkpt>
      <trkpt lat="42.9815" lon="0.55627">
        <ele>839</ele>
        <time>2019-06-30T06:49:10.000Z</time>
      </trkpt>
      <trkpt lat="42.98152" lon="0.55626">
        <ele>839</ele>
        <time>2019-06-30T06:49:12.000Z</time>
      </trkpt>
      <trkpt lat="42.98152" lon="0.55625">
        <ele>839</ele>
        <time>2019-06-30T06:49:14.000Z</time>
      </trkpt>
      <trkpt lat="42.98151" lon="0.55623">
        <ele>840</ele>
        <time>2019-06-30T06:49:16.000Z</time>
      </trkpt>
      <trkpt lat="42.98151" lon="0.55621">
        <ele>841</ele>
        <time>2019-06-30T06:49:18.000Z</time>
      </trkpt>
      <trkpt lat="42.9815" lon="0.5562">
        <ele>841</ele>
        <time>2019-06-30T06:49:20.000Z</time>
      </trkpt>
      <trkpt lat="42.9815" lon="0.55618">
        <ele>842</ele>
        <time>2019-06-30T06:49:22.000Z</time>
      </trkpt>
      <trkpt lat="42.9815" lon="0.55615">
        <ele>843</ele>
        <time>2019-06-30T06:49:24.000Z</time>
      </trkpt>
      <trkpt lat="42.9815" lon="0.55613">
        <ele>843</ele>
        <time>2019-06-30T06:49:26.000Z</time>
      </trkpt>
      <trkpt lat="42.98151" lon="0.55611">
        <ele>844</ele>
        <time>2019-06-30T06:49:28.000Z</time>
      </trkpt>
      <trkpt lat="42.98152" lon="0.5561">
        <ele>844</ele>
        <time>2019-06-30T06:49:30.000Z</time>
      </trkpt>
      <trkpt lat="42.98151" lon="0.55608">
        <ele>845</ele>
        <time>2019-06-30T06:49:32.000Z</time>
      </trkpt>
      <trkpt lat="42.98151" lon="0.55606">
        <ele>845</ele>
        <time>2019-06-30T06:49:34.000Z</time>
      </trkpt>
      <trkpt lat="42.98151" lon="0.55605">
        <ele>845</ele>
        <time>2019-06-30T06:49:36.000Z</time>
      </trkpt>
      <trkpt lat="42.98151" lon="0.55603">
        <ele>846</ele>
        <time>2019-06-30T06:49:38.000Z</time>
      </trkpt>
      <trkpt lat="42.98151" lon="0.55602">
        <ele>846</ele>
        <time>2019-06-30T06:49:40.000Z</time>
      </trkpt>
      <trkpt lat="42.9815" lon="0.55601">
        <ele>847</ele>
        <time>2019-06-30T06:49:42.000Z</time>
      </trkpt>
      <trkpt lat="42.9815" lon="0.55601">
        <ele>847</ele>
        <time>2019-06-30T06:49:44.000Z</time>
      </trkpt>
      <trkpt lat="42.9815" lon="0.556">
        <ele>847</ele>
        <time>2019-06-30T06:49:46.000Z</time>
      </trkpt>
      <trkpt lat="42.98151" lon="0.55599">
        <ele>847</ele>
        <time>2019-06-30T06:49:48.000Z</time>
      </trkpt>
      <trkpt lat="42.98151" lon="0.55598">
        <ele>847</ele>
        <time>2019-06-30T06:49:50.000Z</time>
      </trkpt>
      <trkpt lat="42.98151" lon="0.55596">
        <ele>847</ele>
        <time>2019-06-30T06:49:52.000Z</time>
      </trkpt>
      <trkpt lat="42.98152" lon="0.55595">
        <ele>847</ele>
        <time>2019-06-30T06:49:54.000Z</time>
      </trkpt>
      <trkpt lat="42.98153" lon="0.55594">
        <ele>847</ele>
        <time>2019-06-30T06:49:56.000Z</time>
      </trkpt>
      <trkpt lat="42.98154" lon="0.55593">
        <ele>847</ele>
        <time>2019-06-30T06:49:58.000Z</time>
      </trkpt>
      <trkpt lat="42.98155" lon="0.55591">
        <ele>847</ele>
        <time>2019-06-30T06:50:00.000Z</time>
      </trkpt>
      <trkpt lat="42.98157" lon="0.55589">
        <ele>847</ele>
        <time>2019-06-30T06:50:02.000Z</time>
      </trkpt>
      <trkpt lat="42.98158" lon="0.55588">
        <ele>847</ele>
        <time>2019-06-30T06:50:04.000Z</time>
      </trkpt>
      <trkpt lat="42.9816" lon="0.55587">
        <ele>846</ele>
        <time>2019-06-30T06:50:06.000Z</time>
      </trkpt>
      <trkpt lat="42.98161" lon="0.55585">
        <ele>846</ele>
        <time>2019-06-30T06:50:08.000Z</time>
      </trkpt>
      <trkpt lat="42.98161" lon="0.55584">
        <ele>846</ele>
        <time>2019-06-30T06:50:10.000Z</time>
      </trkpt>
      <trkpt lat="42.98162" lon="0.55583">
        <ele>846</ele>
        <time>2019-06-30T06:50:12.000Z</time>
      </trkpt>
      <trkpt lat="42.98163" lon="0.55582">
        <ele>846</ele>
        <time>2019-06-30T06:50:14.000Z</time>
      </trkpt>
      <trkpt lat="42.98163" lon="0.5558">
        <ele>847</ele>
        <time>2019-06-30T06:50:16.000Z</time>
      </trkpt>
      <trkpt lat="42.98163" lon="0.55578">
        <ele>847</ele>
        <time>2019-06-30T06:50:18.000Z</time>
      </trkpt>
      <trkpt lat="42.98164" lon="0.55577">
        <ele>847</ele>
        <time>2019-06-30T06:50:20.000Z</time>
      </trkpt>
      <trkpt lat="42.98163" lon="0.55576">
        <ele>848</ele>
        <time>2019-06-30T06:50:22.000Z</time>
      </trkpt>
      <trkpt lat="42.98164" lon="0.55574">
        <ele>848</ele>
        <time>2019-06-30T06:50:24.000Z</time>
      </trkpt>
      <trkpt lat="42.98164" lon="0.55573">
        <ele>848</ele>
        <time>2019-06-30T06:50:26.000Z</time>
      </trkpt>
      <trkpt lat="42.98164" lon="0.55571">
        <ele>848</ele>
        <time>2019-06-30T06:50:28.000Z</time>
      </trkpt>
      <trkpt lat="42.98165" lon="0.5557">
        <ele>848</ele>
        <time>2019-06-30T06:50:30.000Z</time>
      </trkpt>
      <trkpt lat="42.98167" lon="0.55569">
        <ele>848</ele>
        <time>2019-06-30T06:50:32.000Z</time>
      </trkpt>
      <trkpt lat="42.98167" lon="0.55568">
        <ele>848</ele>
        <time>2019-06-30T06:50:34.000Z</time>
      </trkpt>
      <trkpt lat="42.98167" lon="0.55567">
        <ele>848</ele>
        <time>2019-06-30T06:50:36.000Z</time>
      </trkpt>
      <trkpt lat="42.98168" lon="0.55566">
        <ele>848</ele>
        <time>2019-06-30T06:50:38.000Z</time>
      </trkpt>
      <trkpt lat="42.98167" lon="0.55563">
        <ele>849</ele>
        <time>2019-06-30T06:50:40.000Z</time>
      </trkpt>
      <trkpt lat="42.98168" lon="0.55562">
        <ele>849</ele>
        <time>2019-06-30T06:50:42.000Z</time>
      </trkpt>
      <trkpt lat="42.98168" lon="0.55561">
        <ele>849</ele>
        <time>2019-06-30T06:50:44.000Z</time>
      </trkpt>
      <trkpt lat="42.98169" lon="0.5556">
        <ele>849</ele>
        <time>2019-06-30T06:50:46.000Z</time>
      </trkpt>
      <trkpt lat="42.98171" lon="0.55558">
        <ele>849</ele>
        <time>2019-06-30T06:50:48.000Z</time>
      </trkpt>
      <trkpt lat="42.98171" lon="0.55556">
        <ele>849</ele>
        <time>2019-06-30T06:50:50.000Z</time>
      </trkpt>
      <trkpt lat="42.98171" lon="0.55556">
        <ele>850</ele>
        <time>2019-06-30T06:50:52.000Z</time>
      </trkpt>
      <trkpt lat="42.9817" lon="0.55554">
        <ele>850</ele>
        <time>2019-06-30T06:50:54.000Z</time>
      </trkpt>
      <trkpt lat="42.9817" lon="0.55552">
        <ele>851</ele>
        <time>2019-06-30T06:50:56.000Z</time>
      </trkpt>
      <trkpt lat="42.98171" lon="0.55551">
        <ele>851</ele>
        <time>2019-06-30T06:50:58.000Z</time>
      </trkpt>
      <trkpt lat="42.98171" lon="0.55549">
        <ele>851</ele>
        <time>2019-06-30T06:51:00.000Z</time>
      </trkpt>
      <trkpt lat="42.98171" lon="0.55548">
        <ele>851</ele>
        <time>2019-06-30T06:51:02.000Z</time>
      </trkpt>
      <trkpt lat="42.98171" lon="0.55547">
        <ele>852</ele>
        <time>2019-06-30T06:51:04.000Z</time>
      </trkpt>
      <trkpt lat="42.98172" lon="0.55545">
        <ele>852</ele>
        <time>2019-06-30T06:51:06.000Z</time>
      </trkpt>
      <trkpt lat="42.98173" lon="0.55544">
        <ele>852</ele>
        <time>2019-06-30T06:51:08.000Z</time>
      </trkpt>
      <trkpt lat="42.98172" lon="0.55543">
        <ele>853</ele>
        <time>2019-06-30T06:51:10.000Z</time>
      </trkpt>
      <trkpt lat="42.98172" lon="0.55542">
        <ele>853</ele>
        <time>2019-06-30T06:51:12.000Z</time>
      </trkpt>
      <trkpt lat="42.98172" lon="0.55541">
        <ele>853</ele>
        <time>2019-06-30T06:51:14.000Z</time>
      </trkpt>
      <trkpt lat="42.98174" lon="0.5554">
        <ele>853</ele>
        <time>2019-06-30T06:51:16.000Z</time>
      </trkpt>
      <trkpt lat="42.98176" lon="0.55539">
        <ele>853</ele>
        <time>2019-06-30T06:51:18.000Z</time>
      </trkpt>
      <trkpt lat="42.98176" lon="0.55537">
        <ele>853</ele>
        <time>2019-06-30T06:51:20.000Z</time>
      </trkpt>
      <trkpt lat="42.98177" lon="0.55535">
        <ele>853</ele>
        <time>2019-06-30T06:51:22.000Z</time>
      </trkpt>
      <trkpt lat="42.98177" lon="0.55533">
        <ele>854</ele>
        <time>2019-06-30T06:51:24.000Z</time>
      </trkpt>
      <trkpt lat="42.98176" lon="0.55531">
        <ele>855</ele>
        <time>2019-06-30T06:51:26.000Z</time>
      </trkpt>
      <trkpt lat="42.98175" lon="0.5553">
        <ele>855</ele>
        <time>2019-06-30T06:51:28.000Z</time>
      </trkpt>
      <trkpt lat="42.98175" lon="0.55529">
        <ele>856</ele>
        <time>2019-06-30T06:51:30.000Z</time>
      </trkpt>
      <trkpt lat="42.98176" lon="0.55527">
        <ele>856</ele>
        <time>2019-06-30T06:51:32.000Z</time>
      </trkpt>
      <trkpt lat="42.98176" lon="0.55525">
        <ele>856</ele>
        <time>2019-06-30T06:51:34.000Z</time>
      </trkpt>
      <trkpt lat="42.98175" lon="0.55524">
        <ele>857</ele>
        <time>2019-06-30T06:51:36.000Z</time>
      </trkpt>
      <trkpt lat="42.98175" lon="0.55523">
        <ele>858</ele>
        <time>2019-06-30T06:51:38.000Z</time>
      </trkpt>
      <trkpt lat="42.98175" lon="0.55521">
        <ele>858</ele>
        <time>2019-06-30T06:51:40.000Z</time>
      </trkpt>
      <trkpt lat="42.98176" lon="0.5552">
        <ele>858</ele>
        <time>2019-06-30T06:51:42.000Z</time>
      </trkpt>
      <trkpt lat="42.98178" lon="0.55519">
        <ele>858</ele>
        <time>2019-06-30T06:51:44.000Z</time>
      </trkpt>
      <trkpt lat="42.98179" lon="0.55518">
        <ele>858</ele>
        <time>2019-06-30T06:51:46.000Z</time>
      </trkpt>
      <trkpt lat="42.98179" lon="0.55517">
        <ele>858</ele>
        <time>2019-06-30T06:51:48.000Z</time>
      </trkpt>
      <trkpt lat="42.98179" lon="0.55515">
        <ele>859</ele>
        <time>2019-06-30T06:51:50.000Z</time>
      </trkpt>
      <trkpt lat="42.98179" lon="0.55513">
        <ele>859</ele>
        <time>2019-06-30T06:51:52.000Z</time>
      </trkpt>
      <trkpt lat="42.9818" lon="0.55512">
        <ele>859</ele>
        <time>2019-06-30T06:51:54.000Z</time>
      </trkpt>
      <trkpt lat="42.9818" lon="0.55511">
        <ele>860</ele>
        <time>2019-06-30T06:51:56.000Z</time>
      </trkpt>
      <trkpt lat="42.9818" lon="0.55509">
        <ele>860</ele>
        <time>2019-06-30T06:51:58.000Z</time>
      </trkpt>
      <trkpt lat="42.9818" lon="0.55507">
        <ele>861</ele>
        <time>2019-06-30T06:52:00.000Z</time>
      </trkpt>
      <trkpt lat="42.98181" lon="0.55505">
        <ele>861</ele>
        <time>2019-06-30T06:52:02.000Z</time>
      </trkpt>
      <trkpt lat="42.98181" lon="0.55504">
        <ele>862</ele>
        <time>2019-06-30T06:52:04.000Z</time>
      </trkpt>
      <trkpt lat="42.98181" lon="0.55502">
        <ele>862</ele>
        <time>2019-06-30T06:52:06.000Z</time>
      </trkpt>
      <trkpt lat="42.98182" lon="0.55501">
        <ele>862</ele>
        <time>2019-06-30T06:52:08.000Z</time>
      </trkpt>
      <trkpt lat="42.98183" lon="0.55501">
        <ele>862</ele>
        <time>2019-06-30T06:52:10.000Z</time>
      </trkpt>
      <trkpt lat="42.98184" lon="0.55498">
        <ele>862</ele>
        <time>2019-06-30T06:52:12.000Z</time>
      </trkpt>
      <trkpt lat="42.98186" lon="0.55496">
        <ele>862</ele>
        <time>2019-06-30T06:52:14.000Z</time>
      </trkpt>
      <trkpt lat="42.98187" lon="0.55495">
        <ele>862</ele>
        <time>2019-06-30T06:52:16.000Z</time>
      </trkpt>
      <trkpt lat="42.98187" lon="0.55493">
        <ele>863</ele>
        <time>2019-06-30T06:52:18.000Z</time>
      </trkpt>
      <trkpt lat="42.98187" lon="0.55491">
        <ele>863</ele>
        <time>2019-06-30T06:52:20.000Z</time>
      </trkpt>
      <trkpt lat="42.98187" lon="0.55489">
        <ele>864</ele>
        <time>2019-06-30T06:52:22.000Z</time>
      </trkpt>
      <trkpt lat="42.98186" lon="0.55487">
        <ele>865</ele>
        <time>2019-06-30T06:52:24.000Z</time>
      </trkpt>
      <trkpt lat="42.98187" lon="0.55484">
        <ele>865</ele>
        <time>2019-06-30T06:52:26.000Z</time>
      </trkpt>
      <trkpt lat="42.98187" lon="0.55483">
        <ele>866</ele>
        <time>2019-06-30T06:52:28.000Z</time>
      </trkpt>
      <trkpt lat="42.98188" lon="0.55481">
        <ele>866</ele>
        <time>2019-06-30T06:52:30.000Z</time>
      </trkpt>
      <trkpt lat="42.98189" lon="0.5548">
        <ele>866</ele>
        <time>2019-06-30T06:52:32.000Z</time>
      </trkpt>
      <trkpt lat="42.98189" lon="0.55478">
        <ele>866</ele>
        <time>2019-06-30T06:52:34.000Z</time>
      </trkpt>
      <trkpt lat="42.9819" lon="0.55477">
        <ele>866</ele>
        <time>2019-06-30T06:52:36.000Z</time>
      </trkpt>
      <trkpt lat="42.98191" lon="0.55476">
        <ele>866</ele>
        <time>2019-06-30T06:52:38.000Z</time>
      </trkpt>
      <trkpt lat="42.98192" lon="0.55475">
        <ele>866</ele>
        <time>2019-06-30T06:52:40.000Z</time>
      </trkpt>
      <trkpt lat="42.98193" lon="0.55473">
        <ele>866</ele>
        <time>2019-06-30T06:52:42.000Z</time>
      </trkpt>
      <trkpt lat="42.98194" lon="0.55472">
        <ele>866</ele>
        <time>2019-06-30T06:52:44.000Z</time>
      </trkpt>
      <trkpt lat="42.98194" lon="0.55471">
        <ele>867</ele>
        <time>2019-06-30T06:52:46.000Z</time>
      </trkpt>
      <trkpt lat="42.98192" lon="0.55469">
        <ele>868</ele>
        <time>2019-06-30T06:52:48.000Z</time>
      </trkpt>
      <trkpt lat="42.98192" lon="0.55468">
        <ele>868</ele>
        <time>2019-06-30T06:52:50.000Z</time>
      </trkpt>
      <trkpt lat="42.98192" lon="0.55467">
        <ele>869</ele>
        <time>2019-06-30T06:52:52.000Z</time>
      </trkpt>
      <trkpt lat="42.98193" lon="0.55465">
        <ele>869</ele>
        <time>2019-06-30T06:52:54.000Z</time>
      </trkpt>
      <trkpt lat="42.98193" lon="0.55463">
        <ele>869</ele>
        <time>2019-06-30T06:52:56.000Z</time>
      </trkpt>
      <trkpt lat="42.98195" lon="0.55463">
        <ele>869</ele>
        <time>2019-06-30T06:52:58.000Z</time>
      </trkpt>
      <trkpt lat="42.98196" lon="0.55462">
        <ele>869</ele>
        <time>2019-06-30T06:53:00.000Z</time>
      </trkpt>
      <trkpt lat="42.98196" lon="0.55461">
        <ele>869</ele>
        <time>2019-06-30T06:53:02.000Z</time>
      </trkpt>
      <trkpt lat="42.98198" lon="0.55461">
        <ele>868</ele>
        <time>2019-06-30T06:53:04.000Z</time>
      </trkpt>
      <trkpt lat="42.98199" lon="0.5546">
        <ele>868</ele>
        <time>2019-06-30T06:53:06.000Z</time>
      </trkpt>
      <trkpt lat="42.98201" lon="0.5546">
        <ele>867</ele>
        <time>2019-06-30T06:53:08.000Z</time>
      </trkpt>
      <trkpt lat="42.98203" lon="0.5546">
        <ele>866</ele>
        <time>2019-06-30T06:53:10.000Z</time>
      </trkpt>
      <trkpt lat="42.98204" lon="0.5546">
        <ele>866</ele>
        <time>2019-06-30T06:53:12.000Z</time>
      </trkpt>
      <trkpt lat="42.98205" lon="0.55458">
        <ele>866</ele>
        <time>2019-06-30T06:53:14.000Z</time>
      </trkpt>
      <trkpt lat="42.98205" lon="0.55457">
        <ele>866</ele>
        <time>2019-06-30T06:53:16.000Z</time>
      </trkpt>
      <trkpt lat="42.98206" lon="0.55455">
        <ele>867</ele>
        <time>2019-06-30T06:53:18.000Z</time>
      </trkpt>
      <trkpt lat="42.98206" lon="0.55453">
        <ele>867</ele>
        <time>2019-06-30T06:53:20.000Z</time>
      </trkpt>
      <trkpt lat="42.98207" lon="0.55451">
        <ele>867</ele>
        <time>2019-06-30T06:53:22.000Z</time>
      </trkpt>
      <trkpt lat="42.98207" lon="0.55449">
        <ele>868</ele>
        <time>2019-06-30T06:53:24.000Z</time>
      </trkpt>
      <trkpt lat="42.98208" lon="0.55448">
        <ele>868</ele>
        <time>2019-06-30T06:53:26.000Z</time>
      </trkpt>
      <trkpt lat="42.9821" lon="0.55446">
        <ele>868</ele>
        <time>2019-06-30T06:53:28.000Z</time>
      </trkpt>
      <trkpt lat="42.9821" lon="0.55444">
        <ele>869</ele>
        <time>2019-06-30T06:53:30.000Z</time>
      </trkpt>
      <trkpt lat="42.9821" lon="0.55443">
        <ele>869</ele>
        <time>2019-06-30T06:53:32.000Z</time>
      </trkpt>
      <trkpt lat="42.9821" lon="0.55442">
        <ele>869</ele>
        <time>2019-06-30T06:53:34.000Z</time>
      </trkpt>
      <trkpt lat="42.98211" lon="0.5544">
        <ele>869</ele>
        <time>2019-06-30T06:53:36.000Z</time>
      </trkpt>
      <trkpt lat="42.98211" lon="0.55439">
        <ele>870</ele>
        <time>2019-06-30T06:53:38.000Z</time>
      </trkpt>
      <trkpt lat="42.98211" lon="0.55438">
        <ele>870</ele>
        <time>2019-06-30T06:53:40.000Z</time>
      </trkpt>
      <trkpt lat="42.98211" lon="0.55437">
        <ele>871</ele>
        <time>2019-06-30T06:53:42.000Z</time>
      </trkpt>
      <trkpt lat="42.98212" lon="0.55436">
        <ele>871</ele>
        <time>2019-06-30T06:53:44.000Z</time>
      </trkpt>
      <trkpt lat="42.98211" lon="0.55435">
        <ele>871</ele>
        <time>2019-06-30T06:53:46.000Z</time>
      </trkpt>
      <trkpt lat="42.98212" lon="0.55435">
        <ele>871</ele>
        <time>2019-06-30T06:53:48.000Z</time>
      </trkpt>
      <trkpt lat="42.98213" lon="0.55435">
        <ele>871</ele>
        <time>2019-06-30T06:53:50.000Z</time>
      </trkpt>
      <trkpt lat="42.98214" lon="0.55434">
        <ele>871</ele>
        <time>2019-06-30T06:53:52.000Z</time>
      </trkpt>
      <trkpt lat="42.98215" lon="0.55432">
        <ele>871</ele>
        <time>2019-06-30T06:53:54.000Z</time>
      </trkpt>
      <trkpt lat="42.98216" lon="0.5543">
        <ele>871</ele>
        <time>2019-06-30T06:53:56.000Z</time>
      </trkpt>
      <trkpt lat="42.98217" lon="0.55429">
        <ele>871</ele>
        <time>2019-06-30T06:53:58.000Z</time>
      </trkpt>
      <trkpt lat="42.98218" lon="0.55427">
        <ele>871</ele>
        <time>2019-06-30T06:54:00.000Z</time>
      </trkpt>
      <trkpt lat="42.9822" lon="0.55425">
        <ele>871</ele>
        <time>2019-06-30T06:54:02.000Z</time>
      </trkpt>
      <trkpt lat="42.98221" lon="0.55423">
        <ele>872</ele>
        <time>2019-06-30T06:54:04.000Z</time>
      </trkpt>
      <trkpt lat="42.98222" lon="0.55423">
        <ele>872</ele>
        <time>2019-06-30T06:54:06.000Z</time>
      </trkpt>
      <trkpt lat="42.98221" lon="0.55422">
        <ele>872</ele>
        <time>2019-06-30T06:54:08.000Z</time>
      </trkpt>
      <trkpt lat="42.98221" lon="0.55422">
        <ele>873</ele>
        <time>2019-06-30T06:54:10.000Z</time>
      </trkpt>
      <trkpt lat="42.98221" lon="0.55421">
        <ele>873</ele>
        <time>2019-06-30T06:54:12.000Z</time>
      </trkpt>
      <trkpt lat="42.98222" lon="0.5542">
        <ele>873</ele>
        <time>2019-06-30T06:54:14.000Z</time>
      </trkpt>
      <trkpt lat="42.98221" lon="0.55419">
        <ele>874</ele>
        <time>2019-06-30T06:54:16.000Z</time>
      </trkpt>
      <trkpt lat="42.98222" lon="0.55417">
        <ele>874</ele>
        <time>2019-06-30T06:54:18.000Z</time>
      </trkpt>
      <trkpt lat="42.98222" lon="0.55416">
        <ele>875</ele>
        <time>2019-06-30T06:54:20.000Z</time>
      </trkpt>
      <trkpt lat="42.98223" lon="0.55415">
        <ele>875</ele>
        <time>2019-06-30T06:54:22.000Z</time>
      </trkpt>
      <trkpt lat="42.98223" lon="0.55414">
        <ele>876</ele>
        <time>2019-06-30T06:54:24.000Z</time>
      </trkpt>
      <trkpt lat="42.98223" lon="0.55412">
        <ele>876</ele>
        <time>2019-06-30T06:54:26.000Z</time>
      </trkpt>
      <trkpt lat="42.98223" lon="0.55411">
        <ele>877</ele>
        <time>2019-06-30T06:54:28.000Z</time>
      </trkpt>
      <trkpt lat="42.98223" lon="0.5541">
        <ele>877</ele>
        <time>2019-06-30T06:54:30.000Z</time>
      </trkpt>
      <trkpt lat="42.98224" lon="0.5541">
        <ele>877</ele>
        <time>2019-06-30T06:54:32.000Z</time>
      </trkpt>
      <trkpt lat="42.98225" lon="0.55408">
        <ele>877</ele>
        <time>2019-06-30T06:54:34.000Z</time>
      </trkpt>
      <trkpt lat="42.98226" lon="0.55407">
        <ele>878</ele>
        <time>2019-06-30T06:54:36.000Z</time>
      </trkpt>
      <trkpt lat="42.98227" lon="0.55406">
        <ele>878</ele>
        <time>2019-06-30T06:54:38.000Z</time>
      </trkpt>
      <trkpt lat="42.98227" lon="0.55406">
        <ele>878</ele>
        <time>2019-06-30T06:54:40.000Z</time>
      </trkpt>
      <trkpt lat="42.98229" lon="0.55406">
        <ele>878</ele>
        <time>2019-06-30T06:54:42.000Z</time>
      </trkpt>
      <trkpt lat="42.9823" lon="0.55405">
        <ele>878</ele>
        <time>2019-06-30T06:54:44.000Z</time>
      </trkpt>
      <trkpt lat="42.9823" lon="0.55405">
        <ele>878</ele>
        <time>2019-06-30T06:54:46.000Z</time>
      </trkpt>
      <trkpt lat="42.9823" lon="0.55404">
        <ele>878</ele>
        <time>2019-06-30T06:54:48.000Z</time>
      </trkpt>
      <trkpt lat="42.98231" lon="0.55402">
        <ele>879</ele>
        <time>2019-06-30T06:54:50.000Z</time>
      </trkpt>
      <trkpt lat="42.98232" lon="0.55402">
        <ele>878</ele>
        <time>2019-06-30T06:54:52.000Z</time>
      </trkpt>
      <trkpt lat="42.98233" lon="0.55401">
        <ele>878</ele>
        <time>2019-06-30T06:54:54.000Z</time>
      </trkpt>
      <trkpt lat="42.98233" lon="0.55401">
        <ele>879</ele>
        <time>2019-06-30T06:54:56.000Z</time>
      </trkpt>
      <trkpt lat="42.98233" lon="0.554">
        <ele>879</ele>
        <time>2019-06-30T06:54:58.000Z</time>
      </trkpt>
      <trkpt lat="42.98234" lon="0.554">
        <ele>879</ele>
        <time>2019-06-30T06:55:00.000Z</time>
      </trkpt>
      <trkpt lat="42.98234" lon="0.55398">
        <ele>880</ele>
        <time>2019-06-30T06:55:02.000Z</time>
      </trkpt>
      <trkpt lat="42.98234" lon="0.55397">
        <ele>880</ele>
        <time>2019-06-30T06:55:04.000Z</time>
      </trkpt>
      <trkpt lat="42.98235" lon="0.55396">
        <ele>880</ele>
        <time>2019-06-30T06:55:06.000Z</time>
      </trkpt>
      <trkpt lat="42.98236" lon="0.55395">
        <ele>881</ele>
        <time>2019-06-30T06:55:08.000Z</time>
      </trkpt>
      <trkpt lat="42.98236" lon="0.55393">
        <ele>881</ele>
        <time>2019-06-30T06:55:10.000Z</time>
      </trkpt>
      <trkpt lat="42.98237" lon="0.55393">
        <ele>881</ele>
        <time>2019-06-30T06:55:12.000Z</time>
      </trkpt>
      <trkpt lat="42.98238" lon="0.55392">
        <ele>881</ele>
        <time>2019-06-30T06:55:14.000Z</time>
      </trkpt>
      <trkpt lat="42.98239" lon="0.55391">
        <ele>881</ele>
        <time>2019-06-30T06:55:16.000Z</time>
      </trkpt>
      <trkpt lat="42.9824" lon="0.5539">
        <ele>881</ele>
        <time>2019-06-30T06:55:18.000Z</time>
      </trkpt>
      <trkpt lat="42.98242" lon="0.5539">
        <ele>881</ele>
        <time>2019-06-30T06:55:20.000Z</time>
      </trkpt>
      <trkpt lat="42.98244" lon="0.55391">
        <ele>880</ele>
        <time>2019-06-30T06:55:22.000Z</time>
      </trkpt>
      <trkpt lat="42.98245" lon="0.55391">
        <ele>880</ele>
        <time>2019-06-30T06:55:24.000Z</time>
      </trkpt>
      <trkpt lat="42.98247" lon="0.5539">
        <ele>880</ele>
        <time>2019-06-30T06:55:26.000Z</time>
      </trkpt>
      <trkpt lat="42.98247" lon="0.55389">
        <ele>880</ele>
        <time>2019-06-30T06:55:28.000Z</time>
      </trkpt>
      <trkpt lat="42.98247" lon="0.55388">
        <ele>880</ele>
        <time>2019-06-30T06:55:30.000Z</time>
      </trkpt>
      <trkpt lat="42.98247" lon="0.55385">
        <ele>882</ele>
        <time>2019-06-30T06:55:32.000Z</time>
      </trkpt>
      <trkpt lat="42.98247" lon="0.55383">
        <ele>882</ele>
        <time>2019-06-30T06:55:34.000Z</time>
      </trkpt>
      <trkpt lat="42.98247" lon="0.55381">
        <ele>883</ele>
        <time>2019-06-30T06:55:36.000Z</time>
      </trkpt>
      <trkpt lat="42.98247" lon="0.5538">
        <ele>884</ele>
        <time>2019-06-30T06:55:38.000Z</time>
      </trkpt>
      <trkpt lat="42.98247" lon="0.55379">
        <ele>884</ele>
        <time>2019-06-30T06:55:40.000Z</time>
      </trkpt>
      <trkpt lat="42.98246" lon="0.55378">
        <ele>885</ele>
        <time>2019-06-30T06:55:42.000Z</time>
      </trkpt>
      <trkpt lat="42.98245" lon="0.55377">
        <ele>886</ele>
        <time>2019-06-30T06:55:44.000Z</time>
      </trkpt>
      <trkpt lat="42.98245" lon="0.55376">
        <ele>886</ele>
        <time>2019-06-30T06:55:46.000Z</time>
      </trkpt>
      <trkpt lat="42.98246" lon="0.55375">
        <ele>886</ele>
        <time>2019-06-30T06:55:48.000Z</time>
      </trkpt>
      <trkpt lat="42.98246" lon="0.55375">
        <ele>886</ele>
        <time>2019-06-30T06:55:50.000Z</time>
      </trkpt>
      <trkpt lat="42.98244" lon="0.55375">
        <ele>887</ele>
        <time>2019-06-30T06:55:52.000Z</time>
      </trkpt>
      <trkpt lat="42.98244" lon="0.55374">
        <ele>887</ele>
        <time>2019-06-30T06:55:54.000Z</time>
      </trkpt>
      <trkpt lat="42.98244" lon="0.55374">
        <ele>887</ele>
        <time>2019-06-30T06:55:56.000Z</time>
      </trkpt>
      <trkpt lat="42.98244" lon="0.55373">
        <ele>888</ele>
        <time>2019-06-30T06:55:58.000Z</time>
      </trkpt>
      <trkpt lat="42.98244" lon="0.55373">
        <ele>888</ele>
        <time>2019-06-30T06:56:00.000Z</time>
      </trkpt>
      <trkpt lat="42.98243" lon="0.55373">
        <ele>888</ele>
        <time>2019-06-30T06:56:02.000Z</time>
      </trkpt>
      <trkpt lat="42.98243" lon="0.55374">
        <ele>887</ele>
        <time>2019-06-30T06:56:04.000Z</time>
      </trkpt>
      <trkpt lat="42.98242" lon="0.55374">
        <ele>887</ele>
        <time>2019-06-30T06:56:06.000Z</time>
      </trkpt>
      <trkpt lat="42.98243" lon="0.55374">
        <ele>887</ele>
        <time>2019-06-30T06:56:08.000Z</time>
      </trkpt>
      <trkpt lat="42.98247" lon="0.55373">
        <ele>887</ele>
        <time>2019-06-30T06:56:10.000Z</time>
      </trkpt>
      <trkpt lat="42.9825" lon="0.55372">
        <ele>886</ele>
        <time>2019-06-30T06:56:12.000Z</time>
      </trkpt>
      <trkpt lat="42.9825" lon="0.55372">
        <ele>886</ele>
        <time>2019-06-30T06:56:14.000Z</time>
      </trkpt>
      <trkpt lat="42.98251" lon="0.55371">
        <ele>886</ele>
        <time>2019-06-30T06:56:16.000Z</time>
      </trkpt>
      <trkpt lat="42.98253" lon="0.55372">
        <ele>886</ele>
        <time>2019-06-30T06:56:18.000Z</time>
      </trkpt>
      <trkpt lat="42.98253" lon="0.55373">
        <ele>885</ele>
        <time>2019-06-30T06:56:20.000Z</time>
      </trkpt>
      <trkpt lat="42.98253" lon="0.55373">
        <ele>885</ele>
        <time>2019-06-30T06:56:22.000Z</time>
      </trkpt>
      <trkpt lat="42.98252" lon="0.55374">
        <ele>885</ele>
        <time>2019-06-30T06:56:24.000Z</time>
      </trkpt>
      <trkpt lat="42.98247" lon="0.55377">
        <ele>885</ele>
        <time>2019-06-30T06:56:26.000Z</time>
      </trkpt>
      <trkpt lat="42.98244" lon="0.55377">
        <ele>886</ele>
        <time>2019-06-30T06:56:28.000Z</time>
      </trkpt>
      <trkpt lat="42.98243" lon="0.55377">
        <ele>886</ele>
        <time>2019-06-30T06:56:30.000Z</time>
      </trkpt>
      <trkpt lat="42.98243" lon="0.55377">
        <ele>886</ele>
        <time>2019-06-30T06:56:32.000Z</time>
      </trkpt>
      <trkpt lat="42.98242" lon="0.55375">
        <ele>887</ele>
        <time>2019-06-30T06:56:34.000Z</time>
      </trkpt>
      <trkpt lat="42.98243" lon="0.55375">
        <ele>887</ele>
        <time>2019-06-30T06:56:36.000Z</time>
      </trkpt>
      <trkpt lat="42.98243" lon="0.55376">
        <ele>886</ele>
        <time>2019-06-30T06:56:38.000Z</time>
      </trkpt>
      <trkpt lat="42.98243" lon="0.55377">
        <ele>886</ele>
        <time>2019-06-30T06:56:40.000Z</time>
      </trkpt>
      <trkpt lat="42.98244" lon="0.55377">
        <ele>886</ele>
        <time>2019-06-30T06:56:42.000Z</time>
      </trkpt>
      <trkpt lat="42.98245" lon="0.55377">
        <ele>886</ele>
        <time>2019-06-30T06:56:44.000Z</time>
      </trkpt>
      <trkpt lat="42.98246" lon="0.55378">
        <ele>885</ele>
        <time>2019-06-30T06:56:46.000Z</time>
      </trkpt>
      <trkpt lat="42.98246" lon="0.55379">
        <ele>884</ele>
        <time>2019-06-30T06:56:48.000Z</time>
      </trkpt>
      <trkpt lat="42.98247" lon="0.55379">
        <ele>884</ele>
        <time>2019-06-30T06:56:50.000Z</time>
      </trkpt>
      <trkpt lat="42.98248" lon="0.5538">
        <ele>884</ele>
        <time>2019-06-30T06:56:52.000Z</time>
      </trkpt>
      <trkpt lat="42.98248" lon="0.5538">
        <ele>884</ele>
        <time>2019-06-30T06:56:54.000Z</time>
      </trkpt>
      <trkpt lat="42.98249" lon="0.5538">
        <ele>883</ele>
        <time>2019-06-30T06:56:56.000Z</time>
      </trkpt>
      <trkpt lat="42.98249" lon="0.5538">
        <ele>883</ele>
        <time>2019-06-30T06:56:58.000Z</time>
      </trkpt>
      <trkpt lat="42.98249" lon="0.5538">
        <ele>883</ele>
        <time>2019-06-30T06:57:00.000Z</time>
      </trkpt>
      <trkpt lat="42.98249" lon="0.55379">
        <ele>883</ele>
        <time>2019-06-30T06:57:02.000Z</time>
      </trkpt>
      <trkpt lat="42.98249" lon="0.55379">
        <ele>884</ele>
        <time>2019-06-30T06:57:04.000Z</time>
      </trkpt>
      <trkpt lat="42.98249" lon="0.55378">
        <ele>884</ele>
        <time>2019-06-30T06:57:06.000Z</time>
      </trkpt>
      <trkpt lat="42.9825" lon="0.55378">
        <ele>884</ele>
        <time>2019-06-30T06:57:08.000Z</time>
      </trkpt>
      <trkpt lat="42.98249" lon="0.55378">
        <ele>884</ele>
        <time>2019-06-30T06:57:10.000Z</time>
      </trkpt>
      <trkpt lat="42.98249" lon="0.55378">
        <ele>884</ele>
        <time>2019-06-30T06:57:12.000Z</time>
      </trkpt>
      <trkpt lat="42.9825" lon="0.55378">
        <ele>884</ele>
        <time>2019-06-30T06:57:14.000Z</time>
      </trkpt>
      <trkpt lat="42.9825" lon="0.55378">
        <ele>884</ele>
        <time>2019-06-30T06:57:16.000Z</time>
      </trkpt>
      <trkpt lat="42.98249" lon="0.55379">
        <ele>884</ele>
        <time>2019-06-30T06:57:18.000Z</time>
      </trkpt>
      <trkpt lat="42.98248" lon="0.55379">
        <ele>884</ele>
        <time>2019-06-30T06:57:20.000Z</time>
      </trkpt>
      <trkpt lat="42.98248" lon="0.55379">
        <ele>884</ele>
        <time>2019-06-30T06:57:22.000Z</time>
      </trkpt>
      <trkpt lat="42.98249" lon="0.5538">
        <ele>883</ele>
        <time>2019-06-30T06:57:24.000Z</time>
      </trkpt>
      <trkpt lat="42.98249" lon="0.55381">
        <ele>883</ele>
        <time>2019-06-30T06:57:26.000Z</time>
      </trkpt>
      <trkpt lat="42.9825" lon="0.5538">
        <ele>883</ele>
        <time>2019-06-30T06:57:28.000Z</time>
      </trkpt>
      <trkpt lat="42.9825" lon="0.5538">
        <ele>883</ele>
        <time>2019-06-30T06:57:30.000Z</time>
      </trkpt>
      <trkpt lat="42.9825" lon="0.5538">
        <ele>883</ele>
        <time>2019-06-30T06:57:32.000Z</time>
      </trkpt>
      <trkpt lat="42.9825" lon="0.5538">
        <ele>883</ele>
        <time>2019-06-30T06:57:34.000Z</time>
      </trkpt>
      <trkpt lat="42.9825" lon="0.5538">
        <ele>883</ele>
        <time>2019-06-30T06:57:36.000Z</time>
      </trkpt>
      <trkpt lat="42.9825" lon="0.5538">
        <ele>883</ele>
        <time>2019-06-30T06:57:38.000Z</time>
      </trkpt>
      <trkpt lat="42.9825" lon="0.55381">
        <ele>883</ele>
        <time>2019-06-30T06:57:40.000Z</time>
      </trkpt>
      <trkpt lat="42.98249" lon="0.55382">
        <ele>883</ele>
        <time>2019-06-30T06:57:42.000Z</time>
      </trkpt>
      <trkpt lat="42.9825" lon="0.55381">
        <ele>883</ele>
        <time>2019-06-30T06:57:44.000Z</time>
      </trkpt>
      <trkpt lat="42.9825" lon="0.55381">
        <ele>883</ele>
        <time>2019-06-30T06:57:46.000Z</time>
      </trkpt>
      <trkpt lat="42.9825" lon="0.55382">
        <ele>882</ele>
        <time>2019-06-30T06:57:48.000Z</time>
      </trkpt>
      <trkpt lat="42.9825" lon="0.55383">
        <ele>882</ele>
        <time>2019-06-30T06:57:50.000Z</time>
      </trkpt>
      <trkpt lat="42.9825" lon="0.55383">
        <ele>882</ele>
        <time>2019-06-30T06:57:52.000Z</time>
      </trkpt>
      <trkpt lat="42.9825" lon="0.55383">
        <ele>882</ele>
        <time>2019-06-30T06:57:54.000Z</time>
      </trkpt>
      <trkpt lat="42.9825" lon="0.55383">
        <ele>882</ele>
        <time>2019-06-30T06:57:56.000Z</time>
      </trkpt>
      <trkpt lat="42.9825" lon="0.55383">
        <ele>882</ele>
        <time>2019-06-30T06:57:58.000Z</time>
      </trkpt>
      <trkpt lat="42.9825" lon="0.55384">
        <ele>881</ele>
        <time>2019-06-30T06:58:00.000Z</time>
      </trkpt>
      <trkpt lat="42.98249" lon="0.55384">
        <ele>882</ele>
        <time>2019-06-30T06:58:02.000Z</time>
      </trkpt>
      <trkpt lat="42.98249" lon="0.55384">
        <ele>882</ele>
        <time>2019-06-30T06:58:04.000Z</time>
      </trkpt>
      <trkpt lat="42.98249" lon="0.55384">
        <ele>882</ele>
        <time>2019-06-30T06:58:06.000Z</time>
      </trkpt>
      <trkpt lat="42.98249" lon="0.55384">
        <ele>882</ele>
        <time>2019-06-30T06:58:08.000Z</time>
      </trkpt>
      <trkpt lat="42.98249" lon="0.55384">
        <ele>882</ele>
        <time>2019-06-30T06:58:10.000Z</time>
      </trkpt>
      <trkpt lat="42.98248" lon="0.55384">
        <ele>882</ele>
        <time>2019-06-30T06:58:12.000Z</time>
      </trkpt>
      <trkpt lat="42.98249" lon="0.55382">
        <ele>882</ele>
        <time>2019-06-30T06:58:14.000Z</time>
      </trkpt>
      <trkpt lat="42.98249" lon="0.55382">
        <ele>883</ele>
        <time>2019-06-30T06:58:16.000Z</time>
      </trkpt>
      <trkpt lat="42.98249" lon="0.5538">
        <ele>883</ele>
        <time>2019-06-30T06:58:18.000Z</time>
      </trkpt>
      <trkpt lat="42.98248" lon="0.5538">
        <ele>884</ele>
        <time>2019-06-30T06:58:20.000Z</time>
      </trkpt>
      <trkpt lat="42.98248" lon="0.55379">
        <ele>884</ele>
        <time>2019-06-30T06:58:22.000Z</time>
      </trkpt>
      <trkpt lat="42.98249" lon="0.55377">
        <ele>885</ele>
        <time>2019-06-30T06:58:24.000Z</time>
      </trkpt>
      <trkpt lat="42.98249" lon="0.55376">
        <ele>885</ele>
        <time>2019-06-30T06:58:26.000Z</time>
      </trkpt>
      <trkpt lat="42.9825" lon="0.55374">
        <ele>885</ele>
        <time>2019-06-30T06:58:28.000Z</time>
      </trkpt>
      <trkpt lat="42.9825" lon="0.55373">
        <ele>886</ele>
        <time>2019-06-30T06:58:30.000Z</time>
      </trkpt>
      <trkpt lat="42.9825" lon="0.55371">
        <ele>887</ele>
        <time>2019-06-30T06:58:32.000Z</time>
      </trkpt>
      <trkpt lat="42.98251" lon="0.55369">
        <ele>887</ele>
        <time>2019-06-30T06:58:34.000Z</time>
      </trkpt>
      <trkpt lat="42.98252" lon="0.55368">
        <ele>887</ele>
        <time>2019-06-30T06:58:36.000Z</time>
      </trkpt>
      <trkpt lat="42.98252" lon="0.55366">
        <ele>888</ele>
        <time>2019-06-30T06:58:38.000Z</time>
      </trkpt>
      <trkpt lat="42.98253" lon="0.55364">
        <ele>889</ele>
        <time>2019-06-30T06:58:40.000Z</time>
      </trkpt>
      <trkpt lat="42.98254" lon="0.55363">
        <ele>889</ele>
        <time>2019-06-30T06:58:42.000Z</time>
      </trkpt>
      <trkpt lat="42.98254" lon="0.55362">
        <ele>890</ele>
        <time>2019-06-30T06:58:44.000Z</time>
      </trkpt>
      <trkpt lat="42.98255" lon="0.5536">
        <ele>890</ele>
        <time>2019-06-30T06:58:46.000Z</time>
      </trkpt>
      <trkpt lat="42.98254" lon="0.55359">
        <ele>891</ele>
        <time>2019-06-30T06:58:48.000Z</time>
      </trkpt>
      <trkpt lat="42.98256" lon="0.55358">
        <ele>891</ele>
        <time>2019-06-30T06:58:50.000Z</time>
      </trkpt>
      <trkpt lat="42.98257" lon="0.55356">
        <ele>891</ele>
        <time>2019-06-30T06:58:52.000Z</time>
      </trkpt>
      <trkpt lat="42.98257" lon="0.55355">
        <ele>892</ele>
        <time>2019-06-30T06:58:54.000Z</time>
      </trkpt>
      <trkpt lat="42.98257" lon="0.55354">
        <ele>892</ele>
        <time>2019-06-30T06:58:56.000Z</time>
      </trkpt>
      <trkpt lat="42.98257" lon="0.55353">
        <ele>893</ele>
        <time>2019-06-30T06:58:58.000Z</time>
      </trkpt>
      <trkpt lat="42.98256" lon="0.55351">
        <ele>893</ele>
        <time>2019-06-30T06:59:00.000Z</time>
      </trkpt>
      <trkpt lat="42.98256" lon="0.55349">
        <ele>894</ele>
        <time>2019-06-30T06:59:02.000Z</time>
      </trkpt>
      <trkpt lat="42.98257" lon="0.55348">
        <ele>895</ele>
        <time>2019-06-30T06:59:04.000Z</time>
      </trkpt>
      <trkpt lat="42.98257" lon="0.55346">
        <ele>895</ele>
        <time>2019-06-30T06:59:06.000Z</time>
      </trkpt>
      <trkpt lat="42.98258" lon="0.55345">
        <ele>896</ele>
        <time>2019-06-30T06:59:08.000Z</time>
      </trkpt>
      <trkpt lat="42.98259" lon="0.55344">
        <ele>896</ele>
        <time>2019-06-30T06:59:10.000Z</time>
      </trkpt>
      <trkpt lat="42.9826" lon="0.55343">
        <ele>896</ele>
        <time>2019-06-30T06:59:12.000Z</time>
      </trkpt>
      <trkpt lat="42.98261" lon="0.55342">
        <ele>896</ele>
        <time>2019-06-30T06:59:14.000Z</time>
      </trkpt>
      <trkpt lat="42.98261" lon="0.55341">
        <ele>897</ele>
        <time>2019-06-30T06:59:16.000Z</time>
      </trkpt>
      <trkpt lat="42.98263" lon="0.55338">
        <ele>897</ele>
        <time>2019-06-30T06:59:18.000Z</time>
      </trkpt>
      <trkpt lat="42.98263" lon="0.55337">
        <ele>898</ele>
        <time>2019-06-30T06:59:20.000Z</time>
      </trkpt>
      <trkpt lat="42.98263" lon="0.55336">
        <ele>898</ele>
        <time>2019-06-30T06:59:22.000Z</time>
      </trkpt>
      <trkpt lat="42.98263" lon="0.55335">
        <ele>899</ele>
        <time>2019-06-30T06:59:24.000Z</time>
      </trkpt>
      <trkpt lat="42.98263" lon="0.55333">
        <ele>899</ele>
        <time>2019-06-30T06:59:26.000Z</time>
      </trkpt>
      <trkpt lat="42.98263" lon="0.55331">
        <ele>900</ele>
        <time>2019-06-30T06:59:28.000Z</time>
      </trkpt>
      <trkpt lat="42.98264" lon="0.5533">
        <ele>901</ele>
        <time>2019-06-30T06:59:30.000Z</time>
      </trkpt>
      <trkpt lat="42.98266" lon="0.55329">
        <ele>900</ele>
        <time>2019-06-30T06:59:32.000Z</time>
      </trkpt>
      <trkpt lat="42.98266" lon="0.55328">
        <ele>901</ele>
        <time>2019-06-30T06:59:34.000Z</time>
      </trkpt>
      <trkpt lat="42.98267" lon="0.55327">
        <ele>901</ele>
        <time>2019-06-30T06:59:36.000Z</time>
      </trkpt>
      <trkpt lat="42.98267" lon="0.55326">
        <ele>901</ele>
        <time>2019-06-30T06:59:38.000Z</time>
      </trkpt>
      <trkpt lat="42.98268" lon="0.55326">
        <ele>901</ele>
        <time>2019-06-30T06:59:40.000Z</time>
      </trkpt>
      <trkpt lat="42.98269" lon="0.55325">
        <ele>901</ele>
        <time>2019-06-30T06:59:42.000Z</time>
      </trkpt>
      <trkpt lat="42.98269" lon="0.55324">
        <ele>902</ele>
        <time>2019-06-30T06:59:44.000Z</time>
      </trkpt>
      <trkpt lat="42.98269" lon="0.55324">
        <ele>902</ele>
        <time>2019-06-30T06:59:46.000Z</time>
      </trkpt>
      <trkpt lat="42.98269" lon="0.55323">
        <ele>902</ele>
        <time>2019-06-30T06:59:48.000Z</time>
      </trkpt>
      <trkpt lat="42.98269" lon="0.55322">
        <ele>903</ele>
        <time>2019-06-30T06:59:50.000Z</time>
      </trkpt>
      <trkpt lat="42.9827" lon="0.55321">
        <ele>903</ele>
        <time>2019-06-30T06:59:52.000Z</time>
      </trkpt>
      <trkpt lat="42.98271" lon="0.55321">
        <ele>903</ele>
        <time>2019-06-30T06:59:54.000Z</time>
      </trkpt>
      <trkpt lat="42.98271" lon="0.5532">
        <ele>903</ele>
        <time>2019-06-30T06:59:56.000Z</time>
      </trkpt>
      <trkpt lat="42.98271" lon="0.55319">
        <ele>903</ele>
        <time>2019-06-30T06:59:58.000Z</time>
      </trkpt>
      <trkpt lat="42.98272" lon="0.55317">
        <ele>904</ele>
        <time>2019-06-30T07:00:00.000Z</time>
      </trkpt>
      <trkpt lat="42.98273" lon="0.55316">
        <ele>904</ele>
        <time>2019-06-30T07:00:02.000Z</time>
      </trkpt>
      <trkpt lat="42.98273" lon="0.55315">
        <ele>905</ele>
        <time>2019-06-30T07:00:04.000Z</time>
      </trkpt>
      <trkpt lat="42.98273" lon="0.55313">
        <ele>905</ele>
        <time>2019-06-30T07:00:06.000Z</time>
      </trkpt>
      <trkpt lat="42.98272" lon="0.5531">
        <ele>907</ele>
        <time>2019-06-30T07:00:08.000Z</time>
      </trkpt>
      <trkpt lat="42.98271" lon="0.55307">
        <ele>908</ele>
        <time>2019-06-30T07:00:10.000Z</time>
      </trkpt>
      <trkpt lat="42.98271" lon="0.55305">
        <ele>909</ele>
        <time>2019-06-30T07:00:12.000Z</time>
      </trkpt>
      <trkpt lat="42.98273" lon="0.55304">
        <ele>910</ele>
        <time>2019-06-30T07:00:14.000Z</time>
      </trkpt>
      <trkpt lat="42.98275" lon="0.55304">
        <ele>909</ele>
        <time>2019-06-30T07:00:16.000Z</time>
      </trkpt>
      <trkpt lat="42.98277" lon="0.55303">
        <ele>909</ele>
        <time>2019-06-30T07:00:18.000Z</time>
      </trkpt>
      <trkpt lat="42.98278" lon="0.55302">
        <ele>909</ele>
        <time>2019-06-30T07:00:20.000Z</time>
      </trkpt>
      <trkpt lat="42.98277" lon="0.553">
        <ele>910</ele>
        <time>2019-06-30T07:00:22.000Z</time>
      </trkpt>
      <trkpt lat="42.98277" lon="0.55299">
        <ele>911</ele>
        <time>2019-06-30T07:00:24.000Z</time>
      </trkpt>
      <trkpt lat="42.98277" lon="0.55298">
        <ele>911</ele>
        <time>2019-06-30T07:00:26.000Z</time>
      </trkpt>
      <trkpt lat="42.98278" lon="0.55297">
        <ele>911</ele>
        <time>2019-06-30T07:00:28.000Z</time>
      </trkpt>
      <trkpt lat="42.98278" lon="0.55296">
        <ele>911</ele>
        <time>2019-06-30T07:00:30.000Z</time>
      </trkpt>
      <trkpt lat="42.98279" lon="0.55294">
        <ele>912</ele>
        <time>2019-06-30T07:00:32.000Z</time>
      </trkpt>
      <trkpt lat="42.9828" lon="0.55293">
        <ele>912</ele>
        <time>2019-06-30T07:00:34.000Z</time>
      </trkpt>
      <trkpt lat="42.98281" lon="0.55292">
        <ele>912</ele>
        <time>2019-06-30T07:00:36.000Z</time>
      </trkpt>
      <trkpt lat="42.98282" lon="0.55291">
        <ele>912</ele>
        <time>2019-06-30T07:00:38.000Z</time>
      </trkpt>
      <trkpt lat="42.98283" lon="0.55291">
        <ele>912</ele>
        <time>2019-06-30T07:00:40.000Z</time>
      </trkpt>
      <trkpt lat="42.98283" lon="0.5529">
        <ele>912</ele>
        <time>2019-06-30T07:00:42.000Z</time>
      </trkpt>
      <trkpt lat="42.98284" lon="0.55289">
        <ele>913</ele>
        <time>2019-06-30T07:00:44.000Z</time>
      </trkpt>
      <trkpt lat="42.98284" lon="0.55287">
        <ele>913</ele>
        <time>2019-06-30T07:00:46.000Z</time>
      </trkpt>
      <trkpt lat="42.98285" lon="0.55286">
        <ele>913</ele>
        <time>2019-06-30T07:00:48.000Z</time>
      </trkpt>
      <trkpt lat="42.98285" lon="0.55286">
        <ele>913</ele>
        <time>2019-06-30T07:00:50.000Z</time>
      </trkpt>
      <trkpt lat="42.98287" lon="0.55285">
        <ele>913</ele>
        <time>2019-06-30T07:00:52.000Z</time>
      </trkpt>
      <trkpt lat="42.98288" lon="0.55284">
        <ele>913</ele>
        <time>2019-06-30T07:00:54.000Z</time>
      </trkpt>
      <trkpt lat="42.9829" lon="0.55283">
        <ele>913</ele>
        <time>2019-06-30T07:00:56.000Z</time>
      </trkpt>
      <trkpt lat="42.98291" lon="0.55282">
        <ele>913</ele>
        <time>2019-06-30T07:00:58.000Z</time>
      </trkpt>
      <trkpt lat="42.98292" lon="0.55282">
        <ele>913</ele>
        <time>2019-06-30T07:01:00.000Z</time>
      </trkpt>
      <trkpt lat="42.98293" lon="0.55281">
        <ele>913</ele>
        <time>2019-06-30T07:01:02.000Z</time>
      </trkpt>
      <trkpt lat="42.98293" lon="0.5528">
        <ele>914</ele>
        <time>2019-06-30T07:01:04.000Z</time>
      </trkpt>
      <trkpt lat="42.98293" lon="0.55279">
        <ele>914</ele>
        <time>2019-06-30T07:01:06.000Z</time>
      </trkpt>
      <trkpt lat="42.98293" lon="0.55277">
        <ele>915</ele>
        <time>2019-06-30T07:01:08.000Z</time>
      </trkpt>
      <trkpt lat="42.98293" lon="0.55276">
        <ele>915</ele>
        <time>2019-06-30T07:01:10.000Z</time>
      </trkpt>
      <trkpt lat="42.98293" lon="0.55274">
        <ele>916</ele>
        <time>2019-06-30T07:01:12.000Z</time>
      </trkpt>
      <trkpt lat="42.98292" lon="0.55272">
        <ele>917</ele>
        <time>2019-06-30T07:01:14.000Z</time>
      </trkpt>
      <trkpt lat="42.9829" lon="0.5527">
        <ele>918</ele>
        <time>2019-06-30T07:01:16.000Z</time>
      </trkpt>
      <trkpt lat="42.98291" lon="0.5527">
        <ele>918</ele>
        <time>2019-06-30T07:01:18.000Z</time>
      </trkpt>
      <trkpt lat="42.98292" lon="0.5527">
        <ele>917</ele>
        <time>2019-06-30T07:01:20.000Z</time>
      </trkpt>
      <trkpt lat="42.98294" lon="0.55271">
        <ele>917</ele>
        <time>2019-06-30T07:01:22.000Z</time>
      </trkpt>
      <trkpt lat="42.98295" lon="0.5527">
        <ele>917</ele>
        <time>2019-06-30T07:01:24.000Z</time>
      </trkpt>
      <trkpt lat="42.98294" lon="0.55269">
        <ele>917</ele>
        <time>2019-06-30T07:01:26.000Z</time>
      </trkpt>
      <trkpt lat="42.98294" lon="0.55268">
        <ele>918</ele>
        <time>2019-06-30T07:01:28.000Z</time>
      </trkpt>
      <trkpt lat="42.98294" lon="0.55266">
        <ele>918</ele>
        <time>2019-06-30T07:01:30.000Z</time>
      </trkpt>
      <trkpt lat="42.98297" lon="0.55265">
        <ele>918</ele>
        <time>2019-06-30T07:01:32.000Z</time>
      </trkpt>
      <trkpt lat="42.98298" lon="0.55264">
        <ele>918</ele>
        <time>2019-06-30T07:01:34.000Z</time>
      </trkpt>
      <trkpt lat="42.98299" lon="0.55263">
        <ele>918</ele>
        <time>2019-06-30T07:01:36.000Z</time>
      </trkpt>
      <trkpt lat="42.98299" lon="0.55262">
        <ele>919</ele>
        <time>2019-06-30T07:01:38.000Z</time>
      </trkpt>
      <trkpt lat="42.98299" lon="0.55261">
        <ele>919</ele>
        <time>2019-06-30T07:01:40.000Z</time>
      </trkpt>
      <trkpt lat="42.983" lon="0.5526">
        <ele>919</ele>
        <time>2019-06-30T07:01:42.000Z</time>
      </trkpt>
      <trkpt lat="42.98301" lon="0.55258">
        <ele>920</ele>
        <time>2019-06-30T07:01:44.000Z</time>
      </trkpt>
      <trkpt lat="42.98302" lon="0.55258">
        <ele>919</ele>
        <time>2019-06-30T07:01:46.000Z</time>
      </trkpt>
      <trkpt lat="42.98302" lon="0.55256">
        <ele>920</ele>
        <time>2019-06-30T07:01:48.000Z</time>
      </trkpt>
      <trkpt lat="42.98301" lon="0.55254">
        <ele>921</ele>
        <time>2019-06-30T07:01:50.000Z</time>
      </trkpt>
      <trkpt lat="42.98301" lon="0.55252">
        <ele>921</ele>
        <time>2019-06-30T07:01:52.000Z</time>
      </trkpt>
      <trkpt lat="42.98302" lon="0.55251">
        <ele>921</ele>
        <time>2019-06-30T07:01:54.000Z</time>
      </trkpt>
      <trkpt lat="42.98301" lon="0.55249">
        <ele>922</ele>
        <time>2019-06-30T07:01:56.000Z</time>
      </trkpt>
      <trkpt lat="42.98301" lon="0.55247">
        <ele>923</ele>
        <time>2019-06-30T07:01:58.000Z</time>
      </trkpt>
      <trkpt lat="42.98301" lon="0.55247">
        <ele>923</ele>
        <time>2019-06-30T07:02:00.000Z</time>
      </trkpt>
      <trkpt lat="42.98301" lon="0.55245">
        <ele>923</ele>
        <time>2019-06-30T07:02:02.000Z</time>
      </trkpt>
      <trkpt lat="42.98301" lon="0.55244">
        <ele>924</ele>
        <time>2019-06-30T07:02:04.000Z</time>
      </trkpt>
      <trkpt lat="42.983" lon="0.55242">
        <ele>925</ele>
        <time>2019-06-30T07:02:06.000Z</time>
      </trkpt>
      <trkpt lat="42.98298" lon="0.55239">
        <ele>926</ele>
        <time>2019-06-30T07:02:08.000Z</time>
      </trkpt>
      <trkpt lat="42.98299" lon="0.55235">
        <ele>927</ele>
        <time>2019-06-30T07:02:10.000Z</time>
      </trkpt>
      <trkpt lat="42.98298" lon="0.55233">
        <ele>928</ele>
        <time>2019-06-30T07:02:12.000Z</time>
      </trkpt>
      <trkpt lat="42.98299" lon="0.55231">
        <ele>928</ele>
        <time>2019-06-30T07:02:14.000Z</time>
      </trkpt>
      <trkpt lat="42.98299" lon="0.5523">
        <ele>929</ele>
        <time>2019-06-30T07:02:16.000Z</time>
      </trkpt>
      <trkpt lat="42.983" lon="0.55229">
        <ele>929</ele>
        <time>2019-06-30T07:02:18.000Z</time>
      </trkpt>
      <trkpt lat="42.98301" lon="0.55228">
        <ele>928</ele>
        <time>2019-06-30T07:02:20.000Z</time>
      </trkpt>
      <trkpt lat="42.98302" lon="0.55228">
        <ele>928</ele>
        <time>2019-06-30T07:02:22.000Z</time>
      </trkpt>
      <trkpt lat="42.98303" lon="0.55227">
        <ele>928</ele>
        <time>2019-06-30T07:02:24.000Z</time>
      </trkpt>
      <trkpt lat="42.98304" lon="0.55225">
        <ele>929</ele>
        <time>2019-06-30T07:02:26.000Z</time>
      </trkpt>
      <trkpt lat="42.98304" lon="0.55224">
        <ele>929</ele>
        <time>2019-06-30T07:02:28.000Z</time>
      </trkpt>
      <trkpt lat="42.98305" lon="0.55223">
        <ele>929</ele>
        <time>2019-06-30T07:02:30.000Z</time>
      </trkpt>
      <trkpt lat="42.98306" lon="0.55222">
        <ele>929</ele>
        <time>2019-06-30T07:02:32.000Z</time>
      </trkpt>
      <trkpt lat="42.98307" lon="0.55221">
        <ele>929</ele>
        <time>2019-06-30T07:02:34.000Z</time>
      </trkpt>
      <trkpt lat="42.98307" lon="0.5522">
        <ele>929</ele>
        <time>2019-06-30T07:02:36.000Z</time>
      </trkpt>
      <trkpt lat="42.98308" lon="0.55219">
        <ele>929</ele>
        <time>2019-06-30T07:02:38.000Z</time>
      </trkpt>
      <trkpt lat="42.98308" lon="0.55219">
        <ele>929</ele>
        <time>2019-06-30T07:02:40.000Z</time>
      </trkpt>
      <trkpt lat="42.98309" lon="0.55217">
        <ele>929</ele>
        <time>2019-06-30T07:02:42.000Z</time>
      </trkpt>
      <trkpt lat="42.9831" lon="0.55216">
        <ele>930</ele>
        <time>2019-06-30T07:02:44.000Z</time>
      </trkpt>
      <trkpt lat="42.9831" lon="0.55215">
        <ele>930</ele>
        <time>2019-06-30T07:02:46.000Z</time>
      </trkpt>
      <trkpt lat="42.98312" lon="0.55213">
        <ele>930</ele>
        <time>2019-06-30T07:02:48.000Z</time>
      </trkpt>
      <trkpt lat="42.98313" lon="0.55212">
        <ele>931</ele>
        <time>2019-06-30T07:02:50.000Z</time>
      </trkpt>
      <trkpt lat="42.98315" lon="0.55212">
        <ele>930</ele>
        <time>2019-06-30T07:02:52.000Z</time>
      </trkpt>
      <trkpt lat="42.98315" lon="0.5521">
        <ele>931</ele>
        <time>2019-06-30T07:02:54.000Z</time>
      </trkpt>
      <trkpt lat="42.98317" lon="0.55209">
        <ele>930</ele>
        <time>2019-06-30T07:02:56.000Z</time>
      </trkpt>
      <trkpt lat="42.98318" lon="0.55209">
        <ele>930</ele>
        <time>2019-06-30T07:02:58.000Z</time>
      </trkpt>
      <trkpt lat="42.98319" lon="0.55209">
        <ele>930</ele>
        <time>2019-06-30T07:03:00.000Z</time>
      </trkpt>
      <trkpt lat="42.98321" lon="0.55209">
        <ele>929</ele>
        <time>2019-06-30T07:03:02.000Z</time>
      </trkpt>
      <trkpt lat="42.98322" lon="0.55208">
        <ele>929</ele>
        <time>2019-06-30T07:03:04.000Z</time>
      </trkpt>
      <trkpt lat="42.98324" lon="0.55207">
        <ele>929</ele>
        <time>2019-06-30T07:03:06.000Z</time>
      </trkpt>
      <trkpt lat="42.98325" lon="0.55206">
        <ele>929</ele>
        <time>2019-06-30T07:03:08.000Z</time>
      </trkpt>
      <trkpt lat="42.98326" lon="0.55205">
        <ele>929</ele>
        <time>2019-06-30T07:03:10.000Z</time>
      </trkpt>
      <trkpt lat="42.98327" lon="0.55204">
        <ele>930</ele>
        <time>2019-06-30T07:03:12.000Z</time>
      </trkpt>
      <trkpt lat="42.98328" lon="0.55203">
        <ele>930</ele>
        <time>2019-06-30T07:03:14.000Z</time>
      </trkpt>
      <trkpt lat="42.9833" lon="0.55202">
        <ele>930</ele>
        <time>2019-06-30T07:03:16.000Z</time>
      </trkpt>
      <trkpt lat="42.98332" lon="0.55201">
        <ele>929</ele>
        <time>2019-06-30T07:03:18.000Z</time>
      </trkpt>
      <trkpt lat="42.98332" lon="0.55198">
        <ele>930</ele>
        <time>2019-06-30T07:03:20.000Z</time>
      </trkpt>
      <trkpt lat="42.98333" lon="0.55196">
        <ele>931</ele>
        <time>2019-06-30T07:03:22.000Z</time>
      </trkpt>
      <trkpt lat="42.98333" lon="0.55194">
        <ele>931</ele>
        <time>2019-06-30T07:03:24.000Z</time>
      </trkpt>
      <trkpt lat="42.98333" lon="0.55193">
        <ele>931</ele>
        <time>2019-06-30T07:03:26.000Z</time>
      </trkpt>
      <trkpt lat="42.98334" lon="0.55191">
        <ele>932</ele>
        <time>2019-06-30T07:03:28.000Z</time>
      </trkpt>
      <trkpt lat="42.98335" lon="0.55191">
        <ele>932</ele>
        <time>2019-06-30T07:03:30.000Z</time>
      </trkpt>
      <trkpt lat="42.98336" lon="0.55189">
        <ele>932</ele>
        <time>2019-06-30T07:03:32.000Z</time>
      </trkpt>
      <trkpt lat="42.98337" lon="0.55188">
        <ele>932</ele>
        <time>2019-06-30T07:03:34.000Z</time>
      </trkpt>
      <trkpt lat="42.98338" lon="0.55187">
        <ele>932</ele>
        <time>2019-06-30T07:03:36.000Z</time>
      </trkpt>
      <trkpt lat="42.9834" lon="0.55186">
        <ele>932</ele>
        <time>2019-06-30T07:03:38.000Z</time>
      </trkpt>
      <trkpt lat="42.98341" lon="0.55186">
        <ele>932</ele>
        <time>2019-06-30T07:03:40.000Z</time>
      </trkpt>
      <trkpt lat="42.98342" lon="0.55185">
        <ele>932</ele>
        <time>2019-06-30T07:03:42.000Z</time>
      </trkpt>
      <trkpt lat="42.98344" lon="0.55185">
        <ele>932</ele>
        <time>2019-06-30T07:03:44.000Z</time>
      </trkpt>
      <trkpt lat="42.98345" lon="0.55185">
        <ele>931</ele>
        <time>2019-06-30T07:03:46.000Z</time>
      </trkpt>
      <trkpt lat="42.98346" lon="0.55185">
        <ele>931</ele>
        <time>2019-06-30T07:03:48.000Z</time>
      </trkpt>
      <trkpt lat="42.9835" lon="0.55185">
        <ele>930</ele>
        <time>2019-06-30T07:03:50.000Z</time>
      </trkpt>
      <trkpt lat="42.98352" lon="0.55185">
        <ele>930</ele>
        <time>2019-06-30T07:03:52.000Z</time>
      </trkpt>
      <trkpt lat="42.98353" lon="0.55186">
        <ele>929</ele>
        <time>2019-06-30T07:03:54.000Z</time>
      </trkpt>
      <trkpt lat="42.98354" lon="0.55186">
        <ele>929</ele>
        <time>2019-06-30T07:03:56.000Z</time>
      </trkpt>
      <trkpt lat="42.98356" lon="0.55185">
        <ele>929</ele>
        <time>2019-06-30T07:03:58.000Z</time>
      </trkpt>
      <trkpt lat="42.98358" lon="0.55185">
        <ele>928</ele>
        <time>2019-06-30T07:04:00.000Z</time>
      </trkpt>
      <trkpt lat="42.98359" lon="0.55184">
        <ele>928</ele>
        <time>2019-06-30T07:04:02.000Z</time>
      </trkpt>
      <trkpt lat="42.98359" lon="0.55183">
        <ele>929</ele>
        <time>2019-06-30T07:04:04.000Z</time>
      </trkpt>
      <trkpt lat="42.98361" lon="0.55183">
        <ele>928</ele>
        <time>2019-06-30T07:04:06.000Z</time>
      </trkpt>
      <trkpt lat="42.98362" lon="0.55183">
        <ele>928</ele>
        <time>2019-06-30T07:04:08.000Z</time>
      </trkpt>
      <trkpt lat="42.98363" lon="0.55182">
        <ele>928</ele>
        <time>2019-06-30T07:04:10.000Z</time>
      </trkpt>
      <trkpt lat="42.98365" lon="0.55182">
        <ele>928</ele>
        <time>2019-06-30T07:04:12.000Z</time>
      </trkpt>
      <trkpt lat="42.98366" lon="0.55181">
        <ele>928</ele>
        <time>2019-06-30T07:04:14.000Z</time>
      </trkpt>
      <trkpt lat="42.98366" lon="0.5518">
        <ele>928</ele>
        <time>2019-06-30T07:04:16.000Z</time>
      </trkpt>
      <trkpt lat="42.98369" lon="0.55179">
        <ele>928</ele>
        <time>2019-06-30T07:04:18.000Z</time>
      </trkpt>
      <trkpt lat="42.98371" lon="0.55177">
        <ele>928</ele>
        <time>2019-06-30T07:04:20.000Z</time>
      </trkpt>
      <trkpt lat="42.98373" lon="0.55176">
        <ele>928</ele>
        <time>2019-06-30T07:04:22.000Z</time>
      </trkpt>
      <trkpt lat="42.98374" lon="0.55175">
        <ele>928</ele>
        <time>2019-06-30T07:04:24.000Z</time>
      </trkpt>
      <trkpt lat="42.98375" lon="0.55175">
        <ele>928</ele>
        <time>2019-06-30T07:04:26.000Z</time>
      </trkpt>
      <trkpt lat="42.98375" lon="0.55174">
        <ele>928</ele>
        <time>2019-06-30T07:04:28.000Z</time>
      </trkpt>
      <trkpt lat="42.98377" lon="0.55172">
        <ele>928</ele>
        <time>2019-06-30T07:04:30.000Z</time>
      </trkpt>
      <trkpt lat="42.98378" lon="0.55172">
        <ele>928</ele>
        <time>2019-06-30T07:04:32.000Z</time>
      </trkpt>
      <trkpt lat="42.98379" lon="0.55172">
        <ele>928</ele>
        <time>2019-06-30T07:04:34.000Z</time>
      </trkpt>
      <trkpt lat="42.9838" lon="0.55171">
        <ele>928</ele>
        <time>2019-06-30T07:04:36.000Z</time>
      </trkpt>
      <trkpt lat="42.98381" lon="0.55171">
        <ele>928</ele>
        <time>2019-06-30T07:04:38.000Z</time>
      </trkpt>
      <trkpt lat="42.98382" lon="0.5517">
        <ele>928</ele>
        <time>2019-06-30T07:04:40.000Z</time>
      </trkpt>
      <trkpt lat="42.98382" lon="0.55169">
        <ele>928</ele>
        <time>2019-06-30T07:04:42.000Z</time>
      </trkpt>
      <trkpt lat="42.98382" lon="0.55168">
        <ele>929</ele>
        <time>2019-06-30T07:04:44.000Z</time>
      </trkpt>
      <trkpt lat="42.98382" lon="0.55168">
        <ele>929</ele>
        <time>2019-06-30T07:04:46.000Z</time>
      </trkpt>
      <trkpt lat="42.98384" lon="0.55167">
        <ele>929</ele>
        <time>2019-06-30T07:04:48.000Z</time>
      </trkpt>
      <trkpt lat="42.98385" lon="0.55166">
        <ele>929</ele>
        <time>2019-06-30T07:04:50.000Z</time>
      </trkpt>
      <trkpt lat="42.98386" lon="0.55165">
        <ele>930</ele>
        <time>2019-06-30T07:04:52.000Z</time>
      </trkpt>
      <trkpt lat="42.98386" lon="0.55163">
        <ele>930</ele>
        <time>2019-06-30T07:04:54.000Z</time>
      </trkpt>
      <trkpt lat="42.98387" lon="0.55163">
        <ele>930</ele>
        <time>2019-06-30T07:04:56.000Z</time>
      </trkpt>
      <trkpt lat="42.98388" lon="0.55162">
        <ele>930</ele>
        <time>2019-06-30T07:04:58.000Z</time>
      </trkpt>
      <trkpt lat="42.98389" lon="0.55162">
        <ele>930</ele>
        <time>2019-06-30T07:05:00.000Z</time>
      </trkpt>
      <trkpt lat="42.9839" lon="0.55161">
        <ele>930</ele>
        <time>2019-06-30T07:05:02.000Z</time>
      </trkpt>
      <trkpt lat="42.98391" lon="0.5516">
        <ele>930</ele>
        <time>2019-06-30T07:05:04.000Z</time>
      </trkpt>
      <trkpt lat="42.98392" lon="0.55159">
        <ele>931</ele>
        <time>2019-06-30T07:05:06.000Z</time>
      </trkpt>
      <trkpt lat="42.98392" lon="0.55158">
        <ele>931</ele>
        <time>2019-06-30T07:05:08.000Z</time>
      </trkpt>
      <trkpt lat="42.98393" lon="0.55156">
        <ele>932</ele>
        <time>2019-06-30T07:05:10.000Z</time>
      </trkpt>
      <trkpt lat="42.98393" lon="0.55154">
        <ele>932</ele>
        <time>2019-06-30T07:05:12.000Z</time>
      </trkpt>
      <trkpt lat="42.98393" lon="0.55152">
        <ele>933</ele>
        <time>2019-06-30T07:05:14.000Z</time>
      </trkpt>
      <trkpt lat="42.98394" lon="0.5515">
        <ele>934</ele>
        <time>2019-06-30T07:05:16.000Z</time>
      </trkpt>
      <trkpt lat="42.98395" lon="0.55149">
        <ele>934</ele>
        <time>2019-06-30T07:05:18.000Z</time>
      </trkpt>
      <trkpt lat="42.98397" lon="0.55148">
        <ele>934</ele>
        <time>2019-06-30T07:05:20.000Z</time>
      </trkpt>
      <trkpt lat="42.98398" lon="0.55147">
        <ele>935</ele>
        <time>2019-06-30T07:05:22.000Z</time>
      </trkpt>
      <trkpt lat="42.98399" lon="0.55145">
        <ele>935</ele>
        <time>2019-06-30T07:05:24.000Z</time>
      </trkpt>
      <trkpt lat="42.984" lon="0.55144">
        <ele>935</ele>
        <time>2019-06-30T07:05:26.000Z</time>
      </trkpt>
      <trkpt lat="42.984" lon="0.55143">
        <ele>936</ele>
        <time>2019-06-30T07:05:28.000Z</time>
      </trkpt>
      <trkpt lat="42.984" lon="0.55142">
        <ele>936</ele>
        <time>2019-06-30T07:05:30.000Z</time>
      </trkpt>
      <trkpt lat="42.98401" lon="0.5514">
        <ele>936</ele>
        <time>2019-06-30T07:05:32.000Z</time>
      </trkpt>
      <trkpt lat="42.98403" lon="0.55139">
        <ele>937</ele>
        <time>2019-06-30T07:05:34.000Z</time>
      </trkpt>
      <trkpt lat="42.98404" lon="0.55138">
        <ele>937</ele>
        <time>2019-06-30T07:05:36.000Z</time>
      </trkpt>
      <trkpt lat="42.98405" lon="0.55137">
        <ele>937</ele>
        <time>2019-06-30T07:05:38.000Z</time>
      </trkpt>
      <trkpt lat="42.98406" lon="0.55136">
        <ele>937</ele>
        <time>2019-06-30T07:05:40.000Z</time>
      </trkpt>
      <trkpt lat="42.98406" lon="0.55134">
        <ele>938</ele>
        <time>2019-06-30T07:05:42.000Z</time>
      </trkpt>
      <trkpt lat="42.98406" lon="0.55133">
        <ele>938</ele>
        <time>2019-06-30T07:05:44.000Z</time>
      </trkpt>
      <trkpt lat="42.98407" lon="0.55131">
        <ele>939</ele>
        <time>2019-06-30T07:05:46.000Z</time>
      </trkpt>
      <trkpt lat="42.98407" lon="0.5513">
        <ele>940</ele>
        <time>2019-06-30T07:05:48.000Z</time>
      </trkpt>
      <trkpt lat="42.98408" lon="0.55128">
        <ele>940</ele>
        <time>2019-06-30T07:05:50.000Z</time>
      </trkpt>
      <trkpt lat="42.98409" lon="0.55126">
        <ele>941</ele>
        <time>2019-06-30T07:05:52.000Z</time>
      </trkpt>
      <trkpt lat="42.98411" lon="0.55125">
        <ele>941</ele>
        <time>2019-06-30T07:05:54.000Z</time>
      </trkpt>
      <trkpt lat="42.98413" lon="0.55123">
        <ele>941</ele>
        <time>2019-06-30T07:05:56.000Z</time>
      </trkpt>
      <trkpt lat="42.98414" lon="0.55122">
        <ele>942</ele>
        <time>2019-06-30T07:05:58.000Z</time>
      </trkpt>
      <trkpt lat="42.98415" lon="0.5512">
        <ele>942</ele>
        <time>2019-06-30T07:06:00.000Z</time>
      </trkpt>
      <trkpt lat="42.98416" lon="0.55119">
        <ele>942</ele>
        <time>2019-06-30T07:06:02.000Z</time>
      </trkpt>
      <trkpt lat="42.98416" lon="0.55118">
        <ele>942</ele>
        <time>2019-06-30T07:06:04.000Z</time>
      </trkpt>
      <trkpt lat="42.98417" lon="0.55116">
        <ele>943</ele>
        <time>2019-06-30T07:06:06.000Z</time>
      </trkpt>
      <trkpt lat="42.98417" lon="0.55114">
        <ele>944</ele>
        <time>2019-06-30T07:06:08.000Z</time>
      </trkpt>
      <trkpt lat="42.98417" lon="0.55112">
        <ele>945</ele>
        <time>2019-06-30T07:06:10.000Z</time>
      </trkpt>
      <trkpt lat="42.98417" lon="0.5511">
        <ele>946</ele>
        <time>2019-06-30T07:06:12.000Z</time>
      </trkpt>
      <trkpt lat="42.98418" lon="0.55107">
        <ele>946</ele>
        <time>2019-06-30T07:06:14.000Z</time>
      </trkpt>
      <trkpt lat="42.98418" lon="0.55106">
        <ele>947</ele>
        <time>2019-06-30T07:06:16.000Z</time>
      </trkpt>
      <trkpt lat="42.98418" lon="0.55105">
        <ele>948</ele>
        <time>2019-06-30T07:06:18.000Z</time>
      </trkpt>
      <trkpt lat="42.98418" lon="0.55103">
        <ele>948</ele>
        <time>2019-06-30T07:06:20.000Z</time>
      </trkpt>
      <trkpt lat="42.98419" lon="0.551">
        <ele>949</ele>
        <time>2019-06-30T07:06:22.000Z</time>
      </trkpt>
      <trkpt lat="42.9842" lon="0.55099">
        <ele>949</ele>
        <time>2019-06-30T07:06:24.000Z</time>
      </trkpt>
      <trkpt lat="42.9842" lon="0.55099">
        <ele>950</ele>
        <time>2019-06-30T07:06:26.000Z</time>
      </trkpt>
      <trkpt lat="42.98421" lon="0.55098">
        <ele>950</ele>
        <time>2019-06-30T07:06:28.000Z</time>
      </trkpt>
      <trkpt lat="42.98421" lon="0.55097">
        <ele>950</ele>
        <time>2019-06-30T07:06:30.000Z</time>
      </trkpt>
      <trkpt lat="42.98423" lon="0.55096">
        <ele>950</ele>
        <time>2019-06-30T07:06:32.000Z</time>
      </trkpt>
      <trkpt lat="42.98424" lon="0.55096">
        <ele>950</ele>
        <time>2019-06-30T07:06:34.000Z</time>
      </trkpt>
      <trkpt lat="42.98423" lon="0.55093">
        <ele>951</ele>
        <time>2019-06-30T07:06:36.000Z</time>
      </trkpt>
      <trkpt lat="42.98423" lon="0.55092">
        <ele>952</ele>
        <time>2019-06-30T07:06:38.000Z</time>
      </trkpt>
      <trkpt lat="42.98423" lon="0.5509">
        <ele>952</ele>
        <time>2019-06-30T07:06:40.000Z</time>
      </trkpt>
      <trkpt lat="42.98423" lon="0.55088">
        <ele>953</ele>
        <time>2019-06-30T07:06:42.000Z</time>
      </trkpt>
      <trkpt lat="42.98424" lon="0.55086">
        <ele>954</ele>
        <time>2019-06-30T07:06:44.000Z</time>
      </trkpt>
      <trkpt lat="42.98424" lon="0.55085">
        <ele>954</ele>
        <time>2019-06-30T07:06:46.000Z</time>
      </trkpt>
      <trkpt lat="42.98423" lon="0.55085">
        <ele>955</ele>
        <time>2019-06-30T07:06:48.000Z</time>
      </trkpt>
      <trkpt lat="42.98422" lon="0.55084">
        <ele>955</ele>
        <time>2019-06-30T07:06:50.000Z</time>
      </trkpt>
      <trkpt lat="42.98423" lon="0.55083">
        <ele>955</ele>
        <time>2019-06-30T07:06:52.000Z</time>
      </trkpt>
      <trkpt lat="42.98425" lon="0.55082">
        <ele>955</ele>
        <time>2019-06-30T07:06:54.000Z</time>
      </trkpt>
      <trkpt lat="42.98426" lon="0.55081">
        <ele>955</ele>
        <time>2019-06-30T07:06:56.000Z</time>
      </trkpt>
      <trkpt lat="42.98427" lon="0.55079">
        <ele>956</ele>
        <time>2019-06-30T07:06:58.000Z</time>
      </trkpt>
      <trkpt lat="42.98427" lon="0.55078">
        <ele>956</ele>
        <time>2019-06-30T07:07:00.000Z</time>
      </trkpt>
      <trkpt lat="42.98428" lon="0.55077">
        <ele>956</ele>
        <time>2019-06-30T07:07:02.000Z</time>
      </trkpt>
      <trkpt lat="42.98428" lon="0.55076">
        <ele>957</ele>
        <time>2019-06-30T07:07:04.000Z</time>
      </trkpt>
      <trkpt lat="42.98428" lon="0.55074">
        <ele>957</ele>
        <time>2019-06-30T07:07:06.000Z</time>
      </trkpt>
      <trkpt lat="42.98429" lon="0.55073">
        <ele>957</ele>
        <time>2019-06-30T07:07:08.000Z</time>
      </trkpt>
      <trkpt lat="42.98429" lon="0.55071">
        <ele>958</ele>
        <time>2019-06-30T07:07:10.000Z</time>
      </trkpt>
      <trkpt lat="42.98429" lon="0.5507">
        <ele>959</ele>
        <time>2019-06-30T07:07:12.000Z</time>
      </trkpt>
      <trkpt lat="42.98429" lon="0.55068">
        <ele>959</ele>
        <time>2019-06-30T07:07:14.000Z</time>
      </trkpt>
      <trkpt lat="42.98428" lon="0.55066">
        <ele>961</ele>
        <time>2019-06-30T07:07:16.000Z</time>
      </trkpt>
      <trkpt lat="42.98427" lon="0.55063">
        <ele>962</ele>
        <time>2019-06-30T07:07:18.000Z</time>
      </trkpt>
      <trkpt lat="42.98426" lon="0.55061">
        <ele>963</ele>
        <time>2019-06-30T07:07:20.000Z</time>
      </trkpt>
      <trkpt lat="42.98426" lon="0.5506">
        <ele>964</ele>
        <time>2019-06-30T07:07:22.000Z</time>
      </trkpt>
      <trkpt lat="42.98426" lon="0.55058">
        <ele>965</ele>
        <time>2019-06-30T07:07:24.000Z</time>
      </trkpt>
      <trkpt lat="42.98426" lon="0.55057">
        <ele>965</ele>
        <time>2019-06-30T07:07:26.000Z</time>
      </trkpt>
      <trkpt lat="42.98425" lon="0.55057">
        <ele>965</ele>
        <time>2019-06-30T07:07:28.000Z</time>
      </trkpt>
      <trkpt lat="42.98425" lon="0.55056">
        <ele>966</ele>
        <time>2019-06-30T07:07:30.000Z</time>
      </trkpt>
      <trkpt lat="42.98425" lon="0.55053">
        <ele>967</ele>
        <time>2019-06-30T07:07:32.000Z</time>
      </trkpt>
      <trkpt lat="42.98425" lon="0.55052">
        <ele>967</ele>
        <time>2019-06-30T07:07:34.000Z</time>
      </trkpt>
      <trkpt lat="42.98425" lon="0.5505">
        <ele>968</ele>
        <time>2019-06-30T07:07:36.000Z</time>
      </trkpt>
      <trkpt lat="42.98425" lon="0.55049">
        <ele>969</ele>
        <time>2019-06-30T07:07:38.000Z</time>
      </trkpt>
      <trkpt lat="42.98424" lon="0.55047">
        <ele>969</ele>
        <time>2019-06-30T07:07:40.000Z</time>
      </trkpt>
      <trkpt lat="42.98424" lon="0.55046">
        <ele>970</ele>
        <time>2019-06-30T07:07:42.000Z</time>
      </trkpt>
      <trkpt lat="42.98425" lon="0.55044">
        <ele>970</ele>
        <time>2019-06-30T07:07:44.000Z</time>
      </trkpt>
      <trkpt lat="42.98425" lon="0.55043">
        <ele>970</ele>
        <time>2019-06-30T07:07:46.000Z</time>
      </trkpt>
      <trkpt lat="42.98426" lon="0.55042">
        <ele>970</ele>
        <time>2019-06-30T07:07:48.000Z</time>
      </trkpt>
      <trkpt lat="42.98427" lon="0.55041">
        <ele>970</ele>
        <time>2019-06-30T07:07:50.000Z</time>
      </trkpt>
      <trkpt lat="42.98427" lon="0.55039">
        <ele>971</ele>
        <time>2019-06-30T07:07:52.000Z</time>
      </trkpt>
      <trkpt lat="42.98428" lon="0.55037">
        <ele>971</ele>
        <time>2019-06-30T07:07:54.000Z</time>
      </trkpt>
      <trkpt lat="42.98429" lon="0.55036">
        <ele>971</ele>
        <time>2019-06-30T07:07:56.000Z</time>
      </trkpt>
      <trkpt lat="42.9843" lon="0.55036">
        <ele>971</ele>
        <time>2019-06-30T07:07:58.000Z</time>
      </trkpt>
      <trkpt lat="42.9843" lon="0.55036">
        <ele>971</ele>
        <time>2019-06-30T07:08:00.000Z</time>
      </trkpt>
      <trkpt lat="42.98431" lon="0.55035">
        <ele>971</ele>
        <time>2019-06-30T07:08:02.000Z</time>
      </trkpt>
      <trkpt lat="42.98432" lon="0.55034">
        <ele>971</ele>
        <time>2019-06-30T07:08:04.000Z</time>
      </trkpt>
      <trkpt lat="42.98432" lon="0.55033">
        <ele>971</ele>
        <time>2019-06-30T07:08:06.000Z</time>
      </trkpt>
      <trkpt lat="42.98433" lon="0.55032">
        <ele>971</ele>
        <time>2019-06-30T07:08:08.000Z</time>
      </trkpt>
      <trkpt lat="42.98433" lon="0.55032">
        <ele>971</ele>
        <time>2019-06-30T07:08:10.000Z</time>
      </trkpt>
      <trkpt lat="42.98434" lon="0.55031">
        <ele>971</ele>
        <time>2019-06-30T07:08:12.000Z</time>
      </trkpt>
      <trkpt lat="42.98435" lon="0.5503">
        <ele>971</ele>
        <time>2019-06-30T07:08:14.000Z</time>
      </trkpt>
      <trkpt lat="42.98436" lon="0.5503">
        <ele>971</ele>
        <time>2019-06-30T07:08:16.000Z</time>
      </trkpt>
      <trkpt lat="42.98437" lon="0.55029">
        <ele>971</ele>
        <time>2019-06-30T07:08:18.000Z</time>
      </trkpt>
      <trkpt lat="42.98438" lon="0.55028">
        <ele>971</ele>
        <time>2019-06-30T07:08:20.000Z</time>
      </trkpt>
      <trkpt lat="42.98439" lon="0.55027">
        <ele>971</ele>
        <time>2019-06-30T07:08:22.000Z</time>
      </trkpt>
      <trkpt lat="42.9844" lon="0.55026">
        <ele>971</ele>
        <time>2019-06-30T07:08:24.000Z</time>
      </trkpt>
      <trkpt lat="42.9844" lon="0.55026">
        <ele>971</ele>
        <time>2019-06-30T07:08:26.000Z</time>
      </trkpt>
      <trkpt lat="42.9844" lon="0.55026">
        <ele>971</ele>
        <time>2019-06-30T07:08:28.000Z</time>
      </trkpt>
      <trkpt lat="42.98439" lon="0.55025">
        <ele>971</ele>
        <time>2019-06-30T07:08:30.000Z</time>
      </trkpt>
      <trkpt lat="42.98439" lon="0.55026">
        <ele>971</ele>
        <time>2019-06-30T07:08:32.000Z</time>
      </trkpt>
      <trkpt lat="42.98439" lon="0.55025">
        <ele>971</ele>
        <time>2019-06-30T07:08:34.000Z</time>
      </trkpt>
      <trkpt lat="42.98438" lon="0.55025">
        <ele>972</ele>
        <time>2019-06-30T07:08:36.000Z</time>
      </trkpt>
      <trkpt lat="42.98438" lon="0.55025">
        <ele>972</ele>
        <time>2019-06-30T07:08:38.000Z</time>
      </trkpt>
      <trkpt lat="42.98438" lon="0.55025">
        <ele>971</ele>
        <time>2019-06-30T07:08:40.000Z</time>
      </trkpt>
      <trkpt lat="42.98439" lon="0.55026">
        <ele>971</ele>
        <time>2019-06-30T07:08:42.000Z</time>
      </trkpt>
      <trkpt lat="42.98439" lon="0.55026">
        <ele>971</ele>
        <time>2019-06-30T07:08:44.000Z</time>
      </trkpt>
      <trkpt lat="42.98439" lon="0.55024">
        <ele>972</ele>
        <time>2019-06-30T07:08:46.000Z</time>
      </trkpt>
      <trkpt lat="42.98438" lon="0.55022">
        <ele>972</ele>
        <time>2019-06-30T07:08:48.000Z</time>
      </trkpt>
      <trkpt lat="42.98438" lon="0.5502">
        <ele>973</ele>
        <time>2019-06-30T07:08:50.000Z</time>
      </trkpt>
      <trkpt lat="42.98438" lon="0.55019">
        <ele>974</ele>
        <time>2019-06-30T07:08:52.000Z</time>
      </trkpt>
      <trkpt lat="42.98438" lon="0.55017">
        <ele>974</ele>
        <time>2019-06-30T07:08:54.000Z</time>
      </trkpt>
      <trkpt lat="42.98438" lon="0.55015">
        <ele>975</ele>
        <time>2019-06-30T07:08:56.000Z</time>
      </trkpt>
      <trkpt lat="42.98439" lon="0.55014">
        <ele>975</ele>
        <time>2019-06-30T07:08:58.000Z</time>
      </trkpt>
      <trkpt lat="42.9844" lon="0.55013">
        <ele>975</ele>
        <time>2019-06-30T07:09:00.000Z</time>
      </trkpt>
      <trkpt lat="42.98441" lon="0.55012">
        <ele>975</ele>
        <time>2019-06-30T07:09:02.000Z</time>
      </trkpt>
      <trkpt lat="42.98441" lon="0.5501">
        <ele>975</ele>
        <time>2019-06-30T07:09:04.000Z</time>
      </trkpt>
      <trkpt lat="42.98442" lon="0.55008">
        <ele>976</ele>
        <time>2019-06-30T07:09:06.000Z</time>
      </trkpt>
      <trkpt lat="42.98443" lon="0.55008">
        <ele>975</ele>
        <time>2019-06-30T07:09:08.000Z</time>
      </trkpt>
      <trkpt lat="42.98444" lon="0.55007">
        <ele>975</ele>
        <time>2019-06-30T07:09:10.000Z</time>
      </trkpt>
      <trkpt lat="42.98446" lon="0.55006">
        <ele>975</ele>
        <time>2019-06-30T07:09:12.000Z</time>
      </trkpt>
      <trkpt lat="42.98447" lon="0.55006">
        <ele>974</ele>
        <time>2019-06-30T07:09:14.000Z</time>
      </trkpt>
      <trkpt lat="42.98446" lon="0.55003">
        <ele>976</ele>
        <time>2019-06-30T07:09:16.000Z</time>
      </trkpt>
      <trkpt lat="42.98447" lon="0.55002">
        <ele>976</ele>
        <time>2019-06-30T07:09:18.000Z</time>
      </trkpt>
      <trkpt lat="42.98447" lon="0.54999">
        <ele>977</ele>
        <time>2019-06-30T07:09:20.000Z</time>
      </trkpt>
      <trkpt lat="42.98448" lon="0.54998">
        <ele>977</ele>
        <time>2019-06-30T07:09:22.000Z</time>
      </trkpt>
      <trkpt lat="42.98448" lon="0.54997">
        <ele>977</ele>
        <time>2019-06-30T07:09:24.000Z</time>
      </trkpt>
      <trkpt lat="42.98447" lon="0.54993">
        <ele>978</ele>
        <time>2019-06-30T07:09:26.000Z</time>
      </trkpt>
      <trkpt lat="42.98448" lon="0.54992">
        <ele>979</ele>
        <time>2019-06-30T07:09:28.000Z</time>
      </trkpt>
      <trkpt lat="42.98449" lon="0.54991">
        <ele>979</ele>
        <time>2019-06-30T07:09:30.000Z</time>
      </trkpt>
      <trkpt lat="42.9845" lon="0.5499">
        <ele>979</ele>
        <time>2019-06-30T07:09:32.000Z</time>
      </trkpt>
      <trkpt lat="42.98451" lon="0.54989">
        <ele>979</ele>
        <time>2019-06-30T07:09:34.000Z</time>
      </trkpt>
      <trkpt lat="42.98451" lon="0.54987">
        <ele>980</ele>
        <time>2019-06-30T07:09:36.000Z</time>
      </trkpt>
      <trkpt lat="42.98451" lon="0.54986">
        <ele>980</ele>
        <time>2019-06-30T07:09:38.000Z</time>
      </trkpt>
      <trkpt lat="42.98452" lon="0.54984">
        <ele>981</ele>
        <time>2019-06-30T07:09:40.000Z</time>
      </trkpt>
      <trkpt lat="42.98454" lon="0.54984">
        <ele>980</ele>
        <time>2019-06-30T07:09:42.000Z</time>
      </trkpt>
      <trkpt lat="42.98455" lon="0.54984">
        <ele>980</ele>
        <time>2019-06-30T07:09:44.000Z</time>
      </trkpt>
      <trkpt lat="42.98456" lon="0.54982">
        <ele>980</ele>
        <time>2019-06-30T07:09:46.000Z</time>
      </trkpt>
      <trkpt lat="42.98457" lon="0.54982">
        <ele>981</ele>
        <time>2019-06-30T07:09:48.000Z</time>
      </trkpt>
      <trkpt lat="42.98459" lon="0.54981">
        <ele>981</ele>
        <time>2019-06-30T07:09:50.000Z</time>
      </trkpt>
      <trkpt lat="42.98459" lon="0.5498">
        <ele>981</ele>
        <time>2019-06-30T07:09:52.000Z</time>
      </trkpt>
      <trkpt lat="42.9846" lon="0.5498">
        <ele>981</ele>
        <time>2019-06-30T07:09:54.000Z</time>
      </trkpt>
      <trkpt lat="42.98461" lon="0.54978">
        <ele>981</ele>
        <time>2019-06-30T07:09:56.000Z</time>
      </trkpt>
      <trkpt lat="42.98462" lon="0.54978">
        <ele>981</ele>
        <time>2019-06-30T07:09:58.000Z</time>
      </trkpt>
      <trkpt lat="42.98465" lon="0.54978">
        <ele>981</ele>
        <time>2019-06-30T07:10:00.000Z</time>
      </trkpt>
      <trkpt lat="42.98467" lon="0.54977">
        <ele>981</ele>
        <time>2019-06-30T07:10:02.000Z</time>
      </trkpt>
      <trkpt lat="42.98468" lon="0.54976">
        <ele>981</ele>
        <time>2019-06-30T07:10:04.000Z</time>
      </trkpt>
      <trkpt lat="42.98469" lon="0.54975">
        <ele>981</ele>
        <time>2019-06-30T07:10:06.000Z</time>
      </trkpt>
      <trkpt lat="42.98468" lon="0.54973">
        <ele>982</ele>
        <time>2019-06-30T07:10:08.000Z</time>
      </trkpt>
      <trkpt lat="42.98468" lon="0.54972">
        <ele>982</ele>
        <time>2019-06-30T07:10:10.000Z</time>
      </trkpt>
      <trkpt lat="42.98468" lon="0.54971">
        <ele>983</ele>
        <time>2019-06-30T07:10:12.000Z</time>
      </trkpt>
      <trkpt lat="42.98468" lon="0.5497">
        <ele>983</ele>
        <time>2019-06-30T07:10:14.000Z</time>
      </trkpt>
      <trkpt lat="42.98467" lon="0.54968">
        <ele>984</ele>
        <time>2019-06-30T07:10:16.000Z</time>
      </trkpt>
      <trkpt lat="42.98468" lon="0.54967">
        <ele>984</ele>
        <time>2019-06-30T07:10:18.000Z</time>
      </trkpt>
      <trkpt lat="42.98469" lon="0.54966">
        <ele>985</ele>
        <time>2019-06-30T07:10:20.000Z</time>
      </trkpt>
      <trkpt lat="42.98469" lon="0.54965">
        <ele>985</ele>
        <time>2019-06-30T07:10:22.000Z</time>
      </trkpt>
      <trkpt lat="42.98469" lon="0.54964">
        <ele>985</ele>
        <time>2019-06-30T07:10:24.000Z</time>
      </trkpt>
      <trkpt lat="42.98469" lon="0.54963">
        <ele>985</ele>
        <time>2019-06-30T07:10:26.000Z</time>
      </trkpt>
      <trkpt lat="42.9847" lon="0.54962">
        <ele>986</ele>
        <time>2019-06-30T07:10:28.000Z</time>
      </trkpt>
      <trkpt lat="42.98471" lon="0.5496">
        <ele>986</ele>
        <time>2019-06-30T07:10:30.000Z</time>
      </trkpt>
      <trkpt lat="42.98472" lon="0.54959">
        <ele>986</ele>
        <time>2019-06-30T07:10:32.000Z</time>
      </trkpt>
      <trkpt lat="42.98473" lon="0.54958">
        <ele>986</ele>
        <time>2019-06-30T07:10:34.000Z</time>
      </trkpt>
      <trkpt lat="42.98475" lon="0.54957">
        <ele>986</ele>
        <time>2019-06-30T07:10:36.000Z</time>
      </trkpt>
      <trkpt lat="42.98476" lon="0.54956">
        <ele>986</ele>
        <time>2019-06-30T07:10:38.000Z</time>
      </trkpt>
      <trkpt lat="42.98476" lon="0.54955">
        <ele>987</ele>
        <time>2019-06-30T07:10:40.000Z</time>
      </trkpt>
      <trkpt lat="42.98474" lon="0.54953">
        <ele>987</ele>
        <time>2019-06-30T07:10:42.000Z</time>
      </trkpt>
      <trkpt lat="42.98474" lon="0.54952">
        <ele>988</ele>
        <time>2019-06-30T07:10:44.000Z</time>
      </trkpt>
      <trkpt lat="42.98475" lon="0.54952">
        <ele>988</ele>
        <time>2019-06-30T07:10:46.000Z</time>
      </trkpt>
      <trkpt lat="42.98476" lon="0.54952">
        <ele>987</ele>
        <time>2019-06-30T07:10:48.000Z</time>
      </trkpt>
      <trkpt lat="42.98476" lon="0.54952">
        <ele>987</ele>
        <time>2019-06-30T07:10:50.000Z</time>
      </trkpt>
      <trkpt lat="42.98476" lon="0.54951">
        <ele>988</ele>
        <time>2019-06-30T07:10:52.000Z</time>
      </trkpt>
      <trkpt lat="42.98477" lon="0.54952">
        <ele>987</ele>
        <time>2019-06-30T07:10:54.000Z</time>
      </trkpt>
      <trkpt lat="42.98479" lon="0.54951">
        <ele>987</ele>
        <time>2019-06-30T07:10:56.000Z</time>
      </trkpt>
      <trkpt lat="42.98481" lon="0.54952">
        <ele>987</ele>
        <time>2019-06-30T07:10:58.000Z</time>
      </trkpt>
      <trkpt lat="42.98482" lon="0.54951">
        <ele>986</ele>
        <time>2019-06-30T07:11:00.000Z</time>
      </trkpt>
      <trkpt lat="42.98484" lon="0.54951">
        <ele>986</ele>
        <time>2019-06-30T07:11:02.000Z</time>
      </trkpt>
      <trkpt lat="42.98484" lon="0.54951">
        <ele>986</ele>
        <time>2019-06-30T07:11:04.000Z</time>
      </trkpt>
      <trkpt lat="42.98485" lon="0.54951">
        <ele>986</ele>
        <time>2019-06-30T07:11:06.000Z</time>
      </trkpt>
      <trkpt lat="42.98485" lon="0.54951">
        <ele>986</ele>
        <time>2019-06-30T07:11:08.000Z</time>
      </trkpt>
      <trkpt lat="42.98485" lon="0.54951">
        <ele>986</ele>
        <time>2019-06-30T07:11:10.000Z</time>
      </trkpt>
      <trkpt lat="42.98485" lon="0.54952">
        <ele>986</ele>
        <time>2019-06-30T07:11:12.000Z</time>
      </trkpt>
      <trkpt lat="42.98485" lon="0.54952">
        <ele>985</ele>
        <time>2019-06-30T07:11:14.000Z</time>
      </trkpt>
      <trkpt lat="42.98485" lon="0.54952">
        <ele>985</ele>
        <time>2019-06-30T07:11:16.000Z</time>
      </trkpt>
      <trkpt lat="42.98486" lon="0.54952">
        <ele>985</ele>
        <time>2019-06-30T07:11:18.000Z</time>
      </trkpt>
      <trkpt lat="42.98485" lon="0.54953">
        <ele>985</ele>
        <time>2019-06-30T07:11:20.000Z</time>
      </trkpt>
      <trkpt lat="42.98485" lon="0.54952">
        <ele>985</ele>
        <time>2019-06-30T07:11:22.000Z</time>
      </trkpt>
      <trkpt lat="42.98486" lon="0.54952">
        <ele>986</ele>
        <time>2019-06-30T07:11:24.000Z</time>
      </trkpt>
      <trkpt lat="42.98486" lon="0.54951">
        <ele>986</ele>
        <time>2019-06-30T07:11:26.000Z</time>
      </trkpt>
      <trkpt lat="42.98485" lon="0.54953">
        <ele>985</ele>
        <time>2019-06-30T07:11:28.000Z</time>
      </trkpt>
      <trkpt lat="42.98485" lon="0.54952">
        <ele>985</ele>
        <time>2019-06-30T07:11:30.000Z</time>
      </trkpt>
      <trkpt lat="42.98485" lon="0.54953">
        <ele>985</ele>
        <time>2019-06-30T07:11:32.000Z</time>
      </trkpt>
      <trkpt lat="42.98485" lon="0.54954">
        <ele>985</ele>
        <time>2019-06-30T07:11:34.000Z</time>
      </trkpt>
      <trkpt lat="42.98484" lon="0.54955">
        <ele>985</ele>
        <time>2019-06-30T07:11:36.000Z</time>
      </trkpt>
      <trkpt lat="42.98483" lon="0.54955">
        <ele>985</ele>
        <time>2019-06-30T07:11:38.000Z</time>
      </trkpt>
      <trkpt lat="42.98482" lon="0.54954">
        <ele>986</ele>
        <time>2019-06-30T07:11:40.000Z</time>
      </trkpt>
      <trkpt lat="42.98481" lon="0.54954">
        <ele>986</ele>
        <time>2019-06-30T07:11:42.000Z</time>
      </trkpt>
      <trkpt lat="42.98481" lon="0.54954">
        <ele>986</ele>
        <time>2019-06-30T07:11:44.000Z</time>
      </trkpt>
      <trkpt lat="42.98483" lon="0.54953">
        <ele>986</ele>
        <time>2019-06-30T07:11:46.000Z</time>
      </trkpt>
      <trkpt lat="42.98483" lon="0.54953">
        <ele>986</ele>
        <time>2019-06-30T07:11:48.000Z</time>
      </trkpt>
      <trkpt lat="42.98483" lon="0.54953">
        <ele>986</ele>
        <time>2019-06-30T07:11:50.000Z</time>
      </trkpt>
      <trkpt lat="42.98484" lon="0.54953">
        <ele>985</ele>
        <time>2019-06-30T07:11:52.000Z</time>
      </trkpt>
      <trkpt lat="42.98485" lon="0.54952">
        <ele>986</ele>
        <time>2019-06-30T07:11:54.000Z</time>
      </trkpt>
      <trkpt lat="42.98486" lon="0.54953">
        <ele>985</ele>
        <time>2019-06-30T07:11:56.000Z</time>
      </trkpt>
      <trkpt lat="42.98486" lon="0.54953">
        <ele>985</ele>
        <time>2019-06-30T07:11:58.000Z</time>
      </trkpt>
      <trkpt lat="42.98488" lon="0.5495">
        <ele>986</ele>
        <time>2019-06-30T07:12:00.000Z</time>
      </trkpt>
      <trkpt lat="42.98489" lon="0.54949">
        <ele>986</ele>
        <time>2019-06-30T07:12:02.000Z</time>
      </trkpt>
      <trkpt lat="42.9849" lon="0.54949">
        <ele>985</ele>
        <time>2019-06-30T07:12:04.000Z</time>
      </trkpt>
      <trkpt lat="42.98492" lon="0.5495">
        <ele>985</ele>
        <time>2019-06-30T07:12:06.000Z</time>
      </trkpt>
      <trkpt lat="42.98493" lon="0.54949">
        <ele>985</ele>
        <time>2019-06-30T07:12:08.000Z</time>
      </trkpt>
      <trkpt lat="42.98492" lon="0.54949">
        <ele>985</ele>
        <time>2019-06-30T07:12:10.000Z</time>
      </trkpt>
      <trkpt lat="42.98493" lon="0.54949">
        <ele>985</ele>
        <time>2019-06-30T07:12:12.000Z</time>
      </trkpt>
      <trkpt lat="42.98493" lon="0.54948">
        <ele>986</ele>
        <time>2019-06-30T07:12:14.000Z</time>
      </trkpt>
      <trkpt lat="42.98493" lon="0.54946">
        <ele>986</ele>
        <time>2019-06-30T07:12:16.000Z</time>
      </trkpt>
      <trkpt lat="42.98494" lon="0.54945">
        <ele>986</ele>
        <time>2019-06-30T07:12:18.000Z</time>
      </trkpt>
      <trkpt lat="42.98495" lon="0.54944">
        <ele>987</ele>
        <time>2019-06-30T07:12:20.000Z</time>
      </trkpt>
      <trkpt lat="42.98495" lon="0.54942">
        <ele>987</ele>
        <time>2019-06-30T07:12:22.000Z</time>
      </trkpt>
      <trkpt lat="42.98496" lon="0.54941">
        <ele>987</ele>
        <time>2019-06-30T07:12:24.000Z</time>
      </trkpt>
      <trkpt lat="42.98496" lon="0.54939">
        <ele>988</ele>
        <time>2019-06-30T07:12:26.000Z</time>
      </trkpt>
      <trkpt lat="42.98496" lon="0.54938">
        <ele>988</ele>
        <time>2019-06-30T07:12:28.000Z</time>
      </trkpt>
      <trkpt lat="42.98497" lon="0.54937">
        <ele>989</ele>
        <time>2019-06-30T07:12:30.000Z</time>
      </trkpt>
      <trkpt lat="42.98498" lon="0.54935">
        <ele>989</ele>
        <time>2019-06-30T07:12:32.000Z</time>
      </trkpt>
      <trkpt lat="42.98499" lon="0.54934">
        <ele>989</ele>
        <time>2019-06-30T07:12:34.000Z</time>
      </trkpt>
      <trkpt lat="42.98498" lon="0.54932">
        <ele>990</ele>
        <time>2019-06-30T07:12:36.000Z</time>
      </trkpt>
      <trkpt lat="42.98498" lon="0.5493">
        <ele>991</ele>
        <time>2019-06-30T07:12:38.000Z</time>
      </trkpt>
      <trkpt lat="42.985" lon="0.54928">
        <ele>991</ele>
        <time>2019-06-30T07:12:40.000Z</time>
      </trkpt>
      <trkpt lat="42.98501" lon="0.54927">
        <ele>991</ele>
        <time>2019-06-30T07:12:42.000Z</time>
      </trkpt>
      <trkpt lat="42.98503" lon="0.54926">
        <ele>991</ele>
        <time>2019-06-30T07:12:44.000Z</time>
      </trkpt>
      <trkpt lat="42.98504" lon="0.54925">
        <ele>992</ele>
        <time>2019-06-30T07:12:46.000Z</time>
      </trkpt>
      <trkpt lat="42.98504" lon="0.54924">
        <ele>992</ele>
        <time>2019-06-30T07:12:48.000Z</time>
      </trkpt>
      <trkpt lat="42.98505" lon="0.54923">
        <ele>992</ele>
        <time>2019-06-30T07:12:50.000Z</time>
      </trkpt>
      <trkpt lat="42.98506" lon="0.54922">
        <ele>992</ele>
        <time>2019-06-30T07:12:52.000Z</time>
      </trkpt>
      <trkpt lat="42.98507" lon="0.54921">
        <ele>993</ele>
        <time>2019-06-30T07:12:54.000Z</time>
      </trkpt>
      <trkpt lat="42.98507" lon="0.5492">
        <ele>993</ele>
        <time>2019-06-30T07:12:56.000Z</time>
      </trkpt>
      <trkpt lat="42.98507" lon="0.54918">
        <ele>993</ele>
        <time>2019-06-30T07:12:58.000Z</time>
      </trkpt>
      <trkpt lat="42.98508" lon="0.54916">
        <ele>994</ele>
        <time>2019-06-30T07:13:00.000Z</time>
      </trkpt>
      <trkpt lat="42.98509" lon="0.54915">
        <ele>994</ele>
        <time>2019-06-30T07:13:02.000Z</time>
      </trkpt>
      <trkpt lat="42.9851" lon="0.54914">
        <ele>994</ele>
        <time>2019-06-30T07:13:04.000Z</time>
      </trkpt>
      <trkpt lat="42.98511" lon="0.54912">
        <ele>995</ele>
        <time>2019-06-30T07:13:06.000Z</time>
      </trkpt>
      <trkpt lat="42.98511" lon="0.54911">
        <ele>995</ele>
        <time>2019-06-30T07:13:08.000Z</time>
      </trkpt>
      <trkpt lat="42.98512" lon="0.5491">
        <ele>995</ele>
        <time>2019-06-30T07:13:10.000Z</time>
      </trkpt>
      <trkpt lat="42.98511" lon="0.54908">
        <ele>996</ele>
        <time>2019-06-30T07:13:12.000Z</time>
      </trkpt>
      <trkpt lat="42.98512" lon="0.54907">
        <ele>996</ele>
        <time>2019-06-30T07:13:14.000Z</time>
      </trkpt>
      <trkpt lat="42.98512" lon="0.54905">
        <ele>997</ele>
        <time>2019-06-30T07:13:16.000Z</time>
      </trkpt>
      <trkpt lat="42.98512" lon="0.54903">
        <ele>998</ele>
        <time>2019-06-30T07:13:18.000Z</time>
      </trkpt>
      <trkpt lat="42.98512" lon="0.54901">
        <ele>999</ele>
        <time>2019-06-30T07:13:20.000Z</time>
      </trkpt>
      <trkpt lat="42.9851" lon="0.54897">
        <ele>1000</ele>
        <time>2019-06-30T07:13:22.000Z</time>
      </trkpt>
      <trkpt lat="42.98509" lon="0.54894">
        <ele>1001</ele>
        <time>2019-06-30T07:13:24.000Z</time>
      </trkpt>
      <trkpt lat="42.98508" lon="0.54893">
        <ele>1002</ele>
        <time>2019-06-30T07:13:26.000Z</time>
      </trkpt>
      <trkpt lat="42.98508" lon="0.54894">
        <ele>1002</ele>
        <time>2019-06-30T07:13:28.000Z</time>
      </trkpt>
      <trkpt lat="42.98508" lon="0.54895">
        <ele>1001</ele>
        <time>2019-06-30T07:13:30.000Z</time>
      </trkpt>
      <trkpt lat="42.98508" lon="0.54896">
        <ele>1001</ele>
        <time>2019-06-30T07:13:32.000Z</time>
      </trkpt>
      <trkpt lat="42.98506" lon="0.54895">
        <ele>1002</ele>
        <time>2019-06-30T07:13:34.000Z</time>
      </trkpt>
      <trkpt lat="42.98506" lon="0.54895">
        <ele>1002</ele>
        <time>2019-06-30T07:13:36.000Z</time>
      </trkpt>
      <trkpt lat="42.98506" lon="0.54897">
        <ele>1001</ele>
        <time>2019-06-30T07:13:38.000Z</time>
      </trkpt>
      <trkpt lat="42.98506" lon="0.54897">
        <ele>1001</ele>
        <time>2019-06-30T07:13:40.000Z</time>
      </trkpt>
      <trkpt lat="42.98504" lon="0.54896">
        <ele>1002</ele>
        <time>2019-06-30T07:13:42.000Z</time>
      </trkpt>
      <trkpt lat="42.98503" lon="0.54897">
        <ele>1002</ele>
        <time>2019-06-30T07:13:44.000Z</time>
      </trkpt>
      <trkpt lat="42.98503" lon="0.54897">
        <ele>1001</ele>
        <time>2019-06-30T07:13:46.000Z</time>
      </trkpt>
      <trkpt lat="42.98503" lon="0.54897">
        <ele>1002</ele>
        <time>2019-06-30T07:13:48.000Z</time>
      </trkpt>
      <trkpt lat="42.98503" lon="0.54897">
        <ele>1002</ele>
        <time>2019-06-30T07:13:50.000Z</time>
      </trkpt>
      <trkpt lat="42.98502" lon="0.54897">
        <ele>1002</ele>
        <time>2019-06-30T07:13:52.000Z</time>
      </trkpt>
      <trkpt lat="42.98503" lon="0.54898">
        <ele>1001</ele>
        <time>2019-06-30T07:13:54.000Z</time>
      </trkpt>
      <trkpt lat="42.98504" lon="0.54898">
        <ele>1001</ele>
        <time>2019-06-30T07:13:56.000Z</time>
      </trkpt>
      <trkpt lat="42.98504" lon="0.54897">
        <ele>1001</ele>
        <time>2019-06-30T07:13:58.000Z</time>
      </trkpt>
      <trkpt lat="42.98505" lon="0.54897">
        <ele>1001</ele>
        <time>2019-06-30T07:14:00.000Z</time>
      </trkpt>
      <trkpt lat="42.98505" lon="0.54896">
        <ele>1001</ele>
        <time>2019-06-30T07:14:02.000Z</time>
      </trkpt>
      <trkpt lat="42.98505" lon="0.54896">
        <ele>1002</ele>
        <time>2019-06-30T07:14:04.000Z</time>
      </trkpt>
      <trkpt lat="42.98506" lon="0.54895">
        <ele>1002</ele>
        <time>2019-06-30T07:14:06.000Z</time>
      </trkpt>
      <trkpt lat="42.98506" lon="0.54895">
        <ele>1002</ele>
        <time>2019-06-30T07:14:08.000Z</time>
      </trkpt>
      <trkpt lat="42.98506" lon="0.54895">
        <ele>1002</ele>
        <time>2019-06-30T07:14:10.000Z</time>
      </trkpt>
      <trkpt lat="42.98506" lon="0.54895">
        <ele>1002</ele>
        <time>2019-06-30T07:14:12.000Z</time>
      </trkpt>
      <trkpt lat="42.98506" lon="0.54895">
        <ele>1002</ele>
        <time>2019-06-30T07:14:14.000Z</time>
      </trkpt>
      <trkpt lat="42.98506" lon="0.54896">
        <ele>1001</ele>
        <time>2019-06-30T07:14:16.000Z</time>
      </trkpt>
      <trkpt lat="42.98506" lon="0.54895">
        <ele>1002</ele>
        <time>2019-06-30T07:14:18.000Z</time>
      </trkpt>
      <trkpt lat="42.98506" lon="0.54894">
        <ele>1002</ele>
        <time>2019-06-30T07:14:20.000Z</time>
      </trkpt>
      <trkpt lat="42.98506" lon="0.54894">
        <ele>1002</ele>
        <time>2019-06-30T07:14:22.000Z</time>
      </trkpt>
      <trkpt lat="42.98507" lon="0.54894">
        <ele>1002</ele>
        <time>2019-06-30T07:14:24.000Z</time>
      </trkpt>
      <trkpt lat="42.98506" lon="0.54894">
        <ele>1002</ele>
        <time>2019-06-30T07:14:26.000Z</time>
      </trkpt>
      <trkpt lat="42.98503" lon="0.54893">
        <ele>1003</ele>
        <time>2019-06-30T07:14:28.000Z</time>
      </trkpt>
      <trkpt lat="42.98503" lon="0.54892">
        <ele>1003</ele>
        <time>2019-06-30T07:14:30.000Z</time>
      </trkpt>
      <trkpt lat="42.98503" lon="0.54892">
        <ele>1003</ele>
        <time>2019-06-30T07:14:32.000Z</time>
      </trkpt>
      <trkpt lat="42.98502" lon="0.54892">
        <ele>1003</ele>
        <time>2019-06-30T07:14:34.000Z</time>
      </trkpt>
      <trkpt lat="42.98502" lon="0.54892">
        <ele>1003</ele>
        <time>2019-06-30T07:14:36.000Z</time>
      </trkpt>
      <trkpt lat="42.98501" lon="0.54892">
        <ele>1004</ele>
        <time>2019-06-30T07:14:38.000Z</time>
      </trkpt>
      <trkpt lat="42.985" lon="0.54893">
        <ele>1003</ele>
        <time>2019-06-30T07:14:40.000Z</time>
      </trkpt>
      <trkpt lat="42.98499" lon="0.54893">
        <ele>1004</ele>
        <time>2019-06-30T07:14:42.000Z</time>
      </trkpt>
      <trkpt lat="42.98499" lon="0.54893">
        <ele>1003</ele>
        <time>2019-06-30T07:14:44.000Z</time>
      </trkpt>
      <trkpt lat="42.98498" lon="0.54894">
        <ele>1003</ele>
        <time>2019-06-30T07:14:46.000Z</time>
      </trkpt>
      <trkpt lat="42.98498" lon="0.54894">
        <ele>1003</ele>
        <time>2019-06-30T07:14:48.000Z</time>
      </trkpt>
      <trkpt lat="42.98497" lon="0.54894">
        <ele>1003</ele>
        <time>2019-06-30T07:14:50.000Z</time>
      </trkpt>
      <trkpt lat="42.98497" lon="0.54895">
        <ele>1003</ele>
        <time>2019-06-30T07:14:52.000Z</time>
      </trkpt>
      <trkpt lat="42.98497" lon="0.54896">
        <ele>1003</ele>
        <time>2019-06-30T07:14:54.000Z</time>
      </trkpt>
      <trkpt lat="42.98496" lon="0.54896">
        <ele>1003</ele>
        <time>2019-06-30T07:14:56.000Z</time>
      </trkpt>
      <trkpt lat="42.98496" lon="0.54896">
        <ele>1003</ele>
        <time>2019-06-30T07:14:58.000Z</time>
      </trkpt>
      <trkpt lat="42.98496" lon="0.54896">
        <ele>1003</ele>
        <time>2019-06-30T07:15:00.000Z</time>
      </trkpt>
      <trkpt lat="42.98496" lon="0.54895">
        <ele>1003</ele>
        <time>2019-06-30T07:15:02.000Z</time>
      </trkpt>
      <trkpt lat="42.98497" lon="0.54895">
        <ele>1003</ele>
        <time>2019-06-30T07:15:04.000Z</time>
      </trkpt>
      <trkpt lat="42.98497" lon="0.54895">
        <ele>1003</ele>
        <time>2019-06-30T07:15:06.000Z</time>
      </trkpt>
      <trkpt lat="42.98497" lon="0.54894">
        <ele>1003</ele>
        <time>2019-06-30T07:15:08.000Z</time>
      </trkpt>
      <trkpt lat="42.98498" lon="0.54893">
        <ele>1004</ele>
        <time>2019-06-30T07:15:10.000Z</time>
      </trkpt>
      <trkpt lat="42.98498" lon="0.54892">
        <ele>1004</ele>
        <time>2019-06-30T07:15:12.000Z</time>
      </trkpt>
      <trkpt lat="42.98498" lon="0.54891">
        <ele>1004</ele>
        <time>2019-06-30T07:15:14.000Z</time>
      </trkpt>
      <trkpt lat="42.98498" lon="0.5489">
        <ele>1005</ele>
        <time>2019-06-30T07:15:16.000Z</time>
      </trkpt>
      <trkpt lat="42.98498" lon="0.5489">
        <ele>1005</ele>
        <time>2019-06-30T07:15:18.000Z</time>
      </trkpt>
      <trkpt lat="42.98498" lon="0.5489">
        <ele>1005</ele>
        <time>2019-06-30T07:15:20.000Z</time>
      </trkpt>
      <trkpt lat="42.98498" lon="0.5489">
        <ele>1005</ele>
        <time>2019-06-30T07:15:22.000Z</time>
      </trkpt>
      <trkpt lat="42.98499" lon="0.5489">
        <ele>1004</ele>
        <time>2019-06-30T07:15:24.000Z</time>
      </trkpt>
      <trkpt lat="42.98499" lon="0.54891">
        <ele>1004</ele>
        <time>2019-06-30T07:15:26.000Z</time>
      </trkpt>
      <trkpt lat="42.98499" lon="0.54891">
        <ele>1004</ele>
        <time>2019-06-30T07:15:28.000Z</time>
      </trkpt>
      <trkpt lat="42.98499" lon="0.54891">
        <ele>1004</ele>
        <time>2019-06-30T07:15:30.000Z</time>
      </trkpt>
      <trkpt lat="42.985" lon="0.54892">
        <ele>1004</ele>
        <time>2019-06-30T07:15:32.000Z</time>
      </trkpt>
      <trkpt lat="42.98501" lon="0.54893">
        <ele>1003</ele>
        <time>2019-06-30T07:15:34.000Z</time>
      </trkpt>
      <trkpt lat="42.98503" lon="0.54894">
        <ele>1002</ele>
        <time>2019-06-30T07:15:36.000Z</time>
      </trkpt>
      <trkpt lat="42.98505" lon="0.54895">
        <ele>1002</ele>
        <time>2019-06-30T07:15:38.000Z</time>
      </trkpt>
      <trkpt lat="42.98506" lon="0.54896">
        <ele>1001</ele>
        <time>2019-06-30T07:15:40.000Z</time>
      </trkpt>
      <trkpt lat="42.98507" lon="0.54895">
        <ele>1001</ele>
        <time>2019-06-30T07:15:42.000Z</time>
      </trkpt>
      <trkpt lat="42.98507" lon="0.54896">
        <ele>1001</ele>
        <time>2019-06-30T07:15:44.000Z</time>
      </trkpt>
      <trkpt lat="42.98507" lon="0.54895">
        <ele>1001</ele>
        <time>2019-06-30T07:15:46.000Z</time>
      </trkpt>
      <trkpt lat="42.98507" lon="0.54895">
        <ele>1001</ele>
        <time>2019-06-30T07:15:48.000Z</time>
      </trkpt>
      <trkpt lat="42.98507" lon="0.54895">
        <ele>1002</ele>
        <time>2019-06-30T07:15:50.000Z</time>
      </trkpt>
      <trkpt lat="42.98506" lon="0.54895">
        <ele>1001</ele>
        <time>2019-06-30T07:15:52.000Z</time>
      </trkpt>
      <trkpt lat="42.98506" lon="0.54895">
        <ele>1002</ele>
        <time>2019-06-30T07:15:54.000Z</time>
      </trkpt>
      <trkpt lat="42.98506" lon="0.54894">
        <ele>1002</ele>
        <time>2019-06-30T07:15:56.000Z</time>
      </trkpt>
      <trkpt lat="42.98507" lon="0.54893">
        <ele>1002</ele>
        <time>2019-06-30T07:15:58.000Z</time>
      </trkpt>
      <trkpt lat="42.98507" lon="0.54893">
        <ele>1002</ele>
        <time>2019-06-30T07:16:00.000Z</time>
      </trkpt>
      <trkpt lat="42.98507" lon="0.54892">
        <ele>1003</ele>
        <time>2019-06-30T07:16:02.000Z</time>
      </trkpt>
      <trkpt lat="42.98507" lon="0.54891">
        <ele>1003</ele>
        <time>2019-06-30T07:16:04.000Z</time>
      </trkpt>
      <trkpt lat="42.98507" lon="0.54891">
        <ele>1003</ele>
        <time>2019-06-30T07:16:06.000Z</time>
      </trkpt>
      <trkpt lat="42.98508" lon="0.5489">
        <ele>1003</ele>
        <time>2019-06-30T07:16:08.000Z</time>
      </trkpt>
      <trkpt lat="42.98507" lon="0.5489">
        <ele>1003</ele>
        <time>2019-06-30T07:16:10.000Z</time>
      </trkpt>
      <trkpt lat="42.98506" lon="0.5489">
        <ele>1003</ele>
        <time>2019-06-30T07:16:12.000Z</time>
      </trkpt>
      <trkpt lat="42.98504" lon="0.54889">
        <ele>1004</ele>
        <time>2019-06-30T07:16:14.000Z</time>
      </trkpt>
      <trkpt lat="42.98504" lon="0.54889">
        <ele>1004</ele>
        <time>2019-06-30T07:16:16.000Z</time>
      </trkpt>
      <trkpt lat="42.98503" lon="0.54888">
        <ele>1004</ele>
        <time>2019-06-30T07:16:18.000Z</time>
      </trkpt>
      <trkpt lat="42.98503" lon="0.54887">
        <ele>1005</ele>
        <time>2019-06-30T07:16:20.000Z</time>
      </trkpt>
      <trkpt lat="42.98503" lon="0.54887">
        <ele>1005</ele>
        <time>2019-06-30T07:16:22.000Z</time>
      </trkpt>
      <trkpt lat="42.98503" lon="0.54887">
        <ele>1005</ele>
        <time>2019-06-30T07:16:24.000Z</time>
      </trkpt>
      <trkpt lat="42.98503" lon="0.54886">
        <ele>1005</ele>
        <time>2019-06-30T07:16:26.000Z</time>
      </trkpt>
      <trkpt lat="42.98503" lon="0.54886">
        <ele>1005</ele>
        <time>2019-06-30T07:16:28.000Z</time>
      </trkpt>
      <trkpt lat="42.98503" lon="0.54885">
        <ele>1006</ele>
        <time>2019-06-30T07:16:30.000Z</time>
      </trkpt>
      <trkpt lat="42.98503" lon="0.54885">
        <ele>1006</ele>
        <time>2019-06-30T07:16:32.000Z</time>
      </trkpt>
      <trkpt lat="42.98502" lon="0.54884">
        <ele>1006</ele>
        <time>2019-06-30T07:16:34.000Z</time>
      </trkpt>
      <trkpt lat="42.98502" lon="0.54884">
        <ele>1006</ele>
        <time>2019-06-30T07:16:36.000Z</time>
      </trkpt>
      <trkpt lat="42.98502" lon="0.54883">
        <ele>1006</ele>
        <time>2019-06-30T07:16:38.000Z</time>
      </trkpt>
      <trkpt lat="42.98503" lon="0.54884">
        <ele>1006</ele>
        <time>2019-06-30T07:16:40.000Z</time>
      </trkpt>
      <trkpt lat="42.98503" lon="0.54885">
        <ele>1006</ele>
        <time>2019-06-30T07:16:42.000Z</time>
      </trkpt>
      <trkpt lat="42.98503" lon="0.54886">
        <ele>1005</ele>
        <time>2019-06-30T07:16:44.000Z</time>
      </trkpt>
      <trkpt lat="42.98503" lon="0.54887">
        <ele>1005</ele>
        <time>2019-06-30T07:16:46.000Z</time>
      </trkpt>
      <trkpt lat="42.98504" lon="0.54888">
        <ele>1004</ele>
        <time>2019-06-30T07:16:48.000Z</time>
      </trkpt>
      <trkpt lat="42.98504" lon="0.54889">
        <ele>1004</ele>
        <time>2019-06-30T07:16:50.000Z</time>
      </trkpt>
      <trkpt lat="42.98504" lon="0.54889">
        <ele>1004</ele>
        <time>2019-06-30T07:16:52.000Z</time>
      </trkpt>
      <trkpt lat="42.98505" lon="0.5489">
        <ele>1003</ele>
        <time>2019-06-30T07:16:54.000Z</time>
      </trkpt>
      <trkpt lat="42.98505" lon="0.54891">
        <ele>1003</ele>
        <time>2019-06-30T07:16:56.000Z</time>
      </trkpt>
      <trkpt lat="42.98506" lon="0.54892">
        <ele>1003</ele>
        <time>2019-06-30T07:16:58.000Z</time>
      </trkpt>
      <trkpt lat="42.98506" lon="0.54893">
        <ele>1002</ele>
        <time>2019-06-30T07:17:00.000Z</time>
      </trkpt>
      <trkpt lat="42.98506" lon="0.54893">
        <ele>1003</ele>
        <time>2019-06-30T07:17:02.000Z</time>
      </trkpt>
      <trkpt lat="42.98506" lon="0.54893">
        <ele>1003</ele>
        <time>2019-06-30T07:17:04.000Z</time>
      </trkpt>
      <trkpt lat="42.98506" lon="0.54893">
        <ele>1002</ele>
        <time>2019-06-30T07:17:06.000Z</time>
      </trkpt>
      <trkpt lat="42.98506" lon="0.54893">
        <ele>1002</ele>
        <time>2019-06-30T07:17:08.000Z</time>
      </trkpt>
      <trkpt lat="42.98506" lon="0.54893">
        <ele>1002</ele>
        <time>2019-06-30T07:17:10.000Z</time>
      </trkpt>
      <trkpt lat="42.98506" lon="0.54892">
        <ele>1003</ele>
        <time>2019-06-30T07:17:12.000Z</time>
      </trkpt>
      <trkpt lat="42.98507" lon="0.54892">
        <ele>1002</ele>
        <time>2019-06-30T07:17:14.000Z</time>
      </trkpt>
      <trkpt lat="42.98507" lon="0.54893">
        <ele>1002</ele>
        <time>2019-06-30T07:17:16.000Z</time>
      </trkpt>
      <trkpt lat="42.98507" lon="0.54893">
        <ele>1002</ele>
        <time>2019-06-30T07:17:18.000Z</time>
      </trkpt>
      <trkpt lat="42.98503" lon="0.54893">
        <ele>1003</ele>
        <time>2019-06-30T07:17:20.000Z</time>
      </trkpt>
      <trkpt lat="42.98502" lon="0.54893">
        <ele>1003</ele>
        <time>2019-06-30T07:17:22.000Z</time>
      </trkpt>
      <trkpt lat="42.98499" lon="0.54895">
        <ele>1003</ele>
        <time>2019-06-30T07:17:24.000Z</time>
      </trkpt>
      <trkpt lat="42.98498" lon="0.54895">
        <ele>1003</ele>
        <time>2019-06-30T07:17:26.000Z</time>
      </trkpt>
      <trkpt lat="42.98497" lon="0.54896">
        <ele>1003</ele>
        <time>2019-06-30T07:17:28.000Z</time>
      </trkpt>
      <trkpt lat="42.98496" lon="0.54897">
        <ele>1002</ele>
        <time>2019-06-30T07:17:30.000Z</time>
      </trkpt>
      <trkpt lat="42.98495" lon="0.54897">
        <ele>1003</ele>
        <time>2019-06-30T07:17:32.000Z</time>
      </trkpt>
      <trkpt lat="42.98495" lon="0.54898">
        <ele>1002</ele>
        <time>2019-06-30T07:17:34.000Z</time>
      </trkpt>
      <trkpt lat="42.98494" lon="0.54899">
        <ele>1002</ele>
        <time>2019-06-30T07:17:36.000Z</time>
      </trkpt>
      <trkpt lat="42.98493" lon="0.54899">
        <ele>1002</ele>
        <time>2019-06-30T07:17:38.000Z</time>
      </trkpt>
      <trkpt lat="42.98493" lon="0.54899">
        <ele>1002</ele>
        <time>2019-06-30T07:17:40.000Z</time>
      </trkpt>
      <trkpt lat="42.98493" lon="0.549">
        <ele>1002</ele>
        <time>2019-06-30T07:17:42.000Z</time>
      </trkpt>
      <trkpt lat="42.98492" lon="0.54901">
        <ele>1002</ele>
        <time>2019-06-30T07:17:44.000Z</time>
      </trkpt>
      <trkpt lat="42.98493" lon="0.549">
        <ele>1002</ele>
        <time>2019-06-30T07:17:46.000Z</time>
      </trkpt>
      <trkpt lat="42.98494" lon="0.549">
        <ele>1002</ele>
        <time>2019-06-30T07:17:48.000Z</time>
      </trkpt>
      <trkpt lat="42.98495" lon="0.549">
        <ele>1002</ele>
        <time>2019-06-30T07:17:50.000Z</time>
      </trkpt>
      <trkpt lat="42.98495" lon="0.549">
        <ele>1002</ele>
        <time>2019-06-30T07:17:52.000Z</time>
      </trkpt>
      <trkpt lat="42.98496" lon="0.549">
        <ele>1002</ele>
        <time>2019-06-30T07:17:54.000Z</time>
      </trkpt>
      <trkpt lat="42.98496" lon="0.54901">
        <ele>1001</ele>
        <time>2019-06-30T07:17:56.000Z</time>
      </trkpt>
      <trkpt lat="42.98496" lon="0.54901">
        <ele>1001</ele>
        <time>2019-06-30T07:17:58.000Z</time>
      </trkpt>
      <trkpt lat="42.98497" lon="0.549">
        <ele>1001</ele>
        <time>2019-06-30T07:18:00.000Z</time>
      </trkpt>
      <trkpt lat="42.98497" lon="0.549">
        <ele>1001</ele>
        <time>2019-06-30T07:18:02.000Z</time>
      </trkpt>
      <trkpt lat="42.98497" lon="0.54902">
        <ele>1001</ele>
        <time>2019-06-30T07:18:04.000Z</time>
      </trkpt>
      <trkpt lat="42.98497" lon="0.54902">
        <ele>1001</ele>
        <time>2019-06-30T07:18:06.000Z</time>
      </trkpt>
      <trkpt lat="42.98496" lon="0.54903">
        <ele>1001</ele>
        <time>2019-06-30T07:18:08.000Z</time>
      </trkpt>
      <trkpt lat="42.98496" lon="0.54903">
        <ele>1000</ele>
        <time>2019-06-30T07:18:10.000Z</time>
      </trkpt>
      <trkpt lat="42.98496" lon="0.54903">
        <ele>1000</ele>
        <time>2019-06-30T07:18:12.000Z</time>
      </trkpt>
      <trkpt lat="42.98496" lon="0.54903">
        <ele>1001</ele>
        <time>2019-06-30T07:18:14.000Z</time>
      </trkpt>
      <trkpt lat="42.98495" lon="0.54902">
        <ele>1001</ele>
        <time>2019-06-30T07:18:16.000Z</time>
      </trkpt>
      <trkpt lat="42.98494" lon="0.54902">
        <ele>1001</ele>
        <time>2019-06-30T07:18:18.000Z</time>
      </trkpt>
      <trkpt lat="42.98494" lon="0.54902">
        <ele>1001</ele>
        <time>2019-06-30T07:18:20.000Z</time>
      </trkpt>
      <trkpt lat="42.98493" lon="0.54901">
        <ele>1002</ele>
        <time>2019-06-30T07:18:22.000Z</time>
      </trkpt>
      <trkpt lat="42.98492" lon="0.549">
        <ele>1002</ele>
        <time>2019-06-30T07:18:24.000Z</time>
      </trkpt>
      <trkpt lat="42.98492" lon="0.549">
        <ele>1002</ele>
        <time>2019-06-30T07:18:26.000Z</time>
      </trkpt>
      <trkpt lat="42.98491" lon="0.549">
        <ele>1002</ele>
        <time>2019-06-30T07:18:28.000Z</time>
      </trkpt>
      <trkpt lat="42.98489" lon="0.549">
        <ele>1003</ele>
        <time>2019-06-30T07:18:30.000Z</time>
      </trkpt>
      <trkpt lat="42.98488" lon="0.54901">
        <ele>1003</ele>
        <time>2019-06-30T07:18:32.000Z</time>
      </trkpt>
      <trkpt lat="42.98488" lon="0.54901">
        <ele>1003</ele>
        <time>2019-06-30T07:18:34.000Z</time>
      </trkpt>
      <trkpt lat="42.98487" lon="0.54902">
        <ele>1003</ele>
        <time>2019-06-30T07:18:36.000Z</time>
      </trkpt>
      <trkpt lat="42.98486" lon="0.54902">
        <ele>1003</ele>
        <time>2019-06-30T07:18:38.000Z</time>
      </trkpt>
      <trkpt lat="42.98486" lon="0.54902">
        <ele>1003</ele>
        <time>2019-06-30T07:18:40.000Z</time>
      </trkpt>
      <trkpt lat="42.98485" lon="0.54903">
        <ele>1003</ele>
        <time>2019-06-30T07:18:42.000Z</time>
      </trkpt>
      <trkpt lat="42.98483" lon="0.54903">
        <ele>1003</ele>
        <time>2019-06-30T07:18:44.000Z</time>
      </trkpt>
      <trkpt lat="42.98482" lon="0.54902">
        <ele>1003</ele>
        <time>2019-06-30T07:18:46.000Z</time>
      </trkpt>
      <trkpt lat="42.98481" lon="0.54902">
        <ele>1003</ele>
        <time>2019-06-30T07:18:48.000Z</time>
      </trkpt>
      <trkpt lat="42.98479" lon="0.54902">
        <ele>1004</ele>
        <time>2019-06-30T07:18:50.000Z</time>
      </trkpt>
      <trkpt lat="42.98479" lon="0.54902">
        <ele>1004</ele>
        <time>2019-06-30T07:18:52.000Z</time>
      </trkpt>
      <trkpt lat="42.98477" lon="0.54901">
        <ele>1004</ele>
        <time>2019-06-30T07:18:54.000Z</time>
      </trkpt>
      <trkpt lat="42.98476" lon="0.54901">
        <ele>1005</ele>
        <time>2019-06-30T07:18:56.000Z</time>
      </trkpt>
      <trkpt lat="42.98475" lon="0.549">
        <ele>1005</ele>
        <time>2019-06-30T07:18:58.000Z</time>
      </trkpt>
      <trkpt lat="42.98474" lon="0.549">
        <ele>1005</ele>
        <time>2019-06-30T07:19:00.000Z</time>
      </trkpt>
      <trkpt lat="42.98472" lon="0.549">
        <ele>1005</ele>
        <time>2019-06-30T07:19:02.000Z</time>
      </trkpt>
      <trkpt lat="42.98471" lon="0.549">
        <ele>1006</ele>
        <time>2019-06-30T07:19:04.000Z</time>
      </trkpt>
      <trkpt lat="42.98471" lon="0.549">
        <ele>1006</ele>
        <time>2019-06-30T07:19:06.000Z</time>
      </trkpt>
      <trkpt lat="42.98469" lon="0.549">
        <ele>1006</ele>
        <time>2019-06-30T07:19:08.000Z</time>
      </trkpt>
      <trkpt lat="42.98468" lon="0.54901">
        <ele>1006</ele>
        <time>2019-06-30T07:19:10.000Z</time>
      </trkpt>
      <trkpt lat="42.98466" lon="0.54901">
        <ele>1006</ele>
        <time>2019-06-30T07:19:12.000Z</time>
      </trkpt>
      <trkpt lat="42.98465" lon="0.549">
        <ele>1007</ele>
        <time>2019-06-30T07:19:14.000Z</time>
      </trkpt>
      <trkpt lat="42.98464" lon="0.549">
        <ele>1007</ele>
        <time>2019-06-30T07:19:16.000Z</time>
      </trkpt>
      <trkpt lat="42.98463" lon="0.549">
        <ele>1007</ele>
        <time>2019-06-30T07:19:18.000Z</time>
      </trkpt>
      <trkpt lat="42.98462" lon="0.54901">
        <ele>1007</ele>
        <time>2019-06-30T07:19:20.000Z</time>
      </trkpt>
      <trkpt lat="42.98459" lon="0.54903">
        <ele>1007</ele>
        <time>2019-06-30T07:19:22.000Z</time>
      </trkpt>
      <trkpt lat="42.98457" lon="0.54903">
        <ele>1007</ele>
        <time>2019-06-30T07:19:24.000Z</time>
      </trkpt>
      <trkpt lat="42.98455" lon="0.54903">
        <ele>1007</ele>
        <time>2019-06-30T07:19:26.000Z</time>
      </trkpt>
      <trkpt lat="42.98453" lon="0.54903">
        <ele>1008</ele>
        <time>2019-06-30T07:19:28.000Z</time>
      </trkpt>
      <trkpt lat="42.98452" lon="0.54903">
        <ele>1008</ele>
        <time>2019-06-30T07:19:30.000Z</time>
      </trkpt>
      <trkpt lat="42.98451" lon="0.54904">
        <ele>1008</ele>
        <time>2019-06-30T07:19:32.000Z</time>
      </trkpt>
      <trkpt lat="42.9845" lon="0.54904">
        <ele>1008</ele>
        <time>2019-06-30T07:19:34.000Z</time>
      </trkpt>
      <trkpt lat="42.98447" lon="0.54905">
        <ele>1008</ele>
        <time>2019-06-30T07:19:36.000Z</time>
      </trkpt>
      <trkpt lat="42.98445" lon="0.54906">
        <ele>1008</ele>
        <time>2019-06-30T07:19:38.000Z</time>
      </trkpt>
      <trkpt lat="42.98444" lon="0.54906">
        <ele>1008</ele>
        <time>2019-06-30T07:19:40.000Z</time>
      </trkpt>
      <trkpt lat="42.98442" lon="0.54906">
        <ele>1009</ele>
        <time>2019-06-30T07:19:42.000Z</time>
      </trkpt>
      <trkpt lat="42.9844" lon="0.54906">
        <ele>1009</ele>
        <time>2019-06-30T07:19:44.000Z</time>
      </trkpt>
      <trkpt lat="42.98438" lon="0.54905">
        <ele>1010</ele>
        <time>2019-06-30T07:19:46.000Z</time>
      </trkpt>
      <trkpt lat="42.98437" lon="0.54903">
        <ele>1011</ele>
        <time>2019-06-30T07:19:48.000Z</time>
      </trkpt>
      <trkpt lat="42.98435" lon="0.54903">
        <ele>1011</ele>
        <time>2019-06-30T07:19:50.000Z</time>
      </trkpt>
      <trkpt lat="42.98433" lon="0.54902">
        <ele>1012</ele>
        <time>2019-06-30T07:19:52.000Z</time>
      </trkpt>
      <trkpt lat="42.98431" lon="0.54901">
        <ele>1012</ele>
        <time>2019-06-30T07:19:54.000Z</time>
      </trkpt>
      <trkpt lat="42.98429" lon="0.54899">
        <ele>1014</ele>
        <time>2019-06-30T07:19:56.000Z</time>
      </trkpt>
      <trkpt lat="42.98427" lon="0.54897">
        <ele>1014</ele>
        <time>2019-06-30T07:19:58.000Z</time>
      </trkpt>
      <trkpt lat="42.98426" lon="0.54897">
        <ele>1015</ele>
        <time>2019-06-30T07:20:00.000Z</time>
      </trkpt>
      <trkpt lat="42.98425" lon="0.54895">
        <ele>1016</ele>
        <time>2019-06-30T07:20:02.000Z</time>
      </trkpt>
      <trkpt lat="42.98423" lon="0.54894">
        <ele>1017</ele>
        <time>2019-06-30T07:20:04.000Z</time>
      </trkpt>
      <trkpt lat="42.98422" lon="0.54894">
        <ele>1017</ele>
        <time>2019-06-30T07:20:06.000Z</time>
      </trkpt>
      <trkpt lat="42.9842" lon="0.54894">
        <ele>1018</ele>
        <time>2019-06-30T07:20:08.000Z</time>
      </trkpt>
      <trkpt lat="42.98417" lon="0.54894">
        <ele>1018</ele>
        <time>2019-06-30T07:20:10.000Z</time>
      </trkpt>
      <trkpt lat="42.98416" lon="0.54894">
        <ele>1018</ele>
        <time>2019-06-30T07:20:12.000Z</time>
      </trkpt>
      <trkpt lat="42.98414" lon="0.54894">
        <ele>1019</ele>
        <time>2019-06-30T07:20:14.000Z</time>
      </trkpt>
      <trkpt lat="42.98413" lon="0.54894">
        <ele>1019</ele>
        <time>2019-06-30T07:20:16.000Z</time>
      </trkpt>
      <trkpt lat="42.98411" lon="0.54895">
        <ele>1020</ele>
        <time>2019-06-30T07:20:18.000Z</time>
      </trkpt>
      <trkpt lat="42.98409" lon="0.54894">
        <ele>1020</ele>
        <time>2019-06-30T07:20:20.000Z</time>
      </trkpt>
      <trkpt lat="42.98408" lon="0.54894">
        <ele>1021</ele>
        <time>2019-06-30T07:20:22.000Z</time>
      </trkpt>
      <trkpt lat="42.98405" lon="0.54895">
        <ele>1021</ele>
        <time>2019-06-30T07:20:24.000Z</time>
      </trkpt>
      <trkpt lat="42.98403" lon="0.54895">
        <ele>1022</ele>
        <time>2019-06-30T07:20:26.000Z</time>
      </trkpt>
      <trkpt lat="42.98401" lon="0.54895">
        <ele>1023</ele>
        <time>2019-06-30T07:20:28.000Z</time>
      </trkpt>
      <trkpt lat="42.984" lon="0.54895">
        <ele>1023</ele>
        <time>2019-06-30T07:20:30.000Z</time>
      </trkpt>
      <trkpt lat="42.98399" lon="0.54895">
        <ele>1023</ele>
        <time>2019-06-30T07:20:32.000Z</time>
      </trkpt>
      <trkpt lat="42.98397" lon="0.54895">
        <ele>1023</ele>
        <time>2019-06-30T07:20:34.000Z</time>
      </trkpt>
      <trkpt lat="42.98397" lon="0.54896">
        <ele>1023</ele>
        <time>2019-06-30T07:20:36.000Z</time>
      </trkpt>
      <trkpt lat="42.98395" lon="0.54897">
        <ele>1024</ele>
        <time>2019-06-30T07:20:38.000Z</time>
      </trkpt>
      <trkpt lat="42.98394" lon="0.54897">
        <ele>1024</ele>
        <time>2019-06-30T07:20:40.000Z</time>
      </trkpt>
      <trkpt lat="42.98393" lon="0.54897">
        <ele>1024</ele>
        <time>2019-06-30T07:20:42.000Z</time>
      </trkpt>
      <trkpt lat="42.98391" lon="0.54897">
        <ele>1025</ele>
        <time>2019-06-30T07:20:44.000Z</time>
      </trkpt>
      <trkpt lat="42.9839" lon="0.54898">
        <ele>1025</ele>
        <time>2019-06-30T07:20:46.000Z</time>
      </trkpt>
      <trkpt lat="42.98388" lon="0.54898">
        <ele>1025</ele>
        <time>2019-06-30T07:20:48.000Z</time>
      </trkpt>
      <trkpt lat="42.98387" lon="0.54898">
        <ele>1026</ele>
        <time>2019-06-30T07:20:50.000Z</time>
      </trkpt>
      <trkpt lat="42.98386" lon="0.54898">
        <ele>1026</ele>
        <time>2019-06-30T07:20:52.000Z</time>
      </trkpt>
      <trkpt lat="42.98385" lon="0.54898">
        <ele>1026</ele>
        <time>2019-06-30T07:20:54.000Z</time>
      </trkpt>
      <trkpt lat="42.98384" lon="0.54898">
        <ele>1026</ele>
        <time>2019-06-30T07:20:56.000Z</time>
      </trkpt>
      <trkpt lat="42.98383" lon="0.54899">
        <ele>1026</ele>
        <time>2019-06-30T07:20:58.000Z</time>
      </trkpt>
      <trkpt lat="42.98381" lon="0.549">
        <ele>1027</ele>
        <time>2019-06-30T07:21:00.000Z</time>
      </trkpt>
      <trkpt lat="42.9838" lon="0.54901">
        <ele>1027</ele>
        <time>2019-06-30T07:21:02.000Z</time>
      </trkpt>
      <trkpt lat="42.98378" lon="0.54901">
        <ele>1027</ele>
        <time>2019-06-30T07:21:04.000Z</time>
      </trkpt>
      <trkpt lat="42.98377" lon="0.54901">
        <ele>1027</ele>
        <time>2019-06-30T07:21:06.000Z</time>
      </trkpt>
      <trkpt lat="42.98376" lon="0.54901">
        <ele>1028</ele>
        <time>2019-06-30T07:21:08.000Z</time>
      </trkpt>
      <trkpt lat="42.98374" lon="0.54901">
        <ele>1028</ele>
        <time>2019-06-30T07:21:10.000Z</time>
      </trkpt>
      <trkpt lat="42.98372" lon="0.54901">
        <ele>1029</ele>
        <time>2019-06-30T07:21:12.000Z</time>
      </trkpt>
      <trkpt lat="42.9837" lon="0.54902">
        <ele>1029</ele>
        <time>2019-06-30T07:21:14.000Z</time>
      </trkpt>
      <trkpt lat="42.98369" lon="0.54901">
        <ele>1030</ele>
        <time>2019-06-30T07:21:16.000Z</time>
      </trkpt>
      <trkpt lat="42.98367" lon="0.54901">
        <ele>1030</ele>
        <time>2019-06-30T07:21:18.000Z</time>
      </trkpt>
      <trkpt lat="42.98366" lon="0.54902">
        <ele>1030</ele>
        <time>2019-06-30T07:21:20.000Z</time>
      </trkpt>
      <trkpt lat="42.98364" lon="0.54903">
        <ele>1031</ele>
        <time>2019-06-30T07:21:22.000Z</time>
      </trkpt>
      <trkpt lat="42.98363" lon="0.54903">
        <ele>1031</ele>
        <time>2019-06-30T07:21:24.000Z</time>
      </trkpt>
      <trkpt lat="42.98362" lon="0.54904">
        <ele>1031</ele>
        <time>2019-06-30T07:21:26.000Z</time>
      </trkpt>
      <trkpt lat="42.9836" lon="0.54904">
        <ele>1031</ele>
        <time>2019-06-30T07:21:28.000Z</time>
      </trkpt>
      <trkpt lat="42.98359" lon="0.54906">
        <ele>1031</ele>
        <time>2019-06-30T07:21:30.000Z</time>
      </trkpt>
      <trkpt lat="42.98357" lon="0.54908">
        <ele>1031</ele>
        <time>2019-06-30T07:21:32.000Z</time>
      </trkpt>
      <trkpt lat="42.98355" lon="0.5491">
        <ele>1031</ele>
        <time>2019-06-30T07:21:34.000Z</time>
      </trkpt>
      <trkpt lat="42.98354" lon="0.54911">
        <ele>1031</ele>
        <time>2019-06-30T07:21:36.000Z</time>
      </trkpt>
      <trkpt lat="42.98354" lon="0.54913">
        <ele>1031</ele>
        <time>2019-06-30T07:21:38.000Z</time>
      </trkpt>
      <trkpt lat="42.98353" lon="0.54914">
        <ele>1031</ele>
        <time>2019-06-30T07:21:40.000Z</time>
      </trkpt>
      <trkpt lat="42.98353" lon="0.54916">
        <ele>1031</ele>
        <time>2019-06-30T07:21:42.000Z</time>
      </trkpt>
      <trkpt lat="42.98351" lon="0.54917">
        <ele>1031</ele>
        <time>2019-06-30T07:21:44.000Z</time>
      </trkpt>
      <trkpt lat="42.9835" lon="0.54918">
        <ele>1031</ele>
        <time>2019-06-30T07:21:46.000Z</time>
      </trkpt>
      <trkpt lat="42.98349" lon="0.54919">
        <ele>1031</ele>
        <time>2019-06-30T07:21:48.000Z</time>
      </trkpt>
      <trkpt lat="42.98348" lon="0.54921">
        <ele>1031</ele>
        <time>2019-06-30T07:21:50.000Z</time>
      </trkpt>
      <trkpt lat="42.98346" lon="0.54921">
        <ele>1032</ele>
        <time>2019-06-30T07:21:52.000Z</time>
      </trkpt>
      <trkpt lat="42.98345" lon="0.54922">
        <ele>1032</ele>
        <time>2019-06-30T07:21:54.000Z</time>
      </trkpt>
      <trkpt lat="42.98343" lon="0.54923">
        <ele>1032</ele>
        <time>2019-06-30T07:21:56.000Z</time>
      </trkpt>
      <trkpt lat="42.98343" lon="0.54923">
        <ele>1032</ele>
        <time>2019-06-30T07:21:58.000Z</time>
      </trkpt>
      <trkpt lat="42.98342" lon="0.54924">
        <ele>1032</ele>
        <time>2019-06-30T07:22:00.000Z</time>
      </trkpt>
      <trkpt lat="42.98341" lon="0.54925">
        <ele>1032</ele>
        <time>2019-06-30T07:22:02.000Z</time>
      </trkpt>
      <trkpt lat="42.9834" lon="0.54925">
        <ele>1032</ele>
        <time>2019-06-30T07:22:04.000Z</time>
      </trkpt>
      <trkpt lat="42.98339" lon="0.54926">
        <ele>1033</ele>
        <time>2019-06-30T07:22:06.000Z</time>
      </trkpt>
      <trkpt lat="42.98338" lon="0.54927">
        <ele>1033</ele>
        <time>2019-06-30T07:22:08.000Z</time>
      </trkpt>
      <trkpt lat="42.98337" lon="0.54927">
        <ele>1033</ele>
        <time>2019-06-30T07:22:10.000Z</time>
      </trkpt>
      <trkpt lat="42.98335" lon="0.54928">
        <ele>1033</ele>
        <time>2019-06-30T07:22:12.000Z</time>
      </trkpt>
      <trkpt lat="42.98334" lon="0.54928">
        <ele>1033</ele>
        <time>2019-06-30T07:22:14.000Z</time>
      </trkpt>
      <trkpt lat="42.98333" lon="0.54929">
        <ele>1034</ele>
        <time>2019-06-30T07:22:16.000Z</time>
      </trkpt>
      <trkpt lat="42.98332" lon="0.54928">
        <ele>1034</ele>
        <time>2019-06-30T07:22:18.000Z</time>
      </trkpt>
      <trkpt lat="42.98332" lon="0.54928">
        <ele>1034</ele>
        <time>2019-06-30T07:22:20.000Z</time>
      </trkpt>
      <trkpt lat="42.98331" lon="0.54929">
        <ele>1035</ele>
        <time>2019-06-30T07:22:22.000Z</time>
      </trkpt>
      <trkpt lat="42.98331" lon="0.54928">
        <ele>1035</ele>
        <time>2019-06-30T07:22:24.000Z</time>
      </trkpt>
      <trkpt lat="42.9833" lon="0.54929">
        <ele>1035</ele>
        <time>2019-06-30T07:22:26.000Z</time>
      </trkpt>
      <trkpt lat="42.98329" lon="0.5493">
        <ele>1035</ele>
        <time>2019-06-30T07:22:28.000Z</time>
      </trkpt>
      <trkpt lat="42.98328" lon="0.54931">
        <ele>1035</ele>
        <time>2019-06-30T07:22:30.000Z</time>
      </trkpt>
      <trkpt lat="42.98327" lon="0.54932">
        <ele>1035</ele>
        <time>2019-06-30T07:22:32.000Z</time>
      </trkpt>
      <trkpt lat="42.98326" lon="0.54933">
        <ele>1035</ele>
        <time>2019-06-30T07:22:34.000Z</time>
      </trkpt>
      <trkpt lat="42.98324" lon="0.54935">
        <ele>1035</ele>
        <time>2019-06-30T07:22:36.000Z</time>
      </trkpt>
      <trkpt lat="42.98322" lon="0.54937">
        <ele>1036</ele>
        <time>2019-06-30T07:22:38.000Z</time>
      </trkpt>
      <trkpt lat="42.98321" lon="0.54938">
        <ele>1036</ele>
        <time>2019-06-30T07:22:40.000Z</time>
      </trkpt>
      <trkpt lat="42.9832" lon="0.5494">
        <ele>1036</ele>
        <time>2019-06-30T07:22:42.000Z</time>
      </trkpt>
      <trkpt lat="42.98319" lon="0.54942">
        <ele>1036</ele>
        <time>2019-06-30T07:22:44.000Z</time>
      </trkpt>
      <trkpt lat="42.98318" lon="0.54944">
        <ele>1035</ele>
        <time>2019-06-30T07:22:46.000Z</time>
      </trkpt>
      <trkpt lat="42.98317" lon="0.54945">
        <ele>1035</ele>
        <time>2019-06-30T07:22:48.000Z</time>
      </trkpt>
      <trkpt lat="42.98316" lon="0.54946">
        <ele>1035</ele>
        <time>2019-06-30T07:22:50.000Z</time>
      </trkpt>
      <trkpt lat="42.98315" lon="0.54948">
        <ele>1035</ele>
        <time>2019-06-30T07:22:52.000Z</time>
      </trkpt>
      <trkpt lat="42.98314" lon="0.5495">
        <ele>1035</ele>
        <time>2019-06-30T07:22:54.000Z</time>
      </trkpt>
      <trkpt lat="42.98313" lon="0.54952">
        <ele>1034</ele>
        <time>2019-06-30T07:22:56.000Z</time>
      </trkpt>
      <trkpt lat="42.98312" lon="0.54953">
        <ele>1034</ele>
        <time>2019-06-30T07:22:58.000Z</time>
      </trkpt>
      <trkpt lat="42.98311" lon="0.54954">
        <ele>1034</ele>
        <time>2019-06-30T07:23:00.000Z</time>
      </trkpt>
      <trkpt lat="42.9831" lon="0.54956">
        <ele>1034</ele>
        <time>2019-06-30T07:23:02.000Z</time>
      </trkpt>
      <trkpt lat="42.9831" lon="0.54957">
        <ele>1034</ele>
        <time>2019-06-30T07:23:04.000Z</time>
      </trkpt>
      <trkpt lat="42.98309" lon="0.54958">
        <ele>1034</ele>
        <time>2019-06-30T07:23:06.000Z</time>
      </trkpt>
      <trkpt lat="42.98307" lon="0.54959">
        <ele>1034</ele>
        <time>2019-06-30T07:23:08.000Z</time>
      </trkpt>
      <trkpt lat="42.98306" lon="0.5496">
        <ele>1034</ele>
        <time>2019-06-30T07:23:10.000Z</time>
      </trkpt>
      <trkpt lat="42.98305" lon="0.54961">
        <ele>1034</ele>
        <time>2019-06-30T07:23:12.000Z</time>
      </trkpt>
      <trkpt lat="42.98304" lon="0.54962">
        <ele>1034</ele>
        <time>2019-06-30T07:23:14.000Z</time>
      </trkpt>
      <trkpt lat="42.98303" lon="0.54963">
        <ele>1034</ele>
        <time>2019-06-30T07:23:16.000Z</time>
      </trkpt>
      <trkpt lat="42.98302" lon="0.54964">
        <ele>1034</ele>
        <time>2019-06-30T07:23:18.000Z</time>
      </trkpt>
      <trkpt lat="42.983" lon="0.54966">
        <ele>1034</ele>
        <time>2019-06-30T07:23:20.000Z</time>
      </trkpt>
      <trkpt lat="42.98299" lon="0.54967">
        <ele>1034</ele>
        <time>2019-06-30T07:23:22.000Z</time>
      </trkpt>
      <trkpt lat="42.98297" lon="0.54968">
        <ele>1034</ele>
        <time>2019-06-30T07:23:24.000Z</time>
      </trkpt>
      <trkpt lat="42.98296" lon="0.54969">
        <ele>1034</ele>
        <time>2019-06-30T07:23:26.000Z</time>
      </trkpt>
      <trkpt lat="42.98295" lon="0.5497">
        <ele>1034</ele>
        <time>2019-06-30T07:23:28.000Z</time>
      </trkpt>
      <trkpt lat="42.98294" lon="0.5497">
        <ele>1034</ele>
        <time>2019-06-30T07:23:30.000Z</time>
      </trkpt>
      <trkpt lat="42.98292" lon="0.54971">
        <ele>1035</ele>
        <time>2019-06-30T07:23:32.000Z</time>
      </trkpt>
      <trkpt lat="42.98291" lon="0.54972">
        <ele>1035</ele>
        <time>2019-06-30T07:23:34.000Z</time>
      </trkpt>
      <trkpt lat="42.9829" lon="0.54974">
        <ele>1034</ele>
        <time>2019-06-30T07:23:36.000Z</time>
      </trkpt>
      <trkpt lat="42.98288" lon="0.54974">
        <ele>1035</ele>
        <time>2019-06-30T07:23:38.000Z</time>
      </trkpt>
      <trkpt lat="42.98287" lon="0.54975">
        <ele>1035</ele>
        <time>2019-06-30T07:23:40.000Z</time>
      </trkpt>
      <trkpt lat="42.98286" lon="0.54976">
        <ele>1035</ele>
        <time>2019-06-30T07:23:42.000Z</time>
      </trkpt>
      <trkpt lat="42.98284" lon="0.54977">
        <ele>1035</ele>
        <time>2019-06-30T07:23:44.000Z</time>
      </trkpt>
      <trkpt lat="42.98282" lon="0.54977">
        <ele>1035</ele>
        <time>2019-06-30T07:23:46.000Z</time>
      </trkpt>
      <trkpt lat="42.98281" lon="0.54977">
        <ele>1036</ele>
        <time>2019-06-30T07:23:48.000Z</time>
      </trkpt>
      <trkpt lat="42.9828" lon="0.54977">
        <ele>1036</ele>
        <time>2019-06-30T07:23:50.000Z</time>
      </trkpt>
      <trkpt lat="42.98279" lon="0.54977">
        <ele>1037</ele>
        <time>2019-06-30T07:23:52.000Z</time>
      </trkpt>
      <trkpt lat="42.98278" lon="0.54977">
        <ele>1037</ele>
        <time>2019-06-30T07:23:54.000Z</time>
      </trkpt>
      <trkpt lat="42.98276" lon="0.54977">
        <ele>1038</ele>
        <time>2019-06-30T07:23:56.000Z</time>
      </trkpt>
      <trkpt lat="42.98274" lon="0.54977">
        <ele>1038</ele>
        <time>2019-06-30T07:23:58.000Z</time>
      </trkpt>
      <trkpt lat="42.98273" lon="0.54977">
        <ele>1038</ele>
        <time>2019-06-30T07:24:00.000Z</time>
      </trkpt>
      <trkpt lat="42.98271" lon="0.54977">
        <ele>1039</ele>
        <time>2019-06-30T07:24:02.000Z</time>
      </trkpt>
      <trkpt lat="42.9827" lon="0.54977">
        <ele>1039</ele>
        <time>2019-06-30T07:24:04.000Z</time>
      </trkpt>
      <trkpt lat="42.98269" lon="0.54977">
        <ele>1040</ele>
        <time>2019-06-30T07:24:06.000Z</time>
      </trkpt>
      <trkpt lat="42.98267" lon="0.54977">
        <ele>1040</ele>
        <time>2019-06-30T07:24:08.000Z</time>
      </trkpt>
      <trkpt lat="42.98265" lon="0.54977">
        <ele>1041</ele>
        <time>2019-06-30T07:24:10.000Z</time>
      </trkpt>
      <trkpt lat="42.98262" lon="0.54977">
        <ele>1042</ele>
        <time>2019-06-30T07:24:12.000Z</time>
      </trkpt>
      <trkpt lat="42.9826" lon="0.54977">
        <ele>1042</ele>
        <time>2019-06-30T07:24:14.000Z</time>
      </trkpt>
      <trkpt lat="42.98257" lon="0.54978">
        <ele>1043</ele>
        <time>2019-06-30T07:24:16.000Z</time>
      </trkpt>
      <trkpt lat="42.98256" lon="0.54978">
        <ele>1043</ele>
        <time>2019-06-30T07:24:18.000Z</time>
      </trkpt>
      <trkpt lat="42.98254" lon="0.54979">
        <ele>1043</ele>
        <time>2019-06-30T07:24:20.000Z</time>
      </trkpt>
      <trkpt lat="42.98253" lon="0.54979">
        <ele>1043</ele>
        <time>2019-06-30T07:24:22.000Z</time>
      </trkpt>
      <trkpt lat="42.98251" lon="0.54978">
        <ele>1044</ele>
        <time>2019-06-30T07:24:24.000Z</time>
      </trkpt>
      <trkpt lat="42.98249" lon="0.54978">
        <ele>1045</ele>
        <time>2019-06-30T07:24:26.000Z</time>
      </trkpt>
      <trkpt lat="42.98247" lon="0.54978">
        <ele>1045</ele>
        <time>2019-06-30T07:24:28.000Z</time>
      </trkpt>
      <trkpt lat="42.98245" lon="0.54978">
        <ele>1046</ele>
        <time>2019-06-30T07:24:30.000Z</time>
      </trkpt>
      <trkpt lat="42.98243" lon="0.54976">
        <ele>1047</ele>
        <time>2019-06-30T07:24:32.000Z</time>
      </trkpt>
      <trkpt lat="42.98242" lon="0.54974">
        <ele>1048</ele>
        <time>2019-06-30T07:24:34.000Z</time>
      </trkpt>
      <trkpt lat="42.98241" lon="0.54973">
        <ele>1049</ele>
        <time>2019-06-30T07:24:36.000Z</time>
      </trkpt>
      <trkpt lat="42.98242" lon="0.54971">
        <ele>1050</ele>
        <time>2019-06-30T07:24:38.000Z</time>
      </trkpt>
      <trkpt lat="42.98243" lon="0.54971">
        <ele>1050</ele>
        <time>2019-06-30T07:24:40.000Z</time>
      </trkpt>
      <trkpt lat="42.98243" lon="0.5497">
        <ele>1050</ele>
        <time>2019-06-30T07:24:42.000Z</time>
      </trkpt>
      <trkpt lat="42.98244" lon="0.54971">
        <ele>1050</ele>
        <time>2019-06-30T07:24:44.000Z</time>
      </trkpt>
      <trkpt lat="42.98244" lon="0.54971">
        <ele>1049</ele>
        <time>2019-06-30T07:24:46.000Z</time>
      </trkpt>
      <trkpt lat="42.98245" lon="0.54971">
        <ele>1049</ele>
        <time>2019-06-30T07:24:48.000Z</time>
      </trkpt>
      <trkpt lat="42.98246" lon="0.54971">
        <ele>1049</ele>
        <time>2019-06-30T07:24:50.000Z</time>
      </trkpt>
      <trkpt lat="42.98247" lon="0.5497">
        <ele>1049</ele>
        <time>2019-06-30T07:24:52.000Z</time>
      </trkpt>
      <trkpt lat="42.98249" lon="0.54968">
        <ele>1049</ele>
        <time>2019-06-30T07:24:54.000Z</time>
      </trkpt>
      <trkpt lat="42.98251" lon="0.54966">
        <ele>1050</ele>
        <time>2019-06-30T07:24:56.000Z</time>
      </trkpt>
      <trkpt lat="42.98253" lon="0.54964">
        <ele>1050</ele>
        <time>2019-06-30T07:24:58.000Z</time>
      </trkpt>
      <trkpt lat="42.98254" lon="0.54963">
        <ele>1050</ele>
        <time>2019-06-30T07:25:00.000Z</time>
      </trkpt>
      <trkpt lat="42.98255" lon="0.54961">
        <ele>1050</ele>
        <time>2019-06-30T07:25:02.000Z</time>
      </trkpt>
      <trkpt lat="42.98256" lon="0.54959">
        <ele>1050</ele>
        <time>2019-06-30T07:25:04.000Z</time>
      </trkpt>
      <trkpt lat="42.98257" lon="0.54957">
        <ele>1051</ele>
        <time>2019-06-30T07:25:06.000Z</time>
      </trkpt>
      <trkpt lat="42.98258" lon="0.54956">
        <ele>1051</ele>
        <time>2019-06-30T07:25:08.000Z</time>
      </trkpt>
      <trkpt lat="42.98258" lon="0.54954">
        <ele>1051</ele>
        <time>2019-06-30T07:25:10.000Z</time>
      </trkpt>
      <trkpt lat="42.98258" lon="0.54953">
        <ele>1052</ele>
        <time>2019-06-30T07:25:12.000Z</time>
      </trkpt>
      <trkpt lat="42.98259" lon="0.54951">
        <ele>1052</ele>
        <time>2019-06-30T07:25:14.000Z</time>
      </trkpt>
      <trkpt lat="42.98259" lon="0.54949">
        <ele>1053</ele>
        <time>2019-06-30T07:25:16.000Z</time>
      </trkpt>
      <trkpt lat="42.9826" lon="0.54948">
        <ele>1053</ele>
        <time>2019-06-30T07:25:18.000Z</time>
      </trkpt>
      <trkpt lat="42.98261" lon="0.54946">
        <ele>1053</ele>
        <time>2019-06-30T07:25:20.000Z</time>
      </trkpt>
      <trkpt lat="42.98263" lon="0.54945">
        <ele>1053</ele>
        <time>2019-06-30T07:25:22.000Z</time>
      </trkpt>
      <trkpt lat="42.98264" lon="0.54943">
        <ele>1053</ele>
        <time>2019-06-30T07:25:24.000Z</time>
      </trkpt>
      <trkpt lat="42.98266" lon="0.54942">
        <ele>1053</ele>
        <time>2019-06-30T07:25:26.000Z</time>
      </trkpt>
      <trkpt lat="42.98267" lon="0.54941">
        <ele>1053</ele>
        <time>2019-06-30T07:25:28.000Z</time>
      </trkpt>
      <trkpt lat="42.98268" lon="0.54941">
        <ele>1052</ele>
        <time>2019-06-30T07:25:30.000Z</time>
      </trkpt>
      <trkpt lat="42.98268" lon="0.5494">
        <ele>1053</ele>
        <time>2019-06-30T07:25:32.000Z</time>
      </trkpt>
      <trkpt lat="42.98269" lon="0.54939">
        <ele>1053</ele>
        <time>2019-06-30T07:25:34.000Z</time>
      </trkpt>
      <trkpt lat="42.98269" lon="0.54939">
        <ele>1053</ele>
        <time>2019-06-30T07:25:36.000Z</time>
      </trkpt>
      <trkpt lat="42.9827" lon="0.54937">
        <ele>1053</ele>
        <time>2019-06-30T07:25:38.000Z</time>
      </trkpt>
      <trkpt lat="42.9827" lon="0.54936">
        <ele>1053</ele>
        <time>2019-06-30T07:25:40.000Z</time>
      </trkpt>
      <trkpt lat="42.98271" lon="0.54935">
        <ele>1054</ele>
        <time>2019-06-30T07:25:42.000Z</time>
      </trkpt>
      <trkpt lat="42.98271" lon="0.54933">
        <ele>1054</ele>
        <time>2019-06-30T07:25:44.000Z</time>
      </trkpt>
      <trkpt lat="42.98272" lon="0.54931">
        <ele>1054</ele>
        <time>2019-06-30T07:25:46.000Z</time>
      </trkpt>
      <trkpt lat="42.98272" lon="0.54929">
        <ele>1055</ele>
        <time>2019-06-30T07:25:48.000Z</time>
      </trkpt>
      <trkpt lat="42.98272" lon="0.54927">
        <ele>1056</ele>
        <time>2019-06-30T07:25:50.000Z</time>
      </trkpt>
      <trkpt lat="42.98272" lon="0.54926">
        <ele>1056</ele>
        <time>2019-06-30T07:25:52.000Z</time>
      </trkpt>
      <trkpt lat="42.98273" lon="0.54924">
        <ele>1056</ele>
        <time>2019-06-30T07:25:54.000Z</time>
      </trkpt>
      <trkpt lat="42.98273" lon="0.54923">
        <ele>1057</ele>
        <time>2019-06-30T07:25:56.000Z</time>
      </trkpt>
      <trkpt lat="42.98274" lon="0.54922">
        <ele>1057</ele>
        <time>2019-06-30T07:25:58.000Z</time>
      </trkpt>
      <trkpt lat="42.98275" lon="0.54921">
        <ele>1057</ele>
        <time>2019-06-30T07:26:00.000Z</time>
      </trkpt>
      <trkpt lat="42.98276" lon="0.5492">
        <ele>1057</ele>
        <time>2019-06-30T07:26:02.000Z</time>
      </trkpt>
      <trkpt lat="42.98276" lon="0.54918">
        <ele>1058</ele>
        <time>2019-06-30T07:26:04.000Z</time>
      </trkpt>
      <trkpt lat="42.98275" lon="0.54916">
        <ele>1058</ele>
        <time>2019-06-30T07:26:06.000Z</time>
      </trkpt>
      <trkpt lat="42.98275" lon="0.54915">
        <ele>1059</ele>
        <time>2019-06-30T07:26:08.000Z</time>
      </trkpt>
      <trkpt lat="42.98275" lon="0.54914">
        <ele>1059</ele>
        <time>2019-06-30T07:26:10.000Z</time>
      </trkpt>
      <trkpt lat="42.98275" lon="0.54913">
        <ele>1059</ele>
        <time>2019-06-30T07:26:12.000Z</time>
      </trkpt>
      <trkpt lat="42.98276" lon="0.54911">
        <ele>1060</ele>
        <time>2019-06-30T07:26:14.000Z</time>
      </trkpt>
      <trkpt lat="42.98277" lon="0.5491">
        <ele>1060</ele>
        <time>2019-06-30T07:26:16.000Z</time>
      </trkpt>
      <trkpt lat="42.98277" lon="0.54908">
        <ele>1060</ele>
        <time>2019-06-30T07:26:18.000Z</time>
      </trkpt>
      <trkpt lat="42.98277" lon="0.54907">
        <ele>1060</ele>
        <time>2019-06-30T07:26:20.000Z</time>
      </trkpt>
      <trkpt lat="42.98278" lon="0.54906">
        <ele>1061</ele>
        <time>2019-06-30T07:26:22.000Z</time>
      </trkpt>
      <trkpt lat="42.98278" lon="0.54904">
        <ele>1061</ele>
        <time>2019-06-30T07:26:24.000Z</time>
      </trkpt>
      <trkpt lat="42.98278" lon="0.54903">
        <ele>1061</ele>
        <time>2019-06-30T07:26:26.000Z</time>
      </trkpt>
      <trkpt lat="42.98278" lon="0.54901">
        <ele>1062</ele>
        <time>2019-06-30T07:26:28.000Z</time>
      </trkpt>
      <trkpt lat="42.98277" lon="0.549">
        <ele>1062</ele>
        <time>2019-06-30T07:26:30.000Z</time>
      </trkpt>
      <trkpt lat="42.98278" lon="0.54898">
        <ele>1063</ele>
        <time>2019-06-30T07:26:32.000Z</time>
      </trkpt>
      <trkpt lat="42.98278" lon="0.54896">
        <ele>1063</ele>
        <time>2019-06-30T07:26:34.000Z</time>
      </trkpt>
      <trkpt lat="42.98278" lon="0.54895">
        <ele>1064</ele>
        <time>2019-06-30T07:26:36.000Z</time>
      </trkpt>
      <trkpt lat="42.98278" lon="0.54893">
        <ele>1064</ele>
        <time>2019-06-30T07:26:38.000Z</time>
      </trkpt>
      <trkpt lat="42.98278" lon="0.54892">
        <ele>1065</ele>
        <time>2019-06-30T07:26:40.000Z</time>
      </trkpt>
      <trkpt lat="42.98278" lon="0.54889">
        <ele>1065</ele>
        <time>2019-06-30T07:26:42.000Z</time>
      </trkpt>
      <trkpt lat="42.98278" lon="0.54887">
        <ele>1066</ele>
        <time>2019-06-30T07:26:44.000Z</time>
      </trkpt>
      <trkpt lat="42.98278" lon="0.54886">
        <ele>1066</ele>
        <time>2019-06-30T07:26:46.000Z</time>
      </trkpt>
      <trkpt lat="42.98278" lon="0.54885">
        <ele>1067</ele>
        <time>2019-06-30T07:26:48.000Z</time>
      </trkpt>
      <trkpt lat="42.98278" lon="0.54883">
        <ele>1067</ele>
        <time>2019-06-30T07:26:50.000Z</time>
      </trkpt>
      <trkpt lat="42.98278" lon="0.54881">
        <ele>1067</ele>
        <time>2019-06-30T07:26:52.000Z</time>
      </trkpt>
      <trkpt lat="42.98278" lon="0.5488">
        <ele>1068</ele>
        <time>2019-06-30T07:26:54.000Z</time>
      </trkpt>
      <trkpt lat="42.98278" lon="0.54878">
        <ele>1068</ele>
        <time>2019-06-30T07:26:56.000Z</time>
      </trkpt>
      <trkpt lat="42.98278" lon="0.54876">
        <ele>1069</ele>
        <time>2019-06-30T07:26:58.000Z</time>
      </trkpt>
      <trkpt lat="42.98277" lon="0.54874">
        <ele>1070</ele>
        <time>2019-06-30T07:27:00.000Z</time>
      </trkpt>
      <trkpt lat="42.98278" lon="0.54872">
        <ele>1070</ele>
        <time>2019-06-30T07:27:02.000Z</time>
      </trkpt>
      <trkpt lat="42.98278" lon="0.5487">
        <ele>1070</ele>
        <time>2019-06-30T07:27:04.000Z</time>
      </trkpt>
      <trkpt lat="42.98278" lon="0.54869">
        <ele>1071</ele>
        <time>2019-06-30T07:27:06.000Z</time>
      </trkpt>
      <trkpt lat="42.98278" lon="0.54867">
        <ele>1071</ele>
        <time>2019-06-30T07:27:08.000Z</time>
      </trkpt>
      <trkpt lat="42.98278" lon="0.54866">
        <ele>1072</ele>
        <time>2019-06-30T07:27:10.000Z</time>
      </trkpt>
      <trkpt lat="42.98278" lon="0.54864">
        <ele>1072</ele>
        <time>2019-06-30T07:27:12.000Z</time>
      </trkpt>
      <trkpt lat="42.98278" lon="0.54862">
        <ele>1072</ele>
        <time>2019-06-30T07:27:14.000Z</time>
      </trkpt>
      <trkpt lat="42.98278" lon="0.5486">
        <ele>1073</ele>
        <time>2019-06-30T07:27:16.000Z</time>
      </trkpt>
      <trkpt lat="42.98278" lon="0.54858">
        <ele>1073</ele>
        <time>2019-06-30T07:27:18.000Z</time>
      </trkpt>
      <trkpt lat="42.98279" lon="0.54857">
        <ele>1074</ele>
        <time>2019-06-30T07:27:20.000Z</time>
      </trkpt>
      <trkpt lat="42.98279" lon="0.54855">
        <ele>1074</ele>
        <time>2019-06-30T07:27:22.000Z</time>
      </trkpt>
      <trkpt lat="42.9828" lon="0.54853">
        <ele>1074</ele>
        <time>2019-06-30T07:27:24.000Z</time>
      </trkpt>
      <trkpt lat="42.9828" lon="0.54852">
        <ele>1074</ele>
        <time>2019-06-30T07:27:26.000Z</time>
      </trkpt>
      <trkpt lat="42.98281" lon="0.54849">
        <ele>1075</ele>
        <time>2019-06-30T07:27:28.000Z</time>
      </trkpt>
      <trkpt lat="42.98282" lon="0.54847">
        <ele>1075</ele>
        <time>2019-06-30T07:27:30.000Z</time>
      </trkpt>
      <trkpt lat="42.98283" lon="0.54846">
        <ele>1075</ele>
        <time>2019-06-30T07:27:32.000Z</time>
      </trkpt>
      <trkpt lat="42.98284" lon="0.54845">
        <ele>1075</ele>
        <time>2019-06-30T07:27:34.000Z</time>
      </trkpt>
      <trkpt lat="42.98284" lon="0.54843">
        <ele>1075</ele>
        <time>2019-06-30T07:27:36.000Z</time>
      </trkpt>
      <trkpt lat="42.98285" lon="0.54842">
        <ele>1075</ele>
        <time>2019-06-30T07:27:38.000Z</time>
      </trkpt>
      <trkpt lat="42.98286" lon="0.5484">
        <ele>1075</ele>
        <time>2019-06-30T07:27:40.000Z</time>
      </trkpt>
      <trkpt lat="42.98287" lon="0.54838">
        <ele>1075</ele>
        <time>2019-06-30T07:27:42.000Z</time>
      </trkpt>
      <trkpt lat="42.98287" lon="0.54837">
        <ele>1076</ele>
        <time>2019-06-30T07:27:44.000Z</time>
      </trkpt>
      <trkpt lat="42.98288" lon="0.54836">
        <ele>1076</ele>
        <time>2019-06-30T07:27:46.000Z</time>
      </trkpt>
      <trkpt lat="42.98289" lon="0.54834">
        <ele>1076</ele>
        <time>2019-06-30T07:27:48.000Z</time>
      </trkpt>
      <trkpt lat="42.9829" lon="0.54833">
        <ele>1076</ele>
        <time>2019-06-30T07:27:50.000Z</time>
      </trkpt>
      <trkpt lat="42.98291" lon="0.54831">
        <ele>1076</ele>
        <time>2019-06-30T07:27:52.000Z</time>
      </trkpt>
      <trkpt lat="42.98291" lon="0.54829">
        <ele>1076</ele>
        <time>2019-06-30T07:27:54.000Z</time>
      </trkpt>
      <trkpt lat="42.98291" lon="0.54827">
        <ele>1077</ele>
        <time>2019-06-30T07:27:56.000Z</time>
      </trkpt>
      <trkpt lat="42.98292" lon="0.54825">
        <ele>1077</ele>
        <time>2019-06-30T07:27:58.000Z</time>
      </trkpt>
      <trkpt lat="42.98293" lon="0.54823">
        <ele>1077</ele>
        <time>2019-06-30T07:28:00.000Z</time>
      </trkpt>
      <trkpt lat="42.98293" lon="0.54821">
        <ele>1078</ele>
        <time>2019-06-30T07:28:02.000Z</time>
      </trkpt>
      <trkpt lat="42.98294" lon="0.5482">
        <ele>1078</ele>
        <time>2019-06-30T07:28:04.000Z</time>
      </trkpt>
      <trkpt lat="42.98294" lon="0.54819">
        <ele>1078</ele>
        <time>2019-06-30T07:28:06.000Z</time>
      </trkpt>
      <trkpt lat="42.98294" lon="0.54818">
        <ele>1078</ele>
        <time>2019-06-30T07:28:08.000Z</time>
      </trkpt>
      <trkpt lat="42.98294" lon="0.54817">
        <ele>1078</ele>
        <time>2019-06-30T07:28:10.000Z</time>
      </trkpt>
      <trkpt lat="42.98295" lon="0.54816">
        <ele>1079</ele>
        <time>2019-06-30T07:28:12.000Z</time>
      </trkpt>
      <trkpt lat="42.98295" lon="0.54815">
        <ele>1079</ele>
        <time>2019-06-30T07:28:14.000Z</time>
      </trkpt>
      <trkpt lat="42.98295" lon="0.54814">
        <ele>1079</ele>
        <time>2019-06-30T07:28:16.000Z</time>
      </trkpt>
      <trkpt lat="42.98295" lon="0.54812">
        <ele>1080</ele>
        <time>2019-06-30T07:28:18.000Z</time>
      </trkpt>
      <trkpt lat="42.98295" lon="0.5481">
        <ele>1080</ele>
        <time>2019-06-30T07:28:20.000Z</time>
      </trkpt>
      <trkpt lat="42.98296" lon="0.54808">
        <ele>1081</ele>
        <time>2019-06-30T07:28:22.000Z</time>
      </trkpt>
      <trkpt lat="42.98296" lon="0.54807">
        <ele>1081</ele>
        <time>2019-06-30T07:28:24.000Z</time>
      </trkpt>
      <trkpt lat="42.98296" lon="0.54806">
        <ele>1081</ele>
        <time>2019-06-30T07:28:26.000Z</time>
      </trkpt>
      <trkpt lat="42.98297" lon="0.54804">
        <ele>1081</ele>
        <time>2019-06-30T07:28:28.000Z</time>
      </trkpt>
      <trkpt lat="42.98297" lon="0.54802">
        <ele>1082</ele>
        <time>2019-06-30T07:28:30.000Z</time>
      </trkpt>
      <trkpt lat="42.98297" lon="0.54801">
        <ele>1082</ele>
        <time>2019-06-30T07:28:32.000Z</time>
      </trkpt>
      <trkpt lat="42.98296" lon="0.54799">
        <ele>1083</ele>
        <time>2019-06-30T07:28:34.000Z</time>
      </trkpt>
      <trkpt lat="42.98296" lon="0.54797">
        <ele>1084</ele>
        <time>2019-06-30T07:28:36.000Z</time>
      </trkpt>
      <trkpt lat="42.98296" lon="0.54795">
        <ele>1084</ele>
        <time>2019-06-30T07:28:38.000Z</time>
      </trkpt>
      <trkpt lat="42.98296" lon="0.54794">
        <ele>1085</ele>
        <time>2019-06-30T07:28:40.000Z</time>
      </trkpt>
      <trkpt lat="42.98295" lon="0.54792">
        <ele>1086</ele>
        <time>2019-06-30T07:28:42.000Z</time>
      </trkpt>
      <trkpt lat="42.98294" lon="0.54793">
        <ele>1086</ele>
        <time>2019-06-30T07:28:44.000Z</time>
      </trkpt>
      <trkpt lat="42.98294" lon="0.54795">
        <ele>1085</ele>
        <time>2019-06-30T07:28:46.000Z</time>
      </trkpt>
      <trkpt lat="42.98293" lon="0.54797">
        <ele>1085</ele>
        <time>2019-06-30T07:28:48.000Z</time>
      </trkpt>
      <trkpt lat="42.98292" lon="0.54799">
        <ele>1085</ele>
        <time>2019-06-30T07:28:50.000Z</time>
      </trkpt>
      <trkpt lat="42.9829" lon="0.54801">
        <ele>1084</ele>
        <time>2019-06-30T07:28:52.000Z</time>
      </trkpt>
      <trkpt lat="42.98289" lon="0.54803">
        <ele>1084</ele>
        <time>2019-06-30T07:28:54.000Z</time>
      </trkpt>
      <trkpt lat="42.98288" lon="0.54805">
        <ele>1084</ele>
        <time>2019-06-30T07:28:56.000Z</time>
      </trkpt>
      <trkpt lat="42.98287" lon="0.54807">
        <ele>1084</ele>
        <time>2019-06-30T07:28:58.000Z</time>
      </trkpt>
      <trkpt lat="42.98286" lon="0.54809">
        <ele>1084</ele>
        <time>2019-06-30T07:29:00.000Z</time>
      </trkpt>
      <trkpt lat="42.98284" lon="0.54811">
        <ele>1084</ele>
        <time>2019-06-30T07:29:02.000Z</time>
      </trkpt>
      <trkpt lat="42.98283" lon="0.54813">
        <ele>1084</ele>
        <time>2019-06-30T07:29:04.000Z</time>
      </trkpt>
      <trkpt lat="42.98281" lon="0.54815">
        <ele>1084</ele>
        <time>2019-06-30T07:29:06.000Z</time>
      </trkpt>
      <trkpt lat="42.98281" lon="0.54817">
        <ele>1083</ele>
        <time>2019-06-30T07:29:08.000Z</time>
      </trkpt>
      <trkpt lat="42.9828" lon="0.54819">
        <ele>1083</ele>
        <time>2019-06-30T07:29:10.000Z</time>
      </trkpt>
      <trkpt lat="42.98278" lon="0.54822">
        <ele>1083</ele>
        <time>2019-06-30T07:29:12.000Z</time>
      </trkpt>
      <trkpt lat="42.98276" lon="0.54823">
        <ele>1083</ele>
        <time>2019-06-30T07:29:14.000Z</time>
      </trkpt>
      <trkpt lat="42.98274" lon="0.54826">
        <ele>1083</ele>
        <time>2019-06-30T07:29:16.000Z</time>
      </trkpt>
      <trkpt lat="42.98274" lon="0.54828">
        <ele>1083</ele>
        <time>2019-06-30T07:29:18.000Z</time>
      </trkpt>
      <trkpt lat="42.98272" lon="0.54829">
        <ele>1083</ele>
        <time>2019-06-30T07:29:20.000Z</time>
      </trkpt>
      <trkpt lat="42.9827" lon="0.54831">
        <ele>1084</ele>
        <time>2019-06-30T07:29:22.000Z</time>
      </trkpt>
      <trkpt lat="42.98269" lon="0.54832">
        <ele>1084</ele>
        <time>2019-06-30T07:29:24.000Z</time>
      </trkpt>
      <trkpt lat="42.98268" lon="0.54835">
        <ele>1084</ele>
        <time>2019-06-30T07:29:26.000Z</time>
      </trkpt>
      <trkpt lat="42.98266" lon="0.54836">
        <ele>1084</ele>
        <time>2019-06-30T07:29:28.000Z</time>
      </trkpt>
      <trkpt lat="42.98264" lon="0.54838">
        <ele>1084</ele>
        <time>2019-06-30T07:29:30.000Z</time>
      </trkpt>
      <trkpt lat="42.98263" lon="0.54839">
        <ele>1084</ele>
        <time>2019-06-30T07:29:32.000Z</time>
      </trkpt>
      <trkpt lat="42.98262" lon="0.54839">
        <ele>1085</ele>
        <time>2019-06-30T07:29:34.000Z</time>
      </trkpt>
      <trkpt lat="42.98261" lon="0.54838">
        <ele>1085</ele>
        <time>2019-06-30T07:29:36.000Z</time>
      </trkpt>
      <trkpt lat="42.98261" lon="0.54838">
        <ele>1085</ele>
        <time>2019-06-30T07:29:38.000Z</time>
      </trkpt>
      <trkpt lat="42.98261" lon="0.54838">
        <ele>1085</ele>
        <time>2019-06-30T07:29:40.000Z</time>
      </trkpt>
      <trkpt lat="42.98262" lon="0.54838">
        <ele>1085</ele>
        <time>2019-06-30T07:29:42.000Z</time>
      </trkpt>
      <trkpt lat="42.98262" lon="0.54837">
        <ele>1085</ele>
        <time>2019-06-30T07:29:44.000Z</time>
      </trkpt>
      <trkpt lat="42.98262" lon="0.54837">
        <ele>1085</ele>
        <time>2019-06-30T07:29:46.000Z</time>
      </trkpt>
      <trkpt lat="42.98262" lon="0.54837">
        <ele>1085</ele>
        <time>2019-06-30T07:29:48.000Z</time>
      </trkpt>
      <trkpt lat="42.98262" lon="0.54837">
        <ele>1085</ele>
        <time>2019-06-30T07:29:50.000Z</time>
      </trkpt>
      <trkpt lat="42.98261" lon="0.54837">
        <ele>1085</ele>
        <time>2019-06-30T07:29:52.000Z</time>
      </trkpt>
      <trkpt lat="42.98261" lon="0.54837">
        <ele>1085</ele>
        <time>2019-06-30T07:29:54.000Z</time>
      </trkpt>
      <trkpt lat="42.98261" lon="0.54836">
        <ele>1086</ele>
        <time>2019-06-30T07:29:56.000Z</time>
      </trkpt>
      <trkpt lat="42.9826" lon="0.54836">
        <ele>1086</ele>
        <time>2019-06-30T07:29:58.000Z</time>
      </trkpt>
      <trkpt lat="42.98259" lon="0.54835">
        <ele>1086</ele>
        <time>2019-06-30T07:30:00.000Z</time>
      </trkpt>
      <trkpt lat="42.98259" lon="0.54835">
        <ele>1087</ele>
        <time>2019-06-30T07:30:02.000Z</time>
      </trkpt>
      <trkpt lat="42.98259" lon="0.54835">
        <ele>1087</ele>
        <time>2019-06-30T07:30:04.000Z</time>
      </trkpt>
      <trkpt lat="42.98259" lon="0.54834">
        <ele>1087</ele>
        <time>2019-06-30T07:30:06.000Z</time>
      </trkpt>
      <trkpt lat="42.98259" lon="0.54834">
        <ele>1087</ele>
        <time>2019-06-30T07:30:08.000Z</time>
      </trkpt>
      <trkpt lat="42.9826" lon="0.54833">
        <ele>1087</ele>
        <time>2019-06-30T07:30:10.000Z</time>
      </trkpt>
      <trkpt lat="42.98261" lon="0.54832">
        <ele>1087</ele>
        <time>2019-06-30T07:30:12.000Z</time>
      </trkpt>
      <trkpt lat="42.98261" lon="0.54832">
        <ele>1087</ele>
        <time>2019-06-30T07:30:14.000Z</time>
      </trkpt>
      <trkpt lat="42.9826" lon="0.54831">
        <ele>1087</ele>
        <time>2019-06-30T07:30:16.000Z</time>
      </trkpt>
      <trkpt lat="42.9826" lon="0.54831">
        <ele>1087</ele>
        <time>2019-06-30T07:30:18.000Z</time>
      </trkpt>
      <trkpt lat="42.98259" lon="0.54831">
        <ele>1088</ele>
        <time>2019-06-30T07:30:20.000Z</time>
      </trkpt>
      <trkpt lat="42.98258" lon="0.5483">
        <ele>1088</ele>
        <time>2019-06-30T07:30:22.000Z</time>
      </trkpt>
      <trkpt lat="42.98257" lon="0.54829">
        <ele>1089</ele>
        <time>2019-06-30T07:30:24.000Z</time>
      </trkpt>
      <trkpt lat="42.98256" lon="0.54829">
        <ele>1089</ele>
        <time>2019-06-30T07:30:26.000Z</time>
      </trkpt>
      <trkpt lat="42.98256" lon="0.54828">
        <ele>1090</ele>
        <time>2019-06-30T07:30:28.000Z</time>
      </trkpt>
      <trkpt lat="42.98254" lon="0.54827">
        <ele>1091</ele>
        <time>2019-06-30T07:30:30.000Z</time>
      </trkpt>
      <trkpt lat="42.98255" lon="0.54828">
        <ele>1090</ele>
        <time>2019-06-30T07:30:32.000Z</time>
      </trkpt>
      <trkpt lat="42.98255" lon="0.54829">
        <ele>1090</ele>
        <time>2019-06-30T07:30:34.000Z</time>
      </trkpt>
      <trkpt lat="42.98256" lon="0.5483">
        <ele>1089</ele>
        <time>2019-06-30T07:30:36.000Z</time>
      </trkpt>
      <trkpt lat="42.98256" lon="0.54831">
        <ele>1089</ele>
        <time>2019-06-30T07:30:38.000Z</time>
      </trkpt>
      <trkpt lat="42.98256" lon="0.54832">
        <ele>1089</ele>
        <time>2019-06-30T07:30:40.000Z</time>
      </trkpt>
      <trkpt lat="42.98256" lon="0.54833">
        <ele>1088</ele>
        <time>2019-06-30T07:30:42.000Z</time>
      </trkpt>
      <trkpt lat="42.98256" lon="0.54833">
        <ele>1088</ele>
        <time>2019-06-30T07:30:44.000Z</time>
      </trkpt>
      <trkpt lat="42.98256" lon="0.54832">
        <ele>1088</ele>
        <time>2019-06-30T07:30:46.000Z</time>
      </trkpt>
      <trkpt lat="42.98257" lon="0.54833">
        <ele>1088</ele>
        <time>2019-06-30T07:30:48.000Z</time>
      </trkpt>
      <trkpt lat="42.98257" lon="0.54833">
        <ele>1088</ele>
        <time>2019-06-30T07:30:50.000Z</time>
      </trkpt>
      <trkpt lat="42.98257" lon="0.54834">
        <ele>1088</ele>
        <time>2019-06-30T07:30:52.000Z</time>
      </trkpt>
      <trkpt lat="42.98257" lon="0.54833">
        <ele>1088</ele>
        <time>2019-06-30T07:30:54.000Z</time>
      </trkpt>
      <trkpt lat="42.98256" lon="0.54834">
        <ele>1088</ele>
        <time>2019-06-30T07:30:56.000Z</time>
      </trkpt>
      <trkpt lat="42.98257" lon="0.54835">
        <ele>1088</ele>
        <time>2019-06-30T07:30:58.000Z</time>
      </trkpt>
      <trkpt lat="42.98257" lon="0.54834">
        <ele>1088</ele>
        <time>2019-06-30T07:31:00.000Z</time>
      </trkpt>
      <trkpt lat="42.98257" lon="0.54835">
        <ele>1087</ele>
        <time>2019-06-30T07:31:02.000Z</time>
      </trkpt>
      <trkpt lat="42.98257" lon="0.54836">
        <ele>1087</ele>
        <time>2019-06-30T07:31:04.000Z</time>
      </trkpt>
      <trkpt lat="42.98258" lon="0.54837">
        <ele>1087</ele>
        <time>2019-06-30T07:31:06.000Z</time>
      </trkpt>
      <trkpt lat="42.98258" lon="0.54837">
        <ele>1086</ele>
        <time>2019-06-30T07:31:08.000Z</time>
      </trkpt>
      <trkpt lat="42.98258" lon="0.54837">
        <ele>1087</ele>
        <time>2019-06-30T07:31:10.000Z</time>
      </trkpt>
      <trkpt lat="42.98258" lon="0.54836">
        <ele>1087</ele>
        <time>2019-06-30T07:31:12.000Z</time>
      </trkpt>
      <trkpt lat="42.98259" lon="0.54836">
        <ele>1086</ele>
        <time>2019-06-30T07:31:14.000Z</time>
      </trkpt>
      <trkpt lat="42.98259" lon="0.54836">
        <ele>1086</ele>
        <time>2019-06-30T07:31:16.000Z</time>
      </trkpt>
      <trkpt lat="42.98259" lon="0.54836">
        <ele>1087</ele>
        <time>2019-06-30T07:31:18.000Z</time>
      </trkpt>
      <trkpt lat="42.98258" lon="0.54835">
        <ele>1087</ele>
        <time>2019-06-30T07:31:20.000Z</time>
      </trkpt>
      <trkpt lat="42.98258" lon="0.54836">
        <ele>1087</ele>
        <time>2019-06-30T07:31:22.000Z</time>
      </trkpt>
      <trkpt lat="42.98259" lon="0.54835">
        <ele>1087</ele>
        <time>2019-06-30T07:31:24.000Z</time>
      </trkpt>
      <trkpt lat="42.9826" lon="0.54836">
        <ele>1086</ele>
        <time>2019-06-30T07:31:26.000Z</time>
      </trkpt>
      <trkpt lat="42.9826" lon="0.54836">
        <ele>1086</ele>
        <time>2019-06-30T07:31:28.000Z</time>
      </trkpt>
      <trkpt lat="42.98259" lon="0.54836">
        <ele>1086</ele>
        <time>2019-06-30T07:31:30.000Z</time>
      </trkpt>
      <trkpt lat="42.98259" lon="0.54836">
        <ele>1086</ele>
        <time>2019-06-30T07:31:32.000Z</time>
      </trkpt>
      <trkpt lat="42.98258" lon="0.54835">
        <ele>1087</ele>
        <time>2019-06-30T07:31:34.000Z</time>
      </trkpt>
      <trkpt lat="42.98256" lon="0.54834">
        <ele>1088</ele>
        <time>2019-06-30T07:31:36.000Z</time>
      </trkpt>
      <trkpt lat="42.98256" lon="0.54833">
        <ele>1088</ele>
        <time>2019-06-30T07:31:38.000Z</time>
      </trkpt>
      <trkpt lat="42.98256" lon="0.54831">
        <ele>1089</ele>
        <time>2019-06-30T07:31:40.000Z</time>
      </trkpt>
      <trkpt lat="42.98257" lon="0.54831">
        <ele>1089</ele>
        <time>2019-06-30T07:31:42.000Z</time>
      </trkpt>
      <trkpt lat="42.98257" lon="0.54831">
        <ele>1088</ele>
        <time>2019-06-30T07:31:44.000Z</time>
      </trkpt>
      <trkpt lat="42.98256" lon="0.54831">
        <ele>1089</ele>
        <time>2019-06-30T07:31:46.000Z</time>
      </trkpt>
      <trkpt lat="42.98256" lon="0.54831">
        <ele>1089</ele>
        <time>2019-06-30T07:31:48.000Z</time>
      </trkpt>
      <trkpt lat="42.98256" lon="0.54832">
        <ele>1089</ele>
        <time>2019-06-30T07:31:50.000Z</time>
      </trkpt>
      <trkpt lat="42.98256" lon="0.54831">
        <ele>1089</ele>
        <time>2019-06-30T07:31:52.000Z</time>
      </trkpt>
      <trkpt lat="42.98256" lon="0.54831">
        <ele>1089</ele>
        <time>2019-06-30T07:31:54.000Z</time>
      </trkpt>
      <trkpt lat="42.98257" lon="0.5483">
        <ele>1089</ele>
        <time>2019-06-30T07:31:56.000Z</time>
      </trkpt>
      <trkpt lat="42.98257" lon="0.54829">
        <ele>1089</ele>
        <time>2019-06-30T07:31:58.000Z</time>
      </trkpt>
      <trkpt lat="42.98258" lon="0.54828">
        <ele>1089</ele>
        <time>2019-06-30T07:32:00.000Z</time>
      </trkpt>
      <trkpt lat="42.98259" lon="0.54826">
        <ele>1089</ele>
        <time>2019-06-30T07:32:02.000Z</time>
      </trkpt>
      <trkpt lat="42.9826" lon="0.54825">
        <ele>1089</ele>
        <time>2019-06-30T07:32:04.000Z</time>
      </trkpt>
      <trkpt lat="42.98261" lon="0.54823">
        <ele>1089</ele>
        <time>2019-06-30T07:32:06.000Z</time>
      </trkpt>
      <trkpt lat="42.98262" lon="0.54822">
        <ele>1089</ele>
        <time>2019-06-30T07:32:08.000Z</time>
      </trkpt>
      <trkpt lat="42.98262" lon="0.54819">
        <ele>1090</ele>
        <time>2019-06-30T07:32:10.000Z</time>
      </trkpt>
      <trkpt lat="42.98262" lon="0.54818">
        <ele>1090</ele>
        <time>2019-06-30T07:32:12.000Z</time>
      </trkpt>
      <trkpt lat="42.98264" lon="0.54816">
        <ele>1090</ele>
        <time>2019-06-30T07:32:14.000Z</time>
      </trkpt>
      <trkpt lat="42.98265" lon="0.54814">
        <ele>1090</ele>
        <time>2019-06-30T07:32:16.000Z</time>
      </trkpt>
      <trkpt lat="42.98265" lon="0.54812">
        <ele>1090</ele>
        <time>2019-06-30T07:32:18.000Z</time>
      </trkpt>
      <trkpt lat="42.98266" lon="0.54811">
        <ele>1091</ele>
        <time>2019-06-30T07:32:20.000Z</time>
      </trkpt>
      <trkpt lat="42.98266" lon="0.54809">
        <ele>1091</ele>
        <time>2019-06-30T07:32:22.000Z</time>
      </trkpt>
      <trkpt lat="42.98266" lon="0.54808">
        <ele>1091</ele>
        <time>2019-06-30T07:32:24.000Z</time>
      </trkpt>
      <trkpt lat="42.98266" lon="0.54807">
        <ele>1091</ele>
        <time>2019-06-30T07:32:26.000Z</time>
      </trkpt>
      <trkpt lat="42.98267" lon="0.54805">
        <ele>1092</ele>
        <time>2019-06-30T07:32:28.000Z</time>
      </trkpt>
      <trkpt lat="42.98267" lon="0.54803">
        <ele>1092</ele>
        <time>2019-06-30T07:32:30.000Z</time>
      </trkpt>
      <trkpt lat="42.98268" lon="0.54801">
        <ele>1092</ele>
        <time>2019-06-30T07:32:32.000Z</time>
      </trkpt>
      <trkpt lat="42.98269" lon="0.54799">
        <ele>1093</ele>
        <time>2019-06-30T07:32:34.000Z</time>
      </trkpt>
      <trkpt lat="42.9827" lon="0.54797">
        <ele>1093</ele>
        <time>2019-06-30T07:32:36.000Z</time>
      </trkpt>
      <trkpt lat="42.98271" lon="0.54795">
        <ele>1093</ele>
        <time>2019-06-30T07:32:38.000Z</time>
      </trkpt>
      <trkpt lat="42.98272" lon="0.54793">
        <ele>1094</ele>
        <time>2019-06-30T07:32:40.000Z</time>
      </trkpt>
      <trkpt lat="42.98273" lon="0.54791">
        <ele>1094</ele>
        <time>2019-06-30T07:32:42.000Z</time>
      </trkpt>
      <trkpt lat="42.98274" lon="0.54788">
        <ele>1095</ele>
        <time>2019-06-30T07:32:44.000Z</time>
      </trkpt>
      <trkpt lat="42.98274" lon="0.54787">
        <ele>1095</ele>
        <time>2019-06-30T07:32:46.000Z</time>
      </trkpt>
      <trkpt lat="42.98275" lon="0.54785">
        <ele>1095</ele>
        <time>2019-06-30T07:32:48.000Z</time>
      </trkpt>
      <trkpt lat="42.98276" lon="0.54784">
        <ele>1096</ele>
        <time>2019-06-30T07:32:50.000Z</time>
      </trkpt>
      <trkpt lat="42.98277" lon="0.54782">
        <ele>1096</ele>
        <time>2019-06-30T07:32:52.000Z</time>
      </trkpt>
      <trkpt lat="42.98278" lon="0.54781">
        <ele>1096</ele>
        <time>2019-06-30T07:32:54.000Z</time>
      </trkpt>
      <trkpt lat="42.98279" lon="0.54779">
        <ele>1096</ele>
        <time>2019-06-30T07:32:56.000Z</time>
      </trkpt>
      <trkpt lat="42.98279" lon="0.54778">
        <ele>1096</ele>
        <time>2019-06-30T07:32:58.000Z</time>
      </trkpt>
      <trkpt lat="42.9828" lon="0.54777">
        <ele>1097</ele>
        <time>2019-06-30T07:33:00.000Z</time>
      </trkpt>
      <trkpt lat="42.98281" lon="0.54775">
        <ele>1097</ele>
        <time>2019-06-30T07:33:02.000Z</time>
      </trkpt>
      <trkpt lat="42.98281" lon="0.54774">
        <ele>1097</ele>
        <time>2019-06-30T07:33:04.000Z</time>
      </trkpt>
      <trkpt lat="42.98282" lon="0.54772">
        <ele>1098</ele>
        <time>2019-06-30T07:33:06.000Z</time>
      </trkpt>
      <trkpt lat="42.98283" lon="0.5477">
        <ele>1098</ele>
        <time>2019-06-30T07:33:08.000Z</time>
      </trkpt>
      <trkpt lat="42.98283" lon="0.54768">
        <ele>1098</ele>
        <time>2019-06-30T07:33:10.000Z</time>
      </trkpt>
      <trkpt lat="42.98283" lon="0.54766">
        <ele>1099</ele>
        <time>2019-06-30T07:33:12.000Z</time>
      </trkpt>
      <trkpt lat="42.98282" lon="0.54763">
        <ele>1100</ele>
        <time>2019-06-30T07:33:14.000Z</time>
      </trkpt>
      <trkpt lat="42.98283" lon="0.54762">
        <ele>1101</ele>
        <time>2019-06-30T07:33:16.000Z</time>
      </trkpt>
      <trkpt lat="42.98283" lon="0.5476">
        <ele>1101</ele>
        <time>2019-06-30T07:33:18.000Z</time>
      </trkpt>
      <trkpt lat="42.98283" lon="0.54758">
        <ele>1102</ele>
        <time>2019-06-30T07:33:20.000Z</time>
      </trkpt>
      <trkpt lat="42.98284" lon="0.54756">
        <ele>1102</ele>
        <time>2019-06-30T07:33:22.000Z</time>
      </trkpt>
      <trkpt lat="42.98284" lon="0.54755">
        <ele>1103</ele>
        <time>2019-06-30T07:33:24.000Z</time>
      </trkpt>
      <trkpt lat="42.98284" lon="0.54753">
        <ele>1103</ele>
        <time>2019-06-30T07:33:26.000Z</time>
      </trkpt>
      <trkpt lat="42.98285" lon="0.54752">
        <ele>1103</ele>
        <time>2019-06-30T07:33:28.000Z</time>
      </trkpt>
      <trkpt lat="42.98285" lon="0.5475">
        <ele>1104</ele>
        <time>2019-06-30T07:33:30.000Z</time>
      </trkpt>
      <trkpt lat="42.98285" lon="0.54748">
        <ele>1105</ele>
        <time>2019-06-30T07:33:32.000Z</time>
      </trkpt>
      <trkpt lat="42.98285" lon="0.54746">
        <ele>1105</ele>
        <time>2019-06-30T07:33:34.000Z</time>
      </trkpt>
      <trkpt lat="42.98286" lon="0.54744">
        <ele>1106</ele>
        <time>2019-06-30T07:33:36.000Z</time>
      </trkpt>
      <trkpt lat="42.98287" lon="0.54743">
        <ele>1106</ele>
        <time>2019-06-30T07:33:38.000Z</time>
      </trkpt>
      <trkpt lat="42.98288" lon="0.54741">
        <ele>1106</ele>
        <time>2019-06-30T07:33:40.000Z</time>
      </trkpt>
      <trkpt lat="42.98289" lon="0.5474">
        <ele>1106</ele>
        <time>2019-06-30T07:33:42.000Z</time>
      </trkpt>
      <trkpt lat="42.9829" lon="0.54739">
        <ele>1106</ele>
        <time>2019-06-30T07:33:44.000Z</time>
      </trkpt>
      <trkpt lat="42.9829" lon="0.54738">
        <ele>1106</ele>
        <time>2019-06-30T07:33:46.000Z</time>
      </trkpt>
      <trkpt lat="42.98291" lon="0.54737">
        <ele>1106</ele>
        <time>2019-06-30T07:33:48.000Z</time>
      </trkpt>
      <trkpt lat="42.98291" lon="0.54735">
        <ele>1106</ele>
        <time>2019-06-30T07:33:50.000Z</time>
      </trkpt>
      <trkpt lat="42.98291" lon="0.54734">
        <ele>1106</ele>
        <time>2019-06-30T07:33:52.000Z</time>
      </trkpt>
      <trkpt lat="42.98291" lon="0.54732">
        <ele>1107</ele>
        <time>2019-06-30T07:33:54.000Z</time>
      </trkpt>
      <trkpt lat="42.98291" lon="0.54731">
        <ele>1107</ele>
        <time>2019-06-30T07:33:56.000Z</time>
      </trkpt>
      <trkpt lat="42.98292" lon="0.54731">
        <ele>1107</ele>
        <time>2019-06-30T07:33:58.000Z</time>
      </trkpt>
      <trkpt lat="42.98293" lon="0.5473">
        <ele>1107</ele>
        <time>2019-06-30T07:34:00.000Z</time>
      </trkpt>
      <trkpt lat="42.98293" lon="0.54729">
        <ele>1107</ele>
        <time>2019-06-30T07:34:02.000Z</time>
      </trkpt>
      <trkpt lat="42.98293" lon="0.54728">
        <ele>1107</ele>
        <time>2019-06-30T07:34:04.000Z</time>
      </trkpt>
      <trkpt lat="42.98293" lon="0.54726">
        <ele>1108</ele>
        <time>2019-06-30T07:34:06.000Z</time>
      </trkpt>
      <trkpt lat="42.98294" lon="0.54725">
        <ele>1108</ele>
        <time>2019-06-30T07:34:08.000Z</time>
      </trkpt>
      <trkpt lat="42.98295" lon="0.54724">
        <ele>1108</ele>
        <time>2019-06-30T07:34:10.000Z</time>
      </trkpt>
      <trkpt lat="42.98295" lon="0.54723">
        <ele>1108</ele>
        <time>2019-06-30T07:34:12.000Z</time>
      </trkpt>
      <trkpt lat="42.98295" lon="0.54721">
        <ele>1108</ele>
        <time>2019-06-30T07:34:14.000Z</time>
      </trkpt>
      <trkpt lat="42.98296" lon="0.5472">
        <ele>1108</ele>
        <time>2019-06-30T07:34:16.000Z</time>
      </trkpt>
      <trkpt lat="42.98298" lon="0.54719">
        <ele>1108</ele>
        <time>2019-06-30T07:34:18.000Z</time>
      </trkpt>
      <trkpt lat="42.98298" lon="0.54717">
        <ele>1108</ele>
        <time>2019-06-30T07:34:20.000Z</time>
      </trkpt>
      <trkpt lat="42.98299" lon="0.54716">
        <ele>1108</ele>
        <time>2019-06-30T07:34:22.000Z</time>
      </trkpt>
      <trkpt lat="42.983" lon="0.54714">
        <ele>1109</ele>
        <time>2019-06-30T07:34:24.000Z</time>
      </trkpt>
      <trkpt lat="42.98301" lon="0.54712">
        <ele>1109</ele>
        <time>2019-06-30T07:34:26.000Z</time>
      </trkpt>
      <trkpt lat="42.98301" lon="0.54711">
        <ele>1110</ele>
        <time>2019-06-30T07:34:28.000Z</time>
      </trkpt>
      <trkpt lat="42.98302" lon="0.54709">
        <ele>1110</ele>
        <time>2019-06-30T07:34:30.000Z</time>
      </trkpt>
      <trkpt lat="42.98303" lon="0.54708">
        <ele>1110</ele>
        <time>2019-06-30T07:34:32.000Z</time>
      </trkpt>
      <trkpt lat="42.98303" lon="0.54707">
        <ele>1110</ele>
        <time>2019-06-30T07:34:34.000Z</time>
      </trkpt>
      <trkpt lat="42.98304" lon="0.54707">
        <ele>1110</ele>
        <time>2019-06-30T07:34:36.000Z</time>
      </trkpt>
      <trkpt lat="42.98305" lon="0.54705">
        <ele>1110</ele>
        <time>2019-06-30T07:34:38.000Z</time>
      </trkpt>
      <trkpt lat="42.98306" lon="0.54703">
        <ele>1111</ele>
        <time>2019-06-30T07:34:40.000Z</time>
      </trkpt>
      <trkpt lat="42.98306" lon="0.54703">
        <ele>1111</ele>
        <time>2019-06-30T07:34:42.000Z</time>
      </trkpt>
      <trkpt lat="42.98307" lon="0.54702">
        <ele>1111</ele>
        <time>2019-06-30T07:34:44.000Z</time>
      </trkpt>
      <trkpt lat="42.98308" lon="0.54701">
        <ele>1111</ele>
        <time>2019-06-30T07:34:46.000Z</time>
      </trkpt>
      <trkpt lat="42.98308" lon="0.547">
        <ele>1111</ele>
        <time>2019-06-30T07:34:48.000Z</time>
      </trkpt>
      <trkpt lat="42.98309" lon="0.54699">
        <ele>1111</ele>
        <time>2019-06-30T07:34:50.000Z</time>
      </trkpt>
      <trkpt lat="42.9831" lon="0.54699">
        <ele>1111</ele>
        <time>2019-06-30T07:34:52.000Z</time>
      </trkpt>
      <trkpt lat="42.9831" lon="0.54698">
        <ele>1111</ele>
        <time>2019-06-30T07:34:54.000Z</time>
      </trkpt>
      <trkpt lat="42.98311" lon="0.54696">
        <ele>1111</ele>
        <time>2019-06-30T07:34:56.000Z</time>
      </trkpt>
      <trkpt lat="42.98312" lon="0.54694">
        <ele>1112</ele>
        <time>2019-06-30T07:34:58.000Z</time>
      </trkpt>
      <trkpt lat="42.98313" lon="0.54693">
        <ele>1112</ele>
        <time>2019-06-30T07:35:00.000Z</time>
      </trkpt>
      <trkpt lat="42.98314" lon="0.54692">
        <ele>1112</ele>
        <time>2019-06-30T07:35:02.000Z</time>
      </trkpt>
      <trkpt lat="42.98315" lon="0.54691">
        <ele>1112</ele>
        <time>2019-06-30T07:35:04.000Z</time>
      </trkpt>
      <trkpt lat="42.98316" lon="0.54689">
        <ele>1112</ele>
        <time>2019-06-30T07:35:06.000Z</time>
      </trkpt>
      <trkpt lat="42.98317" lon="0.54688">
        <ele>1112</ele>
        <time>2019-06-30T07:35:08.000Z</time>
      </trkpt>
      <trkpt lat="42.98318" lon="0.54687">
        <ele>1112</ele>
        <time>2019-06-30T07:35:10.000Z</time>
      </trkpt>
      <trkpt lat="42.98319" lon="0.54686">
        <ele>1112</ele>
        <time>2019-06-30T07:35:12.000Z</time>
      </trkpt>
      <trkpt lat="42.9832" lon="0.54685">
        <ele>1112</ele>
        <time>2019-06-30T07:35:14.000Z</time>
      </trkpt>
      <trkpt lat="42.98321" lon="0.54685">
        <ele>1111</ele>
        <time>2019-06-30T07:35:16.000Z</time>
      </trkpt>
      <trkpt lat="42.98323" lon="0.54684">
        <ele>1111</ele>
        <time>2019-06-30T07:35:18.000Z</time>
      </trkpt>
      <trkpt lat="42.98323" lon="0.54683">
        <ele>1111</ele>
        <time>2019-06-30T07:35:20.000Z</time>
      </trkpt>
      <trkpt lat="42.98325" lon="0.54682">
        <ele>1110</ele>
        <time>2019-06-30T07:35:22.000Z</time>
      </trkpt>
      <trkpt lat="42.98326" lon="0.54681">
        <ele>1110</ele>
        <time>2019-06-30T07:35:24.000Z</time>
      </trkpt>
      <trkpt lat="42.98326" lon="0.5468">
        <ele>1111</ele>
        <time>2019-06-30T07:35:26.000Z</time>
      </trkpt>
      <trkpt lat="42.98326" lon="0.54679">
        <ele>1111</ele>
        <time>2019-06-30T07:35:28.000Z</time>
      </trkpt>
      <trkpt lat="42.98327" lon="0.54678">
        <ele>1111</ele>
        <time>2019-06-30T07:35:30.000Z</time>
      </trkpt>
      <trkpt lat="42.98328" lon="0.54677">
        <ele>1111</ele>
        <time>2019-06-30T07:35:32.000Z</time>
      </trkpt>
      <trkpt lat="42.98329" lon="0.54675">
        <ele>1111</ele>
        <time>2019-06-30T07:35:34.000Z</time>
      </trkpt>
      <trkpt lat="42.9833" lon="0.54674">
        <ele>1112</ele>
        <time>2019-06-30T07:35:36.000Z</time>
      </trkpt>
      <trkpt lat="42.9833" lon="0.54672">
        <ele>1112</ele>
        <time>2019-06-30T07:35:38.000Z</time>
      </trkpt>
      <trkpt lat="42.98331" lon="0.54671">
        <ele>1112</ele>
        <time>2019-06-30T07:35:40.000Z</time>
      </trkpt>
      <trkpt lat="42.98332" lon="0.54669">
        <ele>1113</ele>
        <time>2019-06-30T07:35:42.000Z</time>
      </trkpt>
      <trkpt lat="42.98332" lon="0.54667">
        <ele>1113</ele>
        <time>2019-06-30T07:35:44.000Z</time>
      </trkpt>
      <trkpt lat="42.98333" lon="0.54663">
        <ele>1114</ele>
        <time>2019-06-30T07:35:46.000Z</time>
      </trkpt>
      <trkpt lat="42.98333" lon="0.54661">
        <ele>1115</ele>
        <time>2019-06-30T07:35:48.000Z</time>
      </trkpt>
      <trkpt lat="42.98334" lon="0.54659">
        <ele>1115</ele>
        <time>2019-06-30T07:35:50.000Z</time>
      </trkpt>
      <trkpt lat="42.98334" lon="0.54658">
        <ele>1116</ele>
        <time>2019-06-30T07:35:52.000Z</time>
      </trkpt>
      <trkpt lat="42.98335" lon="0.54657">
        <ele>1116</ele>
        <time>2019-06-30T07:35:54.000Z</time>
      </trkpt>
      <trkpt lat="42.98336" lon="0.54656">
        <ele>1115</ele>
        <time>2019-06-30T07:35:56.000Z</time>
      </trkpt>
      <trkpt lat="42.98337" lon="0.54655">
        <ele>1116</ele>
        <time>2019-06-30T07:35:58.000Z</time>
      </trkpt>
      <trkpt lat="42.98338" lon="0.54654">
        <ele>1115</ele>
        <time>2019-06-30T07:36:00.000Z</time>
      </trkpt>
      <trkpt lat="42.98339" lon="0.54653">
        <ele>1115</ele>
        <time>2019-06-30T07:36:02.000Z</time>
      </trkpt>
      <trkpt lat="42.9834" lon="0.54652">
        <ele>1115</ele>
        <time>2019-06-30T07:36:04.000Z</time>
      </trkpt>
      <trkpt lat="42.98341" lon="0.54651">
        <ele>1115</ele>
        <time>2019-06-30T07:36:06.000Z</time>
      </trkpt>
      <trkpt lat="42.98342" lon="0.5465">
        <ele>1115</ele>
        <time>2019-06-30T07:36:08.000Z</time>
      </trkpt>
      <trkpt lat="42.98343" lon="0.54648">
        <ele>1115</ele>
        <time>2019-06-30T07:36:10.000Z</time>
      </trkpt>
      <trkpt lat="42.98344" lon="0.54647">
        <ele>1116</ele>
        <time>2019-06-30T07:36:12.000Z</time>
      </trkpt>
      <trkpt lat="42.98345" lon="0.54646">
        <ele>1116</ele>
        <time>2019-06-30T07:36:14.000Z</time>
      </trkpt>
      <trkpt lat="42.98346" lon="0.54645">
        <ele>1116</ele>
        <time>2019-06-30T07:36:16.000Z</time>
      </trkpt>
      <trkpt lat="42.98347" lon="0.54643">
        <ele>1117</ele>
        <time>2019-06-30T07:36:18.000Z</time>
      </trkpt>
      <trkpt lat="42.98348" lon="0.54642">
        <ele>1117</ele>
        <time>2019-06-30T07:36:20.000Z</time>
      </trkpt>
      <trkpt lat="42.98349" lon="0.54641">
        <ele>1117</ele>
        <time>2019-06-30T07:36:22.000Z</time>
      </trkpt>
      <trkpt lat="42.98351" lon="0.5464">
        <ele>1117</ele>
        <time>2019-06-30T07:36:24.000Z</time>
      </trkpt>
      <trkpt lat="42.98352" lon="0.54639">
        <ele>1117</ele>
        <time>2019-06-30T07:36:26.000Z</time>
      </trkpt>
      <trkpt lat="42.98353" lon="0.54637">
        <ele>1118</ele>
        <time>2019-06-30T07:36:28.000Z</time>
      </trkpt>
      <trkpt lat="42.98354" lon="0.54636">
        <ele>1118</ele>
        <time>2019-06-30T07:36:30.000Z</time>
      </trkpt>
      <trkpt lat="42.98355" lon="0.54634">
        <ele>1119</ele>
        <time>2019-06-30T07:36:32.000Z</time>
      </trkpt>
      <trkpt lat="42.98355" lon="0.54632">
        <ele>1120</ele>
        <time>2019-06-30T07:36:34.000Z</time>
      </trkpt>
      <trkpt lat="42.98356" lon="0.54629">
        <ele>1121</ele>
        <time>2019-06-30T07:36:36.000Z</time>
      </trkpt>
      <trkpt lat="42.98357" lon="0.54628">
        <ele>1121</ele>
        <time>2019-06-30T07:36:38.000Z</time>
      </trkpt>
      <trkpt lat="42.98358" lon="0.54627">
        <ele>1121</ele>
        <time>2019-06-30T07:36:40.000Z</time>
      </trkpt>
      <trkpt lat="42.98359" lon="0.54625">
        <ele>1122</ele>
        <time>2019-06-30T07:36:42.000Z</time>
      </trkpt>
      <trkpt lat="42.9836" lon="0.54624">
        <ele>1122</ele>
        <time>2019-06-30T07:36:44.000Z</time>
      </trkpt>
      <trkpt lat="42.98361" lon="0.54623">
        <ele>1122</ele>
        <time>2019-06-30T07:36:46.000Z</time>
      </trkpt>
      <trkpt lat="42.98362" lon="0.54622">
        <ele>1123</ele>
        <time>2019-06-30T07:36:48.000Z</time>
      </trkpt>
      <trkpt lat="42.98362" lon="0.5462">
        <ele>1123</ele>
        <time>2019-06-30T07:36:50.000Z</time>
      </trkpt>
      <trkpt lat="42.98363" lon="0.5462">
        <ele>1123</ele>
        <time>2019-06-30T07:36:52.000Z</time>
      </trkpt>
      <trkpt lat="42.98364" lon="0.54619">
        <ele>1124</ele>
        <time>2019-06-30T07:36:54.000Z</time>
      </trkpt>
      <trkpt lat="42.98365" lon="0.54618">
        <ele>1124</ele>
        <time>2019-06-30T07:36:56.000Z</time>
      </trkpt>
      <trkpt lat="42.98366" lon="0.54617">
        <ele>1124</ele>
        <time>2019-06-30T07:36:58.000Z</time>
      </trkpt>
      <trkpt lat="42.98367" lon="0.54616">
        <ele>1124</ele>
        <time>2019-06-30T07:37:00.000Z</time>
      </trkpt>
      <trkpt lat="42.98367" lon="0.54615">
        <ele>1124</ele>
        <time>2019-06-30T07:37:02.000Z</time>
      </trkpt>
      <trkpt lat="42.98368" lon="0.54613">
        <ele>1125</ele>
        <time>2019-06-30T07:37:04.000Z</time>
      </trkpt>
      <trkpt lat="42.98368" lon="0.54612">
        <ele>1126</ele>
        <time>2019-06-30T07:37:06.000Z</time>
      </trkpt>
      <trkpt lat="42.98368" lon="0.5461">
        <ele>1126</ele>
        <time>2019-06-30T07:37:08.000Z</time>
      </trkpt>
      <trkpt lat="42.98369" lon="0.54608">
        <ele>1127</ele>
        <time>2019-06-30T07:37:10.000Z</time>
      </trkpt>
      <trkpt lat="42.9837" lon="0.54607">
        <ele>1127</ele>
        <time>2019-06-30T07:37:12.000Z</time>
      </trkpt>
      <trkpt lat="42.98371" lon="0.54606">
        <ele>1127</ele>
        <time>2019-06-30T07:37:14.000Z</time>
      </trkpt>
      <trkpt lat="42.98372" lon="0.54605">
        <ele>1128</ele>
        <time>2019-06-30T07:37:16.000Z</time>
      </trkpt>
      <trkpt lat="42.98373" lon="0.54604">
        <ele>1128</ele>
        <time>2019-06-30T07:37:18.000Z</time>
      </trkpt>
      <trkpt lat="42.98373" lon="0.54605">
        <ele>1128</ele>
        <time>2019-06-30T07:37:20.000Z</time>
      </trkpt>
      <trkpt lat="42.98374" lon="0.54604">
        <ele>1128</ele>
        <time>2019-06-30T07:37:22.000Z</time>
      </trkpt>
      <trkpt lat="42.98374" lon="0.54603">
        <ele>1128</ele>
        <time>2019-06-30T07:37:24.000Z</time>
      </trkpt>
      <trkpt lat="42.98375" lon="0.54603">
        <ele>1128</ele>
        <time>2019-06-30T07:37:26.000Z</time>
      </trkpt>
      <trkpt lat="42.98376" lon="0.54602">
        <ele>1128</ele>
        <time>2019-06-30T07:37:28.000Z</time>
      </trkpt>
      <trkpt lat="42.98376" lon="0.54602">
        <ele>1128</ele>
        <time>2019-06-30T07:37:30.000Z</time>
      </trkpt>
      <trkpt lat="42.98377" lon="0.54603">
        <ele>1128</ele>
        <time>2019-06-30T07:37:32.000Z</time>
      </trkpt>
      <trkpt lat="42.98376" lon="0.54603">
        <ele>1128</ele>
        <time>2019-06-30T07:37:34.000Z</time>
      </trkpt>
      <trkpt lat="42.98377" lon="0.54603">
        <ele>1128</ele>
        <time>2019-06-30T07:37:36.000Z</time>
      </trkpt>
      <trkpt lat="42.98378" lon="0.54603">
        <ele>1128</ele>
        <time>2019-06-30T07:37:38.000Z</time>
      </trkpt>
      <trkpt lat="42.98378" lon="0.54601">
        <ele>1128</ele>
        <time>2019-06-30T07:37:40.000Z</time>
      </trkpt>
      <trkpt lat="42.98378" lon="0.546">
        <ele>1129</ele>
        <time>2019-06-30T07:37:42.000Z</time>
      </trkpt>
      <trkpt lat="42.98379" lon="0.54599">
        <ele>1129</ele>
        <time>2019-06-30T07:37:44.000Z</time>
      </trkpt>
      <trkpt lat="42.98379" lon="0.54598">
        <ele>1129</ele>
        <time>2019-06-30T07:37:46.000Z</time>
      </trkpt>
      <trkpt lat="42.9838" lon="0.54597">
        <ele>1130</ele>
        <time>2019-06-30T07:37:48.000Z</time>
      </trkpt>
      <trkpt lat="42.98381" lon="0.54597">
        <ele>1130</ele>
        <time>2019-06-30T07:37:50.000Z</time>
      </trkpt>
      <trkpt lat="42.98381" lon="0.54596">
        <ele>1130</ele>
        <time>2019-06-30T07:37:52.000Z</time>
      </trkpt>
      <trkpt lat="42.98382" lon="0.54595">
        <ele>1130</ele>
        <time>2019-06-30T07:37:54.000Z</time>
      </trkpt>
      <trkpt lat="42.98383" lon="0.54594">
        <ele>1131</ele>
        <time>2019-06-30T07:37:56.000Z</time>
      </trkpt>
      <trkpt lat="42.98383" lon="0.54593">
        <ele>1131</ele>
        <time>2019-06-30T07:37:58.000Z</time>
      </trkpt>
      <trkpt lat="42.98384" lon="0.54591">
        <ele>1131</ele>
        <time>2019-06-30T07:38:00.000Z</time>
      </trkpt>
      <trkpt lat="42.98385" lon="0.5459">
        <ele>1132</ele>
        <time>2019-06-30T07:38:02.000Z</time>
      </trkpt>
      <trkpt lat="42.98386" lon="0.5459">
        <ele>1132</ele>
        <time>2019-06-30T07:38:04.000Z</time>
      </trkpt>
      <trkpt lat="42.98387" lon="0.54589">
        <ele>1132</ele>
        <time>2019-06-30T07:38:06.000Z</time>
      </trkpt>
      <trkpt lat="42.98388" lon="0.54587">
        <ele>1133</ele>
        <time>2019-06-30T07:38:08.000Z</time>
      </trkpt>
      <trkpt lat="42.98389" lon="0.54586">
        <ele>1133</ele>
        <time>2019-06-30T07:38:10.000Z</time>
      </trkpt>
      <trkpt lat="42.98389" lon="0.54585">
        <ele>1133</ele>
        <time>2019-06-30T07:38:12.000Z</time>
      </trkpt>
      <trkpt lat="42.9839" lon="0.54584">
        <ele>1134</ele>
        <time>2019-06-30T07:38:14.000Z</time>
      </trkpt>
      <trkpt lat="42.98391" lon="0.54583">
        <ele>1134</ele>
        <time>2019-06-30T07:38:16.000Z</time>
      </trkpt>
      <trkpt lat="42.98392" lon="0.54582">
        <ele>1134</ele>
        <time>2019-06-30T07:38:18.000Z</time>
      </trkpt>
      <trkpt lat="42.98392" lon="0.54581">
        <ele>1135</ele>
        <time>2019-06-30T07:38:20.000Z</time>
      </trkpt>
      <trkpt lat="42.98393" lon="0.5458">
        <ele>1135</ele>
        <time>2019-06-30T07:38:22.000Z</time>
      </trkpt>
      <trkpt lat="42.98393" lon="0.54578">
        <ele>1136</ele>
        <time>2019-06-30T07:38:24.000Z</time>
      </trkpt>
      <trkpt lat="42.98394" lon="0.54577">
        <ele>1136</ele>
        <time>2019-06-30T07:38:26.000Z</time>
      </trkpt>
      <trkpt lat="42.98395" lon="0.54575">
        <ele>1137</ele>
        <time>2019-06-30T07:38:28.000Z</time>
      </trkpt>
      <trkpt lat="42.98396" lon="0.54574">
        <ele>1137</ele>
        <time>2019-06-30T07:38:30.000Z</time>
      </trkpt>
      <trkpt lat="42.98397" lon="0.54573">
        <ele>1138</ele>
        <time>2019-06-30T07:38:32.000Z</time>
      </trkpt>
      <trkpt lat="42.98398" lon="0.54572">
        <ele>1138</ele>
        <time>2019-06-30T07:38:34.000Z</time>
      </trkpt>
      <trkpt lat="42.98398" lon="0.54571">
        <ele>1138</ele>
        <time>2019-06-30T07:38:36.000Z</time>
      </trkpt>
      <trkpt lat="42.984" lon="0.5457">
        <ele>1138</ele>
        <time>2019-06-30T07:38:38.000Z</time>
      </trkpt>
      <trkpt lat="42.984" lon="0.54569">
        <ele>1139</ele>
        <time>2019-06-30T07:38:40.000Z</time>
      </trkpt>
      <trkpt lat="42.98401" lon="0.54568">
        <ele>1139</ele>
        <time>2019-06-30T07:38:42.000Z</time>
      </trkpt>
      <trkpt lat="42.98401" lon="0.54567">
        <ele>1140</ele>
        <time>2019-06-30T07:38:44.000Z</time>
      </trkpt>
      <trkpt lat="42.98402" lon="0.54566">
        <ele>1140</ele>
        <time>2019-06-30T07:38:46.000Z</time>
      </trkpt>
      <trkpt lat="42.98403" lon="0.54565">
        <ele>1140</ele>
        <time>2019-06-30T07:38:48.000Z</time>
      </trkpt>
      <trkpt lat="42.98404" lon="0.54564">
        <ele>1140</ele>
        <time>2019-06-30T07:38:50.000Z</time>
      </trkpt>
      <trkpt lat="42.98404" lon="0.54564">
        <ele>1140</ele>
        <time>2019-06-30T07:38:52.000Z</time>
      </trkpt>
      <trkpt lat="42.98405" lon="0.54562">
        <ele>1141</ele>
        <time>2019-06-30T07:38:54.000Z</time>
      </trkpt>
      <trkpt lat="42.98405" lon="0.54561">
        <ele>1141</ele>
        <time>2019-06-30T07:38:56.000Z</time>
      </trkpt>
      <trkpt lat="42.98405" lon="0.5456">
        <ele>1142</ele>
        <time>2019-06-30T07:38:58.000Z</time>
      </trkpt>
      <trkpt lat="42.98405" lon="0.54559">
        <ele>1142</ele>
        <time>2019-06-30T07:39:00.000Z</time>
      </trkpt>
      <trkpt lat="42.98406" lon="0.54558">
        <ele>1143</ele>
        <time>2019-06-30T07:39:02.000Z</time>
      </trkpt>
      <trkpt lat="42.98406" lon="0.54556">
        <ele>1143</ele>
        <time>2019-06-30T07:39:04.000Z</time>
      </trkpt>
      <trkpt lat="42.98407" lon="0.54555">
        <ele>1144</ele>
        <time>2019-06-30T07:39:06.000Z</time>
      </trkpt>
      <trkpt lat="42.98408" lon="0.54554">
        <ele>1144</ele>
        <time>2019-06-30T07:39:08.000Z</time>
      </trkpt>
      <trkpt lat="42.98409" lon="0.54553">
        <ele>1145</ele>
        <time>2019-06-30T07:39:10.000Z</time>
      </trkpt>
      <trkpt lat="42.98409" lon="0.5455">
        <ele>1146</ele>
        <time>2019-06-30T07:39:12.000Z</time>
      </trkpt>
      <trkpt lat="42.98409" lon="0.54549">
        <ele>1147</ele>
        <time>2019-06-30T07:39:14.000Z</time>
      </trkpt>
      <trkpt lat="42.9841" lon="0.54548">
        <ele>1148</ele>
        <time>2019-06-30T07:39:16.000Z</time>
      </trkpt>
      <trkpt lat="42.98411" lon="0.54547">
        <ele>1149</ele>
        <time>2019-06-30T07:39:18.000Z</time>
      </trkpt>
      <trkpt lat="42.98412" lon="0.54545">
        <ele>1150</ele>
        <time>2019-06-30T07:39:20.000Z</time>
      </trkpt>
      <trkpt lat="42.98412" lon="0.54543">
        <ele>1151</ele>
        <time>2019-06-30T07:39:22.000Z</time>
      </trkpt>
      <trkpt lat="42.98413" lon="0.54543">
        <ele>1152</ele>
        <time>2019-06-30T07:39:24.000Z</time>
      </trkpt>
      <trkpt lat="42.98413" lon="0.54541">
        <ele>1153</ele>
        <time>2019-06-30T07:39:26.000Z</time>
      </trkpt>
      <trkpt lat="42.98413" lon="0.5454">
        <ele>1154</ele>
        <time>2019-06-30T07:39:28.000Z</time>
      </trkpt>
      <trkpt lat="42.98414" lon="0.54539">
        <ele>1155</ele>
        <time>2019-06-30T07:39:30.000Z</time>
      </trkpt>
      <trkpt lat="42.98415" lon="0.54539">
        <ele>1154</ele>
        <time>2019-06-30T07:39:32.000Z</time>
      </trkpt>
      <trkpt lat="42.98416" lon="0.54538">
        <ele>1154</ele>
        <time>2019-06-30T07:39:34.000Z</time>
      </trkpt>
      <trkpt lat="42.98417" lon="0.54537">
        <ele>1154</ele>
        <time>2019-06-30T07:39:36.000Z</time>
      </trkpt>
      <trkpt lat="42.98417" lon="0.54536">
        <ele>1154</ele>
        <time>2019-06-30T07:39:38.000Z</time>
      </trkpt>
      <trkpt lat="42.98418" lon="0.54535">
        <ele>1155</ele>
        <time>2019-06-30T07:39:40.000Z</time>
      </trkpt>
      <trkpt lat="42.98418" lon="0.54534">
        <ele>1155</ele>
        <time>2019-06-30T07:39:42.000Z</time>
      </trkpt>
      <trkpt lat="42.98419" lon="0.54534">
        <ele>1155</ele>
        <time>2019-06-30T07:39:44.000Z</time>
      </trkpt>
      <trkpt lat="42.9842" lon="0.54533">
        <ele>1154</ele>
        <time>2019-06-30T07:39:46.000Z</time>
      </trkpt>
      <trkpt lat="42.98421" lon="0.54533">
        <ele>1154</ele>
        <time>2019-06-30T07:39:48.000Z</time>
      </trkpt>
      <trkpt lat="42.98421" lon="0.54531">
        <ele>1155</ele>
        <time>2019-06-30T07:39:50.000Z</time>
      </trkpt>
      <trkpt lat="42.98421" lon="0.54529">
        <ele>1155</ele>
        <time>2019-06-30T07:39:52.000Z</time>
      </trkpt>
      <trkpt lat="42.98422" lon="0.54528">
        <ele>1155</ele>
        <time>2019-06-30T07:39:54.000Z</time>
      </trkpt>
      <trkpt lat="42.98423" lon="0.54527">
        <ele>1155</ele>
        <time>2019-06-30T07:39:56.000Z</time>
      </trkpt>
      <trkpt lat="42.98423" lon="0.54526">
        <ele>1156</ele>
        <time>2019-06-30T07:39:58.000Z</time>
      </trkpt>
      <trkpt lat="42.98424" lon="0.54525">
        <ele>1156</ele>
        <time>2019-06-30T07:40:00.000Z</time>
      </trkpt>
      <trkpt lat="42.98425" lon="0.54524">
        <ele>1156</ele>
        <time>2019-06-30T07:40:02.000Z</time>
      </trkpt>
      <trkpt lat="42.98426" lon="0.54523">
        <ele>1156</ele>
        <time>2019-06-30T07:40:04.000Z</time>
      </trkpt>
      <trkpt lat="42.98427" lon="0.54521">
        <ele>1157</ele>
        <time>2019-06-30T07:40:06.000Z</time>
      </trkpt>
      <trkpt lat="42.98427" lon="0.5452">
        <ele>1157</ele>
        <time>2019-06-30T07:40:08.000Z</time>
      </trkpt>
      <trkpt lat="42.98428" lon="0.54518">
        <ele>1158</ele>
        <time>2019-06-30T07:40:10.000Z</time>
      </trkpt>
      <trkpt lat="42.98428" lon="0.54516">
        <ele>1159</ele>
        <time>2019-06-30T07:40:12.000Z</time>
      </trkpt>
      <trkpt lat="42.98429" lon="0.54515">
        <ele>1159</ele>
        <time>2019-06-30T07:40:14.000Z</time>
      </trkpt>
      <trkpt lat="42.9843" lon="0.54514">
        <ele>1159</ele>
        <time>2019-06-30T07:40:16.000Z</time>
      </trkpt>
      <trkpt lat="42.98431" lon="0.54514">
        <ele>1160</ele>
        <time>2019-06-30T07:40:18.000Z</time>
      </trkpt>
      <trkpt lat="42.98431" lon="0.54513">
        <ele>1160</ele>
        <time>2019-06-30T07:40:20.000Z</time>
      </trkpt>
      <trkpt lat="42.98431" lon="0.54512">
        <ele>1160</ele>
        <time>2019-06-30T07:40:22.000Z</time>
      </trkpt>
      <trkpt lat="42.9843" lon="0.54511">
        <ele>1161</ele>
        <time>2019-06-30T07:40:24.000Z</time>
      </trkpt>
      <trkpt lat="42.98431" lon="0.5451">
        <ele>1161</ele>
        <time>2019-06-30T07:40:26.000Z</time>
      </trkpt>
      <trkpt lat="42.98431" lon="0.54509">
        <ele>1162</ele>
        <time>2019-06-30T07:40:28.000Z</time>
      </trkpt>
      <trkpt lat="42.98432" lon="0.54507">
        <ele>1163</ele>
        <time>2019-06-30T07:40:30.000Z</time>
      </trkpt>
      <trkpt lat="42.98433" lon="0.54505">
        <ele>1163</ele>
        <time>2019-06-30T07:40:32.000Z</time>
      </trkpt>
      <trkpt lat="42.98433" lon="0.54504">
        <ele>1164</ele>
        <time>2019-06-30T07:40:34.000Z</time>
      </trkpt>
      <trkpt lat="42.98433" lon="0.54503">
        <ele>1165</ele>
        <time>2019-06-30T07:40:36.000Z</time>
      </trkpt>
      <trkpt lat="42.98434" lon="0.54501">
        <ele>1165</ele>
        <time>2019-06-30T07:40:38.000Z</time>
      </trkpt>
      <trkpt lat="42.98435" lon="0.54498">
        <ele>1167</ele>
        <time>2019-06-30T07:40:40.000Z</time>
      </trkpt>
      <trkpt lat="42.98436" lon="0.54497">
        <ele>1167</ele>
        <time>2019-06-30T07:40:42.000Z</time>
      </trkpt>
      <trkpt lat="42.98436" lon="0.54495">
        <ele>1168</ele>
        <time>2019-06-30T07:40:44.000Z</time>
      </trkpt>
      <trkpt lat="42.98437" lon="0.54494">
        <ele>1168</ele>
        <time>2019-06-30T07:40:46.000Z</time>
      </trkpt>
      <trkpt lat="42.98438" lon="0.54492">
        <ele>1169</ele>
        <time>2019-06-30T07:40:48.000Z</time>
      </trkpt>
      <trkpt lat="42.98439" lon="0.54491">
        <ele>1170</ele>
        <time>2019-06-30T07:40:50.000Z</time>
      </trkpt>
      <trkpt lat="42.98439" lon="0.54489">
        <ele>1170</ele>
        <time>2019-06-30T07:40:52.000Z</time>
      </trkpt>
      <trkpt lat="42.9844" lon="0.54488">
        <ele>1171</ele>
        <time>2019-06-30T07:40:54.000Z</time>
      </trkpt>
      <trkpt lat="42.98441" lon="0.54486">
        <ele>1171</ele>
        <time>2019-06-30T07:40:56.000Z</time>
      </trkpt>
      <trkpt lat="42.98441" lon="0.54486">
        <ele>1172</ele>
        <time>2019-06-30T07:40:58.000Z</time>
      </trkpt>
      <trkpt lat="42.98442" lon="0.54485">
        <ele>1172</ele>
        <time>2019-06-30T07:41:00.000Z</time>
      </trkpt>
      <trkpt lat="42.98442" lon="0.54484">
        <ele>1172</ele>
        <time>2019-06-30T07:41:02.000Z</time>
      </trkpt>
      <trkpt lat="42.98442" lon="0.54483">
        <ele>1173</ele>
        <time>2019-06-30T07:41:04.000Z</time>
      </trkpt>
      <trkpt lat="42.98442" lon="0.54482">
        <ele>1173</ele>
        <time>2019-06-30T07:41:06.000Z</time>
      </trkpt>
      <trkpt lat="42.98443" lon="0.54481">
        <ele>1173</ele>
        <time>2019-06-30T07:41:08.000Z</time>
      </trkpt>
      <trkpt lat="42.98443" lon="0.54479">
        <ele>1174</ele>
        <time>2019-06-30T07:41:10.000Z</time>
      </trkpt>
      <trkpt lat="42.98444" lon="0.54478">
        <ele>1174</ele>
        <time>2019-06-30T07:41:12.000Z</time>
      </trkpt>
      <trkpt lat="42.98444" lon="0.54477">
        <ele>1175</ele>
        <time>2019-06-30T07:41:14.000Z</time>
      </trkpt>
      <trkpt lat="42.98445" lon="0.54476">
        <ele>1175</ele>
        <time>2019-06-30T07:41:16.000Z</time>
      </trkpt>
      <trkpt lat="42.98446" lon="0.54474">
        <ele>1175</ele>
        <time>2019-06-30T07:41:18.000Z</time>
      </trkpt>
      <trkpt lat="42.98446" lon="0.54474">
        <ele>1175</ele>
        <time>2019-06-30T07:41:20.000Z</time>
      </trkpt>
      <trkpt lat="42.98447" lon="0.54473">
        <ele>1175</ele>
        <time>2019-06-30T07:41:22.000Z</time>
      </trkpt>
      <trkpt lat="42.98448" lon="0.54472">
        <ele>1176</ele>
        <time>2019-06-30T07:41:24.000Z</time>
      </trkpt>
      <trkpt lat="42.98449" lon="0.54471">
        <ele>1176</ele>
        <time>2019-06-30T07:41:26.000Z</time>
      </trkpt>
      <trkpt lat="42.98449" lon="0.54469">
        <ele>1177</ele>
        <time>2019-06-30T07:41:28.000Z</time>
      </trkpt>
      <trkpt lat="42.9845" lon="0.54468">
        <ele>1177</ele>
        <time>2019-06-30T07:41:30.000Z</time>
      </trkpt>
      <trkpt lat="42.98451" lon="0.54467">
        <ele>1177</ele>
        <time>2019-06-30T07:41:32.000Z</time>
      </trkpt>
      <trkpt lat="42.98452" lon="0.54466">
        <ele>1177</ele>
        <time>2019-06-30T07:41:34.000Z</time>
      </trkpt>
      <trkpt lat="42.98453" lon="0.54465">
        <ele>1178</ele>
        <time>2019-06-30T07:41:36.000Z</time>
      </trkpt>
      <trkpt lat="42.98454" lon="0.54466">
        <ele>1177</ele>
        <time>2019-06-30T07:41:38.000Z</time>
      </trkpt>
      <trkpt lat="42.98455" lon="0.54467">
        <ele>1177</ele>
        <time>2019-06-30T07:41:40.000Z</time>
      </trkpt>
      <trkpt lat="42.98455" lon="0.54468">
        <ele>1176</ele>
        <time>2019-06-30T07:41:42.000Z</time>
      </trkpt>
      <trkpt lat="42.98457" lon="0.54469">
        <ele>1175</ele>
        <time>2019-06-30T07:41:44.000Z</time>
      </trkpt>
      <trkpt lat="42.98457" lon="0.5447">
        <ele>1175</ele>
        <time>2019-06-30T07:41:46.000Z</time>
      </trkpt>
      <trkpt lat="42.98458" lon="0.5447">
        <ele>1175</ele>
        <time>2019-06-30T07:41:48.000Z</time>
      </trkpt>
      <trkpt lat="42.98459" lon="0.54471">
        <ele>1174</ele>
        <time>2019-06-30T07:41:50.000Z</time>
      </trkpt>
      <trkpt lat="42.9846" lon="0.5447">
        <ele>1174</ele>
        <time>2019-06-30T07:41:52.000Z</time>
      </trkpt>
      <trkpt lat="42.98462" lon="0.54469">
        <ele>1174</ele>
        <time>2019-06-30T07:41:54.000Z</time>
      </trkpt>
      <trkpt lat="42.98463" lon="0.54468">
        <ele>1175</ele>
        <time>2019-06-30T07:41:56.000Z</time>
      </trkpt>
      <trkpt lat="42.98464" lon="0.54468">
        <ele>1174</ele>
        <time>2019-06-30T07:41:58.000Z</time>
      </trkpt>
      <trkpt lat="42.98466" lon="0.54466">
        <ele>1175</ele>
        <time>2019-06-30T07:42:00.000Z</time>
      </trkpt>
      <trkpt lat="42.98466" lon="0.54466">
        <ele>1175</ele>
        <time>2019-06-30T07:42:02.000Z</time>
      </trkpt>
      <trkpt lat="42.98467" lon="0.54466">
        <ele>1174</ele>
        <time>2019-06-30T07:42:04.000Z</time>
      </trkpt>
      <trkpt lat="42.98468" lon="0.54467">
        <ele>1174</ele>
        <time>2019-06-30T07:42:06.000Z</time>
      </trkpt>
      <trkpt lat="42.98469" lon="0.54467">
        <ele>1174</ele>
        <time>2019-06-30T07:42:08.000Z</time>
      </trkpt>
      <trkpt lat="42.9847" lon="0.54467">
        <ele>1173</ele>
        <time>2019-06-30T07:42:10.000Z</time>
      </trkpt>
      <trkpt lat="42.98471" lon="0.54467">
        <ele>1173</ele>
        <time>2019-06-30T07:42:12.000Z</time>
      </trkpt>
      <trkpt lat="42.98473" lon="0.54466">
        <ele>1174</ele>
        <time>2019-06-30T07:42:14.000Z</time>
      </trkpt>
      <trkpt lat="42.98473" lon="0.54468">
        <ele>1173</ele>
        <time>2019-06-30T07:42:16.000Z</time>
      </trkpt>
      <trkpt lat="42.98473" lon="0.54469">
        <ele>1172</ele>
        <time>2019-06-30T07:42:18.000Z</time>
      </trkpt>
      <trkpt lat="42.98474" lon="0.5447">
        <ele>1172</ele>
        <time>2019-06-30T07:42:20.000Z</time>
      </trkpt>
      <trkpt lat="42.98475" lon="0.54471">
        <ele>1171</ele>
        <time>2019-06-30T07:42:22.000Z</time>
      </trkpt>
      <trkpt lat="42.98476" lon="0.54473">
        <ele>1170</ele>
        <time>2019-06-30T07:42:24.000Z</time>
      </trkpt>
      <trkpt lat="42.98477" lon="0.54473">
        <ele>1170</ele>
        <time>2019-06-30T07:42:26.000Z</time>
      </trkpt>
      <trkpt lat="42.98477" lon="0.54473">
        <ele>1170</ele>
        <time>2019-06-30T07:42:28.000Z</time>
      </trkpt>
      <trkpt lat="42.98479" lon="0.54472">
        <ele>1170</ele>
        <time>2019-06-30T07:42:30.000Z</time>
      </trkpt>
      <trkpt lat="42.9848" lon="0.54471">
        <ele>1170</ele>
        <time>2019-06-30T07:42:32.000Z</time>
      </trkpt>
      <trkpt lat="42.98482" lon="0.54469">
        <ele>1170</ele>
        <time>2019-06-30T07:42:34.000Z</time>
      </trkpt>
      <trkpt lat="42.98483" lon="0.54468">
        <ele>1171</ele>
        <time>2019-06-30T07:42:36.000Z</time>
      </trkpt>
      <trkpt lat="42.98484" lon="0.54466">
        <ele>1171</ele>
        <time>2019-06-30T07:42:38.000Z</time>
      </trkpt>
      <trkpt lat="42.98485" lon="0.54465">
        <ele>1172</ele>
        <time>2019-06-30T07:42:40.000Z</time>
      </trkpt>
      <trkpt lat="42.98485" lon="0.54465">
        <ele>1172</ele>
        <time>2019-06-30T07:42:42.000Z</time>
      </trkpt>
      <trkpt lat="42.98485" lon="0.54464">
        <ele>1172</ele>
        <time>2019-06-30T07:42:44.000Z</time>
      </trkpt>
      <trkpt lat="42.98485" lon="0.54464">
        <ele>1172</ele>
        <time>2019-06-30T07:42:46.000Z</time>
      </trkpt>
      <trkpt lat="42.98485" lon="0.54465">
        <ele>1171</ele>
        <time>2019-06-30T07:42:48.000Z</time>
      </trkpt>
      <trkpt lat="42.98486" lon="0.54466">
        <ele>1171</ele>
        <time>2019-06-30T07:42:50.000Z</time>
      </trkpt>
      <trkpt lat="42.98487" lon="0.54465">
        <ele>1171</ele>
        <time>2019-06-30T07:42:52.000Z</time>
      </trkpt>
      <trkpt lat="42.98487" lon="0.54465">
        <ele>1171</ele>
        <time>2019-06-30T07:42:54.000Z</time>
      </trkpt>
      <trkpt lat="42.98488" lon="0.54464">
        <ele>1172</ele>
        <time>2019-06-30T07:42:56.000Z</time>
      </trkpt>
      <trkpt lat="42.98488" lon="0.54464">
        <ele>1171</ele>
        <time>2019-06-30T07:42:58.000Z</time>
      </trkpt>
      <trkpt lat="42.98489" lon="0.54464">
        <ele>1171</ele>
        <time>2019-06-30T07:43:00.000Z</time>
      </trkpt>
      <trkpt lat="42.98489" lon="0.54464">
        <ele>1172</ele>
        <time>2019-06-30T07:43:02.000Z</time>
      </trkpt>
      <trkpt lat="42.98489" lon="0.54464">
        <ele>1172</ele>
        <time>2019-06-30T07:43:04.000Z</time>
      </trkpt>
      <trkpt lat="42.98489" lon="0.54464">
        <ele>1172</ele>
        <time>2019-06-30T07:43:06.000Z</time>
      </trkpt>
      <trkpt lat="42.98489" lon="0.54464">
        <ele>1172</ele>
        <time>2019-06-30T07:43:08.000Z</time>
      </trkpt>
      <trkpt lat="42.9849" lon="0.54464">
        <ele>1171</ele>
        <time>2019-06-30T07:43:10.000Z</time>
      </trkpt>
      <trkpt lat="42.9849" lon="0.54464">
        <ele>1171</ele>
        <time>2019-06-30T07:43:12.000Z</time>
      </trkpt>
      <trkpt lat="42.9849" lon="0.54464">
        <ele>1171</ele>
        <time>2019-06-30T07:43:14.000Z</time>
      </trkpt>
      <trkpt lat="42.98491" lon="0.54464">
        <ele>1171</ele>
        <time>2019-06-30T07:43:16.000Z</time>
      </trkpt>
      <trkpt lat="42.98492" lon="0.54465">
        <ele>1170</ele>
        <time>2019-06-30T07:43:18.000Z</time>
      </trkpt>
      <trkpt lat="42.98492" lon="0.54466">
        <ele>1170</ele>
        <time>2019-06-30T07:43:20.000Z</time>
      </trkpt>
      <trkpt lat="42.98492" lon="0.54466">
        <ele>1170</ele>
        <time>2019-06-30T07:43:22.000Z</time>
      </trkpt>
      <trkpt lat="42.98492" lon="0.54466">
        <ele>1170</ele>
        <time>2019-06-30T07:43:24.000Z</time>
      </trkpt>
      <trkpt lat="42.98492" lon="0.54466">
        <ele>1170</ele>
        <time>2019-06-30T07:43:26.000Z</time>
      </trkpt>
      <trkpt lat="42.98491" lon="0.54467">
        <ele>1169</ele>
        <time>2019-06-30T07:43:28.000Z</time>
      </trkpt>
      <trkpt lat="42.9849" lon="0.54468">
        <ele>1169</ele>
        <time>2019-06-30T07:43:30.000Z</time>
      </trkpt>
      <trkpt lat="42.9849" lon="0.54469">
        <ele>1169</ele>
        <time>2019-06-30T07:43:32.000Z</time>
      </trkpt>
      <trkpt lat="42.9849" lon="0.54469">
        <ele>1169</ele>
        <time>2019-06-30T07:43:34.000Z</time>
      </trkpt>
      <trkpt lat="42.9849" lon="0.5447">
        <ele>1169</ele>
        <time>2019-06-30T07:43:36.000Z</time>
      </trkpt>
      <trkpt lat="42.9849" lon="0.5447">
        <ele>1168</ele>
        <time>2019-06-30T07:43:38.000Z</time>
      </trkpt>
      <trkpt lat="42.9849" lon="0.54471">
        <ele>1168</ele>
        <time>2019-06-30T07:43:40.000Z</time>
      </trkpt>
      <trkpt lat="42.9849" lon="0.54472">
        <ele>1168</ele>
        <time>2019-06-30T07:43:42.000Z</time>
      </trkpt>
      <trkpt lat="42.98491" lon="0.54472">
        <ele>1168</ele>
        <time>2019-06-30T07:43:44.000Z</time>
      </trkpt>
      <trkpt lat="42.9849" lon="0.54472">
        <ele>1168</ele>
        <time>2019-06-30T07:43:46.000Z</time>
      </trkpt>
      <trkpt lat="42.98491" lon="0.54471">
        <ele>1168</ele>
        <time>2019-06-30T07:43:48.000Z</time>
      </trkpt>
      <trkpt lat="42.98491" lon="0.54471">
        <ele>1168</ele>
        <time>2019-06-30T07:43:50.000Z</time>
      </trkpt>
      <trkpt lat="42.98492" lon="0.54471">
        <ele>1168</ele>
        <time>2019-06-30T07:43:52.000Z</time>
      </trkpt>
      <trkpt lat="42.98492" lon="0.54472">
        <ele>1168</ele>
        <time>2019-06-30T07:43:54.000Z</time>
      </trkpt>
      <trkpt lat="42.98493" lon="0.54472">
        <ele>1167</ele>
        <time>2019-06-30T07:43:56.000Z</time>
      </trkpt>
      <trkpt lat="42.98493" lon="0.54472">
        <ele>1167</ele>
        <time>2019-06-30T07:43:58.000Z</time>
      </trkpt>
      <trkpt lat="42.98493" lon="0.54471">
        <ele>1167</ele>
        <time>2019-06-30T07:44:00.000Z</time>
      </trkpt>
      <trkpt lat="42.98493" lon="0.54471">
        <ele>1167</ele>
        <time>2019-06-30T07:44:02.000Z</time>
      </trkpt>
      <trkpt lat="42.98493" lon="0.54472">
        <ele>1167</ele>
        <time>2019-06-30T07:44:04.000Z</time>
      </trkpt>
      <trkpt lat="42.98493" lon="0.54471">
        <ele>1167</ele>
        <time>2019-06-30T07:44:06.000Z</time>
      </trkpt>
      <trkpt lat="42.98494" lon="0.54471">
        <ele>1167</ele>
        <time>2019-06-30T07:44:08.000Z</time>
      </trkpt>
      <trkpt lat="42.98494" lon="0.54471">
        <ele>1167</ele>
        <time>2019-06-30T07:44:10.000Z</time>
      </trkpt>
      <trkpt lat="42.98494" lon="0.54471">
        <ele>1167</ele>
        <time>2019-06-30T07:44:12.000Z</time>
      </trkpt>
      <trkpt lat="42.98493" lon="0.54472">
        <ele>1167</ele>
        <time>2019-06-30T07:44:14.000Z</time>
      </trkpt>
      <trkpt lat="42.98493" lon="0.54472">
        <ele>1167</ele>
        <time>2019-06-30T07:44:16.000Z</time>
      </trkpt>
      <trkpt lat="42.98492" lon="0.54473">
        <ele>1167</ele>
        <time>2019-06-30T07:44:18.000Z</time>
      </trkpt>
      <trkpt lat="42.98492" lon="0.54473">
        <ele>1167</ele>
        <time>2019-06-30T07:44:20.000Z</time>
      </trkpt>
      <trkpt lat="42.98492" lon="0.54473">
        <ele>1167</ele>
        <time>2019-06-30T07:44:22.000Z</time>
      </trkpt>
      <trkpt lat="42.98491" lon="0.54473">
        <ele>1167</ele>
        <time>2019-06-30T07:44:24.000Z</time>
      </trkpt>
      <trkpt lat="42.98491" lon="0.54473">
        <ele>1167</ele>
        <time>2019-06-30T07:44:26.000Z</time>
      </trkpt>
      <trkpt lat="42.9849" lon="0.54474">
        <ele>1167</ele>
        <time>2019-06-30T07:44:28.000Z</time>
      </trkpt>
      <trkpt lat="42.9849" lon="0.54474">
        <ele>1167</ele>
        <time>2019-06-30T07:44:30.000Z</time>
      </trkpt>
      <trkpt lat="42.9849" lon="0.54474">
        <ele>1167</ele>
        <time>2019-06-30T07:44:32.000Z</time>
      </trkpt>
      <trkpt lat="42.9849" lon="0.54473">
        <ele>1167</ele>
        <time>2019-06-30T07:44:34.000Z</time>
      </trkpt>
      <trkpt lat="42.98491" lon="0.54473">
        <ele>1167</ele>
        <time>2019-06-30T07:44:36.000Z</time>
      </trkpt>
      <trkpt lat="42.98492" lon="0.54474">
        <ele>1167</ele>
        <time>2019-06-30T07:44:38.000Z</time>
      </trkpt>
      <trkpt lat="42.98493" lon="0.54473">
        <ele>1167</ele>
        <time>2019-06-30T07:44:40.000Z</time>
      </trkpt>
      <trkpt lat="42.98494" lon="0.54473">
        <ele>1167</ele>
        <time>2019-06-30T07:44:42.000Z</time>
      </trkpt>
      <trkpt lat="42.98495" lon="0.54473">
        <ele>1166</ele>
        <time>2019-06-30T07:44:44.000Z</time>
      </trkpt>
      <trkpt lat="42.98497" lon="0.54472">
        <ele>1167</ele>
        <time>2019-06-30T07:44:46.000Z</time>
      </trkpt>
      <trkpt lat="42.98497" lon="0.54471">
        <ele>1167</ele>
        <time>2019-06-30T07:44:48.000Z</time>
      </trkpt>
      <trkpt lat="42.98497" lon="0.54471">
        <ele>1167</ele>
        <time>2019-06-30T07:44:50.000Z</time>
      </trkpt>
      <trkpt lat="42.98497" lon="0.54471">
        <ele>1167</ele>
        <time>2019-06-30T07:44:52.000Z</time>
      </trkpt>
      <trkpt lat="42.98495" lon="0.54471">
        <ele>1167</ele>
        <time>2019-06-30T07:44:54.000Z</time>
      </trkpt>
      <trkpt lat="42.98494" lon="0.5447">
        <ele>1168</ele>
        <time>2019-06-30T07:44:56.000Z</time>
      </trkpt>
      <trkpt lat="42.98493" lon="0.5447">
        <ele>1168</ele>
        <time>2019-06-30T07:44:58.000Z</time>
      </trkpt>
      <trkpt lat="42.98492" lon="0.5447">
        <ele>1168</ele>
        <time>2019-06-30T07:45:00.000Z</time>
      </trkpt>
      <trkpt lat="42.98492" lon="0.5447">
        <ele>1168</ele>
        <time>2019-06-30T07:45:02.000Z</time>
      </trkpt>
      <trkpt lat="42.98492" lon="0.5447">
        <ele>1168</ele>
        <time>2019-06-30T07:45:04.000Z</time>
      </trkpt>
      <trkpt lat="42.98493" lon="0.5447">
        <ele>1168</ele>
        <time>2019-06-30T07:45:06.000Z</time>
      </trkpt>
      <trkpt lat="42.98494" lon="0.54471">
        <ele>1167</ele>
        <time>2019-06-30T07:45:08.000Z</time>
      </trkpt>
      <trkpt lat="42.98494" lon="0.54471">
        <ele>1167</ele>
        <time>2019-06-30T07:45:10.000Z</time>
      </trkpt>
      <trkpt lat="42.98494" lon="0.54471">
        <ele>1167</ele>
        <time>2019-06-30T07:45:12.000Z</time>
      </trkpt>
      <trkpt lat="42.98494" lon="0.54471">
        <ele>1167</ele>
        <time>2019-06-30T07:45:14.000Z</time>
      </trkpt>
      <trkpt lat="42.98493" lon="0.54471">
        <ele>1167</ele>
        <time>2019-06-30T07:45:16.000Z</time>
      </trkpt>
      <trkpt lat="42.98493" lon="0.54471">
        <ele>1168</ele>
        <time>2019-06-30T07:45:18.000Z</time>
      </trkpt>
      <trkpt lat="42.98493" lon="0.54471">
        <ele>1168</ele>
        <time>2019-06-30T07:45:20.000Z</time>
      </trkpt>
      <trkpt lat="42.98493" lon="0.54471">
        <ele>1168</ele>
        <time>2019-06-30T07:45:22.000Z</time>
      </trkpt>
      <trkpt lat="42.98493" lon="0.54472">
        <ele>1167</ele>
        <time>2019-06-30T07:45:24.000Z</time>
      </trkpt>
      <trkpt lat="42.98493" lon="0.54473">
        <ele>1167</ele>
        <time>2019-06-30T07:45:26.000Z</time>
      </trkpt>
      <trkpt lat="42.98492" lon="0.54474">
        <ele>1167</ele>
        <time>2019-06-30T07:45:28.000Z</time>
      </trkpt>
      <trkpt lat="42.98491" lon="0.54474">
        <ele>1167</ele>
        <time>2019-06-30T07:45:30.000Z</time>
      </trkpt>
      <trkpt lat="42.98491" lon="0.54473">
        <ele>1167</ele>
        <time>2019-06-30T07:45:32.000Z</time>
      </trkpt>
      <trkpt lat="42.98492" lon="0.54474">
        <ele>1167</ele>
        <time>2019-06-30T07:45:34.000Z</time>
      </trkpt>
      <trkpt lat="42.98491" lon="0.54474">
        <ele>1167</ele>
        <time>2019-06-30T07:45:36.000Z</time>
      </trkpt>
      <trkpt lat="42.98491" lon="0.54474">
        <ele>1167</ele>
        <time>2019-06-30T07:45:38.000Z</time>
      </trkpt>
      <trkpt lat="42.98492" lon="0.54473">
        <ele>1167</ele>
        <time>2019-06-30T07:45:40.000Z</time>
      </trkpt>
      <trkpt lat="42.98492" lon="0.54473">
        <ele>1167</ele>
        <time>2019-06-30T07:45:42.000Z</time>
      </trkpt>
      <trkpt lat="42.98492" lon="0.54473">
        <ele>1167</ele>
        <time>2019-06-30T07:45:44.000Z</time>
      </trkpt>
      <trkpt lat="42.98492" lon="0.54473">
        <ele>1167</ele>
        <time>2019-06-30T07:45:46.000Z</time>
      </trkpt>
      <trkpt lat="42.98491" lon="0.54474">
        <ele>1167</ele>
        <time>2019-06-30T07:45:48.000Z</time>
      </trkpt>
      <trkpt lat="42.98491" lon="0.54474">
        <ele>1167</ele>
        <time>2019-06-30T07:45:50.000Z</time>
      </trkpt>
      <trkpt lat="42.98491" lon="0.54474">
        <ele>1167</ele>
        <time>2019-06-30T07:45:52.000Z</time>
      </trkpt>
      <trkpt lat="42.98491" lon="0.54474">
        <ele>1167</ele>
        <time>2019-06-30T07:45:54.000Z</time>
      </trkpt>
      <trkpt lat="42.98491" lon="0.54473">
        <ele>1167</ele>
        <time>2019-06-30T07:45:56.000Z</time>
      </trkpt>
      <trkpt lat="42.98492" lon="0.54473">
        <ele>1167</ele>
        <time>2019-06-30T07:45:58.000Z</time>
      </trkpt>
      <trkpt lat="42.98491" lon="0.54473">
        <ele>1167</ele>
        <time>2019-06-30T07:46:00.000Z</time>
      </trkpt>
      <trkpt lat="42.98492" lon="0.54472">
        <ele>1167</ele>
        <time>2019-06-30T07:46:02.000Z</time>
      </trkpt>
      <trkpt lat="42.98492" lon="0.54472">
        <ele>1167</ele>
        <time>2019-06-30T07:46:04.000Z</time>
      </trkpt>
      <trkpt lat="42.98492" lon="0.54472">
        <ele>1167</ele>
        <time>2019-06-30T07:46:06.000Z</time>
      </trkpt>
      <trkpt lat="42.98493" lon="0.54473">
        <ele>1167</ele>
        <time>2019-06-30T07:46:08.000Z</time>
      </trkpt>
      <trkpt lat="42.98493" lon="0.54472">
        <ele>1167</ele>
        <time>2019-06-30T07:46:10.000Z</time>
      </trkpt>
      <trkpt lat="42.98493" lon="0.54472">
        <ele>1167</ele>
        <time>2019-06-30T07:46:12.000Z</time>
      </trkpt>
      <trkpt lat="42.98493" lon="0.54473">
        <ele>1167</ele>
        <time>2019-06-30T07:46:14.000Z</time>
      </trkpt>
      <trkpt lat="42.98494" lon="0.54473">
        <ele>1166</ele>
        <time>2019-06-30T07:46:16.000Z</time>
      </trkpt>
      <trkpt lat="42.98495" lon="0.54472">
        <ele>1167</ele>
        <time>2019-06-30T07:46:18.000Z</time>
      </trkpt>
      <trkpt lat="42.98495" lon="0.54471">
        <ele>1167</ele>
        <time>2019-06-30T07:46:20.000Z</time>
      </trkpt>
      <trkpt lat="42.98496" lon="0.5447">
        <ele>1168</ele>
        <time>2019-06-30T07:46:22.000Z</time>
      </trkpt>
      <trkpt lat="42.98496" lon="0.54467">
        <ele>1168</ele>
        <time>2019-06-30T07:46:24.000Z</time>
      </trkpt>
      <trkpt lat="42.98496" lon="0.54465">
        <ele>1169</ele>
        <time>2019-06-30T07:46:26.000Z</time>
      </trkpt>
      <trkpt lat="42.98497" lon="0.54464">
        <ele>1170</ele>
        <time>2019-06-30T07:46:28.000Z</time>
      </trkpt>
      <trkpt lat="42.98498" lon="0.54462">
        <ele>1171</ele>
        <time>2019-06-30T07:46:30.000Z</time>
      </trkpt>
      <trkpt lat="42.98498" lon="0.5446">
        <ele>1172</ele>
        <time>2019-06-30T07:46:32.000Z</time>
      </trkpt>
      <trkpt lat="42.98499" lon="0.54458">
        <ele>1172</ele>
        <time>2019-06-30T07:46:34.000Z</time>
      </trkpt>
      <trkpt lat="42.98499" lon="0.54456">
        <ele>1173</ele>
        <time>2019-06-30T07:46:36.000Z</time>
      </trkpt>
      <trkpt lat="42.985" lon="0.54455">
        <ele>1174</ele>
        <time>2019-06-30T07:46:38.000Z</time>
      </trkpt>
      <trkpt lat="42.98501" lon="0.54454">
        <ele>1174</ele>
        <time>2019-06-30T07:46:40.000Z</time>
      </trkpt>
      <trkpt lat="42.98502" lon="0.54453">
        <ele>1175</ele>
        <time>2019-06-30T07:46:42.000Z</time>
      </trkpt>
      <trkpt lat="42.98503" lon="0.54452">
        <ele>1175</ele>
        <time>2019-06-30T07:46:44.000Z</time>
      </trkpt>
      <trkpt lat="42.98503" lon="0.54451">
        <ele>1175</ele>
        <time>2019-06-30T07:46:46.000Z</time>
      </trkpt>
      <trkpt lat="42.98504" lon="0.54452">
        <ele>1175</ele>
        <time>2019-06-30T07:46:48.000Z</time>
      </trkpt>
      <trkpt lat="42.98504" lon="0.54452">
        <ele>1175</ele>
        <time>2019-06-30T07:46:50.000Z</time>
      </trkpt>
      <trkpt lat="42.98505" lon="0.54453">
        <ele>1174</ele>
        <time>2019-06-30T07:46:52.000Z</time>
      </trkpt>
      <trkpt lat="42.98505" lon="0.54453">
        <ele>1174</ele>
        <time>2019-06-30T07:46:54.000Z</time>
      </trkpt>
      <trkpt lat="42.98507" lon="0.54453">
        <ele>1174</ele>
        <time>2019-06-30T07:46:56.000Z</time>
      </trkpt>
      <trkpt lat="42.98507" lon="0.54453">
        <ele>1174</ele>
        <time>2019-06-30T07:46:58.000Z</time>
      </trkpt>
      <trkpt lat="42.98508" lon="0.54453">
        <ele>1174</ele>
        <time>2019-06-30T07:47:00.000Z</time>
      </trkpt>
      <trkpt lat="42.98509" lon="0.54453">
        <ele>1174</ele>
        <time>2019-06-30T07:47:02.000Z</time>
      </trkpt>
      <trkpt lat="42.9851" lon="0.54452">
        <ele>1174</ele>
        <time>2019-06-30T07:47:04.000Z</time>
      </trkpt>
      <trkpt lat="42.9851" lon="0.54453">
        <ele>1173</ele>
        <time>2019-06-30T07:47:06.000Z</time>
      </trkpt>
      <trkpt lat="42.98511" lon="0.54453">
        <ele>1174</ele>
        <time>2019-06-30T07:47:08.000Z</time>
      </trkpt>
      <trkpt lat="42.98512" lon="0.54453">
        <ele>1174</ele>
        <time>2019-06-30T07:47:10.000Z</time>
      </trkpt>
      <trkpt lat="42.98514" lon="0.54453">
        <ele>1173</ele>
        <time>2019-06-30T07:47:12.000Z</time>
      </trkpt>
      <trkpt lat="42.98515" lon="0.54453">
        <ele>1173</ele>
        <time>2019-06-30T07:47:14.000Z</time>
      </trkpt>
      <trkpt lat="42.98516" lon="0.54453">
        <ele>1173</ele>
        <time>2019-06-30T07:47:16.000Z</time>
      </trkpt>
      <trkpt lat="42.98517" lon="0.54453">
        <ele>1174</ele>
        <time>2019-06-30T07:47:18.000Z</time>
      </trkpt>
      <trkpt lat="42.98518" lon="0.54453">
        <ele>1174</ele>
        <time>2019-06-30T07:47:20.000Z</time>
      </trkpt>
      <trkpt lat="42.9852" lon="0.54453">
        <ele>1174</ele>
        <time>2019-06-30T07:47:22.000Z</time>
      </trkpt>
      <trkpt lat="42.98521" lon="0.54452">
        <ele>1174</ele>
        <time>2019-06-30T07:47:24.000Z</time>
      </trkpt>
      <trkpt lat="42.98522" lon="0.54453">
        <ele>1174</ele>
        <time>2019-06-30T07:47:26.000Z</time>
      </trkpt>
      <trkpt lat="42.98523" lon="0.54453">
        <ele>1174</ele>
        <time>2019-06-30T07:47:28.000Z</time>
      </trkpt>
      <trkpt lat="42.98524" lon="0.54454">
        <ele>1173</ele>
        <time>2019-06-30T07:47:30.000Z</time>
      </trkpt>
      <trkpt lat="42.98525" lon="0.54454">
        <ele>1173</ele>
        <time>2019-06-30T07:47:32.000Z</time>
      </trkpt>
      <trkpt lat="42.98526" lon="0.54454">
        <ele>1173</ele>
        <time>2019-06-30T07:47:34.000Z</time>
      </trkpt>
      <trkpt lat="42.98527" lon="0.54454">
        <ele>1173</ele>
        <time>2019-06-30T07:47:36.000Z</time>
      </trkpt>
      <trkpt lat="42.98527" lon="0.54453">
        <ele>1174</ele>
        <time>2019-06-30T07:47:38.000Z</time>
      </trkpt>
      <trkpt lat="42.98529" lon="0.54453">
        <ele>1174</ele>
        <time>2019-06-30T07:47:40.000Z</time>
      </trkpt>
      <trkpt lat="42.9853" lon="0.54453">
        <ele>1174</ele>
        <time>2019-06-30T07:47:42.000Z</time>
      </trkpt>
      <trkpt lat="42.98531" lon="0.54453">
        <ele>1174</ele>
        <time>2019-06-30T07:47:44.000Z</time>
      </trkpt>
      <trkpt lat="42.98532" lon="0.54453">
        <ele>1174</ele>
        <time>2019-06-30T07:47:46.000Z</time>
      </trkpt>
      <trkpt lat="42.98533" lon="0.54452">
        <ele>1174</ele>
        <time>2019-06-30T07:47:48.000Z</time>
      </trkpt>
      <trkpt lat="42.98534" lon="0.54451">
        <ele>1175</ele>
        <time>2019-06-30T07:47:50.000Z</time>
      </trkpt>
      <trkpt lat="42.98536" lon="0.54449">
        <ele>1176</ele>
        <time>2019-06-30T07:47:52.000Z</time>
      </trkpt>
      <trkpt lat="42.98537" lon="0.54448">
        <ele>1177</ele>
        <time>2019-06-30T07:47:54.000Z</time>
      </trkpt>
      <trkpt lat="42.98538" lon="0.54447">
        <ele>1177</ele>
        <time>2019-06-30T07:47:56.000Z</time>
      </trkpt>
      <trkpt lat="42.98538" lon="0.54445">
        <ele>1178</ele>
        <time>2019-06-30T07:47:58.000Z</time>
      </trkpt>
      <trkpt lat="42.98539" lon="0.54444">
        <ele>1179</ele>
        <time>2019-06-30T07:48:00.000Z</time>
      </trkpt>
      <trkpt lat="42.9854" lon="0.54443">
        <ele>1179</ele>
        <time>2019-06-30T07:48:02.000Z</time>
      </trkpt>
      <trkpt lat="42.98541" lon="0.54441">
        <ele>1180</ele>
        <time>2019-06-30T07:48:04.000Z</time>
      </trkpt>
      <trkpt lat="42.98542" lon="0.5444">
        <ele>1180</ele>
        <time>2019-06-30T07:48:06.000Z</time>
      </trkpt>
      <trkpt lat="42.98542" lon="0.54439">
        <ele>1181</ele>
        <time>2019-06-30T07:48:08.000Z</time>
      </trkpt>
      <trkpt lat="42.98543" lon="0.54438">
        <ele>1181</ele>
        <time>2019-06-30T07:48:10.000Z</time>
      </trkpt>
      <trkpt lat="42.98544" lon="0.54437">
        <ele>1182</ele>
        <time>2019-06-30T07:48:12.000Z</time>
      </trkpt>
      <trkpt lat="42.98545" lon="0.54436">
        <ele>1182</ele>
        <time>2019-06-30T07:48:14.000Z</time>
      </trkpt>
      <trkpt lat="42.98546" lon="0.54436">
        <ele>1183</ele>
        <time>2019-06-30T07:48:16.000Z</time>
      </trkpt>
      <trkpt lat="42.98546" lon="0.54435">
        <ele>1183</ele>
        <time>2019-06-30T07:48:18.000Z</time>
      </trkpt>
      <trkpt lat="42.98547" lon="0.54434">
        <ele>1184</ele>
        <time>2019-06-30T07:48:20.000Z</time>
      </trkpt>
      <trkpt lat="42.98548" lon="0.54433">
        <ele>1184</ele>
        <time>2019-06-30T07:48:22.000Z</time>
      </trkpt>
      <trkpt lat="42.98548" lon="0.54433">
        <ele>1184</ele>
        <time>2019-06-30T07:48:24.000Z</time>
      </trkpt>
      <trkpt lat="42.98549" lon="0.54432">
        <ele>1185</ele>
        <time>2019-06-30T07:48:26.000Z</time>
      </trkpt>
      <trkpt lat="42.98549" lon="0.54431">
        <ele>1185</ele>
        <time>2019-06-30T07:48:28.000Z</time>
      </trkpt>
      <trkpt lat="42.9855" lon="0.54431">
        <ele>1185</ele>
        <time>2019-06-30T07:48:30.000Z</time>
      </trkpt>
      <trkpt lat="42.98551" lon="0.5443">
        <ele>1186</ele>
        <time>2019-06-30T07:48:32.000Z</time>
      </trkpt>
      <trkpt lat="42.98552" lon="0.5443">
        <ele>1186</ele>
        <time>2019-06-30T07:48:34.000Z</time>
      </trkpt>
      <trkpt lat="42.98554" lon="0.54429">
        <ele>1186</ele>
        <time>2019-06-30T07:48:36.000Z</time>
      </trkpt>
      <trkpt lat="42.98555" lon="0.54428">
        <ele>1186</ele>
        <time>2019-06-30T07:48:38.000Z</time>
      </trkpt>
      <trkpt lat="42.98556" lon="0.54427">
        <ele>1187</ele>
        <time>2019-06-30T07:48:40.000Z</time>
      </trkpt>
      <trkpt lat="42.98557" lon="0.54426">
        <ele>1187</ele>
        <time>2019-06-30T07:48:42.000Z</time>
      </trkpt>
      <trkpt lat="42.98558" lon="0.54425">
        <ele>1187</ele>
        <time>2019-06-30T07:48:44.000Z</time>
      </trkpt>
      <trkpt lat="42.98559" lon="0.54424">
        <ele>1187</ele>
        <time>2019-06-30T07:48:46.000Z</time>
      </trkpt>
      <trkpt lat="42.9856" lon="0.54423">
        <ele>1187</ele>
        <time>2019-06-30T07:48:48.000Z</time>
      </trkpt>
      <trkpt lat="42.98561" lon="0.54421">
        <ele>1188</ele>
        <time>2019-06-30T07:48:50.000Z</time>
      </trkpt>
      <trkpt lat="42.98562" lon="0.5442">
        <ele>1188</ele>
        <time>2019-06-30T07:48:52.000Z</time>
      </trkpt>
      <trkpt lat="42.98563" lon="0.54419">
        <ele>1189</ele>
        <time>2019-06-30T07:48:54.000Z</time>
      </trkpt>
      <trkpt lat="42.98564" lon="0.54418">
        <ele>1189</ele>
        <time>2019-06-30T07:48:56.000Z</time>
      </trkpt>
      <trkpt lat="42.98564" lon="0.54418">
        <ele>1189</ele>
        <time>2019-06-30T07:48:58.000Z</time>
      </trkpt>
      <trkpt lat="42.98565" lon="0.54417">
        <ele>1189</ele>
        <time>2019-06-30T07:49:00.000Z</time>
      </trkpt>
      <trkpt lat="42.98566" lon="0.54416">
        <ele>1189</ele>
        <time>2019-06-30T07:49:02.000Z</time>
      </trkpt>
      <trkpt lat="42.98566" lon="0.54414">
        <ele>1190</ele>
        <time>2019-06-30T07:49:04.000Z</time>
      </trkpt>
      <trkpt lat="42.98567" lon="0.54413">
        <ele>1190</ele>
        <time>2019-06-30T07:49:06.000Z</time>
      </trkpt>
      <trkpt lat="42.98568" lon="0.54412">
        <ele>1190</ele>
        <time>2019-06-30T07:49:08.000Z</time>
      </trkpt>
      <trkpt lat="42.9857" lon="0.54411">
        <ele>1191</ele>
        <time>2019-06-30T07:49:10.000Z</time>
      </trkpt>
      <trkpt lat="42.9857" lon="0.5441">
        <ele>1191</ele>
        <time>2019-06-30T07:49:12.000Z</time>
      </trkpt>
      <trkpt lat="42.9857" lon="0.54409">
        <ele>1191</ele>
        <time>2019-06-30T07:49:14.000Z</time>
      </trkpt>
      <trkpt lat="42.98571" lon="0.54408">
        <ele>1191</ele>
        <time>2019-06-30T07:49:16.000Z</time>
      </trkpt>
      <trkpt lat="42.98571" lon="0.54407">
        <ele>1192</ele>
        <time>2019-06-30T07:49:18.000Z</time>
      </trkpt>
      <trkpt lat="42.98572" lon="0.54407">
        <ele>1192</ele>
        <time>2019-06-30T07:49:20.000Z</time>
      </trkpt>
      <trkpt lat="42.98575" lon="0.54407">
        <ele>1191</ele>
        <time>2019-06-30T07:49:22.000Z</time>
      </trkpt>
      <trkpt lat="42.98576" lon="0.54406">
        <ele>1191</ele>
        <time>2019-06-30T07:49:24.000Z</time>
      </trkpt>
      <trkpt lat="42.98577" lon="0.54406">
        <ele>1191</ele>
        <time>2019-06-30T07:49:26.000Z</time>
      </trkpt>
      <trkpt lat="42.98578" lon="0.54405">
        <ele>1192</ele>
        <time>2019-06-30T07:49:28.000Z</time>
      </trkpt>
      <trkpt lat="42.98579" lon="0.54404">
        <ele>1192</ele>
        <time>2019-06-30T07:49:30.000Z</time>
      </trkpt>
      <trkpt lat="42.98579" lon="0.54403">
        <ele>1192</ele>
        <time>2019-06-30T07:49:32.000Z</time>
      </trkpt>
      <trkpt lat="42.98579" lon="0.54402">
        <ele>1192</ele>
        <time>2019-06-30T07:49:34.000Z</time>
      </trkpt>
      <trkpt lat="42.98579" lon="0.54401">
        <ele>1193</ele>
        <time>2019-06-30T07:49:36.000Z</time>
      </trkpt>
      <trkpt lat="42.98579" lon="0.54399">
        <ele>1193</ele>
        <time>2019-06-30T07:49:38.000Z</time>
      </trkpt>
      <trkpt lat="42.98579" lon="0.54398">
        <ele>1194</ele>
        <time>2019-06-30T07:49:40.000Z</time>
      </trkpt>
      <trkpt lat="42.98579" lon="0.54397">
        <ele>1194</ele>
        <time>2019-06-30T07:49:42.000Z</time>
      </trkpt>
      <trkpt lat="42.98579" lon="0.54396">
        <ele>1195</ele>
        <time>2019-06-30T07:49:44.000Z</time>
      </trkpt>
      <trkpt lat="42.98579" lon="0.54395">
        <ele>1195</ele>
        <time>2019-06-30T07:49:46.000Z</time>
      </trkpt>
      <trkpt lat="42.9858" lon="0.54394">
        <ele>1195</ele>
        <time>2019-06-30T07:49:48.000Z</time>
      </trkpt>
      <trkpt lat="42.9858" lon="0.54393">
        <ele>1196</ele>
        <time>2019-06-30T07:49:50.000Z</time>
      </trkpt>
      <trkpt lat="42.9858" lon="0.54392">
        <ele>1196</ele>
        <time>2019-06-30T07:49:52.000Z</time>
      </trkpt>
      <trkpt lat="42.98581" lon="0.5439">
        <ele>1196</ele>
        <time>2019-06-30T07:49:54.000Z</time>
      </trkpt>
      <trkpt lat="42.98582" lon="0.54389">
        <ele>1197</ele>
        <time>2019-06-30T07:49:56.000Z</time>
      </trkpt>
      <trkpt lat="42.98583" lon="0.54387">
        <ele>1197</ele>
        <time>2019-06-30T07:49:58.000Z</time>
      </trkpt>
      <trkpt lat="42.98583" lon="0.54386">
        <ele>1198</ele>
        <time>2019-06-30T07:50:00.000Z</time>
      </trkpt>
      <trkpt lat="42.98584" lon="0.54385">
        <ele>1198</ele>
        <time>2019-06-30T07:50:02.000Z</time>
      </trkpt>
      <trkpt lat="42.98584" lon="0.54384">
        <ele>1198</ele>
        <time>2019-06-30T07:50:04.000Z</time>
      </trkpt>
      <trkpt lat="42.98585" lon="0.54384">
        <ele>1198</ele>
        <time>2019-06-30T07:50:06.000Z</time>
      </trkpt>
      <trkpt lat="42.98586" lon="0.54383">
        <ele>1198</ele>
        <time>2019-06-30T07:50:08.000Z</time>
      </trkpt>
      <trkpt lat="42.98587" lon="0.54382">
        <ele>1199</ele>
        <time>2019-06-30T07:50:10.000Z</time>
      </trkpt>
      <trkpt lat="42.98587" lon="0.5438">
        <ele>1199</ele>
        <time>2019-06-30T07:50:12.000Z</time>
      </trkpt>
      <trkpt lat="42.98587" lon="0.54379">
        <ele>1200</ele>
        <time>2019-06-30T07:50:14.000Z</time>
      </trkpt>
      <trkpt lat="42.98588" lon="0.54378">
        <ele>1200</ele>
        <time>2019-06-30T07:50:16.000Z</time>
      </trkpt>
      <trkpt lat="42.98588" lon="0.54376">
        <ele>1200</ele>
        <time>2019-06-30T07:50:18.000Z</time>
      </trkpt>
      <trkpt lat="42.98589" lon="0.54375">
        <ele>1200</ele>
        <time>2019-06-30T07:50:20.000Z</time>
      </trkpt>
      <trkpt lat="42.98589" lon="0.54373">
        <ele>1201</ele>
        <time>2019-06-30T07:50:22.000Z</time>
      </trkpt>
      <trkpt lat="42.98589" lon="0.54371">
        <ele>1201</ele>
        <time>2019-06-30T07:50:24.000Z</time>
      </trkpt>
      <trkpt lat="42.98589" lon="0.54371">
        <ele>1201</ele>
        <time>2019-06-30T07:50:26.000Z</time>
      </trkpt>
      <trkpt lat="42.98589" lon="0.54369">
        <ele>1202</ele>
        <time>2019-06-30T07:50:28.000Z</time>
      </trkpt>
      <trkpt lat="42.98589" lon="0.54368">
        <ele>1202</ele>
        <time>2019-06-30T07:50:30.000Z</time>
      </trkpt>
      <trkpt lat="42.98589" lon="0.54367">
        <ele>1202</ele>
        <time>2019-06-30T07:50:32.000Z</time>
      </trkpt>
      <trkpt lat="42.98589" lon="0.54365">
        <ele>1203</ele>
        <time>2019-06-30T07:50:34.000Z</time>
      </trkpt>
      <trkpt lat="42.9859" lon="0.54364">
        <ele>1203</ele>
        <time>2019-06-30T07:50:36.000Z</time>
      </trkpt>
      <trkpt lat="42.98591" lon="0.54362">
        <ele>1203</ele>
        <time>2019-06-30T07:50:38.000Z</time>
      </trkpt>
      <trkpt lat="42.98591" lon="0.54361">
        <ele>1203</ele>
        <time>2019-06-30T07:50:40.000Z</time>
      </trkpt>
      <trkpt lat="42.98592" lon="0.54361">
        <ele>1203</ele>
        <time>2019-06-30T07:50:42.000Z</time>
      </trkpt>
      <trkpt lat="42.98592" lon="0.54359">
        <ele>1203</ele>
        <time>2019-06-30T07:50:44.000Z</time>
      </trkpt>
      <trkpt lat="42.98592" lon="0.54358">
        <ele>1204</ele>
        <time>2019-06-30T07:50:46.000Z</time>
      </trkpt>
      <trkpt lat="42.98592" lon="0.54356">
        <ele>1204</ele>
        <time>2019-06-30T07:50:48.000Z</time>
      </trkpt>
      <trkpt lat="42.98592" lon="0.54354">
        <ele>1205</ele>
        <time>2019-06-30T07:50:50.000Z</time>
      </trkpt>
      <trkpt lat="42.98592" lon="0.54353">
        <ele>1205</ele>
        <time>2019-06-30T07:50:52.000Z</time>
      </trkpt>
      <trkpt lat="42.98592" lon="0.54351">
        <ele>1206</ele>
        <time>2019-06-30T07:50:54.000Z</time>
      </trkpt>
      <trkpt lat="42.98592" lon="0.5435">
        <ele>1206</ele>
        <time>2019-06-30T07:50:56.000Z</time>
      </trkpt>
      <trkpt lat="42.98592" lon="0.54349">
        <ele>1206</ele>
        <time>2019-06-30T07:50:58.000Z</time>
      </trkpt>
      <trkpt lat="42.98592" lon="0.54347">
        <ele>1207</ele>
        <time>2019-06-30T07:51:00.000Z</time>
      </trkpt>
      <trkpt lat="42.98591" lon="0.54346">
        <ele>1207</ele>
        <time>2019-06-30T07:51:02.000Z</time>
      </trkpt>
      <trkpt lat="42.98592" lon="0.54345">
        <ele>1207</ele>
        <time>2019-06-30T07:51:04.000Z</time>
      </trkpt>
      <trkpt lat="42.98592" lon="0.54343">
        <ele>1207</ele>
        <time>2019-06-30T07:51:06.000Z</time>
      </trkpt>
      <trkpt lat="42.98593" lon="0.54342">
        <ele>1207</ele>
        <time>2019-06-30T07:51:08.000Z</time>
      </trkpt>
      <trkpt lat="42.98593" lon="0.54341">
        <ele>1207</ele>
        <time>2019-06-30T07:51:10.000Z</time>
      </trkpt>
      <trkpt lat="42.98593" lon="0.5434">
        <ele>1208</ele>
        <time>2019-06-30T07:51:12.000Z</time>
      </trkpt>
      <trkpt lat="42.98594" lon="0.54339">
        <ele>1208</ele>
        <time>2019-06-30T07:51:14.000Z</time>
      </trkpt>
      <trkpt lat="42.98594" lon="0.54337">
        <ele>1208</ele>
        <time>2019-06-30T07:51:16.000Z</time>
      </trkpt>
      <trkpt lat="42.98594" lon="0.54336">
        <ele>1208</ele>
        <time>2019-06-30T07:51:18.000Z</time>
      </trkpt>
      <trkpt lat="42.98594" lon="0.54335">
        <ele>1209</ele>
        <time>2019-06-30T07:51:20.000Z</time>
      </trkpt>
      <trkpt lat="42.98595" lon="0.54333">
        <ele>1209</ele>
        <time>2019-06-30T07:51:22.000Z</time>
      </trkpt>
      <trkpt lat="42.98595" lon="0.54332">
        <ele>1209</ele>
        <time>2019-06-30T07:51:24.000Z</time>
      </trkpt>
      <trkpt lat="42.98596" lon="0.5433">
        <ele>1209</ele>
        <time>2019-06-30T07:51:26.000Z</time>
      </trkpt>
      <trkpt lat="42.98596" lon="0.54329">
        <ele>1209</ele>
        <time>2019-06-30T07:51:28.000Z</time>
      </trkpt>
      <trkpt lat="42.98596" lon="0.54327">
        <ele>1210</ele>
        <time>2019-06-30T07:51:30.000Z</time>
      </trkpt>
      <trkpt lat="42.98596" lon="0.54325">
        <ele>1210</ele>
        <time>2019-06-30T07:51:32.000Z</time>
      </trkpt>
      <trkpt lat="42.98596" lon="0.54324">
        <ele>1210</ele>
        <time>2019-06-30T07:51:34.000Z</time>
      </trkpt>
      <trkpt lat="42.98596" lon="0.54323">
        <ele>1210</ele>
        <time>2019-06-30T07:51:36.000Z</time>
      </trkpt>
      <trkpt lat="42.98596" lon="0.54321">
        <ele>1211</ele>
        <time>2019-06-30T07:51:38.000Z</time>
      </trkpt>
      <trkpt lat="42.98596" lon="0.5432">
        <ele>1211</ele>
        <time>2019-06-30T07:51:40.000Z</time>
      </trkpt>
      <trkpt lat="42.98596" lon="0.54318">
        <ele>1212</ele>
        <time>2019-06-30T07:51:42.000Z</time>
      </trkpt>
      <trkpt lat="42.98596" lon="0.54316">
        <ele>1212</ele>
        <time>2019-06-30T07:51:44.000Z</time>
      </trkpt>
      <trkpt lat="42.98595" lon="0.54315">
        <ele>1213</ele>
        <time>2019-06-30T07:51:46.000Z</time>
      </trkpt>
      <trkpt lat="42.98595" lon="0.54313">
        <ele>1214</ele>
        <time>2019-06-30T07:51:48.000Z</time>
      </trkpt>
      <trkpt lat="42.98595" lon="0.54311">
        <ele>1214</ele>
        <time>2019-06-30T07:51:50.000Z</time>
      </trkpt>
      <trkpt lat="42.98595" lon="0.5431">
        <ele>1215</ele>
        <time>2019-06-30T07:51:52.000Z</time>
      </trkpt>
      <trkpt lat="42.98595" lon="0.54308">
        <ele>1215</ele>
        <time>2019-06-30T07:51:54.000Z</time>
      </trkpt>
      <trkpt lat="42.98595" lon="0.54306">
        <ele>1216</ele>
        <time>2019-06-30T07:51:56.000Z</time>
      </trkpt>
      <trkpt lat="42.98595" lon="0.54305">
        <ele>1216</ele>
        <time>2019-06-30T07:51:58.000Z</time>
      </trkpt>
      <trkpt lat="42.98594" lon="0.54304">
        <ele>1217</ele>
        <time>2019-06-30T07:52:00.000Z</time>
      </trkpt>
      <trkpt lat="42.98594" lon="0.54302">
        <ele>1217</ele>
        <time>2019-06-30T07:52:02.000Z</time>
      </trkpt>
      <trkpt lat="42.98595" lon="0.54301">
        <ele>1217</ele>
        <time>2019-06-30T07:52:04.000Z</time>
      </trkpt>
      <trkpt lat="42.98595" lon="0.543">
        <ele>1217</ele>
        <time>2019-06-30T07:52:06.000Z</time>
      </trkpt>
      <trkpt lat="42.98595" lon="0.54298">
        <ele>1218</ele>
        <time>2019-06-30T07:52:08.000Z</time>
      </trkpt>
      <trkpt lat="42.98595" lon="0.54297">
        <ele>1218</ele>
        <time>2019-06-30T07:52:10.000Z</time>
      </trkpt>
      <trkpt lat="42.98595" lon="0.54296">
        <ele>1218</ele>
        <time>2019-06-30T07:52:12.000Z</time>
      </trkpt>
      <trkpt lat="42.98596" lon="0.54295">
        <ele>1218</ele>
        <time>2019-06-30T07:52:14.000Z</time>
      </trkpt>
      <trkpt lat="42.98596" lon="0.54294">
        <ele>1218</ele>
        <time>2019-06-30T07:52:16.000Z</time>
      </trkpt>
      <trkpt lat="42.98597" lon="0.54293">
        <ele>1218</ele>
        <time>2019-06-30T07:52:18.000Z</time>
      </trkpt>
      <trkpt lat="42.98597" lon="0.54291">
        <ele>1219</ele>
        <time>2019-06-30T07:52:20.000Z</time>
      </trkpt>
      <trkpt lat="42.98598" lon="0.54289">
        <ele>1219</ele>
        <time>2019-06-30T07:52:22.000Z</time>
      </trkpt>
      <trkpt lat="42.98598" lon="0.54288">
        <ele>1219</ele>
        <time>2019-06-30T07:52:24.000Z</time>
      </trkpt>
      <trkpt lat="42.98598" lon="0.54287">
        <ele>1219</ele>
        <time>2019-06-30T07:52:26.000Z</time>
      </trkpt>
      <trkpt lat="42.98599" lon="0.54285">
        <ele>1219</ele>
        <time>2019-06-30T07:52:28.000Z</time>
      </trkpt>
      <trkpt lat="42.986" lon="0.54284">
        <ele>1219</ele>
        <time>2019-06-30T07:52:30.000Z</time>
      </trkpt>
      <trkpt lat="42.986" lon="0.54283">
        <ele>1219</ele>
        <time>2019-06-30T07:52:32.000Z</time>
      </trkpt>
      <trkpt lat="42.986" lon="0.54281">
        <ele>1220</ele>
        <time>2019-06-30T07:52:34.000Z</time>
      </trkpt>
      <trkpt lat="42.98599" lon="0.5428">
        <ele>1220</ele>
        <time>2019-06-30T07:52:36.000Z</time>
      </trkpt>
      <trkpt lat="42.98599" lon="0.54279">
        <ele>1220</ele>
        <time>2019-06-30T07:52:38.000Z</time>
      </trkpt>
      <trkpt lat="42.98599" lon="0.54278">
        <ele>1221</ele>
        <time>2019-06-30T07:52:40.000Z</time>
      </trkpt>
      <trkpt lat="42.98599" lon="0.54276">
        <ele>1221</ele>
        <time>2019-06-30T07:52:42.000Z</time>
      </trkpt>
      <trkpt lat="42.98599" lon="0.54275">
        <ele>1221</ele>
        <time>2019-06-30T07:52:44.000Z</time>
      </trkpt>
      <trkpt lat="42.986" lon="0.54273">
        <ele>1222</ele>
        <time>2019-06-30T07:52:46.000Z</time>
      </trkpt>
      <trkpt lat="42.98599" lon="0.54273">
        <ele>1222</ele>
        <time>2019-06-30T07:52:48.000Z</time>
      </trkpt>
      <trkpt lat="42.98599" lon="0.54272">
        <ele>1222</ele>
        <time>2019-06-30T07:52:50.000Z</time>
      </trkpt>
      <trkpt lat="42.98599" lon="0.5427">
        <ele>1223</ele>
        <time>2019-06-30T07:52:52.000Z</time>
      </trkpt>
      <trkpt lat="42.98599" lon="0.54269">
        <ele>1223</ele>
        <time>2019-06-30T07:52:54.000Z</time>
      </trkpt>
      <trkpt lat="42.986" lon="0.54268">
        <ele>1223</ele>
        <time>2019-06-30T07:52:56.000Z</time>
      </trkpt>
      <trkpt lat="42.986" lon="0.54267">
        <ele>1223</ele>
        <time>2019-06-30T07:52:58.000Z</time>
      </trkpt>
      <trkpt lat="42.98599" lon="0.54266">
        <ele>1224</ele>
        <time>2019-06-30T07:53:00.000Z</time>
      </trkpt>
      <trkpt lat="42.98599" lon="0.54265">
        <ele>1224</ele>
        <time>2019-06-30T07:53:02.000Z</time>
      </trkpt>
      <trkpt lat="42.986" lon="0.54263">
        <ele>1224</ele>
        <time>2019-06-30T07:53:04.000Z</time>
      </trkpt>
      <trkpt lat="42.98601" lon="0.54262">
        <ele>1224</ele>
        <time>2019-06-30T07:53:06.000Z</time>
      </trkpt>
      <trkpt lat="42.98601" lon="0.54261">
        <ele>1224</ele>
        <time>2019-06-30T07:53:08.000Z</time>
      </trkpt>
      <trkpt lat="42.98601" lon="0.54259">
        <ele>1225</ele>
        <time>2019-06-30T07:53:10.000Z</time>
      </trkpt>
      <trkpt lat="42.98601" lon="0.54257">
        <ele>1225</ele>
        <time>2019-06-30T07:53:12.000Z</time>
      </trkpt>
      <trkpt lat="42.98601" lon="0.54256">
        <ele>1226</ele>
        <time>2019-06-30T07:53:14.000Z</time>
      </trkpt>
      <trkpt lat="42.986" lon="0.54255">
        <ele>1226</ele>
        <time>2019-06-30T07:53:16.000Z</time>
      </trkpt>
      <trkpt lat="42.986" lon="0.54255">
        <ele>1226</ele>
        <time>2019-06-30T07:53:18.000Z</time>
      </trkpt>
      <trkpt lat="42.986" lon="0.54254">
        <ele>1227</ele>
        <time>2019-06-30T07:53:20.000Z</time>
      </trkpt>
      <trkpt lat="42.98599" lon="0.54253">
        <ele>1228</ele>
        <time>2019-06-30T07:53:22.000Z</time>
      </trkpt>
      <trkpt lat="42.98599" lon="0.54252">
        <ele>1228</ele>
        <time>2019-06-30T07:53:24.000Z</time>
      </trkpt>
      <trkpt lat="42.98599" lon="0.5425">
        <ele>1228</ele>
        <time>2019-06-30T07:53:26.000Z</time>
      </trkpt>
      <trkpt lat="42.98599" lon="0.54248">
        <ele>1229</ele>
        <time>2019-06-30T07:53:28.000Z</time>
      </trkpt>
      <trkpt lat="42.986" lon="0.54247">
        <ele>1229</ele>
        <time>2019-06-30T07:53:30.000Z</time>
      </trkpt>
      <trkpt lat="42.986" lon="0.54244">
        <ele>1229</ele>
        <time>2019-06-30T07:53:32.000Z</time>
      </trkpt>
      <trkpt lat="42.98599" lon="0.54242">
        <ele>1230</ele>
        <time>2019-06-30T07:53:34.000Z</time>
      </trkpt>
      <trkpt lat="42.98598" lon="0.54241">
        <ele>1231</ele>
        <time>2019-06-30T07:53:36.000Z</time>
      </trkpt>
      <trkpt lat="42.98598" lon="0.5424">
        <ele>1232</ele>
        <time>2019-06-30T07:53:38.000Z</time>
      </trkpt>
      <trkpt lat="42.98598" lon="0.54239">
        <ele>1232</ele>
        <time>2019-06-30T07:53:40.000Z</time>
      </trkpt>
      <trkpt lat="42.98597" lon="0.54239">
        <ele>1232</ele>
        <time>2019-06-30T07:53:42.000Z</time>
      </trkpt>
      <trkpt lat="42.98597" lon="0.54239">
        <ele>1232</ele>
        <time>2019-06-30T07:53:44.000Z</time>
      </trkpt>
      <trkpt lat="42.98597" lon="0.5424">
        <ele>1232</ele>
        <time>2019-06-30T07:53:46.000Z</time>
      </trkpt>
      <trkpt lat="42.98596" lon="0.54241">
        <ele>1232</ele>
        <time>2019-06-30T07:53:48.000Z</time>
      </trkpt>
      <trkpt lat="42.98596" lon="0.54242">
        <ele>1232</ele>
        <time>2019-06-30T07:53:50.000Z</time>
      </trkpt>
      <trkpt lat="42.98595" lon="0.54244">
        <ele>1232</ele>
        <time>2019-06-30T07:53:52.000Z</time>
      </trkpt>
      <trkpt lat="42.98594" lon="0.54244">
        <ele>1233</ele>
        <time>2019-06-30T07:53:54.000Z</time>
      </trkpt>
      <trkpt lat="42.98594" lon="0.54244">
        <ele>1232</ele>
        <time>2019-06-30T07:53:56.000Z</time>
      </trkpt>
      <trkpt lat="42.98594" lon="0.54244">
        <ele>1232</ele>
        <time>2019-06-30T07:53:58.000Z</time>
      </trkpt>
      <trkpt lat="42.98595" lon="0.54245">
        <ele>1232</ele>
        <time>2019-06-30T07:54:00.000Z</time>
      </trkpt>
      <trkpt lat="42.98595" lon="0.54245">
        <ele>1232</ele>
        <time>2019-06-30T07:54:02.000Z</time>
      </trkpt>
      <trkpt lat="42.98594" lon="0.54246">
        <ele>1232</ele>
        <time>2019-06-30T07:54:04.000Z</time>
      </trkpt>
      <trkpt lat="42.98594" lon="0.54246">
        <ele>1232</ele>
        <time>2019-06-30T07:54:06.000Z</time>
      </trkpt>
      <trkpt lat="42.98594" lon="0.54246">
        <ele>1232</ele>
        <time>2019-06-30T07:54:08.000Z</time>
      </trkpt>
      <trkpt lat="42.98594" lon="0.54247">
        <ele>1232</ele>
        <time>2019-06-30T07:54:10.000Z</time>
      </trkpt>
      <trkpt lat="42.98593" lon="0.54247">
        <ele>1233</ele>
        <time>2019-06-30T07:54:12.000Z</time>
      </trkpt>
      <trkpt lat="42.98592" lon="0.54247">
        <ele>1233</ele>
        <time>2019-06-30T07:54:14.000Z</time>
      </trkpt>
      <trkpt lat="42.98592" lon="0.54247">
        <ele>1233</ele>
        <time>2019-06-30T07:54:16.000Z</time>
      </trkpt>
      <trkpt lat="42.98592" lon="0.54247">
        <ele>1233</ele>
        <time>2019-06-30T07:54:18.000Z</time>
      </trkpt>
      <trkpt lat="42.98592" lon="0.54247">
        <ele>1233</ele>
        <time>2019-06-30T07:54:20.000Z</time>
      </trkpt>
      <trkpt lat="42.98593" lon="0.54248">
        <ele>1232</ele>
        <time>2019-06-30T07:54:22.000Z</time>
      </trkpt>
      <trkpt lat="42.98593" lon="0.54248">
        <ele>1232</ele>
        <time>2019-06-30T07:54:24.000Z</time>
      </trkpt>
      <trkpt lat="42.98593" lon="0.54248">
        <ele>1232</ele>
        <time>2019-06-30T07:54:26.000Z</time>
      </trkpt>
      <trkpt lat="42.98593" lon="0.54248">
        <ele>1232</ele>
        <time>2019-06-30T07:54:28.000Z</time>
      </trkpt>
      <trkpt lat="42.98593" lon="0.54247">
        <ele>1232</ele>
        <time>2019-06-30T07:54:30.000Z</time>
      </trkpt>
      <trkpt lat="42.98593" lon="0.54247">
        <ele>1232</ele>
        <time>2019-06-30T07:54:32.000Z</time>
      </trkpt>
      <trkpt lat="42.98593" lon="0.54246">
        <ele>1233</ele>
        <time>2019-06-30T07:54:34.000Z</time>
      </trkpt>
      <trkpt lat="42.98593" lon="0.54245">
        <ele>1233</ele>
        <time>2019-06-30T07:54:36.000Z</time>
      </trkpt>
      <trkpt lat="42.98593" lon="0.54245">
        <ele>1233</ele>
        <time>2019-06-30T07:54:38.000Z</time>
      </trkpt>
      <trkpt lat="42.98592" lon="0.54246">
        <ele>1233</ele>
        <time>2019-06-30T07:54:40.000Z</time>
      </trkpt>
      <trkpt lat="42.98592" lon="0.54246">
        <ele>1233</ele>
        <time>2019-06-30T07:54:42.000Z</time>
      </trkpt>
      <trkpt lat="42.98592" lon="0.54246">
        <ele>1233</ele>
        <time>2019-06-30T07:54:44.000Z</time>
      </trkpt>
      <trkpt lat="42.98592" lon="0.54246">
        <ele>1233</ele>
        <time>2019-06-30T07:54:46.000Z</time>
      </trkpt>
      <trkpt lat="42.98591" lon="0.54246">
        <ele>1233</ele>
        <time>2019-06-30T07:54:48.000Z</time>
      </trkpt>
      <trkpt lat="42.98591" lon="0.54247">
        <ele>1233</ele>
        <time>2019-06-30T07:54:50.000Z</time>
      </trkpt>
      <trkpt lat="42.98591" lon="0.54247">
        <ele>1233</ele>
        <time>2019-06-30T07:54:52.000Z</time>
      </trkpt>
      <trkpt lat="42.98591" lon="0.54247">
        <ele>1233</ele>
        <time>2019-06-30T07:54:54.000Z</time>
      </trkpt>
      <trkpt lat="42.98591" lon="0.54247">
        <ele>1233</ele>
        <time>2019-06-30T07:54:56.000Z</time>
      </trkpt>
      <trkpt lat="42.98591" lon="0.54248">
        <ele>1233</ele>
        <time>2019-06-30T07:54:58.000Z</time>
      </trkpt>
      <trkpt lat="42.98591" lon="0.54248">
        <ele>1233</ele>
        <time>2019-06-30T07:55:00.000Z</time>
      </trkpt>
      <trkpt lat="42.98591" lon="0.54249">
        <ele>1233</ele>
        <time>2019-06-30T07:55:02.000Z</time>
      </trkpt>
      <trkpt lat="42.98591" lon="0.54249">
        <ele>1233</ele>
        <time>2019-06-30T07:55:04.000Z</time>
      </trkpt>
      <trkpt lat="42.98591" lon="0.5425">
        <ele>1233</ele>
        <time>2019-06-30T07:55:06.000Z</time>
      </trkpt>
      <trkpt lat="42.98591" lon="0.5425">
        <ele>1233</ele>
        <time>2019-06-30T07:55:08.000Z</time>
      </trkpt>
      <trkpt lat="42.98591" lon="0.54251">
        <ele>1232</ele>
        <time>2019-06-30T07:55:10.000Z</time>
      </trkpt>
      <trkpt lat="42.98591" lon="0.54252">
        <ele>1232</ele>
        <time>2019-06-30T07:55:12.000Z</time>
      </trkpt>
      <trkpt lat="42.98591" lon="0.54251">
        <ele>1232</ele>
        <time>2019-06-30T07:55:14.000Z</time>
      </trkpt>
      <trkpt lat="42.98591" lon="0.54251">
        <ele>1233</ele>
        <time>2019-06-30T07:55:16.000Z</time>
      </trkpt>
      <trkpt lat="42.9859" lon="0.54251">
        <ele>1233</ele>
        <time>2019-06-30T07:55:18.000Z</time>
      </trkpt>
      <trkpt lat="42.98591" lon="0.54251">
        <ele>1233</ele>
        <time>2019-06-30T07:55:20.000Z</time>
      </trkpt>
      <trkpt lat="42.98591" lon="0.54251">
        <ele>1232</ele>
        <time>2019-06-30T07:55:22.000Z</time>
      </trkpt>
      <trkpt lat="42.98591" lon="0.54251">
        <ele>1232</ele>
        <time>2019-06-30T07:55:24.000Z</time>
      </trkpt>
      <trkpt lat="42.98591" lon="0.54251">
        <ele>1232</ele>
        <time>2019-06-30T07:55:26.000Z</time>
      </trkpt>
      <trkpt lat="42.98591" lon="0.54252">
        <ele>1232</ele>
        <time>2019-06-30T07:55:28.000Z</time>
      </trkpt>
      <trkpt lat="42.98591" lon="0.54252">
        <ele>1232</ele>
        <time>2019-06-30T07:55:30.000Z</time>
      </trkpt>
      <trkpt lat="42.98591" lon="0.54252">
        <ele>1232</ele>
        <time>2019-06-30T07:55:32.000Z</time>
      </trkpt>
      <trkpt lat="42.98591" lon="0.54252">
        <ele>1232</ele>
        <time>2019-06-30T07:55:34.000Z</time>
      </trkpt>
      <trkpt lat="42.98591" lon="0.54252">
        <ele>1232</ele>
        <time>2019-06-30T07:55:36.000Z</time>
      </trkpt>
      <trkpt lat="42.98591" lon="0.54252">
        <ele>1232</ele>
        <time>2019-06-30T07:55:38.000Z</time>
      </trkpt>
      <trkpt lat="42.98591" lon="0.54252">
        <ele>1232</ele>
        <time>2019-06-30T07:55:40.000Z</time>
      </trkpt>
      <trkpt lat="42.98591" lon="0.54251">
        <ele>1232</ele>
        <time>2019-06-30T07:55:42.000Z</time>
      </trkpt>
      <trkpt lat="42.98591" lon="0.54251">
        <ele>1232</ele>
        <time>2019-06-30T07:55:44.000Z</time>
      </trkpt>
      <trkpt lat="42.98591" lon="0.54251">
        <ele>1232</ele>
        <time>2019-06-30T07:55:46.000Z</time>
      </trkpt>
      <trkpt lat="42.98591" lon="0.54251">
        <ele>1232</ele>
        <time>2019-06-30T07:55:48.000Z</time>
      </trkpt>
      <trkpt lat="42.98591" lon="0.54251">
        <ele>1232</ele>
        <time>2019-06-30T07:55:50.000Z</time>
      </trkpt>
      <trkpt lat="42.98591" lon="0.5425">
        <ele>1232</ele>
        <time>2019-06-30T07:55:52.000Z</time>
      </trkpt>
      <trkpt lat="42.98591" lon="0.5425">
        <ele>1232</ele>
        <time>2019-06-30T07:55:54.000Z</time>
      </trkpt>
      <trkpt lat="42.98591" lon="0.5425">
        <ele>1232</ele>
        <time>2019-06-30T07:55:56.000Z</time>
      </trkpt>
      <trkpt lat="42.98591" lon="0.5425">
        <ele>1232</ele>
        <time>2019-06-30T07:55:58.000Z</time>
      </trkpt>
      <trkpt lat="42.98591" lon="0.5425">
        <ele>1232</ele>
        <time>2019-06-30T07:56:00.000Z</time>
      </trkpt>
      <trkpt lat="42.98592" lon="0.5425">
        <ele>1232</ele>
        <time>2019-06-30T07:56:02.000Z</time>
      </trkpt>
      <trkpt lat="42.98592" lon="0.54249">
        <ele>1232</ele>
        <time>2019-06-30T07:56:04.000Z</time>
      </trkpt>
      <trkpt lat="42.98592" lon="0.54249">
        <ele>1232</ele>
        <time>2019-06-30T07:56:06.000Z</time>
      </trkpt>
      <trkpt lat="42.98593" lon="0.54249">
        <ele>1232</ele>
        <time>2019-06-30T07:56:08.000Z</time>
      </trkpt>
      <trkpt lat="42.98593" lon="0.54249">
        <ele>1232</ele>
        <time>2019-06-30T07:56:10.000Z</time>
      </trkpt>
      <trkpt lat="42.98593" lon="0.54249">
        <ele>1232</ele>
        <time>2019-06-30T07:56:12.000Z</time>
      </trkpt>
      <trkpt lat="42.98594" lon="0.54249">
        <ele>1231</ele>
        <time>2019-06-30T07:56:14.000Z</time>
      </trkpt>
      <trkpt lat="42.98594" lon="0.54249">
        <ele>1231</ele>
        <time>2019-06-30T07:56:16.000Z</time>
      </trkpt>
      <trkpt lat="42.98594" lon="0.5425">
        <ele>1231</ele>
        <time>2019-06-30T07:56:18.000Z</time>
      </trkpt>
      <trkpt lat="42.98594" lon="0.5425">
        <ele>1231</ele>
        <time>2019-06-30T07:56:20.000Z</time>
      </trkpt>
      <trkpt lat="42.98594" lon="0.5425">
        <ele>1231</ele>
        <time>2019-06-30T07:56:22.000Z</time>
      </trkpt>
      <trkpt lat="42.98594" lon="0.5425">
        <ele>1231</ele>
        <time>2019-06-30T07:56:24.000Z</time>
      </trkpt>
      <trkpt lat="42.98594" lon="0.54251">
        <ele>1231</ele>
        <time>2019-06-30T07:56:26.000Z</time>
      </trkpt>
      <trkpt lat="42.98593" lon="0.54251">
        <ele>1231</ele>
        <time>2019-06-30T07:56:28.000Z</time>
      </trkpt>
      <trkpt lat="42.98593" lon="0.54252">
        <ele>1231</ele>
        <time>2019-06-30T07:56:30.000Z</time>
      </trkpt>
      <trkpt lat="42.98592" lon="0.54253">
        <ele>1231</ele>
        <time>2019-06-30T07:56:32.000Z</time>
      </trkpt>
      <trkpt lat="42.98591" lon="0.54254">
        <ele>1232</ele>
        <time>2019-06-30T07:56:34.000Z</time>
      </trkpt>
      <trkpt lat="42.98589" lon="0.54254">
        <ele>1232</ele>
        <time>2019-06-30T07:56:36.000Z</time>
      </trkpt>
      <trkpt lat="42.98588" lon="0.54255">
        <ele>1233</ele>
        <time>2019-06-30T07:56:38.000Z</time>
      </trkpt>
      <trkpt lat="42.98586" lon="0.54255">
        <ele>1233</ele>
        <time>2019-06-30T07:56:40.000Z</time>
      </trkpt>
      <trkpt lat="42.98585" lon="0.54256">
        <ele>1234</ele>
        <time>2019-06-30T07:56:42.000Z</time>
      </trkpt>
      <trkpt lat="42.98583" lon="0.54256">
        <ele>1234</ele>
        <time>2019-06-30T07:56:44.000Z</time>
      </trkpt>
      <trkpt lat="42.98582" lon="0.54257">
        <ele>1235</ele>
        <time>2019-06-30T07:56:46.000Z</time>
      </trkpt>
      <trkpt lat="42.9858" lon="0.54257">
        <ele>1235</ele>
        <time>2019-06-30T07:56:48.000Z</time>
      </trkpt>
      <trkpt lat="42.98578" lon="0.54256">
        <ele>1236</ele>
        <time>2019-06-30T07:56:50.000Z</time>
      </trkpt>
      <trkpt lat="42.98577" lon="0.54255">
        <ele>1237</ele>
        <time>2019-06-30T07:56:52.000Z</time>
      </trkpt>
      <trkpt lat="42.98576" lon="0.54254">
        <ele>1238</ele>
        <time>2019-06-30T07:56:54.000Z</time>
      </trkpt>
      <trkpt lat="42.98575" lon="0.54252">
        <ele>1239</ele>
        <time>2019-06-30T07:56:56.000Z</time>
      </trkpt>
      <trkpt lat="42.98574" lon="0.5425">
        <ele>1240</ele>
        <time>2019-06-30T07:56:58.000Z</time>
      </trkpt>
      <trkpt lat="42.98574" lon="0.54248">
        <ele>1240</ele>
        <time>2019-06-30T07:57:00.000Z</time>
      </trkpt>
      <trkpt lat="42.98574" lon="0.54246">
        <ele>1241</ele>
        <time>2019-06-30T07:57:02.000Z</time>
      </trkpt>
      <trkpt lat="42.98574" lon="0.54244">
        <ele>1241</ele>
        <time>2019-06-30T07:57:04.000Z</time>
      </trkpt>
      <trkpt lat="42.98574" lon="0.54242">
        <ele>1242</ele>
        <time>2019-06-30T07:57:06.000Z</time>
      </trkpt>
      <trkpt lat="42.98574" lon="0.5424">
        <ele>1242</ele>
        <time>2019-06-30T07:57:08.000Z</time>
      </trkpt>
      <trkpt lat="42.98574" lon="0.54239">
        <ele>1243</ele>
        <time>2019-06-30T07:57:10.000Z</time>
      </trkpt>
      <trkpt lat="42.98574" lon="0.54237">
        <ele>1243</ele>
        <time>2019-06-30T07:57:12.000Z</time>
      </trkpt>
      <trkpt lat="42.98574" lon="0.54236">
        <ele>1243</ele>
        <time>2019-06-30T07:57:14.000Z</time>
      </trkpt>
      <trkpt lat="42.98575" lon="0.54233">
        <ele>1244</ele>
        <time>2019-06-30T07:57:16.000Z</time>
      </trkpt>
      <trkpt lat="42.98576" lon="0.54232">
        <ele>1244</ele>
        <time>2019-06-30T07:57:18.000Z</time>
      </trkpt>
      <trkpt lat="42.98576" lon="0.5423">
        <ele>1244</ele>
        <time>2019-06-30T07:57:20.000Z</time>
      </trkpt>
      <trkpt lat="42.98577" lon="0.54227">
        <ele>1245</ele>
        <time>2019-06-30T07:57:22.000Z</time>
      </trkpt>
      <trkpt lat="42.98576" lon="0.54225">
        <ele>1245</ele>
        <time>2019-06-30T07:57:24.000Z</time>
      </trkpt>
      <trkpt lat="42.98576" lon="0.54223">
        <ele>1246</ele>
        <time>2019-06-30T07:57:26.000Z</time>
      </trkpt>
      <trkpt lat="42.98577" lon="0.54221">
        <ele>1246</ele>
        <time>2019-06-30T07:57:28.000Z</time>
      </trkpt>
      <trkpt lat="42.98577" lon="0.54219">
        <ele>1246</ele>
        <time>2019-06-30T07:57:30.000Z</time>
      </trkpt>
      <trkpt lat="42.98578" lon="0.54217">
        <ele>1247</ele>
        <time>2019-06-30T07:57:32.000Z</time>
      </trkpt>
      <trkpt lat="42.98578" lon="0.54216">
        <ele>1247</ele>
        <time>2019-06-30T07:57:34.000Z</time>
      </trkpt>
      <trkpt lat="42.98578" lon="0.54215">
        <ele>1247</ele>
        <time>2019-06-30T07:57:36.000Z</time>
      </trkpt>
      <trkpt lat="42.98578" lon="0.54213">
        <ele>1248</ele>
        <time>2019-06-30T07:57:38.000Z</time>
      </trkpt>
      <trkpt lat="42.98578" lon="0.54212">
        <ele>1248</ele>
        <time>2019-06-30T07:57:40.000Z</time>
      </trkpt>
      <trkpt lat="42.98578" lon="0.5421">
        <ele>1249</ele>
        <time>2019-06-30T07:57:42.000Z</time>
      </trkpt>
      <trkpt lat="42.98578" lon="0.54208">
        <ele>1250</ele>
        <time>2019-06-30T07:57:44.000Z</time>
      </trkpt>
      <trkpt lat="42.98577" lon="0.54207">
        <ele>1250</ele>
        <time>2019-06-30T07:57:46.000Z</time>
      </trkpt>
      <trkpt lat="42.98576" lon="0.54205">
        <ele>1251</ele>
        <time>2019-06-30T07:57:48.000Z</time>
      </trkpt>
      <trkpt lat="42.98576" lon="0.54204">
        <ele>1252</ele>
        <time>2019-06-30T07:57:50.000Z</time>
      </trkpt>
      <trkpt lat="42.98576" lon="0.54202">
        <ele>1252</ele>
        <time>2019-06-30T07:57:52.000Z</time>
      </trkpt>
      <trkpt lat="42.98577" lon="0.54201">
        <ele>1252</ele>
        <time>2019-06-30T07:57:54.000Z</time>
      </trkpt>
      <trkpt lat="42.98577" lon="0.54199">
        <ele>1252</ele>
        <time>2019-06-30T07:57:56.000Z</time>
      </trkpt>
      <trkpt lat="42.98577" lon="0.54197">
        <ele>1253</ele>
        <time>2019-06-30T07:57:58.000Z</time>
      </trkpt>
      <trkpt lat="42.98577" lon="0.54195">
        <ele>1253</ele>
        <time>2019-06-30T07:58:00.000Z</time>
      </trkpt>
      <trkpt lat="42.98577" lon="0.54194">
        <ele>1254</ele>
        <time>2019-06-30T07:58:02.000Z</time>
      </trkpt>
      <trkpt lat="42.98577" lon="0.54193">
        <ele>1254</ele>
        <time>2019-06-30T07:58:04.000Z</time>
      </trkpt>
      <trkpt lat="42.98577" lon="0.54192">
        <ele>1254</ele>
        <time>2019-06-30T07:58:06.000Z</time>
      </trkpt>
      <trkpt lat="42.98578" lon="0.54191">
        <ele>1254</ele>
        <time>2019-06-30T07:58:08.000Z</time>
      </trkpt>
      <trkpt lat="42.98579" lon="0.5419">
        <ele>1254</ele>
        <time>2019-06-30T07:58:10.000Z</time>
      </trkpt>
      <trkpt lat="42.98579" lon="0.54189">
        <ele>1254</ele>
        <time>2019-06-30T07:58:12.000Z</time>
      </trkpt>
      <trkpt lat="42.9858" lon="0.54187">
        <ele>1254</ele>
        <time>2019-06-30T07:58:14.000Z</time>
      </trkpt>
      <trkpt lat="42.9858" lon="0.54186">
        <ele>1254</ele>
        <time>2019-06-30T07:58:16.000Z</time>
      </trkpt>
      <trkpt lat="42.98581" lon="0.54184">
        <ele>1254</ele>
        <time>2019-06-30T07:58:18.000Z</time>
      </trkpt>
      <trkpt lat="42.9858" lon="0.54183">
        <ele>1255</ele>
        <time>2019-06-30T07:58:20.000Z</time>
      </trkpt>
      <trkpt lat="42.98581" lon="0.54181">
        <ele>1255</ele>
        <time>2019-06-30T07:58:22.000Z</time>
      </trkpt>
      <trkpt lat="42.9858" lon="0.54181">
        <ele>1256</ele>
        <time>2019-06-30T07:58:24.000Z</time>
      </trkpt>
      <trkpt lat="42.9858" lon="0.54179">
        <ele>1256</ele>
        <time>2019-06-30T07:58:26.000Z</time>
      </trkpt>
      <trkpt lat="42.98581" lon="0.54177">
        <ele>1256</ele>
        <time>2019-06-30T07:58:28.000Z</time>
      </trkpt>
      <trkpt lat="42.98581" lon="0.54176">
        <ele>1257</ele>
        <time>2019-06-30T07:58:30.000Z</time>
      </trkpt>
      <trkpt lat="42.9858" lon="0.54174">
        <ele>1257</ele>
        <time>2019-06-30T07:58:32.000Z</time>
      </trkpt>
      <trkpt lat="42.9858" lon="0.54173">
        <ele>1258</ele>
        <time>2019-06-30T07:58:34.000Z</time>
      </trkpt>
      <trkpt lat="42.9858" lon="0.54171">
        <ele>1258</ele>
        <time>2019-06-30T07:58:36.000Z</time>
      </trkpt>
      <trkpt lat="42.98581" lon="0.54169">
        <ele>1258</ele>
        <time>2019-06-30T07:58:38.000Z</time>
      </trkpt>
      <trkpt lat="42.98581" lon="0.54168">
        <ele>1258</ele>
        <time>2019-06-30T07:58:40.000Z</time>
      </trkpt>
      <trkpt lat="42.98581" lon="0.54167">
        <ele>1259</ele>
        <time>2019-06-30T07:58:42.000Z</time>
      </trkpt>
      <trkpt lat="42.98581" lon="0.54165">
        <ele>1259</ele>
        <time>2019-06-30T07:58:44.000Z</time>
      </trkpt>
      <trkpt lat="42.98582" lon="0.54163">
        <ele>1259</ele>
        <time>2019-06-30T07:58:46.000Z</time>
      </trkpt>
      <trkpt lat="42.98583" lon="0.54162">
        <ele>1259</ele>
        <time>2019-06-30T07:58:48.000Z</time>
      </trkpt>
      <trkpt lat="42.98584" lon="0.5416">
        <ele>1259</ele>
        <time>2019-06-30T07:58:50.000Z</time>
      </trkpt>
      <trkpt lat="42.98584" lon="0.54158">
        <ele>1259</ele>
        <time>2019-06-30T07:58:52.000Z</time>
      </trkpt>
      <trkpt lat="42.98585" lon="0.54157">
        <ele>1259</ele>
        <time>2019-06-30T07:58:54.000Z</time>
      </trkpt>
      <trkpt lat="42.98585" lon="0.54156">
        <ele>1260</ele>
        <time>2019-06-30T07:58:56.000Z</time>
      </trkpt>
      <trkpt lat="42.98585" lon="0.54154">
        <ele>1260</ele>
        <time>2019-06-30T07:58:58.000Z</time>
      </trkpt>
      <trkpt lat="42.98585" lon="0.54153">
        <ele>1260</ele>
        <time>2019-06-30T07:59:00.000Z</time>
      </trkpt>
      <trkpt lat="42.98585" lon="0.54151">
        <ele>1261</ele>
        <time>2019-06-30T07:59:02.000Z</time>
      </trkpt>
      <trkpt lat="42.98586" lon="0.5415">
        <ele>1261</ele>
        <time>2019-06-30T07:59:04.000Z</time>
      </trkpt>
      <trkpt lat="42.98585" lon="0.54149">
        <ele>1261</ele>
        <time>2019-06-30T07:59:06.000Z</time>
      </trkpt>
      <trkpt lat="42.98586" lon="0.54148">
        <ele>1261</ele>
        <time>2019-06-30T07:59:08.000Z</time>
      </trkpt>
      <trkpt lat="42.98587" lon="0.54147">
        <ele>1261</ele>
        <time>2019-06-30T07:59:10.000Z</time>
      </trkpt>
      <trkpt lat="42.98587" lon="0.54146">
        <ele>1261</ele>
        <time>2019-06-30T07:59:12.000Z</time>
      </trkpt>
      <trkpt lat="42.98587" lon="0.54145">
        <ele>1261</ele>
        <time>2019-06-30T07:59:14.000Z</time>
      </trkpt>
      <trkpt lat="42.98588" lon="0.54144">
        <ele>1261</ele>
        <time>2019-06-30T07:59:16.000Z</time>
      </trkpt>
      <trkpt lat="42.98588" lon="0.54143">
        <ele>1261</ele>
        <time>2019-06-30T07:59:18.000Z</time>
      </trkpt>
      <trkpt lat="42.98588" lon="0.54142">
        <ele>1262</ele>
        <time>2019-06-30T07:59:20.000Z</time>
      </trkpt>
      <trkpt lat="42.98588" lon="0.54141">
        <ele>1262</ele>
        <time>2019-06-30T07:59:22.000Z</time>
      </trkpt>
      <trkpt lat="42.98588" lon="0.5414">
        <ele>1262</ele>
        <time>2019-06-30T07:59:24.000Z</time>
      </trkpt>
      <trkpt lat="42.98588" lon="0.54139">
        <ele>1263</ele>
        <time>2019-06-30T07:59:26.000Z</time>
      </trkpt>
      <trkpt lat="42.98588" lon="0.54138">
        <ele>1263</ele>
        <time>2019-06-30T07:59:28.000Z</time>
      </trkpt>
      <trkpt lat="42.98589" lon="0.54136">
        <ele>1263</ele>
        <time>2019-06-30T07:59:30.000Z</time>
      </trkpt>
      <trkpt lat="42.98589" lon="0.54135">
        <ele>1263</ele>
        <time>2019-06-30T07:59:32.000Z</time>
      </trkpt>
      <trkpt lat="42.98589" lon="0.54134">
        <ele>1263</ele>
        <time>2019-06-30T07:59:34.000Z</time>
      </trkpt>
      <trkpt lat="42.98589" lon="0.54132">
        <ele>1264</ele>
        <time>2019-06-30T07:59:36.000Z</time>
      </trkpt>
      <trkpt lat="42.9859" lon="0.54131">
        <ele>1264</ele>
        <time>2019-06-30T07:59:38.000Z</time>
      </trkpt>
      <trkpt lat="42.9859" lon="0.54129">
        <ele>1264</ele>
        <time>2019-06-30T07:59:40.000Z</time>
      </trkpt>
      <trkpt lat="42.9859" lon="0.54128">
        <ele>1265</ele>
        <time>2019-06-30T07:59:42.000Z</time>
      </trkpt>
      <trkpt lat="42.9859" lon="0.54126">
        <ele>1265</ele>
        <time>2019-06-30T07:59:44.000Z</time>
      </trkpt>
      <trkpt lat="42.9859" lon="0.54125">
        <ele>1265</ele>
        <time>2019-06-30T07:59:46.000Z</time>
      </trkpt>
      <trkpt lat="42.98591" lon="0.54124">
        <ele>1265</ele>
        <time>2019-06-30T07:59:48.000Z</time>
      </trkpt>
      <trkpt lat="42.98591" lon="0.54123">
        <ele>1265</ele>
        <time>2019-06-30T07:59:50.000Z</time>
      </trkpt>
      <trkpt lat="42.98592" lon="0.54121">
        <ele>1265</ele>
        <time>2019-06-30T07:59:52.000Z</time>
      </trkpt>
      <trkpt lat="42.98593" lon="0.5412">
        <ele>1265</ele>
        <time>2019-06-30T07:59:54.000Z</time>
      </trkpt>
      <trkpt lat="42.98594" lon="0.54119">
        <ele>1264</ele>
        <time>2019-06-30T07:59:56.000Z</time>
      </trkpt>
      <trkpt lat="42.98595" lon="0.54118">
        <ele>1264</ele>
        <time>2019-06-30T07:59:58.000Z</time>
      </trkpt>
      <trkpt lat="42.98595" lon="0.54116">
        <ele>1265</ele>
        <time>2019-06-30T08:00:00.000Z</time>
      </trkpt>
      <trkpt lat="42.98595" lon="0.54115">
        <ele>1265</ele>
        <time>2019-06-30T08:00:02.000Z</time>
      </trkpt>
      <trkpt lat="42.98595" lon="0.54113">
        <ele>1265</ele>
        <time>2019-06-30T08:00:04.000Z</time>
      </trkpt>
      <trkpt lat="42.98595" lon="0.54112">
        <ele>1266</ele>
        <time>2019-06-30T08:00:06.000Z</time>
      </trkpt>
      <trkpt lat="42.98595" lon="0.54111">
        <ele>1266</ele>
        <time>2019-06-30T08:00:08.000Z</time>
      </trkpt>
      <trkpt lat="42.98594" lon="0.54109">
        <ele>1267</ele>
        <time>2019-06-30T08:00:10.000Z</time>
      </trkpt>
      <trkpt lat="42.98594" lon="0.54107">
        <ele>1268</ele>
        <time>2019-06-30T08:00:12.000Z</time>
      </trkpt>
      <trkpt lat="42.98594" lon="0.54107">
        <ele>1268</ele>
        <time>2019-06-30T08:00:14.000Z</time>
      </trkpt>
      <trkpt lat="42.98594" lon="0.54106">
        <ele>1268</ele>
        <time>2019-06-30T08:00:16.000Z</time>
      </trkpt>
      <trkpt lat="42.98594" lon="0.54104">
        <ele>1268</ele>
        <time>2019-06-30T08:00:18.000Z</time>
      </trkpt>
      <trkpt lat="42.98595" lon="0.54104">
        <ele>1268</ele>
        <time>2019-06-30T08:00:20.000Z</time>
      </trkpt>
      <trkpt lat="42.98596" lon="0.54103">
        <ele>1268</ele>
        <time>2019-06-30T08:00:22.000Z</time>
      </trkpt>
      <trkpt lat="42.98596" lon="0.54102">
        <ele>1268</ele>
        <time>2019-06-30T08:00:24.000Z</time>
      </trkpt>
      <trkpt lat="42.98595" lon="0.54101">
        <ele>1269</ele>
        <time>2019-06-30T08:00:26.000Z</time>
      </trkpt>
      <trkpt lat="42.98595" lon="0.54101">
        <ele>1269</ele>
        <time>2019-06-30T08:00:28.000Z</time>
      </trkpt>
      <trkpt lat="42.98596" lon="0.541">
        <ele>1269</ele>
        <time>2019-06-30T08:00:30.000Z</time>
      </trkpt>
      <trkpt lat="42.98596" lon="0.54099">
        <ele>1269</ele>
        <time>2019-06-30T08:00:32.000Z</time>
      </trkpt>
      <trkpt lat="42.98596" lon="0.54098">
        <ele>1269</ele>
        <time>2019-06-30T08:00:34.000Z</time>
      </trkpt>
      <trkpt lat="42.98596" lon="0.54097">
        <ele>1269</ele>
        <time>2019-06-30T08:00:36.000Z</time>
      </trkpt>
      <trkpt lat="42.98596" lon="0.54096">
        <ele>1270</ele>
        <time>2019-06-30T08:00:38.000Z</time>
      </trkpt>
      <trkpt lat="42.98596" lon="0.54095">
        <ele>1270</ele>
        <time>2019-06-30T08:00:40.000Z</time>
      </trkpt>
      <trkpt lat="42.98596" lon="0.54094">
        <ele>1270</ele>
        <time>2019-06-30T08:00:42.000Z</time>
      </trkpt>
      <trkpt lat="42.98596" lon="0.54092">
        <ele>1270</ele>
        <time>2019-06-30T08:00:44.000Z</time>
      </trkpt>
      <trkpt lat="42.98596" lon="0.54091">
        <ele>1271</ele>
        <time>2019-06-30T08:00:46.000Z</time>
      </trkpt>
      <trkpt lat="42.98596" lon="0.5409">
        <ele>1271</ele>
        <time>2019-06-30T08:00:48.000Z</time>
      </trkpt>
      <trkpt lat="42.98597" lon="0.54089">
        <ele>1271</ele>
        <time>2019-06-30T08:00:50.000Z</time>
      </trkpt>
      <trkpt lat="42.98599" lon="0.54087">
        <ele>1270</ele>
        <time>2019-06-30T08:00:52.000Z</time>
      </trkpt>
      <trkpt lat="42.98601" lon="0.54085">
        <ele>1270</ele>
        <time>2019-06-30T08:00:54.000Z</time>
      </trkpt>
      <trkpt lat="42.98602" lon="0.54084">
        <ele>1269</ele>
        <time>2019-06-30T08:00:56.000Z</time>
      </trkpt>
      <trkpt lat="42.98603" lon="0.54082">
        <ele>1269</ele>
        <time>2019-06-30T08:00:58.000Z</time>
      </trkpt>
      <trkpt lat="42.98604" lon="0.54081">
        <ele>1269</ele>
        <time>2019-06-30T08:01:00.000Z</time>
      </trkpt>
      <trkpt lat="42.98605" lon="0.54079">
        <ele>1269</ele>
        <time>2019-06-30T08:01:02.000Z</time>
      </trkpt>
      <trkpt lat="42.98605" lon="0.54078">
        <ele>1269</ele>
        <time>2019-06-30T08:01:04.000Z</time>
      </trkpt>
      <trkpt lat="42.98606" lon="0.54076">
        <ele>1269</ele>
        <time>2019-06-30T08:01:06.000Z</time>
      </trkpt>
      <trkpt lat="42.98606" lon="0.54075">
        <ele>1269</ele>
        <time>2019-06-30T08:01:08.000Z</time>
      </trkpt>
      <trkpt lat="42.98606" lon="0.54074">
        <ele>1270</ele>
        <time>2019-06-30T08:01:10.000Z</time>
      </trkpt>
      <trkpt lat="42.98606" lon="0.54072">
        <ele>1270</ele>
        <time>2019-06-30T08:01:12.000Z</time>
      </trkpt>
      <trkpt lat="42.98606" lon="0.54071">
        <ele>1270</ele>
        <time>2019-06-30T08:01:14.000Z</time>
      </trkpt>
      <trkpt lat="42.98606" lon="0.5407">
        <ele>1271</ele>
        <time>2019-06-30T08:01:16.000Z</time>
      </trkpt>
      <trkpt lat="42.98606" lon="0.54068">
        <ele>1271</ele>
        <time>2019-06-30T08:01:18.000Z</time>
      </trkpt>
      <trkpt lat="42.98607" lon="0.54067">
        <ele>1271</ele>
        <time>2019-06-30T08:01:20.000Z</time>
      </trkpt>
      <trkpt lat="42.98608" lon="0.54066">
        <ele>1271</ele>
        <time>2019-06-30T08:01:22.000Z</time>
      </trkpt>
      <trkpt lat="42.98607" lon="0.54065">
        <ele>1271</ele>
        <time>2019-06-30T08:01:24.000Z</time>
      </trkpt>
      <trkpt lat="42.98608" lon="0.54064">
        <ele>1271</ele>
        <time>2019-06-30T08:01:26.000Z</time>
      </trkpt>
      <trkpt lat="42.98608" lon="0.54063">
        <ele>1271</ele>
        <time>2019-06-30T08:01:28.000Z</time>
      </trkpt>
      <trkpt lat="42.98608" lon="0.54062">
        <ele>1272</ele>
        <time>2019-06-30T08:01:30.000Z</time>
      </trkpt>
      <trkpt lat="42.98607" lon="0.54061">
        <ele>1272</ele>
        <time>2019-06-30T08:01:32.000Z</time>
      </trkpt>
      <trkpt lat="42.98607" lon="0.54059">
        <ele>1273</ele>
        <time>2019-06-30T08:01:34.000Z</time>
      </trkpt>
      <trkpt lat="42.98607" lon="0.54058">
        <ele>1273</ele>
        <time>2019-06-30T08:01:36.000Z</time>
      </trkpt>
      <trkpt lat="42.98607" lon="0.54057">
        <ele>1273</ele>
        <time>2019-06-30T08:01:38.000Z</time>
      </trkpt>
      <trkpt lat="42.98607" lon="0.54056">
        <ele>1274</ele>
        <time>2019-06-30T08:01:40.000Z</time>
      </trkpt>
      <trkpt lat="42.98607" lon="0.54054">
        <ele>1274</ele>
        <time>2019-06-30T08:01:42.000Z</time>
      </trkpt>
      <trkpt lat="42.98606" lon="0.54054">
        <ele>1275</ele>
        <time>2019-06-30T08:01:44.000Z</time>
      </trkpt>
      <trkpt lat="42.98605" lon="0.54053">
        <ele>1275</ele>
        <time>2019-06-30T08:01:46.000Z</time>
      </trkpt>
      <trkpt lat="42.98605" lon="0.54054">
        <ele>1276</ele>
        <time>2019-06-30T08:01:48.000Z</time>
      </trkpt>
      <trkpt lat="42.98604" lon="0.54054">
        <ele>1276</ele>
        <time>2019-06-30T08:01:50.000Z</time>
      </trkpt>
      <trkpt lat="42.98603" lon="0.54055">
        <ele>1276</ele>
        <time>2019-06-30T08:01:52.000Z</time>
      </trkpt>
      <trkpt lat="42.98602" lon="0.54056">
        <ele>1277</ele>
        <time>2019-06-30T08:01:54.000Z</time>
      </trkpt>
      <trkpt lat="42.98601" lon="0.54057">
        <ele>1277</ele>
        <time>2019-06-30T08:01:56.000Z</time>
      </trkpt>
      <trkpt lat="42.98601" lon="0.54058">
        <ele>1277</ele>
        <time>2019-06-30T08:01:58.000Z</time>
      </trkpt>
      <trkpt lat="42.986" lon="0.5406">
        <ele>1277</ele>
        <time>2019-06-30T08:02:00.000Z</time>
      </trkpt>
      <trkpt lat="42.98601" lon="0.5406">
        <ele>1276</ele>
        <time>2019-06-30T08:02:02.000Z</time>
      </trkpt>
      <trkpt lat="42.98599" lon="0.54061">
        <ele>1277</ele>
        <time>2019-06-30T08:02:04.000Z</time>
      </trkpt>
      <trkpt lat="42.98598" lon="0.54062">
        <ele>1277</ele>
        <time>2019-06-30T08:02:06.000Z</time>
      </trkpt>
      <trkpt lat="42.98597" lon="0.54063">
        <ele>1277</ele>
        <time>2019-06-30T08:02:08.000Z</time>
      </trkpt>
      <trkpt lat="42.98596" lon="0.54064">
        <ele>1278</ele>
        <time>2019-06-30T08:02:10.000Z</time>
      </trkpt>
      <trkpt lat="42.98596" lon="0.54065">
        <ele>1278</ele>
        <time>2019-06-30T08:02:12.000Z</time>
      </trkpt>
      <trkpt lat="42.98595" lon="0.54066">
        <ele>1278</ele>
        <time>2019-06-30T08:02:14.000Z</time>
      </trkpt>
      <trkpt lat="42.98593" lon="0.54068">
        <ele>1279</ele>
        <time>2019-06-30T08:02:16.000Z</time>
      </trkpt>
      <trkpt lat="42.98592" lon="0.54069">
        <ele>1279</ele>
        <time>2019-06-30T08:02:18.000Z</time>
      </trkpt>
      <trkpt lat="42.98591" lon="0.5407">
        <ele>1279</ele>
        <time>2019-06-30T08:02:20.000Z</time>
      </trkpt>
      <trkpt lat="42.98589" lon="0.54072">
        <ele>1280</ele>
        <time>2019-06-30T08:02:22.000Z</time>
      </trkpt>
      <trkpt lat="42.98588" lon="0.54072">
        <ele>1280</ele>
        <time>2019-06-30T08:02:24.000Z</time>
      </trkpt>
      <trkpt lat="42.98587" lon="0.54074">
        <ele>1281</ele>
        <time>2019-06-30T08:02:26.000Z</time>
      </trkpt>
      <trkpt lat="42.98586" lon="0.54075">
        <ele>1281</ele>
        <time>2019-06-30T08:02:28.000Z</time>
      </trkpt>
      <trkpt lat="42.98585" lon="0.54076">
        <ele>1281</ele>
        <time>2019-06-30T08:02:30.000Z</time>
      </trkpt>
      <trkpt lat="42.98585" lon="0.54077">
        <ele>1281</ele>
        <time>2019-06-30T08:02:32.000Z</time>
      </trkpt>
      <trkpt lat="42.98585" lon="0.54079">
        <ele>1280</ele>
        <time>2019-06-30T08:02:34.000Z</time>
      </trkpt>
      <trkpt lat="42.98584" lon="0.5408">
        <ele>1280</ele>
        <time>2019-06-30T08:02:36.000Z</time>
      </trkpt>
      <trkpt lat="42.98584" lon="0.54081">
        <ele>1280</ele>
        <time>2019-06-30T08:02:38.000Z</time>
      </trkpt>
      <trkpt lat="42.98582" lon="0.54082">
        <ele>1281</ele>
        <time>2019-06-30T08:02:40.000Z</time>
      </trkpt>
      <trkpt lat="42.9858" lon="0.54083">
        <ele>1282</ele>
        <time>2019-06-30T08:02:42.000Z</time>
      </trkpt>
      <trkpt lat="42.98579" lon="0.54084">
        <ele>1283</ele>
        <time>2019-06-30T08:02:44.000Z</time>
      </trkpt>
      <trkpt lat="42.98578" lon="0.54084">
        <ele>1283</ele>
        <time>2019-06-30T08:02:46.000Z</time>
      </trkpt>
      <trkpt lat="42.98576" lon="0.54084">
        <ele>1284</ele>
        <time>2019-06-30T08:02:48.000Z</time>
      </trkpt>
      <trkpt lat="42.98575" lon="0.54085">
        <ele>1285</ele>
        <time>2019-06-30T08:02:50.000Z</time>
      </trkpt>
      <trkpt lat="42.98573" lon="0.54086">
        <ele>1285</ele>
        <time>2019-06-30T08:02:52.000Z</time>
      </trkpt>
      <trkpt lat="42.98572" lon="0.54088">
        <ele>1286</ele>
        <time>2019-06-30T08:02:54.000Z</time>
      </trkpt>
      <trkpt lat="42.98571" lon="0.54088">
        <ele>1286</ele>
        <time>2019-06-30T08:02:56.000Z</time>
      </trkpt>
      <trkpt lat="42.9857" lon="0.5409">
        <ele>1286</ele>
        <time>2019-06-30T08:02:58.000Z</time>
      </trkpt>
      <trkpt lat="42.98568" lon="0.54091">
        <ele>1287</ele>
        <time>2019-06-30T08:03:00.000Z</time>
      </trkpt>
      <trkpt lat="42.98567" lon="0.54093">
        <ele>1287</ele>
        <time>2019-06-30T08:03:02.000Z</time>
      </trkpt>
      <trkpt lat="42.98567" lon="0.54093">
        <ele>1287</ele>
        <time>2019-06-30T08:03:04.000Z</time>
      </trkpt>
      <trkpt lat="42.98566" lon="0.54094">
        <ele>1287</ele>
        <time>2019-06-30T08:03:06.000Z</time>
      </trkpt>
      <trkpt lat="42.98565" lon="0.54095">
        <ele>1288</ele>
        <time>2019-06-30T08:03:08.000Z</time>
      </trkpt>
      <trkpt lat="42.98564" lon="0.54096">
        <ele>1288</ele>
        <time>2019-06-30T08:03:10.000Z</time>
      </trkpt>
      <trkpt lat="42.98564" lon="0.54096">
        <ele>1288</ele>
        <time>2019-06-30T08:03:12.000Z</time>
      </trkpt>
      <trkpt lat="42.98563" lon="0.54097">
        <ele>1288</ele>
        <time>2019-06-30T08:03:14.000Z</time>
      </trkpt>
      <trkpt lat="42.98562" lon="0.54098">
        <ele>1289</ele>
        <time>2019-06-30T08:03:16.000Z</time>
      </trkpt>
      <trkpt lat="42.98561" lon="0.54098">
        <ele>1289</ele>
        <time>2019-06-30T08:03:18.000Z</time>
      </trkpt>
      <trkpt lat="42.9856" lon="0.54098">
        <ele>1289</ele>
        <time>2019-06-30T08:03:20.000Z</time>
      </trkpt>
      <trkpt lat="42.98559" lon="0.54099">
        <ele>1290</ele>
        <time>2019-06-30T08:03:22.000Z</time>
      </trkpt>
      <trkpt lat="42.98559" lon="0.54099">
        <ele>1290</ele>
        <time>2019-06-30T08:03:24.000Z</time>
      </trkpt>
      <trkpt lat="42.98558" lon="0.541">
        <ele>1290</ele>
        <time>2019-06-30T08:03:26.000Z</time>
      </trkpt>
      <trkpt lat="42.98557" lon="0.54102">
        <ele>1290</ele>
        <time>2019-06-30T08:03:28.000Z</time>
      </trkpt>
      <trkpt lat="42.98556" lon="0.54102">
        <ele>1291</ele>
        <time>2019-06-30T08:03:30.000Z</time>
      </trkpt>
      <trkpt lat="42.98555" lon="0.54103">
        <ele>1291</ele>
        <time>2019-06-30T08:03:32.000Z</time>
      </trkpt>
      <trkpt lat="42.98554" lon="0.54103">
        <ele>1291</ele>
        <time>2019-06-30T08:03:34.000Z</time>
      </trkpt>
      <trkpt lat="42.98553" lon="0.54104">
        <ele>1291</ele>
        <time>2019-06-30T08:03:36.000Z</time>
      </trkpt>
      <trkpt lat="42.98552" lon="0.54104">
        <ele>1292</ele>
        <time>2019-06-30T08:03:38.000Z</time>
      </trkpt>
      <trkpt lat="42.9855" lon="0.54105">
        <ele>1292</ele>
        <time>2019-06-30T08:03:40.000Z</time>
      </trkpt>
      <trkpt lat="42.98549" lon="0.54105">
        <ele>1292</ele>
        <time>2019-06-30T08:03:42.000Z</time>
      </trkpt>
      <trkpt lat="42.98548" lon="0.54107">
        <ele>1292</ele>
        <time>2019-06-30T08:03:44.000Z</time>
      </trkpt>
      <trkpt lat="42.98548" lon="0.54107">
        <ele>1292</ele>
        <time>2019-06-30T08:03:46.000Z</time>
      </trkpt>
      <trkpt lat="42.98547" lon="0.54108">
        <ele>1293</ele>
        <time>2019-06-30T08:03:48.000Z</time>
      </trkpt>
      <trkpt lat="42.98546" lon="0.54109">
        <ele>1293</ele>
        <time>2019-06-30T08:03:50.000Z</time>
      </trkpt>
      <trkpt lat="42.98545" lon="0.54109">
        <ele>1293</ele>
        <time>2019-06-30T08:03:52.000Z</time>
      </trkpt>
      <trkpt lat="42.98544" lon="0.5411">
        <ele>1293</ele>
        <time>2019-06-30T08:03:54.000Z</time>
      </trkpt>
      <trkpt lat="42.98543" lon="0.5411">
        <ele>1293</ele>
        <time>2019-06-30T08:03:56.000Z</time>
      </trkpt>
      <trkpt lat="42.98542" lon="0.54111">
        <ele>1294</ele>
        <time>2019-06-30T08:03:58.000Z</time>
      </trkpt>
      <trkpt lat="42.98541" lon="0.54112">
        <ele>1294</ele>
        <time>2019-06-30T08:04:00.000Z</time>
      </trkpt>
      <trkpt lat="42.9854" lon="0.54114">
        <ele>1293</ele>
        <time>2019-06-30T08:04:02.000Z</time>
      </trkpt>
      <trkpt lat="42.98539" lon="0.54114">
        <ele>1294</ele>
        <time>2019-06-30T08:04:04.000Z</time>
      </trkpt>
      <trkpt lat="42.98539" lon="0.54115">
        <ele>1294</ele>
        <time>2019-06-30T08:04:06.000Z</time>
      </trkpt>
      <trkpt lat="42.98538" lon="0.54117">
        <ele>1294</ele>
        <time>2019-06-30T08:04:08.000Z</time>
      </trkpt>
      <trkpt lat="42.98537" lon="0.54118">
        <ele>1294</ele>
        <time>2019-06-30T08:04:10.000Z</time>
      </trkpt>
      <trkpt lat="42.98536" lon="0.54119">
        <ele>1294</ele>
        <time>2019-06-30T08:04:12.000Z</time>
      </trkpt>
      <trkpt lat="42.98535" lon="0.54121">
        <ele>1293</ele>
        <time>2019-06-30T08:04:14.000Z</time>
      </trkpt>
      <trkpt lat="42.98534" lon="0.54123">
        <ele>1293</ele>
        <time>2019-06-30T08:04:16.000Z</time>
      </trkpt>
      <trkpt lat="42.98534" lon="0.54123">
        <ele>1293</ele>
        <time>2019-06-30T08:04:18.000Z</time>
      </trkpt>
      <trkpt lat="42.98532" lon="0.54124">
        <ele>1293</ele>
        <time>2019-06-30T08:04:20.000Z</time>
      </trkpt>
      <trkpt lat="42.98531" lon="0.54125">
        <ele>1294</ele>
        <time>2019-06-30T08:04:22.000Z</time>
      </trkpt>
      <trkpt lat="42.9853" lon="0.54126">
        <ele>1294</ele>
        <time>2019-06-30T08:04:24.000Z</time>
      </trkpt>
      <trkpt lat="42.98528" lon="0.54127">
        <ele>1294</ele>
        <time>2019-06-30T08:04:26.000Z</time>
      </trkpt>
      <trkpt lat="42.98527" lon="0.54127">
        <ele>1295</ele>
        <time>2019-06-30T08:04:28.000Z</time>
      </trkpt>
      <trkpt lat="42.98526" lon="0.54128">
        <ele>1295</ele>
        <time>2019-06-30T08:04:30.000Z</time>
      </trkpt>
      <trkpt lat="42.98525" lon="0.54129">
        <ele>1295</ele>
        <time>2019-06-30T08:04:32.000Z</time>
      </trkpt>
      <trkpt lat="42.98524" lon="0.5413">
        <ele>1295</ele>
        <time>2019-06-30T08:04:34.000Z</time>
      </trkpt>
      <trkpt lat="42.98523" lon="0.54132">
        <ele>1295</ele>
        <time>2019-06-30T08:04:36.000Z</time>
      </trkpt>
      <trkpt lat="42.98522" lon="0.54133">
        <ele>1295</ele>
        <time>2019-06-30T08:04:38.000Z</time>
      </trkpt>
      <trkpt lat="42.98521" lon="0.54134">
        <ele>1295</ele>
        <time>2019-06-30T08:04:40.000Z</time>
      </trkpt>
      <trkpt lat="42.9852" lon="0.54134">
        <ele>1295</ele>
        <time>2019-06-30T08:04:42.000Z</time>
      </trkpt>
      <trkpt lat="42.98519" lon="0.54137">
        <ele>1295</ele>
        <time>2019-06-30T08:04:44.000Z</time>
      </trkpt>
      <trkpt lat="42.98518" lon="0.54137">
        <ele>1296</ele>
        <time>2019-06-30T08:04:46.000Z</time>
      </trkpt>
      <trkpt lat="42.98517" lon="0.54138">
        <ele>1296</ele>
        <time>2019-06-30T08:04:48.000Z</time>
      </trkpt>
      <trkpt lat="42.98516" lon="0.54139">
        <ele>1296</ele>
        <time>2019-06-30T08:04:50.000Z</time>
      </trkpt>
      <trkpt lat="42.98515" lon="0.5414">
        <ele>1296</ele>
        <time>2019-06-30T08:04:52.000Z</time>
      </trkpt>
      <trkpt lat="42.98514" lon="0.5414">
        <ele>1297</ele>
        <time>2019-06-30T08:04:54.000Z</time>
      </trkpt>
      <trkpt lat="42.98513" lon="0.54141">
        <ele>1297</ele>
        <time>2019-06-30T08:04:56.000Z</time>
      </trkpt>
      <trkpt lat="42.98513" lon="0.54141">
        <ele>1297</ele>
        <time>2019-06-30T08:04:58.000Z</time>
      </trkpt>
      <trkpt lat="42.98512" lon="0.54141">
        <ele>1297</ele>
        <time>2019-06-30T08:05:00.000Z</time>
      </trkpt>
      <trkpt lat="42.98511" lon="0.54141">
        <ele>1298</ele>
        <time>2019-06-30T08:05:02.000Z</time>
      </trkpt>
      <trkpt lat="42.98511" lon="0.54138">
        <ele>1299</ele>
        <time>2019-06-30T08:05:04.000Z</time>
      </trkpt>
      <trkpt lat="42.98511" lon="0.54134">
        <ele>1300</ele>
        <time>2019-06-30T08:05:06.000Z</time>
      </trkpt>
      <trkpt lat="42.98511" lon="0.54131">
        <ele>1301</ele>
        <time>2019-06-30T08:05:08.000Z</time>
      </trkpt>
      <trkpt lat="42.98512" lon="0.54129">
        <ele>1301</ele>
        <time>2019-06-30T08:05:10.000Z</time>
      </trkpt>
      <trkpt lat="42.98512" lon="0.54127">
        <ele>1302</ele>
        <time>2019-06-30T08:05:12.000Z</time>
      </trkpt>
      <trkpt lat="42.98513" lon="0.54125">
        <ele>1302</ele>
        <time>2019-06-30T08:05:14.000Z</time>
      </trkpt>
      <trkpt lat="42.98514" lon="0.54124">
        <ele>1302</ele>
        <time>2019-06-30T08:05:16.000Z</time>
      </trkpt>
      <trkpt lat="42.98515" lon="0.54122">
        <ele>1302</ele>
        <time>2019-06-30T08:05:18.000Z</time>
      </trkpt>
      <trkpt lat="42.98515" lon="0.54121">
        <ele>1303</ele>
        <time>2019-06-30T08:05:20.000Z</time>
      </trkpt>
      <trkpt lat="42.98516" lon="0.54118">
        <ele>1303</ele>
        <time>2019-06-30T08:05:22.000Z</time>
      </trkpt>
      <trkpt lat="42.98516" lon="0.54116">
        <ele>1304</ele>
        <time>2019-06-30T08:05:24.000Z</time>
      </trkpt>
      <trkpt lat="42.98517" lon="0.54115">
        <ele>1304</ele>
        <time>2019-06-30T08:05:26.000Z</time>
      </trkpt>
      <trkpt lat="42.98518" lon="0.54113">
        <ele>1304</ele>
        <time>2019-06-30T08:05:28.000Z</time>
      </trkpt>
      <trkpt lat="42.98518" lon="0.54111">
        <ele>1305</ele>
        <time>2019-06-30T08:05:30.000Z</time>
      </trkpt>
      <trkpt lat="42.98518" lon="0.54109">
        <ele>1305</ele>
        <time>2019-06-30T08:05:32.000Z</time>
      </trkpt>
      <trkpt lat="42.98518" lon="0.54108">
        <ele>1306</ele>
        <time>2019-06-30T08:05:34.000Z</time>
      </trkpt>
      <trkpt lat="42.98519" lon="0.54106">
        <ele>1306</ele>
        <time>2019-06-30T08:05:36.000Z</time>
      </trkpt>
      <trkpt lat="42.9852" lon="0.54104">
        <ele>1306</ele>
        <time>2019-06-30T08:05:38.000Z</time>
      </trkpt>
      <trkpt lat="42.98521" lon="0.54102">
        <ele>1307</ele>
        <time>2019-06-30T08:05:40.000Z</time>
      </trkpt>
      <trkpt lat="42.98521" lon="0.54101">
        <ele>1307</ele>
        <time>2019-06-30T08:05:42.000Z</time>
      </trkpt>
      <trkpt lat="42.98522" lon="0.54099">
        <ele>1308</ele>
        <time>2019-06-30T08:05:44.000Z</time>
      </trkpt>
      <trkpt lat="42.98523" lon="0.54097">
        <ele>1308</ele>
        <time>2019-06-30T08:05:46.000Z</time>
      </trkpt>
      <trkpt lat="42.98523" lon="0.54094">
        <ele>1309</ele>
        <time>2019-06-30T08:05:48.000Z</time>
      </trkpt>
      <trkpt lat="42.98524" lon="0.54092">
        <ele>1309</ele>
        <time>2019-06-30T08:05:50.000Z</time>
      </trkpt>
      <trkpt lat="42.98525" lon="0.5409">
        <ele>1310</ele>
        <time>2019-06-30T08:05:52.000Z</time>
      </trkpt>
      <trkpt lat="42.98526" lon="0.54087">
        <ele>1310</ele>
        <time>2019-06-30T08:05:54.000Z</time>
      </trkpt>
      <trkpt lat="42.98526" lon="0.54086">
        <ele>1311</ele>
        <time>2019-06-30T08:05:56.000Z</time>
      </trkpt>
      <trkpt lat="42.98526" lon="0.54085">
        <ele>1311</ele>
        <time>2019-06-30T08:05:58.000Z</time>
      </trkpt>
      <trkpt lat="42.98526" lon="0.54083">
        <ele>1312</ele>
        <time>2019-06-30T08:06:00.000Z</time>
      </trkpt>
      <trkpt lat="42.98526" lon="0.54082">
        <ele>1312</ele>
        <time>2019-06-30T08:06:02.000Z</time>
      </trkpt>
      <trkpt lat="42.98526" lon="0.54081">
        <ele>1312</ele>
        <time>2019-06-30T08:06:04.000Z</time>
      </trkpt>
      <trkpt lat="42.98526" lon="0.54081">
        <ele>1312</ele>
        <time>2019-06-30T08:06:06.000Z</time>
      </trkpt>
      <trkpt lat="42.98527" lon="0.54081">
        <ele>1312</ele>
        <time>2019-06-30T08:06:08.000Z</time>
      </trkpt>
      <trkpt lat="42.98526" lon="0.5408">
        <ele>1312</ele>
        <time>2019-06-30T08:06:10.000Z</time>
      </trkpt>
      <trkpt lat="42.98526" lon="0.5408">
        <ele>1313</ele>
        <time>2019-06-30T08:06:12.000Z</time>
      </trkpt>
      <trkpt lat="42.98526" lon="0.5408">
        <ele>1313</ele>
        <time>2019-06-30T08:06:14.000Z</time>
      </trkpt>
      <trkpt lat="42.98526" lon="0.5408">
        <ele>1313</ele>
        <time>2019-06-30T08:06:16.000Z</time>
      </trkpt>
      <trkpt lat="42.98526" lon="0.5408">
        <ele>1313</ele>
        <time>2019-06-30T08:06:18.000Z</time>
      </trkpt>
      <trkpt lat="42.98526" lon="0.5408">
        <ele>1313</ele>
        <time>2019-06-30T08:06:20.000Z</time>
      </trkpt>
      <trkpt lat="42.98526" lon="0.5408">
        <ele>1313</ele>
        <time>2019-06-30T08:06:22.000Z</time>
      </trkpt>
      <trkpt lat="42.98525" lon="0.5408">
        <ele>1313</ele>
        <time>2019-06-30T08:06:24.000Z</time>
      </trkpt>
      <trkpt lat="42.98525" lon="0.5408">
        <ele>1313</ele>
        <time>2019-06-30T08:06:26.000Z</time>
      </trkpt>
      <trkpt lat="42.98525" lon="0.5408">
        <ele>1313</ele>
        <time>2019-06-30T08:06:28.000Z</time>
      </trkpt>
      <trkpt lat="42.98525" lon="0.5408">
        <ele>1313</ele>
        <time>2019-06-30T08:06:30.000Z</time>
      </trkpt>
      <trkpt lat="42.98526" lon="0.5408">
        <ele>1313</ele>
        <time>2019-06-30T08:06:32.000Z</time>
      </trkpt>
      <trkpt lat="42.98526" lon="0.5408">
        <ele>1313</ele>
        <time>2019-06-30T08:06:34.000Z</time>
      </trkpt>
      <trkpt lat="42.98527" lon="0.5408">
        <ele>1312</ele>
        <time>2019-06-30T08:06:36.000Z</time>
      </trkpt>
      <trkpt lat="42.98527" lon="0.5408">
        <ele>1312</ele>
        <time>2019-06-30T08:06:38.000Z</time>
      </trkpt>
      <trkpt lat="42.98527" lon="0.54082">
        <ele>1312</ele>
        <time>2019-06-30T08:06:40.000Z</time>
      </trkpt>
      <trkpt lat="42.98527" lon="0.54082">
        <ele>1312</ele>
        <time>2019-06-30T08:06:42.000Z</time>
      </trkpt>
      <trkpt lat="42.98527" lon="0.54083">
        <ele>1311</ele>
        <time>2019-06-30T08:06:44.000Z</time>
      </trkpt>
      <trkpt lat="42.98528" lon="0.54083">
        <ele>1311</ele>
        <time>2019-06-30T08:06:46.000Z</time>
      </trkpt>
      <trkpt lat="42.98527" lon="0.54082">
        <ele>1311</ele>
        <time>2019-06-30T08:06:48.000Z</time>
      </trkpt>
      <trkpt lat="42.98527" lon="0.54082">
        <ele>1312</ele>
        <time>2019-06-30T08:06:50.000Z</time>
      </trkpt>
      <trkpt lat="42.98527" lon="0.54082">
        <ele>1312</ele>
        <time>2019-06-30T08:06:52.000Z</time>
      </trkpt>
      <trkpt lat="42.98527" lon="0.54081">
        <ele>1312</ele>
        <time>2019-06-30T08:06:54.000Z</time>
      </trkpt>
      <trkpt lat="42.98529" lon="0.54081">
        <ele>1311</ele>
        <time>2019-06-30T08:06:56.000Z</time>
      </trkpt>
      <trkpt lat="42.9853" lon="0.5408">
        <ele>1311</ele>
        <time>2019-06-30T08:06:58.000Z</time>
      </trkpt>
      <trkpt lat="42.98531" lon="0.5408">
        <ele>1311</ele>
        <time>2019-06-30T08:07:00.000Z</time>
      </trkpt>
      <trkpt lat="42.98532" lon="0.5408">
        <ele>1310</ele>
        <time>2019-06-30T08:07:02.000Z</time>
      </trkpt>
      <trkpt lat="42.98533" lon="0.5408">
        <ele>1310</ele>
        <time>2019-06-30T08:07:04.000Z</time>
      </trkpt>
      <trkpt lat="42.98533" lon="0.5408">
        <ele>1309</ele>
        <time>2019-06-30T08:07:06.000Z</time>
      </trkpt>
      <trkpt lat="42.98531" lon="0.54087">
        <ele>1308</ele>
        <time>2019-06-30T08:07:08.000Z</time>
      </trkpt>
      <trkpt lat="42.9853" lon="0.54084">
        <ele>1309</ele>
        <time>2019-06-30T08:07:10.000Z</time>
      </trkpt>
      <trkpt lat="42.98531" lon="0.54077">
        <ele>1312</ele>
        <time>2019-06-30T08:07:12.000Z</time>
      </trkpt>
      <trkpt lat="42.9853" lon="0.54077">
        <ele>1312</ele>
        <time>2019-06-30T08:07:14.000Z</time>
      </trkpt>
      <trkpt lat="42.98529" lon="0.54076">
        <ele>1313</ele>
        <time>2019-06-30T08:07:16.000Z</time>
      </trkpt>
      <trkpt lat="42.98528" lon="0.54075">
        <ele>1314</ele>
        <time>2019-06-30T08:07:18.000Z</time>
      </trkpt>
      <trkpt lat="42.98528" lon="0.54072">
        <ele>1315</ele>
        <time>2019-06-30T08:07:20.000Z</time>
      </trkpt>
      <trkpt lat="42.98529" lon="0.5407">
        <ele>1315</ele>
        <time>2019-06-30T08:07:22.000Z</time>
      </trkpt>
      <trkpt lat="42.9853" lon="0.54069">
        <ele>1315</ele>
        <time>2019-06-30T08:07:24.000Z</time>
      </trkpt>
      <trkpt lat="42.98531" lon="0.54067">
        <ele>1315</ele>
        <time>2019-06-30T08:07:26.000Z</time>
      </trkpt>
      <trkpt lat="42.98532" lon="0.54065">
        <ele>1314</ele>
        <time>2019-06-30T08:07:28.000Z</time>
      </trkpt>
      <trkpt lat="42.98533" lon="0.54063">
        <ele>1314</ele>
        <time>2019-06-30T08:07:30.000Z</time>
      </trkpt>
      <trkpt lat="42.98534" lon="0.54062">
        <ele>1314</ele>
        <time>2019-06-30T08:07:32.000Z</time>
      </trkpt>
      <trkpt lat="42.98535" lon="0.5406">
        <ele>1314</ele>
        <time>2019-06-30T08:07:34.000Z</time>
      </trkpt>
      <trkpt lat="42.98535" lon="0.54059">
        <ele>1315</ele>
        <time>2019-06-30T08:07:36.000Z</time>
      </trkpt>
      <trkpt lat="42.98535" lon="0.54058">
        <ele>1315</ele>
        <time>2019-06-30T08:07:38.000Z</time>
      </trkpt>
      <trkpt lat="42.98535" lon="0.54058">
        <ele>1315</ele>
        <time>2019-06-30T08:07:40.000Z</time>
      </trkpt>
      <trkpt lat="42.98535" lon="0.54056">
        <ele>1315</ele>
        <time>2019-06-30T08:07:42.000Z</time>
      </trkpt>
      <trkpt lat="42.98534" lon="0.54056">
        <ele>1316</ele>
        <time>2019-06-30T08:07:44.000Z</time>
      </trkpt>
      <trkpt lat="42.98534" lon="0.54055">
        <ele>1316</ele>
        <time>2019-06-30T08:07:46.000Z</time>
      </trkpt>
      <trkpt lat="42.98534" lon="0.54053">
        <ele>1316</ele>
        <time>2019-06-30T08:07:48.000Z</time>
      </trkpt>
      <trkpt lat="42.98535" lon="0.54051">
        <ele>1317</ele>
        <time>2019-06-30T08:07:50.000Z</time>
      </trkpt>
      <trkpt lat="42.98535" lon="0.5405">
        <ele>1316</ele>
        <time>2019-06-30T08:07:52.000Z</time>
      </trkpt>
      <trkpt lat="42.98536" lon="0.54049">
        <ele>1317</ele>
        <time>2019-06-30T08:07:54.000Z</time>
      </trkpt>
      <trkpt lat="42.98537" lon="0.54048">
        <ele>1317</ele>
        <time>2019-06-30T08:07:56.000Z</time>
      </trkpt>
      <trkpt lat="42.98537" lon="0.54046">
        <ele>1317</ele>
        <time>2019-06-30T08:07:58.000Z</time>
      </trkpt>
      <trkpt lat="42.98537" lon="0.54045">
        <ele>1317</ele>
        <time>2019-06-30T08:08:00.000Z</time>
      </trkpt>
      <trkpt lat="42.98537" lon="0.54044">
        <ele>1318</ele>
        <time>2019-06-30T08:08:02.000Z</time>
      </trkpt>
      <trkpt lat="42.98537" lon="0.54042">
        <ele>1318</ele>
        <time>2019-06-30T08:08:04.000Z</time>
      </trkpt>
      <trkpt lat="42.98537" lon="0.54041">
        <ele>1318</ele>
        <time>2019-06-30T08:08:06.000Z</time>
      </trkpt>
      <trkpt lat="42.98538" lon="0.54039">
        <ele>1319</ele>
        <time>2019-06-30T08:08:08.000Z</time>
      </trkpt>
      <trkpt lat="42.98539" lon="0.54036">
        <ele>1319</ele>
        <time>2019-06-30T08:08:10.000Z</time>
      </trkpt>
      <trkpt lat="42.98539" lon="0.54035">
        <ele>1319</ele>
        <time>2019-06-30T08:08:12.000Z</time>
      </trkpt>
      <trkpt lat="42.98539" lon="0.54034">
        <ele>1319</ele>
        <time>2019-06-30T08:08:14.000Z</time>
      </trkpt>
      <trkpt lat="42.9854" lon="0.54033">
        <ele>1319</ele>
        <time>2019-06-30T08:08:16.000Z</time>
      </trkpt>
      <trkpt lat="42.9854" lon="0.54032">
        <ele>1320</ele>
        <time>2019-06-30T08:08:18.000Z</time>
      </trkpt>
      <trkpt lat="42.98541" lon="0.54031">
        <ele>1320</ele>
        <time>2019-06-30T08:08:20.000Z</time>
      </trkpt>
      <trkpt lat="42.98541" lon="0.54029">
        <ele>1320</ele>
        <time>2019-06-30T08:08:22.000Z</time>
      </trkpt>
      <trkpt lat="42.98541" lon="0.54027">
        <ele>1321</ele>
        <time>2019-06-30T08:08:24.000Z</time>
      </trkpt>
      <trkpt lat="42.98542" lon="0.54026">
        <ele>1321</ele>
        <time>2019-06-30T08:08:26.000Z</time>
      </trkpt>
      <trkpt lat="42.98542" lon="0.54024">
        <ele>1321</ele>
        <time>2019-06-30T08:08:28.000Z</time>
      </trkpt>
      <trkpt lat="42.98543" lon="0.54023">
        <ele>1321</ele>
        <time>2019-06-30T08:08:30.000Z</time>
      </trkpt>
      <trkpt lat="42.98543" lon="0.5402">
        <ele>1322</ele>
        <time>2019-06-30T08:08:32.000Z</time>
      </trkpt>
      <trkpt lat="42.98545" lon="0.54018">
        <ele>1322</ele>
        <time>2019-06-30T08:08:34.000Z</time>
      </trkpt>
      <trkpt lat="42.98545" lon="0.54016">
        <ele>1322</ele>
        <time>2019-06-30T08:08:36.000Z</time>
      </trkpt>
      <trkpt lat="42.98546" lon="0.54014">
        <ele>1322</ele>
        <time>2019-06-30T08:08:38.000Z</time>
      </trkpt>
      <trkpt lat="42.98546" lon="0.54011">
        <ele>1323</ele>
        <time>2019-06-30T08:08:40.000Z</time>
      </trkpt>
      <trkpt lat="42.98546" lon="0.5401">
        <ele>1323</ele>
        <time>2019-06-30T08:08:42.000Z</time>
      </trkpt>
      <trkpt lat="42.98546" lon="0.54007">
        <ele>1325</ele>
        <time>2019-06-30T08:08:44.000Z</time>
      </trkpt>
      <trkpt lat="42.98545" lon="0.54005">
        <ele>1325</ele>
        <time>2019-06-30T08:08:46.000Z</time>
      </trkpt>
      <trkpt lat="42.98545" lon="0.54004">
        <ele>1326</ele>
        <time>2019-06-30T08:08:48.000Z</time>
      </trkpt>
      <trkpt lat="42.98545" lon="0.54003">
        <ele>1326</ele>
        <time>2019-06-30T08:08:50.000Z</time>
      </trkpt>
      <trkpt lat="42.98545" lon="0.54001">
        <ele>1327</ele>
        <time>2019-06-30T08:08:52.000Z</time>
      </trkpt>
      <trkpt lat="42.98545" lon="0.53999">
        <ele>1327</ele>
        <time>2019-06-30T08:08:54.000Z</time>
      </trkpt>
      <trkpt lat="42.98546" lon="0.53997">
        <ele>1327</ele>
        <time>2019-06-30T08:08:56.000Z</time>
      </trkpt>
      <trkpt lat="42.98546" lon="0.53995">
        <ele>1328</ele>
        <time>2019-06-30T08:08:58.000Z</time>
      </trkpt>
      <trkpt lat="42.98546" lon="0.53994">
        <ele>1328</ele>
        <time>2019-06-30T08:09:00.000Z</time>
      </trkpt>
      <trkpt lat="42.98547" lon="0.53991">
        <ele>1328</ele>
        <time>2019-06-30T08:09:02.000Z</time>
      </trkpt>
      <trkpt lat="42.98547" lon="0.53988">
        <ele>1329</ele>
        <time>2019-06-30T08:09:04.000Z</time>
      </trkpt>
      <trkpt lat="42.98548" lon="0.53986">
        <ele>1329</ele>
        <time>2019-06-30T08:09:06.000Z</time>
      </trkpt>
      <trkpt lat="42.98548" lon="0.53983">
        <ele>1330</ele>
        <time>2019-06-30T08:09:08.000Z</time>
      </trkpt>
      <trkpt lat="42.98549" lon="0.5398">
        <ele>1330</ele>
        <time>2019-06-30T08:09:10.000Z</time>
      </trkpt>
      <trkpt lat="42.9855" lon="0.53978">
        <ele>1331</ele>
        <time>2019-06-30T08:09:12.000Z</time>
      </trkpt>
      <trkpt lat="42.9855" lon="0.53977">
        <ele>1331</ele>
        <time>2019-06-30T08:09:14.000Z</time>
      </trkpt>
      <trkpt lat="42.98549" lon="0.53975">
        <ele>1332</ele>
        <time>2019-06-30T08:09:16.000Z</time>
      </trkpt>
      <trkpt lat="42.98549" lon="0.53973">
        <ele>1332</ele>
        <time>2019-06-30T08:09:18.000Z</time>
      </trkpt>
      <trkpt lat="42.98549" lon="0.53971">
        <ele>1333</ele>
        <time>2019-06-30T08:09:20.000Z</time>
      </trkpt>
      <trkpt lat="42.9855" lon="0.5397">
        <ele>1333</ele>
        <time>2019-06-30T08:09:22.000Z</time>
      </trkpt>
      <trkpt lat="42.9855" lon="0.53968">
        <ele>1333</ele>
        <time>2019-06-30T08:09:24.000Z</time>
      </trkpt>
      <trkpt lat="42.98551" lon="0.53966">
        <ele>1333</ele>
        <time>2019-06-30T08:09:26.000Z</time>
      </trkpt>
      <trkpt lat="42.98552" lon="0.53964">
        <ele>1333</ele>
        <time>2019-06-30T08:09:28.000Z</time>
      </trkpt>
      <trkpt lat="42.98552" lon="0.53961">
        <ele>1334</ele>
        <time>2019-06-30T08:09:30.000Z</time>
      </trkpt>
      <trkpt lat="42.98552" lon="0.53959">
        <ele>1334</ele>
        <time>2019-06-30T08:09:32.000Z</time>
      </trkpt>
      <trkpt lat="42.98552" lon="0.53958">
        <ele>1335</ele>
        <time>2019-06-30T08:09:34.000Z</time>
      </trkpt>
      <trkpt lat="42.98552" lon="0.53956">
        <ele>1335</ele>
        <time>2019-06-30T08:09:36.000Z</time>
      </trkpt>
      <trkpt lat="42.98551" lon="0.53954">
        <ele>1336</ele>
        <time>2019-06-30T08:09:38.000Z</time>
      </trkpt>
      <trkpt lat="42.98551" lon="0.53952">
        <ele>1336</ele>
        <time>2019-06-30T08:09:40.000Z</time>
      </trkpt>
      <trkpt lat="42.98552" lon="0.5395">
        <ele>1336</ele>
        <time>2019-06-30T08:09:42.000Z</time>
      </trkpt>
      <trkpt lat="42.98553" lon="0.53948">
        <ele>1336</ele>
        <time>2019-06-30T08:09:44.000Z</time>
      </trkpt>
      <trkpt lat="42.98553" lon="0.53946">
        <ele>1336</ele>
        <time>2019-06-30T08:09:46.000Z</time>
      </trkpt>
      <trkpt lat="42.98554" lon="0.53944">
        <ele>1337</ele>
        <time>2019-06-30T08:09:48.000Z</time>
      </trkpt>
      <trkpt lat="42.98554" lon="0.53942">
        <ele>1337</ele>
        <time>2019-06-30T08:09:50.000Z</time>
      </trkpt>
      <trkpt lat="42.98555" lon="0.53941">
        <ele>1337</ele>
        <time>2019-06-30T08:09:52.000Z</time>
      </trkpt>
      <trkpt lat="42.98555" lon="0.53939">
        <ele>1337</ele>
        <time>2019-06-30T08:09:54.000Z</time>
      </trkpt>
      <trkpt lat="42.98555" lon="0.53936">
        <ele>1338</ele>
        <time>2019-06-30T08:09:56.000Z</time>
      </trkpt>
      <trkpt lat="42.98556" lon="0.53935">
        <ele>1338</ele>
        <time>2019-06-30T08:09:58.000Z</time>
      </trkpt>
      <trkpt lat="42.98556" lon="0.53933">
        <ele>1338</ele>
        <time>2019-06-30T08:10:00.000Z</time>
      </trkpt>
      <trkpt lat="42.98557" lon="0.53931">
        <ele>1338</ele>
        <time>2019-06-30T08:10:02.000Z</time>
      </trkpt>
      <trkpt lat="42.98558" lon="0.5393">
        <ele>1338</ele>
        <time>2019-06-30T08:10:04.000Z</time>
      </trkpt>
      <trkpt lat="42.98558" lon="0.53928">
        <ele>1338</ele>
        <time>2019-06-30T08:10:06.000Z</time>
      </trkpt>
      <trkpt lat="42.98558" lon="0.53927">
        <ele>1338</ele>
        <time>2019-06-30T08:10:08.000Z</time>
      </trkpt>
      <trkpt lat="42.98559" lon="0.53926">
        <ele>1338</ele>
        <time>2019-06-30T08:10:10.000Z</time>
      </trkpt>
      <trkpt lat="42.9856" lon="0.53924">
        <ele>1338</ele>
        <time>2019-06-30T08:10:12.000Z</time>
      </trkpt>
      <trkpt lat="42.9856" lon="0.53923">
        <ele>1338</ele>
        <time>2019-06-30T08:10:14.000Z</time>
      </trkpt>
      <trkpt lat="42.98561" lon="0.53921">
        <ele>1337</ele>
        <time>2019-06-30T08:10:16.000Z</time>
      </trkpt>
      <trkpt lat="42.98561" lon="0.5392">
        <ele>1338</ele>
        <time>2019-06-30T08:10:18.000Z</time>
      </trkpt>
      <trkpt lat="42.98562" lon="0.53918">
        <ele>1338</ele>
        <time>2019-06-30T08:10:20.000Z</time>
      </trkpt>
      <trkpt lat="42.98562" lon="0.53916">
        <ele>1338</ele>
        <time>2019-06-30T08:10:22.000Z</time>
      </trkpt>
      <trkpt lat="42.98563" lon="0.53914">
        <ele>1338</ele>
        <time>2019-06-30T08:10:24.000Z</time>
      </trkpt>
      <trkpt lat="42.98563" lon="0.53912">
        <ele>1338</ele>
        <time>2019-06-30T08:10:26.000Z</time>
      </trkpt>
      <trkpt lat="42.98563" lon="0.5391">
        <ele>1338</ele>
        <time>2019-06-30T08:10:28.000Z</time>
      </trkpt>
      <trkpt lat="42.98563" lon="0.53908">
        <ele>1339</ele>
        <time>2019-06-30T08:10:30.000Z</time>
      </trkpt>
      <trkpt lat="42.98563" lon="0.53907">
        <ele>1339</ele>
        <time>2019-06-30T08:10:32.000Z</time>
      </trkpt>
      <trkpt lat="42.98564" lon="0.53905">
        <ele>1339</ele>
        <time>2019-06-30T08:10:34.000Z</time>
      </trkpt>
      <trkpt lat="42.98563" lon="0.53903">
        <ele>1340</ele>
        <time>2019-06-30T08:10:36.000Z</time>
      </trkpt>
      <trkpt lat="42.98564" lon="0.53901">
        <ele>1340</ele>
        <time>2019-06-30T08:10:38.000Z</time>
      </trkpt>
      <trkpt lat="42.98564" lon="0.53898">
        <ele>1341</ele>
        <time>2019-06-30T08:10:40.000Z</time>
      </trkpt>
      <trkpt lat="42.98565" lon="0.53896">
        <ele>1340</ele>
        <time>2019-06-30T08:10:42.000Z</time>
      </trkpt>
      <trkpt lat="42.98565" lon="0.53895">
        <ele>1340</ele>
        <time>2019-06-30T08:10:44.000Z</time>
      </trkpt>
      <trkpt lat="42.98566" lon="0.53893">
        <ele>1340</ele>
        <time>2019-06-30T08:10:46.000Z</time>
      </trkpt>
      <trkpt lat="42.98567" lon="0.53891">
        <ele>1340</ele>
        <time>2019-06-30T08:10:48.000Z</time>
      </trkpt>
      <trkpt lat="42.98567" lon="0.53889">
        <ele>1340</ele>
        <time>2019-06-30T08:10:50.000Z</time>
      </trkpt>
      <trkpt lat="42.98568" lon="0.53888">
        <ele>1340</ele>
        <time>2019-06-30T08:10:52.000Z</time>
      </trkpt>
      <trkpt lat="42.98569" lon="0.53886">
        <ele>1340</ele>
        <time>2019-06-30T08:10:54.000Z</time>
      </trkpt>
      <trkpt lat="42.9857" lon="0.53883">
        <ele>1340</ele>
        <time>2019-06-30T08:10:56.000Z</time>
      </trkpt>
      <trkpt lat="42.9857" lon="0.53881">
        <ele>1340</ele>
        <time>2019-06-30T08:10:58.000Z</time>
      </trkpt>
      <trkpt lat="42.9857" lon="0.5388">
        <ele>1341</ele>
        <time>2019-06-30T08:11:00.000Z</time>
      </trkpt>
      <trkpt lat="42.98571" lon="0.53878">
        <ele>1340</ele>
        <time>2019-06-30T08:11:02.000Z</time>
      </trkpt>
      <trkpt lat="42.98572" lon="0.53876">
        <ele>1340</ele>
        <time>2019-06-30T08:11:04.000Z</time>
      </trkpt>
      <trkpt lat="42.98573" lon="0.53874">
        <ele>1340</ele>
        <time>2019-06-30T08:11:06.000Z</time>
      </trkpt>
      <trkpt lat="42.98574" lon="0.53872">
        <ele>1339</ele>
        <time>2019-06-30T08:11:08.000Z</time>
      </trkpt>
      <trkpt lat="42.98576" lon="0.5387">
        <ele>1339</ele>
        <time>2019-06-30T08:11:10.000Z</time>
      </trkpt>
      <trkpt lat="42.98576" lon="0.53868">
        <ele>1339</ele>
        <time>2019-06-30T08:11:12.000Z</time>
      </trkpt>
      <trkpt lat="42.98577" lon="0.53866">
        <ele>1339</ele>
        <time>2019-06-30T08:11:14.000Z</time>
      </trkpt>
      <trkpt lat="42.98578" lon="0.53864">
        <ele>1339</ele>
        <time>2019-06-30T08:11:16.000Z</time>
      </trkpt>
      <trkpt lat="42.98578" lon="0.53862">
        <ele>1340</ele>
        <time>2019-06-30T08:11:18.000Z</time>
      </trkpt>
      <trkpt lat="42.98578" lon="0.5386">
        <ele>1340</ele>
        <time>2019-06-30T08:11:20.000Z</time>
      </trkpt>
      <trkpt lat="42.98579" lon="0.53858">
        <ele>1340</ele>
        <time>2019-06-30T08:11:22.000Z</time>
      </trkpt>
      <trkpt lat="42.9858" lon="0.53855">
        <ele>1341</ele>
        <time>2019-06-30T08:11:24.000Z</time>
      </trkpt>
      <trkpt lat="42.9858" lon="0.53853">
        <ele>1341</ele>
        <time>2019-06-30T08:11:26.000Z</time>
      </trkpt>
      <trkpt lat="42.9858" lon="0.53851">
        <ele>1341</ele>
        <time>2019-06-30T08:11:28.000Z</time>
      </trkpt>
      <trkpt lat="42.9858" lon="0.53849">
        <ele>1342</ele>
        <time>2019-06-30T08:11:30.000Z</time>
      </trkpt>
      <trkpt lat="42.9858" lon="0.53847">
        <ele>1342</ele>
        <time>2019-06-30T08:11:32.000Z</time>
      </trkpt>
      <trkpt lat="42.98582" lon="0.53845">
        <ele>1342</ele>
        <time>2019-06-30T08:11:34.000Z</time>
      </trkpt>
      <trkpt lat="42.98582" lon="0.53843">
        <ele>1343</ele>
        <time>2019-06-30T08:11:36.000Z</time>
      </trkpt>
      <trkpt lat="42.98583" lon="0.53841">
        <ele>1343</ele>
        <time>2019-06-30T08:11:38.000Z</time>
      </trkpt>
      <trkpt lat="42.98584" lon="0.53839">
        <ele>1343</ele>
        <time>2019-06-30T08:11:40.000Z</time>
      </trkpt>
      <trkpt lat="42.98585" lon="0.53838">
        <ele>1343</ele>
        <time>2019-06-30T08:11:42.000Z</time>
      </trkpt>
      <trkpt lat="42.98585" lon="0.53836">
        <ele>1343</ele>
        <time>2019-06-30T08:11:44.000Z</time>
      </trkpt>
      <trkpt lat="42.98586" lon="0.53834">
        <ele>1343</ele>
        <time>2019-06-30T08:11:46.000Z</time>
      </trkpt>
      <trkpt lat="42.98587" lon="0.53833">
        <ele>1342</ele>
        <time>2019-06-30T08:11:48.000Z</time>
      </trkpt>
      <trkpt lat="42.98589" lon="0.53831">
        <ele>1342</ele>
        <time>2019-06-30T08:11:50.000Z</time>
      </trkpt>
      <trkpt lat="42.9859" lon="0.5383">
        <ele>1342</ele>
        <time>2019-06-30T08:11:52.000Z</time>
      </trkpt>
      <trkpt lat="42.98591" lon="0.53828">
        <ele>1341</ele>
        <time>2019-06-30T08:11:54.000Z</time>
      </trkpt>
      <trkpt lat="42.98592" lon="0.53827">
        <ele>1341</ele>
        <time>2019-06-30T08:11:56.000Z</time>
      </trkpt>
      <trkpt lat="42.98593" lon="0.53825">
        <ele>1341</ele>
        <time>2019-06-30T08:11:58.000Z</time>
      </trkpt>
      <trkpt lat="42.98594" lon="0.53824">
        <ele>1341</ele>
        <time>2019-06-30T08:12:00.000Z</time>
      </trkpt>
      <trkpt lat="42.98594" lon="0.53823">
        <ele>1341</ele>
        <time>2019-06-30T08:12:02.000Z</time>
      </trkpt>
      <trkpt lat="42.98594" lon="0.53821">
        <ele>1342</ele>
        <time>2019-06-30T08:12:04.000Z</time>
      </trkpt>
      <trkpt lat="42.98595" lon="0.53819">
        <ele>1342</ele>
        <time>2019-06-30T08:12:06.000Z</time>
      </trkpt>
      <trkpt lat="42.98596" lon="0.53818">
        <ele>1342</ele>
        <time>2019-06-30T08:12:08.000Z</time>
      </trkpt>
      <trkpt lat="42.98596" lon="0.53816">
        <ele>1342</ele>
        <time>2019-06-30T08:12:10.000Z</time>
      </trkpt>
      <trkpt lat="42.98596" lon="0.53814">
        <ele>1342</ele>
        <time>2019-06-30T08:12:12.000Z</time>
      </trkpt>
      <trkpt lat="42.98597" lon="0.53813">
        <ele>1342</ele>
        <time>2019-06-30T08:12:14.000Z</time>
      </trkpt>
      <trkpt lat="42.98597" lon="0.53811">
        <ele>1343</ele>
        <time>2019-06-30T08:12:16.000Z</time>
      </trkpt>
      <trkpt lat="42.98597" lon="0.53809">
        <ele>1343</ele>
        <time>2019-06-30T08:12:18.000Z</time>
      </trkpt>
      <trkpt lat="42.98597" lon="0.53808">
        <ele>1343</ele>
        <time>2019-06-30T08:12:20.000Z</time>
      </trkpt>
      <trkpt lat="42.98597" lon="0.53806">
        <ele>1344</ele>
        <time>2019-06-30T08:12:22.000Z</time>
      </trkpt>
      <trkpt lat="42.98597" lon="0.53805">
        <ele>1344</ele>
        <time>2019-06-30T08:12:24.000Z</time>
      </trkpt>
      <trkpt lat="42.98597" lon="0.53803">
        <ele>1344</ele>
        <time>2019-06-30T08:12:26.000Z</time>
      </trkpt>
      <trkpt lat="42.98598" lon="0.53802">
        <ele>1344</ele>
        <time>2019-06-30T08:12:28.000Z</time>
      </trkpt>
      <trkpt lat="42.98598" lon="0.538">
        <ele>1344</ele>
        <time>2019-06-30T08:12:30.000Z</time>
      </trkpt>
      <trkpt lat="42.98599" lon="0.53798">
        <ele>1345</ele>
        <time>2019-06-30T08:12:32.000Z</time>
      </trkpt>
      <trkpt lat="42.98599" lon="0.53797">
        <ele>1345</ele>
        <time>2019-06-30T08:12:34.000Z</time>
      </trkpt>
      <trkpt lat="42.986" lon="0.53794">
        <ele>1344</ele>
        <time>2019-06-30T08:12:36.000Z</time>
      </trkpt>
      <trkpt lat="42.98601" lon="0.53793">
        <ele>1344</ele>
        <time>2019-06-30T08:12:38.000Z</time>
      </trkpt>
      <trkpt lat="42.98602" lon="0.53791">
        <ele>1344</ele>
        <time>2019-06-30T08:12:40.000Z</time>
      </trkpt>
      <trkpt lat="42.98602" lon="0.53789">
        <ele>1344</ele>
        <time>2019-06-30T08:12:42.000Z</time>
      </trkpt>
      <trkpt lat="42.98603" lon="0.53787">
        <ele>1344</ele>
        <time>2019-06-30T08:12:44.000Z</time>
      </trkpt>
      <trkpt lat="42.98603" lon="0.53785">
        <ele>1344</ele>
        <time>2019-06-30T08:12:46.000Z</time>
      </trkpt>
      <trkpt lat="42.98604" lon="0.53783">
        <ele>1344</ele>
        <time>2019-06-30T08:12:48.000Z</time>
      </trkpt>
      <trkpt lat="42.98603" lon="0.53781">
        <ele>1345</ele>
        <time>2019-06-30T08:12:50.000Z</time>
      </trkpt>
      <trkpt lat="42.98604" lon="0.5378">
        <ele>1345</ele>
        <time>2019-06-30T08:12:52.000Z</time>
      </trkpt>
      <trkpt lat="42.98604" lon="0.53777">
        <ele>1345</ele>
        <time>2019-06-30T08:12:54.000Z</time>
      </trkpt>
      <trkpt lat="42.98604" lon="0.53776">
        <ele>1346</ele>
        <time>2019-06-30T08:12:56.000Z</time>
      </trkpt>
      <trkpt lat="42.98604" lon="0.53774">
        <ele>1346</ele>
        <time>2019-06-30T08:12:58.000Z</time>
      </trkpt>
      <trkpt lat="42.98604" lon="0.53772">
        <ele>1346</ele>
        <time>2019-06-30T08:13:00.000Z</time>
      </trkpt>
      <trkpt lat="42.98604" lon="0.5377">
        <ele>1347</ele>
        <time>2019-06-30T08:13:02.000Z</time>
      </trkpt>
      <trkpt lat="42.98604" lon="0.53768">
        <ele>1347</ele>
        <time>2019-06-30T08:13:04.000Z</time>
      </trkpt>
      <trkpt lat="42.98605" lon="0.53765">
        <ele>1347</ele>
        <time>2019-06-30T08:13:06.000Z</time>
      </trkpt>
      <trkpt lat="42.98606" lon="0.53763">
        <ele>1347</ele>
        <time>2019-06-30T08:13:08.000Z</time>
      </trkpt>
      <trkpt lat="42.98606" lon="0.53761">
        <ele>1347</ele>
        <time>2019-06-30T08:13:10.000Z</time>
      </trkpt>
      <trkpt lat="42.98607" lon="0.53758">
        <ele>1348</ele>
        <time>2019-06-30T08:13:12.000Z</time>
      </trkpt>
      <trkpt lat="42.98606" lon="0.53756">
        <ele>1348</ele>
        <time>2019-06-30T08:13:14.000Z</time>
      </trkpt>
      <trkpt lat="42.98606" lon="0.53754">
        <ele>1349</ele>
        <time>2019-06-30T08:13:16.000Z</time>
      </trkpt>
      <trkpt lat="42.98608" lon="0.53751">
        <ele>1348</ele>
        <time>2019-06-30T08:13:18.000Z</time>
      </trkpt>
      <trkpt lat="42.98608" lon="0.53749">
        <ele>1348</ele>
        <time>2019-06-30T08:13:20.000Z</time>
      </trkpt>
      <trkpt lat="42.98609" lon="0.53746">
        <ele>1348</ele>
        <time>2019-06-30T08:13:22.000Z</time>
      </trkpt>
      <trkpt lat="42.9861" lon="0.53744">
        <ele>1348</ele>
        <time>2019-06-30T08:13:24.000Z</time>
      </trkpt>
      <trkpt lat="42.9861" lon="0.53742">
        <ele>1349</ele>
        <time>2019-06-30T08:13:26.000Z</time>
      </trkpt>
      <trkpt lat="42.9861" lon="0.5374">
        <ele>1349</ele>
        <time>2019-06-30T08:13:28.000Z</time>
      </trkpt>
      <trkpt lat="42.98611" lon="0.53738">
        <ele>1349</ele>
        <time>2019-06-30T08:13:30.000Z</time>
      </trkpt>
      <trkpt lat="42.98612" lon="0.53737">
        <ele>1349</ele>
        <time>2019-06-30T08:13:32.000Z</time>
      </trkpt>
      <trkpt lat="42.98613" lon="0.53735">
        <ele>1348</ele>
        <time>2019-06-30T08:13:34.000Z</time>
      </trkpt>
      <trkpt lat="42.98613" lon="0.53734">
        <ele>1348</ele>
        <time>2019-06-30T08:13:36.000Z</time>
      </trkpt>
      <trkpt lat="42.98614" lon="0.53732">
        <ele>1348</ele>
        <time>2019-06-30T08:13:38.000Z</time>
      </trkpt>
      <trkpt lat="42.98615" lon="0.5373">
        <ele>1348</ele>
        <time>2019-06-30T08:13:40.000Z</time>
      </trkpt>
      <trkpt lat="42.98615" lon="0.53728">
        <ele>1349</ele>
        <time>2019-06-30T08:13:42.000Z</time>
      </trkpt>
      <trkpt lat="42.98615" lon="0.53726">
        <ele>1349</ele>
        <time>2019-06-30T08:13:44.000Z</time>
      </trkpt>
      <trkpt lat="42.98615" lon="0.53724">
        <ele>1349</ele>
        <time>2019-06-30T08:13:46.000Z</time>
      </trkpt>
      <trkpt lat="42.98616" lon="0.53722">
        <ele>1350</ele>
        <time>2019-06-30T08:13:48.000Z</time>
      </trkpt>
      <trkpt lat="42.98615" lon="0.53719">
        <ele>1350</ele>
        <time>2019-06-30T08:13:50.000Z</time>
      </trkpt>
      <trkpt lat="42.98615" lon="0.53718">
        <ele>1351</ele>
        <time>2019-06-30T08:13:52.000Z</time>
      </trkpt>
      <trkpt lat="42.98615" lon="0.53715">
        <ele>1351</ele>
        <time>2019-06-30T08:13:54.000Z</time>
      </trkpt>
      <trkpt lat="42.98616" lon="0.53713">
        <ele>1351</ele>
        <time>2019-06-30T08:13:56.000Z</time>
      </trkpt>
      <trkpt lat="42.98616" lon="0.53711">
        <ele>1351</ele>
        <time>2019-06-30T08:13:58.000Z</time>
      </trkpt>
      <trkpt lat="42.98615" lon="0.53708">
        <ele>1352</ele>
        <time>2019-06-30T08:14:00.000Z</time>
      </trkpt>
      <trkpt lat="42.98615" lon="0.53706">
        <ele>1353</ele>
        <time>2019-06-30T08:14:02.000Z</time>
      </trkpt>
      <trkpt lat="42.98615" lon="0.53704">
        <ele>1353</ele>
        <time>2019-06-30T08:14:04.000Z</time>
      </trkpt>
      <trkpt lat="42.98615" lon="0.53702">
        <ele>1353</ele>
        <time>2019-06-30T08:14:06.000Z</time>
      </trkpt>
      <trkpt lat="42.98614" lon="0.537">
        <ele>1354</ele>
        <time>2019-06-30T08:14:08.000Z</time>
      </trkpt>
      <trkpt lat="42.98614" lon="0.53699">
        <ele>1354</ele>
        <time>2019-06-30T08:14:10.000Z</time>
      </trkpt>
      <trkpt lat="42.98614" lon="0.53697">
        <ele>1354</ele>
        <time>2019-06-30T08:14:12.000Z</time>
      </trkpt>
      <trkpt lat="42.98615" lon="0.53695">
        <ele>1354</ele>
        <time>2019-06-30T08:14:14.000Z</time>
      </trkpt>
      <trkpt lat="42.98615" lon="0.53693">
        <ele>1354</ele>
        <time>2019-06-30T08:14:16.000Z</time>
      </trkpt>
      <trkpt lat="42.98614" lon="0.53691">
        <ele>1355</ele>
        <time>2019-06-30T08:14:18.000Z</time>
      </trkpt>
      <trkpt lat="42.98615" lon="0.53689">
        <ele>1355</ele>
        <time>2019-06-30T08:14:20.000Z</time>
      </trkpt>
      <trkpt lat="42.98615" lon="0.53687">
        <ele>1355</ele>
        <time>2019-06-30T08:14:22.000Z</time>
      </trkpt>
      <trkpt lat="42.98616" lon="0.53685">
        <ele>1354</ele>
        <time>2019-06-30T08:14:24.000Z</time>
      </trkpt>
      <trkpt lat="42.98617" lon="0.53683">
        <ele>1354</ele>
        <time>2019-06-30T08:14:26.000Z</time>
      </trkpt>
      <trkpt lat="42.98617" lon="0.53681">
        <ele>1354</ele>
        <time>2019-06-30T08:14:28.000Z</time>
      </trkpt>
      <trkpt lat="42.98617" lon="0.53679">
        <ele>1354</ele>
        <time>2019-06-30T08:14:30.000Z</time>
      </trkpt>
      <trkpt lat="42.98617" lon="0.53677">
        <ele>1355</ele>
        <time>2019-06-30T08:14:32.000Z</time>
      </trkpt>
      <trkpt lat="42.98617" lon="0.53676">
        <ele>1355</ele>
        <time>2019-06-30T08:14:34.000Z</time>
      </trkpt>
      <trkpt lat="42.98618" lon="0.53674">
        <ele>1355</ele>
        <time>2019-06-30T08:14:36.000Z</time>
      </trkpt>
      <trkpt lat="42.98618" lon="0.53672">
        <ele>1355</ele>
        <time>2019-06-30T08:14:38.000Z</time>
      </trkpt>
      <trkpt lat="42.98618" lon="0.5367">
        <ele>1355</ele>
        <time>2019-06-30T08:14:40.000Z</time>
      </trkpt>
      <trkpt lat="42.98619" lon="0.53668">
        <ele>1355</ele>
        <time>2019-06-30T08:14:42.000Z</time>
      </trkpt>
      <trkpt lat="42.98619" lon="0.53665">
        <ele>1355</ele>
        <time>2019-06-30T08:14:44.000Z</time>
      </trkpt>
      <trkpt lat="42.98619" lon="0.53663">
        <ele>1355</ele>
        <time>2019-06-30T08:14:46.000Z</time>
      </trkpt>
      <trkpt lat="42.98621" lon="0.53661">
        <ele>1354</ele>
        <time>2019-06-30T08:14:48.000Z</time>
      </trkpt>
      <trkpt lat="42.98621" lon="0.53658">
        <ele>1355</ele>
        <time>2019-06-30T08:14:50.000Z</time>
      </trkpt>
      <trkpt lat="42.98621" lon="0.53655">
        <ele>1356</ele>
        <time>2019-06-30T08:14:52.000Z</time>
      </trkpt>
      <trkpt lat="42.98621" lon="0.53653">
        <ele>1356</ele>
        <time>2019-06-30T08:14:54.000Z</time>
      </trkpt>
      <trkpt lat="42.9862" lon="0.5365">
        <ele>1358</ele>
        <time>2019-06-30T08:14:56.000Z</time>
      </trkpt>
      <trkpt lat="42.9862" lon="0.53647">
        <ele>1358</ele>
        <time>2019-06-30T08:14:58.000Z</time>
      </trkpt>
      <trkpt lat="42.9862" lon="0.53646">
        <ele>1359</ele>
        <time>2019-06-30T08:15:00.000Z</time>
      </trkpt>
      <trkpt lat="42.9862" lon="0.53644">
        <ele>1359</ele>
        <time>2019-06-30T08:15:02.000Z</time>
      </trkpt>
      <trkpt lat="42.9862" lon="0.53642">
        <ele>1360</ele>
        <time>2019-06-30T08:15:04.000Z</time>
      </trkpt>
      <trkpt lat="42.9862" lon="0.5364">
        <ele>1360</ele>
        <time>2019-06-30T08:15:06.000Z</time>
      </trkpt>
      <trkpt lat="42.98619" lon="0.53638">
        <ele>1361</ele>
        <time>2019-06-30T08:15:08.000Z</time>
      </trkpt>
      <trkpt lat="42.98618" lon="0.53637">
        <ele>1362</ele>
        <time>2019-06-30T08:15:10.000Z</time>
      </trkpt>
      <trkpt lat="42.98617" lon="0.53636">
        <ele>1363</ele>
        <time>2019-06-30T08:15:12.000Z</time>
      </trkpt>
      <trkpt lat="42.98616" lon="0.53634">
        <ele>1364</ele>
        <time>2019-06-30T08:15:14.000Z</time>
      </trkpt>
      <trkpt lat="42.98616" lon="0.53632">
        <ele>1364</ele>
        <time>2019-06-30T08:15:16.000Z</time>
      </trkpt>
      <trkpt lat="42.98616" lon="0.5363">
        <ele>1364</ele>
        <time>2019-06-30T08:15:18.000Z</time>
      </trkpt>
      <trkpt lat="42.98615" lon="0.53629">
        <ele>1365</ele>
        <time>2019-06-30T08:15:20.000Z</time>
      </trkpt>
      <trkpt lat="42.98614" lon="0.53629">
        <ele>1366</ele>
        <time>2019-06-30T08:15:22.000Z</time>
      </trkpt>
      <trkpt lat="42.98613" lon="0.53629">
        <ele>1366</ele>
        <time>2019-06-30T08:15:24.000Z</time>
      </trkpt>
      <trkpt lat="42.98613" lon="0.53629">
        <ele>1366</ele>
        <time>2019-06-30T08:15:26.000Z</time>
      </trkpt>
      <trkpt lat="42.98612" lon="0.53629">
        <ele>1366</ele>
        <time>2019-06-30T08:15:28.000Z</time>
      </trkpt>
      <trkpt lat="42.98612" lon="0.53629">
        <ele>1367</ele>
        <time>2019-06-30T08:15:30.000Z</time>
      </trkpt>
      <trkpt lat="42.98611" lon="0.53629">
        <ele>1367</ele>
        <time>2019-06-30T08:15:32.000Z</time>
      </trkpt>
      <trkpt lat="42.98611" lon="0.53629">
        <ele>1367</ele>
        <time>2019-06-30T08:15:34.000Z</time>
      </trkpt>
      <trkpt lat="42.9861" lon="0.53629">
        <ele>1368</ele>
        <time>2019-06-30T08:15:36.000Z</time>
      </trkpt>
      <trkpt lat="42.9861" lon="0.53629">
        <ele>1368</ele>
        <time>2019-06-30T08:15:38.000Z</time>
      </trkpt>
      <trkpt lat="42.9861" lon="0.53628">
        <ele>1367</ele>
        <time>2019-06-30T08:15:40.000Z</time>
      </trkpt>
      <trkpt lat="42.98611" lon="0.53628">
        <ele>1367</ele>
        <time>2019-06-30T08:15:42.000Z</time>
      </trkpt>
      <trkpt lat="42.98611" lon="0.53627">
        <ele>1367</ele>
        <time>2019-06-30T08:15:44.000Z</time>
      </trkpt>
      <trkpt lat="42.98612" lon="0.53627">
        <ele>1367</ele>
        <time>2019-06-30T08:15:46.000Z</time>
      </trkpt>
      <trkpt lat="42.98613" lon="0.53627">
        <ele>1366</ele>
        <time>2019-06-30T08:15:48.000Z</time>
      </trkpt>
      <trkpt lat="42.98613" lon="0.53627">
        <ele>1366</ele>
        <time>2019-06-30T08:15:50.000Z</time>
      </trkpt>
      <trkpt lat="42.98614" lon="0.53627">
        <ele>1366</ele>
        <time>2019-06-30T08:15:52.000Z</time>
      </trkpt>
      <trkpt lat="42.98614" lon="0.53627">
        <ele>1366</ele>
        <time>2019-06-30T08:15:54.000Z</time>
      </trkpt>
      <trkpt lat="42.98614" lon="0.53627">
        <ele>1366</ele>
        <time>2019-06-30T08:15:56.000Z</time>
      </trkpt>
      <trkpt lat="42.98614" lon="0.53627">
        <ele>1366</ele>
        <time>2019-06-30T08:15:58.000Z</time>
      </trkpt>
      <trkpt lat="42.98614" lon="0.53627">
        <ele>1366</ele>
        <time>2019-06-30T08:16:00.000Z</time>
      </trkpt>
      <trkpt lat="42.98614" lon="0.53628">
        <ele>1366</ele>
        <time>2019-06-30T08:16:02.000Z</time>
      </trkpt>
      <trkpt lat="42.98615" lon="0.53628">
        <ele>1365</ele>
        <time>2019-06-30T08:16:04.000Z</time>
      </trkpt>
      <trkpt lat="42.98615" lon="0.53627">
        <ele>1365</ele>
        <time>2019-06-30T08:16:06.000Z</time>
      </trkpt>
      <trkpt lat="42.98616" lon="0.53627">
        <ele>1365</ele>
        <time>2019-06-30T08:16:08.000Z</time>
      </trkpt>
      <trkpt lat="42.98617" lon="0.53628">
        <ele>1364</ele>
        <time>2019-06-30T08:16:10.000Z</time>
      </trkpt>
      <trkpt lat="42.98617" lon="0.53628">
        <ele>1364</ele>
        <time>2019-06-30T08:16:12.000Z</time>
      </trkpt>
      <trkpt lat="42.98617" lon="0.53627">
        <ele>1364</ele>
        <time>2019-06-30T08:16:14.000Z</time>
      </trkpt>
      <trkpt lat="42.98617" lon="0.53627">
        <ele>1364</ele>
        <time>2019-06-30T08:16:16.000Z</time>
      </trkpt>
      <trkpt lat="42.98618" lon="0.53627">
        <ele>1364</ele>
        <time>2019-06-30T08:16:18.000Z</time>
      </trkpt>
      <trkpt lat="42.98618" lon="0.53627">
        <ele>1364</ele>
        <time>2019-06-30T08:16:20.000Z</time>
      </trkpt>
      <trkpt lat="42.98618" lon="0.53627">
        <ele>1364</ele>
        <time>2019-06-30T08:16:22.000Z</time>
      </trkpt>
      <trkpt lat="42.98617" lon="0.53627">
        <ele>1364</ele>
        <time>2019-06-30T08:16:24.000Z</time>
      </trkpt>
      <trkpt lat="42.98617" lon="0.53627">
        <ele>1364</ele>
        <time>2019-06-30T08:16:26.000Z</time>
      </trkpt>
      <trkpt lat="42.98616" lon="0.53627">
        <ele>1365</ele>
        <time>2019-06-30T08:16:28.000Z</time>
      </trkpt>
      <trkpt lat="42.98616" lon="0.53627">
        <ele>1365</ele>
        <time>2019-06-30T08:16:30.000Z</time>
      </trkpt>
      <trkpt lat="42.98615" lon="0.53627">
        <ele>1365</ele>
        <time>2019-06-30T08:16:32.000Z</time>
      </trkpt>
      <trkpt lat="42.98615" lon="0.53627">
        <ele>1365</ele>
        <time>2019-06-30T08:16:34.000Z</time>
      </trkpt>
      <trkpt lat="42.98615" lon="0.53626">
        <ele>1365</ele>
        <time>2019-06-30T08:16:36.000Z</time>
      </trkpt>
      <trkpt lat="42.98615" lon="0.53626">
        <ele>1365</ele>
        <time>2019-06-30T08:16:38.000Z</time>
      </trkpt>
      <trkpt lat="42.98615" lon="0.53626">
        <ele>1365</ele>
        <time>2019-06-30T08:16:40.000Z</time>
      </trkpt>
      <trkpt lat="42.98614" lon="0.53625">
        <ele>1366</ele>
        <time>2019-06-30T08:16:42.000Z</time>
      </trkpt>
      <trkpt lat="42.98615" lon="0.53626">
        <ele>1365</ele>
        <time>2019-06-30T08:16:44.000Z</time>
      </trkpt>
      <trkpt lat="42.98615" lon="0.53626">
        <ele>1365</ele>
        <time>2019-06-30T08:16:46.000Z</time>
      </trkpt>
      <trkpt lat="42.98615" lon="0.53626">
        <ele>1365</ele>
        <time>2019-06-30T08:16:48.000Z</time>
      </trkpt>
      <trkpt lat="42.98615" lon="0.53626">
        <ele>1366</ele>
        <time>2019-06-30T08:16:50.000Z</time>
      </trkpt>
      <trkpt lat="42.98615" lon="0.53626">
        <ele>1365</ele>
        <time>2019-06-30T08:16:52.000Z</time>
      </trkpt>
      <trkpt lat="42.98615" lon="0.53626">
        <ele>1365</ele>
        <time>2019-06-30T08:16:54.000Z</time>
      </trkpt>
      <trkpt lat="42.98615" lon="0.53626">
        <ele>1365</ele>
        <time>2019-06-30T08:16:56.000Z</time>
      </trkpt>
      <trkpt lat="42.98615" lon="0.53627">
        <ele>1365</ele>
        <time>2019-06-30T08:16:58.000Z</time>
      </trkpt>
      <trkpt lat="42.98614" lon="0.53627">
        <ele>1366</ele>
        <time>2019-06-30T08:17:00.000Z</time>
      </trkpt>
      <trkpt lat="42.98614" lon="0.53627">
        <ele>1366</ele>
        <time>2019-06-30T08:17:02.000Z</time>
      </trkpt>
      <trkpt lat="42.98614" lon="0.53627">
        <ele>1366</ele>
        <time>2019-06-30T08:17:04.000Z</time>
      </trkpt>
      <trkpt lat="42.98614" lon="0.53627">
        <ele>1366</ele>
        <time>2019-06-30T08:17:06.000Z</time>
      </trkpt>
      <trkpt lat="42.98614" lon="0.53627">
        <ele>1366</ele>
        <time>2019-06-30T08:17:08.000Z</time>
      </trkpt>
      <trkpt lat="42.98614" lon="0.53627">
        <ele>1366</ele>
        <time>2019-06-30T08:17:10.000Z</time>
      </trkpt>
      <trkpt lat="42.98614" lon="0.53627">
        <ele>1366</ele>
        <time>2019-06-30T08:17:12.000Z</time>
      </trkpt>
      <trkpt lat="42.98613" lon="0.53626">
        <ele>1366</ele>
        <time>2019-06-30T08:17:14.000Z</time>
      </trkpt>
      <trkpt lat="42.98613" lon="0.53626">
        <ele>1366</ele>
        <time>2019-06-30T08:17:16.000Z</time>
      </trkpt>
      <trkpt lat="42.98613" lon="0.53626">
        <ele>1366</ele>
        <time>2019-06-30T08:17:18.000Z</time>
      </trkpt>
      <trkpt lat="42.98614" lon="0.53626">
        <ele>1366</ele>
        <time>2019-06-30T08:17:20.000Z</time>
      </trkpt>
      <trkpt lat="42.98614" lon="0.53627">
        <ele>1366</ele>
        <time>2019-06-30T08:17:22.000Z</time>
      </trkpt>
      <trkpt lat="42.98614" lon="0.53627">
        <ele>1366</ele>
        <time>2019-06-30T08:17:24.000Z</time>
      </trkpt>
      <trkpt lat="42.98614" lon="0.53627">
        <ele>1366</ele>
        <time>2019-06-30T08:17:26.000Z</time>
      </trkpt>
      <trkpt lat="42.98615" lon="0.53627">
        <ele>1365</ele>
        <time>2019-06-30T08:17:28.000Z</time>
      </trkpt>
      <trkpt lat="42.98615" lon="0.53628">
        <ele>1365</ele>
        <time>2019-06-30T08:17:30.000Z</time>
      </trkpt>
      <trkpt lat="42.98615" lon="0.53627">
        <ele>1365</ele>
        <time>2019-06-30T08:17:32.000Z</time>
      </trkpt>
      <trkpt lat="42.98616" lon="0.53627">
        <ele>1365</ele>
        <time>2019-06-30T08:17:34.000Z</time>
      </trkpt>
      <trkpt lat="42.98616" lon="0.53627">
        <ele>1365</ele>
        <time>2019-06-30T08:17:36.000Z</time>
      </trkpt>
      <trkpt lat="42.98616" lon="0.53627">
        <ele>1365</ele>
        <time>2019-06-30T08:17:38.000Z</time>
      </trkpt>
      <trkpt lat="42.98616" lon="0.53626">
        <ele>1365</ele>
        <time>2019-06-30T08:17:40.000Z</time>
      </trkpt>
      <trkpt lat="42.98617" lon="0.53626">
        <ele>1365</ele>
        <time>2019-06-30T08:17:42.000Z</time>
      </trkpt>
      <trkpt lat="42.98617" lon="0.53626">
        <ele>1364</ele>
        <time>2019-06-30T08:17:44.000Z</time>
      </trkpt>
      <trkpt lat="42.98617" lon="0.53625">
        <ele>1364</ele>
        <time>2019-06-30T08:17:46.000Z</time>
      </trkpt>
      <trkpt lat="42.98617" lon="0.53625">
        <ele>1364</ele>
        <time>2019-06-30T08:17:48.000Z</time>
      </trkpt>
      <trkpt lat="42.98617" lon="0.53625">
        <ele>1364</ele>
        <time>2019-06-30T08:17:50.000Z</time>
      </trkpt>
      <trkpt lat="42.98617" lon="0.53624">
        <ele>1364</ele>
        <time>2019-06-30T08:17:52.000Z</time>
      </trkpt>
      <trkpt lat="42.98618" lon="0.53624">
        <ele>1364</ele>
        <time>2019-06-30T08:17:54.000Z</time>
      </trkpt>
      <trkpt lat="42.98618" lon="0.53624">
        <ele>1364</ele>
        <time>2019-06-30T08:17:56.000Z</time>
      </trkpt>
      <trkpt lat="42.98617" lon="0.53624">
        <ele>1364</ele>
        <time>2019-06-30T08:17:58.000Z</time>
      </trkpt>
      <trkpt lat="42.98617" lon="0.53624">
        <ele>1365</ele>
        <time>2019-06-30T08:18:00.000Z</time>
      </trkpt>
      <trkpt lat="42.98617" lon="0.53624">
        <ele>1365</ele>
        <time>2019-06-30T08:18:02.000Z</time>
      </trkpt>
      <trkpt lat="42.98617" lon="0.53624">
        <ele>1365</ele>
        <time>2019-06-30T08:18:04.000Z</time>
      </trkpt>
      <trkpt lat="42.98617" lon="0.53624">
        <ele>1365</ele>
        <time>2019-06-30T08:18:06.000Z</time>
      </trkpt>
      <trkpt lat="42.98617" lon="0.53624">
        <ele>1365</ele>
        <time>2019-06-30T08:18:08.000Z</time>
      </trkpt>
      <trkpt lat="42.98616" lon="0.53624">
        <ele>1365</ele>
        <time>2019-06-30T08:18:10.000Z</time>
      </trkpt>
      <trkpt lat="42.98616" lon="0.53624">
        <ele>1365</ele>
        <time>2019-06-30T08:18:12.000Z</time>
      </trkpt>
      <trkpt lat="42.98615" lon="0.53624">
        <ele>1365</ele>
        <time>2019-06-30T08:18:14.000Z</time>
      </trkpt>
      <trkpt lat="42.98615" lon="0.53624">
        <ele>1366</ele>
        <time>2019-06-30T08:18:16.000Z</time>
      </trkpt>
      <trkpt lat="42.98614" lon="0.53624">
        <ele>1366</ele>
        <time>2019-06-30T08:18:18.000Z</time>
      </trkpt>
      <trkpt lat="42.98614" lon="0.53624">
        <ele>1366</ele>
        <time>2019-06-30T08:18:20.000Z</time>
      </trkpt>
      <trkpt lat="42.98614" lon="0.53624">
        <ele>1366</ele>
        <time>2019-06-30T08:18:22.000Z</time>
      </trkpt>
      <trkpt lat="42.98614" lon="0.53624">
        <ele>1366</ele>
        <time>2019-06-30T08:18:24.000Z</time>
      </trkpt>
      <trkpt lat="42.98615" lon="0.53624">
        <ele>1366</ele>
        <time>2019-06-30T08:18:26.000Z</time>
      </trkpt>
      <trkpt lat="42.98615" lon="0.53624">
        <ele>1366</ele>
        <time>2019-06-30T08:18:28.000Z</time>
      </trkpt>
      <trkpt lat="42.98615" lon="0.53624">
        <ele>1366</ele>
        <time>2019-06-30T08:18:30.000Z</time>
      </trkpt>
      <trkpt lat="42.98615" lon="0.53624">
        <ele>1366</ele>
        <time>2019-06-30T08:18:32.000Z</time>
      </trkpt>
      <trkpt lat="42.98615" lon="0.53624">
        <ele>1366</ele>
        <time>2019-06-30T08:18:34.000Z</time>
      </trkpt>
      <trkpt lat="42.98615" lon="0.53624">
        <ele>1366</ele>
        <time>2019-06-30T08:18:36.000Z</time>
      </trkpt>
      <trkpt lat="42.98615" lon="0.53624">
        <ele>1366</ele>
        <time>2019-06-30T08:18:38.000Z</time>
      </trkpt>
      <trkpt lat="42.98615" lon="0.53624">
        <ele>1366</ele>
        <time>2019-06-30T08:18:40.000Z</time>
      </trkpt>
      <trkpt lat="42.98615" lon="0.53624">
        <ele>1366</ele>
        <time>2019-06-30T08:18:42.000Z</time>
      </trkpt>
      <trkpt lat="42.98615" lon="0.53624">
        <ele>1366</ele>
        <time>2019-06-30T08:18:44.000Z</time>
      </trkpt>
      <trkpt lat="42.98615" lon="0.53624">
        <ele>1366</ele>
        <time>2019-06-30T08:18:46.000Z</time>
      </trkpt>
      <trkpt lat="42.98615" lon="0.53623">
        <ele>1366</ele>
        <time>2019-06-30T08:18:48.000Z</time>
      </trkpt>
      <trkpt lat="42.98615" lon="0.53624">
        <ele>1365</ele>
        <time>2019-06-30T08:18:50.000Z</time>
      </trkpt>
      <trkpt lat="42.98616" lon="0.53624">
        <ele>1365</ele>
        <time>2019-06-30T08:18:52.000Z</time>
      </trkpt>
      <trkpt lat="42.98617" lon="0.53624">
        <ele>1365</ele>
        <time>2019-06-30T08:18:54.000Z</time>
      </trkpt>
      <trkpt lat="42.98617" lon="0.53624">
        <ele>1364</ele>
        <time>2019-06-30T08:18:56.000Z</time>
      </trkpt>
      <trkpt lat="42.98618" lon="0.53624">
        <ele>1364</ele>
        <time>2019-06-30T08:18:58.000Z</time>
      </trkpt>
      <trkpt lat="42.98618" lon="0.53624">
        <ele>1364</ele>
        <time>2019-06-30T08:19:00.000Z</time>
      </trkpt>
      <trkpt lat="42.98618" lon="0.53625">
        <ele>1364</ele>
        <time>2019-06-30T08:19:02.000Z</time>
      </trkpt>
      <trkpt lat="42.98618" lon="0.53625">
        <ele>1364</ele>
        <time>2019-06-30T08:19:04.000Z</time>
      </trkpt>
      <trkpt lat="42.98618" lon="0.53625">
        <ele>1364</ele>
        <time>2019-06-30T08:19:06.000Z</time>
      </trkpt>
      <trkpt lat="42.98618" lon="0.53625">
        <ele>1364</ele>
        <time>2019-06-30T08:19:08.000Z</time>
      </trkpt>
      <trkpt lat="42.98618" lon="0.53625">
        <ele>1364</ele>
        <time>2019-06-30T08:19:10.000Z</time>
      </trkpt>
      <trkpt lat="42.98618" lon="0.53624">
        <ele>1364</ele>
        <time>2019-06-30T08:19:12.000Z</time>
      </trkpt>
      <trkpt lat="42.98617" lon="0.53624">
        <ele>1364</ele>
        <time>2019-06-30T08:19:14.000Z</time>
      </trkpt>
      <trkpt lat="42.98617" lon="0.53624">
        <ele>1364</ele>
        <time>2019-06-30T08:19:16.000Z</time>
      </trkpt>
      <trkpt lat="42.98617" lon="0.53625">
        <ele>1365</ele>
        <time>2019-06-30T08:19:18.000Z</time>
      </trkpt>
      <trkpt lat="42.98617" lon="0.53625">
        <ele>1365</ele>
        <time>2019-06-30T08:19:20.000Z</time>
      </trkpt>
      <trkpt lat="42.98616" lon="0.53625">
        <ele>1365</ele>
        <time>2019-06-30T08:19:22.000Z</time>
      </trkpt>
      <trkpt lat="42.98616" lon="0.53625">
        <ele>1365</ele>
        <time>2019-06-30T08:19:24.000Z</time>
      </trkpt>
      <trkpt lat="42.98617" lon="0.53625">
        <ele>1365</ele>
        <time>2019-06-30T08:19:26.000Z</time>
      </trkpt>
      <trkpt lat="42.98617" lon="0.53625">
        <ele>1365</ele>
        <time>2019-06-30T08:19:28.000Z</time>
      </trkpt>
      <trkpt lat="42.98616" lon="0.53625">
        <ele>1365</ele>
        <time>2019-06-30T08:19:30.000Z</time>
      </trkpt>
      <trkpt lat="42.98616" lon="0.53625">
        <ele>1365</ele>
        <time>2019-06-30T08:19:32.000Z</time>
      </trkpt>
      <trkpt lat="42.98616" lon="0.53625">
        <ele>1365</ele>
        <time>2019-06-30T08:19:34.000Z</time>
      </trkpt>
      <trkpt lat="42.98616" lon="0.53625">
        <ele>1365</ele>
        <time>2019-06-30T08:19:36.000Z</time>
      </trkpt>
      <trkpt lat="42.98616" lon="0.53625">
        <ele>1365</ele>
        <time>2019-06-30T08:19:38.000Z</time>
      </trkpt>
      <trkpt lat="42.98616" lon="0.53625">
        <ele>1365</ele>
        <time>2019-06-30T08:19:40.000Z</time>
      </trkpt>
      <trkpt lat="42.98616" lon="0.53625">
        <ele>1365</ele>
        <time>2019-06-30T08:19:42.000Z</time>
      </trkpt>
      <trkpt lat="42.98616" lon="0.53624">
        <ele>1365</ele>
        <time>2019-06-30T08:19:44.000Z</time>
      </trkpt>
      <trkpt lat="42.98616" lon="0.53624">
        <ele>1365</ele>
        <time>2019-06-30T08:19:46.000Z</time>
      </trkpt>
      <trkpt lat="42.98616" lon="0.53624">
        <ele>1365</ele>
        <time>2019-06-30T08:19:48.000Z</time>
      </trkpt>
      <trkpt lat="42.98616" lon="0.53624">
        <ele>1365</ele>
        <time>2019-06-30T08:19:50.000Z</time>
      </trkpt>
      <trkpt lat="42.98617" lon="0.53624">
        <ele>1365</ele>
        <time>2019-06-30T08:19:52.000Z</time>
      </trkpt>
      <trkpt lat="42.98617" lon="0.53624">
        <ele>1365</ele>
        <time>2019-06-30T08:19:54.000Z</time>
      </trkpt>
      <trkpt lat="42.98616" lon="0.53624">
        <ele>1365</ele>
        <time>2019-06-30T08:19:56.000Z</time>
      </trkpt>
      <trkpt lat="42.98616" lon="0.53624">
        <ele>1365</ele>
        <time>2019-06-30T08:19:58.000Z</time>
      </trkpt>
      <trkpt lat="42.98616" lon="0.53624">
        <ele>1365</ele>
        <time>2019-06-30T08:20:00.000Z</time>
      </trkpt>
      <trkpt lat="42.98616" lon="0.53624">
        <ele>1365</ele>
        <time>2019-06-30T08:20:02.000Z</time>
      </trkpt>
      <trkpt lat="42.98615" lon="0.53624">
        <ele>1365</ele>
        <time>2019-06-30T08:20:04.000Z</time>
      </trkpt>
      <trkpt lat="42.98615" lon="0.53624">
        <ele>1366</ele>
        <time>2019-06-30T08:20:06.000Z</time>
      </trkpt>
      <trkpt lat="42.98615" lon="0.53624">
        <ele>1366</ele>
        <time>2019-06-30T08:20:08.000Z</time>
      </trkpt>
      <trkpt lat="42.98615" lon="0.53624">
        <ele>1366</ele>
        <time>2019-06-30T08:20:10.000Z</time>
      </trkpt>
      <trkpt lat="42.98615" lon="0.53624">
        <ele>1366</ele>
        <time>2019-06-30T08:20:12.000Z</time>
      </trkpt>
      <trkpt lat="42.98614" lon="0.53624">
        <ele>1366</ele>
        <time>2019-06-30T08:20:14.000Z</time>
      </trkpt>
      <trkpt lat="42.98614" lon="0.53624">
        <ele>1366</ele>
        <time>2019-06-30T08:20:16.000Z</time>
      </trkpt>
      <trkpt lat="42.98614" lon="0.53625">
        <ele>1366</ele>
        <time>2019-06-30T08:20:18.000Z</time>
      </trkpt>
      <trkpt lat="42.98615" lon="0.53625">
        <ele>1366</ele>
        <time>2019-06-30T08:20:20.000Z</time>
      </trkpt>
      <trkpt lat="42.98614" lon="0.53626">
        <ele>1366</ele>
        <time>2019-06-30T08:20:22.000Z</time>
      </trkpt>
      <trkpt lat="42.98615" lon="0.53626">
        <ele>1366</ele>
        <time>2019-06-30T08:20:24.000Z</time>
      </trkpt>
      <trkpt lat="42.98614" lon="0.53626">
        <ele>1366</ele>
        <time>2019-06-30T08:20:26.000Z</time>
      </trkpt>
      <trkpt lat="42.98614" lon="0.53626">
        <ele>1366</ele>
        <time>2019-06-30T08:20:28.000Z</time>
      </trkpt>
      <trkpt lat="42.98615" lon="0.53626">
        <ele>1365</ele>
        <time>2019-06-30T08:20:30.000Z</time>
      </trkpt>
      <trkpt lat="42.98615" lon="0.53625">
        <ele>1365</ele>
        <time>2019-06-30T08:20:32.000Z</time>
      </trkpt>
      <trkpt lat="42.98616" lon="0.53625">
        <ele>1365</ele>
        <time>2019-06-30T08:20:34.000Z</time>
      </trkpt>
      <trkpt lat="42.98616" lon="0.53625">
        <ele>1365</ele>
        <time>2019-06-30T08:20:36.000Z</time>
      </trkpt>
      <trkpt lat="42.98616" lon="0.53625">
        <ele>1365</ele>
        <time>2019-06-30T08:20:38.000Z</time>
      </trkpt>
      <trkpt lat="42.98616" lon="0.53624">
        <ele>1365</ele>
        <time>2019-06-30T08:20:40.000Z</time>
      </trkpt>
      <trkpt lat="42.98617" lon="0.53625">
        <ele>1364</ele>
        <time>2019-06-30T08:20:42.000Z</time>
      </trkpt>
      <trkpt lat="42.98618" lon="0.53626">
        <ele>1364</ele>
        <time>2019-06-30T08:20:44.000Z</time>
      </trkpt>
      <trkpt lat="42.98619" lon="0.53626">
        <ele>1364</ele>
        <time>2019-06-30T08:20:46.000Z</time>
      </trkpt>
      <trkpt lat="42.98619" lon="0.53626">
        <ele>1363</ele>
        <time>2019-06-30T08:20:48.000Z</time>
      </trkpt>
      <trkpt lat="42.98619" lon="0.53626">
        <ele>1363</ele>
        <time>2019-06-30T08:20:50.000Z</time>
      </trkpt>
      <trkpt lat="42.98619" lon="0.53626">
        <ele>1363</ele>
        <time>2019-06-30T08:20:52.000Z</time>
      </trkpt>
      <trkpt lat="42.98619" lon="0.53626">
        <ele>1363</ele>
        <time>2019-06-30T08:20:54.000Z</time>
      </trkpt>
      <trkpt lat="42.98619" lon="0.53626">
        <ele>1364</ele>
        <time>2019-06-30T08:20:56.000Z</time>
      </trkpt>
      <trkpt lat="42.98619" lon="0.53626">
        <ele>1364</ele>
        <time>2019-06-30T08:20:58.000Z</time>
      </trkpt>
      <trkpt lat="42.98618" lon="0.53626">
        <ele>1364</ele>
        <time>2019-06-30T08:21:00.000Z</time>
      </trkpt>
      <trkpt lat="42.98618" lon="0.53627">
        <ele>1364</ele>
        <time>2019-06-30T08:21:02.000Z</time>
      </trkpt>
      <trkpt lat="42.98619" lon="0.53627">
        <ele>1363</ele>
        <time>2019-06-30T08:21:04.000Z</time>
      </trkpt>
      <trkpt lat="42.98619" lon="0.53627">
        <ele>1363</ele>
        <time>2019-06-30T08:21:06.000Z</time>
      </trkpt>
      <trkpt lat="42.98619" lon="0.53628">
        <ele>1363</ele>
        <time>2019-06-30T08:21:08.000Z</time>
      </trkpt>
      <trkpt lat="42.9862" lon="0.53628">
        <ele>1363</ele>
        <time>2019-06-30T08:21:10.000Z</time>
      </trkpt>
      <trkpt lat="42.9862" lon="0.53628">
        <ele>1363</ele>
        <time>2019-06-30T08:21:12.000Z</time>
      </trkpt>
      <trkpt lat="42.9862" lon="0.53628">
        <ele>1363</ele>
        <time>2019-06-30T08:21:14.000Z</time>
      </trkpt>
      <trkpt lat="42.9862" lon="0.53628">
        <ele>1362</ele>
        <time>2019-06-30T08:21:16.000Z</time>
      </trkpt>
      <trkpt lat="42.98621" lon="0.53628">
        <ele>1362</ele>
        <time>2019-06-30T08:21:18.000Z</time>
      </trkpt>
      <trkpt lat="42.98621" lon="0.53628">
        <ele>1362</ele>
        <time>2019-06-30T08:21:20.000Z</time>
      </trkpt>
      <trkpt lat="42.98621" lon="0.53628">
        <ele>1362</ele>
        <time>2019-06-30T08:21:22.000Z</time>
      </trkpt>
      <trkpt lat="42.98621" lon="0.53628">
        <ele>1362</ele>
        <time>2019-06-30T08:21:24.000Z</time>
      </trkpt>
      <trkpt lat="42.98621" lon="0.53628">
        <ele>1362</ele>
        <time>2019-06-30T08:21:26.000Z</time>
      </trkpt>
      <trkpt lat="42.98621" lon="0.53628">
        <ele>1362</ele>
        <time>2019-06-30T08:21:28.000Z</time>
      </trkpt>
      <trkpt lat="42.98621" lon="0.53628">
        <ele>1362</ele>
        <time>2019-06-30T08:21:30.000Z</time>
      </trkpt>
      <trkpt lat="42.98621" lon="0.53628">
        <ele>1362</ele>
        <time>2019-06-30T08:21:32.000Z</time>
      </trkpt>
      <trkpt lat="42.98621" lon="0.53628">
        <ele>1362</ele>
        <time>2019-06-30T08:21:34.000Z</time>
      </trkpt>
      <trkpt lat="42.98621" lon="0.53628">
        <ele>1362</ele>
        <time>2019-06-30T08:21:36.000Z</time>
      </trkpt>
      <trkpt lat="42.98621" lon="0.53628">
        <ele>1362</ele>
        <time>2019-06-30T08:21:38.000Z</time>
      </trkpt>
      <trkpt lat="42.98621" lon="0.53628">
        <ele>1362</ele>
        <time>2019-06-30T08:21:40.000Z</time>
      </trkpt>
      <trkpt lat="42.9862" lon="0.53628">
        <ele>1362</ele>
        <time>2019-06-30T08:21:42.000Z</time>
      </trkpt>
      <trkpt lat="42.98621" lon="0.53628">
        <ele>1362</ele>
        <time>2019-06-30T08:21:44.000Z</time>
      </trkpt>
      <trkpt lat="42.98621" lon="0.53627">
        <ele>1362</ele>
        <time>2019-06-30T08:21:46.000Z</time>
      </trkpt>
      <trkpt lat="42.9862" lon="0.53627">
        <ele>1363</ele>
        <time>2019-06-30T08:21:48.000Z</time>
      </trkpt>
      <trkpt lat="42.9862" lon="0.53627">
        <ele>1363</ele>
        <time>2019-06-30T08:21:50.000Z</time>
      </trkpt>
      <trkpt lat="42.9862" lon="0.53627">
        <ele>1363</ele>
        <time>2019-06-30T08:21:52.000Z</time>
      </trkpt>
      <trkpt lat="42.9862" lon="0.53626">
        <ele>1363</ele>
        <time>2019-06-30T08:21:54.000Z</time>
      </trkpt>
      <trkpt lat="42.9862" lon="0.53626">
        <ele>1363</ele>
        <time>2019-06-30T08:21:56.000Z</time>
      </trkpt>
      <trkpt lat="42.98621" lon="0.53626">
        <ele>1362</ele>
        <time>2019-06-30T08:21:58.000Z</time>
      </trkpt>
      <trkpt lat="42.98621" lon="0.53626">
        <ele>1362</ele>
        <time>2019-06-30T08:22:00.000Z</time>
      </trkpt>
      <trkpt lat="42.98621" lon="0.53625">
        <ele>1362</ele>
        <time>2019-06-30T08:22:02.000Z</time>
      </trkpt>
      <trkpt lat="42.98621" lon="0.53625">
        <ele>1362</ele>
        <time>2019-06-30T08:22:04.000Z</time>
      </trkpt>
      <trkpt lat="42.98621" lon="0.53624">
        <ele>1363</ele>
        <time>2019-06-30T08:22:06.000Z</time>
      </trkpt>
      <trkpt lat="42.9862" lon="0.53624">
        <ele>1363</ele>
        <time>2019-06-30T08:22:08.000Z</time>
      </trkpt>
      <trkpt lat="42.9862" lon="0.53624">
        <ele>1363</ele>
        <time>2019-06-30T08:22:10.000Z</time>
      </trkpt>
      <trkpt lat="42.9862" lon="0.53624">
        <ele>1363</ele>
        <time>2019-06-30T08:22:12.000Z</time>
      </trkpt>
      <trkpt lat="42.98619" lon="0.53623">
        <ele>1363</ele>
        <time>2019-06-30T08:22:14.000Z</time>
      </trkpt>
      <trkpt lat="42.98619" lon="0.53623">
        <ele>1364</ele>
        <time>2019-06-30T08:22:16.000Z</time>
      </trkpt>
      <trkpt lat="42.98619" lon="0.53623">
        <ele>1364</ele>
        <time>2019-06-30T08:22:18.000Z</time>
      </trkpt>
      <trkpt lat="42.98619" lon="0.53624">
        <ele>1364</ele>
        <time>2019-06-30T08:22:20.000Z</time>
      </trkpt>
      <trkpt lat="42.98619" lon="0.53623">
        <ele>1364</ele>
        <time>2019-06-30T08:22:22.000Z</time>
      </trkpt>
      <trkpt lat="42.98619" lon="0.53623">
        <ele>1364</ele>
        <time>2019-06-30T08:22:24.000Z</time>
      </trkpt>
      <trkpt lat="42.9862" lon="0.53623">
        <ele>1363</ele>
        <time>2019-06-30T08:22:26.000Z</time>
      </trkpt>
      <trkpt lat="42.9862" lon="0.53623">
        <ele>1363</ele>
        <time>2019-06-30T08:22:28.000Z</time>
      </trkpt>
      <trkpt lat="42.9862" lon="0.53622">
        <ele>1363</ele>
        <time>2019-06-30T08:22:30.000Z</time>
      </trkpt>
      <trkpt lat="42.9862" lon="0.53623">
        <ele>1363</ele>
        <time>2019-06-30T08:22:32.000Z</time>
      </trkpt>
      <trkpt lat="42.9862" lon="0.53623">
        <ele>1363</ele>
        <time>2019-06-30T08:22:34.000Z</time>
      </trkpt>
      <trkpt lat="42.98621" lon="0.53623">
        <ele>1363</ele>
        <time>2019-06-30T08:22:36.000Z</time>
      </trkpt>
      <trkpt lat="42.98621" lon="0.53623">
        <ele>1363</ele>
        <time>2019-06-30T08:22:38.000Z</time>
      </trkpt>
      <trkpt lat="42.9862" lon="0.53623">
        <ele>1363</ele>
        <time>2019-06-30T08:22:40.000Z</time>
      </trkpt>
      <trkpt lat="42.9862" lon="0.53623">
        <ele>1363</ele>
        <time>2019-06-30T08:22:42.000Z</time>
      </trkpt>
      <trkpt lat="42.9862" lon="0.53624">
        <ele>1363</ele>
        <time>2019-06-30T08:22:44.000Z</time>
      </trkpt>
      <trkpt lat="42.98621" lon="0.53625">
        <ele>1363</ele>
        <time>2019-06-30T08:22:46.000Z</time>
      </trkpt>
      <trkpt lat="42.98621" lon="0.53626">
        <ele>1362</ele>
        <time>2019-06-30T08:22:48.000Z</time>
      </trkpt>
      <trkpt lat="42.98621" lon="0.53626">
        <ele>1363</ele>
        <time>2019-06-30T08:22:50.000Z</time>
      </trkpt>
      <trkpt lat="42.98621" lon="0.53626">
        <ele>1363</ele>
        <time>2019-06-30T08:22:52.000Z</time>
      </trkpt>
      <trkpt lat="42.98621" lon="0.53626">
        <ele>1362</ele>
        <time>2019-06-30T08:22:54.000Z</time>
      </trkpt>
      <trkpt lat="42.98622" lon="0.53627">
        <ele>1362</ele>
        <time>2019-06-30T08:22:56.000Z</time>
      </trkpt>
      <trkpt lat="42.98624" lon="0.53628">
        <ele>1361</ele>
        <time>2019-06-30T08:22:58.000Z</time>
      </trkpt>
      <trkpt lat="42.98626" lon="0.53628">
        <ele>1360</ele>
        <time>2019-06-30T08:23:00.000Z</time>
      </trkpt>
      <trkpt lat="42.98627" lon="0.53628">
        <ele>1359</ele>
        <time>2019-06-30T08:23:02.000Z</time>
      </trkpt>
      <trkpt lat="42.98628" lon="0.53628">
        <ele>1359</ele>
        <time>2019-06-30T08:23:04.000Z</time>
      </trkpt>
      <trkpt lat="42.98629" lon="0.53627">
        <ele>1358</ele>
        <time>2019-06-30T08:23:06.000Z</time>
      </trkpt>
      <trkpt lat="42.98629" lon="0.53627">
        <ele>1358</ele>
        <time>2019-06-30T08:23:08.000Z</time>
      </trkpt>
      <trkpt lat="42.98629" lon="0.53628">
        <ele>1358</ele>
        <time>2019-06-30T08:23:10.000Z</time>
      </trkpt>
      <trkpt lat="42.98628" lon="0.53627">
        <ele>1359</ele>
        <time>2019-06-30T08:23:12.000Z</time>
      </trkpt>
      <trkpt lat="42.98627" lon="0.53626">
        <ele>1360</ele>
        <time>2019-06-30T08:23:14.000Z</time>
      </trkpt>
      <trkpt lat="42.98625" lon="0.53626">
        <ele>1360</ele>
        <time>2019-06-30T08:23:16.000Z</time>
      </trkpt>
      <trkpt lat="42.98625" lon="0.53628">
        <ele>1360</ele>
        <time>2019-06-30T08:23:18.000Z</time>
      </trkpt>
      <trkpt lat="42.98624" lon="0.53627">
        <ele>1361</ele>
        <time>2019-06-30T08:23:20.000Z</time>
      </trkpt>
      <trkpt lat="42.98623" lon="0.53627">
        <ele>1361</ele>
        <time>2019-06-30T08:23:22.000Z</time>
      </trkpt>
      <trkpt lat="42.98622" lon="0.53626">
        <ele>1362</ele>
        <time>2019-06-30T08:23:24.000Z</time>
      </trkpt>
      <trkpt lat="42.98621" lon="0.53626">
        <ele>1362</ele>
        <time>2019-06-30T08:23:26.000Z</time>
      </trkpt>
      <trkpt lat="42.98621" lon="0.53626">
        <ele>1362</ele>
        <time>2019-06-30T08:23:28.000Z</time>
      </trkpt>
      <trkpt lat="42.98621" lon="0.53626">
        <ele>1362</ele>
        <time>2019-06-30T08:23:30.000Z</time>
      </trkpt>
      <trkpt lat="42.9862" lon="0.53626">
        <ele>1363</ele>
        <time>2019-06-30T08:23:32.000Z</time>
      </trkpt>
      <trkpt lat="42.9862" lon="0.53625">
        <ele>1363</ele>
        <time>2019-06-30T08:23:34.000Z</time>
      </trkpt>
      <trkpt lat="42.9862" lon="0.53624">
        <ele>1363</ele>
        <time>2019-06-30T08:23:36.000Z</time>
      </trkpt>
      <trkpt lat="42.9862" lon="0.53623">
        <ele>1363</ele>
        <time>2019-06-30T08:23:38.000Z</time>
      </trkpt>
      <trkpt lat="42.9862" lon="0.53622">
        <ele>1363</ele>
        <time>2019-06-30T08:23:40.000Z</time>
      </trkpt>
      <trkpt lat="42.98619" lon="0.53621">
        <ele>1364</ele>
        <time>2019-06-30T08:23:42.000Z</time>
      </trkpt>
      <trkpt lat="42.98619" lon="0.53619">
        <ele>1364</ele>
        <time>2019-06-30T08:23:44.000Z</time>
      </trkpt>
      <trkpt lat="42.98619" lon="0.53618">
        <ele>1364</ele>
        <time>2019-06-30T08:23:46.000Z</time>
      </trkpt>
      <trkpt lat="42.98619" lon="0.53616">
        <ele>1365</ele>
        <time>2019-06-30T08:23:48.000Z</time>
      </trkpt>
      <trkpt lat="42.98618" lon="0.53614">
        <ele>1365</ele>
        <time>2019-06-30T08:23:50.000Z</time>
      </trkpt>
      <trkpt lat="42.98616" lon="0.53612">
        <ele>1366</ele>
        <time>2019-06-30T08:23:52.000Z</time>
      </trkpt>
      <trkpt lat="42.98617" lon="0.5361">
        <ele>1366</ele>
        <time>2019-06-30T08:23:54.000Z</time>
      </trkpt>
      <trkpt lat="42.98617" lon="0.53608">
        <ele>1366</ele>
        <time>2019-06-30T08:23:56.000Z</time>
      </trkpt>
      <trkpt lat="42.98617" lon="0.53606">
        <ele>1367</ele>
        <time>2019-06-30T08:23:58.000Z</time>
      </trkpt>
      <trkpt lat="42.98616" lon="0.53603">
        <ele>1367</ele>
        <time>2019-06-30T08:24:00.000Z</time>
      </trkpt>
      <trkpt lat="42.98617" lon="0.53601">
        <ele>1367</ele>
        <time>2019-06-30T08:24:02.000Z</time>
      </trkpt>
      <trkpt lat="42.98616" lon="0.53599">
        <ele>1368</ele>
        <time>2019-06-30T08:24:04.000Z</time>
      </trkpt>
      <trkpt lat="42.98617" lon="0.53596">
        <ele>1368</ele>
        <time>2019-06-30T08:24:06.000Z</time>
      </trkpt>
      <trkpt lat="42.98617" lon="0.53594">
        <ele>1368</ele>
        <time>2019-06-30T08:24:08.000Z</time>
      </trkpt>
      <trkpt lat="42.98617" lon="0.53592">
        <ele>1368</ele>
        <time>2019-06-30T08:24:10.000Z</time>
      </trkpt>
      <trkpt lat="42.98616" lon="0.5359">
        <ele>1369</ele>
        <time>2019-06-30T08:24:12.000Z</time>
      </trkpt>
      <trkpt lat="42.98616" lon="0.53588">
        <ele>1369</ele>
        <time>2019-06-30T08:24:14.000Z</time>
      </trkpt>
      <trkpt lat="42.98614" lon="0.53586">
        <ele>1370</ele>
        <time>2019-06-30T08:24:16.000Z</time>
      </trkpt>
      <trkpt lat="42.98613" lon="0.53585">
        <ele>1371</ele>
        <time>2019-06-30T08:24:18.000Z</time>
      </trkpt>
      <trkpt lat="42.98611" lon="0.53583">
        <ele>1372</ele>
        <time>2019-06-30T08:24:20.000Z</time>
      </trkpt>
      <trkpt lat="42.9861" lon="0.53582">
        <ele>1373</ele>
        <time>2019-06-30T08:24:22.000Z</time>
      </trkpt>
      <trkpt lat="42.9861" lon="0.53582">
        <ele>1373</ele>
        <time>2019-06-30T08:24:24.000Z</time>
      </trkpt>
      <trkpt lat="42.98609" lon="0.53582">
        <ele>1373</ele>
        <time>2019-06-30T08:24:26.000Z</time>
      </trkpt>
      <trkpt lat="42.98607" lon="0.53583">
        <ele>1374</ele>
        <time>2019-06-30T08:24:28.000Z</time>
      </trkpt>
      <trkpt lat="42.98605" lon="0.53584">
        <ele>1375</ele>
        <time>2019-06-30T08:24:30.000Z</time>
      </trkpt>
      <trkpt lat="42.98602" lon="0.53588">
        <ele>1376</ele>
        <time>2019-06-30T08:24:32.000Z</time>
      </trkpt>
      <trkpt lat="42.98601" lon="0.53588">
        <ele>1376</ele>
        <time>2019-06-30T08:24:34.000Z</time>
      </trkpt>
      <trkpt lat="42.986" lon="0.53589">
        <ele>1377</ele>
        <time>2019-06-30T08:24:36.000Z</time>
      </trkpt>
      <trkpt lat="42.98599" lon="0.53591">
        <ele>1377</ele>
        <time>2019-06-30T08:24:38.000Z</time>
      </trkpt>
      <trkpt lat="42.98599" lon="0.53592">
        <ele>1377</ele>
        <time>2019-06-30T08:24:40.000Z</time>
      </trkpt>
      <trkpt lat="42.98598" lon="0.53594">
        <ele>1377</ele>
        <time>2019-06-30T08:24:42.000Z</time>
      </trkpt>
      <trkpt lat="42.98598" lon="0.53595">
        <ele>1377</ele>
        <time>2019-06-30T08:24:44.000Z</time>
      </trkpt>
      <trkpt lat="42.98599" lon="0.53598">
        <ele>1376</ele>
        <time>2019-06-30T08:24:46.000Z</time>
      </trkpt>
      <trkpt lat="42.986" lon="0.536">
        <ele>1376</ele>
        <time>2019-06-30T08:24:48.000Z</time>
      </trkpt>
      <trkpt lat="42.98599" lon="0.53602">
        <ele>1376</ele>
        <time>2019-06-30T08:24:50.000Z</time>
      </trkpt>
      <trkpt lat="42.98599" lon="0.53604">
        <ele>1376</ele>
        <time>2019-06-30T08:24:52.000Z</time>
      </trkpt>
      <trkpt lat="42.98599" lon="0.53606">
        <ele>1376</ele>
        <time>2019-06-30T08:24:54.000Z</time>
      </trkpt>
      <trkpt lat="42.98599" lon="0.53608">
        <ele>1375</ele>
        <time>2019-06-30T08:24:56.000Z</time>
      </trkpt>
      <trkpt lat="42.98599" lon="0.53611">
        <ele>1375</ele>
        <time>2019-06-30T08:24:58.000Z</time>
      </trkpt>
      <trkpt lat="42.98599" lon="0.53613">
        <ele>1375</ele>
        <time>2019-06-30T08:25:00.000Z</time>
      </trkpt>
      <trkpt lat="42.98599" lon="0.53614">
        <ele>1375</ele>
        <time>2019-06-30T08:25:02.000Z</time>
      </trkpt>
      <trkpt lat="42.98598" lon="0.53616">
        <ele>1375</ele>
        <time>2019-06-30T08:25:04.000Z</time>
      </trkpt>
      <trkpt lat="42.98597" lon="0.53617">
        <ele>1375</ele>
        <time>2019-06-30T08:25:06.000Z</time>
      </trkpt>
      <trkpt lat="42.98595" lon="0.53619">
        <ele>1376</ele>
        <time>2019-06-30T08:25:08.000Z</time>
      </trkpt>
      <trkpt lat="42.98595" lon="0.53621">
        <ele>1376</ele>
        <time>2019-06-30T08:25:10.000Z</time>
      </trkpt>
      <trkpt lat="42.98593" lon="0.53622">
        <ele>1376</ele>
        <time>2019-06-30T08:25:12.000Z</time>
      </trkpt>
      <trkpt lat="42.98592" lon="0.53624">
        <ele>1377</ele>
        <time>2019-06-30T08:25:14.000Z</time>
      </trkpt>
      <trkpt lat="42.9859" lon="0.53625">
        <ele>1378</ele>
        <time>2019-06-30T08:25:16.000Z</time>
      </trkpt>
      <trkpt lat="42.98589" lon="0.53626">
        <ele>1378</ele>
        <time>2019-06-30T08:25:18.000Z</time>
      </trkpt>
      <trkpt lat="42.98589" lon="0.53627">
        <ele>1378</ele>
        <time>2019-06-30T08:25:20.000Z</time>
      </trkpt>
      <trkpt lat="42.98589" lon="0.53627">
        <ele>1378</ele>
        <time>2019-06-30T08:25:22.000Z</time>
      </trkpt>
      <trkpt lat="42.98588" lon="0.53628">
        <ele>1379</ele>
        <time>2019-06-30T08:25:24.000Z</time>
      </trkpt>
      <trkpt lat="42.98587" lon="0.5363">
        <ele>1379</ele>
        <time>2019-06-30T08:25:26.000Z</time>
      </trkpt>
      <trkpt lat="42.98586" lon="0.53631">
        <ele>1379</ele>
        <time>2019-06-30T08:25:28.000Z</time>
      </trkpt>
      <trkpt lat="42.98584" lon="0.53633">
        <ele>1380</ele>
        <time>2019-06-30T08:25:30.000Z</time>
      </trkpt>
      <trkpt lat="42.98583" lon="0.53635">
        <ele>1381</ele>
        <time>2019-06-30T08:25:32.000Z</time>
      </trkpt>
      <trkpt lat="42.98583" lon="0.53636">
        <ele>1381</ele>
        <time>2019-06-30T08:25:34.000Z</time>
      </trkpt>
      <trkpt lat="42.98582" lon="0.53637">
        <ele>1381</ele>
        <time>2019-06-30T08:25:36.000Z</time>
      </trkpt>
      <trkpt lat="42.98582" lon="0.53638">
        <ele>1381</ele>
        <time>2019-06-30T08:25:38.000Z</time>
      </trkpt>
      <trkpt lat="42.98581" lon="0.5364">
        <ele>1381</ele>
        <time>2019-06-30T08:25:40.000Z</time>
      </trkpt>
      <trkpt lat="42.98581" lon="0.53642">
        <ele>1381</ele>
        <time>2019-06-30T08:25:42.000Z</time>
      </trkpt>
      <trkpt lat="42.98581" lon="0.53644">
        <ele>1380</ele>
        <time>2019-06-30T08:25:44.000Z</time>
      </trkpt>
      <trkpt lat="42.98581" lon="0.53645">
        <ele>1381</ele>
        <time>2019-06-30T08:25:46.000Z</time>
      </trkpt>
      <trkpt lat="42.98583" lon="0.53647">
        <ele>1379</ele>
        <time>2019-06-30T08:25:48.000Z</time>
      </trkpt>
      <trkpt lat="42.98582" lon="0.53648">
        <ele>1379</ele>
        <time>2019-06-30T08:25:50.000Z</time>
      </trkpt>
      <trkpt lat="42.98583" lon="0.53649">
        <ele>1379</ele>
        <time>2019-06-30T08:25:52.000Z</time>
      </trkpt>
      <trkpt lat="42.98582" lon="0.53651">
        <ele>1379</ele>
        <time>2019-06-30T08:25:54.000Z</time>
      </trkpt>
      <trkpt lat="42.98582" lon="0.53653">
        <ele>1379</ele>
        <time>2019-06-30T08:25:56.000Z</time>
      </trkpt>
      <trkpt lat="42.9858" lon="0.53654">
        <ele>1380</ele>
        <time>2019-06-30T08:25:58.000Z</time>
      </trkpt>
      <trkpt lat="42.98579" lon="0.53656">
        <ele>1381</ele>
        <time>2019-06-30T08:26:00.000Z</time>
      </trkpt>
      <trkpt lat="42.98577" lon="0.53657">
        <ele>1381</ele>
        <time>2019-06-30T08:26:02.000Z</time>
      </trkpt>
      <trkpt lat="42.98577" lon="0.53659">
        <ele>1381</ele>
        <time>2019-06-30T08:26:04.000Z</time>
      </trkpt>
      <trkpt lat="42.98575" lon="0.5366">
        <ele>1382</ele>
        <time>2019-06-30T08:26:06.000Z</time>
      </trkpt>
      <trkpt lat="42.98574" lon="0.53661">
        <ele>1383</ele>
        <time>2019-06-30T08:26:08.000Z</time>
      </trkpt>
      <trkpt lat="42.98572" lon="0.53662">
        <ele>1384</ele>
        <time>2019-06-30T08:26:10.000Z</time>
      </trkpt>
      <trkpt lat="42.9857" lon="0.53663">
        <ele>1385</ele>
        <time>2019-06-30T08:26:12.000Z</time>
      </trkpt>
      <trkpt lat="42.98568" lon="0.53665">
        <ele>1385</ele>
        <time>2019-06-30T08:26:14.000Z</time>
      </trkpt>
      <trkpt lat="42.98567" lon="0.53667">
        <ele>1386</ele>
        <time>2019-06-30T08:26:16.000Z</time>
      </trkpt>
      <trkpt lat="42.98566" lon="0.53668">
        <ele>1386</ele>
        <time>2019-06-30T08:26:18.000Z</time>
      </trkpt>
      <trkpt lat="42.98566" lon="0.5367">
        <ele>1386</ele>
        <time>2019-06-30T08:26:20.000Z</time>
      </trkpt>
      <trkpt lat="42.98565" lon="0.53672">
        <ele>1386</ele>
        <time>2019-06-30T08:26:22.000Z</time>
      </trkpt>
      <trkpt lat="42.98564" lon="0.53674">
        <ele>1386</ele>
        <time>2019-06-30T08:26:24.000Z</time>
      </trkpt>
      <trkpt lat="42.98564" lon="0.53676">
        <ele>1387</ele>
        <time>2019-06-30T08:26:26.000Z</time>
      </trkpt>
      <trkpt lat="42.98564" lon="0.53678">
        <ele>1386</ele>
        <time>2019-06-30T08:26:28.000Z</time>
      </trkpt>
      <trkpt lat="42.98565" lon="0.5368">
        <ele>1386</ele>
        <time>2019-06-30T08:26:30.000Z</time>
      </trkpt>
      <trkpt lat="42.98565" lon="0.53682">
        <ele>1385</ele>
        <time>2019-06-30T08:26:32.000Z</time>
      </trkpt>
      <trkpt lat="42.98565" lon="0.53684">
        <ele>1385</ele>
        <time>2019-06-30T08:26:34.000Z</time>
      </trkpt>
      <trkpt lat="42.98563" lon="0.53687">
        <ele>1385</ele>
        <time>2019-06-30T08:26:36.000Z</time>
      </trkpt>
      <trkpt lat="42.98563" lon="0.53689">
        <ele>1386</ele>
        <time>2019-06-30T08:26:38.000Z</time>
      </trkpt>
      <trkpt lat="42.98562" lon="0.53691">
        <ele>1386</ele>
        <time>2019-06-30T08:26:40.000Z</time>
      </trkpt>
      <trkpt lat="42.98561" lon="0.53692">
        <ele>1386</ele>
        <time>2019-06-30T08:26:42.000Z</time>
      </trkpt>
      <trkpt lat="42.98561" lon="0.53694">
        <ele>1386</ele>
        <time>2019-06-30T08:26:44.000Z</time>
      </trkpt>
      <trkpt lat="42.9856" lon="0.53696">
        <ele>1386</ele>
        <time>2019-06-30T08:26:46.000Z</time>
      </trkpt>
      <trkpt lat="42.98559" lon="0.53697">
        <ele>1386</ele>
        <time>2019-06-30T08:26:48.000Z</time>
      </trkpt>
      <trkpt lat="42.98558" lon="0.53697">
        <ele>1387</ele>
        <time>2019-06-30T08:26:50.000Z</time>
      </trkpt>
      <trkpt lat="42.98556" lon="0.53699">
        <ele>1387</ele>
        <time>2019-06-30T08:26:52.000Z</time>
      </trkpt>
      <trkpt lat="42.98555" lon="0.53701">
        <ele>1388</ele>
        <time>2019-06-30T08:26:54.000Z</time>
      </trkpt>
      <trkpt lat="42.98553" lon="0.53702">
        <ele>1388</ele>
        <time>2019-06-30T08:26:56.000Z</time>
      </trkpt>
      <trkpt lat="42.98552" lon="0.53704">
        <ele>1389</ele>
        <time>2019-06-30T08:26:58.000Z</time>
      </trkpt>
      <trkpt lat="42.98551" lon="0.53706">
        <ele>1389</ele>
        <time>2019-06-30T08:27:00.000Z</time>
      </trkpt>
      <trkpt lat="42.98549" lon="0.53708">
        <ele>1390</ele>
        <time>2019-06-30T08:27:02.000Z</time>
      </trkpt>
      <trkpt lat="42.98549" lon="0.53709">
        <ele>1390</ele>
        <time>2019-06-30T08:27:04.000Z</time>
      </trkpt>
      <trkpt lat="42.98547" lon="0.53711">
        <ele>1390</ele>
        <time>2019-06-30T08:27:06.000Z</time>
      </trkpt>
      <trkpt lat="42.98547" lon="0.53713">
        <ele>1390</ele>
        <time>2019-06-30T08:27:08.000Z</time>
      </trkpt>
      <trkpt lat="42.98547" lon="0.53714">
        <ele>1390</ele>
        <time>2019-06-30T08:27:10.000Z</time>
      </trkpt>
      <trkpt lat="42.98546" lon="0.53716">
        <ele>1390</ele>
        <time>2019-06-30T08:27:12.000Z</time>
      </trkpt>
      <trkpt lat="42.98546" lon="0.53718">
        <ele>1390</ele>
        <time>2019-06-30T08:27:14.000Z</time>
      </trkpt>
      <trkpt lat="42.98545" lon="0.53719">
        <ele>1390</ele>
        <time>2019-06-30T08:27:16.000Z</time>
      </trkpt>
      <trkpt lat="42.98544" lon="0.53721">
        <ele>1390</ele>
        <time>2019-06-30T08:27:18.000Z</time>
      </trkpt>
      <trkpt lat="42.98543" lon="0.53723">
        <ele>1390</ele>
        <time>2019-06-30T08:27:20.000Z</time>
      </trkpt>
      <trkpt lat="42.98543" lon="0.53725">
        <ele>1390</ele>
        <time>2019-06-30T08:27:22.000Z</time>
      </trkpt>
      <trkpt lat="42.98542" lon="0.53727">
        <ele>1390</ele>
        <time>2019-06-30T08:27:24.000Z</time>
      </trkpt>
      <trkpt lat="42.98542" lon="0.53729">
        <ele>1390</ele>
        <time>2019-06-30T08:27:26.000Z</time>
      </trkpt>
      <trkpt lat="42.98542" lon="0.5373">
        <ele>1390</ele>
        <time>2019-06-30T08:27:28.000Z</time>
      </trkpt>
      <trkpt lat="42.98541" lon="0.53731">
        <ele>1390</ele>
        <time>2019-06-30T08:27:30.000Z</time>
      </trkpt>
      <trkpt lat="42.98541" lon="0.53733">
        <ele>1390</ele>
        <time>2019-06-30T08:27:32.000Z</time>
      </trkpt>
      <trkpt lat="42.98539" lon="0.53735">
        <ele>1390</ele>
        <time>2019-06-30T08:27:34.000Z</time>
      </trkpt>
      <trkpt lat="42.98539" lon="0.53737">
        <ele>1390</ele>
        <time>2019-06-30T08:27:36.000Z</time>
      </trkpt>
      <trkpt lat="42.98538" lon="0.53739">
        <ele>1390</ele>
        <time>2019-06-30T08:27:38.000Z</time>
      </trkpt>
      <trkpt lat="42.98538" lon="0.5374">
        <ele>1390</ele>
        <time>2019-06-30T08:27:40.000Z</time>
      </trkpt>
      <trkpt lat="42.98537" lon="0.53741">
        <ele>1390</ele>
        <time>2019-06-30T08:27:42.000Z</time>
      </trkpt>
      <trkpt lat="42.98536" lon="0.53743">
        <ele>1390</ele>
        <time>2019-06-30T08:27:44.000Z</time>
      </trkpt>
      <trkpt lat="42.98534" lon="0.53745">
        <ele>1390</ele>
        <time>2019-06-30T08:27:46.000Z</time>
      </trkpt>
      <trkpt lat="42.98534" lon="0.53747">
        <ele>1390</ele>
        <time>2019-06-30T08:27:48.000Z</time>
      </trkpt>
      <trkpt lat="42.98533" lon="0.53749">
        <ele>1390</ele>
        <time>2019-06-30T08:27:50.000Z</time>
      </trkpt>
      <trkpt lat="42.98532" lon="0.5375">
        <ele>1391</ele>
        <time>2019-06-30T08:27:52.000Z</time>
      </trkpt>
      <trkpt lat="42.98532" lon="0.53752">
        <ele>1391</ele>
        <time>2019-06-30T08:27:54.000Z</time>
      </trkpt>
      <trkpt lat="42.98531" lon="0.53753">
        <ele>1391</ele>
        <time>2019-06-30T08:27:56.000Z</time>
      </trkpt>
      <trkpt lat="42.9853" lon="0.53755">
        <ele>1391</ele>
        <time>2019-06-30T08:27:58.000Z</time>
      </trkpt>
      <trkpt lat="42.98529" lon="0.53757">
        <ele>1391</ele>
        <time>2019-06-30T08:28:00.000Z</time>
      </trkpt>
      <trkpt lat="42.98528" lon="0.53758">
        <ele>1392</ele>
        <time>2019-06-30T08:28:02.000Z</time>
      </trkpt>
      <trkpt lat="42.98527" lon="0.5376">
        <ele>1392</ele>
        <time>2019-06-30T08:28:04.000Z</time>
      </trkpt>
      <trkpt lat="42.98525" lon="0.53762">
        <ele>1393</ele>
        <time>2019-06-30T08:28:06.000Z</time>
      </trkpt>
      <trkpt lat="42.98524" lon="0.53764">
        <ele>1393</ele>
        <time>2019-06-30T08:28:08.000Z</time>
      </trkpt>
      <trkpt lat="42.98523" lon="0.53766">
        <ele>1394</ele>
        <time>2019-06-30T08:28:10.000Z</time>
      </trkpt>
      <trkpt lat="42.98521" lon="0.53767">
        <ele>1394</ele>
        <time>2019-06-30T08:28:12.000Z</time>
      </trkpt>
      <trkpt lat="42.98521" lon="0.53769">
        <ele>1394</ele>
        <time>2019-06-30T08:28:14.000Z</time>
      </trkpt>
      <trkpt lat="42.9852" lon="0.5377">
        <ele>1395</ele>
        <time>2019-06-30T08:28:16.000Z</time>
      </trkpt>
      <trkpt lat="42.98519" lon="0.53772">
        <ele>1395</ele>
        <time>2019-06-30T08:28:18.000Z</time>
      </trkpt>
      <trkpt lat="42.98517" lon="0.53773">
        <ele>1396</ele>
        <time>2019-06-30T08:28:20.000Z</time>
      </trkpt>
      <trkpt lat="42.98516" lon="0.53774">
        <ele>1396</ele>
        <time>2019-06-30T08:28:22.000Z</time>
      </trkpt>
      <trkpt lat="42.98515" lon="0.53776">
        <ele>1396</ele>
        <time>2019-06-30T08:28:24.000Z</time>
      </trkpt>
      <trkpt lat="42.98515" lon="0.53778">
        <ele>1396</ele>
        <time>2019-06-30T08:28:26.000Z</time>
      </trkpt>
      <trkpt lat="42.98514" lon="0.5378">
        <ele>1396</ele>
        <time>2019-06-30T08:28:28.000Z</time>
      </trkpt>
      <trkpt lat="42.98513" lon="0.53782">
        <ele>1397</ele>
        <time>2019-06-30T08:28:30.000Z</time>
      </trkpt>
      <trkpt lat="42.98512" lon="0.53782">
        <ele>1397</ele>
        <time>2019-06-30T08:28:32.000Z</time>
      </trkpt>
      <trkpt lat="42.98511" lon="0.53783">
        <ele>1397</ele>
        <time>2019-06-30T08:28:34.000Z</time>
      </trkpt>
      <trkpt lat="42.98509" lon="0.53783">
        <ele>1398</ele>
        <time>2019-06-30T08:28:36.000Z</time>
      </trkpt>
      <trkpt lat="42.98509" lon="0.53785">
        <ele>1398</ele>
        <time>2019-06-30T08:28:38.000Z</time>
      </trkpt>
      <trkpt lat="42.98508" lon="0.53786">
        <ele>1398</ele>
        <time>2019-06-30T08:28:40.000Z</time>
      </trkpt>
      <trkpt lat="42.98507" lon="0.53787">
        <ele>1399</ele>
        <time>2019-06-30T08:28:42.000Z</time>
      </trkpt>
      <trkpt lat="42.98506" lon="0.53788">
        <ele>1399</ele>
        <time>2019-06-30T08:28:44.000Z</time>
      </trkpt>
      <trkpt lat="42.98506" lon="0.53789">
        <ele>1399</ele>
        <time>2019-06-30T08:28:46.000Z</time>
      </trkpt>
      <trkpt lat="42.98505" lon="0.53789">
        <ele>1399</ele>
        <time>2019-06-30T08:28:48.000Z</time>
      </trkpt>
      <trkpt lat="42.98503" lon="0.5379">
        <ele>1400</ele>
        <time>2019-06-30T08:28:50.000Z</time>
      </trkpt>
      <trkpt lat="42.98501" lon="0.53791">
        <ele>1401</ele>
        <time>2019-06-30T08:28:52.000Z</time>
      </trkpt>
      <trkpt lat="42.98499" lon="0.53793">
        <ele>1401</ele>
        <time>2019-06-30T08:28:54.000Z</time>
      </trkpt>
      <trkpt lat="42.98498" lon="0.53795">
        <ele>1402</ele>
        <time>2019-06-30T08:28:56.000Z</time>
      </trkpt>
      <trkpt lat="42.98496" lon="0.53796">
        <ele>1403</ele>
        <time>2019-06-30T08:28:58.000Z</time>
      </trkpt>
      <trkpt lat="42.98495" lon="0.53798">
        <ele>1403</ele>
        <time>2019-06-30T08:29:00.000Z</time>
      </trkpt>
      <trkpt lat="42.98494" lon="0.53799">
        <ele>1404</ele>
        <time>2019-06-30T08:29:02.000Z</time>
      </trkpt>
      <trkpt lat="42.98492" lon="0.53801">
        <ele>1404</ele>
        <time>2019-06-30T08:29:04.000Z</time>
      </trkpt>
      <trkpt lat="42.98492" lon="0.53802">
        <ele>1404</ele>
        <time>2019-06-30T08:29:06.000Z</time>
      </trkpt>
      <trkpt lat="42.98492" lon="0.53804">
        <ele>1404</ele>
        <time>2019-06-30T08:29:08.000Z</time>
      </trkpt>
      <trkpt lat="42.9849" lon="0.53806">
        <ele>1404</ele>
        <time>2019-06-30T08:29:10.000Z</time>
      </trkpt>
      <trkpt lat="42.9849" lon="0.53807">
        <ele>1404</ele>
        <time>2019-06-30T08:29:12.000Z</time>
      </trkpt>
      <trkpt lat="42.9849" lon="0.53808">
        <ele>1404</ele>
        <time>2019-06-30T08:29:14.000Z</time>
      </trkpt>
      <trkpt lat="42.98489" lon="0.5381">
        <ele>1404</ele>
        <time>2019-06-30T08:29:16.000Z</time>
      </trkpt>
      <trkpt lat="42.98488" lon="0.53812">
        <ele>1404</ele>
        <time>2019-06-30T08:29:18.000Z</time>
      </trkpt>
      <trkpt lat="42.98487" lon="0.53814">
        <ele>1404</ele>
        <time>2019-06-30T08:29:20.000Z</time>
      </trkpt>
      <trkpt lat="42.98486" lon="0.53816">
        <ele>1404</ele>
        <time>2019-06-30T08:29:22.000Z</time>
      </trkpt>
      <trkpt lat="42.98485" lon="0.53817">
        <ele>1404</ele>
        <time>2019-06-30T08:29:24.000Z</time>
      </trkpt>
      <trkpt lat="42.98484" lon="0.53819">
        <ele>1404</ele>
        <time>2019-06-30T08:29:26.000Z</time>
      </trkpt>
      <trkpt lat="42.98484" lon="0.53821">
        <ele>1404</ele>
        <time>2019-06-30T08:29:28.000Z</time>
      </trkpt>
      <trkpt lat="42.98483" lon="0.53823">
        <ele>1404</ele>
        <time>2019-06-30T08:29:30.000Z</time>
      </trkpt>
      <trkpt lat="42.98482" lon="0.53825">
        <ele>1405</ele>
        <time>2019-06-30T08:29:32.000Z</time>
      </trkpt>
      <trkpt lat="42.9848" lon="0.53827">
        <ele>1405</ele>
        <time>2019-06-30T08:29:34.000Z</time>
      </trkpt>
      <trkpt lat="42.98478" lon="0.53828">
        <ele>1406</ele>
        <time>2019-06-30T08:29:36.000Z</time>
      </trkpt>
      <trkpt lat="42.98477" lon="0.53829">
        <ele>1406</ele>
        <time>2019-06-30T08:29:38.000Z</time>
      </trkpt>
      <trkpt lat="42.98477" lon="0.5383">
        <ele>1406</ele>
        <time>2019-06-30T08:29:40.000Z</time>
      </trkpt>
      <trkpt lat="42.98477" lon="0.53832">
        <ele>1406</ele>
        <time>2019-06-30T08:29:42.000Z</time>
      </trkpt>
      <trkpt lat="42.98476" lon="0.53833">
        <ele>1406</ele>
        <time>2019-06-30T08:29:44.000Z</time>
      </trkpt>
      <trkpt lat="42.98476" lon="0.53833">
        <ele>1406</ele>
        <time>2019-06-30T08:29:46.000Z</time>
      </trkpt>
      <trkpt lat="42.98475" lon="0.53835">
        <ele>1406</ele>
        <time>2019-06-30T08:29:48.000Z</time>
      </trkpt>
      <trkpt lat="42.98475" lon="0.53836">
        <ele>1405</ele>
        <time>2019-06-30T08:29:50.000Z</time>
      </trkpt>
      <trkpt lat="42.98474" lon="0.53839">
        <ele>1405</ele>
        <time>2019-06-30T08:29:52.000Z</time>
      </trkpt>
      <trkpt lat="42.98474" lon="0.53841">
        <ele>1405</ele>
        <time>2019-06-30T08:29:54.000Z</time>
      </trkpt>
      <trkpt lat="42.98473" lon="0.53843">
        <ele>1405</ele>
        <time>2019-06-30T08:29:56.000Z</time>
      </trkpt>
      <trkpt lat="42.98473" lon="0.53845">
        <ele>1405</ele>
        <time>2019-06-30T08:29:58.000Z</time>
      </trkpt>
      <trkpt lat="42.98474" lon="0.53847">
        <ele>1404</ele>
        <time>2019-06-30T08:30:00.000Z</time>
      </trkpt>
      <trkpt lat="42.98472" lon="0.53848">
        <ele>1405</ele>
        <time>2019-06-30T08:30:02.000Z</time>
      </trkpt>
      <trkpt lat="42.98471" lon="0.5385">
        <ele>1405</ele>
        <time>2019-06-30T08:30:04.000Z</time>
      </trkpt>
      <trkpt lat="42.98471" lon="0.53851">
        <ele>1405</ele>
        <time>2019-06-30T08:30:06.000Z</time>
      </trkpt>
      <trkpt lat="42.9847" lon="0.53852">
        <ele>1405</ele>
        <time>2019-06-30T08:30:08.000Z</time>
      </trkpt>
      <trkpt lat="42.98468" lon="0.53854">
        <ele>1406</ele>
        <time>2019-06-30T08:30:10.000Z</time>
      </trkpt>
      <trkpt lat="42.98467" lon="0.53856">
        <ele>1406</ele>
        <time>2019-06-30T08:30:12.000Z</time>
      </trkpt>
      <trkpt lat="42.98466" lon="0.53857">
        <ele>1406</ele>
        <time>2019-06-30T08:30:14.000Z</time>
      </trkpt>
      <trkpt lat="42.98466" lon="0.53858">
        <ele>1406</ele>
        <time>2019-06-30T08:30:16.000Z</time>
      </trkpt>
      <trkpt lat="42.98465" lon="0.53859">
        <ele>1407</ele>
        <time>2019-06-30T08:30:18.000Z</time>
      </trkpt>
      <trkpt lat="42.98464" lon="0.53861">
        <ele>1407</ele>
        <time>2019-06-30T08:30:20.000Z</time>
      </trkpt>
      <trkpt lat="42.98463" lon="0.53862">
        <ele>1407</ele>
        <time>2019-06-30T08:30:22.000Z</time>
      </trkpt>
      <trkpt lat="42.98462" lon="0.53865">
        <ele>1407</ele>
        <time>2019-06-30T08:30:24.000Z</time>
      </trkpt>
      <trkpt lat="42.9846" lon="0.53866">
        <ele>1408</ele>
        <time>2019-06-30T08:30:26.000Z</time>
      </trkpt>
      <trkpt lat="42.9846" lon="0.53867">
        <ele>1408</ele>
        <time>2019-06-30T08:30:28.000Z</time>
      </trkpt>
      <trkpt lat="42.98459" lon="0.53868">
        <ele>1408</ele>
        <time>2019-06-30T08:30:30.000Z</time>
      </trkpt>
      <trkpt lat="42.98457" lon="0.53868">
        <ele>1409</ele>
        <time>2019-06-30T08:30:32.000Z</time>
      </trkpt>
      <trkpt lat="42.98456" lon="0.53869">
        <ele>1410</ele>
        <time>2019-06-30T08:30:34.000Z</time>
      </trkpt>
      <trkpt lat="42.98455" lon="0.5387">
        <ele>1410</ele>
        <time>2019-06-30T08:30:36.000Z</time>
      </trkpt>
      <trkpt lat="42.98454" lon="0.53872">
        <ele>1410</ele>
        <time>2019-06-30T08:30:38.000Z</time>
      </trkpt>
      <trkpt lat="42.98454" lon="0.53873">
        <ele>1410</ele>
        <time>2019-06-30T08:30:40.000Z</time>
      </trkpt>
      <trkpt lat="42.98453" lon="0.53874">
        <ele>1410</ele>
        <time>2019-06-30T08:30:42.000Z</time>
      </trkpt>
      <trkpt lat="42.98452" lon="0.53875">
        <ele>1411</ele>
        <time>2019-06-30T08:30:44.000Z</time>
      </trkpt>
      <trkpt lat="42.9845" lon="0.53876">
        <ele>1412</ele>
        <time>2019-06-30T08:30:46.000Z</time>
      </trkpt>
      <trkpt lat="42.9845" lon="0.53878">
        <ele>1412</ele>
        <time>2019-06-30T08:30:48.000Z</time>
      </trkpt>
      <trkpt lat="42.98449" lon="0.5388">
        <ele>1412</ele>
        <time>2019-06-30T08:30:50.000Z</time>
      </trkpt>
      <trkpt lat="42.98449" lon="0.53881">
        <ele>1411</ele>
        <time>2019-06-30T08:30:52.000Z</time>
      </trkpt>
      <trkpt lat="42.98449" lon="0.53882">
        <ele>1411</ele>
        <time>2019-06-30T08:30:54.000Z</time>
      </trkpt>
      <trkpt lat="42.98448" lon="0.53883">
        <ele>1412</ele>
        <time>2019-06-30T08:30:56.000Z</time>
      </trkpt>
      <trkpt lat="42.98447" lon="0.53884">
        <ele>1412</ele>
        <time>2019-06-30T08:30:58.000Z</time>
      </trkpt>
      <trkpt lat="42.98446" lon="0.53886">
        <ele>1412</ele>
        <time>2019-06-30T08:31:00.000Z</time>
      </trkpt>
      <trkpt lat="42.98445" lon="0.53887">
        <ele>1413</ele>
        <time>2019-06-30T08:31:02.000Z</time>
      </trkpt>
      <trkpt lat="42.98444" lon="0.53889">
        <ele>1413</ele>
        <time>2019-06-30T08:31:04.000Z</time>
      </trkpt>
      <trkpt lat="42.98443" lon="0.5389">
        <ele>1413</ele>
        <time>2019-06-30T08:31:06.000Z</time>
      </trkpt>
      <trkpt lat="42.98442" lon="0.53891">
        <ele>1413</ele>
        <time>2019-06-30T08:31:08.000Z</time>
      </trkpt>
      <trkpt lat="42.98441" lon="0.53893">
        <ele>1413</ele>
        <time>2019-06-30T08:31:10.000Z</time>
      </trkpt>
      <trkpt lat="42.98438" lon="0.53896">
        <ele>1414</ele>
        <time>2019-06-30T08:31:12.000Z</time>
      </trkpt>
      <trkpt lat="42.98437" lon="0.53897">
        <ele>1414</ele>
        <time>2019-06-30T08:31:14.000Z</time>
      </trkpt>
      <trkpt lat="42.98437" lon="0.53899">
        <ele>1414</ele>
        <time>2019-06-30T08:31:16.000Z</time>
      </trkpt>
      <trkpt lat="42.98435" lon="0.53901">
        <ele>1414</ele>
        <time>2019-06-30T08:31:18.000Z</time>
      </trkpt>
      <trkpt lat="42.98433" lon="0.53903">
        <ele>1415</ele>
        <time>2019-06-30T08:31:20.000Z</time>
      </trkpt>
      <trkpt lat="42.98432" lon="0.53904">
        <ele>1415</ele>
        <time>2019-06-30T08:31:22.000Z</time>
      </trkpt>
      <trkpt lat="42.9843" lon="0.53906">
        <ele>1416</ele>
        <time>2019-06-30T08:31:24.000Z</time>
      </trkpt>
      <trkpt lat="42.98428" lon="0.53907">
        <ele>1417</ele>
        <time>2019-06-30T08:31:26.000Z</time>
      </trkpt>
      <trkpt lat="42.98427" lon="0.53908">
        <ele>1417</ele>
        <time>2019-06-30T08:31:28.000Z</time>
      </trkpt>
      <trkpt lat="42.98427" lon="0.5391">
        <ele>1417</ele>
        <time>2019-06-30T08:31:30.000Z</time>
      </trkpt>
      <trkpt lat="42.98427" lon="0.53911">
        <ele>1417</ele>
        <time>2019-06-30T08:31:32.000Z</time>
      </trkpt>
      <trkpt lat="42.98426" lon="0.53913">
        <ele>1417</ele>
        <time>2019-06-30T08:31:34.000Z</time>
      </trkpt>
      <trkpt lat="42.98426" lon="0.53914">
        <ele>1417</ele>
        <time>2019-06-30T08:31:36.000Z</time>
      </trkpt>
      <trkpt lat="42.98425" lon="0.53914">
        <ele>1417</ele>
        <time>2019-06-30T08:31:38.000Z</time>
      </trkpt>
      <trkpt lat="42.98425" lon="0.53915">
        <ele>1417</ele>
        <time>2019-06-30T08:31:40.000Z</time>
      </trkpt>
      <trkpt lat="42.98424" lon="0.53917">
        <ele>1417</ele>
        <time>2019-06-30T08:31:42.000Z</time>
      </trkpt>
      <trkpt lat="42.98421" lon="0.53918">
        <ele>1417</ele>
        <time>2019-06-30T08:31:44.000Z</time>
      </trkpt>
      <trkpt lat="42.98421" lon="0.5392">
        <ele>1417</ele>
        <time>2019-06-30T08:31:46.000Z</time>
      </trkpt>
      <trkpt lat="42.9842" lon="0.53921">
        <ele>1417</ele>
        <time>2019-06-30T08:31:48.000Z</time>
      </trkpt>
      <trkpt lat="42.9842" lon="0.53923">
        <ele>1417</ele>
        <time>2019-06-30T08:31:50.000Z</time>
      </trkpt>
      <trkpt lat="42.98419" lon="0.53924">
        <ele>1417</ele>
        <time>2019-06-30T08:31:52.000Z</time>
      </trkpt>
      <trkpt lat="42.98419" lon="0.53925">
        <ele>1417</ele>
        <time>2019-06-30T08:31:54.000Z</time>
      </trkpt>
      <trkpt lat="42.98418" lon="0.53926">
        <ele>1417</ele>
        <time>2019-06-30T08:31:56.000Z</time>
      </trkpt>
      <trkpt lat="42.98417" lon="0.53928">
        <ele>1417</ele>
        <time>2019-06-30T08:31:58.000Z</time>
      </trkpt>
      <trkpt lat="42.98416" lon="0.53929">
        <ele>1417</ele>
        <time>2019-06-30T08:32:00.000Z</time>
      </trkpt>
      <trkpt lat="42.98414" lon="0.53931">
        <ele>1417</ele>
        <time>2019-06-30T08:32:02.000Z</time>
      </trkpt>
      <trkpt lat="42.98412" lon="0.53932">
        <ele>1417</ele>
        <time>2019-06-30T08:32:04.000Z</time>
      </trkpt>
      <trkpt lat="42.98411" lon="0.53933">
        <ele>1417</ele>
        <time>2019-06-30T08:32:06.000Z</time>
      </trkpt>
      <trkpt lat="42.98411" lon="0.53935">
        <ele>1417</ele>
        <time>2019-06-30T08:32:08.000Z</time>
      </trkpt>
      <trkpt lat="42.9841" lon="0.53936">
        <ele>1417</ele>
        <time>2019-06-30T08:32:10.000Z</time>
      </trkpt>
      <trkpt lat="42.98409" lon="0.53938">
        <ele>1417</ele>
        <time>2019-06-30T08:32:12.000Z</time>
      </trkpt>
      <trkpt lat="42.98408" lon="0.5394">
        <ele>1417</ele>
        <time>2019-06-30T08:32:14.000Z</time>
      </trkpt>
      <trkpt lat="42.98407" lon="0.53941">
        <ele>1417</ele>
        <time>2019-06-30T08:32:16.000Z</time>
      </trkpt>
      <trkpt lat="42.98407" lon="0.53943">
        <ele>1417</ele>
        <time>2019-06-30T08:32:18.000Z</time>
      </trkpt>
      <trkpt lat="42.98405" lon="0.53944">
        <ele>1417</ele>
        <time>2019-06-30T08:32:20.000Z</time>
      </trkpt>
      <trkpt lat="42.98403" lon="0.53945">
        <ele>1418</ele>
        <time>2019-06-30T08:32:22.000Z</time>
      </trkpt>
      <trkpt lat="42.98401" lon="0.53947">
        <ele>1418</ele>
        <time>2019-06-30T08:32:24.000Z</time>
      </trkpt>
      <trkpt lat="42.98399" lon="0.53948">
        <ele>1418</ele>
        <time>2019-06-30T08:32:26.000Z</time>
      </trkpt>
      <trkpt lat="42.98398" lon="0.53949">
        <ele>1418</ele>
        <time>2019-06-30T08:32:28.000Z</time>
      </trkpt>
      <trkpt lat="42.98397" lon="0.5395">
        <ele>1418</ele>
        <time>2019-06-30T08:32:30.000Z</time>
      </trkpt>
      <trkpt lat="42.98395" lon="0.53951">
        <ele>1419</ele>
        <time>2019-06-30T08:32:32.000Z</time>
      </trkpt>
      <trkpt lat="42.98393" lon="0.53952">
        <ele>1419</ele>
        <time>2019-06-30T08:32:34.000Z</time>
      </trkpt>
      <trkpt lat="42.98393" lon="0.53953">
        <ele>1419</ele>
        <time>2019-06-30T08:32:36.000Z</time>
      </trkpt>
      <trkpt lat="42.98391" lon="0.53953">
        <ele>1420</ele>
        <time>2019-06-30T08:32:38.000Z</time>
      </trkpt>
      <trkpt lat="42.9839" lon="0.53954">
        <ele>1420</ele>
        <time>2019-06-30T08:32:40.000Z</time>
      </trkpt>
      <trkpt lat="42.98389" lon="0.53954">
        <ele>1420</ele>
        <time>2019-06-30T08:32:42.000Z</time>
      </trkpt>
      <trkpt lat="42.98388" lon="0.53955">
        <ele>1420</ele>
        <time>2019-06-30T08:32:44.000Z</time>
      </trkpt>
      <trkpt lat="42.98386" lon="0.53957">
        <ele>1420</ele>
        <time>2019-06-30T08:32:46.000Z</time>
      </trkpt>
      <trkpt lat="42.98385" lon="0.53959">
        <ele>1420</ele>
        <time>2019-06-30T08:32:48.000Z</time>
      </trkpt>
      <trkpt lat="42.98384" lon="0.53959">
        <ele>1420</ele>
        <time>2019-06-30T08:32:50.000Z</time>
      </trkpt>
      <trkpt lat="42.98383" lon="0.5396">
        <ele>1420</ele>
        <time>2019-06-30T08:32:52.000Z</time>
      </trkpt>
      <trkpt lat="42.98381" lon="0.53962">
        <ele>1421</ele>
        <time>2019-06-30T08:32:54.000Z</time>
      </trkpt>
      <trkpt lat="42.98381" lon="0.53963">
        <ele>1420</ele>
        <time>2019-06-30T08:32:56.000Z</time>
      </trkpt>
      <trkpt lat="42.9838" lon="0.53965">
        <ele>1420</ele>
        <time>2019-06-30T08:32:58.000Z</time>
      </trkpt>
      <trkpt lat="42.98379" lon="0.53966">
        <ele>1420</ele>
        <time>2019-06-30T08:33:00.000Z</time>
      </trkpt>
      <trkpt lat="42.98378" lon="0.53968">
        <ele>1420</ele>
        <time>2019-06-30T08:33:02.000Z</time>
      </trkpt>
      <trkpt lat="42.98376" lon="0.53969">
        <ele>1420</ele>
        <time>2019-06-30T08:33:04.000Z</time>
      </trkpt>
      <trkpt lat="42.98375" lon="0.53969">
        <ele>1421</ele>
        <time>2019-06-30T08:33:06.000Z</time>
      </trkpt>
      <trkpt lat="42.98374" lon="0.5397">
        <ele>1421</ele>
        <time>2019-06-30T08:33:08.000Z</time>
      </trkpt>
      <trkpt lat="42.98373" lon="0.53972">
        <ele>1421</ele>
        <time>2019-06-30T08:33:10.000Z</time>
      </trkpt>
      <trkpt lat="42.98372" lon="0.53972">
        <ele>1421</ele>
        <time>2019-06-30T08:33:12.000Z</time>
      </trkpt>
      <trkpt lat="42.98371" lon="0.53973">
        <ele>1421</ele>
        <time>2019-06-30T08:33:14.000Z</time>
      </trkpt>
      <trkpt lat="42.98369" lon="0.53975">
        <ele>1421</ele>
        <time>2019-06-30T08:33:16.000Z</time>
      </trkpt>
      <trkpt lat="42.98368" lon="0.53976">
        <ele>1421</ele>
        <time>2019-06-30T08:33:18.000Z</time>
      </trkpt>
      <trkpt lat="42.98368" lon="0.53977">
        <ele>1421</ele>
        <time>2019-06-30T08:33:20.000Z</time>
      </trkpt>
      <trkpt lat="42.98367" lon="0.53977">
        <ele>1422</ele>
        <time>2019-06-30T08:33:22.000Z</time>
      </trkpt>
      <trkpt lat="42.98367" lon="0.53977">
        <ele>1421</ele>
        <time>2019-06-30T08:33:24.000Z</time>
      </trkpt>
      <trkpt lat="42.98365" lon="0.53978">
        <ele>1422</ele>
        <time>2019-06-30T08:33:26.000Z</time>
      </trkpt>
      <trkpt lat="42.98364" lon="0.53978">
        <ele>1422</ele>
        <time>2019-06-30T08:33:28.000Z</time>
      </trkpt>
      <trkpt lat="42.98363" lon="0.53978">
        <ele>1423</ele>
        <time>2019-06-30T08:33:30.000Z</time>
      </trkpt>
      <trkpt lat="42.98362" lon="0.53977">
        <ele>1423</ele>
        <time>2019-06-30T08:33:32.000Z</time>
      </trkpt>
      <trkpt lat="42.98362" lon="0.53977">
        <ele>1423</ele>
        <time>2019-06-30T08:33:34.000Z</time>
      </trkpt>
      <trkpt lat="42.98361" lon="0.53976">
        <ele>1424</ele>
        <time>2019-06-30T08:33:36.000Z</time>
      </trkpt>
      <trkpt lat="42.98361" lon="0.53975">
        <ele>1424</ele>
        <time>2019-06-30T08:33:38.000Z</time>
      </trkpt>
      <trkpt lat="42.98359" lon="0.53976">
        <ele>1424</ele>
        <time>2019-06-30T08:33:40.000Z</time>
      </trkpt>
      <trkpt lat="42.98358" lon="0.53976">
        <ele>1425</ele>
        <time>2019-06-30T08:33:42.000Z</time>
      </trkpt>
      <trkpt lat="42.98356" lon="0.53976">
        <ele>1425</ele>
        <time>2019-06-30T08:33:44.000Z</time>
      </trkpt>
      <trkpt lat="42.98355" lon="0.53975">
        <ele>1426</ele>
        <time>2019-06-30T08:33:46.000Z</time>
      </trkpt>
      <trkpt lat="42.98354" lon="0.53975">
        <ele>1426</ele>
        <time>2019-06-30T08:33:48.000Z</time>
      </trkpt>
      <trkpt lat="42.98352" lon="0.53974">
        <ele>1427</ele>
        <time>2019-06-30T08:33:50.000Z</time>
      </trkpt>
      <trkpt lat="42.98351" lon="0.53975">
        <ele>1427</ele>
        <time>2019-06-30T08:33:52.000Z</time>
      </trkpt>
      <trkpt lat="42.9835" lon="0.53975">
        <ele>1427</ele>
        <time>2019-06-30T08:33:54.000Z</time>
      </trkpt>
      <trkpt lat="42.98349" lon="0.53975">
        <ele>1428</ele>
        <time>2019-06-30T08:33:56.000Z</time>
      </trkpt>
      <trkpt lat="42.98349" lon="0.53974">
        <ele>1428</ele>
        <time>2019-06-30T08:33:58.000Z</time>
      </trkpt>
      <trkpt lat="42.98349" lon="0.53975">
        <ele>1428</ele>
        <time>2019-06-30T08:34:00.000Z</time>
      </trkpt>
      <trkpt lat="42.98348" lon="0.53975">
        <ele>1428</ele>
        <time>2019-06-30T08:34:02.000Z</time>
      </trkpt>
      <trkpt lat="42.98346" lon="0.53976">
        <ele>1428</ele>
        <time>2019-06-30T08:34:04.000Z</time>
      </trkpt>
      <trkpt lat="42.98345" lon="0.53976">
        <ele>1429</ele>
        <time>2019-06-30T08:34:06.000Z</time>
      </trkpt>
      <trkpt lat="42.98344" lon="0.53977">
        <ele>1429</ele>
        <time>2019-06-30T08:34:08.000Z</time>
      </trkpt>
      <trkpt lat="42.98342" lon="0.53977">
        <ele>1429</ele>
        <time>2019-06-30T08:34:10.000Z</time>
      </trkpt>
      <trkpt lat="42.98341" lon="0.53978">
        <ele>1430</ele>
        <time>2019-06-30T08:34:12.000Z</time>
      </trkpt>
      <trkpt lat="42.98339" lon="0.53978">
        <ele>1430</ele>
        <time>2019-06-30T08:34:14.000Z</time>
      </trkpt>
      <trkpt lat="42.98337" lon="0.53979">
        <ele>1431</ele>
        <time>2019-06-30T08:34:16.000Z</time>
      </trkpt>
      <trkpt lat="42.98335" lon="0.5398">
        <ele>1431</ele>
        <time>2019-06-30T08:34:18.000Z</time>
      </trkpt>
      <trkpt lat="42.98334" lon="0.5398">
        <ele>1432</ele>
        <time>2019-06-30T08:34:20.000Z</time>
      </trkpt>
      <trkpt lat="42.98331" lon="0.5398">
        <ele>1433</ele>
        <time>2019-06-30T08:34:22.000Z</time>
      </trkpt>
      <trkpt lat="42.9833" lon="0.53981">
        <ele>1433</ele>
        <time>2019-06-30T08:34:24.000Z</time>
      </trkpt>
      <trkpt lat="42.98328" lon="0.5398">
        <ele>1434</ele>
        <time>2019-06-30T08:34:26.000Z</time>
      </trkpt>
      <trkpt lat="42.98327" lon="0.53981">
        <ele>1434</ele>
        <time>2019-06-30T08:34:28.000Z</time>
      </trkpt>
      <trkpt lat="42.98326" lon="0.5398">
        <ele>1434</ele>
        <time>2019-06-30T08:34:30.000Z</time>
      </trkpt>
      <trkpt lat="42.98325" lon="0.53981">
        <ele>1435</ele>
        <time>2019-06-30T08:34:32.000Z</time>
      </trkpt>
      <trkpt lat="42.98323" lon="0.53981">
        <ele>1435</ele>
        <time>2019-06-30T08:34:34.000Z</time>
      </trkpt>
      <trkpt lat="42.98322" lon="0.53982">
        <ele>1436</ele>
        <time>2019-06-30T08:34:36.000Z</time>
      </trkpt>
      <trkpt lat="42.98321" lon="0.53982">
        <ele>1436</ele>
        <time>2019-06-30T08:34:38.000Z</time>
      </trkpt>
      <trkpt lat="42.98319" lon="0.53981">
        <ele>1437</ele>
        <time>2019-06-30T08:34:40.000Z</time>
      </trkpt>
      <trkpt lat="42.98317" lon="0.53981">
        <ele>1438</ele>
        <time>2019-06-30T08:34:42.000Z</time>
      </trkpt>
      <trkpt lat="42.98315" lon="0.53981">
        <ele>1438</ele>
        <time>2019-06-30T08:34:44.000Z</time>
      </trkpt>
      <trkpt lat="42.98315" lon="0.53981">
        <ele>1438</ele>
        <time>2019-06-30T08:34:46.000Z</time>
      </trkpt>
      <trkpt lat="42.98314" lon="0.53981">
        <ele>1439</ele>
        <time>2019-06-30T08:34:48.000Z</time>
      </trkpt>
      <trkpt lat="42.98314" lon="0.53981">
        <ele>1439</ele>
        <time>2019-06-30T08:34:50.000Z</time>
      </trkpt>
      <trkpt lat="42.98312" lon="0.53983">
        <ele>1439</ele>
        <time>2019-06-30T08:34:52.000Z</time>
      </trkpt>
      <trkpt lat="42.98311" lon="0.53984">
        <ele>1439</ele>
        <time>2019-06-30T08:34:54.000Z</time>
      </trkpt>
      <trkpt lat="42.98309" lon="0.53985">
        <ele>1440</ele>
        <time>2019-06-30T08:34:56.000Z</time>
      </trkpt>
      <trkpt lat="42.98308" lon="0.53985">
        <ele>1440</ele>
        <time>2019-06-30T08:34:58.000Z</time>
      </trkpt>
      <trkpt lat="42.98307" lon="0.53986">
        <ele>1440</ele>
        <time>2019-06-30T08:35:00.000Z</time>
      </trkpt>
      <trkpt lat="42.98306" lon="0.53987">
        <ele>1440</ele>
        <time>2019-06-30T08:35:02.000Z</time>
      </trkpt>
      <trkpt lat="42.98305" lon="0.53988">
        <ele>1440</ele>
        <time>2019-06-30T08:35:04.000Z</time>
      </trkpt>
      <trkpt lat="42.98304" lon="0.53988">
        <ele>1441</ele>
        <time>2019-06-30T08:35:06.000Z</time>
      </trkpt>
      <trkpt lat="42.98303" lon="0.53989">
        <ele>1441</ele>
        <time>2019-06-30T08:35:08.000Z</time>
      </trkpt>
      <trkpt lat="42.98302" lon="0.5399">
        <ele>1441</ele>
        <time>2019-06-30T08:35:10.000Z</time>
      </trkpt>
      <trkpt lat="42.98301" lon="0.53991">
        <ele>1441</ele>
        <time>2019-06-30T08:35:12.000Z</time>
      </trkpt>
      <trkpt lat="42.98299" lon="0.53993">
        <ele>1441</ele>
        <time>2019-06-30T08:35:14.000Z</time>
      </trkpt>
      <trkpt lat="42.98298" lon="0.53994">
        <ele>1442</ele>
        <time>2019-06-30T08:35:16.000Z</time>
      </trkpt>
      <trkpt lat="42.98296" lon="0.53995">
        <ele>1442</ele>
        <time>2019-06-30T08:35:18.000Z</time>
      </trkpt>
      <trkpt lat="42.98294" lon="0.53997">
        <ele>1442</ele>
        <time>2019-06-30T08:35:20.000Z</time>
      </trkpt>
      <trkpt lat="42.98292" lon="0.53998">
        <ele>1443</ele>
        <time>2019-06-30T08:35:22.000Z</time>
      </trkpt>
      <trkpt lat="42.98291" lon="0.53998">
        <ele>1443</ele>
        <time>2019-06-30T08:35:24.000Z</time>
      </trkpt>
      <trkpt lat="42.98291" lon="0.53999">
        <ele>1443</ele>
        <time>2019-06-30T08:35:26.000Z</time>
      </trkpt>
      <trkpt lat="42.9829" lon="0.54">
        <ele>1443</ele>
        <time>2019-06-30T08:35:28.000Z</time>
      </trkpt>
      <trkpt lat="42.9829" lon="0.54">
        <ele>1443</ele>
        <time>2019-06-30T08:35:30.000Z</time>
      </trkpt>
      <trkpt lat="42.98289" lon="0.54">
        <ele>1443</ele>
        <time>2019-06-30T08:35:32.000Z</time>
      </trkpt>
      <trkpt lat="42.98288" lon="0.54001">
        <ele>1443</ele>
        <time>2019-06-30T08:35:34.000Z</time>
      </trkpt>
      <trkpt lat="42.98287" lon="0.54001">
        <ele>1444</ele>
        <time>2019-06-30T08:35:36.000Z</time>
      </trkpt>
      <trkpt lat="42.98286" lon="0.54001">
        <ele>1444</ele>
        <time>2019-06-30T08:35:38.000Z</time>
      </trkpt>
      <trkpt lat="42.98285" lon="0.54001">
        <ele>1444</ele>
        <time>2019-06-30T08:35:40.000Z</time>
      </trkpt>
      <trkpt lat="42.98284" lon="0.54002">
        <ele>1444</ele>
        <time>2019-06-30T08:35:42.000Z</time>
      </trkpt>
      <trkpt lat="42.98282" lon="0.54003">
        <ele>1445</ele>
        <time>2019-06-30T08:35:44.000Z</time>
      </trkpt>
      <trkpt lat="42.9828" lon="0.54003">
        <ele>1445</ele>
        <time>2019-06-30T08:35:46.000Z</time>
      </trkpt>
      <trkpt lat="42.98279" lon="0.54004">
        <ele>1446</ele>
        <time>2019-06-30T08:35:48.000Z</time>
      </trkpt>
      <trkpt lat="42.98277" lon="0.54005">
        <ele>1446</ele>
        <time>2019-06-30T08:35:50.000Z</time>
      </trkpt>
      <trkpt lat="42.98277" lon="0.54006">
        <ele>1446</ele>
        <time>2019-06-30T08:35:52.000Z</time>
      </trkpt>
      <trkpt lat="42.98276" lon="0.54007">
        <ele>1446</ele>
        <time>2019-06-30T08:35:54.000Z</time>
      </trkpt>
      <trkpt lat="42.98274" lon="0.54008">
        <ele>1446</ele>
        <time>2019-06-30T08:35:56.000Z</time>
      </trkpt>
      <trkpt lat="42.98273" lon="0.54009">
        <ele>1446</ele>
        <time>2019-06-30T08:35:58.000Z</time>
      </trkpt>
      <trkpt lat="42.98271" lon="0.5401">
        <ele>1446</ele>
        <time>2019-06-30T08:36:00.000Z</time>
      </trkpt>
      <trkpt lat="42.9827" lon="0.54011">
        <ele>1446</ele>
        <time>2019-06-30T08:36:02.000Z</time>
      </trkpt>
      <trkpt lat="42.98269" lon="0.54011">
        <ele>1447</ele>
        <time>2019-06-30T08:36:04.000Z</time>
      </trkpt>
      <trkpt lat="42.98267" lon="0.54013">
        <ele>1447</ele>
        <time>2019-06-30T08:36:06.000Z</time>
      </trkpt>
      <trkpt lat="42.98266" lon="0.54014">
        <ele>1447</ele>
        <time>2019-06-30T08:36:08.000Z</time>
      </trkpt>
      <trkpt lat="42.98264" lon="0.54015">
        <ele>1447</ele>
        <time>2019-06-30T08:36:10.000Z</time>
      </trkpt>
      <trkpt lat="42.98264" lon="0.54016">
        <ele>1447</ele>
        <time>2019-06-30T08:36:12.000Z</time>
      </trkpt>
      <trkpt lat="42.98263" lon="0.54018">
        <ele>1447</ele>
        <time>2019-06-30T08:36:14.000Z</time>
      </trkpt>
      <trkpt lat="42.98262" lon="0.54018">
        <ele>1447</ele>
        <time>2019-06-30T08:36:16.000Z</time>
      </trkpt>
      <trkpt lat="42.98261" lon="0.54019">
        <ele>1447</ele>
        <time>2019-06-30T08:36:18.000Z</time>
      </trkpt>
      <trkpt lat="42.9826" lon="0.5402">
        <ele>1447</ele>
        <time>2019-06-30T08:36:20.000Z</time>
      </trkpt>
      <trkpt lat="42.9826" lon="0.5402">
        <ele>1447</ele>
        <time>2019-06-30T08:36:22.000Z</time>
      </trkpt>
      <trkpt lat="42.98259" lon="0.54021">
        <ele>1447</ele>
        <time>2019-06-30T08:36:24.000Z</time>
      </trkpt>
      <trkpt lat="42.98259" lon="0.54021">
        <ele>1447</ele>
        <time>2019-06-30T08:36:26.000Z</time>
      </trkpt>
      <trkpt lat="42.98258" lon="0.54022">
        <ele>1447</ele>
        <time>2019-06-30T08:36:28.000Z</time>
      </trkpt>
      <trkpt lat="42.98257" lon="0.54023">
        <ele>1448</ele>
        <time>2019-06-30T08:36:30.000Z</time>
      </trkpt>
      <trkpt lat="42.98256" lon="0.54023">
        <ele>1448</ele>
        <time>2019-06-30T08:36:32.000Z</time>
      </trkpt>
      <trkpt lat="42.98254" lon="0.54025">
        <ele>1448</ele>
        <time>2019-06-30T08:36:34.000Z</time>
      </trkpt>
      <trkpt lat="42.98252" lon="0.54026">
        <ele>1448</ele>
        <time>2019-06-30T08:36:36.000Z</time>
      </trkpt>
      <trkpt lat="42.98251" lon="0.54027">
        <ele>1448</ele>
        <time>2019-06-30T08:36:38.000Z</time>
      </trkpt>
      <trkpt lat="42.98249" lon="0.54029">
        <ele>1449</ele>
        <time>2019-06-30T08:36:40.000Z</time>
      </trkpt>
      <trkpt lat="42.98247" lon="0.54031">
        <ele>1449</ele>
        <time>2019-06-30T08:36:42.000Z</time>
      </trkpt>
      <trkpt lat="42.98246" lon="0.54033">
        <ele>1449</ele>
        <time>2019-06-30T08:36:44.000Z</time>
      </trkpt>
      <trkpt lat="42.98245" lon="0.54034">
        <ele>1449</ele>
        <time>2019-06-30T08:36:46.000Z</time>
      </trkpt>
      <trkpt lat="42.98243" lon="0.54035">
        <ele>1449</ele>
        <time>2019-06-30T08:36:48.000Z</time>
      </trkpt>
      <trkpt lat="42.98242" lon="0.54036">
        <ele>1449</ele>
        <time>2019-06-30T08:36:50.000Z</time>
      </trkpt>
      <trkpt lat="42.98241" lon="0.54037">
        <ele>1449</ele>
        <time>2019-06-30T08:36:52.000Z</time>
      </trkpt>
      <trkpt lat="42.9824" lon="0.54037">
        <ele>1450</ele>
        <time>2019-06-30T08:36:54.000Z</time>
      </trkpt>
      <trkpt lat="42.98239" lon="0.54038">
        <ele>1450</ele>
        <time>2019-06-30T08:36:56.000Z</time>
      </trkpt>
      <trkpt lat="42.98238" lon="0.54039">
        <ele>1450</ele>
        <time>2019-06-30T08:36:58.000Z</time>
      </trkpt>
      <trkpt lat="42.98237" lon="0.5404">
        <ele>1450</ele>
        <time>2019-06-30T08:37:00.000Z</time>
      </trkpt>
      <trkpt lat="42.98236" lon="0.5404">
        <ele>1450</ele>
        <time>2019-06-30T08:37:02.000Z</time>
      </trkpt>
      <trkpt lat="42.98235" lon="0.54041">
        <ele>1450</ele>
        <time>2019-06-30T08:37:04.000Z</time>
      </trkpt>
      <trkpt lat="42.98233" lon="0.54041">
        <ele>1451</ele>
        <time>2019-06-30T08:37:06.000Z</time>
      </trkpt>
      <trkpt lat="42.98232" lon="0.54041">
        <ele>1451</ele>
        <time>2019-06-30T08:37:08.000Z</time>
      </trkpt>
      <trkpt lat="42.9823" lon="0.54042">
        <ele>1452</ele>
        <time>2019-06-30T08:37:10.000Z</time>
      </trkpt>
      <trkpt lat="42.98228" lon="0.54043">
        <ele>1452</ele>
        <time>2019-06-30T08:37:12.000Z</time>
      </trkpt>
      <trkpt lat="42.98228" lon="0.54044">
        <ele>1452</ele>
        <time>2019-06-30T08:37:14.000Z</time>
      </trkpt>
      <trkpt lat="42.98226" lon="0.54044">
        <ele>1452</ele>
        <time>2019-06-30T08:37:16.000Z</time>
      </trkpt>
      <trkpt lat="42.98225" lon="0.54045">
        <ele>1453</ele>
        <time>2019-06-30T08:37:18.000Z</time>
      </trkpt>
      <trkpt lat="42.98224" lon="0.54045">
        <ele>1453</ele>
        <time>2019-06-30T08:37:20.000Z</time>
      </trkpt>
      <trkpt lat="42.98223" lon="0.54046">
        <ele>1452</ele>
        <time>2019-06-30T08:37:22.000Z</time>
      </trkpt>
      <trkpt lat="42.98222" lon="0.54047">
        <ele>1453</ele>
        <time>2019-06-30T08:37:24.000Z</time>
      </trkpt>
      <trkpt lat="42.98224" lon="0.54047">
        <ele>1452</ele>
        <time>2019-06-30T08:37:26.000Z</time>
      </trkpt>
      <trkpt lat="42.98223" lon="0.54047">
        <ele>1452</ele>
        <time>2019-06-30T08:37:28.000Z</time>
      </trkpt>
      <trkpt lat="42.98221" lon="0.54048">
        <ele>1453</ele>
        <time>2019-06-30T08:37:30.000Z</time>
      </trkpt>
      <trkpt lat="42.98219" lon="0.54048">
        <ele>1453</ele>
        <time>2019-06-30T08:37:32.000Z</time>
      </trkpt>
      <trkpt lat="42.98218" lon="0.54049">
        <ele>1454</ele>
        <time>2019-06-30T08:37:34.000Z</time>
      </trkpt>
      <trkpt lat="42.98215" lon="0.54049">
        <ele>1454</ele>
        <time>2019-06-30T08:37:36.000Z</time>
      </trkpt>
      <trkpt lat="42.98214" lon="0.5405">
        <ele>1454</ele>
        <time>2019-06-30T08:37:38.000Z</time>
      </trkpt>
      <trkpt lat="42.98213" lon="0.5405">
        <ele>1455</ele>
        <time>2019-06-30T08:37:40.000Z</time>
      </trkpt>
      <trkpt lat="42.98211" lon="0.54051">
        <ele>1455</ele>
        <time>2019-06-30T08:37:42.000Z</time>
      </trkpt>
      <trkpt lat="42.98211" lon="0.54051">
        <ele>1456</ele>
        <time>2019-06-30T08:37:44.000Z</time>
      </trkpt>
      <trkpt lat="42.98209" lon="0.54051">
        <ele>1456</ele>
        <time>2019-06-30T08:37:46.000Z</time>
      </trkpt>
      <trkpt lat="42.98208" lon="0.54051">
        <ele>1456</ele>
        <time>2019-06-30T08:37:48.000Z</time>
      </trkpt>
      <trkpt lat="42.98206" lon="0.54052">
        <ele>1457</ele>
        <time>2019-06-30T08:37:50.000Z</time>
      </trkpt>
      <trkpt lat="42.98206" lon="0.54052">
        <ele>1457</ele>
        <time>2019-06-30T08:37:52.000Z</time>
      </trkpt>
      <trkpt lat="42.98204" lon="0.54053">
        <ele>1457</ele>
        <time>2019-06-30T08:37:54.000Z</time>
      </trkpt>
      <trkpt lat="42.98203" lon="0.54054">
        <ele>1457</ele>
        <time>2019-06-30T08:37:56.000Z</time>
      </trkpt>
      <trkpt lat="42.98203" lon="0.54055">
        <ele>1456</ele>
        <time>2019-06-30T08:37:58.000Z</time>
      </trkpt>
      <trkpt lat="42.98202" lon="0.54056">
        <ele>1456</ele>
        <time>2019-06-30T08:38:00.000Z</time>
      </trkpt>
      <trkpt lat="42.98201" lon="0.54057">
        <ele>1456</ele>
        <time>2019-06-30T08:38:02.000Z</time>
      </trkpt>
      <trkpt lat="42.98201" lon="0.54058">
        <ele>1456</ele>
        <time>2019-06-30T08:38:04.000Z</time>
      </trkpt>
      <trkpt lat="42.98201" lon="0.54058">
        <ele>1456</ele>
        <time>2019-06-30T08:38:06.000Z</time>
      </trkpt>
      <trkpt lat="42.982" lon="0.54058">
        <ele>1456</ele>
        <time>2019-06-30T08:38:08.000Z</time>
      </trkpt>
      <trkpt lat="42.98199" lon="0.54059">
        <ele>1456</ele>
        <time>2019-06-30T08:38:10.000Z</time>
      </trkpt>
      <trkpt lat="42.98199" lon="0.54059">
        <ele>1456</ele>
        <time>2019-06-30T08:38:12.000Z</time>
      </trkpt>
      <trkpt lat="42.98197" lon="0.54059">
        <ele>1457</ele>
        <time>2019-06-30T08:38:14.000Z</time>
      </trkpt>
      <trkpt lat="42.98194" lon="0.5406">
        <ele>1458</ele>
        <time>2019-06-30T08:38:16.000Z</time>
      </trkpt>
      <trkpt lat="42.98193" lon="0.5406">
        <ele>1458</ele>
        <time>2019-06-30T08:38:18.000Z</time>
      </trkpt>
      <trkpt lat="42.98192" lon="0.5406">
        <ele>1458</ele>
        <time>2019-06-30T08:38:20.000Z</time>
      </trkpt>
      <trkpt lat="42.9819" lon="0.5406">
        <ele>1459</ele>
        <time>2019-06-30T08:38:22.000Z</time>
      </trkpt>
      <trkpt lat="42.98189" lon="0.54062">
        <ele>1459</ele>
        <time>2019-06-30T08:38:24.000Z</time>
      </trkpt>
      <trkpt lat="42.98188" lon="0.54062">
        <ele>1459</ele>
        <time>2019-06-30T08:38:26.000Z</time>
      </trkpt>
      <trkpt lat="42.98187" lon="0.54063">
        <ele>1459</ele>
        <time>2019-06-30T08:38:28.000Z</time>
      </trkpt>
      <trkpt lat="42.98186" lon="0.54064">
        <ele>1459</ele>
        <time>2019-06-30T08:38:30.000Z</time>
      </trkpt>
      <trkpt lat="42.98184" lon="0.54065">
        <ele>1459</ele>
        <time>2019-06-30T08:38:32.000Z</time>
      </trkpt>
      <trkpt lat="42.98183" lon="0.54065">
        <ele>1459</ele>
        <time>2019-06-30T08:38:34.000Z</time>
      </trkpt>
      <trkpt lat="42.98181" lon="0.54066">
        <ele>1459</ele>
        <time>2019-06-30T08:38:36.000Z</time>
      </trkpt>
      <trkpt lat="42.9818" lon="0.54067">
        <ele>1459</ele>
        <time>2019-06-30T08:38:38.000Z</time>
      </trkpt>
      <trkpt lat="42.98179" lon="0.54068">
        <ele>1459</ele>
        <time>2019-06-30T08:38:40.000Z</time>
      </trkpt>
      <trkpt lat="42.98178" lon="0.54068">
        <ele>1459</ele>
        <time>2019-06-30T08:38:42.000Z</time>
      </trkpt>
      <trkpt lat="42.98177" lon="0.54069">
        <ele>1459</ele>
        <time>2019-06-30T08:38:44.000Z</time>
      </trkpt>
      <trkpt lat="42.98176" lon="0.5407">
        <ele>1458</ele>
        <time>2019-06-30T08:38:46.000Z</time>
      </trkpt>
      <trkpt lat="42.98175" lon="0.54072">
        <ele>1458</ele>
        <time>2019-06-30T08:38:48.000Z</time>
      </trkpt>
      <trkpt lat="42.98173" lon="0.54073">
        <ele>1458</ele>
        <time>2019-06-30T08:38:50.000Z</time>
      </trkpt>
      <trkpt lat="42.98171" lon="0.54075">
        <ele>1458</ele>
        <time>2019-06-30T08:38:52.000Z</time>
      </trkpt>
      <trkpt lat="42.98169" lon="0.54076">
        <ele>1458</ele>
        <time>2019-06-30T08:38:54.000Z</time>
      </trkpt>
      <trkpt lat="42.98168" lon="0.54077">
        <ele>1458</ele>
        <time>2019-06-30T08:38:56.000Z</time>
      </trkpt>
      <trkpt lat="42.98167" lon="0.54077">
        <ele>1458</ele>
        <time>2019-06-30T08:38:58.000Z</time>
      </trkpt>
      <trkpt lat="42.98166" lon="0.54077">
        <ele>1458</ele>
        <time>2019-06-30T08:39:00.000Z</time>
      </trkpt>
      <trkpt lat="42.98164" lon="0.54077">
        <ele>1459</ele>
        <time>2019-06-30T08:39:02.000Z</time>
      </trkpt>
      <trkpt lat="42.98163" lon="0.54077">
        <ele>1459</ele>
        <time>2019-06-30T08:39:04.000Z</time>
      </trkpt>
      <trkpt lat="42.98162" lon="0.54078">
        <ele>1459</ele>
        <time>2019-06-30T08:39:06.000Z</time>
      </trkpt>
      <trkpt lat="42.98159" lon="0.54079">
        <ele>1459</ele>
        <time>2019-06-30T08:39:08.000Z</time>
      </trkpt>
      <trkpt lat="42.98158" lon="0.5408">
        <ele>1459</ele>
        <time>2019-06-30T08:39:10.000Z</time>
      </trkpt>
      <trkpt lat="42.98158" lon="0.5408">
        <ele>1459</ele>
        <time>2019-06-30T08:39:12.000Z</time>
      </trkpt>
      <trkpt lat="42.98157" lon="0.5408">
        <ele>1459</ele>
        <time>2019-06-30T08:39:14.000Z</time>
      </trkpt>
      <trkpt lat="42.98158" lon="0.5408">
        <ele>1459</ele>
        <time>2019-06-30T08:39:16.000Z</time>
      </trkpt>
      <trkpt lat="42.98158" lon="0.5408">
        <ele>1459</ele>
        <time>2019-06-30T08:39:18.000Z</time>
      </trkpt>
      <trkpt lat="42.98158" lon="0.54079">
        <ele>1460</ele>
        <time>2019-06-30T08:39:20.000Z</time>
      </trkpt>
      <trkpt lat="42.9816" lon="0.54078">
        <ele>1460</ele>
        <time>2019-06-30T08:39:22.000Z</time>
      </trkpt>
      <trkpt lat="42.98161" lon="0.54078">
        <ele>1459</ele>
        <time>2019-06-30T08:39:24.000Z</time>
      </trkpt>
      <trkpt lat="42.98162" lon="0.54078">
        <ele>1459</ele>
        <time>2019-06-30T08:39:26.000Z</time>
      </trkpt>
      <trkpt lat="42.98163" lon="0.54078">
        <ele>1459</ele>
        <time>2019-06-30T08:39:28.000Z</time>
      </trkpt>
      <trkpt lat="42.98164" lon="0.54078">
        <ele>1458</ele>
        <time>2019-06-30T08:39:30.000Z</time>
      </trkpt>
      <trkpt lat="42.98166" lon="0.54078">
        <ele>1458</ele>
        <time>2019-06-30T08:39:32.000Z</time>
      </trkpt>
      <trkpt lat="42.98167" lon="0.54078">
        <ele>1458</ele>
        <time>2019-06-30T08:39:34.000Z</time>
      </trkpt>
      <trkpt lat="42.98169" lon="0.54077">
        <ele>1457</ele>
        <time>2019-06-30T08:39:36.000Z</time>
      </trkpt>
      <trkpt lat="42.98169" lon="0.54077">
        <ele>1457</ele>
        <time>2019-06-30T08:39:38.000Z</time>
      </trkpt>
      <trkpt lat="42.98169" lon="0.54077">
        <ele>1457</ele>
        <time>2019-06-30T08:39:40.000Z</time>
      </trkpt>
      <trkpt lat="42.9817" lon="0.54077">
        <ele>1457</ele>
        <time>2019-06-30T08:39:42.000Z</time>
      </trkpt>
      <trkpt lat="42.9817" lon="0.54077">
        <ele>1457</ele>
        <time>2019-06-30T08:39:44.000Z</time>
      </trkpt>
      <trkpt lat="42.98171" lon="0.54077">
        <ele>1457</ele>
        <time>2019-06-30T08:39:46.000Z</time>
      </trkpt>
      <trkpt lat="42.9817" lon="0.54078">
        <ele>1456</ele>
        <time>2019-06-30T08:39:48.000Z</time>
      </trkpt>
      <trkpt lat="42.9817" lon="0.54079">
        <ele>1456</ele>
        <time>2019-06-30T08:39:50.000Z</time>
      </trkpt>
      <trkpt lat="42.98169" lon="0.54079">
        <ele>1456</ele>
        <time>2019-06-30T08:39:52.000Z</time>
      </trkpt>
      <trkpt lat="42.98169" lon="0.54079">
        <ele>1457</ele>
        <time>2019-06-30T08:39:54.000Z</time>
      </trkpt>
      <trkpt lat="42.98168" lon="0.54078">
        <ele>1457</ele>
        <time>2019-06-30T08:39:56.000Z</time>
      </trkpt>
      <trkpt lat="42.98167" lon="0.54078">
        <ele>1457</ele>
        <time>2019-06-30T08:39:58.000Z</time>
      </trkpt>
      <trkpt lat="42.98168" lon="0.54077">
        <ele>1458</ele>
        <time>2019-06-30T08:40:00.000Z</time>
      </trkpt>
      <trkpt lat="42.98167" lon="0.54077">
        <ele>1458</ele>
        <time>2019-06-30T08:40:02.000Z</time>
      </trkpt>
      <trkpt lat="42.98167" lon="0.54077">
        <ele>1458</ele>
        <time>2019-06-30T08:40:04.000Z</time>
      </trkpt>
      <trkpt lat="42.98167" lon="0.54077">
        <ele>1458</ele>
        <time>2019-06-30T08:40:06.000Z</time>
      </trkpt>
      <trkpt lat="42.98167" lon="0.54076">
        <ele>1458</ele>
        <time>2019-06-30T08:40:08.000Z</time>
      </trkpt>
      <trkpt lat="42.98167" lon="0.54076">
        <ele>1458</ele>
        <time>2019-06-30T08:40:10.000Z</time>
      </trkpt>
      <trkpt lat="42.98167" lon="0.54076">
        <ele>1458</ele>
        <time>2019-06-30T08:40:12.000Z</time>
      </trkpt>
      <trkpt lat="42.98166" lon="0.54075">
        <ele>1459</ele>
        <time>2019-06-30T08:40:14.000Z</time>
      </trkpt>
      <trkpt lat="42.98165" lon="0.54075">
        <ele>1459</ele>
        <time>2019-06-30T08:40:16.000Z</time>
      </trkpt>
      <trkpt lat="42.98165" lon="0.54074">
        <ele>1460</ele>
        <time>2019-06-30T08:40:18.000Z</time>
      </trkpt>
      <trkpt lat="42.98164" lon="0.54073">
        <ele>1461</ele>
        <time>2019-06-30T08:40:20.000Z</time>
      </trkpt>
      <trkpt lat="42.98165" lon="0.54073">
        <ele>1460</ele>
        <time>2019-06-30T08:40:22.000Z</time>
      </trkpt>
      <trkpt lat="42.98163" lon="0.54074">
        <ele>1461</ele>
        <time>2019-06-30T08:40:24.000Z</time>
      </trkpt>
      <trkpt lat="42.98164" lon="0.54074">
        <ele>1460</ele>
        <time>2019-06-30T08:40:26.000Z</time>
      </trkpt>
      <trkpt lat="42.98165" lon="0.54075">
        <ele>1459</ele>
        <time>2019-06-30T08:40:28.000Z</time>
      </trkpt>
      <trkpt lat="42.98166" lon="0.54076">
        <ele>1459</ele>
        <time>2019-06-30T08:40:30.000Z</time>
      </trkpt>
      <trkpt lat="42.98164" lon="0.54076">
        <ele>1459</ele>
        <time>2019-06-30T08:40:32.000Z</time>
      </trkpt>
      <trkpt lat="42.98164" lon="0.54077">
        <ele>1459</ele>
        <time>2019-06-30T08:40:34.000Z</time>
      </trkpt>
      <trkpt lat="42.98164" lon="0.54078">
        <ele>1458</ele>
        <time>2019-06-30T08:40:36.000Z</time>
      </trkpt>
      <trkpt lat="42.98163" lon="0.54079">
        <ele>1458</ele>
        <time>2019-06-30T08:40:38.000Z</time>
      </trkpt>
      <trkpt lat="42.98164" lon="0.54079">
        <ele>1458</ele>
        <time>2019-06-30T08:40:40.000Z</time>
      </trkpt>
      <trkpt lat="42.98164" lon="0.54079">
        <ele>1458</ele>
        <time>2019-06-30T08:40:42.000Z</time>
      </trkpt>
      <trkpt lat="42.98163" lon="0.5408">
        <ele>1458</ele>
        <time>2019-06-30T08:40:44.000Z</time>
      </trkpt>
      <trkpt lat="42.98163" lon="0.5408">
        <ele>1458</ele>
        <time>2019-06-30T08:40:46.000Z</time>
      </trkpt>
      <trkpt lat="42.98163" lon="0.54079">
        <ele>1458</ele>
        <time>2019-06-30T08:40:48.000Z</time>
      </trkpt>
      <trkpt lat="42.98164" lon="0.54079">
        <ele>1458</ele>
        <time>2019-06-30T08:40:50.000Z</time>
      </trkpt>
      <trkpt lat="42.98163" lon="0.5408">
        <ele>1458</ele>
        <time>2019-06-30T08:40:52.000Z</time>
      </trkpt>
      <trkpt lat="42.98162" lon="0.5408">
        <ele>1458</ele>
        <time>2019-06-30T08:40:54.000Z</time>
      </trkpt>
      <trkpt lat="42.98161" lon="0.5408">
        <ele>1458</ele>
        <time>2019-06-30T08:40:56.000Z</time>
      </trkpt>
      <trkpt lat="42.98161" lon="0.5408">
        <ele>1459</ele>
        <time>2019-06-30T08:40:58.000Z</time>
      </trkpt>
      <trkpt lat="42.98161" lon="0.54079">
        <ele>1458</ele>
        <time>2019-06-30T08:41:00.000Z</time>
      </trkpt>
      <trkpt lat="42.98162" lon="0.5408">
        <ele>1458</ele>
        <time>2019-06-30T08:41:02.000Z</time>
      </trkpt>
      <trkpt lat="42.98162" lon="0.5408">
        <ele>1458</ele>
        <time>2019-06-30T08:41:04.000Z</time>
      </trkpt>
      <trkpt lat="42.98163" lon="0.5408">
        <ele>1458</ele>
        <time>2019-06-30T08:41:06.000Z</time>
      </trkpt>
      <trkpt lat="42.98163" lon="0.54079">
        <ele>1458</ele>
        <time>2019-06-30T08:41:08.000Z</time>
      </trkpt>
      <trkpt lat="42.98164" lon="0.54079">
        <ele>1458</ele>
        <time>2019-06-30T08:41:10.000Z</time>
      </trkpt>
      <trkpt lat="42.98166" lon="0.54079">
        <ele>1457</ele>
        <time>2019-06-30T08:41:12.000Z</time>
      </trkpt>
      <trkpt lat="42.98167" lon="0.54078">
        <ele>1457</ele>
        <time>2019-06-30T08:41:14.000Z</time>
      </trkpt>
      <trkpt lat="42.98167" lon="0.54078">
        <ele>1457</ele>
        <time>2019-06-30T08:41:16.000Z</time>
      </trkpt>
      <trkpt lat="42.98168" lon="0.54078">
        <ele>1457</ele>
        <time>2019-06-30T08:41:18.000Z</time>
      </trkpt>
      <trkpt lat="42.98169" lon="0.54077">
        <ele>1457</ele>
        <time>2019-06-30T08:41:20.000Z</time>
      </trkpt>
      <trkpt lat="42.98169" lon="0.54077">
        <ele>1457</ele>
        <time>2019-06-30T08:41:22.000Z</time>
      </trkpt>
      <trkpt lat="42.9817" lon="0.54078">
        <ele>1457</ele>
        <time>2019-06-30T08:41:24.000Z</time>
      </trkpt>
      <trkpt lat="42.98169" lon="0.54078">
        <ele>1457</ele>
        <time>2019-06-30T08:41:26.000Z</time>
      </trkpt>
      <trkpt lat="42.98168" lon="0.54078">
        <ele>1457</ele>
        <time>2019-06-30T08:41:28.000Z</time>
      </trkpt>
      <trkpt lat="42.98167" lon="0.54078">
        <ele>1457</ele>
        <time>2019-06-30T08:41:30.000Z</time>
      </trkpt>
      <trkpt lat="42.98167" lon="0.54078">
        <ele>1457</ele>
        <time>2019-06-30T08:41:32.000Z</time>
      </trkpt>
      <trkpt lat="42.98167" lon="0.54078">
        <ele>1457</ele>
        <time>2019-06-30T08:41:34.000Z</time>
      </trkpt>
      <trkpt lat="42.98167" lon="0.54078">
        <ele>1457</ele>
        <time>2019-06-30T08:41:36.000Z</time>
      </trkpt>
      <trkpt lat="42.98167" lon="0.54078">
        <ele>1457</ele>
        <time>2019-06-30T08:41:38.000Z</time>
      </trkpt>
      <trkpt lat="42.98168" lon="0.54078">
        <ele>1457</ele>
        <time>2019-06-30T08:41:40.000Z</time>
      </trkpt>
      <trkpt lat="42.98167" lon="0.54078">
        <ele>1457</ele>
        <time>2019-06-30T08:41:42.000Z</time>
      </trkpt>
      <trkpt lat="42.98168" lon="0.54078">
        <ele>1457</ele>
        <time>2019-06-30T08:41:44.000Z</time>
      </trkpt>
      <trkpt lat="42.98168" lon="0.54079">
        <ele>1457</ele>
        <time>2019-06-30T08:41:46.000Z</time>
      </trkpt>
      <trkpt lat="42.98168" lon="0.54079">
        <ele>1457</ele>
        <time>2019-06-30T08:41:48.000Z</time>
      </trkpt>
      <trkpt lat="42.98168" lon="0.54079">
        <ele>1457</ele>
        <time>2019-06-30T08:41:50.000Z</time>
      </trkpt>
      <trkpt lat="42.98168" lon="0.54079">
        <ele>1457</ele>
        <time>2019-06-30T08:41:52.000Z</time>
      </trkpt>
      <trkpt lat="42.98168" lon="0.54078">
        <ele>1457</ele>
        <time>2019-06-30T08:41:54.000Z</time>
      </trkpt>
      <trkpt lat="42.98168" lon="0.54079">
        <ele>1457</ele>
        <time>2019-06-30T08:41:56.000Z</time>
      </trkpt>
      <trkpt lat="42.98168" lon="0.54079">
        <ele>1457</ele>
        <time>2019-06-30T08:41:58.000Z</time>
      </trkpt>
      <trkpt lat="42.98167" lon="0.5408">
        <ele>1457</ele>
        <time>2019-06-30T08:42:00.000Z</time>
      </trkpt>
      <trkpt lat="42.98166" lon="0.5408">
        <ele>1457</ele>
        <time>2019-06-30T08:42:02.000Z</time>
      </trkpt>
      <trkpt lat="42.98167" lon="0.5408">
        <ele>1457</ele>
        <time>2019-06-30T08:42:04.000Z</time>
      </trkpt>
      <trkpt lat="42.98167" lon="0.5408">
        <ele>1456</ele>
        <time>2019-06-30T08:42:06.000Z</time>
      </trkpt>
      <trkpt lat="42.98166" lon="0.5408">
        <ele>1457</ele>
        <time>2019-06-30T08:42:08.000Z</time>
      </trkpt>
      <trkpt lat="42.98166" lon="0.5408">
        <ele>1457</ele>
        <time>2019-06-30T08:42:10.000Z</time>
      </trkpt>
      <trkpt lat="42.98166" lon="0.5408">
        <ele>1457</ele>
        <time>2019-06-30T08:42:12.000Z</time>
      </trkpt>
      <trkpt lat="42.98165" lon="0.5408">
        <ele>1457</ele>
        <time>2019-06-30T08:42:14.000Z</time>
      </trkpt>
      <trkpt lat="42.98165" lon="0.54081">
        <ele>1457</ele>
        <time>2019-06-30T08:42:16.000Z</time>
      </trkpt>
      <trkpt lat="42.98164" lon="0.54081">
        <ele>1457</ele>
        <time>2019-06-30T08:42:18.000Z</time>
      </trkpt>
      <trkpt lat="42.98164" lon="0.54081">
        <ele>1457</ele>
        <time>2019-06-30T08:42:20.000Z</time>
      </trkpt>
      <trkpt lat="42.98164" lon="0.54081">
        <ele>1457</ele>
        <time>2019-06-30T08:42:22.000Z</time>
      </trkpt>
      <trkpt lat="42.98164" lon="0.54081">
        <ele>1457</ele>
        <time>2019-06-30T08:42:24.000Z</time>
      </trkpt>
      <trkpt lat="42.98164" lon="0.54082">
        <ele>1457</ele>
        <time>2019-06-30T08:42:26.000Z</time>
      </trkpt>
      <trkpt lat="42.98163" lon="0.54081">
        <ele>1457</ele>
        <time>2019-06-30T08:42:28.000Z</time>
      </trkpt>
      <trkpt lat="42.98163" lon="0.54081">
        <ele>1457</ele>
        <time>2019-06-30T08:42:30.000Z</time>
      </trkpt>
      <trkpt lat="42.98163" lon="0.5408">
        <ele>1458</ele>
        <time>2019-06-30T08:42:32.000Z</time>
      </trkpt>
      <trkpt lat="42.98163" lon="0.54079">
        <ele>1458</ele>
        <time>2019-06-30T08:42:34.000Z</time>
      </trkpt>
      <trkpt lat="42.98163" lon="0.54079">
        <ele>1458</ele>
        <time>2019-06-30T08:42:36.000Z</time>
      </trkpt>
      <trkpt lat="42.98164" lon="0.54079">
        <ele>1458</ele>
        <time>2019-06-30T08:42:38.000Z</time>
      </trkpt>
      <trkpt lat="42.98164" lon="0.54079">
        <ele>1458</ele>
        <time>2019-06-30T08:42:40.000Z</time>
      </trkpt>
      <trkpt lat="42.98166" lon="0.54079">
        <ele>1457</ele>
        <time>2019-06-30T08:42:42.000Z</time>
      </trkpt>
      <trkpt lat="42.98168" lon="0.5408">
        <ele>1456</ele>
        <time>2019-06-30T08:42:44.000Z</time>
      </trkpt>
      <trkpt lat="42.98169" lon="0.5408">
        <ele>1456</ele>
        <time>2019-06-30T08:42:46.000Z</time>
      </trkpt>
      <trkpt lat="42.98171" lon="0.5408">
        <ele>1455</ele>
        <time>2019-06-30T08:42:48.000Z</time>
      </trkpt>
      <trkpt lat="42.98172" lon="0.5408">
        <ele>1455</ele>
        <time>2019-06-30T08:42:50.000Z</time>
      </trkpt>
      <trkpt lat="42.98173" lon="0.5408">
        <ele>1455</ele>
        <time>2019-06-30T08:42:52.000Z</time>
      </trkpt>
      <trkpt lat="42.98173" lon="0.54079">
        <ele>1455</ele>
        <time>2019-06-30T08:42:54.000Z</time>
      </trkpt>
      <trkpt lat="42.98172" lon="0.54079">
        <ele>1455</ele>
        <time>2019-06-30T08:42:56.000Z</time>
      </trkpt>
      <trkpt lat="42.98171" lon="0.5408">
        <ele>1455</ele>
        <time>2019-06-30T08:42:58.000Z</time>
      </trkpt>
      <trkpt lat="42.98171" lon="0.5408">
        <ele>1455</ele>
        <time>2019-06-30T08:43:00.000Z</time>
      </trkpt>
      <trkpt lat="42.98169" lon="0.5408">
        <ele>1456</ele>
        <time>2019-06-30T08:43:02.000Z</time>
      </trkpt>
      <trkpt lat="42.98169" lon="0.54079">
        <ele>1456</ele>
        <time>2019-06-30T08:43:04.000Z</time>
      </trkpt>
      <trkpt lat="42.98169" lon="0.54079">
        <ele>1456</ele>
        <time>2019-06-30T08:43:06.000Z</time>
      </trkpt>
      <trkpt lat="42.98168" lon="0.54079">
        <ele>1456</ele>
        <time>2019-06-30T08:43:08.000Z</time>
      </trkpt>
      <trkpt lat="42.98167" lon="0.54079">
        <ele>1457</ele>
        <time>2019-06-30T08:43:10.000Z</time>
      </trkpt>
      <trkpt lat="42.98166" lon="0.54079">
        <ele>1457</ele>
        <time>2019-06-30T08:43:12.000Z</time>
      </trkpt>
      <trkpt lat="42.98166" lon="0.54078">
        <ele>1458</ele>
        <time>2019-06-30T08:43:14.000Z</time>
      </trkpt>
      <trkpt lat="42.98165" lon="0.54078">
        <ele>1458</ele>
        <time>2019-06-30T08:43:16.000Z</time>
      </trkpt>
      <trkpt lat="42.98164" lon="0.54078">
        <ele>1458</ele>
        <time>2019-06-30T08:43:18.000Z</time>
      </trkpt>
      <trkpt lat="42.98163" lon="0.54077">
        <ele>1459</ele>
        <time>2019-06-30T08:43:20.000Z</time>
      </trkpt>
      <trkpt lat="42.98163" lon="0.54076">
        <ele>1459</ele>
        <time>2019-06-30T08:43:22.000Z</time>
      </trkpt>
      <trkpt lat="42.98164" lon="0.54076">
        <ele>1459</ele>
        <time>2019-06-30T08:43:24.000Z</time>
      </trkpt>
      <trkpt lat="42.98164" lon="0.54076">
        <ele>1459</ele>
        <time>2019-06-30T08:43:26.000Z</time>
      </trkpt>
      <trkpt lat="42.98164" lon="0.54076">
        <ele>1459</ele>
        <time>2019-06-30T08:43:28.000Z</time>
      </trkpt>
      <trkpt lat="42.98164" lon="0.54076">
        <ele>1459</ele>
        <time>2019-06-30T08:43:30.000Z</time>
      </trkpt>
      <trkpt lat="42.98165" lon="0.54076">
        <ele>1459</ele>
        <time>2019-06-30T08:43:32.000Z</time>
      </trkpt>
      <trkpt lat="42.98165" lon="0.54076">
        <ele>1459</ele>
        <time>2019-06-30T08:43:34.000Z</time>
      </trkpt>
      <trkpt lat="42.98166" lon="0.54076">
        <ele>1458</ele>
        <time>2019-06-30T08:43:36.000Z</time>
      </trkpt>
      <trkpt lat="42.98167" lon="0.54077">
        <ele>1458</ele>
        <time>2019-06-30T08:43:38.000Z</time>
      </trkpt>
      <trkpt lat="42.98167" lon="0.54078">
        <ele>1457</ele>
        <time>2019-06-30T08:43:40.000Z</time>
      </trkpt>
      <trkpt lat="42.98167" lon="0.54078">
        <ele>1457</ele>
        <time>2019-06-30T08:43:42.000Z</time>
      </trkpt>
      <trkpt lat="42.98166" lon="0.54079">
        <ele>1457</ele>
        <time>2019-06-30T08:43:44.000Z</time>
      </trkpt>
      <trkpt lat="42.98165" lon="0.54081">
        <ele>1457</ele>
        <time>2019-06-30T08:43:46.000Z</time>
      </trkpt>
      <trkpt lat="42.98164" lon="0.54082">
        <ele>1456</ele>
        <time>2019-06-30T08:43:48.000Z</time>
      </trkpt>
      <trkpt lat="42.98163" lon="0.54083">
        <ele>1456</ele>
        <time>2019-06-30T08:43:50.000Z</time>
      </trkpt>
      <trkpt lat="42.98163" lon="0.54084">
        <ele>1456</ele>
        <time>2019-06-30T08:43:52.000Z</time>
      </trkpt>
      <trkpt lat="42.98162" lon="0.54086">
        <ele>1455</ele>
        <time>2019-06-30T08:43:54.000Z</time>
      </trkpt>
      <trkpt lat="42.9816" lon="0.54087">
        <ele>1455</ele>
        <time>2019-06-30T08:43:56.000Z</time>
      </trkpt>
      <trkpt lat="42.98158" lon="0.54089">
        <ele>1455</ele>
        <time>2019-06-30T08:43:58.000Z</time>
      </trkpt>
      <trkpt lat="42.98157" lon="0.54089">
        <ele>1455</ele>
        <time>2019-06-30T08:44:00.000Z</time>
      </trkpt>
      <trkpt lat="42.98155" lon="0.54091">
        <ele>1455</ele>
        <time>2019-06-30T08:44:02.000Z</time>
      </trkpt>
      <trkpt lat="42.98153" lon="0.54091">
        <ele>1455</ele>
        <time>2019-06-30T08:44:04.000Z</time>
      </trkpt>
      <trkpt lat="42.98151" lon="0.54092">
        <ele>1455</ele>
        <time>2019-06-30T08:44:06.000Z</time>
      </trkpt>
      <trkpt lat="42.98149" lon="0.54093">
        <ele>1456</ele>
        <time>2019-06-30T08:44:08.000Z</time>
      </trkpt>
      <trkpt lat="42.98147" lon="0.54093">
        <ele>1456</ele>
        <time>2019-06-30T08:44:10.000Z</time>
      </trkpt>
      <trkpt lat="42.98144" lon="0.54094">
        <ele>1457</ele>
        <time>2019-06-30T08:44:12.000Z</time>
      </trkpt>
      <trkpt lat="42.98141" lon="0.54096">
        <ele>1457</ele>
        <time>2019-06-30T08:44:14.000Z</time>
      </trkpt>
      <trkpt lat="42.98141" lon="0.54096">
        <ele>1457</ele>
        <time>2019-06-30T08:44:16.000Z</time>
      </trkpt>
      <trkpt lat="42.98141" lon="0.54098">
        <ele>1456</ele>
        <time>2019-06-30T08:44:18.000Z</time>
      </trkpt>
      <trkpt lat="42.9814" lon="0.54099">
        <ele>1456</ele>
        <time>2019-06-30T08:44:20.000Z</time>
      </trkpt>
      <trkpt lat="42.98139" lon="0.54099">
        <ele>1456</ele>
        <time>2019-06-30T08:44:22.000Z</time>
      </trkpt>
      <trkpt lat="42.98138" lon="0.54099">
        <ele>1457</ele>
        <time>2019-06-30T08:44:24.000Z</time>
      </trkpt>
      <trkpt lat="42.98137" lon="0.54098">
        <ele>1457</ele>
        <time>2019-06-30T08:44:26.000Z</time>
      </trkpt>
      <trkpt lat="42.98136" lon="0.54099">
        <ele>1458</ele>
        <time>2019-06-30T08:44:28.000Z</time>
      </trkpt>
      <trkpt lat="42.98135" lon="0.54099">
        <ele>1458</ele>
        <time>2019-06-30T08:44:30.000Z</time>
      </trkpt>
      <trkpt lat="42.98134" lon="0.54099">
        <ele>1458</ele>
        <time>2019-06-30T08:44:32.000Z</time>
      </trkpt>
      <trkpt lat="42.98132" lon="0.54099">
        <ele>1459</ele>
        <time>2019-06-30T08:44:34.000Z</time>
      </trkpt>
      <trkpt lat="42.98131" lon="0.54099">
        <ele>1460</ele>
        <time>2019-06-30T08:44:36.000Z</time>
      </trkpt>
      <trkpt lat="42.98129" lon="0.54098">
        <ele>1461</ele>
        <time>2019-06-30T08:44:38.000Z</time>
      </trkpt>
      <trkpt lat="42.98129" lon="0.54097">
        <ele>1461</ele>
        <time>2019-06-30T08:44:40.000Z</time>
      </trkpt>
      <trkpt lat="42.98128" lon="0.54097">
        <ele>1462</ele>
        <time>2019-06-30T08:44:42.000Z</time>
      </trkpt>
      <trkpt lat="42.98126" lon="0.54097">
        <ele>1462</ele>
        <time>2019-06-30T08:44:44.000Z</time>
      </trkpt>
      <trkpt lat="42.98125" lon="0.54097">
        <ele>1463</ele>
        <time>2019-06-30T08:44:46.000Z</time>
      </trkpt>
      <trkpt lat="42.98125" lon="0.54098">
        <ele>1463</ele>
        <time>2019-06-30T08:44:48.000Z</time>
      </trkpt>
      <trkpt lat="42.98124" lon="0.54098">
        <ele>1463</ele>
        <time>2019-06-30T08:44:50.000Z</time>
      </trkpt>
      <trkpt lat="42.98123" lon="0.541">
        <ele>1463</ele>
        <time>2019-06-30T08:44:52.000Z</time>
      </trkpt>
      <trkpt lat="42.98122" lon="0.541">
        <ele>1463</ele>
        <time>2019-06-30T08:44:54.000Z</time>
      </trkpt>
      <trkpt lat="42.98121" lon="0.54101">
        <ele>1463</ele>
        <time>2019-06-30T08:44:56.000Z</time>
      </trkpt>
      <trkpt lat="42.98121" lon="0.54101">
        <ele>1464</ele>
        <time>2019-06-30T08:44:58.000Z</time>
      </trkpt>
      <trkpt lat="42.9812" lon="0.54102">
        <ele>1464</ele>
        <time>2019-06-30T08:45:00.000Z</time>
      </trkpt>
      <trkpt lat="42.98118" lon="0.54103">
        <ele>1464</ele>
        <time>2019-06-30T08:45:02.000Z</time>
      </trkpt>
      <trkpt lat="42.98116" lon="0.54104">
        <ele>1464</ele>
        <time>2019-06-30T08:45:04.000Z</time>
      </trkpt>
      <trkpt lat="42.98115" lon="0.54104">
        <ele>1465</ele>
        <time>2019-06-30T08:45:06.000Z</time>
      </trkpt>
      <trkpt lat="42.98114" lon="0.54104">
        <ele>1465</ele>
        <time>2019-06-30T08:45:08.000Z</time>
      </trkpt>
      <trkpt lat="42.98113" lon="0.54104">
        <ele>1466</ele>
        <time>2019-06-30T08:45:10.000Z</time>
      </trkpt>
      <trkpt lat="42.98111" lon="0.54104">
        <ele>1467</ele>
        <time>2019-06-30T08:45:12.000Z</time>
      </trkpt>
      <trkpt lat="42.98109" lon="0.54104">
        <ele>1468</ele>
        <time>2019-06-30T08:45:14.000Z</time>
      </trkpt>
      <trkpt lat="42.98109" lon="0.54104">
        <ele>1468</ele>
        <time>2019-06-30T08:45:16.000Z</time>
      </trkpt>
      <trkpt lat="42.98108" lon="0.54104">
        <ele>1468</ele>
        <time>2019-06-30T08:45:18.000Z</time>
      </trkpt>
      <trkpt lat="42.98106" lon="0.54105">
        <ele>1469</ele>
        <time>2019-06-30T08:45:20.000Z</time>
      </trkpt>
      <trkpt lat="42.98105" lon="0.54105">
        <ele>1469</ele>
        <time>2019-06-30T08:45:22.000Z</time>
      </trkpt>
      <trkpt lat="42.98104" lon="0.54105">
        <ele>1470</ele>
        <time>2019-06-30T08:45:24.000Z</time>
      </trkpt>
      <trkpt lat="42.98104" lon="0.54105">
        <ele>1470</ele>
        <time>2019-06-30T08:45:26.000Z</time>
      </trkpt>
      <trkpt lat="42.98102" lon="0.54106">
        <ele>1470</ele>
        <time>2019-06-30T08:45:28.000Z</time>
      </trkpt>
      <trkpt lat="42.981" lon="0.54105">
        <ele>1471</ele>
        <time>2019-06-30T08:45:30.000Z</time>
      </trkpt>
      <trkpt lat="42.981" lon="0.54105">
        <ele>1471</ele>
        <time>2019-06-30T08:45:32.000Z</time>
      </trkpt>
      <trkpt lat="42.98099" lon="0.54104">
        <ele>1472</ele>
        <time>2019-06-30T08:45:34.000Z</time>
      </trkpt>
      <trkpt lat="42.98099" lon="0.54104">
        <ele>1472</ele>
        <time>2019-06-30T08:45:36.000Z</time>
      </trkpt>
      <trkpt lat="42.98098" lon="0.54105">
        <ele>1472</ele>
        <time>2019-06-30T08:45:38.000Z</time>
      </trkpt>
      <trkpt lat="42.98098" lon="0.54106">
        <ele>1472</ele>
        <time>2019-06-30T08:45:40.000Z</time>
      </trkpt>
      <trkpt lat="42.98098" lon="0.54106">
        <ele>1472</ele>
        <time>2019-06-30T08:45:42.000Z</time>
      </trkpt>
      <trkpt lat="42.98098" lon="0.54107">
        <ele>1472</ele>
        <time>2019-06-30T08:45:44.000Z</time>
      </trkpt>
      <trkpt lat="42.98097" lon="0.54107">
        <ele>1472</ele>
        <time>2019-06-30T08:45:46.000Z</time>
      </trkpt>
      <trkpt lat="42.98096" lon="0.54108">
        <ele>1472</ele>
        <time>2019-06-30T08:45:48.000Z</time>
      </trkpt>
      <trkpt lat="42.98094" lon="0.54107">
        <ele>1473</ele>
        <time>2019-06-30T08:45:50.000Z</time>
      </trkpt>
      <trkpt lat="42.98094" lon="0.54108">
        <ele>1473</ele>
        <time>2019-06-30T08:45:52.000Z</time>
      </trkpt>
      <trkpt lat="42.98093" lon="0.54108">
        <ele>1473</ele>
        <time>2019-06-30T08:45:54.000Z</time>
      </trkpt>
      <trkpt lat="42.98092" lon="0.54108">
        <ele>1474</ele>
        <time>2019-06-30T08:45:56.000Z</time>
      </trkpt>
      <trkpt lat="42.98091" lon="0.54108">
        <ele>1474</ele>
        <time>2019-06-30T08:45:58.000Z</time>
      </trkpt>
      <trkpt lat="42.98092" lon="0.54106">
        <ele>1475</ele>
        <time>2019-06-30T08:46:00.000Z</time>
      </trkpt>
      <trkpt lat="42.98091" lon="0.54105">
        <ele>1475</ele>
        <time>2019-06-30T08:46:02.000Z</time>
      </trkpt>
      <trkpt lat="42.98091" lon="0.54104">
        <ele>1475</ele>
        <time>2019-06-30T08:46:04.000Z</time>
      </trkpt>
      <trkpt lat="42.9809" lon="0.54104">
        <ele>1475</ele>
        <time>2019-06-30T08:46:06.000Z</time>
      </trkpt>
      <trkpt lat="42.9809" lon="0.54104">
        <ele>1475</ele>
        <time>2019-06-30T08:46:08.000Z</time>
      </trkpt>
      <trkpt lat="42.98089" lon="0.54105">
        <ele>1475</ele>
        <time>2019-06-30T08:46:10.000Z</time>
      </trkpt>
      <trkpt lat="42.98088" lon="0.54104">
        <ele>1475</ele>
        <time>2019-06-30T08:46:12.000Z</time>
      </trkpt>
      <trkpt lat="42.98087" lon="0.54104">
        <ele>1475</ele>
        <time>2019-06-30T08:46:14.000Z</time>
      </trkpt>
      <trkpt lat="42.98086" lon="0.54104">
        <ele>1475</ele>
        <time>2019-06-30T08:46:16.000Z</time>
      </trkpt>
      <trkpt lat="42.98085" lon="0.54103">
        <ele>1475</ele>
        <time>2019-06-30T08:46:18.000Z</time>
      </trkpt>
      <trkpt lat="42.98084" lon="0.54103">
        <ele>1475</ele>
        <time>2019-06-30T08:46:20.000Z</time>
      </trkpt>
      <trkpt lat="42.98084" lon="0.54103">
        <ele>1476</ele>
        <time>2019-06-30T08:46:22.000Z</time>
      </trkpt>
      <trkpt lat="42.98082" lon="0.54103">
        <ele>1476</ele>
        <time>2019-06-30T08:46:24.000Z</time>
      </trkpt>
      <trkpt lat="42.98081" lon="0.54102">
        <ele>1476</ele>
        <time>2019-06-30T08:46:26.000Z</time>
      </trkpt>
      <trkpt lat="42.9808" lon="0.54102">
        <ele>1476</ele>
        <time>2019-06-30T08:46:28.000Z</time>
      </trkpt>
      <trkpt lat="42.98079" lon="0.54102">
        <ele>1476</ele>
        <time>2019-06-30T08:46:30.000Z</time>
      </trkpt>
      <trkpt lat="42.98077" lon="0.54104">
        <ele>1475</ele>
        <time>2019-06-30T08:46:32.000Z</time>
      </trkpt>
      <trkpt lat="42.98075" lon="0.54104">
        <ele>1475</ele>
        <time>2019-06-30T08:46:34.000Z</time>
      </trkpt>
      <trkpt lat="42.98074" lon="0.54105">
        <ele>1475</ele>
        <time>2019-06-30T08:46:36.000Z</time>
      </trkpt>
      <trkpt lat="42.98072" lon="0.54106">
        <ele>1474</ele>
        <time>2019-06-30T08:46:38.000Z</time>
      </trkpt>
      <trkpt lat="42.98071" lon="0.54106">
        <ele>1474</ele>
        <time>2019-06-30T08:46:40.000Z</time>
      </trkpt>
      <trkpt lat="42.98071" lon="0.54107">
        <ele>1474</ele>
        <time>2019-06-30T08:46:42.000Z</time>
      </trkpt>
      <trkpt lat="42.9807" lon="0.54107">
        <ele>1474</ele>
        <time>2019-06-30T08:46:44.000Z</time>
      </trkpt>
      <trkpt lat="42.98068" lon="0.54108">
        <ele>1473</ele>
        <time>2019-06-30T08:46:46.000Z</time>
      </trkpt>
      <trkpt lat="42.98067" lon="0.54107">
        <ele>1473</ele>
        <time>2019-06-30T08:46:48.000Z</time>
      </trkpt>
      <trkpt lat="42.98066" lon="0.54106">
        <ele>1474</ele>
        <time>2019-06-30T08:46:50.000Z</time>
      </trkpt>
      <trkpt lat="42.98066" lon="0.54106">
        <ele>1474</ele>
        <time>2019-06-30T08:46:52.000Z</time>
      </trkpt>
      <trkpt lat="42.98065" lon="0.54105">
        <ele>1474</ele>
        <time>2019-06-30T08:46:54.000Z</time>
      </trkpt>
      <trkpt lat="42.98063" lon="0.54105">
        <ele>1474</ele>
        <time>2019-06-30T08:46:56.000Z</time>
      </trkpt>
      <trkpt lat="42.98062" lon="0.54105">
        <ele>1474</ele>
        <time>2019-06-30T08:46:58.000Z</time>
      </trkpt>
      <trkpt lat="42.98061" lon="0.54104">
        <ele>1474</ele>
        <time>2019-06-30T08:47:00.000Z</time>
      </trkpt>
      <trkpt lat="42.98061" lon="0.54104">
        <ele>1474</ele>
        <time>2019-06-30T08:47:02.000Z</time>
      </trkpt>
      <trkpt lat="42.98061" lon="0.54103">
        <ele>1475</ele>
        <time>2019-06-30T08:47:04.000Z</time>
      </trkpt>
      <trkpt lat="42.98059" lon="0.54103">
        <ele>1475</ele>
        <time>2019-06-30T08:47:06.000Z</time>
      </trkpt>
      <trkpt lat="42.98059" lon="0.54104">
        <ele>1475</ele>
        <time>2019-06-30T08:47:08.000Z</time>
      </trkpt>
      <trkpt lat="42.98058" lon="0.54105">
        <ele>1475</ele>
        <time>2019-06-30T08:47:10.000Z</time>
      </trkpt>
      <trkpt lat="42.98058" lon="0.54104">
        <ele>1475</ele>
        <time>2019-06-30T08:47:12.000Z</time>
      </trkpt>
      <trkpt lat="42.98055" lon="0.54104">
        <ele>1475</ele>
        <time>2019-06-30T08:47:14.000Z</time>
      </trkpt>
      <trkpt lat="42.98053" lon="0.54105">
        <ele>1476</ele>
        <time>2019-06-30T08:47:16.000Z</time>
      </trkpt>
      <trkpt lat="42.98053" lon="0.54104">
        <ele>1476</ele>
        <time>2019-06-30T08:47:18.000Z</time>
      </trkpt>
      <trkpt lat="42.98052" lon="0.54105">
        <ele>1476</ele>
        <time>2019-06-30T08:47:20.000Z</time>
      </trkpt>
      <trkpt lat="42.98052" lon="0.54105">
        <ele>1476</ele>
        <time>2019-06-30T08:47:22.000Z</time>
      </trkpt>
      <trkpt lat="42.98053" lon="0.54105">
        <ele>1476</ele>
        <time>2019-06-30T08:47:24.000Z</time>
      </trkpt>
      <trkpt lat="42.98053" lon="0.54105">
        <ele>1476</ele>
        <time>2019-06-30T08:47:26.000Z</time>
      </trkpt>
      <trkpt lat="42.98052" lon="0.54105">
        <ele>1476</ele>
        <time>2019-06-30T08:47:28.000Z</time>
      </trkpt>
      <trkpt lat="42.98051" lon="0.54106">
        <ele>1476</ele>
        <time>2019-06-30T08:47:30.000Z</time>
      </trkpt>
      <trkpt lat="42.98051" lon="0.54106">
        <ele>1476</ele>
        <time>2019-06-30T08:47:32.000Z</time>
      </trkpt>
      <trkpt lat="42.98052" lon="0.54106">
        <ele>1476</ele>
        <time>2019-06-30T08:47:34.000Z</time>
      </trkpt>
      <trkpt lat="42.9805" lon="0.54105">
        <ele>1476</ele>
        <time>2019-06-30T08:47:36.000Z</time>
      </trkpt>
      <trkpt lat="42.9805" lon="0.54106">
        <ele>1476</ele>
        <time>2019-06-30T08:47:38.000Z</time>
      </trkpt>
      <trkpt lat="42.9805" lon="0.54106">
        <ele>1476</ele>
        <time>2019-06-30T08:47:40.000Z</time>
      </trkpt>
      <trkpt lat="42.9805" lon="0.54107">
        <ele>1476</ele>
        <time>2019-06-30T08:47:42.000Z</time>
      </trkpt>
      <trkpt lat="42.98051" lon="0.54109">
        <ele>1476</ele>
        <time>2019-06-30T08:47:44.000Z</time>
      </trkpt>
      <trkpt lat="42.9805" lon="0.5411">
        <ele>1475</ele>
        <time>2019-06-30T08:47:46.000Z</time>
      </trkpt>
      <trkpt lat="42.9805" lon="0.54112">
        <ele>1475</ele>
        <time>2019-06-30T08:47:48.000Z</time>
      </trkpt>
      <trkpt lat="42.9805" lon="0.54112">
        <ele>1475</ele>
        <time>2019-06-30T08:47:50.000Z</time>
      </trkpt>
      <trkpt lat="42.9805" lon="0.54112">
        <ele>1475</ele>
        <time>2019-06-30T08:47:52.000Z</time>
      </trkpt>
      <trkpt lat="42.98049" lon="0.54113">
        <ele>1475</ele>
        <time>2019-06-30T08:47:54.000Z</time>
      </trkpt>
      <trkpt lat="42.98049" lon="0.54114">
        <ele>1475</ele>
        <time>2019-06-30T08:47:56.000Z</time>
      </trkpt>
      <trkpt lat="42.98049" lon="0.54115">
        <ele>1475</ele>
        <time>2019-06-30T08:47:58.000Z</time>
      </trkpt>
      <trkpt lat="42.98049" lon="0.54117">
        <ele>1475</ele>
        <time>2019-06-30T08:48:00.000Z</time>
      </trkpt>
      <trkpt lat="42.98048" lon="0.54117">
        <ele>1475</ele>
        <time>2019-06-30T08:48:02.000Z</time>
      </trkpt>
      <trkpt lat="42.98047" lon="0.54118">
        <ele>1475</ele>
        <time>2019-06-30T08:48:04.000Z</time>
      </trkpt>
      <trkpt lat="42.98046" lon="0.54118">
        <ele>1475</ele>
        <time>2019-06-30T08:48:06.000Z</time>
      </trkpt>
      <trkpt lat="42.98045" lon="0.54118">
        <ele>1475</ele>
        <time>2019-06-30T08:48:08.000Z</time>
      </trkpt>
      <trkpt lat="42.98043" lon="0.54118">
        <ele>1475</ele>
        <time>2019-06-30T08:48:10.000Z</time>
      </trkpt>
      <trkpt lat="42.98042" lon="0.54118">
        <ele>1476</ele>
        <time>2019-06-30T08:48:12.000Z</time>
      </trkpt>
      <trkpt lat="42.98041" lon="0.54118">
        <ele>1476</ele>
        <time>2019-06-30T08:48:14.000Z</time>
      </trkpt>
      <trkpt lat="42.9804" lon="0.54119">
        <ele>1476</ele>
        <time>2019-06-30T08:48:16.000Z</time>
      </trkpt>
      <trkpt lat="42.98039" lon="0.5412">
        <ele>1476</ele>
        <time>2019-06-30T08:48:18.000Z</time>
      </trkpt>
      <trkpt lat="42.98038" lon="0.54123">
        <ele>1476</ele>
        <time>2019-06-30T08:48:20.000Z</time>
      </trkpt>
      <trkpt lat="42.98037" lon="0.54124">
        <ele>1476</ele>
        <time>2019-06-30T08:48:22.000Z</time>
      </trkpt>
      <trkpt lat="42.98035" lon="0.54125">
        <ele>1476</ele>
        <time>2019-06-30T08:48:24.000Z</time>
      </trkpt>
      <trkpt lat="42.98033" lon="0.54126">
        <ele>1476</ele>
        <time>2019-06-30T08:48:26.000Z</time>
      </trkpt>
      <trkpt lat="42.98032" lon="0.54126">
        <ele>1476</ele>
        <time>2019-06-30T08:48:28.000Z</time>
      </trkpt>
      <trkpt lat="42.98031" lon="0.54127">
        <ele>1476</ele>
        <time>2019-06-30T08:48:30.000Z</time>
      </trkpt>
      <trkpt lat="42.98029" lon="0.54127">
        <ele>1476</ele>
        <time>2019-06-30T08:48:32.000Z</time>
      </trkpt>
      <trkpt lat="42.98029" lon="0.54127">
        <ele>1477</ele>
        <time>2019-06-30T08:48:34.000Z</time>
      </trkpt>
      <trkpt lat="42.98028" lon="0.54127">
        <ele>1477</ele>
        <time>2019-06-30T08:48:36.000Z</time>
      </trkpt>
      <trkpt lat="42.98027" lon="0.54128">
        <ele>1477</ele>
        <time>2019-06-30T08:48:38.000Z</time>
      </trkpt>
      <trkpt lat="42.98026" lon="0.54128">
        <ele>1477</ele>
        <time>2019-06-30T08:48:40.000Z</time>
      </trkpt>
      <trkpt lat="42.98025" lon="0.54128">
        <ele>1477</ele>
        <time>2019-06-30T08:48:42.000Z</time>
      </trkpt>
      <trkpt lat="42.98023" lon="0.54128">
        <ele>1477</ele>
        <time>2019-06-30T08:48:44.000Z</time>
      </trkpt>
      <trkpt lat="42.98022" lon="0.54127">
        <ele>1478</ele>
        <time>2019-06-30T08:48:46.000Z</time>
      </trkpt>
      <trkpt lat="42.98021" lon="0.54127">
        <ele>1478</ele>
        <time>2019-06-30T08:48:48.000Z</time>
      </trkpt>
      <trkpt lat="42.98022" lon="0.54128">
        <ele>1478</ele>
        <time>2019-06-30T08:48:50.000Z</time>
      </trkpt>
      <trkpt lat="42.98022" lon="0.54128">
        <ele>1477</ele>
        <time>2019-06-30T08:48:52.000Z</time>
      </trkpt>
      <trkpt lat="42.98023" lon="0.54129">
        <ele>1477</ele>
        <time>2019-06-30T08:48:54.000Z</time>
      </trkpt>
      <trkpt lat="42.98024" lon="0.54128">
        <ele>1477</ele>
        <time>2019-06-30T08:48:56.000Z</time>
      </trkpt>
      <trkpt lat="42.98024" lon="0.54128">
        <ele>1477</ele>
        <time>2019-06-30T08:48:58.000Z</time>
      </trkpt>
      <trkpt lat="42.98024" lon="0.54128">
        <ele>1477</ele>
        <time>2019-06-30T08:49:00.000Z</time>
      </trkpt>
      <trkpt lat="42.98024" lon="0.54128">
        <ele>1477</ele>
        <time>2019-06-30T08:49:02.000Z</time>
      </trkpt>
      <trkpt lat="42.98024" lon="0.54129">
        <ele>1477</ele>
        <time>2019-06-30T08:49:04.000Z</time>
      </trkpt>
      <trkpt lat="42.98025" lon="0.54129">
        <ele>1477</ele>
        <time>2019-06-30T08:49:06.000Z</time>
      </trkpt>
      <trkpt lat="42.98025" lon="0.54129">
        <ele>1477</ele>
        <time>2019-06-30T08:49:08.000Z</time>
      </trkpt>
      <trkpt lat="42.98025" lon="0.54128">
        <ele>1477</ele>
        <time>2019-06-30T08:49:10.000Z</time>
      </trkpt>
      <trkpt lat="42.98026" lon="0.54128">
        <ele>1477</ele>
        <time>2019-06-30T08:49:12.000Z</time>
      </trkpt>
      <trkpt lat="42.98026" lon="0.54128">
        <ele>1477</ele>
        <time>2019-06-30T08:49:14.000Z</time>
      </trkpt>
      <trkpt lat="42.98026" lon="0.54128">
        <ele>1477</ele>
        <time>2019-06-30T08:49:16.000Z</time>
      </trkpt>
      <trkpt lat="42.98025" lon="0.54128">
        <ele>1477</ele>
        <time>2019-06-30T08:49:18.000Z</time>
      </trkpt>
      <trkpt lat="42.98025" lon="0.54128">
        <ele>1477</ele>
        <time>2019-06-30T08:49:20.000Z</time>
      </trkpt>
      <trkpt lat="42.98024" lon="0.54128">
        <ele>1477</ele>
        <time>2019-06-30T08:49:22.000Z</time>
      </trkpt>
      <trkpt lat="42.98024" lon="0.54129">
        <ele>1477</ele>
        <time>2019-06-30T08:49:24.000Z</time>
      </trkpt>
      <trkpt lat="42.98023" lon="0.54129">
        <ele>1477</ele>
        <time>2019-06-30T08:49:26.000Z</time>
      </trkpt>
      <trkpt lat="42.98022" lon="0.54129">
        <ele>1477</ele>
        <time>2019-06-30T08:49:28.000Z</time>
      </trkpt>
      <trkpt lat="42.98021" lon="0.54129">
        <ele>1478</ele>
        <time>2019-06-30T08:49:30.000Z</time>
      </trkpt>
      <trkpt lat="42.98021" lon="0.54129">
        <ele>1478</ele>
        <time>2019-06-30T08:49:32.000Z</time>
      </trkpt>
      <trkpt lat="42.98021" lon="0.54129">
        <ele>1478</ele>
        <time>2019-06-30T08:49:34.000Z</time>
      </trkpt>
      <trkpt lat="42.98022" lon="0.54128">
        <ele>1478</ele>
        <time>2019-06-30T08:49:36.000Z</time>
      </trkpt>
      <trkpt lat="42.98023" lon="0.54127">
        <ele>1478</ele>
        <time>2019-06-30T08:49:38.000Z</time>
      </trkpt>
      <trkpt lat="42.98024" lon="0.54126">
        <ele>1478</ele>
        <time>2019-06-30T08:49:40.000Z</time>
      </trkpt>
      <trkpt lat="42.98024" lon="0.54124">
        <ele>1478</ele>
        <time>2019-06-30T08:49:42.000Z</time>
      </trkpt>
      <trkpt lat="42.98025" lon="0.54123">
        <ele>1478</ele>
        <time>2019-06-30T08:49:44.000Z</time>
      </trkpt>
      <trkpt lat="42.98026" lon="0.54122">
        <ele>1478</ele>
        <time>2019-06-30T08:49:46.000Z</time>
      </trkpt>
      <trkpt lat="42.98026" lon="0.54121">
        <ele>1478</ele>
        <time>2019-06-30T08:49:48.000Z</time>
      </trkpt>
      <trkpt lat="42.98027" lon="0.5412">
        <ele>1478</ele>
        <time>2019-06-30T08:49:50.000Z</time>
      </trkpt>
      <trkpt lat="42.98027" lon="0.5412">
        <ele>1478</ele>
        <time>2019-06-30T08:49:52.000Z</time>
      </trkpt>
      <trkpt lat="42.98028" lon="0.54119">
        <ele>1478</ele>
        <time>2019-06-30T08:49:54.000Z</time>
      </trkpt>
      <trkpt lat="42.98028" lon="0.54119">
        <ele>1478</ele>
        <time>2019-06-30T08:49:56.000Z</time>
      </trkpt>
      <trkpt lat="42.98029" lon="0.54118">
        <ele>1478</ele>
        <time>2019-06-30T08:49:58.000Z</time>
      </trkpt>
      <trkpt lat="42.98029" lon="0.54117">
        <ele>1478</ele>
        <time>2019-06-30T08:50:00.000Z</time>
      </trkpt>
      <trkpt lat="42.98029" lon="0.54115">
        <ele>1478</ele>
        <time>2019-06-30T08:50:02.000Z</time>
      </trkpt>
      <trkpt lat="42.9803" lon="0.54114">
        <ele>1478</ele>
        <time>2019-06-30T08:50:04.000Z</time>
      </trkpt>
      <trkpt lat="42.98031" lon="0.54113">
        <ele>1478</ele>
        <time>2019-06-30T08:50:06.000Z</time>
      </trkpt>
      <trkpt lat="42.98031" lon="0.54112">
        <ele>1478</ele>
        <time>2019-06-30T08:50:08.000Z</time>
      </trkpt>
      <trkpt lat="42.98031" lon="0.5411">
        <ele>1479</ele>
        <time>2019-06-30T08:50:10.000Z</time>
      </trkpt>
      <trkpt lat="42.98032" lon="0.54109">
        <ele>1479</ele>
        <time>2019-06-30T08:50:12.000Z</time>
      </trkpt>
      <trkpt lat="42.98032" lon="0.54108">
        <ele>1479</ele>
        <time>2019-06-30T08:50:14.000Z</time>
      </trkpt>
      <trkpt lat="42.98032" lon="0.54106">
        <ele>1479</ele>
        <time>2019-06-30T08:50:16.000Z</time>
      </trkpt>
      <trkpt lat="42.98032" lon="0.54106">
        <ele>1479</ele>
        <time>2019-06-30T08:50:18.000Z</time>
      </trkpt>
      <trkpt lat="42.98033" lon="0.54105">
        <ele>1479</ele>
        <time>2019-06-30T08:50:20.000Z</time>
      </trkpt>
      <trkpt lat="42.98033" lon="0.54105">
        <ele>1479</ele>
        <time>2019-06-30T08:50:22.000Z</time>
      </trkpt>
      <trkpt lat="42.98033" lon="0.54105">
        <ele>1479</ele>
        <time>2019-06-30T08:50:24.000Z</time>
      </trkpt>
      <trkpt lat="42.98032" lon="0.54104">
        <ele>1479</ele>
        <time>2019-06-30T08:50:26.000Z</time>
      </trkpt>
      <trkpt lat="42.98033" lon="0.54103">
        <ele>1479</ele>
        <time>2019-06-30T08:50:28.000Z</time>
      </trkpt>
      <trkpt lat="42.98032" lon="0.54102">
        <ele>1480</ele>
        <time>2019-06-30T08:50:30.000Z</time>
      </trkpt>
      <trkpt lat="42.98032" lon="0.541">
        <ele>1480</ele>
        <time>2019-06-30T08:50:32.000Z</time>
      </trkpt>
      <trkpt lat="42.98033" lon="0.54099">
        <ele>1480</ele>
        <time>2019-06-30T08:50:34.000Z</time>
      </trkpt>
      <trkpt lat="42.98033" lon="0.54097">
        <ele>1480</ele>
        <time>2019-06-30T08:50:36.000Z</time>
      </trkpt>
      <trkpt lat="42.98034" lon="0.54095">
        <ele>1480</ele>
        <time>2019-06-30T08:50:38.000Z</time>
      </trkpt>
      <trkpt lat="42.98034" lon="0.54094">
        <ele>1480</ele>
        <time>2019-06-30T08:50:40.000Z</time>
      </trkpt>
      <trkpt lat="42.98035" lon="0.54092">
        <ele>1480</ele>
        <time>2019-06-30T08:50:42.000Z</time>
      </trkpt>
      <trkpt lat="42.98035" lon="0.54091">
        <ele>1481</ele>
        <time>2019-06-30T08:50:44.000Z</time>
      </trkpt>
      <trkpt lat="42.98036" lon="0.5409">
        <ele>1481</ele>
        <time>2019-06-30T08:50:46.000Z</time>
      </trkpt>
      <trkpt lat="42.98036" lon="0.54088">
        <ele>1481</ele>
        <time>2019-06-30T08:50:48.000Z</time>
      </trkpt>
      <trkpt lat="42.98035" lon="0.54086">
        <ele>1481</ele>
        <time>2019-06-30T08:50:50.000Z</time>
      </trkpt>
      <trkpt lat="42.98036" lon="0.54085">
        <ele>1481</ele>
        <time>2019-06-30T08:50:52.000Z</time>
      </trkpt>
      <trkpt lat="42.98037" lon="0.54084">
        <ele>1481</ele>
        <time>2019-06-30T08:50:54.000Z</time>
      </trkpt>
      <trkpt lat="42.98038" lon="0.54082">
        <ele>1481</ele>
        <time>2019-06-30T08:50:56.000Z</time>
      </trkpt>
      <trkpt lat="42.98038" lon="0.54081">
        <ele>1482</ele>
        <time>2019-06-30T08:50:58.000Z</time>
      </trkpt>
      <trkpt lat="42.98037" lon="0.54081">
        <ele>1482</ele>
        <time>2019-06-30T08:51:00.000Z</time>
      </trkpt>
      <trkpt lat="42.98038" lon="0.54079">
        <ele>1482</ele>
        <time>2019-06-30T08:51:02.000Z</time>
      </trkpt>
      <trkpt lat="42.98039" lon="0.54077">
        <ele>1483</ele>
        <time>2019-06-30T08:51:04.000Z</time>
      </trkpt>
      <trkpt lat="42.98039" lon="0.54076">
        <ele>1483</ele>
        <time>2019-06-30T08:51:06.000Z</time>
      </trkpt>
      <trkpt lat="42.98039" lon="0.54075">
        <ele>1484</ele>
        <time>2019-06-30T08:51:08.000Z</time>
      </trkpt>
      <trkpt lat="42.9804" lon="0.54075">
        <ele>1484</ele>
        <time>2019-06-30T08:51:10.000Z</time>
      </trkpt>
      <trkpt lat="42.9804" lon="0.54075">
        <ele>1484</ele>
        <time>2019-06-30T08:51:12.000Z</time>
      </trkpt>
      <trkpt lat="42.98041" lon="0.54074">
        <ele>1484</ele>
        <time>2019-06-30T08:51:14.000Z</time>
      </trkpt>
      <trkpt lat="42.98041" lon="0.54074">
        <ele>1484</ele>
        <time>2019-06-30T08:51:16.000Z</time>
      </trkpt>
      <trkpt lat="42.98041" lon="0.54073">
        <ele>1484</ele>
        <time>2019-06-30T08:51:18.000Z</time>
      </trkpt>
      <trkpt lat="42.9804" lon="0.54073">
        <ele>1484</ele>
        <time>2019-06-30T08:51:20.000Z</time>
      </trkpt>
      <trkpt lat="42.98039" lon="0.54073">
        <ele>1484</ele>
        <time>2019-06-30T08:51:22.000Z</time>
      </trkpt>
      <trkpt lat="42.98038" lon="0.54073">
        <ele>1484</ele>
        <time>2019-06-30T08:51:24.000Z</time>
      </trkpt>
      <trkpt lat="42.98038" lon="0.54072">
        <ele>1485</ele>
        <time>2019-06-30T08:51:26.000Z</time>
      </trkpt>
      <trkpt lat="42.98038" lon="0.54071">
        <ele>1485</ele>
        <time>2019-06-30T08:51:28.000Z</time>
      </trkpt>
      <trkpt lat="42.98039" lon="0.54071">
        <ele>1485</ele>
        <time>2019-06-30T08:51:30.000Z</time>
      </trkpt>
      <trkpt lat="42.98039" lon="0.5407">
        <ele>1485</ele>
        <time>2019-06-30T08:51:32.000Z</time>
      </trkpt>
      <trkpt lat="42.9804" lon="0.5407">
        <ele>1486</ele>
        <time>2019-06-30T08:51:34.000Z</time>
      </trkpt>
      <trkpt lat="42.9804" lon="0.5407">
        <ele>1486</ele>
        <time>2019-06-30T08:51:36.000Z</time>
      </trkpt>
      <trkpt lat="42.9804" lon="0.54069">
        <ele>1486</ele>
        <time>2019-06-30T08:51:38.000Z</time>
      </trkpt>
      <trkpt lat="42.98041" lon="0.54067">
        <ele>1487</ele>
        <time>2019-06-30T08:51:40.000Z</time>
      </trkpt>
      <trkpt lat="42.98042" lon="0.54065">
        <ele>1487</ele>
        <time>2019-06-30T08:51:42.000Z</time>
      </trkpt>
      <trkpt lat="42.98042" lon="0.54063">
        <ele>1488</ele>
        <time>2019-06-30T08:51:44.000Z</time>
      </trkpt>
      <trkpt lat="42.98043" lon="0.54062">
        <ele>1488</ele>
        <time>2019-06-30T08:51:46.000Z</time>
      </trkpt>
      <trkpt lat="42.98044" lon="0.5406">
        <ele>1489</ele>
        <time>2019-06-30T08:51:48.000Z</time>
      </trkpt>
      <trkpt lat="42.98045" lon="0.54059">
        <ele>1489</ele>
        <time>2019-06-30T08:51:50.000Z</time>
      </trkpt>
      <trkpt lat="42.98045" lon="0.54057">
        <ele>1490</ele>
        <time>2019-06-30T08:51:52.000Z</time>
      </trkpt>
      <trkpt lat="42.98046" lon="0.54056">
        <ele>1491</ele>
        <time>2019-06-30T08:51:54.000Z</time>
      </trkpt>
      <trkpt lat="42.98047" lon="0.54054">
        <ele>1491</ele>
        <time>2019-06-30T08:51:56.000Z</time>
      </trkpt>
      <trkpt lat="42.98047" lon="0.54054">
        <ele>1491</ele>
        <time>2019-06-30T08:51:58.000Z</time>
      </trkpt>
      <trkpt lat="42.98048" lon="0.54053">
        <ele>1492</ele>
        <time>2019-06-30T08:52:00.000Z</time>
      </trkpt>
      <trkpt lat="42.98049" lon="0.54053">
        <ele>1492</ele>
        <time>2019-06-30T08:52:02.000Z</time>
      </trkpt>
      <trkpt lat="42.9805" lon="0.54052">
        <ele>1492</ele>
        <time>2019-06-30T08:52:04.000Z</time>
      </trkpt>
      <trkpt lat="42.98051" lon="0.54051">
        <ele>1492</ele>
        <time>2019-06-30T08:52:06.000Z</time>
      </trkpt>
      <trkpt lat="42.98051" lon="0.5405">
        <ele>1493</ele>
        <time>2019-06-30T08:52:08.000Z</time>
      </trkpt>
      <trkpt lat="42.98052" lon="0.5405">
        <ele>1493</ele>
        <time>2019-06-30T08:52:10.000Z</time>
      </trkpt>
      <trkpt lat="42.98052" lon="0.54048">
        <ele>1492</ele>
        <time>2019-06-30T08:52:12.000Z</time>
      </trkpt>
      <trkpt lat="42.98053" lon="0.54048">
        <ele>1492</ele>
        <time>2019-06-30T08:52:14.000Z</time>
      </trkpt>
      <trkpt lat="42.98054" lon="0.54047">
        <ele>1492</ele>
        <time>2019-06-30T08:52:16.000Z</time>
      </trkpt>
      <trkpt lat="42.98054" lon="0.54046">
        <ele>1492</ele>
        <time>2019-06-30T08:52:18.000Z</time>
      </trkpt>
      <trkpt lat="42.98055" lon="0.54044">
        <ele>1492</ele>
        <time>2019-06-30T08:52:20.000Z</time>
      </trkpt>
      <trkpt lat="42.98055" lon="0.54043">
        <ele>1492</ele>
        <time>2019-06-30T08:52:22.000Z</time>
      </trkpt>
      <trkpt lat="42.98055" lon="0.54042">
        <ele>1492</ele>
        <time>2019-06-30T08:52:24.000Z</time>
      </trkpt>
      <trkpt lat="42.98056" lon="0.5404">
        <ele>1492</ele>
        <time>2019-06-30T08:52:26.000Z</time>
      </trkpt>
      <trkpt lat="42.98057" lon="0.54039">
        <ele>1492</ele>
        <time>2019-06-30T08:52:28.000Z</time>
      </trkpt>
      <trkpt lat="42.98057" lon="0.54038">
        <ele>1492</ele>
        <time>2019-06-30T08:52:30.000Z</time>
      </trkpt>
      <trkpt lat="42.98058" lon="0.54037">
        <ele>1492</ele>
        <time>2019-06-30T08:52:32.000Z</time>
      </trkpt>
      <trkpt lat="42.98059" lon="0.54037">
        <ele>1492</ele>
        <time>2019-06-30T08:52:34.000Z</time>
      </trkpt>
      <trkpt lat="42.9806" lon="0.54036">
        <ele>1492</ele>
        <time>2019-06-30T08:52:36.000Z</time>
      </trkpt>
      <trkpt lat="42.98061" lon="0.54034">
        <ele>1492</ele>
        <time>2019-06-30T08:52:38.000Z</time>
      </trkpt>
      <trkpt lat="42.98062" lon="0.54033">
        <ele>1492</ele>
        <time>2019-06-30T08:52:40.000Z</time>
      </trkpt>
      <trkpt lat="42.98063" lon="0.54031">
        <ele>1492</ele>
        <time>2019-06-30T08:52:42.000Z</time>
      </trkpt>
      <trkpt lat="42.98064" lon="0.5403">
        <ele>1492</ele>
        <time>2019-06-30T08:52:44.000Z</time>
      </trkpt>
      <trkpt lat="42.98064" lon="0.5403">
        <ele>1492</ele>
        <time>2019-06-30T08:52:46.000Z</time>
      </trkpt>
      <trkpt lat="42.98065" lon="0.54029">
        <ele>1492</ele>
        <time>2019-06-30T08:52:48.000Z</time>
      </trkpt>
      <trkpt lat="42.98065" lon="0.54028">
        <ele>1492</ele>
        <time>2019-06-30T08:52:50.000Z</time>
      </trkpt>
      <trkpt lat="42.98066" lon="0.54027">
        <ele>1492</ele>
        <time>2019-06-30T08:52:52.000Z</time>
      </trkpt>
      <trkpt lat="42.98067" lon="0.54027">
        <ele>1492</ele>
        <time>2019-06-30T08:52:54.000Z</time>
      </trkpt>
      <trkpt lat="42.98067" lon="0.54027">
        <ele>1492</ele>
        <time>2019-06-30T08:52:56.000Z</time>
      </trkpt>
      <trkpt lat="42.98068" lon="0.54027">
        <ele>1492</ele>
        <time>2019-06-30T08:52:58.000Z</time>
      </trkpt>
      <trkpt lat="42.98069" lon="0.54026">
        <ele>1492</ele>
        <time>2019-06-30T08:53:00.000Z</time>
      </trkpt>
      <trkpt lat="42.98069" lon="0.54026">
        <ele>1492</ele>
        <time>2019-06-30T08:53:02.000Z</time>
      </trkpt>
      <trkpt lat="42.98069" lon="0.54026">
        <ele>1492</ele>
        <time>2019-06-30T08:53:04.000Z</time>
      </trkpt>
      <trkpt lat="42.98068" lon="0.54026">
        <ele>1492</ele>
        <time>2019-06-30T08:53:06.000Z</time>
      </trkpt>
      <trkpt lat="42.98068" lon="0.54025">
        <ele>1492</ele>
        <time>2019-06-30T08:53:08.000Z</time>
      </trkpt>
      <trkpt lat="42.98068" lon="0.54025">
        <ele>1492</ele>
        <time>2019-06-30T08:53:10.000Z</time>
      </trkpt>
      <trkpt lat="42.98068" lon="0.54025">
        <ele>1492</ele>
        <time>2019-06-30T08:53:12.000Z</time>
      </trkpt>
      <trkpt lat="42.98068" lon="0.54025">
        <ele>1492</ele>
        <time>2019-06-30T08:53:14.000Z</time>
      </trkpt>
      <trkpt lat="42.98068" lon="0.54026">
        <ele>1492</ele>
        <time>2019-06-30T08:53:16.000Z</time>
      </trkpt>
      <trkpt lat="42.98068" lon="0.54025">
        <ele>1492</ele>
        <time>2019-06-30T08:53:18.000Z</time>
      </trkpt>
      <trkpt lat="42.98067" lon="0.54025">
        <ele>1492</ele>
        <time>2019-06-30T08:53:20.000Z</time>
      </trkpt>
      <trkpt lat="42.98067" lon="0.54024">
        <ele>1492</ele>
        <time>2019-06-30T08:53:22.000Z</time>
      </trkpt>
      <trkpt lat="42.98067" lon="0.54024">
        <ele>1492</ele>
        <time>2019-06-30T08:53:24.000Z</time>
      </trkpt>
      <trkpt lat="42.98068" lon="0.54024">
        <ele>1493</ele>
        <time>2019-06-30T08:53:26.000Z</time>
      </trkpt>
      <trkpt lat="42.98069" lon="0.54023">
        <ele>1493</ele>
        <time>2019-06-30T08:53:28.000Z</time>
      </trkpt>
      <trkpt lat="42.98071" lon="0.54022">
        <ele>1494</ele>
        <time>2019-06-30T08:53:30.000Z</time>
      </trkpt>
      <trkpt lat="42.98072" lon="0.54021">
        <ele>1494</ele>
        <time>2019-06-30T08:53:32.000Z</time>
      </trkpt>
      <trkpt lat="42.98072" lon="0.54021">
        <ele>1494</ele>
        <time>2019-06-30T08:53:34.000Z</time>
      </trkpt>
      <trkpt lat="42.98074" lon="0.5402">
        <ele>1495</ele>
        <time>2019-06-30T08:53:36.000Z</time>
      </trkpt>
      <trkpt lat="42.98075" lon="0.54018">
        <ele>1495</ele>
        <time>2019-06-30T08:53:38.000Z</time>
      </trkpt>
      <trkpt lat="42.98076" lon="0.54017">
        <ele>1496</ele>
        <time>2019-06-30T08:53:40.000Z</time>
      </trkpt>
      <trkpt lat="42.98077" lon="0.54016">
        <ele>1496</ele>
        <time>2019-06-30T08:53:42.000Z</time>
      </trkpt>
      <trkpt lat="42.98078" lon="0.54014">
        <ele>1497</ele>
        <time>2019-06-30T08:53:44.000Z</time>
      </trkpt>
      <trkpt lat="42.98079" lon="0.54013">
        <ele>1497</ele>
        <time>2019-06-30T08:53:46.000Z</time>
      </trkpt>
      <trkpt lat="42.9808" lon="0.54013">
        <ele>1498</ele>
        <time>2019-06-30T08:53:48.000Z</time>
      </trkpt>
      <trkpt lat="42.98081" lon="0.54012">
        <ele>1498</ele>
        <time>2019-06-30T08:53:50.000Z</time>
      </trkpt>
      <trkpt lat="42.98081" lon="0.54011">
        <ele>1498</ele>
        <time>2019-06-30T08:53:52.000Z</time>
      </trkpt>
      <trkpt lat="42.98081" lon="0.5401">
        <ele>1498</ele>
        <time>2019-06-30T08:53:54.000Z</time>
      </trkpt>
      <trkpt lat="42.98081" lon="0.5401">
        <ele>1498</ele>
        <time>2019-06-30T08:53:56.000Z</time>
      </trkpt>
      <trkpt lat="42.9808" lon="0.54011">
        <ele>1498</ele>
        <time>2019-06-30T08:53:58.000Z</time>
      </trkpt>
      <trkpt lat="42.98079" lon="0.54011">
        <ele>1498</ele>
        <time>2019-06-30T08:54:00.000Z</time>
      </trkpt>
      <trkpt lat="42.98079" lon="0.54012">
        <ele>1497</ele>
        <time>2019-06-30T08:54:02.000Z</time>
      </trkpt>
      <trkpt lat="42.98079" lon="0.54011">
        <ele>1497</ele>
        <time>2019-06-30T08:54:04.000Z</time>
      </trkpt>
      <trkpt lat="42.98078" lon="0.54012">
        <ele>1497</ele>
        <time>2019-06-30T08:54:06.000Z</time>
      </trkpt>
      <trkpt lat="42.98078" lon="0.54012">
        <ele>1497</ele>
        <time>2019-06-30T08:54:08.000Z</time>
      </trkpt>
      <trkpt lat="42.98078" lon="0.54012">
        <ele>1497</ele>
        <time>2019-06-30T08:54:10.000Z</time>
      </trkpt>
      <trkpt lat="42.98078" lon="0.54012">
        <ele>1497</ele>
        <time>2019-06-30T08:54:12.000Z</time>
      </trkpt>
      <trkpt lat="42.98078" lon="0.54012">
        <ele>1497</ele>
        <time>2019-06-30T08:54:14.000Z</time>
      </trkpt>
      <trkpt lat="42.98079" lon="0.54012">
        <ele>1497</ele>
        <time>2019-06-30T08:54:16.000Z</time>
      </trkpt>
      <trkpt lat="42.98079" lon="0.54011">
        <ele>1497</ele>
        <time>2019-06-30T08:54:18.000Z</time>
      </trkpt>
      <trkpt lat="42.98079" lon="0.54011">
        <ele>1497</ele>
        <time>2019-06-30T08:54:20.000Z</time>
      </trkpt>
      <trkpt lat="42.98079" lon="0.5401">
        <ele>1498</ele>
        <time>2019-06-30T08:54:22.000Z</time>
      </trkpt>
      <trkpt lat="42.98079" lon="0.5401">
        <ele>1498</ele>
        <time>2019-06-30T08:54:24.000Z</time>
      </trkpt>
      <trkpt lat="42.98079" lon="0.54009">
        <ele>1498</ele>
        <time>2019-06-30T08:54:26.000Z</time>
      </trkpt>
      <trkpt lat="42.98079" lon="0.54009">
        <ele>1498</ele>
        <time>2019-06-30T08:54:28.000Z</time>
      </trkpt>
      <trkpt lat="42.98079" lon="0.54009">
        <ele>1498</ele>
        <time>2019-06-30T08:54:30.000Z</time>
      </trkpt>
      <trkpt lat="42.98078" lon="0.54009">
        <ele>1498</ele>
        <time>2019-06-30T08:54:32.000Z</time>
      </trkpt>
      <trkpt lat="42.98078" lon="0.5401">
        <ele>1497</ele>
        <time>2019-06-30T08:54:34.000Z</time>
      </trkpt>
      <trkpt lat="42.98078" lon="0.5401">
        <ele>1497</ele>
        <time>2019-06-30T08:54:36.000Z</time>
      </trkpt>
      <trkpt lat="42.98078" lon="0.54009">
        <ele>1498</ele>
        <time>2019-06-30T08:54:38.000Z</time>
      </trkpt>
      <trkpt lat="42.98078" lon="0.54009">
        <ele>1498</ele>
        <time>2019-06-30T08:54:40.000Z</time>
      </trkpt>
      <trkpt lat="42.98078" lon="0.54009">
        <ele>1498</ele>
        <time>2019-06-30T08:54:42.000Z</time>
      </trkpt>
      <trkpt lat="42.98078" lon="0.54009">
        <ele>1498</ele>
        <time>2019-06-30T08:54:44.000Z</time>
      </trkpt>
      <trkpt lat="42.98078" lon="0.54007">
        <ele>1498</ele>
        <time>2019-06-30T08:54:46.000Z</time>
      </trkpt>
      <trkpt lat="42.98078" lon="0.54008">
        <ele>1498</ele>
        <time>2019-06-30T08:54:48.000Z</time>
      </trkpt>
      <trkpt lat="42.98077" lon="0.54007">
        <ele>1498</ele>
        <time>2019-06-30T08:54:50.000Z</time>
      </trkpt>
      <trkpt lat="42.98078" lon="0.54007">
        <ele>1498</ele>
        <time>2019-06-30T08:54:52.000Z</time>
      </trkpt>
      <trkpt lat="42.98077" lon="0.54007">
        <ele>1498</ele>
        <time>2019-06-30T08:54:54.000Z</time>
      </trkpt>
      <trkpt lat="42.98077" lon="0.54007">
        <ele>1498</ele>
        <time>2019-06-30T08:54:56.000Z</time>
      </trkpt>
      <trkpt lat="42.98077" lon="0.54008">
        <ele>1498</ele>
        <time>2019-06-30T08:54:58.000Z</time>
      </trkpt>
      <trkpt lat="42.98077" lon="0.54008">
        <ele>1498</ele>
        <time>2019-06-30T08:55:00.000Z</time>
      </trkpt>
      <trkpt lat="42.98077" lon="0.54008">
        <ele>1497</ele>
        <time>2019-06-30T08:55:02.000Z</time>
      </trkpt>
      <trkpt lat="42.98077" lon="0.54008">
        <ele>1497</ele>
        <time>2019-06-30T08:55:04.000Z</time>
      </trkpt>
      <trkpt lat="42.98077" lon="0.54009">
        <ele>1497</ele>
        <time>2019-06-30T08:55:06.000Z</time>
      </trkpt>
      <trkpt lat="42.98077" lon="0.54009">
        <ele>1497</ele>
        <time>2019-06-30T08:55:08.000Z</time>
      </trkpt>
      <trkpt lat="42.98077" lon="0.54009">
        <ele>1497</ele>
        <time>2019-06-30T08:55:10.000Z</time>
      </trkpt>
      <trkpt lat="42.98076" lon="0.54009">
        <ele>1497</ele>
        <time>2019-06-30T08:55:12.000Z</time>
      </trkpt>
      <trkpt lat="42.98076" lon="0.54009">
        <ele>1497</ele>
        <time>2019-06-30T08:55:14.000Z</time>
      </trkpt>
      <trkpt lat="42.98076" lon="0.54009">
        <ele>1497</ele>
        <time>2019-06-30T08:55:16.000Z</time>
      </trkpt>
      <trkpt lat="42.98075" lon="0.54009">
        <ele>1497</ele>
        <time>2019-06-30T08:55:18.000Z</time>
      </trkpt>
      <trkpt lat="42.98075" lon="0.54008">
        <ele>1497</ele>
        <time>2019-06-30T08:55:20.000Z</time>
      </trkpt>
      <trkpt lat="42.98075" lon="0.54008">
        <ele>1497</ele>
        <time>2019-06-30T08:55:22.000Z</time>
      </trkpt>
      <trkpt lat="42.98075" lon="0.54008">
        <ele>1497</ele>
        <time>2019-06-30T08:55:24.000Z</time>
      </trkpt>
      <trkpt lat="42.98075" lon="0.54008">
        <ele>1497</ele>
        <time>2019-06-30T08:55:26.000Z</time>
      </trkpt>
      <trkpt lat="42.98075" lon="0.54007">
        <ele>1497</ele>
        <time>2019-06-30T08:55:28.000Z</time>
      </trkpt>
      <trkpt lat="42.98075" lon="0.54007">
        <ele>1497</ele>
        <time>2019-06-30T08:55:30.000Z</time>
      </trkpt>
      <trkpt lat="42.98075" lon="0.54005">
        <ele>1497</ele>
        <time>2019-06-30T08:55:32.000Z</time>
      </trkpt>
      <trkpt lat="42.98075" lon="0.54005">
        <ele>1498</ele>
        <time>2019-06-30T08:55:34.000Z</time>
      </trkpt>
      <trkpt lat="42.98074" lon="0.54005">
        <ele>1497</ele>
        <time>2019-06-30T08:55:36.000Z</time>
      </trkpt>
      <trkpt lat="42.98074" lon="0.54005">
        <ele>1497</ele>
        <time>2019-06-30T08:55:38.000Z</time>
      </trkpt>
      <trkpt lat="42.98075" lon="0.54005">
        <ele>1497</ele>
        <time>2019-06-30T08:55:40.000Z</time>
      </trkpt>
      <trkpt lat="42.98075" lon="0.54005">
        <ele>1498</ele>
        <time>2019-06-30T08:55:42.000Z</time>
      </trkpt>
      <trkpt lat="42.98074" lon="0.54005">
        <ele>1497</ele>
        <time>2019-06-30T08:55:44.000Z</time>
      </trkpt>
      <trkpt lat="42.98074" lon="0.54005">
        <ele>1497</ele>
        <time>2019-06-30T08:55:46.000Z</time>
      </trkpt>
      <trkpt lat="42.98074" lon="0.54005">
        <ele>1497</ele>
        <time>2019-06-30T08:55:48.000Z</time>
      </trkpt>
      <trkpt lat="42.98074" lon="0.54005">
        <ele>1497</ele>
        <time>2019-06-30T08:55:50.000Z</time>
      </trkpt>
      <trkpt lat="42.98073" lon="0.54005">
        <ele>1497</ele>
        <time>2019-06-30T08:55:52.000Z</time>
      </trkpt>
      <trkpt lat="42.98073" lon="0.54005">
        <ele>1497</ele>
        <time>2019-06-30T08:55:54.000Z</time>
      </trkpt>
      <trkpt lat="42.98073" lon="0.54005">
        <ele>1497</ele>
        <time>2019-06-30T08:55:56.000Z</time>
      </trkpt>
      <trkpt lat="42.98074" lon="0.54005">
        <ele>1497</ele>
        <time>2019-06-30T08:55:58.000Z</time>
      </trkpt>
      <trkpt lat="42.98074" lon="0.54005">
        <ele>1497</ele>
        <time>2019-06-30T08:56:00.000Z</time>
      </trkpt>
      <trkpt lat="42.98074" lon="0.54006">
        <ele>1497</ele>
        <time>2019-06-30T08:56:02.000Z</time>
      </trkpt>
      <trkpt lat="42.98073" lon="0.54006">
        <ele>1497</ele>
        <time>2019-06-30T08:56:04.000Z</time>
      </trkpt>
      <trkpt lat="42.98074" lon="0.54007">
        <ele>1497</ele>
        <time>2019-06-30T08:56:06.000Z</time>
      </trkpt>
      <trkpt lat="42.98073" lon="0.54008">
        <ele>1497</ele>
        <time>2019-06-30T08:56:08.000Z</time>
      </trkpt>
      <trkpt lat="42.98073" lon="0.54008">
        <ele>1497</ele>
        <time>2019-06-30T08:56:10.000Z</time>
      </trkpt>
      <trkpt lat="42.98073" lon="0.54009">
        <ele>1496</ele>
        <time>2019-06-30T08:56:12.000Z</time>
      </trkpt>
      <trkpt lat="42.98073" lon="0.54008">
        <ele>1496</ele>
        <time>2019-06-30T08:56:14.000Z</time>
      </trkpt>
      <trkpt lat="42.98073" lon="0.54009">
        <ele>1496</ele>
        <time>2019-06-30T08:56:16.000Z</time>
      </trkpt>
      <trkpt lat="42.98072" lon="0.54008">
        <ele>1496</ele>
        <time>2019-06-30T08:56:18.000Z</time>
      </trkpt>
      <trkpt lat="42.98072" lon="0.54008">
        <ele>1496</ele>
        <time>2019-06-30T08:56:20.000Z</time>
      </trkpt>
      <trkpt lat="42.98072" lon="0.54008">
        <ele>1496</ele>
        <time>2019-06-30T08:56:22.000Z</time>
      </trkpt>
      <trkpt lat="42.98072" lon="0.54008">
        <ele>1496</ele>
        <time>2019-06-30T08:56:24.000Z</time>
      </trkpt>
      <trkpt lat="42.98073" lon="0.54007">
        <ele>1497</ele>
        <time>2019-06-30T08:56:26.000Z</time>
      </trkpt>
      <trkpt lat="42.98072" lon="0.54007">
        <ele>1497</ele>
        <time>2019-06-30T08:56:28.000Z</time>
      </trkpt>
      <trkpt lat="42.98072" lon="0.54006">
        <ele>1497</ele>
        <time>2019-06-30T08:56:30.000Z</time>
      </trkpt>
      <trkpt lat="42.98072" lon="0.54006">
        <ele>1497</ele>
        <time>2019-06-30T08:56:32.000Z</time>
      </trkpt>
      <trkpt lat="42.98072" lon="0.54006">
        <ele>1497</ele>
        <time>2019-06-30T08:56:34.000Z</time>
      </trkpt>
      <trkpt lat="42.98072" lon="0.54006">
        <ele>1497</ele>
        <time>2019-06-30T08:56:36.000Z</time>
      </trkpt>
      <trkpt lat="42.98072" lon="0.54005">
        <ele>1497</ele>
        <time>2019-06-30T08:56:38.000Z</time>
      </trkpt>
      <trkpt lat="42.98072" lon="0.54005">
        <ele>1497</ele>
        <time>2019-06-30T08:56:40.000Z</time>
      </trkpt>
      <trkpt lat="42.98072" lon="0.54005">
        <ele>1497</ele>
        <time>2019-06-30T08:56:42.000Z</time>
      </trkpt>
      <trkpt lat="42.98073" lon="0.54005">
        <ele>1497</ele>
        <time>2019-06-30T08:56:44.000Z</time>
      </trkpt>
      <trkpt lat="42.98073" lon="0.54004">
        <ele>1497</ele>
        <time>2019-06-30T08:56:46.000Z</time>
      </trkpt>
      <trkpt lat="42.98073" lon="0.54004">
        <ele>1497</ele>
        <time>2019-06-30T08:56:48.000Z</time>
      </trkpt>
      <trkpt lat="42.98074" lon="0.54004">
        <ele>1497</ele>
        <time>2019-06-30T08:56:50.000Z</time>
      </trkpt>
      <trkpt lat="42.98073" lon="0.54004">
        <ele>1497</ele>
        <time>2019-06-30T08:56:52.000Z</time>
      </trkpt>
      <trkpt lat="42.98073" lon="0.54004">
        <ele>1497</ele>
        <time>2019-06-30T08:56:54.000Z</time>
      </trkpt>
      <trkpt lat="42.98073" lon="0.54004">
        <ele>1497</ele>
        <time>2019-06-30T08:56:56.000Z</time>
      </trkpt>
      <trkpt lat="42.98073" lon="0.54005">
        <ele>1497</ele>
        <time>2019-06-30T08:56:58.000Z</time>
      </trkpt>
      <trkpt lat="42.98073" lon="0.54006">
        <ele>1497</ele>
        <time>2019-06-30T08:57:00.000Z</time>
      </trkpt>
      <trkpt lat="42.98072" lon="0.54006">
        <ele>1497</ele>
        <time>2019-06-30T08:57:02.000Z</time>
      </trkpt>
      <trkpt lat="42.98072" lon="0.54007">
        <ele>1497</ele>
        <time>2019-06-30T08:57:04.000Z</time>
      </trkpt>
      <trkpt lat="42.98072" lon="0.54007">
        <ele>1496</ele>
        <time>2019-06-30T08:57:06.000Z</time>
      </trkpt>
      <trkpt lat="42.98072" lon="0.54007">
        <ele>1496</ele>
        <time>2019-06-30T08:57:08.000Z</time>
      </trkpt>
      <trkpt lat="42.98072" lon="0.54006">
        <ele>1496</ele>
        <time>2019-06-30T08:57:10.000Z</time>
      </trkpt>
      <trkpt lat="42.98072" lon="0.54006">
        <ele>1496</ele>
        <time>2019-06-30T08:57:12.000Z</time>
      </trkpt>
      <trkpt lat="42.98072" lon="0.54006">
        <ele>1497</ele>
        <time>2019-06-30T08:57:14.000Z</time>
      </trkpt>
      <trkpt lat="42.98072" lon="0.54006">
        <ele>1497</ele>
        <time>2019-06-30T08:57:16.000Z</time>
      </trkpt>
      <trkpt lat="42.98072" lon="0.54006">
        <ele>1497</ele>
        <time>2019-06-30T08:57:18.000Z</time>
      </trkpt>
      <trkpt lat="42.98072" lon="0.54006">
        <ele>1497</ele>
        <time>2019-06-30T08:57:20.000Z</time>
      </trkpt>
      <trkpt lat="42.98073" lon="0.54006">
        <ele>1497</ele>
        <time>2019-06-30T08:57:22.000Z</time>
      </trkpt>
      <trkpt lat="42.98073" lon="0.54005">
        <ele>1497</ele>
        <time>2019-06-30T08:57:24.000Z</time>
      </trkpt>
      <trkpt lat="42.98074" lon="0.54004">
        <ele>1497</ele>
        <time>2019-06-30T08:57:26.000Z</time>
      </trkpt>
      <trkpt lat="42.98074" lon="0.54003">
        <ele>1498</ele>
        <time>2019-06-30T08:57:28.000Z</time>
      </trkpt>
      <trkpt lat="42.98074" lon="0.54002">
        <ele>1498</ele>
        <time>2019-06-30T08:57:30.000Z</time>
      </trkpt>
      <trkpt lat="42.98074" lon="0.54002">
        <ele>1498</ele>
        <time>2019-06-30T08:57:32.000Z</time>
      </trkpt>
      <trkpt lat="42.98073" lon="0.54002">
        <ele>1497</ele>
        <time>2019-06-30T08:57:34.000Z</time>
      </trkpt>
      <trkpt lat="42.98073" lon="0.54002">
        <ele>1498</ele>
        <time>2019-06-30T08:57:36.000Z</time>
      </trkpt>
      <trkpt lat="42.98073" lon="0.54002">
        <ele>1498</ele>
        <time>2019-06-30T08:57:38.000Z</time>
      </trkpt>
      <trkpt lat="42.98073" lon="0.54002">
        <ele>1497</ele>
        <time>2019-06-30T08:57:40.000Z</time>
      </trkpt>
      <trkpt lat="42.98073" lon="0.54002">
        <ele>1497</ele>
        <time>2019-06-30T08:57:42.000Z</time>
      </trkpt>
      <trkpt lat="42.98073" lon="0.54003">
        <ele>1497</ele>
        <time>2019-06-30T08:57:44.000Z</time>
      </trkpt>
      <trkpt lat="42.98073" lon="0.54003">
        <ele>1497</ele>
        <time>2019-06-30T08:57:46.000Z</time>
      </trkpt>
      <trkpt lat="42.98074" lon="0.54004">
        <ele>1497</ele>
        <time>2019-06-30T08:57:48.000Z</time>
      </trkpt>
      <trkpt lat="42.98073" lon="0.54004">
        <ele>1497</ele>
        <time>2019-06-30T08:57:50.000Z</time>
      </trkpt>
      <trkpt lat="42.98073" lon="0.54005">
        <ele>1497</ele>
        <time>2019-06-30T08:57:52.000Z</time>
      </trkpt>
      <trkpt lat="42.98073" lon="0.54005">
        <ele>1497</ele>
        <time>2019-06-30T08:57:54.000Z</time>
      </trkpt>
      <trkpt lat="42.98073" lon="0.54006">
        <ele>1497</ele>
        <time>2019-06-30T08:57:56.000Z</time>
      </trkpt>
      <trkpt lat="42.98073" lon="0.54006">
        <ele>1497</ele>
        <time>2019-06-30T08:57:58.000Z</time>
      </trkpt>
      <trkpt lat="42.98074" lon="0.54006">
        <ele>1497</ele>
        <time>2019-06-30T08:58:00.000Z</time>
      </trkpt>
      <trkpt lat="42.98074" lon="0.54007">
        <ele>1497</ele>
        <time>2019-06-30T08:58:02.000Z</time>
      </trkpt>
      <trkpt lat="42.98074" lon="0.54007">
        <ele>1497</ele>
        <time>2019-06-30T08:58:04.000Z</time>
      </trkpt>
      <trkpt lat="42.98074" lon="0.54007">
        <ele>1497</ele>
        <time>2019-06-30T08:58:06.000Z</time>
      </trkpt>
      <trkpt lat="42.98074" lon="0.54006">
        <ele>1497</ele>
        <time>2019-06-30T08:58:08.000Z</time>
      </trkpt>
      <trkpt lat="42.98074" lon="0.54006">
        <ele>1497</ele>
        <time>2019-06-30T08:58:10.000Z</time>
      </trkpt>
      <trkpt lat="42.98074" lon="0.54005">
        <ele>1497</ele>
        <time>2019-06-30T08:58:12.000Z</time>
      </trkpt>
      <trkpt lat="42.98074" lon="0.54004">
        <ele>1498</ele>
        <time>2019-06-30T08:58:14.000Z</time>
      </trkpt>
      <trkpt lat="42.98074" lon="0.54004">
        <ele>1498</ele>
        <time>2019-06-30T08:58:16.000Z</time>
      </trkpt>
      <trkpt lat="42.98074" lon="0.54003">
        <ele>1498</ele>
        <time>2019-06-30T08:58:18.000Z</time>
      </trkpt>
      <trkpt lat="42.98075" lon="0.54003">
        <ele>1498</ele>
        <time>2019-06-30T08:58:20.000Z</time>
      </trkpt>
      <trkpt lat="42.98075" lon="0.54003">
        <ele>1498</ele>
        <time>2019-06-30T08:58:22.000Z</time>
      </trkpt>
      <trkpt lat="42.98074" lon="0.54003">
        <ele>1498</ele>
        <time>2019-06-30T08:58:24.000Z</time>
      </trkpt>
      <trkpt lat="42.98074" lon="0.54003">
        <ele>1498</ele>
        <time>2019-06-30T08:58:26.000Z</time>
      </trkpt>
      <trkpt lat="42.98074" lon="0.54003">
        <ele>1498</ele>
        <time>2019-06-30T08:58:28.000Z</time>
      </trkpt>
      <trkpt lat="42.98074" lon="0.54002">
        <ele>1498</ele>
        <time>2019-06-30T08:58:30.000Z</time>
      </trkpt>
      <trkpt lat="42.98074" lon="0.54002">
        <ele>1498</ele>
        <time>2019-06-30T08:58:32.000Z</time>
      </trkpt>
      <trkpt lat="42.98073" lon="0.54002">
        <ele>1498</ele>
        <time>2019-06-30T08:58:34.000Z</time>
      </trkpt>
      <trkpt lat="42.98073" lon="0.54003">
        <ele>1497</ele>
        <time>2019-06-30T08:58:36.000Z</time>
      </trkpt>
      <trkpt lat="42.98073" lon="0.54003">
        <ele>1497</ele>
        <time>2019-06-30T08:58:38.000Z</time>
      </trkpt>
      <trkpt lat="42.98072" lon="0.54003">
        <ele>1497</ele>
        <time>2019-06-30T08:58:40.000Z</time>
      </trkpt>
      <trkpt lat="42.98071" lon="0.54004">
        <ele>1497</ele>
        <time>2019-06-30T08:58:42.000Z</time>
      </trkpt>
      <trkpt lat="42.98071" lon="0.54004">
        <ele>1497</ele>
        <time>2019-06-30T08:58:44.000Z</time>
      </trkpt>
      <trkpt lat="42.9807" lon="0.54004">
        <ele>1497</ele>
        <time>2019-06-30T08:58:46.000Z</time>
      </trkpt>
      <trkpt lat="42.9807" lon="0.54004">
        <ele>1496</ele>
        <time>2019-06-30T08:58:48.000Z</time>
      </trkpt>
      <trkpt lat="42.98069" lon="0.54005">
        <ele>1496</ele>
        <time>2019-06-30T08:58:50.000Z</time>
      </trkpt>
      <trkpt lat="42.98069" lon="0.54005">
        <ele>1496</ele>
        <time>2019-06-30T08:58:52.000Z</time>
      </trkpt>
      <trkpt lat="42.98069" lon="0.54005">
        <ele>1496</ele>
        <time>2019-06-30T08:58:54.000Z</time>
      </trkpt>
      <trkpt lat="42.98068" lon="0.54005">
        <ele>1496</ele>
        <time>2019-06-30T08:58:56.000Z</time>
      </trkpt>
      <trkpt lat="42.98068" lon="0.54006">
        <ele>1496</ele>
        <time>2019-06-30T08:58:58.000Z</time>
      </trkpt>
      <trkpt lat="42.98068" lon="0.54006">
        <ele>1496</ele>
        <time>2019-06-30T08:59:00.000Z</time>
      </trkpt>
      <trkpt lat="42.98069" lon="0.54007">
        <ele>1496</ele>
        <time>2019-06-30T08:59:02.000Z</time>
      </trkpt>
      <trkpt lat="42.9807" lon="0.54007">
        <ele>1496</ele>
        <time>2019-06-30T08:59:04.000Z</time>
      </trkpt>
      <trkpt lat="42.9807" lon="0.54007">
        <ele>1496</ele>
        <time>2019-06-30T08:59:06.000Z</time>
      </trkpt>
      <trkpt lat="42.98071" lon="0.54007">
        <ele>1496</ele>
        <time>2019-06-30T08:59:08.000Z</time>
      </trkpt>
      <trkpt lat="42.98071" lon="0.54007">
        <ele>1496</ele>
        <time>2019-06-30T08:59:10.000Z</time>
      </trkpt>
      <trkpt lat="42.98071" lon="0.54008">
        <ele>1496</ele>
        <time>2019-06-30T08:59:12.000Z</time>
      </trkpt>
      <trkpt lat="42.98071" lon="0.54008">
        <ele>1496</ele>
        <time>2019-06-30T08:59:14.000Z</time>
      </trkpt>
      <trkpt lat="42.98071" lon="0.54008">
        <ele>1496</ele>
        <time>2019-06-30T08:59:16.000Z</time>
      </trkpt>
      <trkpt lat="42.9807" lon="0.54009">
        <ele>1496</ele>
        <time>2019-06-30T08:59:18.000Z</time>
      </trkpt>
      <trkpt lat="42.9807" lon="0.54009">
        <ele>1496</ele>
        <time>2019-06-30T08:59:20.000Z</time>
      </trkpt>
      <trkpt lat="42.98071" lon="0.54008">
        <ele>1496</ele>
        <time>2019-06-30T08:59:22.000Z</time>
      </trkpt>
      <trkpt lat="42.98071" lon="0.54008">
        <ele>1496</ele>
        <time>2019-06-30T08:59:24.000Z</time>
      </trkpt>
      <trkpt lat="42.98071" lon="0.54008">
        <ele>1496</ele>
        <time>2019-06-30T08:59:26.000Z</time>
      </trkpt>
      <trkpt lat="42.98072" lon="0.54007">
        <ele>1496</ele>
        <time>2019-06-30T08:59:28.000Z</time>
      </trkpt>
      <trkpt lat="42.98072" lon="0.54005">
        <ele>1497</ele>
        <time>2019-06-30T08:59:30.000Z</time>
      </trkpt>
      <trkpt lat="42.98072" lon="0.54004">
        <ele>1497</ele>
        <time>2019-06-30T08:59:32.000Z</time>
      </trkpt>
      <trkpt lat="42.98073" lon="0.54002">
        <ele>1497</ele>
        <time>2019-06-30T08:59:34.000Z</time>
      </trkpt>
      <trkpt lat="42.98073" lon="0.53999">
        <ele>1498</ele>
        <time>2019-06-30T08:59:36.000Z</time>
      </trkpt>
      <trkpt lat="42.98073" lon="0.53997">
        <ele>1498</ele>
        <time>2019-06-30T08:59:38.000Z</time>
      </trkpt>
      <trkpt lat="42.98074" lon="0.53995">
        <ele>1499</ele>
        <time>2019-06-30T08:59:40.000Z</time>
      </trkpt>
      <trkpt lat="42.98074" lon="0.53993">
        <ele>1499</ele>
        <time>2019-06-30T08:59:42.000Z</time>
      </trkpt>
      <trkpt lat="42.98074" lon="0.53991">
        <ele>1500</ele>
        <time>2019-06-30T08:59:44.000Z</time>
      </trkpt>
      <trkpt lat="42.98074" lon="0.5399">
        <ele>1500</ele>
        <time>2019-06-30T08:59:46.000Z</time>
      </trkpt>
      <trkpt lat="42.98075" lon="0.53988">
        <ele>1500</ele>
        <time>2019-06-30T08:59:48.000Z</time>
      </trkpt>
      <trkpt lat="42.98075" lon="0.53986">
        <ele>1501</ele>
        <time>2019-06-30T08:59:50.000Z</time>
      </trkpt>
      <trkpt lat="42.98075" lon="0.53984">
        <ele>1501</ele>
        <time>2019-06-30T08:59:52.000Z</time>
      </trkpt>
      <trkpt lat="42.98075" lon="0.53982">
        <ele>1502</ele>
        <time>2019-06-30T08:59:54.000Z</time>
      </trkpt>
      <trkpt lat="42.98076" lon="0.5398">
        <ele>1502</ele>
        <time>2019-06-30T08:59:56.000Z</time>
      </trkpt>
      <trkpt lat="42.98077" lon="0.53978">
        <ele>1503</ele>
        <time>2019-06-30T08:59:58.000Z</time>
      </trkpt>
      <trkpt lat="42.98078" lon="0.53976">
        <ele>1503</ele>
        <time>2019-06-30T09:00:00.000Z</time>
      </trkpt>
      <trkpt lat="42.98078" lon="0.53975">
        <ele>1503</ele>
        <time>2019-06-30T09:00:02.000Z</time>
      </trkpt>
      <trkpt lat="42.98079" lon="0.53973">
        <ele>1504</ele>
        <time>2019-06-30T09:00:04.000Z</time>
      </trkpt>
      <trkpt lat="42.9808" lon="0.5397">
        <ele>1505</ele>
        <time>2019-06-30T09:00:06.000Z</time>
      </trkpt>
      <trkpt lat="42.98082" lon="0.53968">
        <ele>1505</ele>
        <time>2019-06-30T09:00:08.000Z</time>
      </trkpt>
      <trkpt lat="42.98083" lon="0.53967">
        <ele>1506</ele>
        <time>2019-06-30T09:00:10.000Z</time>
      </trkpt>
      <trkpt lat="42.98083" lon="0.53966">
        <ele>1505</ele>
        <time>2019-06-30T09:00:12.000Z</time>
      </trkpt>
      <trkpt lat="42.98083" lon="0.53965">
        <ele>1505</ele>
        <time>2019-06-30T09:00:14.000Z</time>
      </trkpt>
      <trkpt lat="42.98084" lon="0.53963">
        <ele>1505</ele>
        <time>2019-06-30T09:00:16.000Z</time>
      </trkpt>
      <trkpt lat="42.98085" lon="0.53963">
        <ele>1504</ele>
        <time>2019-06-30T09:00:18.000Z</time>
      </trkpt>
      <trkpt lat="42.98086" lon="0.53961">
        <ele>1504</ele>
        <time>2019-06-30T09:00:20.000Z</time>
      </trkpt>
      <trkpt lat="42.98087" lon="0.5396">
        <ele>1505</ele>
        <time>2019-06-30T09:00:22.000Z</time>
      </trkpt>
      <trkpt lat="42.98088" lon="0.53958">
        <ele>1505</ele>
        <time>2019-06-30T09:00:24.000Z</time>
      </trkpt>
      <trkpt lat="42.98088" lon="0.53956">
        <ele>1506</ele>
        <time>2019-06-30T09:00:26.000Z</time>
      </trkpt>
      <trkpt lat="42.98088" lon="0.53954">
        <ele>1506</ele>
        <time>2019-06-30T09:00:28.000Z</time>
      </trkpt>
      <trkpt lat="42.98089" lon="0.53952">
        <ele>1506</ele>
        <time>2019-06-30T09:00:30.000Z</time>
      </trkpt>
      <trkpt lat="42.9809" lon="0.53951">
        <ele>1506</ele>
        <time>2019-06-30T09:00:32.000Z</time>
      </trkpt>
      <trkpt lat="42.9809" lon="0.53948">
        <ele>1506</ele>
        <time>2019-06-30T09:00:34.000Z</time>
      </trkpt>
      <trkpt lat="42.98091" lon="0.53947">
        <ele>1507</ele>
        <time>2019-06-30T09:00:36.000Z</time>
      </trkpt>
      <trkpt lat="42.98091" lon="0.53945">
        <ele>1507</ele>
        <time>2019-06-30T09:00:38.000Z</time>
      </trkpt>
      <trkpt lat="42.98091" lon="0.53944">
        <ele>1507</ele>
        <time>2019-06-30T09:00:40.000Z</time>
      </trkpt>
      <trkpt lat="42.98092" lon="0.53942">
        <ele>1507</ele>
        <time>2019-06-30T09:00:42.000Z</time>
      </trkpt>
      <trkpt lat="42.98093" lon="0.53941">
        <ele>1507</ele>
        <time>2019-06-30T09:00:44.000Z</time>
      </trkpt>
      <trkpt lat="42.98092" lon="0.53939">
        <ele>1507</ele>
        <time>2019-06-30T09:00:46.000Z</time>
      </trkpt>
      <trkpt lat="42.98093" lon="0.53937">
        <ele>1507</ele>
        <time>2019-06-30T09:00:48.000Z</time>
      </trkpt>
      <trkpt lat="42.98094" lon="0.53936">
        <ele>1506</ele>
        <time>2019-06-30T09:00:50.000Z</time>
      </trkpt>
      <trkpt lat="42.98095" lon="0.53934">
        <ele>1506</ele>
        <time>2019-06-30T09:00:52.000Z</time>
      </trkpt>
      <trkpt lat="42.98096" lon="0.53933">
        <ele>1506</ele>
        <time>2019-06-30T09:00:54.000Z</time>
      </trkpt>
      <trkpt lat="42.98097" lon="0.53932">
        <ele>1506</ele>
        <time>2019-06-30T09:00:56.000Z</time>
      </trkpt>
      <trkpt lat="42.98098" lon="0.53931">
        <ele>1506</ele>
        <time>2019-06-30T09:00:58.000Z</time>
      </trkpt>
      <trkpt lat="42.98099" lon="0.5393">
        <ele>1505</ele>
        <time>2019-06-30T09:01:00.000Z</time>
      </trkpt>
      <trkpt lat="42.98101" lon="0.53928">
        <ele>1505</ele>
        <time>2019-06-30T09:01:02.000Z</time>
      </trkpt>
      <trkpt lat="42.98102" lon="0.53927">
        <ele>1505</ele>
        <time>2019-06-30T09:01:04.000Z</time>
      </trkpt>
      <trkpt lat="42.98103" lon="0.53925">
        <ele>1505</ele>
        <time>2019-06-30T09:01:06.000Z</time>
      </trkpt>
      <trkpt lat="42.98104" lon="0.53924">
        <ele>1504</ele>
        <time>2019-06-30T09:01:08.000Z</time>
      </trkpt>
      <trkpt lat="42.98105" lon="0.53922">
        <ele>1504</ele>
        <time>2019-06-30T09:01:10.000Z</time>
      </trkpt>
      <trkpt lat="42.98106" lon="0.53921">
        <ele>1504</ele>
        <time>2019-06-30T09:01:12.000Z</time>
      </trkpt>
      <trkpt lat="42.98107" lon="0.5392">
        <ele>1504</ele>
        <time>2019-06-30T09:01:14.000Z</time>
      </trkpt>
      <trkpt lat="42.98108" lon="0.53919">
        <ele>1503</ele>
        <time>2019-06-30T09:01:16.000Z</time>
      </trkpt>
      <trkpt lat="42.98109" lon="0.53918">
        <ele>1503</ele>
        <time>2019-06-30T09:01:18.000Z</time>
      </trkpt>
      <trkpt lat="42.98111" lon="0.53917">
        <ele>1503</ele>
        <time>2019-06-30T09:01:20.000Z</time>
      </trkpt>
      <trkpt lat="42.98112" lon="0.53915">
        <ele>1503</ele>
        <time>2019-06-30T09:01:22.000Z</time>
      </trkpt>
      <trkpt lat="42.98113" lon="0.53914">
        <ele>1503</ele>
        <time>2019-06-30T09:01:24.000Z</time>
      </trkpt>
      <trkpt lat="42.98113" lon="0.53913">
        <ele>1502</ele>
        <time>2019-06-30T09:01:26.000Z</time>
      </trkpt>
      <trkpt lat="42.98114" lon="0.53912">
        <ele>1502</ele>
        <time>2019-06-30T09:01:28.000Z</time>
      </trkpt>
      <trkpt lat="42.98115" lon="0.53911">
        <ele>1502</ele>
        <time>2019-06-30T09:01:30.000Z</time>
      </trkpt>
      <trkpt lat="42.98115" lon="0.53909">
        <ele>1502</ele>
        <time>2019-06-30T09:01:32.000Z</time>
      </trkpt>
      <trkpt lat="42.98116" lon="0.53907">
        <ele>1502</ele>
        <time>2019-06-30T09:01:34.000Z</time>
      </trkpt>
      <trkpt lat="42.98117" lon="0.53906">
        <ele>1502</ele>
        <time>2019-06-30T09:01:36.000Z</time>
      </trkpt>
      <trkpt lat="42.98118" lon="0.53904">
        <ele>1503</ele>
        <time>2019-06-30T09:01:38.000Z</time>
      </trkpt>
      <trkpt lat="42.98119" lon="0.53903">
        <ele>1503</ele>
        <time>2019-06-30T09:01:40.000Z</time>
      </trkpt>
      <trkpt lat="42.9812" lon="0.53902">
        <ele>1504</ele>
        <time>2019-06-30T09:01:42.000Z</time>
      </trkpt>
      <trkpt lat="42.98121" lon="0.53901">
        <ele>1504</ele>
        <time>2019-06-30T09:01:44.000Z</time>
      </trkpt>
      <trkpt lat="42.98122" lon="0.539">
        <ele>1504</ele>
        <time>2019-06-30T09:01:46.000Z</time>
      </trkpt>
      <trkpt lat="42.98123" lon="0.53899">
        <ele>1505</ele>
        <time>2019-06-30T09:01:48.000Z</time>
      </trkpt>
      <trkpt lat="42.98124" lon="0.53898">
        <ele>1505</ele>
        <time>2019-06-30T09:01:50.000Z</time>
      </trkpt>
      <trkpt lat="42.98125" lon="0.53897">
        <ele>1505</ele>
        <time>2019-06-30T09:01:52.000Z</time>
      </trkpt>
      <trkpt lat="42.98125" lon="0.53895">
        <ele>1506</ele>
        <time>2019-06-30T09:01:54.000Z</time>
      </trkpt>
      <trkpt lat="42.98126" lon="0.53893">
        <ele>1506</ele>
        <time>2019-06-30T09:01:56.000Z</time>
      </trkpt>
      <trkpt lat="42.98126" lon="0.53891">
        <ele>1507</ele>
        <time>2019-06-30T09:01:58.000Z</time>
      </trkpt>
      <trkpt lat="42.98127" lon="0.5389">
        <ele>1507</ele>
        <time>2019-06-30T09:02:00.000Z</time>
      </trkpt>
      <trkpt lat="42.98128" lon="0.53889">
        <ele>1507</ele>
        <time>2019-06-30T09:02:02.000Z</time>
      </trkpt>
      <trkpt lat="42.98129" lon="0.53888">
        <ele>1508</ele>
        <time>2019-06-30T09:02:04.000Z</time>
      </trkpt>
      <trkpt lat="42.9813" lon="0.53887">
        <ele>1508</ele>
        <time>2019-06-30T09:02:06.000Z</time>
      </trkpt>
      <trkpt lat="42.98131" lon="0.53886">
        <ele>1508</ele>
        <time>2019-06-30T09:02:08.000Z</time>
      </trkpt>
      <trkpt lat="42.98132" lon="0.53885">
        <ele>1509</ele>
        <time>2019-06-30T09:02:10.000Z</time>
      </trkpt>
      <trkpt lat="42.98132" lon="0.53883">
        <ele>1509</ele>
        <time>2019-06-30T09:02:12.000Z</time>
      </trkpt>
      <trkpt lat="42.98133" lon="0.53882">
        <ele>1509</ele>
        <time>2019-06-30T09:02:14.000Z</time>
      </trkpt>
      <trkpt lat="42.98133" lon="0.5388">
        <ele>1508</ele>
        <time>2019-06-30T09:02:16.000Z</time>
      </trkpt>
      <trkpt lat="42.98134" lon="0.53879">
        <ele>1508</ele>
        <time>2019-06-30T09:02:18.000Z</time>
      </trkpt>
      <trkpt lat="42.98134" lon="0.53877">
        <ele>1508</ele>
        <time>2019-06-30T09:02:20.000Z</time>
      </trkpt>
      <trkpt lat="42.98135" lon="0.53875">
        <ele>1508</ele>
        <time>2019-06-30T09:02:22.000Z</time>
      </trkpt>
      <trkpt lat="42.98136" lon="0.53874">
        <ele>1508</ele>
        <time>2019-06-30T09:02:24.000Z</time>
      </trkpt>
      <trkpt lat="42.98137" lon="0.53873">
        <ele>1508</ele>
        <time>2019-06-30T09:02:26.000Z</time>
      </trkpt>
      <trkpt lat="42.98138" lon="0.53872">
        <ele>1507</ele>
        <time>2019-06-30T09:02:28.000Z</time>
      </trkpt>
      <trkpt lat="42.98138" lon="0.5387">
        <ele>1507</ele>
        <time>2019-06-30T09:02:30.000Z</time>
      </trkpt>
      <trkpt lat="42.98139" lon="0.53869">
        <ele>1507</ele>
        <time>2019-06-30T09:02:32.000Z</time>
      </trkpt>
      <trkpt lat="42.98139" lon="0.53866">
        <ele>1507</ele>
        <time>2019-06-30T09:02:34.000Z</time>
      </trkpt>
      <trkpt lat="42.9814" lon="0.53864">
        <ele>1506</ele>
        <time>2019-06-30T09:02:36.000Z</time>
      </trkpt>
      <trkpt lat="42.98141" lon="0.53862">
        <ele>1506</ele>
        <time>2019-06-30T09:02:38.000Z</time>
      </trkpt>
      <trkpt lat="42.98142" lon="0.53861">
        <ele>1506</ele>
        <time>2019-06-30T09:02:40.000Z</time>
      </trkpt>
      <trkpt lat="42.98142" lon="0.53859">
        <ele>1506</ele>
        <time>2019-06-30T09:02:42.000Z</time>
      </trkpt>
      <trkpt lat="42.98142" lon="0.53857">
        <ele>1505</ele>
        <time>2019-06-30T09:02:44.000Z</time>
      </trkpt>
      <trkpt lat="42.98143" lon="0.53855">
        <ele>1505</ele>
        <time>2019-06-30T09:02:46.000Z</time>
      </trkpt>
      <trkpt lat="42.98143" lon="0.53853">
        <ele>1505</ele>
        <time>2019-06-30T09:02:48.000Z</time>
      </trkpt>
      <trkpt lat="42.98143" lon="0.53851">
        <ele>1505</ele>
        <time>2019-06-30T09:02:50.000Z</time>
      </trkpt>
      <trkpt lat="42.98144" lon="0.53849">
        <ele>1505</ele>
        <time>2019-06-30T09:02:52.000Z</time>
      </trkpt>
      <trkpt lat="42.98144" lon="0.53848">
        <ele>1505</ele>
        <time>2019-06-30T09:02:54.000Z</time>
      </trkpt>
      <trkpt lat="42.98144" lon="0.53846">
        <ele>1506</ele>
        <time>2019-06-30T09:02:56.000Z</time>
      </trkpt>
      <trkpt lat="42.98145" lon="0.53844">
        <ele>1506</ele>
        <time>2019-06-30T09:02:58.000Z</time>
      </trkpt>
      <trkpt lat="42.98146" lon="0.53843">
        <ele>1506</ele>
        <time>2019-06-30T09:03:00.000Z</time>
      </trkpt>
      <trkpt lat="42.98146" lon="0.53842">
        <ele>1506</ele>
        <time>2019-06-30T09:03:02.000Z</time>
      </trkpt>
      <trkpt lat="42.98146" lon="0.53841">
        <ele>1507</ele>
        <time>2019-06-30T09:03:04.000Z</time>
      </trkpt>
      <trkpt lat="42.98146" lon="0.53839">
        <ele>1507</ele>
        <time>2019-06-30T09:03:06.000Z</time>
      </trkpt>
      <trkpt lat="42.98147" lon="0.53837">
        <ele>1507</ele>
        <time>2019-06-30T09:03:08.000Z</time>
      </trkpt>
      <trkpt lat="42.98148" lon="0.53836">
        <ele>1507</ele>
        <time>2019-06-30T09:03:10.000Z</time>
      </trkpt>
      <trkpt lat="42.98148" lon="0.53834">
        <ele>1508</ele>
        <time>2019-06-30T09:03:12.000Z</time>
      </trkpt>
      <trkpt lat="42.98148" lon="0.53833">
        <ele>1508</ele>
        <time>2019-06-30T09:03:14.000Z</time>
      </trkpt>
      <trkpt lat="42.98148" lon="0.53832">
        <ele>1508</ele>
        <time>2019-06-30T09:03:16.000Z</time>
      </trkpt>
      <trkpt lat="42.98149" lon="0.5383">
        <ele>1508</ele>
        <time>2019-06-30T09:03:18.000Z</time>
      </trkpt>
      <trkpt lat="42.9815" lon="0.53829">
        <ele>1509</ele>
        <time>2019-06-30T09:03:20.000Z</time>
      </trkpt>
      <trkpt lat="42.9815" lon="0.53828">
        <ele>1509</ele>
        <time>2019-06-30T09:03:22.000Z</time>
      </trkpt>
      <trkpt lat="42.9815" lon="0.53827">
        <ele>1509</ele>
        <time>2019-06-30T09:03:24.000Z</time>
      </trkpt>
      <trkpt lat="42.98151" lon="0.53826">
        <ele>1509</ele>
        <time>2019-06-30T09:03:26.000Z</time>
      </trkpt>
      <trkpt lat="42.98151" lon="0.53825">
        <ele>1509</ele>
        <time>2019-06-30T09:03:28.000Z</time>
      </trkpt>
      <trkpt lat="42.98151" lon="0.53823">
        <ele>1509</ele>
        <time>2019-06-30T09:03:30.000Z</time>
      </trkpt>
      <trkpt lat="42.98151" lon="0.53822">
        <ele>1510</ele>
        <time>2019-06-30T09:03:32.000Z</time>
      </trkpt>
      <trkpt lat="42.98152" lon="0.5382">
        <ele>1510</ele>
        <time>2019-06-30T09:03:34.000Z</time>
      </trkpt>
      <trkpt lat="42.98152" lon="0.53819">
        <ele>1510</ele>
        <time>2019-06-30T09:03:36.000Z</time>
      </trkpt>
      <trkpt lat="42.98153" lon="0.53818">
        <ele>1510</ele>
        <time>2019-06-30T09:03:38.000Z</time>
      </trkpt>
      <trkpt lat="42.98153" lon="0.53816">
        <ele>1511</ele>
        <time>2019-06-30T09:03:40.000Z</time>
      </trkpt>
      <trkpt lat="42.98154" lon="0.53814">
        <ele>1511</ele>
        <time>2019-06-30T09:03:42.000Z</time>
      </trkpt>
      <trkpt lat="42.98155" lon="0.53813">
        <ele>1511</ele>
        <time>2019-06-30T09:03:44.000Z</time>
      </trkpt>
      <trkpt lat="42.98155" lon="0.53812">
        <ele>1512</ele>
        <time>2019-06-30T09:03:46.000Z</time>
      </trkpt>
      <trkpt lat="42.98156" lon="0.53811">
        <ele>1512</ele>
        <time>2019-06-30T09:03:48.000Z</time>
      </trkpt>
      <trkpt lat="42.98156" lon="0.53809">
        <ele>1512</ele>
        <time>2019-06-30T09:03:50.000Z</time>
      </trkpt>
      <trkpt lat="42.98156" lon="0.53808">
        <ele>1512</ele>
        <time>2019-06-30T09:03:52.000Z</time>
      </trkpt>
      <trkpt lat="42.98156" lon="0.53806">
        <ele>1512</ele>
        <time>2019-06-30T09:03:54.000Z</time>
      </trkpt>
      <trkpt lat="42.98156" lon="0.53805">
        <ele>1512</ele>
        <time>2019-06-30T09:03:56.000Z</time>
      </trkpt>
      <trkpt lat="42.98157" lon="0.53806">
        <ele>1513</ele>
        <time>2019-06-30T09:03:58.000Z</time>
      </trkpt>
      <trkpt lat="42.98157" lon="0.53806">
        <ele>1513</ele>
        <time>2019-06-30T09:04:00.000Z</time>
      </trkpt>
      <trkpt lat="42.98157" lon="0.53806">
        <ele>1513</ele>
        <time>2019-06-30T09:04:02.000Z</time>
      </trkpt>
      <trkpt lat="42.98157" lon="0.53806">
        <ele>1513</ele>
        <time>2019-06-30T09:04:04.000Z</time>
      </trkpt>
      <trkpt lat="42.98157" lon="0.53807">
        <ele>1513</ele>
        <time>2019-06-30T09:04:06.000Z</time>
      </trkpt>
      <trkpt lat="42.98157" lon="0.53807">
        <ele>1513</ele>
        <time>2019-06-30T09:04:08.000Z</time>
      </trkpt>
      <trkpt lat="42.98157" lon="0.53807">
        <ele>1513</ele>
        <time>2019-06-30T09:04:10.000Z</time>
      </trkpt>
      <trkpt lat="42.98157" lon="0.53807">
        <ele>1513</ele>
        <time>2019-06-30T09:04:12.000Z</time>
      </trkpt>
      <trkpt lat="42.98157" lon="0.53807">
        <ele>1513</ele>
        <time>2019-06-30T09:04:14.000Z</time>
      </trkpt>
      <trkpt lat="42.98157" lon="0.53807">
        <ele>1513</ele>
        <time>2019-06-30T09:04:16.000Z</time>
      </trkpt>
      <trkpt lat="42.98157" lon="0.53806">
        <ele>1513</ele>
        <time>2019-06-30T09:04:18.000Z</time>
      </trkpt>
      <trkpt lat="42.98158" lon="0.53804">
        <ele>1513</ele>
        <time>2019-06-30T09:04:20.000Z</time>
      </trkpt>
      <trkpt lat="42.98158" lon="0.53803">
        <ele>1513</ele>
        <time>2019-06-30T09:04:22.000Z</time>
      </trkpt>
      <trkpt lat="42.98158" lon="0.53802">
        <ele>1513</ele>
        <time>2019-06-30T09:04:24.000Z</time>
      </trkpt>
      <trkpt lat="42.98158" lon="0.538">
        <ele>1513</ele>
        <time>2019-06-30T09:04:26.000Z</time>
      </trkpt>
      <trkpt lat="42.98159" lon="0.53799">
        <ele>1513</ele>
        <time>2019-06-30T09:04:28.000Z</time>
      </trkpt>
      <trkpt lat="42.98159" lon="0.53797">
        <ele>1513</ele>
        <time>2019-06-30T09:04:30.000Z</time>
      </trkpt>
      <trkpt lat="42.9816" lon="0.53796">
        <ele>1513</ele>
        <time>2019-06-30T09:04:32.000Z</time>
      </trkpt>
      <trkpt lat="42.9816" lon="0.53794">
        <ele>1513</ele>
        <time>2019-06-30T09:04:34.000Z</time>
      </trkpt>
      <trkpt lat="42.98161" lon="0.53792">
        <ele>1513</ele>
        <time>2019-06-30T09:04:36.000Z</time>
      </trkpt>
      <trkpt lat="42.98161" lon="0.5379">
        <ele>1513</ele>
        <time>2019-06-30T09:04:38.000Z</time>
      </trkpt>
      <trkpt lat="42.98161" lon="0.53789">
        <ele>1513</ele>
        <time>2019-06-30T09:04:40.000Z</time>
      </trkpt>
      <trkpt lat="42.98161" lon="0.53787">
        <ele>1512</ele>
        <time>2019-06-30T09:04:42.000Z</time>
      </trkpt>
      <trkpt lat="42.98161" lon="0.53785">
        <ele>1512</ele>
        <time>2019-06-30T09:04:44.000Z</time>
      </trkpt>
      <trkpt lat="42.98161" lon="0.53783">
        <ele>1513</ele>
        <time>2019-06-30T09:04:46.000Z</time>
      </trkpt>
      <trkpt lat="42.98161" lon="0.53782">
        <ele>1513</ele>
        <time>2019-06-30T09:04:48.000Z</time>
      </trkpt>
      <trkpt lat="42.98161" lon="0.5378">
        <ele>1513</ele>
        <time>2019-06-30T09:04:50.000Z</time>
      </trkpt>
      <trkpt lat="42.98162" lon="0.53778">
        <ele>1513</ele>
        <time>2019-06-30T09:04:52.000Z</time>
      </trkpt>
      <trkpt lat="42.98162" lon="0.53777">
        <ele>1513</ele>
        <time>2019-06-30T09:04:54.000Z</time>
      </trkpt>
      <trkpt lat="42.98162" lon="0.53775">
        <ele>1513</ele>
        <time>2019-06-30T09:04:56.000Z</time>
      </trkpt>
      <trkpt lat="42.98163" lon="0.53774">
        <ele>1513</ele>
        <time>2019-06-30T09:04:58.000Z</time>
      </trkpt>
      <trkpt lat="42.98163" lon="0.53772">
        <ele>1513</ele>
        <time>2019-06-30T09:05:00.000Z</time>
      </trkpt>
      <trkpt lat="42.98163" lon="0.53771">
        <ele>1513</ele>
        <time>2019-06-30T09:05:02.000Z</time>
      </trkpt>
      <trkpt lat="42.98163" lon="0.53769">
        <ele>1513</ele>
        <time>2019-06-30T09:05:04.000Z</time>
      </trkpt>
      <trkpt lat="42.98162" lon="0.53767">
        <ele>1513</ele>
        <time>2019-06-30T09:05:06.000Z</time>
      </trkpt>
      <trkpt lat="42.98162" lon="0.53766">
        <ele>1513</ele>
        <time>2019-06-30T09:05:08.000Z</time>
      </trkpt>
      <trkpt lat="42.98162" lon="0.53765">
        <ele>1513</ele>
        <time>2019-06-30T09:05:10.000Z</time>
      </trkpt>
      <trkpt lat="42.98161" lon="0.53764">
        <ele>1512</ele>
        <time>2019-06-30T09:05:12.000Z</time>
      </trkpt>
      <trkpt lat="42.98161" lon="0.53763">
        <ele>1512</ele>
        <time>2019-06-30T09:05:14.000Z</time>
      </trkpt>
      <trkpt lat="42.98161" lon="0.53762">
        <ele>1512</ele>
        <time>2019-06-30T09:05:16.000Z</time>
      </trkpt>
      <trkpt lat="42.98161" lon="0.5376">
        <ele>1513</ele>
        <time>2019-06-30T09:05:18.000Z</time>
      </trkpt>
      <trkpt lat="42.98161" lon="0.53759">
        <ele>1512</ele>
        <time>2019-06-30T09:05:20.000Z</time>
      </trkpt>
      <trkpt lat="42.98161" lon="0.53758">
        <ele>1513</ele>
        <time>2019-06-30T09:05:22.000Z</time>
      </trkpt>
      <trkpt lat="42.98161" lon="0.53757">
        <ele>1513</ele>
        <time>2019-06-30T09:05:24.000Z</time>
      </trkpt>
      <trkpt lat="42.98162" lon="0.53757">
        <ele>1513</ele>
        <time>2019-06-30T09:05:26.000Z</time>
      </trkpt>
      <trkpt lat="42.98162" lon="0.53757">
        <ele>1513</ele>
        <time>2019-06-30T09:05:28.000Z</time>
      </trkpt>
      <trkpt lat="42.98163" lon="0.53757">
        <ele>1513</ele>
        <time>2019-06-30T09:05:30.000Z</time>
      </trkpt>
      <trkpt lat="42.98163" lon="0.53758">
        <ele>1513</ele>
        <time>2019-06-30T09:05:32.000Z</time>
      </trkpt>
      <trkpt lat="42.98163" lon="0.53759">
        <ele>1514</ele>
        <time>2019-06-30T09:05:34.000Z</time>
      </trkpt>
      <trkpt lat="42.98163" lon="0.53761">
        <ele>1513</ele>
        <time>2019-06-30T09:05:36.000Z</time>
      </trkpt>
      <trkpt lat="42.98162" lon="0.53761">
        <ele>1513</ele>
        <time>2019-06-30T09:05:38.000Z</time>
      </trkpt>
      <trkpt lat="42.98162" lon="0.53762">
        <ele>1513</ele>
        <time>2019-06-30T09:05:40.000Z</time>
      </trkpt>
      <trkpt lat="42.98162" lon="0.53762">
        <ele>1513</ele>
        <time>2019-06-30T09:05:42.000Z</time>
      </trkpt>
      <trkpt lat="42.98161" lon="0.53761">
        <ele>1512</ele>
        <time>2019-06-30T09:05:44.000Z</time>
      </trkpt>
      <trkpt lat="42.9816" lon="0.5376">
        <ele>1512</ele>
        <time>2019-06-30T09:05:46.000Z</time>
      </trkpt>
      <trkpt lat="42.9816" lon="0.5376">
        <ele>1512</ele>
        <time>2019-06-30T09:05:48.000Z</time>
      </trkpt>
      <trkpt lat="42.9816" lon="0.53761">
        <ele>1512</ele>
        <time>2019-06-30T09:05:50.000Z</time>
      </trkpt>
      <trkpt lat="42.98159" lon="0.5376">
        <ele>1511</ele>
        <time>2019-06-30T09:05:52.000Z</time>
      </trkpt>
      <trkpt lat="42.98158" lon="0.5376">
        <ele>1511</ele>
        <time>2019-06-30T09:05:54.000Z</time>
      </trkpt>
      <trkpt lat="42.98158" lon="0.5376">
        <ele>1511</ele>
        <time>2019-06-30T09:05:56.000Z</time>
      </trkpt>
      <trkpt lat="42.98158" lon="0.5376">
        <ele>1511</ele>
        <time>2019-06-30T09:05:58.000Z</time>
      </trkpt>
      <trkpt lat="42.98158" lon="0.5376">
        <ele>1511</ele>
        <time>2019-06-30T09:06:00.000Z</time>
      </trkpt>
      <trkpt lat="42.98157" lon="0.53761">
        <ele>1511</ele>
        <time>2019-06-30T09:06:02.000Z</time>
      </trkpt>
      <trkpt lat="42.98157" lon="0.53761">
        <ele>1510</ele>
        <time>2019-06-30T09:06:04.000Z</time>
      </trkpt>
      <trkpt lat="42.98157" lon="0.5376">
        <ele>1510</ele>
        <time>2019-06-30T09:06:06.000Z</time>
      </trkpt>
      <trkpt lat="42.98157" lon="0.5376">
        <ele>1510</ele>
        <time>2019-06-30T09:06:08.000Z</time>
      </trkpt>
      <trkpt lat="42.98156" lon="0.5376">
        <ele>1510</ele>
        <time>2019-06-30T09:06:10.000Z</time>
      </trkpt>
      <trkpt lat="42.98156" lon="0.53761">
        <ele>1510</ele>
        <time>2019-06-30T09:06:12.000Z</time>
      </trkpt>
      <trkpt lat="42.98156" lon="0.53761">
        <ele>1510</ele>
        <time>2019-06-30T09:06:14.000Z</time>
      </trkpt>
      <trkpt lat="42.98156" lon="0.53762">
        <ele>1510</ele>
        <time>2019-06-30T09:06:16.000Z</time>
      </trkpt>
      <trkpt lat="42.98156" lon="0.53762">
        <ele>1510</ele>
        <time>2019-06-30T09:06:18.000Z</time>
      </trkpt>
      <trkpt lat="42.98156" lon="0.53762">
        <ele>1510</ele>
        <time>2019-06-30T09:06:20.000Z</time>
      </trkpt>
      <trkpt lat="42.98156" lon="0.53762">
        <ele>1510</ele>
        <time>2019-06-30T09:06:22.000Z</time>
      </trkpt>
      <trkpt lat="42.98156" lon="0.53762">
        <ele>1510</ele>
        <time>2019-06-30T09:06:24.000Z</time>
      </trkpt>
      <trkpt lat="42.98156" lon="0.53762">
        <ele>1510</ele>
        <time>2019-06-30T09:06:26.000Z</time>
      </trkpt>
      <trkpt lat="42.98156" lon="0.53762">
        <ele>1510</ele>
        <time>2019-06-30T09:06:28.000Z</time>
      </trkpt>
      <trkpt lat="42.98155" lon="0.53762">
        <ele>1510</ele>
        <time>2019-06-30T09:06:30.000Z</time>
      </trkpt>
      <trkpt lat="42.98155" lon="0.53762">
        <ele>1510</ele>
        <time>2019-06-30T09:06:32.000Z</time>
      </trkpt>
      <trkpt lat="42.98155" lon="0.53763">
        <ele>1509</ele>
        <time>2019-06-30T09:06:34.000Z</time>
      </trkpt>
      <trkpt lat="42.98155" lon="0.53763">
        <ele>1509</ele>
        <time>2019-06-30T09:06:36.000Z</time>
      </trkpt>
      <trkpt lat="42.98155" lon="0.53763">
        <ele>1509</ele>
        <time>2019-06-30T09:06:38.000Z</time>
      </trkpt>
      <trkpt lat="42.98155" lon="0.53763">
        <ele>1509</ele>
        <time>2019-06-30T09:06:40.000Z</time>
      </trkpt>
      <trkpt lat="42.98155" lon="0.53763">
        <ele>1510</ele>
        <time>2019-06-30T09:06:42.000Z</time>
      </trkpt>
      <trkpt lat="42.98155" lon="0.53763">
        <ele>1509</ele>
        <time>2019-06-30T09:06:44.000Z</time>
      </trkpt>
      <trkpt lat="42.98155" lon="0.53763">
        <ele>1509</ele>
        <time>2019-06-30T09:06:46.000Z</time>
      </trkpt>
      <trkpt lat="42.98155" lon="0.53763">
        <ele>1509</ele>
        <time>2019-06-30T09:06:48.000Z</time>
      </trkpt>
      <trkpt lat="42.98155" lon="0.53764">
        <ele>1509</ele>
        <time>2019-06-30T09:06:50.000Z</time>
      </trkpt>
      <trkpt lat="42.98155" lon="0.53763">
        <ele>1510</ele>
        <time>2019-06-30T09:06:52.000Z</time>
      </trkpt>
      <trkpt lat="42.98155" lon="0.53763">
        <ele>1510</ele>
        <time>2019-06-30T09:06:54.000Z</time>
      </trkpt>
      <trkpt lat="42.98155" lon="0.53764">
        <ele>1510</ele>
        <time>2019-06-30T09:06:56.000Z</time>
      </trkpt>
      <trkpt lat="42.98155" lon="0.53764">
        <ele>1509</ele>
        <time>2019-06-30T09:06:58.000Z</time>
      </trkpt>
      <trkpt lat="42.98155" lon="0.53763">
        <ele>1509</ele>
        <time>2019-06-30T09:07:00.000Z</time>
      </trkpt>
      <trkpt lat="42.98155" lon="0.53762">
        <ele>1509</ele>
        <time>2019-06-30T09:07:02.000Z</time>
      </trkpt>
      <trkpt lat="42.98155" lon="0.53762">
        <ele>1510</ele>
        <time>2019-06-30T09:07:04.000Z</time>
      </trkpt>
      <trkpt lat="42.98155" lon="0.53762">
        <ele>1510</ele>
        <time>2019-06-30T09:07:06.000Z</time>
      </trkpt>
      <trkpt lat="42.98155" lon="0.53763">
        <ele>1510</ele>
        <time>2019-06-30T09:07:08.000Z</time>
      </trkpt>
      <trkpt lat="42.98155" lon="0.53763">
        <ele>1509</ele>
        <time>2019-06-30T09:07:10.000Z</time>
      </trkpt>
      <trkpt lat="42.98155" lon="0.53763">
        <ele>1510</ele>
        <time>2019-06-30T09:07:12.000Z</time>
      </trkpt>
      <trkpt lat="42.98154" lon="0.53763">
        <ele>1509</ele>
        <time>2019-06-30T09:07:14.000Z</time>
      </trkpt>
      <trkpt lat="42.98155" lon="0.53764">
        <ele>1510</ele>
        <time>2019-06-30T09:07:16.000Z</time>
      </trkpt>
      <trkpt lat="42.98155" lon="0.53764">
        <ele>1510</ele>
        <time>2019-06-30T09:07:18.000Z</time>
      </trkpt>
      <trkpt lat="42.98155" lon="0.53764">
        <ele>1510</ele>
        <time>2019-06-30T09:07:20.000Z</time>
      </trkpt>
      <trkpt lat="42.98155" lon="0.53764">
        <ele>1510</ele>
        <time>2019-06-30T09:07:22.000Z</time>
      </trkpt>
      <trkpt lat="42.98155" lon="0.53764">
        <ele>1510</ele>
        <time>2019-06-30T09:07:24.000Z</time>
      </trkpt>
      <trkpt lat="42.98155" lon="0.53764">
        <ele>1510</ele>
        <time>2019-06-30T09:07:26.000Z</time>
      </trkpt>
      <trkpt lat="42.98155" lon="0.53764">
        <ele>1510</ele>
        <time>2019-06-30T09:07:28.000Z</time>
      </trkpt>
      <trkpt lat="42.98155" lon="0.53764">
        <ele>1510</ele>
        <time>2019-06-30T09:07:30.000Z</time>
      </trkpt>
      <trkpt lat="42.98155" lon="0.53764">
        <ele>1510</ele>
        <time>2019-06-30T09:07:32.000Z</time>
      </trkpt>
      <trkpt lat="42.98155" lon="0.53764">
        <ele>1510</ele>
        <time>2019-06-30T09:07:34.000Z</time>
      </trkpt>
      <trkpt lat="42.98155" lon="0.53764">
        <ele>1510</ele>
        <time>2019-06-30T09:07:36.000Z</time>
      </trkpt>
      <trkpt lat="42.98156" lon="0.53765">
        <ele>1510</ele>
        <time>2019-06-30T09:07:38.000Z</time>
      </trkpt>
      <trkpt lat="42.98156" lon="0.53765">
        <ele>1510</ele>
        <time>2019-06-30T09:07:40.000Z</time>
      </trkpt>
      <trkpt lat="42.98156" lon="0.53766">
        <ele>1510</ele>
        <time>2019-06-30T09:07:42.000Z</time>
      </trkpt>
      <trkpt lat="42.98156" lon="0.53766">
        <ele>1510</ele>
        <time>2019-06-30T09:07:44.000Z</time>
      </trkpt>
      <trkpt lat="42.98156" lon="0.53766">
        <ele>1510</ele>
        <time>2019-06-30T09:07:46.000Z</time>
      </trkpt>
      <trkpt lat="42.98155" lon="0.53766">
        <ele>1510</ele>
        <time>2019-06-30T09:07:48.000Z</time>
      </trkpt>
      <trkpt lat="42.98155" lon="0.53765">
        <ele>1509</ele>
        <time>2019-06-30T09:07:50.000Z</time>
      </trkpt>
      <trkpt lat="42.98154" lon="0.53765">
        <ele>1509</ele>
        <time>2019-06-30T09:07:52.000Z</time>
      </trkpt>
      <trkpt lat="42.98155" lon="0.53765">
        <ele>1509</ele>
        <time>2019-06-30T09:07:54.000Z</time>
      </trkpt>
      <trkpt lat="42.98155" lon="0.53765">
        <ele>1509</ele>
        <time>2019-06-30T09:07:56.000Z</time>
      </trkpt>
      <trkpt lat="42.98155" lon="0.53765">
        <ele>1510</ele>
        <time>2019-06-30T09:07:58.000Z</time>
      </trkpt>
      <trkpt lat="42.98155" lon="0.53765">
        <ele>1509</ele>
        <time>2019-06-30T09:08:00.000Z</time>
      </trkpt>
      <trkpt lat="42.98155" lon="0.53765">
        <ele>1509</ele>
        <time>2019-06-30T09:08:02.000Z</time>
      </trkpt>
      <trkpt lat="42.98154" lon="0.53765">
        <ele>1509</ele>
        <time>2019-06-30T09:08:04.000Z</time>
      </trkpt>
      <trkpt lat="42.98154" lon="0.53765">
        <ele>1509</ele>
        <time>2019-06-30T09:08:06.000Z</time>
      </trkpt>
      <trkpt lat="42.98154" lon="0.53765">
        <ele>1509</ele>
        <time>2019-06-30T09:08:08.000Z</time>
      </trkpt>
      <trkpt lat="42.98154" lon="0.53764">
        <ele>1509</ele>
        <time>2019-06-30T09:08:10.000Z</time>
      </trkpt>
      <trkpt lat="42.98154" lon="0.53765">
        <ele>1509</ele>
        <time>2019-06-30T09:08:12.000Z</time>
      </trkpt>
      <trkpt lat="42.98154" lon="0.53765">
        <ele>1509</ele>
        <time>2019-06-30T09:08:14.000Z</time>
      </trkpt>
      <trkpt lat="42.98154" lon="0.53764">
        <ele>1509</ele>
        <time>2019-06-30T09:08:16.000Z</time>
      </trkpt>
      <trkpt lat="42.98154" lon="0.53764">
        <ele>1509</ele>
        <time>2019-06-30T09:08:18.000Z</time>
      </trkpt>
      <trkpt lat="42.98154" lon="0.53763">
        <ele>1509</ele>
        <time>2019-06-30T09:08:20.000Z</time>
      </trkpt>
      <trkpt lat="42.98154" lon="0.53763">
        <ele>1509</ele>
        <time>2019-06-30T09:08:22.000Z</time>
      </trkpt>
      <trkpt lat="42.98154" lon="0.53763">
        <ele>1509</ele>
        <time>2019-06-30T09:08:24.000Z</time>
      </trkpt>
      <trkpt lat="42.98154" lon="0.53763">
        <ele>1509</ele>
        <time>2019-06-30T09:08:26.000Z</time>
      </trkpt>
      <trkpt lat="42.98154" lon="0.53763">
        <ele>1509</ele>
        <time>2019-06-30T09:08:28.000Z</time>
      </trkpt>
      <trkpt lat="42.98154" lon="0.53763">
        <ele>1509</ele>
        <time>2019-06-30T09:08:30.000Z</time>
      </trkpt>
      <trkpt lat="42.98153" lon="0.53763">
        <ele>1509</ele>
        <time>2019-06-30T09:08:32.000Z</time>
      </trkpt>
      <trkpt lat="42.98154" lon="0.53763">
        <ele>1509</ele>
        <time>2019-06-30T09:08:34.000Z</time>
      </trkpt>
      <trkpt lat="42.98154" lon="0.53763">
        <ele>1509</ele>
        <time>2019-06-30T09:08:36.000Z</time>
      </trkpt>
      <trkpt lat="42.98154" lon="0.53762">
        <ele>1509</ele>
        <time>2019-06-30T09:08:38.000Z</time>
      </trkpt>
      <trkpt lat="42.98154" lon="0.53762">
        <ele>1509</ele>
        <time>2019-06-30T09:08:40.000Z</time>
      </trkpt>
      <trkpt lat="42.98154" lon="0.53762">
        <ele>1509</ele>
        <time>2019-06-30T09:08:42.000Z</time>
      </trkpt>
      <trkpt lat="42.98154" lon="0.53763">
        <ele>1509</ele>
        <time>2019-06-30T09:08:44.000Z</time>
      </trkpt>
      <trkpt lat="42.98154" lon="0.53763">
        <ele>1509</ele>
        <time>2019-06-30T09:08:46.000Z</time>
      </trkpt>
      <trkpt lat="42.98153" lon="0.53763">
        <ele>1509</ele>
        <time>2019-06-30T09:08:48.000Z</time>
      </trkpt>
      <trkpt lat="42.98153" lon="0.53764">
        <ele>1509</ele>
        <time>2019-06-30T09:08:50.000Z</time>
      </trkpt>
      <trkpt lat="42.98154" lon="0.53763">
        <ele>1509</ele>
        <time>2019-06-30T09:08:52.000Z</time>
      </trkpt>
      <trkpt lat="42.98155" lon="0.53763">
        <ele>1509</ele>
        <time>2019-06-30T09:08:54.000Z</time>
      </trkpt>
      <trkpt lat="42.98155" lon="0.53763">
        <ele>1510</ele>
        <time>2019-06-30T09:08:56.000Z</time>
      </trkpt>
      <trkpt lat="42.98155" lon="0.53762">
        <ele>1510</ele>
        <time>2019-06-30T09:08:58.000Z</time>
      </trkpt>
      <trkpt lat="42.98156" lon="0.53762">
        <ele>1510</ele>
        <time>2019-06-30T09:09:00.000Z</time>
      </trkpt>
      <trkpt lat="42.98156" lon="0.53763">
        <ele>1510</ele>
        <time>2019-06-30T09:09:02.000Z</time>
      </trkpt>
      <trkpt lat="42.98156" lon="0.53762">
        <ele>1510</ele>
        <time>2019-06-30T09:09:04.000Z</time>
      </trkpt>
      <trkpt lat="42.98156" lon="0.53763">
        <ele>1510</ele>
        <time>2019-06-30T09:09:06.000Z</time>
      </trkpt>
      <trkpt lat="42.98156" lon="0.53763">
        <ele>1510</ele>
        <time>2019-06-30T09:09:08.000Z</time>
      </trkpt>
      <trkpt lat="42.98157" lon="0.53763">
        <ele>1510</ele>
        <time>2019-06-30T09:09:10.000Z</time>
      </trkpt>
      <trkpt lat="42.98157" lon="0.53763">
        <ele>1510</ele>
        <time>2019-06-30T09:09:12.000Z</time>
      </trkpt>
      <trkpt lat="42.98157" lon="0.53763">
        <ele>1510</ele>
        <time>2019-06-30T09:09:14.000Z</time>
      </trkpt>
      <trkpt lat="42.98156" lon="0.53763">
        <ele>1510</ele>
        <time>2019-06-30T09:09:16.000Z</time>
      </trkpt>
      <trkpt lat="42.98156" lon="0.53763">
        <ele>1510</ele>
        <time>2019-06-30T09:09:18.000Z</time>
      </trkpt>
      <trkpt lat="42.98156" lon="0.53763">
        <ele>1510</ele>
        <time>2019-06-30T09:09:20.000Z</time>
      </trkpt>
      <trkpt lat="42.98156" lon="0.53763">
        <ele>1510</ele>
        <time>2019-06-30T09:09:22.000Z</time>
      </trkpt>
      <trkpt lat="42.98157" lon="0.53763">
        <ele>1510</ele>
        <time>2019-06-30T09:09:24.000Z</time>
      </trkpt>
      <trkpt lat="42.98156" lon="0.53763">
        <ele>1510</ele>
        <time>2019-06-30T09:09:26.000Z</time>
      </trkpt>
      <trkpt lat="42.98156" lon="0.53763">
        <ele>1510</ele>
        <time>2019-06-30T09:09:28.000Z</time>
      </trkpt>
      <trkpt lat="42.98157" lon="0.53763">
        <ele>1510</ele>
        <time>2019-06-30T09:09:30.000Z</time>
      </trkpt>
      <trkpt lat="42.98156" lon="0.53763">
        <ele>1510</ele>
        <time>2019-06-30T09:09:32.000Z</time>
      </trkpt>
      <trkpt lat="42.98156" lon="0.53763">
        <ele>1510</ele>
        <time>2019-06-30T09:09:34.000Z</time>
      </trkpt>
      <trkpt lat="42.98156" lon="0.53763">
        <ele>1510</ele>
        <time>2019-06-30T09:09:36.000Z</time>
      </trkpt>
      <trkpt lat="42.98156" lon="0.53763">
        <ele>1510</ele>
        <time>2019-06-30T09:09:38.000Z</time>
      </trkpt>
      <trkpt lat="42.98155" lon="0.53762">
        <ele>1510</ele>
        <time>2019-06-30T09:09:40.000Z</time>
      </trkpt>
      <trkpt lat="42.98155" lon="0.53762">
        <ele>1510</ele>
        <time>2019-06-30T09:09:42.000Z</time>
      </trkpt>
      <trkpt lat="42.98155" lon="0.53762">
        <ele>1510</ele>
        <time>2019-06-30T09:09:44.000Z</time>
      </trkpt>
      <trkpt lat="42.98155" lon="0.53762">
        <ele>1510</ele>
        <time>2019-06-30T09:09:46.000Z</time>
      </trkpt>
      <trkpt lat="42.98155" lon="0.53762">
        <ele>1510</ele>
        <time>2019-06-30T09:09:48.000Z</time>
      </trkpt>
      <trkpt lat="42.98155" lon="0.53762">
        <ele>1510</ele>
        <time>2019-06-30T09:09:50.000Z</time>
      </trkpt>
      <trkpt lat="42.98155" lon="0.53762">
        <ele>1510</ele>
        <time>2019-06-30T09:09:52.000Z</time>
      </trkpt>
      <trkpt lat="42.98156" lon="0.53762">
        <ele>1510</ele>
        <time>2019-06-30T09:09:54.000Z</time>
      </trkpt>
      <trkpt lat="42.98156" lon="0.53762">
        <ele>1510</ele>
        <time>2019-06-30T09:09:56.000Z</time>
      </trkpt>
      <trkpt lat="42.98156" lon="0.53762">
        <ele>1510</ele>
        <time>2019-06-30T09:09:58.000Z</time>
      </trkpt>
      <trkpt lat="42.98156" lon="0.53762">
        <ele>1510</ele>
        <time>2019-06-30T09:10:00.000Z</time>
      </trkpt>
      <trkpt lat="42.98156" lon="0.53762">
        <ele>1510</ele>
        <time>2019-06-30T09:10:02.000Z</time>
      </trkpt>
      <trkpt lat="42.98156" lon="0.53762">
        <ele>1510</ele>
        <time>2019-06-30T09:10:04.000Z</time>
      </trkpt>
      <trkpt lat="42.98156" lon="0.53762">
        <ele>1510</ele>
        <time>2019-06-30T09:10:06.000Z</time>
      </trkpt>
      <trkpt lat="42.98156" lon="0.53762">
        <ele>1510</ele>
        <time>2019-06-30T09:10:08.000Z</time>
      </trkpt>
      <trkpt lat="42.98156" lon="0.53762">
        <ele>1510</ele>
        <time>2019-06-30T09:10:10.000Z</time>
      </trkpt>
      <trkpt lat="42.98156" lon="0.53762">
        <ele>1510</ele>
        <time>2019-06-30T09:10:12.000Z</time>
      </trkpt>
      <trkpt lat="42.98156" lon="0.53762">
        <ele>1510</ele>
        <time>2019-06-30T09:10:14.000Z</time>
      </trkpt>
      <trkpt lat="42.98156" lon="0.53763">
        <ele>1510</ele>
        <time>2019-06-30T09:10:16.000Z</time>
      </trkpt>
      <trkpt lat="42.98155" lon="0.53762">
        <ele>1510</ele>
        <time>2019-06-30T09:10:18.000Z</time>
      </trkpt>
      <trkpt lat="42.98155" lon="0.53762">
        <ele>1510</ele>
        <time>2019-06-30T09:10:20.000Z</time>
      </trkpt>
      <trkpt lat="42.98156" lon="0.53762">
        <ele>1510</ele>
        <time>2019-06-30T09:10:22.000Z</time>
      </trkpt>
      <trkpt lat="42.98156" lon="0.53762">
        <ele>1510</ele>
        <time>2019-06-30T09:10:24.000Z</time>
      </trkpt>
      <trkpt lat="42.98156" lon="0.53762">
        <ele>1510</ele>
        <time>2019-06-30T09:10:26.000Z</time>
      </trkpt>
      <trkpt lat="42.98157" lon="0.53762">
        <ele>1510</ele>
        <time>2019-06-30T09:10:28.000Z</time>
      </trkpt>
      <trkpt lat="42.98157" lon="0.53762">
        <ele>1510</ele>
        <time>2019-06-30T09:10:30.000Z</time>
      </trkpt>
      <trkpt lat="42.98157" lon="0.53763">
        <ele>1510</ele>
        <time>2019-06-30T09:10:32.000Z</time>
      </trkpt>
      <trkpt lat="42.98156" lon="0.53763">
        <ele>1510</ele>
        <time>2019-06-30T09:10:34.000Z</time>
      </trkpt>
      <trkpt lat="42.98157" lon="0.53764">
        <ele>1510</ele>
        <time>2019-06-30T09:10:36.000Z</time>
      </trkpt>
      <trkpt lat="42.98157" lon="0.53764">
        <ele>1510</ele>
        <time>2019-06-30T09:10:38.000Z</time>
      </trkpt>
      <trkpt lat="42.98157" lon="0.53764">
        <ele>1510</ele>
        <time>2019-06-30T09:10:40.000Z</time>
      </trkpt>
      <trkpt lat="42.98157" lon="0.53764">
        <ele>1511</ele>
        <time>2019-06-30T09:10:42.000Z</time>
      </trkpt>
      <trkpt lat="42.98156" lon="0.53764">
        <ele>1510</ele>
        <time>2019-06-30T09:10:44.000Z</time>
      </trkpt>
      <trkpt lat="42.98155" lon="0.53765">
        <ele>1510</ele>
        <time>2019-06-30T09:10:46.000Z</time>
      </trkpt>
      <trkpt lat="42.98155" lon="0.53765">
        <ele>1509</ele>
        <time>2019-06-30T09:10:48.000Z</time>
      </trkpt>
      <trkpt lat="42.98154" lon="0.53766">
        <ele>1509</ele>
        <time>2019-06-30T09:10:50.000Z</time>
      </trkpt>
      <trkpt lat="42.98155" lon="0.53766">
        <ele>1509</ele>
        <time>2019-06-30T09:10:52.000Z</time>
      </trkpt>
      <trkpt lat="42.98155" lon="0.53766">
        <ele>1509</ele>
        <time>2019-06-30T09:10:54.000Z</time>
      </trkpt>
      <trkpt lat="42.98154" lon="0.53766">
        <ele>1509</ele>
        <time>2019-06-30T09:10:56.000Z</time>
      </trkpt>
      <trkpt lat="42.98154" lon="0.53766">
        <ele>1509</ele>
        <time>2019-06-30T09:10:58.000Z</time>
      </trkpt>
      <trkpt lat="42.98153" lon="0.53767">
        <ele>1509</ele>
        <time>2019-06-30T09:11:00.000Z</time>
      </trkpt>
      <trkpt lat="42.98153" lon="0.53767">
        <ele>1509</ele>
        <time>2019-06-30T09:11:02.000Z</time>
      </trkpt>
      <trkpt lat="42.98153" lon="0.53767">
        <ele>1509</ele>
        <time>2019-06-30T09:11:04.000Z</time>
      </trkpt>
      <trkpt lat="42.98154" lon="0.53767">
        <ele>1509</ele>
        <time>2019-06-30T09:11:06.000Z</time>
      </trkpt>
      <trkpt lat="42.98154" lon="0.53767">
        <ele>1509</ele>
        <time>2019-06-30T09:11:08.000Z</time>
      </trkpt>
      <trkpt lat="42.98153" lon="0.53767">
        <ele>1509</ele>
        <time>2019-06-30T09:11:10.000Z</time>
      </trkpt>
      <trkpt lat="42.98153" lon="0.53767">
        <ele>1508</ele>
        <time>2019-06-30T09:11:12.000Z</time>
      </trkpt>
      <trkpt lat="42.98153" lon="0.53767">
        <ele>1508</ele>
        <time>2019-06-30T09:11:14.000Z</time>
      </trkpt>
      <trkpt lat="42.98153" lon="0.53767">
        <ele>1508</ele>
        <time>2019-06-30T09:11:16.000Z</time>
      </trkpt>
      <trkpt lat="42.98153" lon="0.53767">
        <ele>1508</ele>
        <time>2019-06-30T09:11:18.000Z</time>
      </trkpt>
      <trkpt lat="42.98153" lon="0.53766">
        <ele>1509</ele>
        <time>2019-06-30T09:11:20.000Z</time>
      </trkpt>
      <trkpt lat="42.98154" lon="0.53765">
        <ele>1509</ele>
        <time>2019-06-30T09:11:22.000Z</time>
      </trkpt>
      <trkpt lat="42.98154" lon="0.53764">
        <ele>1509</ele>
        <time>2019-06-30T09:11:24.000Z</time>
      </trkpt>
      <trkpt lat="42.98155" lon="0.53763">
        <ele>1509</ele>
        <time>2019-06-30T09:11:26.000Z</time>
      </trkpt>
      <trkpt lat="42.98156" lon="0.53762">
        <ele>1510</ele>
        <time>2019-06-30T09:11:28.000Z</time>
      </trkpt>
      <trkpt lat="42.98156" lon="0.53762">
        <ele>1510</ele>
        <time>2019-06-30T09:11:30.000Z</time>
      </trkpt>
      <trkpt lat="42.98157" lon="0.53762">
        <ele>1510</ele>
        <time>2019-06-30T09:11:32.000Z</time>
      </trkpt>
      <trkpt lat="42.98157" lon="0.53761">
        <ele>1510</ele>
        <time>2019-06-30T09:11:34.000Z</time>
      </trkpt>
      <trkpt lat="42.98157" lon="0.53761">
        <ele>1511</ele>
        <time>2019-06-30T09:11:36.000Z</time>
      </trkpt>
      <trkpt lat="42.98158" lon="0.53761">
        <ele>1511</ele>
        <time>2019-06-30T09:11:38.000Z</time>
      </trkpt>
      <trkpt lat="42.98158" lon="0.5376">
        <ele>1511</ele>
        <time>2019-06-30T09:11:40.000Z</time>
      </trkpt>
      <trkpt lat="42.98158" lon="0.5376">
        <ele>1511</ele>
        <time>2019-06-30T09:11:42.000Z</time>
      </trkpt>
      <trkpt lat="42.98158" lon="0.53759">
        <ele>1511</ele>
        <time>2019-06-30T09:11:44.000Z</time>
      </trkpt>
      <trkpt lat="42.98158" lon="0.53759">
        <ele>1511</ele>
        <time>2019-06-30T09:11:46.000Z</time>
      </trkpt>
      <trkpt lat="42.98158" lon="0.5376">
        <ele>1511</ele>
        <time>2019-06-30T09:11:48.000Z</time>
      </trkpt>
      <trkpt lat="42.98157" lon="0.53761">
        <ele>1510</ele>
        <time>2019-06-30T09:11:50.000Z</time>
      </trkpt>
      <trkpt lat="42.98156" lon="0.53762">
        <ele>1510</ele>
        <time>2019-06-30T09:11:52.000Z</time>
      </trkpt>
      <trkpt lat="42.98156" lon="0.53762">
        <ele>1510</ele>
        <time>2019-06-30T09:11:54.000Z</time>
      </trkpt>
      <trkpt lat="42.98156" lon="0.53762">
        <ele>1510</ele>
        <time>2019-06-30T09:11:56.000Z</time>
      </trkpt>
      <trkpt lat="42.98156" lon="0.53762">
        <ele>1510</ele>
        <time>2019-06-30T09:11:58.000Z</time>
      </trkpt>
      <trkpt lat="42.98155" lon="0.53763">
        <ele>1510</ele>
        <time>2019-06-30T09:12:00.000Z</time>
      </trkpt>
      <trkpt lat="42.98155" lon="0.53762">
        <ele>1510</ele>
        <time>2019-06-30T09:12:02.000Z</time>
      </trkpt>
      <trkpt lat="42.98155" lon="0.53762">
        <ele>1510</ele>
        <time>2019-06-30T09:12:04.000Z</time>
      </trkpt>
      <trkpt lat="42.98155" lon="0.53762">
        <ele>1510</ele>
        <time>2019-06-30T09:12:06.000Z</time>
      </trkpt>
      <trkpt lat="42.98156" lon="0.53762">
        <ele>1510</ele>
        <time>2019-06-30T09:12:08.000Z</time>
      </trkpt>
      <trkpt lat="42.98156" lon="0.53762">
        <ele>1510</ele>
        <time>2019-06-30T09:12:10.000Z</time>
      </trkpt>
      <trkpt lat="42.98156" lon="0.53762">
        <ele>1510</ele>
        <time>2019-06-30T09:12:12.000Z</time>
      </trkpt>
      <trkpt lat="42.98156" lon="0.53763">
        <ele>1510</ele>
        <time>2019-06-30T09:12:14.000Z</time>
      </trkpt>
      <trkpt lat="42.98156" lon="0.53764">
        <ele>1510</ele>
        <time>2019-06-30T09:12:16.000Z</time>
      </trkpt>
      <trkpt lat="42.98158" lon="0.53765">
        <ele>1511</ele>
        <time>2019-06-30T09:12:18.000Z</time>
      </trkpt>
      <trkpt lat="42.98158" lon="0.53765">
        <ele>1511</ele>
        <time>2019-06-30T09:12:20.000Z</time>
      </trkpt>
      <trkpt lat="42.98159" lon="0.53764">
        <ele>1511</ele>
        <time>2019-06-30T09:12:22.000Z</time>
      </trkpt>
      <trkpt lat="42.98159" lon="0.53763">
        <ele>1511</ele>
        <time>2019-06-30T09:12:24.000Z</time>
      </trkpt>
      <trkpt lat="42.98159" lon="0.53763">
        <ele>1511</ele>
        <time>2019-06-30T09:12:26.000Z</time>
      </trkpt>
      <trkpt lat="42.98159" lon="0.53762">
        <ele>1511</ele>
        <time>2019-06-30T09:12:28.000Z</time>
      </trkpt>
      <trkpt lat="42.9816" lon="0.53761">
        <ele>1512</ele>
        <time>2019-06-30T09:12:30.000Z</time>
      </trkpt>
      <trkpt lat="42.9816" lon="0.5376">
        <ele>1512</ele>
        <time>2019-06-30T09:12:32.000Z</time>
      </trkpt>
      <trkpt lat="42.98161" lon="0.53759">
        <ele>1512</ele>
        <time>2019-06-30T09:12:34.000Z</time>
      </trkpt>
      <trkpt lat="42.98161" lon="0.53759">
        <ele>1512</ele>
        <time>2019-06-30T09:12:36.000Z</time>
      </trkpt>
      <trkpt lat="42.9816" lon="0.53758">
        <ele>1512</ele>
        <time>2019-06-30T09:12:38.000Z</time>
      </trkpt>
      <trkpt lat="42.98159" lon="0.53757">
        <ele>1512</ele>
        <time>2019-06-30T09:12:40.000Z</time>
      </trkpt>
      <trkpt lat="42.98159" lon="0.53757">
        <ele>1511</ele>
        <time>2019-06-30T09:12:42.000Z</time>
      </trkpt>
      <trkpt lat="42.98157" lon="0.53759">
        <ele>1511</ele>
        <time>2019-06-30T09:12:44.000Z</time>
      </trkpt>
      <trkpt lat="42.98156" lon="0.5376">
        <ele>1510</ele>
        <time>2019-06-30T09:12:46.000Z</time>
      </trkpt>
      <trkpt lat="42.98156" lon="0.53761">
        <ele>1510</ele>
        <time>2019-06-30T09:12:48.000Z</time>
      </trkpt>
      <trkpt lat="42.98156" lon="0.5376">
        <ele>1510</ele>
        <time>2019-06-30T09:12:50.000Z</time>
      </trkpt>
      <trkpt lat="42.98155" lon="0.5376">
        <ele>1510</ele>
        <time>2019-06-30T09:12:52.000Z</time>
      </trkpt>
      <trkpt lat="42.98156" lon="0.5376">
        <ele>1510</ele>
        <time>2019-06-30T09:12:54.000Z</time>
      </trkpt>
      <trkpt lat="42.98155" lon="0.53759">
        <ele>1509</ele>
        <time>2019-06-30T09:12:56.000Z</time>
      </trkpt>
      <trkpt lat="42.98155" lon="0.53758">
        <ele>1510</ele>
        <time>2019-06-30T09:12:58.000Z</time>
      </trkpt>
      <trkpt lat="42.98156" lon="0.53757">
        <ele>1510</ele>
        <time>2019-06-30T09:13:00.000Z</time>
      </trkpt>
      <trkpt lat="42.98156" lon="0.53756">
        <ele>1510</ele>
        <time>2019-06-30T09:13:02.000Z</time>
      </trkpt>
      <trkpt lat="42.98159" lon="0.53757">
        <ele>1511</ele>
        <time>2019-06-30T09:13:04.000Z</time>
      </trkpt>
      <trkpt lat="42.9816" lon="0.53757">
        <ele>1512</ele>
        <time>2019-06-30T09:13:06.000Z</time>
      </trkpt>
      <trkpt lat="42.9816" lon="0.53759">
        <ele>1512</ele>
        <time>2019-06-30T09:13:08.000Z</time>
      </trkpt>
      <trkpt lat="42.9816" lon="0.5376">
        <ele>1512</ele>
        <time>2019-06-30T09:13:10.000Z</time>
      </trkpt>
      <trkpt lat="42.9816" lon="0.53761">
        <ele>1512</ele>
        <time>2019-06-30T09:13:12.000Z</time>
      </trkpt>
      <trkpt lat="42.98159" lon="0.53761">
        <ele>1512</ele>
        <time>2019-06-30T09:13:14.000Z</time>
      </trkpt>
      <trkpt lat="42.98159" lon="0.53762">
        <ele>1511</ele>
        <time>2019-06-30T09:13:16.000Z</time>
      </trkpt>
      <trkpt lat="42.98159" lon="0.53763">
        <ele>1511</ele>
        <time>2019-06-30T09:13:18.000Z</time>
      </trkpt>
      <trkpt lat="42.98158" lon="0.53763">
        <ele>1511</ele>
        <time>2019-06-30T09:13:20.000Z</time>
      </trkpt>
      <trkpt lat="42.98157" lon="0.53763">
        <ele>1511</ele>
        <time>2019-06-30T09:13:22.000Z</time>
      </trkpt>
      <trkpt lat="42.98157" lon="0.53763">
        <ele>1511</ele>
        <time>2019-06-30T09:13:24.000Z</time>
      </trkpt>
      <trkpt lat="42.98157" lon="0.53763">
        <ele>1511</ele>
        <time>2019-06-30T09:13:26.000Z</time>
      </trkpt>
      <trkpt lat="42.98157" lon="0.53763">
        <ele>1510</ele>
        <time>2019-06-30T09:13:28.000Z</time>
      </trkpt>
      <trkpt lat="42.98157" lon="0.53763">
        <ele>1511</ele>
        <time>2019-06-30T09:13:30.000Z</time>
      </trkpt>
      <trkpt lat="42.98157" lon="0.53764">
        <ele>1511</ele>
        <time>2019-06-30T09:13:32.000Z</time>
      </trkpt>
      <trkpt lat="42.98158" lon="0.53764">
        <ele>1511</ele>
        <time>2019-06-30T09:13:34.000Z</time>
      </trkpt>
      <trkpt lat="42.98158" lon="0.53764">
        <ele>1511</ele>
        <time>2019-06-30T09:13:36.000Z</time>
      </trkpt>
      <trkpt lat="42.98158" lon="0.53764">
        <ele>1511</ele>
        <time>2019-06-30T09:13:38.000Z</time>
      </trkpt>
      <trkpt lat="42.98158" lon="0.53764">
        <ele>1511</ele>
        <time>2019-06-30T09:13:40.000Z</time>
      </trkpt>
      <trkpt lat="42.98158" lon="0.53764">
        <ele>1511</ele>
        <time>2019-06-30T09:13:42.000Z</time>
      </trkpt>
      <trkpt lat="42.98158" lon="0.53764">
        <ele>1511</ele>
        <time>2019-06-30T09:13:44.000Z</time>
      </trkpt>
      <trkpt lat="42.98158" lon="0.53764">
        <ele>1511</ele>
        <time>2019-06-30T09:13:46.000Z</time>
      </trkpt>
      <trkpt lat="42.98159" lon="0.53764">
        <ele>1511</ele>
        <time>2019-06-30T09:13:48.000Z</time>
      </trkpt>
      <trkpt lat="42.98159" lon="0.53764">
        <ele>1511</ele>
        <time>2019-06-30T09:13:50.000Z</time>
      </trkpt>
      <trkpt lat="42.98159" lon="0.53764">
        <ele>1511</ele>
        <time>2019-06-30T09:13:52.000Z</time>
      </trkpt>
      <trkpt lat="42.98159" lon="0.53764">
        <ele>1511</ele>
        <time>2019-06-30T09:13:54.000Z</time>
      </trkpt>
      <trkpt lat="42.98159" lon="0.53764">
        <ele>1512</ele>
        <time>2019-06-30T09:13:56.000Z</time>
      </trkpt>
      <trkpt lat="42.9816" lon="0.53764">
        <ele>1512</ele>
        <time>2019-06-30T09:13:58.000Z</time>
      </trkpt>
      <trkpt lat="42.9816" lon="0.53764">
        <ele>1512</ele>
        <time>2019-06-30T09:14:00.000Z</time>
      </trkpt>
      <trkpt lat="42.9816" lon="0.53763">
        <ele>1512</ele>
        <time>2019-06-30T09:14:02.000Z</time>
      </trkpt>
      <trkpt lat="42.9816" lon="0.53763">
        <ele>1512</ele>
        <time>2019-06-30T09:14:04.000Z</time>
      </trkpt>
      <trkpt lat="42.9816" lon="0.53763">
        <ele>1512</ele>
        <time>2019-06-30T09:14:06.000Z</time>
      </trkpt>
      <trkpt lat="42.9816" lon="0.53763">
        <ele>1512</ele>
        <time>2019-06-30T09:14:08.000Z</time>
      </trkpt>
      <trkpt lat="42.9816" lon="0.53763">
        <ele>1512</ele>
        <time>2019-06-30T09:14:10.000Z</time>
      </trkpt>
      <trkpt lat="42.9816" lon="0.53763">
        <ele>1512</ele>
        <time>2019-06-30T09:14:12.000Z</time>
      </trkpt>
      <trkpt lat="42.9816" lon="0.53763">
        <ele>1512</ele>
        <time>2019-06-30T09:14:14.000Z</time>
      </trkpt>
      <trkpt lat="42.9816" lon="0.53763">
        <ele>1512</ele>
        <time>2019-06-30T09:14:16.000Z</time>
      </trkpt>
      <trkpt lat="42.9816" lon="0.53763">
        <ele>1512</ele>
        <time>2019-06-30T09:14:18.000Z</time>
      </trkpt>
      <trkpt lat="42.9816" lon="0.53763">
        <ele>1512</ele>
        <time>2019-06-30T09:14:20.000Z</time>
      </trkpt>
      <trkpt lat="42.9816" lon="0.53762">
        <ele>1512</ele>
        <time>2019-06-30T09:14:22.000Z</time>
      </trkpt>
      <trkpt lat="42.98161" lon="0.53762">
        <ele>1512</ele>
        <time>2019-06-30T09:14:24.000Z</time>
      </trkpt>
      <trkpt lat="42.98162" lon="0.53762">
        <ele>1513</ele>
        <time>2019-06-30T09:14:26.000Z</time>
      </trkpt>
      <trkpt lat="42.98162" lon="0.53761">
        <ele>1513</ele>
        <time>2019-06-30T09:14:28.000Z</time>
      </trkpt>
      <trkpt lat="42.98162" lon="0.53762">
        <ele>1513</ele>
        <time>2019-06-30T09:14:30.000Z</time>
      </trkpt>
      <trkpt lat="42.98162" lon="0.53761">
        <ele>1513</ele>
        <time>2019-06-30T09:14:32.000Z</time>
      </trkpt>
      <trkpt lat="42.98162" lon="0.53762">
        <ele>1513</ele>
        <time>2019-06-30T09:14:34.000Z</time>
      </trkpt>
      <trkpt lat="42.98161" lon="0.53762">
        <ele>1513</ele>
        <time>2019-06-30T09:14:36.000Z</time>
      </trkpt>
      <trkpt lat="42.98161" lon="0.53763">
        <ele>1512</ele>
        <time>2019-06-30T09:14:38.000Z</time>
      </trkpt>
      <trkpt lat="42.98161" lon="0.53763">
        <ele>1512</ele>
        <time>2019-06-30T09:14:40.000Z</time>
      </trkpt>
      <trkpt lat="42.98161" lon="0.53764">
        <ele>1512</ele>
        <time>2019-06-30T09:14:42.000Z</time>
      </trkpt>
      <trkpt lat="42.98161" lon="0.53764">
        <ele>1512</ele>
        <time>2019-06-30T09:14:44.000Z</time>
      </trkpt>
      <trkpt lat="42.9816" lon="0.53764">
        <ele>1512</ele>
        <time>2019-06-30T09:14:46.000Z</time>
      </trkpt>
      <trkpt lat="42.9816" lon="0.53764">
        <ele>1512</ele>
        <time>2019-06-30T09:14:48.000Z</time>
      </trkpt>
      <trkpt lat="42.9816" lon="0.53764">
        <ele>1512</ele>
        <time>2019-06-30T09:14:50.000Z</time>
      </trkpt>
      <trkpt lat="42.9816" lon="0.53764">
        <ele>1512</ele>
        <time>2019-06-30T09:14:52.000Z</time>
      </trkpt>
      <trkpt lat="42.9816" lon="0.53763">
        <ele>1512</ele>
        <time>2019-06-30T09:14:54.000Z</time>
      </trkpt>
      <trkpt lat="42.98161" lon="0.53763">
        <ele>1512</ele>
        <time>2019-06-30T09:14:56.000Z</time>
      </trkpt>
      <trkpt lat="42.98161" lon="0.53763">
        <ele>1512</ele>
        <time>2019-06-30T09:14:58.000Z</time>
      </trkpt>
      <trkpt lat="42.98161" lon="0.53763">
        <ele>1512</ele>
        <time>2019-06-30T09:15:00.000Z</time>
      </trkpt>
      <trkpt lat="42.98161" lon="0.53763">
        <ele>1513</ele>
        <time>2019-06-30T09:15:02.000Z</time>
      </trkpt>
      <trkpt lat="42.98161" lon="0.53763">
        <ele>1513</ele>
        <time>2019-06-30T09:15:04.000Z</time>
      </trkpt>
      <trkpt lat="42.98161" lon="0.53763">
        <ele>1512</ele>
        <time>2019-06-30T09:15:06.000Z</time>
      </trkpt>
      <trkpt lat="42.98161" lon="0.53762">
        <ele>1512</ele>
        <time>2019-06-30T09:15:08.000Z</time>
      </trkpt>
      <trkpt lat="42.9816" lon="0.53763">
        <ele>1512</ele>
        <time>2019-06-30T09:15:10.000Z</time>
      </trkpt>
      <trkpt lat="42.9816" lon="0.53763">
        <ele>1512</ele>
        <time>2019-06-30T09:15:12.000Z</time>
      </trkpt>
      <trkpt lat="42.9816" lon="0.53763">
        <ele>1512</ele>
        <time>2019-06-30T09:15:14.000Z</time>
      </trkpt>
      <trkpt lat="42.98161" lon="0.53762">
        <ele>1512</ele>
        <time>2019-06-30T09:15:16.000Z</time>
      </trkpt>
      <trkpt lat="42.98161" lon="0.53762">
        <ele>1512</ele>
        <time>2019-06-30T09:15:18.000Z</time>
      </trkpt>
      <trkpt lat="42.9816" lon="0.53763">
        <ele>1512</ele>
        <time>2019-06-30T09:15:20.000Z</time>
      </trkpt>
      <trkpt lat="42.9816" lon="0.53763">
        <ele>1512</ele>
        <time>2019-06-30T09:15:22.000Z</time>
      </trkpt>
      <trkpt lat="42.9816" lon="0.53763">
        <ele>1512</ele>
        <time>2019-06-30T09:15:24.000Z</time>
      </trkpt>
      <trkpt lat="42.98161" lon="0.53763">
        <ele>1512</ele>
        <time>2019-06-30T09:15:26.000Z</time>
      </trkpt>
      <trkpt lat="42.98161" lon="0.53764">
        <ele>1512</ele>
        <time>2019-06-30T09:15:28.000Z</time>
      </trkpt>
      <trkpt lat="42.98161" lon="0.53764">
        <ele>1512</ele>
        <time>2019-06-30T09:15:30.000Z</time>
      </trkpt>
      <trkpt lat="42.98161" lon="0.53764">
        <ele>1513</ele>
        <time>2019-06-30T09:15:32.000Z</time>
      </trkpt>
      <trkpt lat="42.98161" lon="0.53764">
        <ele>1513</ele>
        <time>2019-06-30T09:15:34.000Z</time>
      </trkpt>
      <trkpt lat="42.98161" lon="0.53764">
        <ele>1513</ele>
        <time>2019-06-30T09:15:36.000Z</time>
      </trkpt>
      <trkpt lat="42.98162" lon="0.53763">
        <ele>1513</ele>
        <time>2019-06-30T09:15:38.000Z</time>
      </trkpt>
      <trkpt lat="42.98161" lon="0.53763">
        <ele>1512</ele>
        <time>2019-06-30T09:15:40.000Z</time>
      </trkpt>
      <trkpt lat="42.98161" lon="0.53762">
        <ele>1513</ele>
        <time>2019-06-30T09:15:42.000Z</time>
      </trkpt>
      <trkpt lat="42.98161" lon="0.53762">
        <ele>1512</ele>
        <time>2019-06-30T09:15:44.000Z</time>
      </trkpt>
      <trkpt lat="42.9816" lon="0.53762">
        <ele>1512</ele>
        <time>2019-06-30T09:15:46.000Z</time>
      </trkpt>
      <trkpt lat="42.9816" lon="0.53762">
        <ele>1512</ele>
        <time>2019-06-30T09:15:48.000Z</time>
      </trkpt>
      <trkpt lat="42.9816" lon="0.53761">
        <ele>1512</ele>
        <time>2019-06-30T09:15:50.000Z</time>
      </trkpt>
      <trkpt lat="42.9816" lon="0.53762">
        <ele>1512</ele>
        <time>2019-06-30T09:15:52.000Z</time>
      </trkpt>
      <trkpt lat="42.9816" lon="0.53762">
        <ele>1512</ele>
        <time>2019-06-30T09:15:54.000Z</time>
      </trkpt>
      <trkpt lat="42.9816" lon="0.53762">
        <ele>1512</ele>
        <time>2019-06-30T09:15:56.000Z</time>
      </trkpt>
      <trkpt lat="42.98161" lon="0.53762">
        <ele>1512</ele>
        <time>2019-06-30T09:15:58.000Z</time>
      </trkpt>
      <trkpt lat="42.9816" lon="0.53762">
        <ele>1512</ele>
        <time>2019-06-30T09:16:00.000Z</time>
      </trkpt>
      <trkpt lat="42.98161" lon="0.53761">
        <ele>1512</ele>
        <time>2019-06-30T09:16:02.000Z</time>
      </trkpt>
      <trkpt lat="42.98161" lon="0.53761">
        <ele>1512</ele>
        <time>2019-06-30T09:16:04.000Z</time>
      </trkpt>
      <trkpt lat="42.9816" lon="0.53762">
        <ele>1512</ele>
        <time>2019-06-30T09:16:06.000Z</time>
      </trkpt>
      <trkpt lat="42.98161" lon="0.53761">
        <ele>1512</ele>
        <time>2019-06-30T09:16:08.000Z</time>
      </trkpt>
      <trkpt lat="42.98161" lon="0.53762">
        <ele>1512</ele>
        <time>2019-06-30T09:16:10.000Z</time>
      </trkpt>
      <trkpt lat="42.98161" lon="0.53762">
        <ele>1513</ele>
        <time>2019-06-30T09:16:12.000Z</time>
      </trkpt>
      <trkpt lat="42.98161" lon="0.53762">
        <ele>1513</ele>
        <time>2019-06-30T09:16:14.000Z</time>
      </trkpt>
      <trkpt lat="42.98162" lon="0.53762">
        <ele>1513</ele>
        <time>2019-06-30T09:16:16.000Z</time>
      </trkpt>
      <trkpt lat="42.98162" lon="0.53762">
        <ele>1513</ele>
        <time>2019-06-30T09:16:18.000Z</time>
      </trkpt>
      <trkpt lat="42.98162" lon="0.53762">
        <ele>1513</ele>
        <time>2019-06-30T09:16:20.000Z</time>
      </trkpt>
      <trkpt lat="42.98162" lon="0.53762">
        <ele>1513</ele>
        <time>2019-06-30T09:16:22.000Z</time>
      </trkpt>
      <trkpt lat="42.98162" lon="0.53762">
        <ele>1513</ele>
        <time>2019-06-30T09:16:24.000Z</time>
      </trkpt>
      <trkpt lat="42.98162" lon="0.53762">
        <ele>1513</ele>
        <time>2019-06-30T09:16:26.000Z</time>
      </trkpt>
      <trkpt lat="42.98162" lon="0.53762">
        <ele>1513</ele>
        <time>2019-06-30T09:16:28.000Z</time>
      </trkpt>
      <trkpt lat="42.98161" lon="0.53762">
        <ele>1513</ele>
        <time>2019-06-30T09:16:30.000Z</time>
      </trkpt>
      <trkpt lat="42.98161" lon="0.53762">
        <ele>1513</ele>
        <time>2019-06-30T09:16:32.000Z</time>
      </trkpt>
      <trkpt lat="42.98161" lon="0.53762">
        <ele>1512</ele>
        <time>2019-06-30T09:16:34.000Z</time>
      </trkpt>
      <trkpt lat="42.98161" lon="0.53762">
        <ele>1512</ele>
        <time>2019-06-30T09:16:36.000Z</time>
      </trkpt>
      <trkpt lat="42.98161" lon="0.53762">
        <ele>1512</ele>
        <time>2019-06-30T09:16:38.000Z</time>
      </trkpt>
      <trkpt lat="42.98161" lon="0.53762">
        <ele>1513</ele>
        <time>2019-06-30T09:16:40.000Z</time>
      </trkpt>
      <trkpt lat="42.98161" lon="0.53762">
        <ele>1512</ele>
        <time>2019-06-30T09:16:42.000Z</time>
      </trkpt>
      <trkpt lat="42.98161" lon="0.53762">
        <ele>1512</ele>
        <time>2019-06-30T09:16:44.000Z</time>
      </trkpt>
      <trkpt lat="42.98161" lon="0.53762">
        <ele>1512</ele>
        <time>2019-06-30T09:16:46.000Z</time>
      </trkpt>
      <trkpt lat="42.98161" lon="0.53762">
        <ele>1512</ele>
        <time>2019-06-30T09:16:48.000Z</time>
      </trkpt>
      <trkpt lat="42.98161" lon="0.53762">
        <ele>1512</ele>
        <time>2019-06-30T09:16:50.000Z</time>
      </trkpt>
      <trkpt lat="42.98161" lon="0.53762">
        <ele>1512</ele>
        <time>2019-06-30T09:16:52.000Z</time>
      </trkpt>
      <trkpt lat="42.9816" lon="0.53761">
        <ele>1512</ele>
        <time>2019-06-30T09:16:54.000Z</time>
      </trkpt>
      <trkpt lat="42.9816" lon="0.53761">
        <ele>1512</ele>
        <time>2019-06-30T09:16:56.000Z</time>
      </trkpt>
      <trkpt lat="42.98159" lon="0.53761">
        <ele>1512</ele>
        <time>2019-06-30T09:16:58.000Z</time>
      </trkpt>
      <trkpt lat="42.98159" lon="0.5376">
        <ele>1511</ele>
        <time>2019-06-30T09:17:00.000Z</time>
      </trkpt>
      <trkpt lat="42.98159" lon="0.5376">
        <ele>1511</ele>
        <time>2019-06-30T09:17:02.000Z</time>
      </trkpt>
      <trkpt lat="42.98159" lon="0.5376">
        <ele>1511</ele>
        <time>2019-06-30T09:17:04.000Z</time>
      </trkpt>
      <trkpt lat="42.98158" lon="0.5376">
        <ele>1511</ele>
        <time>2019-06-30T09:17:06.000Z</time>
      </trkpt>
      <trkpt lat="42.98158" lon="0.5376">
        <ele>1511</ele>
        <time>2019-06-30T09:17:08.000Z</time>
      </trkpt>
      <trkpt lat="42.98158" lon="0.53761">
        <ele>1511</ele>
        <time>2019-06-30T09:17:10.000Z</time>
      </trkpt>
      <trkpt lat="42.98158" lon="0.5376">
        <ele>1511</ele>
        <time>2019-06-30T09:17:12.000Z</time>
      </trkpt>
      <trkpt lat="42.98158" lon="0.5376">
        <ele>1511</ele>
        <time>2019-06-30T09:17:14.000Z</time>
      </trkpt>
      <trkpt lat="42.98158" lon="0.53759">
        <ele>1511</ele>
        <time>2019-06-30T09:17:16.000Z</time>
      </trkpt>
      <trkpt lat="42.98158" lon="0.53758">
        <ele>1511</ele>
        <time>2019-06-30T09:17:18.000Z</time>
      </trkpt>
      <trkpt lat="42.98159" lon="0.53758">
        <ele>1511</ele>
        <time>2019-06-30T09:17:20.000Z</time>
      </trkpt>
      <trkpt lat="42.98158" lon="0.53759">
        <ele>1511</ele>
        <time>2019-06-30T09:17:22.000Z</time>
      </trkpt>
      <trkpt lat="42.98158" lon="0.53758">
        <ele>1511</ele>
        <time>2019-06-30T09:17:24.000Z</time>
      </trkpt>
      <trkpt lat="42.98158" lon="0.53758">
        <ele>1511</ele>
        <time>2019-06-30T09:17:26.000Z</time>
      </trkpt>
      <trkpt lat="42.98158" lon="0.53757">
        <ele>1511</ele>
        <time>2019-06-30T09:17:28.000Z</time>
      </trkpt>
      <trkpt lat="42.98158" lon="0.53757">
        <ele>1511</ele>
        <time>2019-06-30T09:17:30.000Z</time>
      </trkpt>
      <trkpt lat="42.98158" lon="0.53757">
        <ele>1511</ele>
        <time>2019-06-30T09:17:32.000Z</time>
      </trkpt>
      <trkpt lat="42.98158" lon="0.53757">
        <ele>1511</ele>
        <time>2019-06-30T09:17:34.000Z</time>
      </trkpt>
      <trkpt lat="42.98159" lon="0.53758">
        <ele>1511</ele>
        <time>2019-06-30T09:17:36.000Z</time>
      </trkpt>
      <trkpt lat="42.98153" lon="0.53757">
        <ele>1509</ele>
        <time>2019-06-30T09:17:38.000Z</time>
      </trkpt>
      <trkpt lat="42.98151" lon="0.5376">
        <ele>1508</ele>
        <time>2019-06-30T09:17:40.000Z</time>
      </trkpt>
      <trkpt lat="42.98152" lon="0.5376">
        <ele>1508</ele>
        <time>2019-06-30T09:17:42.000Z</time>
      </trkpt>
      <trkpt lat="42.98152" lon="0.5376">
        <ele>1508</ele>
        <time>2019-06-30T09:17:44.000Z</time>
      </trkpt>
      <trkpt lat="42.98152" lon="0.53762">
        <ele>1508</ele>
        <time>2019-06-30T09:17:46.000Z</time>
      </trkpt>
      <trkpt lat="42.98152" lon="0.53763">
        <ele>1508</ele>
        <time>2019-06-30T09:17:48.000Z</time>
      </trkpt>
      <trkpt lat="42.98152" lon="0.53764">
        <ele>1508</ele>
        <time>2019-06-30T09:17:50.000Z</time>
      </trkpt>
      <trkpt lat="42.98154" lon="0.53763">
        <ele>1509</ele>
        <time>2019-06-30T09:17:52.000Z</time>
      </trkpt>
      <trkpt lat="42.98155" lon="0.53762">
        <ele>1510</ele>
        <time>2019-06-30T09:17:54.000Z</time>
      </trkpt>
      <trkpt lat="42.98156" lon="0.53762">
        <ele>1510</ele>
        <time>2019-06-30T09:17:56.000Z</time>
      </trkpt>
      <trkpt lat="42.98158" lon="0.53762">
        <ele>1511</ele>
        <time>2019-06-30T09:17:58.000Z</time>
      </trkpt>
      <trkpt lat="42.98159" lon="0.53762">
        <ele>1512</ele>
        <time>2019-06-30T09:18:00.000Z</time>
      </trkpt>
      <trkpt lat="42.9816" lon="0.53762">
        <ele>1512</ele>
        <time>2019-06-30T09:18:02.000Z</time>
      </trkpt>
      <trkpt lat="42.98163" lon="0.5376">
        <ele>1513</ele>
        <time>2019-06-30T09:18:04.000Z</time>
      </trkpt>
      <trkpt lat="42.98164" lon="0.53759">
        <ele>1514</ele>
        <time>2019-06-30T09:18:06.000Z</time>
      </trkpt>
      <trkpt lat="42.98164" lon="0.53757">
        <ele>1514</ele>
        <time>2019-06-30T09:18:08.000Z</time>
      </trkpt>
      <trkpt lat="42.98165" lon="0.53757">
        <ele>1514</ele>
        <time>2019-06-30T09:18:10.000Z</time>
      </trkpt>
      <trkpt lat="42.98164" lon="0.53757">
        <ele>1514</ele>
        <time>2019-06-30T09:18:12.000Z</time>
      </trkpt>
      <trkpt lat="42.98164" lon="0.53757">
        <ele>1514</ele>
        <time>2019-06-30T09:18:14.000Z</time>
      </trkpt>
      <trkpt lat="42.98166" lon="0.53757">
        <ele>1515</ele>
        <time>2019-06-30T09:18:16.000Z</time>
      </trkpt>
      <trkpt lat="42.98168" lon="0.53758">
        <ele>1516</ele>
        <time>2019-06-30T09:18:18.000Z</time>
      </trkpt>
      <trkpt lat="42.98169" lon="0.53757">
        <ele>1516</ele>
        <time>2019-06-30T09:18:20.000Z</time>
      </trkpt>
      <trkpt lat="42.9817" lon="0.53757">
        <ele>1517</ele>
        <time>2019-06-30T09:18:22.000Z</time>
      </trkpt>
      <trkpt lat="42.98171" lon="0.53756">
        <ele>1517</ele>
        <time>2019-06-30T09:18:24.000Z</time>
      </trkpt>
      <trkpt lat="42.98171" lon="0.53755">
        <ele>1517</ele>
        <time>2019-06-30T09:18:26.000Z</time>
      </trkpt>
      <trkpt lat="42.98173" lon="0.53754">
        <ele>1518</ele>
        <time>2019-06-30T09:18:28.000Z</time>
      </trkpt>
      <trkpt lat="42.98171" lon="0.53753">
        <ele>1517</ele>
        <time>2019-06-30T09:18:30.000Z</time>
      </trkpt>
      <trkpt lat="42.98169" lon="0.53754">
        <ele>1516</ele>
        <time>2019-06-30T09:18:32.000Z</time>
      </trkpt>
      <trkpt lat="42.98168" lon="0.53754">
        <ele>1516</ele>
        <time>2019-06-30T09:18:34.000Z</time>
      </trkpt>
      <trkpt lat="42.98167" lon="0.53755">
        <ele>1515</ele>
        <time>2019-06-30T09:18:36.000Z</time>
      </trkpt>
      <trkpt lat="42.98165" lon="0.53756">
        <ele>1514</ele>
        <time>2019-06-30T09:18:38.000Z</time>
      </trkpt>
      <trkpt lat="42.98164" lon="0.53758">
        <ele>1514</ele>
        <time>2019-06-30T09:18:40.000Z</time>
      </trkpt>
      <trkpt lat="42.98163" lon="0.53757">
        <ele>1513</ele>
        <time>2019-06-30T09:18:42.000Z</time>
      </trkpt>
      <trkpt lat="42.98162" lon="0.53758">
        <ele>1513</ele>
        <time>2019-06-30T09:18:44.000Z</time>
      </trkpt>
      <trkpt lat="42.9816" lon="0.53757">
        <ele>1512</ele>
        <time>2019-06-30T09:18:46.000Z</time>
      </trkpt>
      <trkpt lat="42.98158" lon="0.53757">
        <ele>1511</ele>
        <time>2019-06-30T09:18:48.000Z</time>
      </trkpt>
      <trkpt lat="42.98158" lon="0.53758">
        <ele>1511</ele>
        <time>2019-06-30T09:18:50.000Z</time>
      </trkpt>
      <trkpt lat="42.98157" lon="0.53758">
        <ele>1510</ele>
        <time>2019-06-30T09:18:52.000Z</time>
      </trkpt>
      <trkpt lat="42.98155" lon="0.53758">
        <ele>1510</ele>
        <time>2019-06-30T09:18:54.000Z</time>
      </trkpt>
      <trkpt lat="42.98155" lon="0.53758">
        <ele>1509</ele>
        <time>2019-06-30T09:18:56.000Z</time>
      </trkpt>
      <trkpt lat="42.98154" lon="0.53759">
        <ele>1509</ele>
        <time>2019-06-30T09:18:58.000Z</time>
      </trkpt>
      <trkpt lat="42.98153" lon="0.53759">
        <ele>1509</ele>
        <time>2019-06-30T09:19:00.000Z</time>
      </trkpt>
      <trkpt lat="42.98153" lon="0.53759">
        <ele>1508</ele>
        <time>2019-06-30T09:19:02.000Z</time>
      </trkpt>
      <trkpt lat="42.98153" lon="0.53759">
        <ele>1508</ele>
        <time>2019-06-30T09:19:04.000Z</time>
      </trkpt>
      <trkpt lat="42.98152" lon="0.5376">
        <ele>1508</ele>
        <time>2019-06-30T09:19:06.000Z</time>
      </trkpt>
      <trkpt lat="42.98152" lon="0.53761">
        <ele>1508</ele>
        <time>2019-06-30T09:19:08.000Z</time>
      </trkpt>
      <trkpt lat="42.98155" lon="0.5376">
        <ele>1509</ele>
        <time>2019-06-30T09:19:10.000Z</time>
      </trkpt>
      <trkpt lat="42.98157" lon="0.5376">
        <ele>1510</ele>
        <time>2019-06-30T09:19:12.000Z</time>
      </trkpt>
      <trkpt lat="42.98159" lon="0.5376">
        <ele>1511</ele>
        <time>2019-06-30T09:19:14.000Z</time>
      </trkpt>
      <trkpt lat="42.9816" lon="0.5376">
        <ele>1512</ele>
        <time>2019-06-30T09:19:16.000Z</time>
      </trkpt>
      <trkpt lat="42.98161" lon="0.5376">
        <ele>1512</ele>
        <time>2019-06-30T09:19:18.000Z</time>
      </trkpt>
      <trkpt lat="42.98161" lon="0.5376">
        <ele>1513</ele>
        <time>2019-06-30T09:19:20.000Z</time>
      </trkpt>
      <trkpt lat="42.98162" lon="0.5376">
        <ele>1513</ele>
        <time>2019-06-30T09:19:22.000Z</time>
      </trkpt>
      <trkpt lat="42.98162" lon="0.5376">
        <ele>1513</ele>
        <time>2019-06-30T09:19:24.000Z</time>
      </trkpt>
      <trkpt lat="42.98162" lon="0.5376">
        <ele>1513</ele>
        <time>2019-06-30T09:19:26.000Z</time>
      </trkpt>
      <trkpt lat="42.98163" lon="0.5376">
        <ele>1513</ele>
        <time>2019-06-30T09:19:28.000Z</time>
      </trkpt>
      <trkpt lat="42.98163" lon="0.5376">
        <ele>1513</ele>
        <time>2019-06-30T09:19:30.000Z</time>
      </trkpt>
      <trkpt lat="42.98163" lon="0.53761">
        <ele>1513</ele>
        <time>2019-06-30T09:19:32.000Z</time>
      </trkpt>
      <trkpt lat="42.98162" lon="0.53762">
        <ele>1513</ele>
        <time>2019-06-30T09:19:34.000Z</time>
      </trkpt>
      <trkpt lat="42.98162" lon="0.53762">
        <ele>1513</ele>
        <time>2019-06-30T09:19:36.000Z</time>
      </trkpt>
      <trkpt lat="42.98162" lon="0.53762">
        <ele>1513</ele>
        <time>2019-06-30T09:19:38.000Z</time>
      </trkpt>
      <trkpt lat="42.98162" lon="0.53763">
        <ele>1513</ele>
        <time>2019-06-30T09:19:40.000Z</time>
      </trkpt>
      <trkpt lat="42.98162" lon="0.53763">
        <ele>1513</ele>
        <time>2019-06-30T09:19:42.000Z</time>
      </trkpt>
      <trkpt lat="42.98161" lon="0.53764">
        <ele>1512</ele>
        <time>2019-06-30T09:19:44.000Z</time>
      </trkpt>
      <trkpt lat="42.98161" lon="0.53764">
        <ele>1512</ele>
        <time>2019-06-30T09:19:46.000Z</time>
      </trkpt>
      <trkpt lat="42.98161" lon="0.53764">
        <ele>1512</ele>
        <time>2019-06-30T09:19:48.000Z</time>
      </trkpt>
      <trkpt lat="42.98161" lon="0.53765">
        <ele>1512</ele>
        <time>2019-06-30T09:19:50.000Z</time>
      </trkpt>
      <trkpt lat="42.98161" lon="0.53765">
        <ele>1512</ele>
        <time>2019-06-30T09:19:52.000Z</time>
      </trkpt>
      <trkpt lat="42.9816" lon="0.53765">
        <ele>1512</ele>
        <time>2019-06-30T09:19:54.000Z</time>
      </trkpt>
      <trkpt lat="42.98161" lon="0.53765">
        <ele>1512</ele>
        <time>2019-06-30T09:19:56.000Z</time>
      </trkpt>
      <trkpt lat="42.98161" lon="0.53765">
        <ele>1512</ele>
        <time>2019-06-30T09:19:58.000Z</time>
      </trkpt>
      <trkpt lat="42.98161" lon="0.53764">
        <ele>1513</ele>
        <time>2019-06-30T09:20:00.000Z</time>
      </trkpt>
      <trkpt lat="42.98162" lon="0.53764">
        <ele>1513</ele>
        <time>2019-06-30T09:20:02.000Z</time>
      </trkpt>
      <trkpt lat="42.98162" lon="0.53764">
        <ele>1513</ele>
        <time>2019-06-30T09:20:04.000Z</time>
      </trkpt>
      <trkpt lat="42.98162" lon="0.53764">
        <ele>1513</ele>
        <time>2019-06-30T09:20:06.000Z</time>
      </trkpt>
      <trkpt lat="42.98163" lon="0.53763">
        <ele>1513</ele>
        <time>2019-06-30T09:20:08.000Z</time>
      </trkpt>
      <trkpt lat="42.98162" lon="0.53763">
        <ele>1513</ele>
        <time>2019-06-30T09:20:10.000Z</time>
      </trkpt>
      <trkpt lat="42.98163" lon="0.53762">
        <ele>1513</ele>
        <time>2019-06-30T09:20:12.000Z</time>
      </trkpt>
      <trkpt lat="42.98162" lon="0.53762">
        <ele>1513</ele>
        <time>2019-06-30T09:20:14.000Z</time>
      </trkpt>
      <trkpt lat="42.98162" lon="0.53762">
        <ele>1513</ele>
        <time>2019-06-30T09:20:16.000Z</time>
      </trkpt>
      <trkpt lat="42.98162" lon="0.53762">
        <ele>1513</ele>
        <time>2019-06-30T09:20:18.000Z</time>
      </trkpt>
      <trkpt lat="42.98162" lon="0.53763">
        <ele>1513</ele>
        <time>2019-06-30T09:20:20.000Z</time>
      </trkpt>
      <trkpt lat="42.98161" lon="0.53763">
        <ele>1513</ele>
        <time>2019-06-30T09:20:22.000Z</time>
      </trkpt>
      <trkpt lat="42.98162" lon="0.53763">
        <ele>1513</ele>
        <time>2019-06-30T09:20:24.000Z</time>
      </trkpt>
      <trkpt lat="42.98161" lon="0.53763">
        <ele>1513</ele>
        <time>2019-06-30T09:20:26.000Z</time>
      </trkpt>
      <trkpt lat="42.98161" lon="0.53763">
        <ele>1513</ele>
        <time>2019-06-30T09:20:28.000Z</time>
      </trkpt>
      <trkpt lat="42.98162" lon="0.53763">
        <ele>1513</ele>
        <time>2019-06-30T09:20:30.000Z</time>
      </trkpt>
      <trkpt lat="42.98162" lon="0.53763">
        <ele>1513</ele>
        <time>2019-06-30T09:20:32.000Z</time>
      </trkpt>
      <trkpt lat="42.98162" lon="0.53763">
        <ele>1513</ele>
        <time>2019-06-30T09:20:34.000Z</time>
      </trkpt>
      <trkpt lat="42.98162" lon="0.53763">
        <ele>1513</ele>
        <time>2019-06-30T09:20:36.000Z</time>
      </trkpt>
      <trkpt lat="42.98162" lon="0.53763">
        <ele>1513</ele>
        <time>2019-06-30T09:20:38.000Z</time>
      </trkpt>
      <trkpt lat="42.98162" lon="0.53764">
        <ele>1513</ele>
        <time>2019-06-30T09:20:40.000Z</time>
      </trkpt>
      <trkpt lat="42.98162" lon="0.53764">
        <ele>1513</ele>
        <time>2019-06-30T09:20:42.000Z</time>
      </trkpt>
      <trkpt lat="42.98162" lon="0.53764">
        <ele>1513</ele>
        <time>2019-06-30T09:20:44.000Z</time>
      </trkpt>
      <trkpt lat="42.98161" lon="0.53765">
        <ele>1512</ele>
        <time>2019-06-30T09:20:46.000Z</time>
      </trkpt>
      <trkpt lat="42.98161" lon="0.53763">
        <ele>1513</ele>
        <time>2019-06-30T09:20:48.000Z</time>
      </trkpt>
      <trkpt lat="42.98162" lon="0.53763">
        <ele>1513</ele>
        <time>2019-06-30T09:20:50.000Z</time>
      </trkpt>
      <trkpt lat="42.98162" lon="0.53763">
        <ele>1513</ele>
        <time>2019-06-30T09:20:52.000Z</time>
      </trkpt>
      <trkpt lat="42.98162" lon="0.53763">
        <ele>1513</ele>
        <time>2019-06-30T09:20:54.000Z</time>
      </trkpt>
      <trkpt lat="42.98162" lon="0.53763">
        <ele>1513</ele>
        <time>2019-06-30T09:20:56.000Z</time>
      </trkpt>
      <trkpt lat="42.98162" lon="0.53762">
        <ele>1513</ele>
        <time>2019-06-30T09:20:58.000Z</time>
      </trkpt>
      <trkpt lat="42.98161" lon="0.53761">
        <ele>1513</ele>
        <time>2019-06-30T09:21:00.000Z</time>
      </trkpt>
      <trkpt lat="42.98161" lon="0.53761">
        <ele>1512</ele>
        <time>2019-06-30T09:21:02.000Z</time>
      </trkpt>
      <trkpt lat="42.98161" lon="0.53761">
        <ele>1513</ele>
        <time>2019-06-30T09:21:04.000Z</time>
      </trkpt>
      <trkpt lat="42.98162" lon="0.5376">
        <ele>1513</ele>
        <time>2019-06-30T09:21:06.000Z</time>
      </trkpt>
      <trkpt lat="42.98162" lon="0.5376">
        <ele>1513</ele>
        <time>2019-06-30T09:21:08.000Z</time>
      </trkpt>
      <trkpt lat="42.98163" lon="0.53759">
        <ele>1513</ele>
        <time>2019-06-30T09:21:10.000Z</time>
      </trkpt>
      <trkpt lat="42.98163" lon="0.53759">
        <ele>1513</ele>
        <time>2019-06-30T09:21:12.000Z</time>
      </trkpt>
      <trkpt lat="42.98163" lon="0.53759">
        <ele>1513</ele>
        <time>2019-06-30T09:21:14.000Z</time>
      </trkpt>
      <trkpt lat="42.98162" lon="0.53758">
        <ele>1513</ele>
        <time>2019-06-30T09:21:16.000Z</time>
      </trkpt>
      <trkpt lat="42.98163" lon="0.53757">
        <ele>1513</ele>
        <time>2019-06-30T09:21:18.000Z</time>
      </trkpt>
      <trkpt lat="42.98164" lon="0.53758">
        <ele>1514</ele>
        <time>2019-06-30T09:21:20.000Z</time>
      </trkpt>
      <trkpt lat="42.98164" lon="0.53757">
        <ele>1514</ele>
        <time>2019-06-30T09:21:22.000Z</time>
      </trkpt>
      <trkpt lat="42.98164" lon="0.53757">
        <ele>1514</ele>
        <time>2019-06-30T09:21:24.000Z</time>
      </trkpt>
      <trkpt lat="42.98163" lon="0.53758">
        <ele>1513</ele>
        <time>2019-06-30T09:21:26.000Z</time>
      </trkpt>
      <trkpt lat="42.98161" lon="0.53759">
        <ele>1512</ele>
        <time>2019-06-30T09:21:28.000Z</time>
      </trkpt>
      <trkpt lat="42.98161" lon="0.5376">
        <ele>1512</ele>
        <time>2019-06-30T09:21:30.000Z</time>
      </trkpt>
      <trkpt lat="42.9816" lon="0.53761">
        <ele>1512</ele>
        <time>2019-06-30T09:21:32.000Z</time>
      </trkpt>
      <trkpt lat="42.9816" lon="0.5376">
        <ele>1512</ele>
        <time>2019-06-30T09:21:34.000Z</time>
      </trkpt>
      <trkpt lat="42.9816" lon="0.5376">
        <ele>1512</ele>
        <time>2019-06-30T09:21:36.000Z</time>
      </trkpt>
      <trkpt lat="42.9816" lon="0.53761">
        <ele>1512</ele>
        <time>2019-06-30T09:21:38.000Z</time>
      </trkpt>
      <trkpt lat="42.98161" lon="0.53761">
        <ele>1512</ele>
        <time>2019-06-30T09:21:40.000Z</time>
      </trkpt>
      <trkpt lat="42.9816" lon="0.53762">
        <ele>1512</ele>
        <time>2019-06-30T09:21:42.000Z</time>
      </trkpt>
      <trkpt lat="42.9816" lon="0.53762">
        <ele>1512</ele>
        <time>2019-06-30T09:21:44.000Z</time>
      </trkpt>
      <trkpt lat="42.9816" lon="0.53761">
        <ele>1512</ele>
        <time>2019-06-30T09:21:46.000Z</time>
      </trkpt>
      <trkpt lat="42.9816" lon="0.53761">
        <ele>1512</ele>
        <time>2019-06-30T09:21:48.000Z</time>
      </trkpt>
      <trkpt lat="42.98161" lon="0.53761">
        <ele>1512</ele>
        <time>2019-06-30T09:21:50.000Z</time>
      </trkpt>
      <trkpt lat="42.98161" lon="0.53761">
        <ele>1513</ele>
        <time>2019-06-30T09:21:52.000Z</time>
      </trkpt>
      <trkpt lat="42.98162" lon="0.53761">
        <ele>1513</ele>
        <time>2019-06-30T09:21:54.000Z</time>
      </trkpt>
      <trkpt lat="42.98162" lon="0.53761">
        <ele>1513</ele>
        <time>2019-06-30T09:21:56.000Z</time>
      </trkpt>
      <trkpt lat="42.98163" lon="0.53761">
        <ele>1513</ele>
        <time>2019-06-30T09:21:58.000Z</time>
      </trkpt>
      <trkpt lat="42.98163" lon="0.53761">
        <ele>1513</ele>
        <time>2019-06-30T09:22:00.000Z</time>
      </trkpt>
      <trkpt lat="42.98163" lon="0.53762">
        <ele>1513</ele>
        <time>2019-06-30T09:22:02.000Z</time>
      </trkpt>
      <trkpt lat="42.98163" lon="0.53762">
        <ele>1513</ele>
        <time>2019-06-30T09:22:04.000Z</time>
      </trkpt>
      <trkpt lat="42.98164" lon="0.53763">
        <ele>1514</ele>
        <time>2019-06-30T09:22:06.000Z</time>
      </trkpt>
      <trkpt lat="42.98166" lon="0.53763">
        <ele>1515</ele>
        <time>2019-06-30T09:22:08.000Z</time>
      </trkpt>
      <trkpt lat="42.98165" lon="0.53762">
        <ele>1515</ele>
        <time>2019-06-30T09:22:10.000Z</time>
      </trkpt>
      <trkpt lat="42.98165" lon="0.53762">
        <ele>1514</ele>
        <time>2019-06-30T09:22:12.000Z</time>
      </trkpt>
      <trkpt lat="42.98164" lon="0.5376">
        <ele>1514</ele>
        <time>2019-06-30T09:22:14.000Z</time>
      </trkpt>
      <trkpt lat="42.98165" lon="0.53759">
        <ele>1514</ele>
        <time>2019-06-30T09:22:16.000Z</time>
      </trkpt>
      <trkpt lat="42.98165" lon="0.53758">
        <ele>1514</ele>
        <time>2019-06-30T09:22:18.000Z</time>
      </trkpt>
      <trkpt lat="42.98165" lon="0.53758">
        <ele>1514</ele>
        <time>2019-06-30T09:22:20.000Z</time>
      </trkpt>
      <trkpt lat="42.98165" lon="0.53758">
        <ele>1514</ele>
        <time>2019-06-30T09:22:22.000Z</time>
      </trkpt>
      <trkpt lat="42.98165" lon="0.53757">
        <ele>1514</ele>
        <time>2019-06-30T09:22:24.000Z</time>
      </trkpt>
      <trkpt lat="42.98165" lon="0.53757">
        <ele>1514</ele>
        <time>2019-06-30T09:22:26.000Z</time>
      </trkpt>
      <trkpt lat="42.98165" lon="0.53757">
        <ele>1514</ele>
        <time>2019-06-30T09:22:28.000Z</time>
      </trkpt>
      <trkpt lat="42.98165" lon="0.53758">
        <ele>1514</ele>
        <time>2019-06-30T09:22:30.000Z</time>
      </trkpt>
      <trkpt lat="42.98165" lon="0.53758">
        <ele>1514</ele>
        <time>2019-06-30T09:22:32.000Z</time>
      </trkpt>
      <trkpt lat="42.98165" lon="0.53758">
        <ele>1514</ele>
        <time>2019-06-30T09:22:34.000Z</time>
      </trkpt>
      <trkpt lat="42.98164" lon="0.53759">
        <ele>1514</ele>
        <time>2019-06-30T09:22:36.000Z</time>
      </trkpt>
      <trkpt lat="42.98164" lon="0.53759">
        <ele>1514</ele>
        <time>2019-06-30T09:22:38.000Z</time>
      </trkpt>
      <trkpt lat="42.98164" lon="0.53759">
        <ele>1514</ele>
        <time>2019-06-30T09:22:40.000Z</time>
      </trkpt>
      <trkpt lat="42.98163" lon="0.5376">
        <ele>1513</ele>
        <time>2019-06-30T09:22:42.000Z</time>
      </trkpt>
      <trkpt lat="42.98162" lon="0.53759">
        <ele>1513</ele>
        <time>2019-06-30T09:22:44.000Z</time>
      </trkpt>
      <trkpt lat="42.98161" lon="0.53759">
        <ele>1512</ele>
        <time>2019-06-30T09:22:46.000Z</time>
      </trkpt>
      <trkpt lat="42.98161" lon="0.53759">
        <ele>1512</ele>
        <time>2019-06-30T09:22:48.000Z</time>
      </trkpt>
      <trkpt lat="42.98161" lon="0.5376">
        <ele>1512</ele>
        <time>2019-06-30T09:22:50.000Z</time>
      </trkpt>
      <trkpt lat="42.98161" lon="0.5376">
        <ele>1512</ele>
        <time>2019-06-30T09:22:52.000Z</time>
      </trkpt>
      <trkpt lat="42.98161" lon="0.53759">
        <ele>1512</ele>
        <time>2019-06-30T09:22:54.000Z</time>
      </trkpt>
      <trkpt lat="42.98161" lon="0.53759">
        <ele>1512</ele>
        <time>2019-06-30T09:22:56.000Z</time>
      </trkpt>
      <trkpt lat="42.98162" lon="0.53759">
        <ele>1513</ele>
        <time>2019-06-30T09:22:58.000Z</time>
      </trkpt>
      <trkpt lat="42.98162" lon="0.53759">
        <ele>1513</ele>
        <time>2019-06-30T09:23:00.000Z</time>
      </trkpt>
      <trkpt lat="42.98162" lon="0.53759">
        <ele>1513</ele>
        <time>2019-06-30T09:23:02.000Z</time>
      </trkpt>
      <trkpt lat="42.98162" lon="0.53759">
        <ele>1513</ele>
        <time>2019-06-30T09:23:04.000Z</time>
      </trkpt>
      <trkpt lat="42.98161" lon="0.53759">
        <ele>1512</ele>
        <time>2019-06-30T09:23:06.000Z</time>
      </trkpt>
      <trkpt lat="42.98161" lon="0.53759">
        <ele>1512</ele>
        <time>2019-06-30T09:23:08.000Z</time>
      </trkpt>
      <trkpt lat="42.98161" lon="0.53759">
        <ele>1513</ele>
        <time>2019-06-30T09:23:10.000Z</time>
      </trkpt>
      <trkpt lat="42.98162" lon="0.53759">
        <ele>1513</ele>
        <time>2019-06-30T09:23:12.000Z</time>
      </trkpt>
      <trkpt lat="42.98162" lon="0.53758">
        <ele>1513</ele>
        <time>2019-06-30T09:23:14.000Z</time>
      </trkpt>
      <trkpt lat="42.98163" lon="0.53758">
        <ele>1514</ele>
        <time>2019-06-30T09:23:16.000Z</time>
      </trkpt>
      <trkpt lat="42.98163" lon="0.53759">
        <ele>1513</ele>
        <time>2019-06-30T09:23:18.000Z</time>
      </trkpt>
      <trkpt lat="42.98163" lon="0.53759">
        <ele>1513</ele>
        <time>2019-06-30T09:23:20.000Z</time>
      </trkpt>
      <trkpt lat="42.98164" lon="0.53759">
        <ele>1514</ele>
        <time>2019-06-30T09:23:22.000Z</time>
      </trkpt>
      <trkpt lat="42.98165" lon="0.53758">
        <ele>1514</ele>
        <time>2019-06-30T09:23:24.000Z</time>
      </trkpt>
      <trkpt lat="42.98163" lon="0.53759">
        <ele>1514</ele>
        <time>2019-06-30T09:23:26.000Z</time>
      </trkpt>
      <trkpt lat="42.98164" lon="0.53759">
        <ele>1514</ele>
        <time>2019-06-30T09:23:28.000Z</time>
      </trkpt>
      <trkpt lat="42.98163" lon="0.53759">
        <ele>1513</ele>
        <time>2019-06-30T09:23:30.000Z</time>
      </trkpt>
      <trkpt lat="42.98163" lon="0.53759">
        <ele>1513</ele>
        <time>2019-06-30T09:23:32.000Z</time>
      </trkpt>
      <trkpt lat="42.98163" lon="0.53759">
        <ele>1513</ele>
        <time>2019-06-30T09:23:34.000Z</time>
      </trkpt>
      <trkpt lat="42.98163" lon="0.5376">
        <ele>1513</ele>
        <time>2019-06-30T09:23:36.000Z</time>
      </trkpt>
      <trkpt lat="42.98162" lon="0.53761">
        <ele>1513</ele>
        <time>2019-06-30T09:23:38.000Z</time>
      </trkpt>
      <trkpt lat="42.98162" lon="0.53762">
        <ele>1513</ele>
        <time>2019-06-30T09:23:40.000Z</time>
      </trkpt>
      <trkpt lat="42.98159" lon="0.53762">
        <ele>1512</ele>
        <time>2019-06-30T09:23:42.000Z</time>
      </trkpt>
      <trkpt lat="42.98158" lon="0.53762">
        <ele>1511</ele>
        <time>2019-06-30T09:23:44.000Z</time>
      </trkpt>
      <trkpt lat="42.98158" lon="0.53762">
        <ele>1511</ele>
        <time>2019-06-30T09:23:46.000Z</time>
      </trkpt>
      <trkpt lat="42.98156" lon="0.53762">
        <ele>1510</ele>
        <time>2019-06-30T09:23:48.000Z</time>
      </trkpt>
      <trkpt lat="42.98156" lon="0.53761">
        <ele>1510</ele>
        <time>2019-06-30T09:23:50.000Z</time>
      </trkpt>
      <trkpt lat="42.98156" lon="0.53761">
        <ele>1510</ele>
        <time>2019-06-30T09:23:52.000Z</time>
      </trkpt>
      <trkpt lat="42.98157" lon="0.5376">
        <ele>1511</ele>
        <time>2019-06-30T09:23:54.000Z</time>
      </trkpt>
      <trkpt lat="42.98157" lon="0.5376">
        <ele>1511</ele>
        <time>2019-06-30T09:23:56.000Z</time>
      </trkpt>
      <trkpt lat="42.98157" lon="0.5376">
        <ele>1511</ele>
        <time>2019-06-30T09:23:58.000Z</time>
      </trkpt>
      <trkpt lat="42.98158" lon="0.5376">
        <ele>1511</ele>
        <time>2019-06-30T09:24:00.000Z</time>
      </trkpt>
      <trkpt lat="42.98159" lon="0.5376">
        <ele>1511</ele>
        <time>2019-06-30T09:24:02.000Z</time>
      </trkpt>
      <trkpt lat="42.98159" lon="0.5376">
        <ele>1512</ele>
        <time>2019-06-30T09:24:04.000Z</time>
      </trkpt>
      <trkpt lat="42.9816" lon="0.5376">
        <ele>1512</ele>
        <time>2019-06-30T09:24:06.000Z</time>
      </trkpt>
      <trkpt lat="42.98161" lon="0.5376">
        <ele>1513</ele>
        <time>2019-06-30T09:24:08.000Z</time>
      </trkpt>
      <trkpt lat="42.98162" lon="0.53761">
        <ele>1513</ele>
        <time>2019-06-30T09:24:10.000Z</time>
      </trkpt>
      <trkpt lat="42.98163" lon="0.53761">
        <ele>1513</ele>
        <time>2019-06-30T09:24:12.000Z</time>
      </trkpt>
      <trkpt lat="42.98164" lon="0.53761">
        <ele>1514</ele>
        <time>2019-06-30T09:24:14.000Z</time>
      </trkpt>
      <trkpt lat="42.98165" lon="0.53761">
        <ele>1514</ele>
        <time>2019-06-30T09:24:16.000Z</time>
      </trkpt>
      <trkpt lat="42.98165" lon="0.53762">
        <ele>1515</ele>
        <time>2019-06-30T09:24:18.000Z</time>
      </trkpt>
      <trkpt lat="42.98165" lon="0.53762">
        <ele>1514</ele>
        <time>2019-06-30T09:24:20.000Z</time>
      </trkpt>
      <trkpt lat="42.98165" lon="0.53762">
        <ele>1514</ele>
        <time>2019-06-30T09:24:22.000Z</time>
      </trkpt>
      <trkpt lat="42.98165" lon="0.53762">
        <ele>1514</ele>
        <time>2019-06-30T09:24:24.000Z</time>
      </trkpt>
      <trkpt lat="42.98165" lon="0.53763">
        <ele>1514</ele>
        <time>2019-06-30T09:24:26.000Z</time>
      </trkpt>
      <trkpt lat="42.98165" lon="0.53763">
        <ele>1514</ele>
        <time>2019-06-30T09:24:28.000Z</time>
      </trkpt>
      <trkpt lat="42.98165" lon="0.53764">
        <ele>1514</ele>
        <time>2019-06-30T09:24:30.000Z</time>
      </trkpt>
      <trkpt lat="42.98164" lon="0.53764">
        <ele>1514</ele>
        <time>2019-06-30T09:24:32.000Z</time>
      </trkpt>
      <trkpt lat="42.98164" lon="0.53763">
        <ele>1514</ele>
        <time>2019-06-30T09:24:34.000Z</time>
      </trkpt>
      <trkpt lat="42.98164" lon="0.53763">
        <ele>1514</ele>
        <time>2019-06-30T09:24:36.000Z</time>
      </trkpt>
      <trkpt lat="42.98164" lon="0.53763">
        <ele>1514</ele>
        <time>2019-06-30T09:24:38.000Z</time>
      </trkpt>
      <trkpt lat="42.98164" lon="0.53763">
        <ele>1514</ele>
        <time>2019-06-30T09:24:40.000Z</time>
      </trkpt>
      <trkpt lat="42.98164" lon="0.53762">
        <ele>1514</ele>
        <time>2019-06-30T09:24:42.000Z</time>
      </trkpt>
      <trkpt lat="42.98164" lon="0.53762">
        <ele>1514</ele>
        <time>2019-06-30T09:24:44.000Z</time>
      </trkpt>
      <trkpt lat="42.98164" lon="0.53761">
        <ele>1514</ele>
        <time>2019-06-30T09:24:46.000Z</time>
      </trkpt>
      <trkpt lat="42.98164" lon="0.53759">
        <ele>1514</ele>
        <time>2019-06-30T09:24:48.000Z</time>
      </trkpt>
      <trkpt lat="42.98164" lon="0.53759">
        <ele>1514</ele>
        <time>2019-06-30T09:24:50.000Z</time>
      </trkpt>
      <trkpt lat="42.98164" lon="0.53759">
        <ele>1514</ele>
        <time>2019-06-30T09:24:52.000Z</time>
      </trkpt>
      <trkpt lat="42.98164" lon="0.5376">
        <ele>1514</ele>
        <time>2019-06-30T09:24:54.000Z</time>
      </trkpt>
      <trkpt lat="42.98165" lon="0.53759">
        <ele>1515</ele>
        <time>2019-06-30T09:24:56.000Z</time>
      </trkpt>
      <trkpt lat="42.98166" lon="0.53759">
        <ele>1515</ele>
        <time>2019-06-30T09:24:58.000Z</time>
      </trkpt>
      <trkpt lat="42.98167" lon="0.53759">
        <ele>1515</ele>
        <time>2019-06-30T09:25:00.000Z</time>
      </trkpt>
      <trkpt lat="42.98166" lon="0.5376">
        <ele>1515</ele>
        <time>2019-06-30T09:25:02.000Z</time>
      </trkpt>
      <trkpt lat="42.98166" lon="0.5376">
        <ele>1515</ele>
        <time>2019-06-30T09:25:04.000Z</time>
      </trkpt>
      <trkpt lat="42.98166" lon="0.5376">
        <ele>1515</ele>
        <time>2019-06-30T09:25:06.000Z</time>
      </trkpt>
      <trkpt lat="42.98166" lon="0.5376">
        <ele>1515</ele>
        <time>2019-06-30T09:25:08.000Z</time>
      </trkpt>
      <trkpt lat="42.98165" lon="0.5376">
        <ele>1514</ele>
        <time>2019-06-30T09:25:10.000Z</time>
      </trkpt>
      <trkpt lat="42.98165" lon="0.53759">
        <ele>1514</ele>
        <time>2019-06-30T09:25:12.000Z</time>
      </trkpt>
      <trkpt lat="42.98164" lon="0.53759">
        <ele>1514</ele>
        <time>2019-06-30T09:25:14.000Z</time>
      </trkpt>
      <trkpt lat="42.98164" lon="0.5376">
        <ele>1514</ele>
        <time>2019-06-30T09:25:16.000Z</time>
      </trkpt>
      <trkpt lat="42.98163" lon="0.53761">
        <ele>1513</ele>
        <time>2019-06-30T09:25:18.000Z</time>
      </trkpt>
      <trkpt lat="42.98162" lon="0.53761">
        <ele>1513</ele>
        <time>2019-06-30T09:25:20.000Z</time>
      </trkpt>
      <trkpt lat="42.98161" lon="0.53762">
        <ele>1512</ele>
        <time>2019-06-30T09:25:22.000Z</time>
      </trkpt>
      <trkpt lat="42.98161" lon="0.53762">
        <ele>1512</ele>
        <time>2019-06-30T09:25:24.000Z</time>
      </trkpt>
      <trkpt lat="42.9816" lon="0.53762">
        <ele>1512</ele>
        <time>2019-06-30T09:25:26.000Z</time>
      </trkpt>
      <trkpt lat="42.98159" lon="0.53762">
        <ele>1512</ele>
        <time>2019-06-30T09:25:28.000Z</time>
      </trkpt>
      <trkpt lat="42.98159" lon="0.53763">
        <ele>1512</ele>
        <time>2019-06-30T09:25:30.000Z</time>
      </trkpt>
      <trkpt lat="42.98159" lon="0.53763">
        <ele>1512</ele>
        <time>2019-06-30T09:25:32.000Z</time>
      </trkpt>
      <trkpt lat="42.98159" lon="0.53763">
        <ele>1511</ele>
        <time>2019-06-30T09:25:34.000Z</time>
      </trkpt>
      <trkpt lat="42.98159" lon="0.53763">
        <ele>1511</ele>
        <time>2019-06-30T09:25:36.000Z</time>
      </trkpt>
      <trkpt lat="42.98159" lon="0.53763">
        <ele>1511</ele>
        <time>2019-06-30T09:25:38.000Z</time>
      </trkpt>
      <trkpt lat="42.98158" lon="0.53763">
        <ele>1511</ele>
        <time>2019-06-30T09:25:40.000Z</time>
      </trkpt>
      <trkpt lat="42.98158" lon="0.53764">
        <ele>1511</ele>
        <time>2019-06-30T09:25:42.000Z</time>
      </trkpt>
      <trkpt lat="42.98159" lon="0.53764">
        <ele>1511</ele>
        <time>2019-06-30T09:25:44.000Z</time>
      </trkpt>
      <trkpt lat="42.98159" lon="0.53764">
        <ele>1512</ele>
        <time>2019-06-30T09:25:46.000Z</time>
      </trkpt>
      <trkpt lat="42.98159" lon="0.53764">
        <ele>1512</ele>
        <time>2019-06-30T09:25:48.000Z</time>
      </trkpt>
      <trkpt lat="42.98159" lon="0.53764">
        <ele>1512</ele>
        <time>2019-06-30T09:25:50.000Z</time>
      </trkpt>
      <trkpt lat="42.9816" lon="0.53764">
        <ele>1512</ele>
        <time>2019-06-30T09:25:52.000Z</time>
      </trkpt>
      <trkpt lat="42.9816" lon="0.53764">
        <ele>1512</ele>
        <time>2019-06-30T09:25:54.000Z</time>
      </trkpt>
      <trkpt lat="42.9816" lon="0.53763">
        <ele>1512</ele>
        <time>2019-06-30T09:25:56.000Z</time>
      </trkpt>
      <trkpt lat="42.98161" lon="0.53762">
        <ele>1512</ele>
        <time>2019-06-30T09:25:58.000Z</time>
      </trkpt>
      <trkpt lat="42.98162" lon="0.53762">
        <ele>1513</ele>
        <time>2019-06-30T09:26:00.000Z</time>
      </trkpt>
      <trkpt lat="42.98163" lon="0.53761">
        <ele>1514</ele>
        <time>2019-06-30T09:26:02.000Z</time>
      </trkpt>
      <trkpt lat="42.98164" lon="0.5376">
        <ele>1514</ele>
        <time>2019-06-30T09:26:04.000Z</time>
      </trkpt>
      <trkpt lat="42.98164" lon="0.53761">
        <ele>1514</ele>
        <time>2019-06-30T09:26:06.000Z</time>
      </trkpt>
      <trkpt lat="42.98164" lon="0.53761">
        <ele>1514</ele>
        <time>2019-06-30T09:26:08.000Z</time>
      </trkpt>
      <trkpt lat="42.98163" lon="0.53762">
        <ele>1514</ele>
        <time>2019-06-30T09:26:10.000Z</time>
      </trkpt>
      <trkpt lat="42.98163" lon="0.53762">
        <ele>1513</ele>
        <time>2019-06-30T09:26:12.000Z</time>
      </trkpt>
      <trkpt lat="42.98163" lon="0.53763">
        <ele>1513</ele>
        <time>2019-06-30T09:26:14.000Z</time>
      </trkpt>
      <trkpt lat="42.98163" lon="0.53763">
        <ele>1513</ele>
        <time>2019-06-30T09:26:16.000Z</time>
      </trkpt>
      <trkpt lat="42.98162" lon="0.53763">
        <ele>1513</ele>
        <time>2019-06-30T09:26:18.000Z</time>
      </trkpt>
      <trkpt lat="42.98162" lon="0.53762">
        <ele>1513</ele>
        <time>2019-06-30T09:26:20.000Z</time>
      </trkpt>
      <trkpt lat="42.98162" lon="0.53762">
        <ele>1513</ele>
        <time>2019-06-30T09:26:22.000Z</time>
      </trkpt>
      <trkpt lat="42.98162" lon="0.53762">
        <ele>1513</ele>
        <time>2019-06-30T09:26:24.000Z</time>
      </trkpt>
      <trkpt lat="42.98164" lon="0.53763">
        <ele>1514</ele>
        <time>2019-06-30T09:26:26.000Z</time>
      </trkpt>
      <trkpt lat="42.98164" lon="0.53762">
        <ele>1514</ele>
        <time>2019-06-30T09:26:28.000Z</time>
      </trkpt>
      <trkpt lat="42.98164" lon="0.53762">
        <ele>1514</ele>
        <time>2019-06-30T09:26:30.000Z</time>
      </trkpt>
      <trkpt lat="42.98163" lon="0.53762">
        <ele>1514</ele>
        <time>2019-06-30T09:26:32.000Z</time>
      </trkpt>
      <trkpt lat="42.98163" lon="0.53762">
        <ele>1513</ele>
        <time>2019-06-30T09:26:34.000Z</time>
      </trkpt>
      <trkpt lat="42.98163" lon="0.53762">
        <ele>1513</ele>
        <time>2019-06-30T09:26:36.000Z</time>
      </trkpt>
      <trkpt lat="42.98162" lon="0.53762">
        <ele>1513</ele>
        <time>2019-06-30T09:26:38.000Z</time>
      </trkpt>
      <trkpt lat="42.98162" lon="0.53762">
        <ele>1513</ele>
        <time>2019-06-30T09:26:40.000Z</time>
      </trkpt>
      <trkpt lat="42.98162" lon="0.53762">
        <ele>1513</ele>
        <time>2019-06-30T09:26:42.000Z</time>
      </trkpt>
      <trkpt lat="42.98162" lon="0.53762">
        <ele>1513</ele>
        <time>2019-06-30T09:26:44.000Z</time>
      </trkpt>
      <trkpt lat="42.98162" lon="0.53762">
        <ele>1513</ele>
        <time>2019-06-30T09:26:46.000Z</time>
      </trkpt>
      <trkpt lat="42.98162" lon="0.53762">
        <ele>1513</ele>
        <time>2019-06-30T09:26:48.000Z</time>
      </trkpt>
      <trkpt lat="42.98161" lon="0.53762">
        <ele>1513</ele>
        <time>2019-06-30T09:26:50.000Z</time>
      </trkpt>
      <trkpt lat="42.98161" lon="0.53762">
        <ele>1513</ele>
        <time>2019-06-30T09:26:52.000Z</time>
      </trkpt>
      <trkpt lat="42.98161" lon="0.53762">
        <ele>1512</ele>
        <time>2019-06-30T09:26:54.000Z</time>
      </trkpt>
      <trkpt lat="42.98161" lon="0.53762">
        <ele>1512</ele>
        <time>2019-06-30T09:26:56.000Z</time>
      </trkpt>
      <trkpt lat="42.98161" lon="0.53762">
        <ele>1512</ele>
        <time>2019-06-30T09:26:58.000Z</time>
      </trkpt>
      <trkpt lat="42.98161" lon="0.53762">
        <ele>1512</ele>
        <time>2019-06-30T09:27:00.000Z</time>
      </trkpt>
      <trkpt lat="42.98161" lon="0.53762">
        <ele>1512</ele>
        <time>2019-06-30T09:27:02.000Z</time>
      </trkpt>
      <trkpt lat="42.9816" lon="0.53762">
        <ele>1512</ele>
        <time>2019-06-30T09:27:04.000Z</time>
      </trkpt>
      <trkpt lat="42.9816" lon="0.53762">
        <ele>1512</ele>
        <time>2019-06-30T09:27:06.000Z</time>
      </trkpt>
      <trkpt lat="42.98161" lon="0.53763">
        <ele>1512</ele>
        <time>2019-06-30T09:27:08.000Z</time>
      </trkpt>
      <trkpt lat="42.98161" lon="0.53763">
        <ele>1512</ele>
        <time>2019-06-30T09:27:10.000Z</time>
      </trkpt>
      <trkpt lat="42.98161" lon="0.53763">
        <ele>1512</ele>
        <time>2019-06-30T09:27:12.000Z</time>
      </trkpt>
      <trkpt lat="42.98161" lon="0.53763">
        <ele>1513</ele>
        <time>2019-06-30T09:27:14.000Z</time>
      </trkpt>
      <trkpt lat="42.98161" lon="0.53763">
        <ele>1513</ele>
        <time>2019-06-30T09:27:16.000Z</time>
      </trkpt>
      <trkpt lat="42.98161" lon="0.53763">
        <ele>1512</ele>
        <time>2019-06-30T09:27:18.000Z</time>
      </trkpt>
      <trkpt lat="42.98161" lon="0.53763">
        <ele>1512</ele>
        <time>2019-06-30T09:27:20.000Z</time>
      </trkpt>
      <trkpt lat="42.98161" lon="0.53763">
        <ele>1512</ele>
        <time>2019-06-30T09:27:22.000Z</time>
      </trkpt>
      <trkpt lat="42.9816" lon="0.53763">
        <ele>1512</ele>
        <time>2019-06-30T09:27:24.000Z</time>
      </trkpt>
      <trkpt lat="42.9816" lon="0.53763">
        <ele>1512</ele>
        <time>2019-06-30T09:27:26.000Z</time>
      </trkpt>
      <trkpt lat="42.9816" lon="0.53763">
        <ele>1512</ele>
        <time>2019-06-30T09:27:28.000Z</time>
      </trkpt>
      <trkpt lat="42.9816" lon="0.53764">
        <ele>1512</ele>
        <time>2019-06-30T09:27:30.000Z</time>
      </trkpt>
      <trkpt lat="42.9816" lon="0.53764">
        <ele>1512</ele>
        <time>2019-06-30T09:27:32.000Z</time>
      </trkpt>
      <trkpt lat="42.9816" lon="0.53764">
        <ele>1512</ele>
        <time>2019-06-30T09:27:34.000Z</time>
      </trkpt>
      <trkpt lat="42.9816" lon="0.53764">
        <ele>1512</ele>
        <time>2019-06-30T09:27:36.000Z</time>
      </trkpt>
      <trkpt lat="42.9816" lon="0.53764">
        <ele>1512</ele>
        <time>2019-06-30T09:27:38.000Z</time>
      </trkpt>
      <trkpt lat="42.9816" lon="0.53764">
        <ele>1512</ele>
        <time>2019-06-30T09:27:40.000Z</time>
      </trkpt>
      <trkpt lat="42.9816" lon="0.53764">
        <ele>1512</ele>
        <time>2019-06-30T09:27:42.000Z</time>
      </trkpt>
      <trkpt lat="42.9816" lon="0.53764">
        <ele>1512</ele>
        <time>2019-06-30T09:27:44.000Z</time>
      </trkpt>
      <trkpt lat="42.98159" lon="0.53764">
        <ele>1512</ele>
        <time>2019-06-30T09:27:46.000Z</time>
      </trkpt>
      <trkpt lat="42.98159" lon="0.53763">
        <ele>1512</ele>
        <time>2019-06-30T09:27:48.000Z</time>
      </trkpt>
      <trkpt lat="42.98159" lon="0.53764">
        <ele>1512</ele>
        <time>2019-06-30T09:27:50.000Z</time>
      </trkpt>
      <trkpt lat="42.9816" lon="0.53763">
        <ele>1512</ele>
        <time>2019-06-30T09:27:52.000Z</time>
      </trkpt>
      <trkpt lat="42.9816" lon="0.53763">
        <ele>1512</ele>
        <time>2019-06-30T09:27:54.000Z</time>
      </trkpt>
      <trkpt lat="42.9816" lon="0.53763">
        <ele>1512</ele>
        <time>2019-06-30T09:27:56.000Z</time>
      </trkpt>
      <trkpt lat="42.9816" lon="0.53764">
        <ele>1512</ele>
        <time>2019-06-30T09:27:58.000Z</time>
      </trkpt>
      <trkpt lat="42.9816" lon="0.53763">
        <ele>1512</ele>
        <time>2019-06-30T09:28:00.000Z</time>
      </trkpt>
      <trkpt lat="42.9816" lon="0.53763">
        <ele>1512</ele>
        <time>2019-06-30T09:28:02.000Z</time>
      </trkpt>
      <trkpt lat="42.98161" lon="0.53763">
        <ele>1512</ele>
        <time>2019-06-30T09:28:04.000Z</time>
      </trkpt>
      <trkpt lat="42.98161" lon="0.53763">
        <ele>1512</ele>
        <time>2019-06-30T09:28:06.000Z</time>
      </trkpt>
      <trkpt lat="42.9816" lon="0.53763">
        <ele>1512</ele>
        <time>2019-06-30T09:28:08.000Z</time>
      </trkpt>
      <trkpt lat="42.9816" lon="0.53763">
        <ele>1512</ele>
        <time>2019-06-30T09:28:10.000Z</time>
      </trkpt>
      <trkpt lat="42.9816" lon="0.53763">
        <ele>1512</ele>
        <time>2019-06-30T09:28:12.000Z</time>
      </trkpt>
      <trkpt lat="42.9816" lon="0.53763">
        <ele>1512</ele>
        <time>2019-06-30T09:28:14.000Z</time>
      </trkpt>
      <trkpt lat="42.9816" lon="0.53763">
        <ele>1512</ele>
        <time>2019-06-30T09:28:16.000Z</time>
      </trkpt>
      <trkpt lat="42.9816" lon="0.53763">
        <ele>1512</ele>
        <time>2019-06-30T09:28:18.000Z</time>
      </trkpt>
      <trkpt lat="42.9816" lon="0.53763">
        <ele>1512</ele>
        <time>2019-06-30T09:28:20.000Z</time>
      </trkpt>
      <trkpt lat="42.9816" lon="0.53763">
        <ele>1512</ele>
        <time>2019-06-30T09:28:22.000Z</time>
      </trkpt>
      <trkpt lat="42.9816" lon="0.53763">
        <ele>1512</ele>
        <time>2019-06-30T09:28:24.000Z</time>
      </trkpt>
      <trkpt lat="42.98161" lon="0.53763">
        <ele>1512</ele>
        <time>2019-06-30T09:28:26.000Z</time>
      </trkpt>
      <trkpt lat="42.98161" lon="0.53763">
        <ele>1512</ele>
        <time>2019-06-30T09:28:28.000Z</time>
      </trkpt>
      <trkpt lat="42.98161" lon="0.53763">
        <ele>1512</ele>
        <time>2019-06-30T09:28:30.000Z</time>
      </trkpt>
      <trkpt lat="42.98161" lon="0.53763">
        <ele>1512</ele>
        <time>2019-06-30T09:28:32.000Z</time>
      </trkpt>
      <trkpt lat="42.98161" lon="0.53763">
        <ele>1512</ele>
        <time>2019-06-30T09:28:34.000Z</time>
      </trkpt>
      <trkpt lat="42.98161" lon="0.53763">
        <ele>1512</ele>
        <time>2019-06-30T09:28:36.000Z</time>
      </trkpt>
      <trkpt lat="42.98161" lon="0.53763">
        <ele>1512</ele>
        <time>2019-06-30T09:28:38.000Z</time>
      </trkpt>
      <trkpt lat="42.98161" lon="0.53763">
        <ele>1512</ele>
        <time>2019-06-30T09:28:40.000Z</time>
      </trkpt>
      <trkpt lat="42.98161" lon="0.53763">
        <ele>1512</ele>
        <time>2019-06-30T09:28:42.000Z</time>
      </trkpt>
      <trkpt lat="42.98161" lon="0.53763">
        <ele>1512</ele>
        <time>2019-06-30T09:28:44.000Z</time>
      </trkpt>
      <trkpt lat="42.9816" lon="0.53763">
        <ele>1512</ele>
        <time>2019-06-30T09:28:46.000Z</time>
      </trkpt>
      <trkpt lat="42.98161" lon="0.53764">
        <ele>1512</ele>
        <time>2019-06-30T09:28:48.000Z</time>
      </trkpt>
      <trkpt lat="42.9816" lon="0.53764">
        <ele>1512</ele>
        <time>2019-06-30T09:28:50.000Z</time>
      </trkpt>
      <trkpt lat="42.9816" lon="0.53764">
        <ele>1512</ele>
        <time>2019-06-30T09:28:52.000Z</time>
      </trkpt>
      <trkpt lat="42.9816" lon="0.53764">
        <ele>1512</ele>
        <time>2019-06-30T09:28:54.000Z</time>
      </trkpt>
      <trkpt lat="42.9816" lon="0.53764">
        <ele>1512</ele>
        <time>2019-06-30T09:28:56.000Z</time>
      </trkpt>
      <trkpt lat="42.9816" lon="0.53763">
        <ele>1512</ele>
        <time>2019-06-30T09:28:58.000Z</time>
      </trkpt>
      <trkpt lat="42.9816" lon="0.53763">
        <ele>1512</ele>
        <time>2019-06-30T09:29:00.000Z</time>
      </trkpt>
      <trkpt lat="42.9816" lon="0.53763">
        <ele>1512</ele>
        <time>2019-06-30T09:29:02.000Z</time>
      </trkpt>
      <trkpt lat="42.9816" lon="0.53763">
        <ele>1512</ele>
        <time>2019-06-30T09:29:04.000Z</time>
      </trkpt>
      <trkpt lat="42.9816" lon="0.53763">
        <ele>1512</ele>
        <time>2019-06-30T09:29:06.000Z</time>
      </trkpt>
      <trkpt lat="42.98161" lon="0.53763">
        <ele>1512</ele>
        <time>2019-06-30T09:29:08.000Z</time>
      </trkpt>
      <trkpt lat="42.98161" lon="0.53762">
        <ele>1512</ele>
        <time>2019-06-30T09:29:10.000Z</time>
      </trkpt>
      <trkpt lat="42.98161" lon="0.53762">
        <ele>1512</ele>
        <time>2019-06-30T09:29:12.000Z</time>
      </trkpt>
      <trkpt lat="42.98161" lon="0.53762">
        <ele>1512</ele>
        <time>2019-06-30T09:29:14.000Z</time>
      </trkpt>
      <trkpt lat="42.98161" lon="0.53762">
        <ele>1512</ele>
        <time>2019-06-30T09:29:16.000Z</time>
      </trkpt>
      <trkpt lat="42.98161" lon="0.53762">
        <ele>1512</ele>
        <time>2019-06-30T09:29:18.000Z</time>
      </trkpt>
      <trkpt lat="42.98161" lon="0.53762">
        <ele>1513</ele>
        <time>2019-06-30T09:29:20.000Z</time>
      </trkpt>
      <trkpt lat="42.98161" lon="0.53762">
        <ele>1513</ele>
        <time>2019-06-30T09:29:22.000Z</time>
      </trkpt>
      <trkpt lat="42.98161" lon="0.53762">
        <ele>1513</ele>
        <time>2019-06-30T09:29:24.000Z</time>
      </trkpt>
      <trkpt lat="42.98162" lon="0.53762">
        <ele>1513</ele>
        <time>2019-06-30T09:29:26.000Z</time>
      </trkpt>
      <trkpt lat="42.98162" lon="0.53761">
        <ele>1513</ele>
        <time>2019-06-30T09:29:28.000Z</time>
      </trkpt>
      <trkpt lat="42.98162" lon="0.53761">
        <ele>1513</ele>
        <time>2019-06-30T09:29:30.000Z</time>
      </trkpt>
      <trkpt lat="42.98162" lon="0.53761">
        <ele>1513</ele>
        <time>2019-06-30T09:29:32.000Z</time>
      </trkpt>
      <trkpt lat="42.98162" lon="0.53762">
        <ele>1513</ele>
        <time>2019-06-30T09:29:34.000Z</time>
      </trkpt>
      <trkpt lat="42.98163" lon="0.53763">
        <ele>1513</ele>
        <time>2019-06-30T09:29:36.000Z</time>
      </trkpt>
      <trkpt lat="42.98163" lon="0.53764">
        <ele>1513</ele>
        <time>2019-06-30T09:29:38.000Z</time>
      </trkpt>
      <trkpt lat="42.98163" lon="0.53765">
        <ele>1513</ele>
        <time>2019-06-30T09:29:40.000Z</time>
      </trkpt>
      <trkpt lat="42.98162" lon="0.53766">
        <ele>1513</ele>
        <time>2019-06-30T09:29:42.000Z</time>
      </trkpt>
      <trkpt lat="42.98162" lon="0.53766">
        <ele>1513</ele>
        <time>2019-06-30T09:29:44.000Z</time>
      </trkpt>
      <trkpt lat="42.98161" lon="0.53767">
        <ele>1513</ele>
        <time>2019-06-30T09:29:46.000Z</time>
      </trkpt>
      <trkpt lat="42.98161" lon="0.53768">
        <ele>1512</ele>
        <time>2019-06-30T09:29:48.000Z</time>
      </trkpt>
      <trkpt lat="42.98159" lon="0.5377">
        <ele>1512</ele>
        <time>2019-06-30T09:29:50.000Z</time>
      </trkpt>
      <trkpt lat="42.98159" lon="0.53771">
        <ele>1512</ele>
        <time>2019-06-30T09:29:52.000Z</time>
      </trkpt>
      <trkpt lat="42.9816" lon="0.53771">
        <ele>1512</ele>
        <time>2019-06-30T09:29:54.000Z</time>
      </trkpt>
      <trkpt lat="42.98159" lon="0.5377">
        <ele>1511</ele>
        <time>2019-06-30T09:29:56.000Z</time>
      </trkpt>
      <trkpt lat="42.98159" lon="0.5377">
        <ele>1511</ele>
        <time>2019-06-30T09:29:58.000Z</time>
      </trkpt>
      <trkpt lat="42.98159" lon="0.5377">
        <ele>1511</ele>
        <time>2019-06-30T09:30:00.000Z</time>
      </trkpt>
      <trkpt lat="42.98159" lon="0.5377">
        <ele>1511</ele>
        <time>2019-06-30T09:30:02.000Z</time>
      </trkpt>
      <trkpt lat="42.98158" lon="0.5377">
        <ele>1511</ele>
        <time>2019-06-30T09:30:04.000Z</time>
      </trkpt>
      <trkpt lat="42.98158" lon="0.53771">
        <ele>1511</ele>
        <time>2019-06-30T09:30:06.000Z</time>
      </trkpt>
      <trkpt lat="42.98156" lon="0.53773">
        <ele>1510</ele>
        <time>2019-06-30T09:30:08.000Z</time>
      </trkpt>
      <trkpt lat="42.98155" lon="0.53774">
        <ele>1509</ele>
        <time>2019-06-30T09:30:10.000Z</time>
      </trkpt>
      <trkpt lat="42.98154" lon="0.53773">
        <ele>1509</ele>
        <time>2019-06-30T09:30:12.000Z</time>
      </trkpt>
      <trkpt lat="42.98154" lon="0.53775">
        <ele>1509</ele>
        <time>2019-06-30T09:30:14.000Z</time>
      </trkpt>
      <trkpt lat="42.98155" lon="0.53775">
        <ele>1509</ele>
        <time>2019-06-30T09:30:16.000Z</time>
      </trkpt>
      <trkpt lat="42.98154" lon="0.53776">
        <ele>1509</ele>
        <time>2019-06-30T09:30:18.000Z</time>
      </trkpt>
      <trkpt lat="42.98153" lon="0.53776">
        <ele>1509</ele>
        <time>2019-06-30T09:30:20.000Z</time>
      </trkpt>
      <trkpt lat="42.98152" lon="0.53776">
        <ele>1508</ele>
        <time>2019-06-30T09:30:22.000Z</time>
      </trkpt>
      <trkpt lat="42.98151" lon="0.53778">
        <ele>1508</ele>
        <time>2019-06-30T09:30:24.000Z</time>
      </trkpt>
      <trkpt lat="42.9815" lon="0.5378">
        <ele>1508</ele>
        <time>2019-06-30T09:30:26.000Z</time>
      </trkpt>
      <trkpt lat="42.98149" lon="0.53782">
        <ele>1508</ele>
        <time>2019-06-30T09:30:28.000Z</time>
      </trkpt>
      <trkpt lat="42.98145" lon="0.53785">
        <ele>1507</ele>
        <time>2019-06-30T09:30:30.000Z</time>
      </trkpt>
      <trkpt lat="42.98146" lon="0.53785">
        <ele>1507</ele>
        <time>2019-06-30T09:30:32.000Z</time>
      </trkpt>
      <trkpt lat="42.98149" lon="0.53778">
        <ele>1507</ele>
        <time>2019-06-30T09:30:34.000Z</time>
      </trkpt>
      <trkpt lat="42.9815" lon="0.53776">
        <ele>1507</ele>
        <time>2019-06-30T09:30:36.000Z</time>
      </trkpt>
      <trkpt lat="42.98151" lon="0.53775">
        <ele>1507</ele>
        <time>2019-06-30T09:30:38.000Z</time>
      </trkpt>
      <trkpt lat="42.98152" lon="0.53772">
        <ele>1508</ele>
        <time>2019-06-30T09:30:40.000Z</time>
      </trkpt>
      <trkpt lat="42.98153" lon="0.53768">
        <ele>1509</ele>
        <time>2019-06-30T09:30:42.000Z</time>
      </trkpt>
      <trkpt lat="42.98154" lon="0.53765">
        <ele>1509</ele>
        <time>2019-06-30T09:30:44.000Z</time>
      </trkpt>
      <trkpt lat="42.98156" lon="0.53764">
        <ele>1510</ele>
        <time>2019-06-30T09:30:46.000Z</time>
      </trkpt>
      <trkpt lat="42.98158" lon="0.53763">
        <ele>1511</ele>
        <time>2019-06-30T09:30:48.000Z</time>
      </trkpt>
      <trkpt lat="42.98159" lon="0.53761">
        <ele>1511</ele>
        <time>2019-06-30T09:30:50.000Z</time>
      </trkpt>
      <trkpt lat="42.98159" lon="0.53761">
        <ele>1512</ele>
        <time>2019-06-30T09:30:52.000Z</time>
      </trkpt>
      <trkpt lat="42.98159" lon="0.53761">
        <ele>1512</ele>
        <time>2019-06-30T09:30:54.000Z</time>
      </trkpt>
      <trkpt lat="42.98159" lon="0.53761">
        <ele>1512</ele>
        <time>2019-06-30T09:30:56.000Z</time>
      </trkpt>
      <trkpt lat="42.98159" lon="0.5376">
        <ele>1512</ele>
        <time>2019-06-30T09:30:58.000Z</time>
      </trkpt>
      <trkpt lat="42.9816" lon="0.5376">
        <ele>1512</ele>
        <time>2019-06-30T09:31:00.000Z</time>
      </trkpt>
      <trkpt lat="42.9816" lon="0.53759">
        <ele>1512</ele>
        <time>2019-06-30T09:31:02.000Z</time>
      </trkpt>
      <trkpt lat="42.9816" lon="0.53759">
        <ele>1512</ele>
        <time>2019-06-30T09:31:04.000Z</time>
      </trkpt>
      <trkpt lat="42.9816" lon="0.53759">
        <ele>1512</ele>
        <time>2019-06-30T09:31:06.000Z</time>
      </trkpt>
      <trkpt lat="42.9816" lon="0.53759">
        <ele>1512</ele>
        <time>2019-06-30T09:31:08.000Z</time>
      </trkpt>
      <trkpt lat="42.9816" lon="0.53758">
        <ele>1512</ele>
        <time>2019-06-30T09:31:10.000Z</time>
      </trkpt>
      <trkpt lat="42.9816" lon="0.53758">
        <ele>1512</ele>
        <time>2019-06-30T09:31:12.000Z</time>
      </trkpt>
      <trkpt lat="42.9816" lon="0.53759">
        <ele>1512</ele>
        <time>2019-06-30T09:31:14.000Z</time>
      </trkpt>
      <trkpt lat="42.9816" lon="0.53759">
        <ele>1512</ele>
        <time>2019-06-30T09:31:16.000Z</time>
      </trkpt>
      <trkpt lat="42.9816" lon="0.53759">
        <ele>1512</ele>
        <time>2019-06-30T09:31:18.000Z</time>
      </trkpt>
      <trkpt lat="42.9816" lon="0.53759">
        <ele>1512</ele>
        <time>2019-06-30T09:31:20.000Z</time>
      </trkpt>
      <trkpt lat="42.9816" lon="0.5376">
        <ele>1512</ele>
        <time>2019-06-30T09:31:22.000Z</time>
      </trkpt>
      <trkpt lat="42.9816" lon="0.53761">
        <ele>1512</ele>
        <time>2019-06-30T09:31:24.000Z</time>
      </trkpt>
      <trkpt lat="42.9816" lon="0.53761">
        <ele>1512</ele>
        <time>2019-06-30T09:31:26.000Z</time>
      </trkpt>
      <trkpt lat="42.98159" lon="0.53761">
        <ele>1512</ele>
        <time>2019-06-30T09:31:28.000Z</time>
      </trkpt>
      <trkpt lat="42.98159" lon="0.53762">
        <ele>1511</ele>
        <time>2019-06-30T09:31:30.000Z</time>
      </trkpt>
      <trkpt lat="42.98159" lon="0.53762">
        <ele>1511</ele>
        <time>2019-06-30T09:31:32.000Z</time>
      </trkpt>
      <trkpt lat="42.98158" lon="0.53762">
        <ele>1511</ele>
        <time>2019-06-30T09:31:34.000Z</time>
      </trkpt>
      <trkpt lat="42.98158" lon="0.53762">
        <ele>1511</ele>
        <time>2019-06-30T09:31:36.000Z</time>
      </trkpt>
      <trkpt lat="42.98158" lon="0.53763">
        <ele>1511</ele>
        <time>2019-06-30T09:31:38.000Z</time>
      </trkpt>
      <trkpt lat="42.98159" lon="0.53763">
        <ele>1511</ele>
        <time>2019-06-30T09:31:40.000Z</time>
      </trkpt>
      <trkpt lat="42.98159" lon="0.53762">
        <ele>1512</ele>
        <time>2019-06-30T09:31:42.000Z</time>
      </trkpt>
      <trkpt lat="42.9816" lon="0.53762">
        <ele>1512</ele>
        <time>2019-06-30T09:31:44.000Z</time>
      </trkpt>
      <trkpt lat="42.9816" lon="0.53762">
        <ele>1512</ele>
        <time>2019-06-30T09:31:46.000Z</time>
      </trkpt>
      <trkpt lat="42.9816" lon="0.53762">
        <ele>1512</ele>
        <time>2019-06-30T09:31:48.000Z</time>
      </trkpt>
      <trkpt lat="42.98161" lon="0.53762">
        <ele>1512</ele>
        <time>2019-06-30T09:31:50.000Z</time>
      </trkpt>
      <trkpt lat="42.98162" lon="0.53761">
        <ele>1513</ele>
        <time>2019-06-30T09:31:52.000Z</time>
      </trkpt>
      <trkpt lat="42.98162" lon="0.53761">
        <ele>1513</ele>
        <time>2019-06-30T09:31:54.000Z</time>
      </trkpt>
      <trkpt lat="42.98162" lon="0.53761">
        <ele>1513</ele>
        <time>2019-06-30T09:31:56.000Z</time>
      </trkpt>
      <trkpt lat="42.98162" lon="0.53762">
        <ele>1513</ele>
        <time>2019-06-30T09:31:58.000Z</time>
      </trkpt>
      <trkpt lat="42.98162" lon="0.53762">
        <ele>1513</ele>
        <time>2019-06-30T09:32:00.000Z</time>
      </trkpt>
      <trkpt lat="42.98162" lon="0.53762">
        <ele>1513</ele>
        <time>2019-06-30T09:32:02.000Z</time>
      </trkpt>
      <trkpt lat="42.98162" lon="0.53762">
        <ele>1513</ele>
        <time>2019-06-30T09:32:04.000Z</time>
      </trkpt>
      <trkpt lat="42.98162" lon="0.53762">
        <ele>1513</ele>
        <time>2019-06-30T09:32:06.000Z</time>
      </trkpt>
      <trkpt lat="42.98162" lon="0.53762">
        <ele>1513</ele>
        <time>2019-06-30T09:32:08.000Z</time>
      </trkpt>
      <trkpt lat="42.98162" lon="0.53762">
        <ele>1513</ele>
        <time>2019-06-30T09:32:10.000Z</time>
      </trkpt>
      <trkpt lat="42.98162" lon="0.53762">
        <ele>1513</ele>
        <time>2019-06-30T09:32:12.000Z</time>
      </trkpt>
      <trkpt lat="42.98163" lon="0.53761">
        <ele>1513</ele>
        <time>2019-06-30T09:32:14.000Z</time>
      </trkpt>
      <trkpt lat="42.98163" lon="0.53761">
        <ele>1513</ele>
        <time>2019-06-30T09:32:16.000Z</time>
      </trkpt>
      <trkpt lat="42.98163" lon="0.53761">
        <ele>1513</ele>
        <time>2019-06-30T09:32:18.000Z</time>
      </trkpt>
      <trkpt lat="42.98163" lon="0.53761">
        <ele>1513</ele>
        <time>2019-06-30T09:32:20.000Z</time>
      </trkpt>
      <trkpt lat="42.98162" lon="0.53762">
        <ele>1513</ele>
        <time>2019-06-30T09:32:22.000Z</time>
      </trkpt>
      <trkpt lat="42.98162" lon="0.53762">
        <ele>1513</ele>
        <time>2019-06-30T09:32:24.000Z</time>
      </trkpt>
      <trkpt lat="42.98162" lon="0.53761">
        <ele>1513</ele>
        <time>2019-06-30T09:32:26.000Z</time>
      </trkpt>
      <trkpt lat="42.98162" lon="0.53761">
        <ele>1513</ele>
        <time>2019-06-30T09:32:28.000Z</time>
      </trkpt>
      <trkpt lat="42.98161" lon="0.53762">
        <ele>1513</ele>
        <time>2019-06-30T09:32:30.000Z</time>
      </trkpt>
      <trkpt lat="42.98161" lon="0.53762">
        <ele>1513</ele>
        <time>2019-06-30T09:32:32.000Z</time>
      </trkpt>
      <trkpt lat="42.98161" lon="0.53762">
        <ele>1513</ele>
        <time>2019-06-30T09:32:34.000Z</time>
      </trkpt>
      <trkpt lat="42.98161" lon="0.53762">
        <ele>1512</ele>
        <time>2019-06-30T09:32:36.000Z</time>
      </trkpt>
      <trkpt lat="42.98161" lon="0.53762">
        <ele>1512</ele>
        <time>2019-06-30T09:32:38.000Z</time>
      </trkpt>
      <trkpt lat="42.9816" lon="0.53763">
        <ele>1512</ele>
        <time>2019-06-30T09:32:40.000Z</time>
      </trkpt>
      <trkpt lat="42.9816" lon="0.53763">
        <ele>1512</ele>
        <time>2019-06-30T09:32:42.000Z</time>
      </trkpt>
      <trkpt lat="42.9816" lon="0.53763">
        <ele>1512</ele>
        <time>2019-06-30T09:32:44.000Z</time>
      </trkpt>
      <trkpt lat="42.98161" lon="0.53762">
        <ele>1512</ele>
        <time>2019-06-30T09:32:46.000Z</time>
      </trkpt>
      <trkpt lat="42.98161" lon="0.53761">
        <ele>1513</ele>
        <time>2019-06-30T09:32:48.000Z</time>
      </trkpt>
      <trkpt lat="42.98161" lon="0.53761">
        <ele>1512</ele>
        <time>2019-06-30T09:32:50.000Z</time>
      </trkpt>
      <trkpt lat="42.98161" lon="0.53761">
        <ele>1512</ele>
        <time>2019-06-30T09:32:52.000Z</time>
      </trkpt>
      <trkpt lat="42.98161" lon="0.53761">
        <ele>1513</ele>
        <time>2019-06-30T09:32:54.000Z</time>
      </trkpt>
      <trkpt lat="42.98161" lon="0.53761">
        <ele>1513</ele>
        <time>2019-06-30T09:32:56.000Z</time>
      </trkpt>
      <trkpt lat="42.98162" lon="0.53761">
        <ele>1513</ele>
        <time>2019-06-30T09:32:58.000Z</time>
      </trkpt>
      <trkpt lat="42.98161" lon="0.53762">
        <ele>1513</ele>
        <time>2019-06-30T09:33:00.000Z</time>
      </trkpt>
      <trkpt lat="42.98162" lon="0.53762">
        <ele>1513</ele>
        <time>2019-06-30T09:33:02.000Z</time>
      </trkpt>
      <trkpt lat="42.98162" lon="0.53762">
        <ele>1513</ele>
        <time>2019-06-30T09:33:04.000Z</time>
      </trkpt>
      <trkpt lat="42.98162" lon="0.53762">
        <ele>1513</ele>
        <time>2019-06-30T09:33:06.000Z</time>
      </trkpt>
      <trkpt lat="42.98162" lon="0.53762">
        <ele>1513</ele>
        <time>2019-06-30T09:33:08.000Z</time>
      </trkpt>
      <trkpt lat="42.98162" lon="0.53762">
        <ele>1513</ele>
        <time>2019-06-30T09:33:10.000Z</time>
      </trkpt>
      <trkpt lat="42.98162" lon="0.53762">
        <ele>1513</ele>
        <time>2019-06-30T09:33:12.000Z</time>
      </trkpt>
      <trkpt lat="42.98162" lon="0.53762">
        <ele>1513</ele>
        <time>2019-06-30T09:33:14.000Z</time>
      </trkpt>
      <trkpt lat="42.98162" lon="0.53762">
        <ele>1513</ele>
        <time>2019-06-30T09:33:16.000Z</time>
      </trkpt>
      <trkpt lat="42.98162" lon="0.53762">
        <ele>1513</ele>
        <time>2019-06-30T09:33:18.000Z</time>
      </trkpt>
      <trkpt lat="42.98162" lon="0.53762">
        <ele>1513</ele>
        <time>2019-06-30T09:33:20.000Z</time>
      </trkpt>
      <trkpt lat="42.98162" lon="0.53762">
        <ele>1513</ele>
        <time>2019-06-30T09:33:22.000Z</time>
      </trkpt>
      <trkpt lat="42.98163" lon="0.53762">
        <ele>1513</ele>
        <time>2019-06-30T09:33:24.000Z</time>
      </trkpt>
      <trkpt lat="42.98163" lon="0.53762">
        <ele>1513</ele>
        <time>2019-06-30T09:33:26.000Z</time>
      </trkpt>
      <trkpt lat="42.98163" lon="0.53762">
        <ele>1513</ele>
        <time>2019-06-30T09:33:28.000Z</time>
      </trkpt>
      <trkpt lat="42.98163" lon="0.53762">
        <ele>1513</ele>
        <time>2019-06-30T09:33:30.000Z</time>
      </trkpt>
      <trkpt lat="42.98163" lon="0.53762">
        <ele>1513</ele>
        <time>2019-06-30T09:33:32.000Z</time>
      </trkpt>
      <trkpt lat="42.98162" lon="0.53762">
        <ele>1513</ele>
        <time>2019-06-30T09:33:34.000Z</time>
      </trkpt>
      <trkpt lat="42.98162" lon="0.53762">
        <ele>1513</ele>
        <time>2019-06-30T09:33:36.000Z</time>
      </trkpt>
      <trkpt lat="42.98162" lon="0.53762">
        <ele>1513</ele>
        <time>2019-06-30T09:33:38.000Z</time>
      </trkpt>
      <trkpt lat="42.98162" lon="0.53762">
        <ele>1513</ele>
        <time>2019-06-30T09:33:40.000Z</time>
      </trkpt>
      <trkpt lat="42.98162" lon="0.53762">
        <ele>1513</ele>
        <time>2019-06-30T09:33:42.000Z</time>
      </trkpt>
      <trkpt lat="42.98162" lon="0.53762">
        <ele>1513</ele>
        <time>2019-06-30T09:33:44.000Z</time>
      </trkpt>
      <trkpt lat="42.98162" lon="0.53762">
        <ele>1513</ele>
        <time>2019-06-30T09:33:46.000Z</time>
      </trkpt>
      <trkpt lat="42.98162" lon="0.53762">
        <ele>1513</ele>
        <time>2019-06-30T09:33:48.000Z</time>
      </trkpt>
      <trkpt lat="42.98162" lon="0.53762">
        <ele>1513</ele>
        <time>2019-06-30T09:33:50.000Z</time>
      </trkpt>
      <trkpt lat="42.98162" lon="0.53761">
        <ele>1513</ele>
        <time>2019-06-30T09:33:52.000Z</time>
      </trkpt>
      <trkpt lat="42.98162" lon="0.53762">
        <ele>1513</ele>
        <time>2019-06-30T09:33:54.000Z</time>
      </trkpt>
      <trkpt lat="42.98162" lon="0.53762">
        <ele>1513</ele>
        <time>2019-06-30T09:33:56.000Z</time>
      </trkpt>
      <trkpt lat="42.98162" lon="0.53762">
        <ele>1513</ele>
        <time>2019-06-30T09:33:58.000Z</time>
      </trkpt>
      <trkpt lat="42.98162" lon="0.53763">
        <ele>1513</ele>
        <time>2019-06-30T09:34:00.000Z</time>
      </trkpt>
      <trkpt lat="42.98162" lon="0.53763">
        <ele>1513</ele>
        <time>2019-06-30T09:34:02.000Z</time>
      </trkpt>
      <trkpt lat="42.98162" lon="0.53762">
        <ele>1513</ele>
        <time>2019-06-30T09:34:04.000Z</time>
      </trkpt>
      <trkpt lat="42.98162" lon="0.53762">
        <ele>1513</ele>
        <time>2019-06-30T09:34:06.000Z</time>
      </trkpt>
      <trkpt lat="42.98162" lon="0.53763">
        <ele>1513</ele>
        <time>2019-06-30T09:34:08.000Z</time>
      </trkpt>
      <trkpt lat="42.98162" lon="0.53763">
        <ele>1513</ele>
        <time>2019-06-30T09:34:10.000Z</time>
      </trkpt>
      <trkpt lat="42.98161" lon="0.53763">
        <ele>1513</ele>
        <time>2019-06-30T09:34:12.000Z</time>
      </trkpt>
      <trkpt lat="42.98161" lon="0.53763">
        <ele>1513</ele>
        <time>2019-06-30T09:34:14.000Z</time>
      </trkpt>
      <trkpt lat="42.98161" lon="0.53763">
        <ele>1513</ele>
        <time>2019-06-30T09:34:16.000Z</time>
      </trkpt>
      <trkpt lat="42.98162" lon="0.53762">
        <ele>1513</ele>
        <time>2019-06-30T09:34:18.000Z</time>
      </trkpt>
      <trkpt lat="42.98162" lon="0.53762">
        <ele>1513</ele>
        <time>2019-06-30T09:34:20.000Z</time>
      </trkpt>
      <trkpt lat="42.98161" lon="0.53762">
        <ele>1513</ele>
        <time>2019-06-30T09:34:22.000Z</time>
      </trkpt>
      <trkpt lat="42.98162" lon="0.53762">
        <ele>1513</ele>
        <time>2019-06-30T09:34:24.000Z</time>
      </trkpt>
      <trkpt lat="42.98162" lon="0.53762">
        <ele>1513</ele>
        <time>2019-06-30T09:34:26.000Z</time>
      </trkpt>
      <trkpt lat="42.98162" lon="0.53762">
        <ele>1513</ele>
        <time>2019-06-30T09:34:28.000Z</time>
      </trkpt>
      <trkpt lat="42.98162" lon="0.53763">
        <ele>1513</ele>
        <time>2019-06-30T09:34:30.000Z</time>
      </trkpt>
      <trkpt lat="42.98162" lon="0.53763">
        <ele>1513</ele>
        <time>2019-06-30T09:34:32.000Z</time>
      </trkpt>
      <trkpt lat="42.98161" lon="0.53763">
        <ele>1513</ele>
        <time>2019-06-30T09:34:34.000Z</time>
      </trkpt>
      <trkpt lat="42.98161" lon="0.53763">
        <ele>1512</ele>
        <time>2019-06-30T09:34:36.000Z</time>
      </trkpt>
      <trkpt lat="42.98161" lon="0.53763">
        <ele>1512</ele>
        <time>2019-06-30T09:34:38.000Z</time>
      </trkpt>
      <trkpt lat="42.98161" lon="0.53763">
        <ele>1512</ele>
        <time>2019-06-30T09:34:40.000Z</time>
      </trkpt>
      <trkpt lat="42.98161" lon="0.53763">
        <ele>1512</ele>
        <time>2019-06-30T09:34:42.000Z</time>
      </trkpt>
      <trkpt lat="42.98161" lon="0.53763">
        <ele>1512</ele>
        <time>2019-06-30T09:34:44.000Z</time>
      </trkpt>
      <trkpt lat="42.98161" lon="0.53763">
        <ele>1512</ele>
        <time>2019-06-30T09:34:46.000Z</time>
      </trkpt>
      <trkpt lat="42.98161" lon="0.53763">
        <ele>1512</ele>
        <time>2019-06-30T09:34:48.000Z</time>
      </trkpt>
      <trkpt lat="42.98161" lon="0.53763">
        <ele>1512</ele>
        <time>2019-06-30T09:34:50.000Z</time>
      </trkpt>
      <trkpt lat="42.98161" lon="0.53763">
        <ele>1512</ele>
        <time>2019-06-30T09:34:52.000Z</time>
      </trkpt>
      <trkpt lat="42.98161" lon="0.53763">
        <ele>1512</ele>
        <time>2019-06-30T09:34:54.000Z</time>
      </trkpt>
      <trkpt lat="42.98161" lon="0.53763">
        <ele>1512</ele>
        <time>2019-06-30T09:34:56.000Z</time>
      </trkpt>
      <trkpt lat="42.98161" lon="0.53763">
        <ele>1512</ele>
        <time>2019-06-30T09:34:58.000Z</time>
      </trkpt>
      <trkpt lat="42.98161" lon="0.53763">
        <ele>1512</ele>
        <time>2019-06-30T09:35:00.000Z</time>
      </trkpt>
      <trkpt lat="42.98161" lon="0.53763">
        <ele>1512</ele>
        <time>2019-06-30T09:35:02.000Z</time>
      </trkpt>
      <trkpt lat="42.9816" lon="0.53763">
        <ele>1512</ele>
        <time>2019-06-30T09:35:04.000Z</time>
      </trkpt>
      <trkpt lat="42.9816" lon="0.53763">
        <ele>1512</ele>
        <time>2019-06-30T09:35:06.000Z</time>
      </trkpt>
      <trkpt lat="42.9816" lon="0.53762">
        <ele>1512</ele>
        <time>2019-06-30T09:35:08.000Z</time>
      </trkpt>
      <trkpt lat="42.9816" lon="0.53762">
        <ele>1512</ele>
        <time>2019-06-30T09:35:10.000Z</time>
      </trkpt>
      <trkpt lat="42.9816" lon="0.53762">
        <ele>1512</ele>
        <time>2019-06-30T09:35:12.000Z</time>
      </trkpt>
      <trkpt lat="42.9816" lon="0.53762">
        <ele>1512</ele>
        <time>2019-06-30T09:35:14.000Z</time>
      </trkpt>
      <trkpt lat="42.9816" lon="0.53762">
        <ele>1512</ele>
        <time>2019-06-30T09:35:16.000Z</time>
      </trkpt>
      <trkpt lat="42.9816" lon="0.53763">
        <ele>1512</ele>
        <time>2019-06-30T09:35:18.000Z</time>
      </trkpt>
      <trkpt lat="42.9816" lon="0.53763">
        <ele>1512</ele>
        <time>2019-06-30T09:35:20.000Z</time>
      </trkpt>
      <trkpt lat="42.9816" lon="0.53763">
        <ele>1512</ele>
        <time>2019-06-30T09:35:22.000Z</time>
      </trkpt>
      <trkpt lat="42.9816" lon="0.53763">
        <ele>1512</ele>
        <time>2019-06-30T09:35:24.000Z</time>
      </trkpt>
      <trkpt lat="42.9816" lon="0.53764">
        <ele>1512</ele>
        <time>2019-06-30T09:35:26.000Z</time>
      </trkpt>
      <trkpt lat="42.9816" lon="0.53764">
        <ele>1512</ele>
        <time>2019-06-30T09:35:28.000Z</time>
      </trkpt>
      <trkpt lat="42.9816" lon="0.53763">
        <ele>1512</ele>
        <time>2019-06-30T09:35:30.000Z</time>
      </trkpt>
      <trkpt lat="42.98161" lon="0.53762">
        <ele>1512</ele>
        <time>2019-06-30T09:35:32.000Z</time>
      </trkpt>
      <trkpt lat="42.98161" lon="0.53761">
        <ele>1512</ele>
        <time>2019-06-30T09:35:34.000Z</time>
      </trkpt>
      <trkpt lat="42.98161" lon="0.53761">
        <ele>1513</ele>
        <time>2019-06-30T09:35:36.000Z</time>
      </trkpt>
      <trkpt lat="42.98162" lon="0.5376">
        <ele>1513</ele>
        <time>2019-06-30T09:35:38.000Z</time>
      </trkpt>
      <trkpt lat="42.98162" lon="0.53759">
        <ele>1513</ele>
        <time>2019-06-30T09:35:40.000Z</time>
      </trkpt>
      <trkpt lat="42.98163" lon="0.53758">
        <ele>1513</ele>
        <time>2019-06-30T09:35:42.000Z</time>
      </trkpt>
      <trkpt lat="42.98163" lon="0.53757">
        <ele>1513</ele>
        <time>2019-06-30T09:35:44.000Z</time>
      </trkpt>
      <trkpt lat="42.98163" lon="0.53756">
        <ele>1513</ele>
        <time>2019-06-30T09:35:46.000Z</time>
      </trkpt>
      <trkpt lat="42.98163" lon="0.53756">
        <ele>1513</ele>
        <time>2019-06-30T09:35:48.000Z</time>
      </trkpt>
      <trkpt lat="42.98162" lon="0.53756">
        <ele>1513</ele>
        <time>2019-06-30T09:35:50.000Z</time>
      </trkpt>
      <trkpt lat="42.98162" lon="0.53756">
        <ele>1513</ele>
        <time>2019-06-30T09:35:52.000Z</time>
      </trkpt>
      <trkpt lat="42.98162" lon="0.53756">
        <ele>1513</ele>
        <time>2019-06-30T09:35:54.000Z</time>
      </trkpt>
      <trkpt lat="42.98162" lon="0.53756">
        <ele>1513</ele>
        <time>2019-06-30T09:35:56.000Z</time>
      </trkpt>
      <trkpt lat="42.98161" lon="0.53756">
        <ele>1512</ele>
        <time>2019-06-30T09:35:58.000Z</time>
      </trkpt>
      <trkpt lat="42.98161" lon="0.53756">
        <ele>1512</ele>
        <time>2019-06-30T09:36:00.000Z</time>
      </trkpt>
      <trkpt lat="42.98161" lon="0.53756">
        <ele>1512</ele>
        <time>2019-06-30T09:36:02.000Z</time>
      </trkpt>
      <trkpt lat="42.98159" lon="0.53757">
        <ele>1512</ele>
        <time>2019-06-30T09:36:04.000Z</time>
      </trkpt>
      <trkpt lat="42.98158" lon="0.53758">
        <ele>1511</ele>
        <time>2019-06-30T09:36:06.000Z</time>
      </trkpt>
      <trkpt lat="42.98157" lon="0.53759">
        <ele>1511</ele>
        <time>2019-06-30T09:36:08.000Z</time>
      </trkpt>
      <trkpt lat="42.98157" lon="0.53759">
        <ele>1510</ele>
        <time>2019-06-30T09:36:10.000Z</time>
      </trkpt>
      <trkpt lat="42.98157" lon="0.5376">
        <ele>1511</ele>
        <time>2019-06-30T09:36:12.000Z</time>
      </trkpt>
      <trkpt lat="42.98157" lon="0.5376">
        <ele>1510</ele>
        <time>2019-06-30T09:36:14.000Z</time>
      </trkpt>
      <trkpt lat="42.98157" lon="0.5376">
        <ele>1510</ele>
        <time>2019-06-30T09:36:16.000Z</time>
      </trkpt>
      <trkpt lat="42.98157" lon="0.53761">
        <ele>1510</ele>
        <time>2019-06-30T09:36:18.000Z</time>
      </trkpt>
      <trkpt lat="42.98156" lon="0.53761">
        <ele>1510</ele>
        <time>2019-06-30T09:36:20.000Z</time>
      </trkpt>
      <trkpt lat="42.98157" lon="0.5376">
        <ele>1510</ele>
        <time>2019-06-30T09:36:22.000Z</time>
      </trkpt>
      <trkpt lat="42.98156" lon="0.5376">
        <ele>1510</ele>
        <time>2019-06-30T09:36:24.000Z</time>
      </trkpt>
      <trkpt lat="42.98157" lon="0.53761">
        <ele>1510</ele>
        <time>2019-06-30T09:36:26.000Z</time>
      </trkpt>
      <trkpt lat="42.98157" lon="0.53761">
        <ele>1510</ele>
        <time>2019-06-30T09:36:28.000Z</time>
      </trkpt>
      <trkpt lat="42.98157" lon="0.53762">
        <ele>1511</ele>
        <time>2019-06-30T09:36:30.000Z</time>
      </trkpt>
      <trkpt lat="42.98157" lon="0.53762">
        <ele>1511</ele>
        <time>2019-06-30T09:36:32.000Z</time>
      </trkpt>
      <trkpt lat="42.98158" lon="0.53762">
        <ele>1511</ele>
        <time>2019-06-30T09:36:34.000Z</time>
      </trkpt>
      <trkpt lat="42.98157" lon="0.53762">
        <ele>1511</ele>
        <time>2019-06-30T09:36:36.000Z</time>
      </trkpt>
      <trkpt lat="42.98157" lon="0.53762">
        <ele>1511</ele>
        <time>2019-06-30T09:36:38.000Z</time>
      </trkpt>
      <trkpt lat="42.98157" lon="0.53763">
        <ele>1511</ele>
        <time>2019-06-30T09:36:40.000Z</time>
      </trkpt>
      <trkpt lat="42.98157" lon="0.53763">
        <ele>1511</ele>
        <time>2019-06-30T09:36:42.000Z</time>
      </trkpt>
      <trkpt lat="42.98157" lon="0.53763">
        <ele>1511</ele>
        <time>2019-06-30T09:36:44.000Z</time>
      </trkpt>
      <trkpt lat="42.98158" lon="0.53763">
        <ele>1511</ele>
        <time>2019-06-30T09:36:46.000Z</time>
      </trkpt>
      <trkpt lat="42.98158" lon="0.53763">
        <ele>1511</ele>
        <time>2019-06-30T09:36:48.000Z</time>
      </trkpt>
      <trkpt lat="42.98158" lon="0.53763">
        <ele>1511</ele>
        <time>2019-06-30T09:36:50.000Z</time>
      </trkpt>
      <trkpt lat="42.98159" lon="0.53763">
        <ele>1511</ele>
        <time>2019-06-30T09:36:52.000Z</time>
      </trkpt>
      <trkpt lat="42.98159" lon="0.53763">
        <ele>1511</ele>
        <time>2019-06-30T09:36:54.000Z</time>
      </trkpt>
      <trkpt lat="42.9816" lon="0.53763">
        <ele>1512</ele>
        <time>2019-06-30T09:36:56.000Z</time>
      </trkpt>
      <trkpt lat="42.9816" lon="0.53763">
        <ele>1512</ele>
        <time>2019-06-30T09:36:58.000Z</time>
      </trkpt>
      <trkpt lat="42.9816" lon="0.53763">
        <ele>1512</ele>
        <time>2019-06-30T09:37:00.000Z</time>
      </trkpt>
      <trkpt lat="42.9816" lon="0.53763">
        <ele>1512</ele>
        <time>2019-06-30T09:37:02.000Z</time>
      </trkpt>
      <trkpt lat="42.98159" lon="0.53763">
        <ele>1512</ele>
        <time>2019-06-30T09:37:04.000Z</time>
      </trkpt>
      <trkpt lat="42.98159" lon="0.53764">
        <ele>1512</ele>
        <time>2019-06-30T09:37:06.000Z</time>
      </trkpt>
      <trkpt lat="42.98159" lon="0.53764">
        <ele>1512</ele>
        <time>2019-06-30T09:37:08.000Z</time>
      </trkpt>
      <trkpt lat="42.98158" lon="0.53764">
        <ele>1511</ele>
        <time>2019-06-30T09:37:10.000Z</time>
      </trkpt>
      <trkpt lat="42.98158" lon="0.53763">
        <ele>1511</ele>
        <time>2019-06-30T09:37:12.000Z</time>
      </trkpt>
      <trkpt lat="42.98158" lon="0.53763">
        <ele>1511</ele>
        <time>2019-06-30T09:37:14.000Z</time>
      </trkpt>
      <trkpt lat="42.98158" lon="0.53763">
        <ele>1511</ele>
        <time>2019-06-30T09:37:16.000Z</time>
      </trkpt>
      <trkpt lat="42.98157" lon="0.53762">
        <ele>1511</ele>
        <time>2019-06-30T09:37:18.000Z</time>
      </trkpt>
      <trkpt lat="42.98157" lon="0.53762">
        <ele>1510</ele>
        <time>2019-06-30T09:37:20.000Z</time>
      </trkpt>
      <trkpt lat="42.98157" lon="0.53762">
        <ele>1510</ele>
        <time>2019-06-30T09:37:22.000Z</time>
      </trkpt>
      <trkpt lat="42.98157" lon="0.53762">
        <ele>1511</ele>
        <time>2019-06-30T09:37:24.000Z</time>
      </trkpt>
      <trkpt lat="42.98157" lon="0.53762">
        <ele>1511</ele>
        <time>2019-06-30T09:37:26.000Z</time>
      </trkpt>
      <trkpt lat="42.98157" lon="0.53762">
        <ele>1511</ele>
        <time>2019-06-30T09:37:28.000Z</time>
      </trkpt>
      <trkpt lat="42.98157" lon="0.53762">
        <ele>1511</ele>
        <time>2019-06-30T09:37:30.000Z</time>
      </trkpt>
      <trkpt lat="42.98157" lon="0.53762">
        <ele>1511</ele>
        <time>2019-06-30T09:37:32.000Z</time>
      </trkpt>
      <trkpt lat="42.98157" lon="0.53762">
        <ele>1511</ele>
        <time>2019-06-30T09:37:34.000Z</time>
      </trkpt>
      <trkpt lat="42.98158" lon="0.53762">
        <ele>1511</ele>
        <time>2019-06-30T09:37:36.000Z</time>
      </trkpt>
      <trkpt lat="42.98158" lon="0.53762">
        <ele>1511</ele>
        <time>2019-06-30T09:37:38.000Z</time>
      </trkpt>
      <trkpt lat="42.98158" lon="0.53762">
        <ele>1511</ele>
        <time>2019-06-30T09:37:40.000Z</time>
      </trkpt>
      <trkpt lat="42.98158" lon="0.53762">
        <ele>1511</ele>
        <time>2019-06-30T09:37:42.000Z</time>
      </trkpt>
      <trkpt lat="42.98158" lon="0.53762">
        <ele>1511</ele>
        <time>2019-06-30T09:37:44.000Z</time>
      </trkpt>
      <trkpt lat="42.98158" lon="0.53762">
        <ele>1511</ele>
        <time>2019-06-30T09:37:46.000Z</time>
      </trkpt>
      <trkpt lat="42.98157" lon="0.53762">
        <ele>1511</ele>
        <time>2019-06-30T09:37:48.000Z</time>
      </trkpt>
      <trkpt lat="42.98157" lon="0.53762">
        <ele>1511</ele>
        <time>2019-06-30T09:37:50.000Z</time>
      </trkpt>
      <trkpt lat="42.98157" lon="0.53762">
        <ele>1511</ele>
        <time>2019-06-30T09:37:52.000Z</time>
      </trkpt>
      <trkpt lat="42.98158" lon="0.53761">
        <ele>1511</ele>
        <time>2019-06-30T09:37:54.000Z</time>
      </trkpt>
      <trkpt lat="42.98158" lon="0.53762">
        <ele>1511</ele>
        <time>2019-06-30T09:37:56.000Z</time>
      </trkpt>
      <trkpt lat="42.98158" lon="0.53762">
        <ele>1511</ele>
        <time>2019-06-30T09:37:58.000Z</time>
      </trkpt>
      <trkpt lat="42.98158" lon="0.53761">
        <ele>1511</ele>
        <time>2019-06-30T09:38:00.000Z</time>
      </trkpt>
      <trkpt lat="42.98159" lon="0.53762">
        <ele>1511</ele>
        <time>2019-06-30T09:38:02.000Z</time>
      </trkpt>
      <trkpt lat="42.98159" lon="0.53762">
        <ele>1511</ele>
        <time>2019-06-30T09:38:04.000Z</time>
      </trkpt>
      <trkpt lat="42.98159" lon="0.53762">
        <ele>1512</ele>
        <time>2019-06-30T09:38:06.000Z</time>
      </trkpt>
      <trkpt lat="42.98159" lon="0.53762">
        <ele>1512</ele>
        <time>2019-06-30T09:38:08.000Z</time>
      </trkpt>
      <trkpt lat="42.9816" lon="0.53763">
        <ele>1512</ele>
        <time>2019-06-30T09:38:10.000Z</time>
      </trkpt>
      <trkpt lat="42.9816" lon="0.53763">
        <ele>1512</ele>
        <time>2019-06-30T09:38:12.000Z</time>
      </trkpt>
      <trkpt lat="42.98159" lon="0.53763">
        <ele>1512</ele>
        <time>2019-06-30T09:38:14.000Z</time>
      </trkpt>
      <trkpt lat="42.98159" lon="0.53763">
        <ele>1512</ele>
        <time>2019-06-30T09:38:16.000Z</time>
      </trkpt>
      <trkpt lat="42.98159" lon="0.53763">
        <ele>1511</ele>
        <time>2019-06-30T09:38:18.000Z</time>
      </trkpt>
      <trkpt lat="42.98158" lon="0.53763">
        <ele>1511</ele>
        <time>2019-06-30T09:38:20.000Z</time>
      </trkpt>
      <trkpt lat="42.98158" lon="0.53763">
        <ele>1511</ele>
        <time>2019-06-30T09:38:22.000Z</time>
      </trkpt>
      <trkpt lat="42.98158" lon="0.53763">
        <ele>1511</ele>
        <time>2019-06-30T09:38:24.000Z</time>
      </trkpt>
      <trkpt lat="42.98158" lon="0.53763">
        <ele>1511</ele>
        <time>2019-06-30T09:38:26.000Z</time>
      </trkpt>
      <trkpt lat="42.98158" lon="0.53762">
        <ele>1511</ele>
        <time>2019-06-30T09:38:28.000Z</time>
      </trkpt>
      <trkpt lat="42.98157" lon="0.53762">
        <ele>1511</ele>
        <time>2019-06-30T09:38:30.000Z</time>
      </trkpt>
      <trkpt lat="42.98158" lon="0.53762">
        <ele>1511</ele>
        <time>2019-06-30T09:38:32.000Z</time>
      </trkpt>
      <trkpt lat="42.98158" lon="0.53762">
        <ele>1511</ele>
        <time>2019-06-30T09:38:34.000Z</time>
      </trkpt>
      <trkpt lat="42.98158" lon="0.53762">
        <ele>1511</ele>
        <time>2019-06-30T09:38:36.000Z</time>
      </trkpt>
      <trkpt lat="42.98159" lon="0.53762">
        <ele>1511</ele>
        <time>2019-06-30T09:38:38.000Z</time>
      </trkpt>
      <trkpt lat="42.98159" lon="0.53762">
        <ele>1511</ele>
        <time>2019-06-30T09:38:40.000Z</time>
      </trkpt>
      <trkpt lat="42.98159" lon="0.53762">
        <ele>1511</ele>
        <time>2019-06-30T09:38:42.000Z</time>
      </trkpt>
      <trkpt lat="42.98158" lon="0.53762">
        <ele>1511</ele>
        <time>2019-06-30T09:38:44.000Z</time>
      </trkpt>
      <trkpt lat="42.98158" lon="0.53762">
        <ele>1511</ele>
        <time>2019-06-30T09:38:46.000Z</time>
      </trkpt>
      <trkpt lat="42.98158" lon="0.53762">
        <ele>1511</ele>
        <time>2019-06-30T09:38:48.000Z</time>
      </trkpt>
      <trkpt lat="42.98157" lon="0.53762">
        <ele>1511</ele>
        <time>2019-06-30T09:38:50.000Z</time>
      </trkpt>
      <trkpt lat="42.98157" lon="0.53762">
        <ele>1510</ele>
        <time>2019-06-30T09:38:52.000Z</time>
      </trkpt>
      <trkpt lat="42.98156" lon="0.53761">
        <ele>1510</ele>
        <time>2019-06-30T09:38:54.000Z</time>
      </trkpt>
      <trkpt lat="42.98156" lon="0.53761">
        <ele>1510</ele>
        <time>2019-06-30T09:38:56.000Z</time>
      </trkpt>
      <trkpt lat="42.98155" lon="0.5376">
        <ele>1510</ele>
        <time>2019-06-30T09:38:58.000Z</time>
      </trkpt>
      <trkpt lat="42.98155" lon="0.53759">
        <ele>1510</ele>
        <time>2019-06-30T09:39:00.000Z</time>
      </trkpt>
      <trkpt lat="42.98155" lon="0.53759">
        <ele>1510</ele>
        <time>2019-06-30T09:39:02.000Z</time>
      </trkpt>
      <trkpt lat="42.98156" lon="0.5376">
        <ele>1510</ele>
        <time>2019-06-30T09:39:04.000Z</time>
      </trkpt>
      <trkpt lat="42.98156" lon="0.5376">
        <ele>1510</ele>
        <time>2019-06-30T09:39:06.000Z</time>
      </trkpt>
      <trkpt lat="42.98155" lon="0.5376">
        <ele>1510</ele>
        <time>2019-06-30T09:39:08.000Z</time>
      </trkpt>
      <trkpt lat="42.98156" lon="0.5376">
        <ele>1510</ele>
        <time>2019-06-30T09:39:10.000Z</time>
      </trkpt>
      <trkpt lat="42.98157" lon="0.53761">
        <ele>1511</ele>
        <time>2019-06-30T09:39:12.000Z</time>
      </trkpt>
      <trkpt lat="42.98158" lon="0.53761">
        <ele>1511</ele>
        <time>2019-06-30T09:39:14.000Z</time>
      </trkpt>
      <trkpt lat="42.98158" lon="0.53762">
        <ele>1511</ele>
        <time>2019-06-30T09:39:16.000Z</time>
      </trkpt>
      <trkpt lat="42.98159" lon="0.53762">
        <ele>1511</ele>
        <time>2019-06-30T09:39:18.000Z</time>
      </trkpt>
      <trkpt lat="42.98158" lon="0.53762">
        <ele>1511</ele>
        <time>2019-06-30T09:39:20.000Z</time>
      </trkpt>
      <trkpt lat="42.98158" lon="0.53761">
        <ele>1511</ele>
        <time>2019-06-30T09:39:22.000Z</time>
      </trkpt>
      <trkpt lat="42.98159" lon="0.53761">
        <ele>1511</ele>
        <time>2019-06-30T09:39:24.000Z</time>
      </trkpt>
      <trkpt lat="42.98159" lon="0.53761">
        <ele>1512</ele>
        <time>2019-06-30T09:39:26.000Z</time>
      </trkpt>
      <trkpt lat="42.98159" lon="0.53762">
        <ele>1512</ele>
        <time>2019-06-30T09:39:28.000Z</time>
      </trkpt>
      <trkpt lat="42.9816" lon="0.53761">
        <ele>1512</ele>
        <time>2019-06-30T09:39:30.000Z</time>
      </trkpt>
      <trkpt lat="42.9816" lon="0.53761">
        <ele>1512</ele>
        <time>2019-06-30T09:39:32.000Z</time>
      </trkpt>
      <trkpt lat="42.9816" lon="0.53761">
        <ele>1512</ele>
        <time>2019-06-30T09:39:34.000Z</time>
      </trkpt>
      <trkpt lat="42.9816" lon="0.53761">
        <ele>1512</ele>
        <time>2019-06-30T09:39:36.000Z</time>
      </trkpt>
      <trkpt lat="42.9816" lon="0.53761">
        <ele>1512</ele>
        <time>2019-06-30T09:39:38.000Z</time>
      </trkpt>
      <trkpt lat="42.98159" lon="0.5376">
        <ele>1511</ele>
        <time>2019-06-30T09:39:40.000Z</time>
      </trkpt>
      <trkpt lat="42.98159" lon="0.5376">
        <ele>1511</ele>
        <time>2019-06-30T09:39:42.000Z</time>
      </trkpt>
      <trkpt lat="42.98159" lon="0.5376">
        <ele>1511</ele>
        <time>2019-06-30T09:39:44.000Z</time>
      </trkpt>
      <trkpt lat="42.98159" lon="0.5376">
        <ele>1512</ele>
        <time>2019-06-30T09:39:46.000Z</time>
      </trkpt>
      <trkpt lat="42.98159" lon="0.5376">
        <ele>1512</ele>
        <time>2019-06-30T09:39:48.000Z</time>
      </trkpt>
      <trkpt lat="42.9816" lon="0.53759">
        <ele>1512</ele>
        <time>2019-06-30T09:39:50.000Z</time>
      </trkpt>
      <trkpt lat="42.9816" lon="0.53759">
        <ele>1512</ele>
        <time>2019-06-30T09:39:52.000Z</time>
      </trkpt>
      <trkpt lat="42.9816" lon="0.53759">
        <ele>1512</ele>
        <time>2019-06-30T09:39:54.000Z</time>
      </trkpt>
      <trkpt lat="42.9816" lon="0.53759">
        <ele>1512</ele>
        <time>2019-06-30T09:39:56.000Z</time>
      </trkpt>
      <trkpt lat="42.9816" lon="0.53759">
        <ele>1512</ele>
        <time>2019-06-30T09:39:58.000Z</time>
      </trkpt>
      <trkpt lat="42.98161" lon="0.53759">
        <ele>1512</ele>
        <time>2019-06-30T09:40:00.000Z</time>
      </trkpt>
      <trkpt lat="42.98161" lon="0.53759">
        <ele>1512</ele>
        <time>2019-06-30T09:40:02.000Z</time>
      </trkpt>
      <trkpt lat="42.98161" lon="0.53759">
        <ele>1512</ele>
        <time>2019-06-30T09:40:04.000Z</time>
      </trkpt>
      <trkpt lat="42.98161" lon="0.53759">
        <ele>1512</ele>
        <time>2019-06-30T09:40:06.000Z</time>
      </trkpt>
      <trkpt lat="42.98161" lon="0.53759">
        <ele>1512</ele>
        <time>2019-06-30T09:40:08.000Z</time>
      </trkpt>
      <trkpt lat="42.98161" lon="0.53759">
        <ele>1512</ele>
        <time>2019-06-30T09:40:10.000Z</time>
      </trkpt>
      <trkpt lat="42.98161" lon="0.53759">
        <ele>1512</ele>
        <time>2019-06-30T09:40:12.000Z</time>
      </trkpt>
      <trkpt lat="42.98162" lon="0.53759">
        <ele>1513</ele>
        <time>2019-06-30T09:40:14.000Z</time>
      </trkpt>
      <trkpt lat="42.98161" lon="0.53759">
        <ele>1513</ele>
        <time>2019-06-30T09:40:16.000Z</time>
      </trkpt>
      <trkpt lat="42.98162" lon="0.53759">
        <ele>1513</ele>
        <time>2019-06-30T09:40:18.000Z</time>
      </trkpt>
      <trkpt lat="42.98162" lon="0.53759">
        <ele>1513</ele>
        <time>2019-06-30T09:40:20.000Z</time>
      </trkpt>
      <trkpt lat="42.98162" lon="0.53759">
        <ele>1513</ele>
        <time>2019-06-30T09:40:22.000Z</time>
      </trkpt>
      <trkpt lat="42.98162" lon="0.53759">
        <ele>1513</ele>
        <time>2019-06-30T09:40:24.000Z</time>
      </trkpt>
      <trkpt lat="42.98161" lon="0.53758">
        <ele>1513</ele>
        <time>2019-06-30T09:40:26.000Z</time>
      </trkpt>
      <trkpt lat="42.98161" lon="0.53758">
        <ele>1513</ele>
        <time>2019-06-30T09:40:28.000Z</time>
      </trkpt>
      <trkpt lat="42.98161" lon="0.53758">
        <ele>1513</ele>
        <time>2019-06-30T09:40:30.000Z</time>
      </trkpt>
      <trkpt lat="42.98161" lon="0.53759">
        <ele>1512</ele>
        <time>2019-06-30T09:40:32.000Z</time>
      </trkpt>
      <trkpt lat="42.98161" lon="0.53759">
        <ele>1512</ele>
        <time>2019-06-30T09:40:34.000Z</time>
      </trkpt>
      <trkpt lat="42.9816" lon="0.53759">
        <ele>1512</ele>
        <time>2019-06-30T09:40:36.000Z</time>
      </trkpt>
      <trkpt lat="42.9816" lon="0.53759">
        <ele>1512</ele>
        <time>2019-06-30T09:40:38.000Z</time>
      </trkpt>
      <trkpt lat="42.9816" lon="0.5376">
        <ele>1512</ele>
        <time>2019-06-30T09:40:40.000Z</time>
      </trkpt>
      <trkpt lat="42.9816" lon="0.5376">
        <ele>1512</ele>
        <time>2019-06-30T09:40:42.000Z</time>
      </trkpt>
      <trkpt lat="42.9816" lon="0.53759">
        <ele>1512</ele>
        <time>2019-06-30T09:40:44.000Z</time>
      </trkpt>
      <trkpt lat="42.9816" lon="0.53759">
        <ele>1512</ele>
        <time>2019-06-30T09:40:46.000Z</time>
      </trkpt>
      <trkpt lat="42.98159" lon="0.53759">
        <ele>1512</ele>
        <time>2019-06-30T09:40:48.000Z</time>
      </trkpt>
      <trkpt lat="42.98159" lon="0.53758">
        <ele>1512</ele>
        <time>2019-06-30T09:40:50.000Z</time>
      </trkpt>
      <trkpt lat="42.9816" lon="0.53758">
        <ele>1512</ele>
        <time>2019-06-30T09:40:52.000Z</time>
      </trkpt>
      <trkpt lat="42.98159" lon="0.53759">
        <ele>1512</ele>
        <time>2019-06-30T09:40:54.000Z</time>
      </trkpt>
      <trkpt lat="42.9816" lon="0.53759">
        <ele>1512</ele>
        <time>2019-06-30T09:40:56.000Z</time>
      </trkpt>
      <trkpt lat="42.98159" lon="0.5376">
        <ele>1512</ele>
        <time>2019-06-30T09:40:58.000Z</time>
      </trkpt>
      <trkpt lat="42.98159" lon="0.5376">
        <ele>1512</ele>
        <time>2019-06-30T09:41:00.000Z</time>
      </trkpt>
      <trkpt lat="42.98159" lon="0.53761">
        <ele>1511</ele>
        <time>2019-06-30T09:41:02.000Z</time>
      </trkpt>
      <trkpt lat="42.98158" lon="0.5376">
        <ele>1511</ele>
        <time>2019-06-30T09:41:04.000Z</time>
      </trkpt>
      <trkpt lat="42.98158" lon="0.53761">
        <ele>1511</ele>
        <time>2019-06-30T09:41:06.000Z</time>
      </trkpt>
      <trkpt lat="42.98158" lon="0.53761">
        <ele>1511</ele>
        <time>2019-06-30T09:41:08.000Z</time>
      </trkpt>
      <trkpt lat="42.98159" lon="0.53761">
        <ele>1512</ele>
        <time>2019-06-30T09:41:10.000Z</time>
      </trkpt>
      <trkpt lat="42.9816" lon="0.53761">
        <ele>1512</ele>
        <time>2019-06-30T09:41:12.000Z</time>
      </trkpt>
      <trkpt lat="42.9816" lon="0.53761">
        <ele>1512</ele>
        <time>2019-06-30T09:41:14.000Z</time>
      </trkpt>
      <trkpt lat="42.9816" lon="0.53761">
        <ele>1512</ele>
        <time>2019-06-30T09:41:16.000Z</time>
      </trkpt>
      <trkpt lat="42.9816" lon="0.53761">
        <ele>1512</ele>
        <time>2019-06-30T09:41:18.000Z</time>
      </trkpt>
      <trkpt lat="42.9816" lon="0.5376">
        <ele>1512</ele>
        <time>2019-06-30T09:41:20.000Z</time>
      </trkpt>
      <trkpt lat="42.9816" lon="0.5376">
        <ele>1512</ele>
        <time>2019-06-30T09:41:22.000Z</time>
      </trkpt>
      <trkpt lat="42.9816" lon="0.5376">
        <ele>1512</ele>
        <time>2019-06-30T09:41:24.000Z</time>
      </trkpt>
      <trkpt lat="42.9816" lon="0.5376">
        <ele>1512</ele>
        <time>2019-06-30T09:41:26.000Z</time>
      </trkpt>
      <trkpt lat="42.9816" lon="0.5376">
        <ele>1512</ele>
        <time>2019-06-30T09:41:28.000Z</time>
      </trkpt>
      <trkpt lat="42.9816" lon="0.5376">
        <ele>1512</ele>
        <time>2019-06-30T09:41:30.000Z</time>
      </trkpt>
      <trkpt lat="42.98161" lon="0.5376">
        <ele>1512</ele>
        <time>2019-06-30T09:41:32.000Z</time>
      </trkpt>
      <trkpt lat="42.98161" lon="0.5376">
        <ele>1512</ele>
        <time>2019-06-30T09:41:34.000Z</time>
      </trkpt>
      <trkpt lat="42.98161" lon="0.5376">
        <ele>1512</ele>
        <time>2019-06-30T09:41:36.000Z</time>
      </trkpt>
      <trkpt lat="42.9816" lon="0.5376">
        <ele>1512</ele>
        <time>2019-06-30T09:41:38.000Z</time>
      </trkpt>
      <trkpt lat="42.9816" lon="0.5376">
        <ele>1512</ele>
        <time>2019-06-30T09:41:40.000Z</time>
      </trkpt>
      <trkpt lat="42.9816" lon="0.5376">
        <ele>1512</ele>
        <time>2019-06-30T09:41:42.000Z</time>
      </trkpt>
      <trkpt lat="42.9816" lon="0.53761">
        <ele>1512</ele>
        <time>2019-06-30T09:41:44.000Z</time>
      </trkpt>
      <trkpt lat="42.9816" lon="0.5376">
        <ele>1512</ele>
        <time>2019-06-30T09:41:46.000Z</time>
      </trkpt>
      <trkpt lat="42.9816" lon="0.53761">
        <ele>1512</ele>
        <time>2019-06-30T09:41:48.000Z</time>
      </trkpt>
      <trkpt lat="42.9816" lon="0.53761">
        <ele>1512</ele>
        <time>2019-06-30T09:41:50.000Z</time>
      </trkpt>
      <trkpt lat="42.9816" lon="0.5376">
        <ele>1512</ele>
        <time>2019-06-30T09:41:52.000Z</time>
      </trkpt>
      <trkpt lat="42.9816" lon="0.5376">
        <ele>1512</ele>
        <time>2019-06-30T09:41:54.000Z</time>
      </trkpt>
      <trkpt lat="42.9816" lon="0.5376">
        <ele>1512</ele>
        <time>2019-06-30T09:41:56.000Z</time>
      </trkpt>
      <trkpt lat="42.9816" lon="0.5376">
        <ele>1512</ele>
        <time>2019-06-30T09:41:58.000Z</time>
      </trkpt>
      <trkpt lat="42.9816" lon="0.5376">
        <ele>1512</ele>
        <time>2019-06-30T09:42:00.000Z</time>
      </trkpt>
      <trkpt lat="42.9816" lon="0.5376">
        <ele>1512</ele>
        <time>2019-06-30T09:42:02.000Z</time>
      </trkpt>
      <trkpt lat="42.9816" lon="0.5376">
        <ele>1512</ele>
        <time>2019-06-30T09:42:04.000Z</time>
      </trkpt>
      <trkpt lat="42.9816" lon="0.53759">
        <ele>1512</ele>
        <time>2019-06-30T09:42:06.000Z</time>
      </trkpt>
      <trkpt lat="42.98159" lon="0.53759">
        <ele>1512</ele>
        <time>2019-06-30T09:42:08.000Z</time>
      </trkpt>
      <trkpt lat="42.98159" lon="0.53759">
        <ele>1512</ele>
        <time>2019-06-30T09:42:10.000Z</time>
      </trkpt>
      <trkpt lat="42.98159" lon="0.53759">
        <ele>1512</ele>
        <time>2019-06-30T09:42:12.000Z</time>
      </trkpt>
      <trkpt lat="42.9816" lon="0.5376">
        <ele>1512</ele>
        <time>2019-06-30T09:42:14.000Z</time>
      </trkpt>
      <trkpt lat="42.9816" lon="0.53759">
        <ele>1512</ele>
        <time>2019-06-30T09:42:16.000Z</time>
      </trkpt>
      <trkpt lat="42.98159" lon="0.53759">
        <ele>1512</ele>
        <time>2019-06-30T09:42:18.000Z</time>
      </trkpt>
      <trkpt lat="42.98159" lon="0.53759">
        <ele>1511</ele>
        <time>2019-06-30T09:42:20.000Z</time>
      </trkpt>
      <trkpt lat="42.98159" lon="0.5376">
        <ele>1512</ele>
        <time>2019-06-30T09:42:22.000Z</time>
      </trkpt>
      <trkpt lat="42.98159" lon="0.53761">
        <ele>1512</ele>
        <time>2019-06-30T09:42:24.000Z</time>
      </trkpt>
      <trkpt lat="42.98158" lon="0.53761">
        <ele>1511</ele>
        <time>2019-06-30T09:42:26.000Z</time>
      </trkpt>
      <trkpt lat="42.98156" lon="0.53761">
        <ele>1510</ele>
        <time>2019-06-30T09:42:28.000Z</time>
      </trkpt>
      <trkpt lat="42.98156" lon="0.53761">
        <ele>1510</ele>
        <time>2019-06-30T09:42:30.000Z</time>
      </trkpt>
      <trkpt lat="42.98156" lon="0.5376">
        <ele>1510</ele>
        <time>2019-06-30T09:42:32.000Z</time>
      </trkpt>
      <trkpt lat="42.98155" lon="0.53759">
        <ele>1510</ele>
        <time>2019-06-30T09:42:34.000Z</time>
      </trkpt>
      <trkpt lat="42.98156" lon="0.53759">
        <ele>1510</ele>
        <time>2019-06-30T09:42:36.000Z</time>
      </trkpt>
      <trkpt lat="42.98156" lon="0.53759">
        <ele>1510</ele>
        <time>2019-06-30T09:42:38.000Z</time>
      </trkpt>
      <trkpt lat="42.98156" lon="0.53758">
        <ele>1510</ele>
        <time>2019-06-30T09:42:40.000Z</time>
      </trkpt>
      <trkpt lat="42.98156" lon="0.53758">
        <ele>1510</ele>
        <time>2019-06-30T09:42:42.000Z</time>
      </trkpt>
      <trkpt lat="42.98156" lon="0.53758">
        <ele>1510</ele>
        <time>2019-06-30T09:42:44.000Z</time>
      </trkpt>
      <trkpt lat="42.98157" lon="0.53759">
        <ele>1510</ele>
        <time>2019-06-30T09:42:46.000Z</time>
      </trkpt>
      <trkpt lat="42.98156" lon="0.53759">
        <ele>1510</ele>
        <time>2019-06-30T09:42:48.000Z</time>
      </trkpt>
      <trkpt lat="42.98156" lon="0.5376">
        <ele>1510</ele>
        <time>2019-06-30T09:42:50.000Z</time>
      </trkpt>
      <trkpt lat="42.98156" lon="0.5376">
        <ele>1510</ele>
        <time>2019-06-30T09:42:52.000Z</time>
      </trkpt>
      <trkpt lat="42.98156" lon="0.5376">
        <ele>1510</ele>
        <time>2019-06-30T09:42:54.000Z</time>
      </trkpt>
      <trkpt lat="42.98156" lon="0.5376">
        <ele>1510</ele>
        <time>2019-06-30T09:42:56.000Z</time>
      </trkpt>
      <trkpt lat="42.98156" lon="0.53761">
        <ele>1510</ele>
        <time>2019-06-30T09:42:58.000Z</time>
      </trkpt>
      <trkpt lat="42.98156" lon="0.53761">
        <ele>1510</ele>
        <time>2019-06-30T09:43:00.000Z</time>
      </trkpt>
      <trkpt lat="42.98156" lon="0.53761">
        <ele>1510</ele>
        <time>2019-06-30T09:43:02.000Z</time>
      </trkpt>
      <trkpt lat="42.98156" lon="0.53761">
        <ele>1510</ele>
        <time>2019-06-30T09:43:04.000Z</time>
      </trkpt>
      <trkpt lat="42.98156" lon="0.53761">
        <ele>1510</ele>
        <time>2019-06-30T09:43:06.000Z</time>
      </trkpt>
      <trkpt lat="42.98157" lon="0.5376">
        <ele>1510</ele>
        <time>2019-06-30T09:43:08.000Z</time>
      </trkpt>
      <trkpt lat="42.98157" lon="0.5376">
        <ele>1511</ele>
        <time>2019-06-30T09:43:10.000Z</time>
      </trkpt>
      <trkpt lat="42.98158" lon="0.5376">
        <ele>1511</ele>
        <time>2019-06-30T09:43:12.000Z</time>
      </trkpt>
      <trkpt lat="42.98157" lon="0.5376">
        <ele>1511</ele>
        <time>2019-06-30T09:43:14.000Z</time>
      </trkpt>
      <trkpt lat="42.98157" lon="0.5376">
        <ele>1511</ele>
        <time>2019-06-30T09:43:16.000Z</time>
      </trkpt>
      <trkpt lat="42.98157" lon="0.53761">
        <ele>1511</ele>
        <time>2019-06-30T09:43:18.000Z</time>
      </trkpt>
      <trkpt lat="42.98157" lon="0.53761">
        <ele>1510</ele>
        <time>2019-06-30T09:43:20.000Z</time>
      </trkpt>
      <trkpt lat="42.98157" lon="0.53761">
        <ele>1510</ele>
        <time>2019-06-30T09:43:22.000Z</time>
      </trkpt>
      <trkpt lat="42.98157" lon="0.53761">
        <ele>1510</ele>
        <time>2019-06-30T09:43:24.000Z</time>
      </trkpt>
      <trkpt lat="42.98157" lon="0.53761">
        <ele>1510</ele>
        <time>2019-06-30T09:43:26.000Z</time>
      </trkpt>
      <trkpt lat="42.98157" lon="0.53761">
        <ele>1511</ele>
        <time>2019-06-30T09:43:28.000Z</time>
      </trkpt>
      <trkpt lat="42.98157" lon="0.5376">
        <ele>1511</ele>
        <time>2019-06-30T09:43:30.000Z</time>
      </trkpt>
      <trkpt lat="42.98158" lon="0.5376">
        <ele>1511</ele>
        <time>2019-06-30T09:43:32.000Z</time>
      </trkpt>
      <trkpt lat="42.98158" lon="0.53759">
        <ele>1511</ele>
        <time>2019-06-30T09:43:34.000Z</time>
      </trkpt>
      <trkpt lat="42.98158" lon="0.53759">
        <ele>1511</ele>
        <time>2019-06-30T09:43:36.000Z</time>
      </trkpt>
      <trkpt lat="42.98158" lon="0.53759">
        <ele>1511</ele>
        <time>2019-06-30T09:43:38.000Z</time>
      </trkpt>
      <trkpt lat="42.98158" lon="0.53759">
        <ele>1511</ele>
        <time>2019-06-30T09:43:40.000Z</time>
      </trkpt>
      <trkpt lat="42.98158" lon="0.53758">
        <ele>1511</ele>
        <time>2019-06-30T09:43:42.000Z</time>
      </trkpt>
      <trkpt lat="42.98158" lon="0.53758">
        <ele>1511</ele>
        <time>2019-06-30T09:43:44.000Z</time>
      </trkpt>
      <trkpt lat="42.98158" lon="0.53759">
        <ele>1511</ele>
        <time>2019-06-30T09:43:46.000Z</time>
      </trkpt>
      <trkpt lat="42.98158" lon="0.5376">
        <ele>1511</ele>
        <time>2019-06-30T09:43:48.000Z</time>
      </trkpt>
      <trkpt lat="42.98158" lon="0.5376">
        <ele>1511</ele>
        <time>2019-06-30T09:43:50.000Z</time>
      </trkpt>
      <trkpt lat="42.98157" lon="0.53761">
        <ele>1510</ele>
        <time>2019-06-30T09:43:52.000Z</time>
      </trkpt>
      <trkpt lat="42.98157" lon="0.53761">
        <ele>1510</ele>
        <time>2019-06-30T09:43:54.000Z</time>
      </trkpt>
      <trkpt lat="42.98157" lon="0.53761">
        <ele>1510</ele>
        <time>2019-06-30T09:43:56.000Z</time>
      </trkpt>
      <trkpt lat="42.98157" lon="0.53761">
        <ele>1510</ele>
        <time>2019-06-30T09:43:58.000Z</time>
      </trkpt>
      <trkpt lat="42.98157" lon="0.53761">
        <ele>1510</ele>
        <time>2019-06-30T09:44:00.000Z</time>
      </trkpt>
      <trkpt lat="42.98157" lon="0.53761">
        <ele>1510</ele>
        <time>2019-06-30T09:44:02.000Z</time>
      </trkpt>
      <trkpt lat="42.98157" lon="0.53761">
        <ele>1510</ele>
        <time>2019-06-30T09:44:04.000Z</time>
      </trkpt>
      <trkpt lat="42.98157" lon="0.53761">
        <ele>1511</ele>
        <time>2019-06-30T09:44:06.000Z</time>
      </trkpt>
      <trkpt lat="42.98157" lon="0.53761">
        <ele>1511</ele>
        <time>2019-06-30T09:44:08.000Z</time>
      </trkpt>
      <trkpt lat="42.98157" lon="0.53761">
        <ele>1510</ele>
        <time>2019-06-30T09:44:10.000Z</time>
      </trkpt>
      <trkpt lat="42.98157" lon="0.5376">
        <ele>1510</ele>
        <time>2019-06-30T09:44:12.000Z</time>
      </trkpt>
      <trkpt lat="42.98157" lon="0.5376">
        <ele>1510</ele>
        <time>2019-06-30T09:44:14.000Z</time>
      </trkpt>
      <trkpt lat="42.98157" lon="0.5376">
        <ele>1510</ele>
        <time>2019-06-30T09:44:16.000Z</time>
      </trkpt>
      <trkpt lat="42.98156" lon="0.53761">
        <ele>1510</ele>
        <time>2019-06-30T09:44:18.000Z</time>
      </trkpt>
      <trkpt lat="42.98156" lon="0.53761">
        <ele>1510</ele>
        <time>2019-06-30T09:44:20.000Z</time>
      </trkpt>
      <trkpt lat="42.98156" lon="0.53761">
        <ele>1510</ele>
        <time>2019-06-30T09:44:22.000Z</time>
      </trkpt>
      <trkpt lat="42.98156" lon="0.53761">
        <ele>1510</ele>
        <time>2019-06-30T09:44:24.000Z</time>
      </trkpt>
      <trkpt lat="42.98156" lon="0.53761">
        <ele>1510</ele>
        <time>2019-06-30T09:44:26.000Z</time>
      </trkpt>
      <trkpt lat="42.98155" lon="0.53762">
        <ele>1510</ele>
        <time>2019-06-30T09:44:28.000Z</time>
      </trkpt>
      <trkpt lat="42.98155" lon="0.53762">
        <ele>1510</ele>
        <time>2019-06-30T09:44:30.000Z</time>
      </trkpt>
      <trkpt lat="42.98155" lon="0.53762">
        <ele>1510</ele>
        <time>2019-06-30T09:44:32.000Z</time>
      </trkpt>
      <trkpt lat="42.98155" lon="0.53761">
        <ele>1510</ele>
        <time>2019-06-30T09:44:34.000Z</time>
      </trkpt>
      <trkpt lat="42.98156" lon="0.53761">
        <ele>1510</ele>
        <time>2019-06-30T09:44:36.000Z</time>
      </trkpt>
      <trkpt lat="42.98155" lon="0.53761">
        <ele>1510</ele>
        <time>2019-06-30T09:44:38.000Z</time>
      </trkpt>
      <trkpt lat="42.98155" lon="0.53761">
        <ele>1509</ele>
        <time>2019-06-30T09:44:40.000Z</time>
      </trkpt>
      <trkpt lat="42.98155" lon="0.53761">
        <ele>1510</ele>
        <time>2019-06-30T09:44:42.000Z</time>
      </trkpt>
      <trkpt lat="42.98156" lon="0.53761">
        <ele>1510</ele>
        <time>2019-06-30T09:44:44.000Z</time>
      </trkpt>
      <trkpt lat="42.98157" lon="0.53761">
        <ele>1510</ele>
        <time>2019-06-30T09:44:46.000Z</time>
      </trkpt>
      <trkpt lat="42.98157" lon="0.53761">
        <ele>1511</ele>
        <time>2019-06-30T09:44:48.000Z</time>
      </trkpt>
      <trkpt lat="42.98157" lon="0.53761">
        <ele>1511</ele>
        <time>2019-06-30T09:44:50.000Z</time>
      </trkpt>
      <trkpt lat="42.98157" lon="0.53761">
        <ele>1511</ele>
        <time>2019-06-30T09:44:52.000Z</time>
      </trkpt>
      <trkpt lat="42.98158" lon="0.53764">
        <ele>1511</ele>
        <time>2019-06-30T09:44:54.000Z</time>
      </trkpt>
      <trkpt lat="42.98159" lon="0.53764">
        <ele>1511</ele>
        <time>2019-06-30T09:44:56.000Z</time>
      </trkpt>
      <trkpt lat="42.98158" lon="0.53764">
        <ele>1511</ele>
        <time>2019-06-30T09:44:58.000Z</time>
      </trkpt>
      <trkpt lat="42.98158" lon="0.53764">
        <ele>1511</ele>
        <time>2019-06-30T09:45:00.000Z</time>
      </trkpt>
      <trkpt lat="42.98157" lon="0.53764">
        <ele>1511</ele>
        <time>2019-06-30T09:45:02.000Z</time>
      </trkpt>
      <trkpt lat="42.98157" lon="0.53763">
        <ele>1511</ele>
        <time>2019-06-30T09:45:04.000Z</time>
      </trkpt>
      <trkpt lat="42.98157" lon="0.53763">
        <ele>1511</ele>
        <time>2019-06-30T09:45:06.000Z</time>
      </trkpt>
      <trkpt lat="42.98157" lon="0.53763">
        <ele>1511</ele>
        <time>2019-06-30T09:45:08.000Z</time>
      </trkpt>
      <trkpt lat="42.98157" lon="0.53762">
        <ele>1511</ele>
        <time>2019-06-30T09:45:10.000Z</time>
      </trkpt>
      <trkpt lat="42.98158" lon="0.53762">
        <ele>1511</ele>
        <time>2019-06-30T09:45:12.000Z</time>
      </trkpt>
      <trkpt lat="42.98158" lon="0.53762">
        <ele>1511</ele>
        <time>2019-06-30T09:45:14.000Z</time>
      </trkpt>
      <trkpt lat="42.98158" lon="0.53761">
        <ele>1511</ele>
        <time>2019-06-30T09:45:16.000Z</time>
      </trkpt>
      <trkpt lat="42.98157" lon="0.53761">
        <ele>1511</ele>
        <time>2019-06-30T09:45:18.000Z</time>
      </trkpt>
      <trkpt lat="42.98158" lon="0.53761">
        <ele>1511</ele>
        <time>2019-06-30T09:45:20.000Z</time>
      </trkpt>
      <trkpt lat="42.98158" lon="0.5376">
        <ele>1511</ele>
        <time>2019-06-30T09:45:22.000Z</time>
      </trkpt>
      <trkpt lat="42.98159" lon="0.53759">
        <ele>1511</ele>
        <time>2019-06-30T09:45:24.000Z</time>
      </trkpt>
      <trkpt lat="42.98159" lon="0.53758">
        <ele>1511</ele>
        <time>2019-06-30T09:45:26.000Z</time>
      </trkpt>
      <trkpt lat="42.98159" lon="0.53759">
        <ele>1511</ele>
        <time>2019-06-30T09:45:28.000Z</time>
      </trkpt>
      <trkpt lat="42.98159" lon="0.53759">
        <ele>1511</ele>
        <time>2019-06-30T09:45:30.000Z</time>
      </trkpt>
      <trkpt lat="42.98159" lon="0.53759">
        <ele>1511</ele>
        <time>2019-06-30T09:45:32.000Z</time>
      </trkpt>
      <trkpt lat="42.98159" lon="0.5376">
        <ele>1511</ele>
        <time>2019-06-30T09:45:34.000Z</time>
      </trkpt>
      <trkpt lat="42.98158" lon="0.53759">
        <ele>1511</ele>
        <time>2019-06-30T09:45:36.000Z</time>
      </trkpt>
      <trkpt lat="42.98157" lon="0.53759">
        <ele>1511</ele>
        <time>2019-06-30T09:45:38.000Z</time>
      </trkpt>
      <trkpt lat="42.98157" lon="0.53759">
        <ele>1510</ele>
        <time>2019-06-30T09:45:40.000Z</time>
      </trkpt>
      <trkpt lat="42.98156" lon="0.53759">
        <ele>1510</ele>
        <time>2019-06-30T09:45:42.000Z</time>
      </trkpt>
      <trkpt lat="42.98156" lon="0.53759">
        <ele>1510</ele>
        <time>2019-06-30T09:45:44.000Z</time>
      </trkpt>
      <trkpt lat="42.98156" lon="0.5376">
        <ele>1510</ele>
        <time>2019-06-30T09:45:46.000Z</time>
      </trkpt>
      <trkpt lat="42.98156" lon="0.5376">
        <ele>1510</ele>
        <time>2019-06-30T09:45:48.000Z</time>
      </trkpt>
      <trkpt lat="42.98156" lon="0.5376">
        <ele>1510</ele>
        <time>2019-06-30T09:45:50.000Z</time>
      </trkpt>
      <trkpt lat="42.98156" lon="0.5376">
        <ele>1510</ele>
        <time>2019-06-30T09:45:52.000Z</time>
      </trkpt>
      <trkpt lat="42.98156" lon="0.5376">
        <ele>1510</ele>
        <time>2019-06-30T09:45:54.000Z</time>
      </trkpt>
      <trkpt lat="42.98156" lon="0.5376">
        <ele>1510</ele>
        <time>2019-06-30T09:45:56.000Z</time>
      </trkpt>
      <trkpt lat="42.98156" lon="0.5376">
        <ele>1510</ele>
        <time>2019-06-30T09:45:58.000Z</time>
      </trkpt>
      <trkpt lat="42.98156" lon="0.5376">
        <ele>1510</ele>
        <time>2019-06-30T09:46:00.000Z</time>
      </trkpt>
      <trkpt lat="42.98156" lon="0.5376">
        <ele>1510</ele>
        <time>2019-06-30T09:46:02.000Z</time>
      </trkpt>
      <trkpt lat="42.98156" lon="0.5376">
        <ele>1510</ele>
        <time>2019-06-30T09:46:04.000Z</time>
      </trkpt>
      <trkpt lat="42.98156" lon="0.5376">
        <ele>1510</ele>
        <time>2019-06-30T09:46:06.000Z</time>
      </trkpt>
      <trkpt lat="42.98156" lon="0.53759">
        <ele>1510</ele>
        <time>2019-06-30T09:46:08.000Z</time>
      </trkpt>
      <trkpt lat="42.98155" lon="0.53759">
        <ele>1509</ele>
        <time>2019-06-30T09:46:10.000Z</time>
      </trkpt>
      <trkpt lat="42.98155" lon="0.53759">
        <ele>1509</ele>
        <time>2019-06-30T09:46:12.000Z</time>
      </trkpt>
      <trkpt lat="42.98155" lon="0.53759">
        <ele>1509</ele>
        <time>2019-06-30T09:46:14.000Z</time>
      </trkpt>
      <trkpt lat="42.98155" lon="0.53759">
        <ele>1510</ele>
        <time>2019-06-30T09:46:16.000Z</time>
      </trkpt>
      <trkpt lat="42.98155" lon="0.53759">
        <ele>1509</ele>
        <time>2019-06-30T09:46:18.000Z</time>
      </trkpt>
      <trkpt lat="42.98155" lon="0.53759">
        <ele>1509</ele>
        <time>2019-06-30T09:46:20.000Z</time>
      </trkpt>
      <trkpt lat="42.98154" lon="0.53759">
        <ele>1509</ele>
        <time>2019-06-30T09:46:22.000Z</time>
      </trkpt>
      <trkpt lat="42.98155" lon="0.53759">
        <ele>1509</ele>
        <time>2019-06-30T09:46:24.000Z</time>
      </trkpt>
      <trkpt lat="42.98155" lon="0.53759">
        <ele>1510</ele>
        <time>2019-06-30T09:46:26.000Z</time>
      </trkpt>
      <trkpt lat="42.98156" lon="0.53759">
        <ele>1510</ele>
        <time>2019-06-30T09:46:28.000Z</time>
      </trkpt>
      <trkpt lat="42.98156" lon="0.53759">
        <ele>1510</ele>
        <time>2019-06-30T09:46:30.000Z</time>
      </trkpt>
      <trkpt lat="42.98156" lon="0.5376">
        <ele>1510</ele>
        <time>2019-06-30T09:46:32.000Z</time>
      </trkpt>
      <trkpt lat="42.98156" lon="0.53759">
        <ele>1510</ele>
        <time>2019-06-30T09:46:34.000Z</time>
      </trkpt>
      <trkpt lat="42.98156" lon="0.53759">
        <ele>1510</ele>
        <time>2019-06-30T09:46:36.000Z</time>
      </trkpt>
      <trkpt lat="42.98156" lon="0.53759">
        <ele>1510</ele>
        <time>2019-06-30T09:46:38.000Z</time>
      </trkpt>
      <trkpt lat="42.98156" lon="0.53759">
        <ele>1510</ele>
        <time>2019-06-30T09:46:40.000Z</time>
      </trkpt>
      <trkpt lat="42.98156" lon="0.53758">
        <ele>1510</ele>
        <time>2019-06-30T09:46:42.000Z</time>
      </trkpt>
      <trkpt lat="42.98156" lon="0.53758">
        <ele>1510</ele>
        <time>2019-06-30T09:46:44.000Z</time>
      </trkpt>
      <trkpt lat="42.98157" lon="0.53757">
        <ele>1510</ele>
        <time>2019-06-30T09:46:46.000Z</time>
      </trkpt>
      <trkpt lat="42.98157" lon="0.53757">
        <ele>1510</ele>
        <time>2019-06-30T09:46:48.000Z</time>
      </trkpt>
      <trkpt lat="42.98157" lon="0.53757">
        <ele>1511</ele>
        <time>2019-06-30T09:46:50.000Z</time>
      </trkpt>
      <trkpt lat="42.98157" lon="0.53757">
        <ele>1511</ele>
        <time>2019-06-30T09:46:52.000Z</time>
      </trkpt>
      <trkpt lat="42.98158" lon="0.53758">
        <ele>1511</ele>
        <time>2019-06-30T09:46:54.000Z</time>
      </trkpt>
      <trkpt lat="42.98158" lon="0.53759">
        <ele>1511</ele>
        <time>2019-06-30T09:46:56.000Z</time>
      </trkpt>
      <trkpt lat="42.98158" lon="0.5376">
        <ele>1511</ele>
        <time>2019-06-30T09:46:58.000Z</time>
      </trkpt>
      <trkpt lat="42.98158" lon="0.5376">
        <ele>1511</ele>
        <time>2019-06-30T09:47:00.000Z</time>
      </trkpt>
      <trkpt lat="42.98159" lon="0.5376">
        <ele>1511</ele>
        <time>2019-06-30T09:47:02.000Z</time>
      </trkpt>
      <trkpt lat="42.98159" lon="0.5376">
        <ele>1511</ele>
        <time>2019-06-30T09:47:04.000Z</time>
      </trkpt>
      <trkpt lat="42.98159" lon="0.5376">
        <ele>1511</ele>
        <time>2019-06-30T09:47:06.000Z</time>
      </trkpt>
      <trkpt lat="42.98159" lon="0.53761">
        <ele>1512</ele>
        <time>2019-06-30T09:47:08.000Z</time>
      </trkpt>
      <trkpt lat="42.9816" lon="0.5376">
        <ele>1512</ele>
        <time>2019-06-30T09:47:10.000Z</time>
      </trkpt>
      <trkpt lat="42.9816" lon="0.5376">
        <ele>1512</ele>
        <time>2019-06-30T09:47:12.000Z</time>
      </trkpt>
      <trkpt lat="42.9816" lon="0.53761">
        <ele>1512</ele>
        <time>2019-06-30T09:47:14.000Z</time>
      </trkpt>
      <trkpt lat="42.98159" lon="0.53761">
        <ele>1512</ele>
        <time>2019-06-30T09:47:16.000Z</time>
      </trkpt>
      <trkpt lat="42.98159" lon="0.53761">
        <ele>1511</ele>
        <time>2019-06-30T09:47:18.000Z</time>
      </trkpt>
      <trkpt lat="42.98159" lon="0.53761">
        <ele>1511</ele>
        <time>2019-06-30T09:47:20.000Z</time>
      </trkpt>
      <trkpt lat="42.98159" lon="0.5376">
        <ele>1511</ele>
        <time>2019-06-30T09:47:22.000Z</time>
      </trkpt>
      <trkpt lat="42.98159" lon="0.5376">
        <ele>1511</ele>
        <time>2019-06-30T09:47:24.000Z</time>
      </trkpt>
      <trkpt lat="42.98159" lon="0.53761">
        <ele>1511</ele>
        <time>2019-06-30T09:47:26.000Z</time>
      </trkpt>
      <trkpt lat="42.98159" lon="0.53761">
        <ele>1511</ele>
        <time>2019-06-30T09:47:28.000Z</time>
      </trkpt>
      <trkpt lat="42.98159" lon="0.53761">
        <ele>1511</ele>
        <time>2019-06-30T09:47:30.000Z</time>
      </trkpt>
      <trkpt lat="42.98159" lon="0.53761">
        <ele>1511</ele>
        <time>2019-06-30T09:47:32.000Z</time>
      </trkpt>
      <trkpt lat="42.98159" lon="0.53761">
        <ele>1512</ele>
        <time>2019-06-30T09:47:34.000Z</time>
      </trkpt>
      <trkpt lat="42.98159" lon="0.53762">
        <ele>1512</ele>
        <time>2019-06-30T09:47:36.000Z</time>
      </trkpt>
      <trkpt lat="42.98158" lon="0.53761">
        <ele>1511</ele>
        <time>2019-06-30T09:47:38.000Z</time>
      </trkpt>
      <trkpt lat="42.98159" lon="0.53762">
        <ele>1511</ele>
        <time>2019-06-30T09:47:40.000Z</time>
      </trkpt>
      <trkpt lat="42.98159" lon="0.53762">
        <ele>1511</ele>
        <time>2019-06-30T09:47:42.000Z</time>
      </trkpt>
      <trkpt lat="42.98159" lon="0.53762">
        <ele>1512</ele>
        <time>2019-06-30T09:47:44.000Z</time>
      </trkpt>
      <trkpt lat="42.9816" lon="0.53762">
        <ele>1512</ele>
        <time>2019-06-30T09:47:46.000Z</time>
      </trkpt>
      <trkpt lat="42.98159" lon="0.53762">
        <ele>1511</ele>
        <time>2019-06-30T09:47:48.000Z</time>
      </trkpt>
      <trkpt lat="42.98159" lon="0.53762">
        <ele>1511</ele>
        <time>2019-06-30T09:47:50.000Z</time>
      </trkpt>
      <trkpt lat="42.98159" lon="0.53762">
        <ele>1511</ele>
        <time>2019-06-30T09:47:52.000Z</time>
      </trkpt>
      <trkpt lat="42.98159" lon="0.53762">
        <ele>1511</ele>
        <time>2019-06-30T09:47:54.000Z</time>
      </trkpt>
      <trkpt lat="42.98159" lon="0.53762">
        <ele>1511</ele>
        <time>2019-06-30T09:47:56.000Z</time>
      </trkpt>
      <trkpt lat="42.98159" lon="0.53762">
        <ele>1511</ele>
        <time>2019-06-30T09:47:58.000Z</time>
      </trkpt>
      <trkpt lat="42.98159" lon="0.53762">
        <ele>1511</ele>
        <time>2019-06-30T09:48:00.000Z</time>
      </trkpt>
      <trkpt lat="42.98159" lon="0.53762">
        <ele>1511</ele>
        <time>2019-06-30T09:48:02.000Z</time>
      </trkpt>
      <trkpt lat="42.98159" lon="0.53762">
        <ele>1511</ele>
        <time>2019-06-30T09:48:04.000Z</time>
      </trkpt>
      <trkpt lat="42.98159" lon="0.53762">
        <ele>1511</ele>
        <time>2019-06-30T09:48:06.000Z</time>
      </trkpt>
      <trkpt lat="42.98158" lon="0.53762">
        <ele>1511</ele>
        <time>2019-06-30T09:48:08.000Z</time>
      </trkpt>
      <trkpt lat="42.98158" lon="0.53762">
        <ele>1511</ele>
        <time>2019-06-30T09:48:10.000Z</time>
      </trkpt>
      <trkpt lat="42.98158" lon="0.53762">
        <ele>1511</ele>
        <time>2019-06-30T09:48:12.000Z</time>
      </trkpt>
      <trkpt lat="42.98158" lon="0.53762">
        <ele>1511</ele>
        <time>2019-06-30T09:48:14.000Z</time>
      </trkpt>
      <trkpt lat="42.98157" lon="0.53761">
        <ele>1511</ele>
        <time>2019-06-30T09:48:16.000Z</time>
      </trkpt>
      <trkpt lat="42.98157" lon="0.5376">
        <ele>1510</ele>
        <time>2019-06-30T09:48:18.000Z</time>
      </trkpt>
      <trkpt lat="42.98157" lon="0.5376">
        <ele>1510</ele>
        <time>2019-06-30T09:48:20.000Z</time>
      </trkpt>
      <trkpt lat="42.98157" lon="0.53759">
        <ele>1510</ele>
        <time>2019-06-30T09:48:22.000Z</time>
      </trkpt>
      <trkpt lat="42.98156" lon="0.53759">
        <ele>1510</ele>
        <time>2019-06-30T09:48:24.000Z</time>
      </trkpt>
      <trkpt lat="42.98157" lon="0.53758">
        <ele>1510</ele>
        <time>2019-06-30T09:48:26.000Z</time>
      </trkpt>
      <trkpt lat="42.98156" lon="0.53758">
        <ele>1510</ele>
        <time>2019-06-30T09:48:28.000Z</time>
      </trkpt>
      <trkpt lat="42.98157" lon="0.53758">
        <ele>1510</ele>
        <time>2019-06-30T09:48:30.000Z</time>
      </trkpt>
      <trkpt lat="42.98157" lon="0.53757">
        <ele>1510</ele>
        <time>2019-06-30T09:48:32.000Z</time>
      </trkpt>
      <trkpt lat="42.98157" lon="0.53757">
        <ele>1510</ele>
        <time>2019-06-30T09:48:34.000Z</time>
      </trkpt>
      <trkpt lat="42.98157" lon="0.53757">
        <ele>1510</ele>
        <time>2019-06-30T09:48:36.000Z</time>
      </trkpt>
      <trkpt lat="42.98157" lon="0.53757">
        <ele>1510</ele>
        <time>2019-06-30T09:48:38.000Z</time>
      </trkpt>
      <trkpt lat="42.98157" lon="0.53757">
        <ele>1511</ele>
        <time>2019-06-30T09:48:40.000Z</time>
      </trkpt>
      <trkpt lat="42.98157" lon="0.53757">
        <ele>1511</ele>
        <time>2019-06-30T09:48:42.000Z</time>
      </trkpt>
      <trkpt lat="42.98158" lon="0.53757">
        <ele>1511</ele>
        <time>2019-06-30T09:48:44.000Z</time>
      </trkpt>
      <trkpt lat="42.98158" lon="0.53757">
        <ele>1511</ele>
        <time>2019-06-30T09:48:46.000Z</time>
      </trkpt>
      <trkpt lat="42.98158" lon="0.53757">
        <ele>1511</ele>
        <time>2019-06-30T09:48:48.000Z</time>
      </trkpt>
      <trkpt lat="42.98159" lon="0.53757">
        <ele>1511</ele>
        <time>2019-06-30T09:48:50.000Z</time>
      </trkpt>
      <trkpt lat="42.98159" lon="0.53757">
        <ele>1511</ele>
        <time>2019-06-30T09:48:52.000Z</time>
      </trkpt>
      <trkpt lat="42.98159" lon="0.53758">
        <ele>1511</ele>
        <time>2019-06-30T09:48:54.000Z</time>
      </trkpt>
      <trkpt lat="42.98159" lon="0.53758">
        <ele>1511</ele>
        <time>2019-06-30T09:48:56.000Z</time>
      </trkpt>
      <trkpt lat="42.98158" lon="0.53758">
        <ele>1511</ele>
        <time>2019-06-30T09:48:58.000Z</time>
      </trkpt>
      <trkpt lat="42.98158" lon="0.53758">
        <ele>1511</ele>
        <time>2019-06-30T09:49:00.000Z</time>
      </trkpt>
      <trkpt lat="42.98158" lon="0.53758">
        <ele>1511</ele>
        <time>2019-06-30T09:49:02.000Z</time>
      </trkpt>
      <trkpt lat="42.98157" lon="0.53758">
        <ele>1511</ele>
        <time>2019-06-30T09:49:04.000Z</time>
      </trkpt>
      <trkpt lat="42.98157" lon="0.53759">
        <ele>1511</ele>
        <time>2019-06-30T09:49:06.000Z</time>
      </trkpt>
      <trkpt lat="42.98157" lon="0.53759">
        <ele>1510</ele>
        <time>2019-06-30T09:49:08.000Z</time>
      </trkpt>
      <trkpt lat="42.98157" lon="0.53759">
        <ele>1510</ele>
        <time>2019-06-30T09:49:10.000Z</time>
      </trkpt>
      <trkpt lat="42.98157" lon="0.53759">
        <ele>1510</ele>
        <time>2019-06-30T09:49:12.000Z</time>
      </trkpt>
      <trkpt lat="42.98157" lon="0.53759">
        <ele>1510</ele>
        <time>2019-06-30T09:49:14.000Z</time>
      </trkpt>
      <trkpt lat="42.98157" lon="0.53759">
        <ele>1511</ele>
        <time>2019-06-30T09:49:16.000Z</time>
      </trkpt>
      <trkpt lat="42.98157" lon="0.53759">
        <ele>1511</ele>
        <time>2019-06-30T09:49:18.000Z</time>
      </trkpt>
      <trkpt lat="42.98157" lon="0.53759">
        <ele>1511</ele>
        <time>2019-06-30T09:49:20.000Z</time>
      </trkpt>
      <trkpt lat="42.98157" lon="0.53759">
        <ele>1510</ele>
        <time>2019-06-30T09:49:22.000Z</time>
      </trkpt>
      <trkpt lat="42.98157" lon="0.5376">
        <ele>1510</ele>
        <time>2019-06-30T09:49:24.000Z</time>
      </trkpt>
      <trkpt lat="42.98157" lon="0.5376">
        <ele>1510</ele>
        <time>2019-06-30T09:49:26.000Z</time>
      </trkpt>
      <trkpt lat="42.98156" lon="0.5376">
        <ele>1510</ele>
        <time>2019-06-30T09:49:28.000Z</time>
      </trkpt>
      <trkpt lat="42.98156" lon="0.53761">
        <ele>1510</ele>
        <time>2019-06-30T09:49:30.000Z</time>
      </trkpt>
      <trkpt lat="42.98157" lon="0.53761">
        <ele>1510</ele>
        <time>2019-06-30T09:49:32.000Z</time>
      </trkpt>
      <trkpt lat="42.98157" lon="0.53761">
        <ele>1510</ele>
        <time>2019-06-30T09:49:34.000Z</time>
      </trkpt>
      <trkpt lat="42.98157" lon="0.53761">
        <ele>1510</ele>
        <time>2019-06-30T09:49:36.000Z</time>
      </trkpt>
      <trkpt lat="42.98157" lon="0.53761">
        <ele>1510</ele>
        <time>2019-06-30T09:49:38.000Z</time>
      </trkpt>
      <trkpt lat="42.98157" lon="0.53761">
        <ele>1510</ele>
        <time>2019-06-30T09:49:40.000Z</time>
      </trkpt>
      <trkpt lat="42.98157" lon="0.53761">
        <ele>1510</ele>
        <time>2019-06-30T09:49:42.000Z</time>
      </trkpt>
      <trkpt lat="42.98157" lon="0.53761">
        <ele>1511</ele>
        <time>2019-06-30T09:49:44.000Z</time>
      </trkpt>
      <trkpt lat="42.98158" lon="0.53761">
        <ele>1511</ele>
        <time>2019-06-30T09:49:46.000Z</time>
      </trkpt>
      <trkpt lat="42.98158" lon="0.53761">
        <ele>1511</ele>
        <time>2019-06-30T09:49:48.000Z</time>
      </trkpt>
      <trkpt lat="42.98158" lon="0.53762">
        <ele>1511</ele>
        <time>2019-06-30T09:49:50.000Z</time>
      </trkpt>
      <trkpt lat="42.98158" lon="0.53762">
        <ele>1511</ele>
        <time>2019-06-30T09:49:52.000Z</time>
      </trkpt>
      <trkpt lat="42.98158" lon="0.53762">
        <ele>1511</ele>
        <time>2019-06-30T09:49:54.000Z</time>
      </trkpt>
      <trkpt lat="42.98157" lon="0.53762">
        <ele>1511</ele>
        <time>2019-06-30T09:49:56.000Z</time>
      </trkpt>
      <trkpt lat="42.98157" lon="0.53762">
        <ele>1511</ele>
        <time>2019-06-30T09:49:58.000Z</time>
      </trkpt>
      <trkpt lat="42.98157" lon="0.53762">
        <ele>1510</ele>
        <time>2019-06-30T09:50:00.000Z</time>
      </trkpt>
      <trkpt lat="42.98157" lon="0.53762">
        <ele>1510</ele>
        <time>2019-06-30T09:50:02.000Z</time>
      </trkpt>
      <trkpt lat="42.98156" lon="0.53762">
        <ele>1510</ele>
        <time>2019-06-30T09:50:04.000Z</time>
      </trkpt>
      <trkpt lat="42.98156" lon="0.53762">
        <ele>1510</ele>
        <time>2019-06-30T09:50:06.000Z</time>
      </trkpt>
      <trkpt lat="42.98156" lon="0.53762">
        <ele>1510</ele>
        <time>2019-06-30T09:50:08.000Z</time>
      </trkpt>
      <trkpt lat="42.98156" lon="0.53762">
        <ele>1510</ele>
        <time>2019-06-30T09:50:10.000Z</time>
      </trkpt>
      <trkpt lat="42.98156" lon="0.53762">
        <ele>1510</ele>
        <time>2019-06-30T09:50:12.000Z</time>
      </trkpt>
      <trkpt lat="42.98156" lon="0.53762">
        <ele>1510</ele>
        <time>2019-06-30T09:50:14.000Z</time>
      </trkpt>
      <trkpt lat="42.98156" lon="0.53762">
        <ele>1510</ele>
        <time>2019-06-30T09:50:16.000Z</time>
      </trkpt>
      <trkpt lat="42.98155" lon="0.53762">
        <ele>1510</ele>
        <time>2019-06-30T09:50:18.000Z</time>
      </trkpt>
      <trkpt lat="42.98155" lon="0.53762">
        <ele>1509</ele>
        <time>2019-06-30T09:50:20.000Z</time>
      </trkpt>
      <trkpt lat="42.98155" lon="0.53763">
        <ele>1509</ele>
        <time>2019-06-30T09:50:22.000Z</time>
      </trkpt>
      <trkpt lat="42.98154" lon="0.53763">
        <ele>1509</ele>
        <time>2019-06-30T09:50:24.000Z</time>
      </trkpt>
      <trkpt lat="42.98154" lon="0.53763">
        <ele>1509</ele>
        <time>2019-06-30T09:50:26.000Z</time>
      </trkpt>
      <trkpt lat="42.98152" lon="0.53762">
        <ele>1508</ele>
        <time>2019-06-30T09:50:28.000Z</time>
      </trkpt>
      <trkpt lat="42.98151" lon="0.53761">
        <ele>1508</ele>
        <time>2019-06-30T09:50:30.000Z</time>
      </trkpt>
      <trkpt lat="42.9815" lon="0.53761">
        <ele>1507</ele>
        <time>2019-06-30T09:50:32.000Z</time>
      </trkpt>
      <trkpt lat="42.9815" lon="0.53761">
        <ele>1507</ele>
        <time>2019-06-30T09:50:34.000Z</time>
      </trkpt>
      <trkpt lat="42.9815" lon="0.53761">
        <ele>1507</ele>
        <time>2019-06-30T09:50:36.000Z</time>
      </trkpt>
      <trkpt lat="42.98149" lon="0.53761">
        <ele>1507</ele>
        <time>2019-06-30T09:50:38.000Z</time>
      </trkpt>
      <trkpt lat="42.9815" lon="0.53761">
        <ele>1507</ele>
        <time>2019-06-30T09:50:40.000Z</time>
      </trkpt>
      <trkpt lat="42.98151" lon="0.53762">
        <ele>1507</ele>
        <time>2019-06-30T09:50:42.000Z</time>
      </trkpt>
      <trkpt lat="42.98151" lon="0.53762">
        <ele>1508</ele>
        <time>2019-06-30T09:50:44.000Z</time>
      </trkpt>
      <trkpt lat="42.98152" lon="0.53763">
        <ele>1508</ele>
        <time>2019-06-30T09:50:46.000Z</time>
      </trkpt>
      <trkpt lat="42.98152" lon="0.53764">
        <ele>1508</ele>
        <time>2019-06-30T09:50:48.000Z</time>
      </trkpt>
      <trkpt lat="42.98152" lon="0.53765">
        <ele>1508</ele>
        <time>2019-06-30T09:50:50.000Z</time>
      </trkpt>
      <trkpt lat="42.98152" lon="0.53766">
        <ele>1508</ele>
        <time>2019-06-30T09:50:52.000Z</time>
      </trkpt>
      <trkpt lat="42.98152" lon="0.53767">
        <ele>1508</ele>
        <time>2019-06-30T09:50:54.000Z</time>
      </trkpt>
      <trkpt lat="42.98152" lon="0.53769">
        <ele>1508</ele>
        <time>2019-06-30T09:50:56.000Z</time>
      </trkpt>
      <trkpt lat="42.98152" lon="0.53771">
        <ele>1508</ele>
        <time>2019-06-30T09:50:58.000Z</time>
      </trkpt>
      <trkpt lat="42.98153" lon="0.53773">
        <ele>1508</ele>
        <time>2019-06-30T09:51:00.000Z</time>
      </trkpt>
      <trkpt lat="42.98149" lon="0.53773">
        <ele>1507</ele>
        <time>2019-06-30T09:51:02.000Z</time>
      </trkpt>
      <trkpt lat="42.98151" lon="0.53769">
        <ele>1508</ele>
        <time>2019-06-30T09:51:04.000Z</time>
      </trkpt>
      <trkpt lat="42.98152" lon="0.5377">
        <ele>1508</ele>
        <time>2019-06-30T09:51:06.000Z</time>
      </trkpt>
      <trkpt lat="42.98152" lon="0.5377">
        <ele>1508</ele>
        <time>2019-06-30T09:51:08.000Z</time>
      </trkpt>
      <trkpt lat="42.98152" lon="0.53771">
        <ele>1508</ele>
        <time>2019-06-30T09:51:10.000Z</time>
      </trkpt>
      <trkpt lat="42.98152" lon="0.53771">
        <ele>1508</ele>
        <time>2019-06-30T09:51:12.000Z</time>
      </trkpt>
      <trkpt lat="42.98153" lon="0.53772">
        <ele>1508</ele>
        <time>2019-06-30T09:51:14.000Z</time>
      </trkpt>
      <trkpt lat="42.98153" lon="0.53772">
        <ele>1508</ele>
        <time>2019-06-30T09:51:16.000Z</time>
      </trkpt>
      <trkpt lat="42.98153" lon="0.53772">
        <ele>1508</ele>
        <time>2019-06-30T09:51:18.000Z</time>
      </trkpt>
      <trkpt lat="42.98153" lon="0.53771">
        <ele>1509</ele>
        <time>2019-06-30T09:51:20.000Z</time>
      </trkpt>
      <trkpt lat="42.98154" lon="0.53771">
        <ele>1509</ele>
        <time>2019-06-30T09:51:22.000Z</time>
      </trkpt>
      <trkpt lat="42.98154" lon="0.53771">
        <ele>1509</ele>
        <time>2019-06-30T09:51:24.000Z</time>
      </trkpt>
      <trkpt lat="42.98153" lon="0.53772">
        <ele>1509</ele>
        <time>2019-06-30T09:51:26.000Z</time>
      </trkpt>
      <trkpt lat="42.98153" lon="0.53772">
        <ele>1509</ele>
        <time>2019-06-30T09:51:28.000Z</time>
      </trkpt>
      <trkpt lat="42.98154" lon="0.53772">
        <ele>1509</ele>
        <time>2019-06-30T09:51:30.000Z</time>
      </trkpt>
      <trkpt lat="42.98154" lon="0.53771">
        <ele>1509</ele>
        <time>2019-06-30T09:51:32.000Z</time>
      </trkpt>
      <trkpt lat="42.98154" lon="0.53771">
        <ele>1509</ele>
        <time>2019-06-30T09:51:34.000Z</time>
      </trkpt>
      <trkpt lat="42.98154" lon="0.5377">
        <ele>1509</ele>
        <time>2019-06-30T09:51:36.000Z</time>
      </trkpt>
      <trkpt lat="42.98154" lon="0.53769">
        <ele>1509</ele>
        <time>2019-06-30T09:51:38.000Z</time>
      </trkpt>
      <trkpt lat="42.98154" lon="0.53768">
        <ele>1509</ele>
        <time>2019-06-30T09:51:40.000Z</time>
      </trkpt>
      <trkpt lat="42.98155" lon="0.53769">
        <ele>1509</ele>
        <time>2019-06-30T09:51:42.000Z</time>
      </trkpt>
      <trkpt lat="42.98155" lon="0.5377">
        <ele>1510</ele>
        <time>2019-06-30T09:51:44.000Z</time>
      </trkpt>
      <trkpt lat="42.98156" lon="0.53771">
        <ele>1510</ele>
        <time>2019-06-30T09:51:46.000Z</time>
      </trkpt>
      <trkpt lat="42.98156" lon="0.53772">
        <ele>1510</ele>
        <time>2019-06-30T09:51:48.000Z</time>
      </trkpt>
      <trkpt lat="42.98156" lon="0.53773">
        <ele>1510</ele>
        <time>2019-06-30T09:51:50.000Z</time>
      </trkpt>
      <trkpt lat="42.98156" lon="0.53774">
        <ele>1510</ele>
        <time>2019-06-30T09:51:52.000Z</time>
      </trkpt>
      <trkpt lat="42.98155" lon="0.53773">
        <ele>1510</ele>
        <time>2019-06-30T09:51:54.000Z</time>
      </trkpt>
      <trkpt lat="42.98155" lon="0.53774">
        <ele>1510</ele>
        <time>2019-06-30T09:51:56.000Z</time>
      </trkpt>
      <trkpt lat="42.98155" lon="0.53773">
        <ele>1510</ele>
        <time>2019-06-30T09:51:58.000Z</time>
      </trkpt>
      <trkpt lat="42.98155" lon="0.53772">
        <ele>1510</ele>
        <time>2019-06-30T09:52:00.000Z</time>
      </trkpt>
      <trkpt lat="42.98155" lon="0.53772">
        <ele>1509</ele>
        <time>2019-06-30T09:52:02.000Z</time>
      </trkpt>
      <trkpt lat="42.98155" lon="0.53771">
        <ele>1509</ele>
        <time>2019-06-30T09:52:04.000Z</time>
      </trkpt>
      <trkpt lat="42.98154" lon="0.53771">
        <ele>1509</ele>
        <time>2019-06-30T09:52:06.000Z</time>
      </trkpt>
      <trkpt lat="42.98154" lon="0.5377">
        <ele>1509</ele>
        <time>2019-06-30T09:52:08.000Z</time>
      </trkpt>
      <trkpt lat="42.98154" lon="0.5377">
        <ele>1509</ele>
        <time>2019-06-30T09:52:10.000Z</time>
      </trkpt>
      <trkpt lat="42.98154" lon="0.53769">
        <ele>1509</ele>
        <time>2019-06-30T09:52:12.000Z</time>
      </trkpt>
      <trkpt lat="42.98154" lon="0.53768">
        <ele>1509</ele>
        <time>2019-06-30T09:52:14.000Z</time>
      </trkpt>
      <trkpt lat="42.98155" lon="0.53767">
        <ele>1509</ele>
        <time>2019-06-30T09:52:16.000Z</time>
      </trkpt>
      <trkpt lat="42.98155" lon="0.53766">
        <ele>1509</ele>
        <time>2019-06-30T09:52:18.000Z</time>
      </trkpt>
      <trkpt lat="42.98155" lon="0.53765">
        <ele>1510</ele>
        <time>2019-06-30T09:52:20.000Z</time>
      </trkpt>
      <trkpt lat="42.98155" lon="0.53764">
        <ele>1510</ele>
        <time>2019-06-30T09:52:22.000Z</time>
      </trkpt>
      <trkpt lat="42.98155" lon="0.53764">
        <ele>1510</ele>
        <time>2019-06-30T09:52:24.000Z</time>
      </trkpt>
      <trkpt lat="42.98155" lon="0.53764">
        <ele>1510</ele>
        <time>2019-06-30T09:52:26.000Z</time>
      </trkpt>
      <trkpt lat="42.98155" lon="0.53766">
        <ele>1510</ele>
        <time>2019-06-30T09:52:28.000Z</time>
      </trkpt>
      <trkpt lat="42.98155" lon="0.53765">
        <ele>1510</ele>
        <time>2019-06-30T09:52:30.000Z</time>
      </trkpt>
      <trkpt lat="42.98155" lon="0.53763">
        <ele>1510</ele>
        <time>2019-06-30T09:52:32.000Z</time>
      </trkpt>
      <trkpt lat="42.98156" lon="0.53762">
        <ele>1510</ele>
        <time>2019-06-30T09:52:34.000Z</time>
      </trkpt>
      <trkpt lat="42.98157" lon="0.53762">
        <ele>1510</ele>
        <time>2019-06-30T09:52:36.000Z</time>
      </trkpt>
      <trkpt lat="42.98157" lon="0.53762">
        <ele>1511</ele>
        <time>2019-06-30T09:52:38.000Z</time>
      </trkpt>
      <trkpt lat="42.98157" lon="0.53763">
        <ele>1511</ele>
        <time>2019-06-30T09:52:40.000Z</time>
      </trkpt>
      <trkpt lat="42.98158" lon="0.53763">
        <ele>1511</ele>
        <time>2019-06-30T09:52:42.000Z</time>
      </trkpt>
      <trkpt lat="42.98158" lon="0.53764">
        <ele>1511</ele>
        <time>2019-06-30T09:52:44.000Z</time>
      </trkpt>
      <trkpt lat="42.98157" lon="0.53764">
        <ele>1511</ele>
        <time>2019-06-30T09:52:46.000Z</time>
      </trkpt>
      <trkpt lat="42.98158" lon="0.53764">
        <ele>1511</ele>
        <time>2019-06-30T09:52:48.000Z</time>
      </trkpt>
      <trkpt lat="42.98158" lon="0.53764">
        <ele>1511</ele>
        <time>2019-06-30T09:52:50.000Z</time>
      </trkpt>
      <trkpt lat="42.98158" lon="0.53764">
        <ele>1511</ele>
        <time>2019-06-30T09:52:52.000Z</time>
      </trkpt>
      <trkpt lat="42.98158" lon="0.53764">
        <ele>1511</ele>
        <time>2019-06-30T09:52:54.000Z</time>
      </trkpt>
      <trkpt lat="42.98159" lon="0.53764">
        <ele>1511</ele>
        <time>2019-06-30T09:52:56.000Z</time>
      </trkpt>
      <trkpt lat="42.98159" lon="0.53764">
        <ele>1511</ele>
        <time>2019-06-30T09:52:58.000Z</time>
      </trkpt>
      <trkpt lat="42.98159" lon="0.53764">
        <ele>1511</ele>
        <time>2019-06-30T09:53:00.000Z</time>
      </trkpt>
      <trkpt lat="42.98159" lon="0.53764">
        <ele>1512</ele>
        <time>2019-06-30T09:53:02.000Z</time>
      </trkpt>
      <trkpt lat="42.98159" lon="0.53764">
        <ele>1512</ele>
        <time>2019-06-30T09:53:04.000Z</time>
      </trkpt>
      <trkpt lat="42.98159" lon="0.53765">
        <ele>1512</ele>
        <time>2019-06-30T09:53:06.000Z</time>
      </trkpt>
      <trkpt lat="42.98159" lon="0.53765">
        <ele>1512</ele>
        <time>2019-06-30T09:53:08.000Z</time>
      </trkpt>
      <trkpt lat="42.98159" lon="0.53764">
        <ele>1512</ele>
        <time>2019-06-30T09:53:10.000Z</time>
      </trkpt>
      <trkpt lat="42.98159" lon="0.53765">
        <ele>1512</ele>
        <time>2019-06-30T09:53:12.000Z</time>
      </trkpt>
      <trkpt lat="42.9816" lon="0.53765">
        <ele>1512</ele>
        <time>2019-06-30T09:53:14.000Z</time>
      </trkpt>
      <trkpt lat="42.9816" lon="0.53766">
        <ele>1512</ele>
        <time>2019-06-30T09:53:16.000Z</time>
      </trkpt>
      <trkpt lat="42.9816" lon="0.53766">
        <ele>1512</ele>
        <time>2019-06-30T09:53:18.000Z</time>
      </trkpt>
      <trkpt lat="42.9816" lon="0.53767">
        <ele>1512</ele>
        <time>2019-06-30T09:53:20.000Z</time>
      </trkpt>
      <trkpt lat="42.9816" lon="0.53767">
        <ele>1512</ele>
        <time>2019-06-30T09:53:22.000Z</time>
      </trkpt>
      <trkpt lat="42.9816" lon="0.53767">
        <ele>1512</ele>
        <time>2019-06-30T09:53:24.000Z</time>
      </trkpt>
      <trkpt lat="42.9816" lon="0.53767">
        <ele>1512</ele>
        <time>2019-06-30T09:53:26.000Z</time>
      </trkpt>
      <trkpt lat="42.9816" lon="0.53767">
        <ele>1512</ele>
        <time>2019-06-30T09:53:28.000Z</time>
      </trkpt>
      <trkpt lat="42.9816" lon="0.53768">
        <ele>1512</ele>
        <time>2019-06-30T09:53:30.000Z</time>
      </trkpt>
      <trkpt lat="42.9816" lon="0.53768">
        <ele>1512</ele>
        <time>2019-06-30T09:53:32.000Z</time>
      </trkpt>
      <trkpt lat="42.9816" lon="0.53768">
        <ele>1512</ele>
        <time>2019-06-30T09:53:34.000Z</time>
      </trkpt>
      <trkpt lat="42.9816" lon="0.53769">
        <ele>1512</ele>
        <time>2019-06-30T09:53:36.000Z</time>
      </trkpt>
      <trkpt lat="42.9816" lon="0.5377">
        <ele>1512</ele>
        <time>2019-06-30T09:53:38.000Z</time>
      </trkpt>
      <trkpt lat="42.98159" lon="0.53769">
        <ele>1512</ele>
        <time>2019-06-30T09:53:40.000Z</time>
      </trkpt>
      <trkpt lat="42.98159" lon="0.53768">
        <ele>1511</ele>
        <time>2019-06-30T09:53:42.000Z</time>
      </trkpt>
      <trkpt lat="42.98158" lon="0.53767">
        <ele>1511</ele>
        <time>2019-06-30T09:53:44.000Z</time>
      </trkpt>
      <trkpt lat="42.98159" lon="0.53767">
        <ele>1511</ele>
        <time>2019-06-30T09:53:46.000Z</time>
      </trkpt>
      <trkpt lat="42.98159" lon="0.53766">
        <ele>1511</ele>
        <time>2019-06-30T09:53:48.000Z</time>
      </trkpt>
      <trkpt lat="42.98158" lon="0.53765">
        <ele>1511</ele>
        <time>2019-06-30T09:53:50.000Z</time>
      </trkpt>
      <trkpt lat="42.98158" lon="0.53764">
        <ele>1511</ele>
        <time>2019-06-30T09:53:52.000Z</time>
      </trkpt>
      <trkpt lat="42.98158" lon="0.53762">
        <ele>1511</ele>
        <time>2019-06-30T09:53:54.000Z</time>
      </trkpt>
      <trkpt lat="42.98157" lon="0.53762">
        <ele>1511</ele>
        <time>2019-06-30T09:53:56.000Z</time>
      </trkpt>
      <trkpt lat="42.98157" lon="0.53761">
        <ele>1510</ele>
        <time>2019-06-30T09:53:58.000Z</time>
      </trkpt>
      <trkpt lat="42.98157" lon="0.53761">
        <ele>1510</ele>
        <time>2019-06-30T09:54:00.000Z</time>
      </trkpt>
      <trkpt lat="42.98157" lon="0.53762">
        <ele>1510</ele>
        <time>2019-06-30T09:54:02.000Z</time>
      </trkpt>
      <trkpt lat="42.98156" lon="0.53763">
        <ele>1510</ele>
        <time>2019-06-30T09:54:04.000Z</time>
      </trkpt>
      <trkpt lat="42.98155" lon="0.53764">
        <ele>1509</ele>
        <time>2019-06-30T09:54:06.000Z</time>
      </trkpt>
      <trkpt lat="42.98155" lon="0.53765">
        <ele>1509</ele>
        <time>2019-06-30T09:54:08.000Z</time>
      </trkpt>
      <trkpt lat="42.98155" lon="0.53767">
        <ele>1510</ele>
        <time>2019-06-30T09:54:10.000Z</time>
      </trkpt>
      <trkpt lat="42.98155" lon="0.53768">
        <ele>1510</ele>
        <time>2019-06-30T09:54:12.000Z</time>
      </trkpt>
      <trkpt lat="42.98156" lon="0.53769">
        <ele>1510</ele>
        <time>2019-06-30T09:54:14.000Z</time>
      </trkpt>
      <trkpt lat="42.98155" lon="0.5377">
        <ele>1510</ele>
        <time>2019-06-30T09:54:16.000Z</time>
      </trkpt>
      <trkpt lat="42.98155" lon="0.53769">
        <ele>1510</ele>
        <time>2019-06-30T09:54:18.000Z</time>
      </trkpt>
      <trkpt lat="42.98155" lon="0.5377">
        <ele>1510</ele>
        <time>2019-06-30T09:54:20.000Z</time>
      </trkpt>
      <trkpt lat="42.98154" lon="0.53769">
        <ele>1509</ele>
        <time>2019-06-30T09:54:22.000Z</time>
      </trkpt>
      <trkpt lat="42.98154" lon="0.53771">
        <ele>1509</ele>
        <time>2019-06-30T09:54:24.000Z</time>
      </trkpt>
      <trkpt lat="42.98155" lon="0.53771">
        <ele>1509</ele>
        <time>2019-06-30T09:54:26.000Z</time>
      </trkpt>
      <trkpt lat="42.98155" lon="0.53771">
        <ele>1510</ele>
        <time>2019-06-30T09:54:28.000Z</time>
      </trkpt>
      <trkpt lat="42.98155" lon="0.53771">
        <ele>1510</ele>
        <time>2019-06-30T09:54:30.000Z</time>
      </trkpt>
      <trkpt lat="42.98155" lon="0.53771">
        <ele>1509</ele>
        <time>2019-06-30T09:54:32.000Z</time>
      </trkpt>
      <trkpt lat="42.98155" lon="0.53772">
        <ele>1510</ele>
        <time>2019-06-30T09:54:34.000Z</time>
      </trkpt>
      <trkpt lat="42.98155" lon="0.53772">
        <ele>1510</ele>
        <time>2019-06-30T09:54:36.000Z</time>
      </trkpt>
      <trkpt lat="42.98155" lon="0.53773">
        <ele>1510</ele>
        <time>2019-06-30T09:54:38.000Z</time>
      </trkpt>
      <trkpt lat="42.98155" lon="0.53774">
        <ele>1510</ele>
        <time>2019-06-30T09:54:40.000Z</time>
      </trkpt>
      <trkpt lat="42.98155" lon="0.53773">
        <ele>1510</ele>
        <time>2019-06-30T09:54:42.000Z</time>
      </trkpt>
      <trkpt lat="42.98156" lon="0.53773">
        <ele>1510</ele>
        <time>2019-06-30T09:54:44.000Z</time>
      </trkpt>
      <trkpt lat="42.98156" lon="0.53773">
        <ele>1510</ele>
        <time>2019-06-30T09:54:46.000Z</time>
      </trkpt>
      <trkpt lat="42.98157" lon="0.53774">
        <ele>1510</ele>
        <time>2019-06-30T09:54:48.000Z</time>
      </trkpt>
      <trkpt lat="42.98158" lon="0.53773">
        <ele>1511</ele>
        <time>2019-06-30T09:54:50.000Z</time>
      </trkpt>
      <trkpt lat="42.98159" lon="0.53773">
        <ele>1511</ele>
        <time>2019-06-30T09:54:52.000Z</time>
      </trkpt>
      <trkpt lat="42.98159" lon="0.53772">
        <ele>1512</ele>
        <time>2019-06-30T09:54:54.000Z</time>
      </trkpt>
      <trkpt lat="42.98159" lon="0.53771">
        <ele>1512</ele>
        <time>2019-06-30T09:54:56.000Z</time>
      </trkpt>
      <trkpt lat="42.9816" lon="0.5377">
        <ele>1512</ele>
        <time>2019-06-30T09:54:58.000Z</time>
      </trkpt>
      <trkpt lat="42.9816" lon="0.5377">
        <ele>1512</ele>
        <time>2019-06-30T09:55:00.000Z</time>
      </trkpt>
      <trkpt lat="42.98161" lon="0.5377">
        <ele>1512</ele>
        <time>2019-06-30T09:55:02.000Z</time>
      </trkpt>
      <trkpt lat="42.98161" lon="0.5377">
        <ele>1512</ele>
        <time>2019-06-30T09:55:04.000Z</time>
      </trkpt>
      <trkpt lat="42.98162" lon="0.5377">
        <ele>1513</ele>
        <time>2019-06-30T09:55:06.000Z</time>
      </trkpt>
      <trkpt lat="42.9816" lon="0.5377">
        <ele>1512</ele>
        <time>2019-06-30T09:55:08.000Z</time>
      </trkpt>
      <trkpt lat="42.98158" lon="0.53768">
        <ele>1511</ele>
        <time>2019-06-30T09:55:10.000Z</time>
      </trkpt>
      <trkpt lat="42.98157" lon="0.53768">
        <ele>1510</ele>
        <time>2019-06-30T09:55:12.000Z</time>
      </trkpt>
      <trkpt lat="42.98157" lon="0.53768">
        <ele>1510</ele>
        <time>2019-06-30T09:55:14.000Z</time>
      </trkpt>
      <trkpt lat="42.98156" lon="0.53767">
        <ele>1510</ele>
        <time>2019-06-30T09:55:16.000Z</time>
      </trkpt>
      <trkpt lat="42.98156" lon="0.53768">
        <ele>1510</ele>
        <time>2019-06-30T09:55:18.000Z</time>
      </trkpt>
      <trkpt lat="42.98156" lon="0.53768">
        <ele>1510</ele>
        <time>2019-06-30T09:55:20.000Z</time>
      </trkpt>
      <trkpt lat="42.98156" lon="0.53768">
        <ele>1510</ele>
        <time>2019-06-30T09:55:22.000Z</time>
      </trkpt>
      <trkpt lat="42.98156" lon="0.53767">
        <ele>1510</ele>
        <time>2019-06-30T09:55:24.000Z</time>
      </trkpt>
      <trkpt lat="42.98156" lon="0.53767">
        <ele>1510</ele>
        <time>2019-06-30T09:55:26.000Z</time>
      </trkpt>
      <trkpt lat="42.98157" lon="0.53767">
        <ele>1510</ele>
        <time>2019-06-30T09:55:28.000Z</time>
      </trkpt>
      <trkpt lat="42.98157" lon="0.53767">
        <ele>1511</ele>
        <time>2019-06-30T09:55:30.000Z</time>
      </trkpt>
      <trkpt lat="42.98158" lon="0.53768">
        <ele>1511</ele>
        <time>2019-06-30T09:55:32.000Z</time>
      </trkpt>
      <trkpt lat="42.98158" lon="0.53768">
        <ele>1511</ele>
        <time>2019-06-30T09:55:34.000Z</time>
      </trkpt>
      <trkpt lat="42.98158" lon="0.53768">
        <ele>1511</ele>
        <time>2019-06-30T09:55:36.000Z</time>
      </trkpt>
      <trkpt lat="42.98158" lon="0.53768">
        <ele>1511</ele>
        <time>2019-06-30T09:55:38.000Z</time>
      </trkpt>
      <trkpt lat="42.98158" lon="0.53767">
        <ele>1511</ele>
        <time>2019-06-30T09:55:40.000Z</time>
      </trkpt>
      <trkpt lat="42.98158" lon="0.53767">
        <ele>1511</ele>
        <time>2019-06-30T09:55:42.000Z</time>
      </trkpt>
      <trkpt lat="42.98157" lon="0.53767">
        <ele>1511</ele>
        <time>2019-06-30T09:55:44.000Z</time>
      </trkpt>
      <trkpt lat="42.98157" lon="0.53767">
        <ele>1511</ele>
        <time>2019-06-30T09:55:46.000Z</time>
      </trkpt>
      <trkpt lat="42.98157" lon="0.53766">
        <ele>1511</ele>
        <time>2019-06-30T09:55:48.000Z</time>
      </trkpt>
      <trkpt lat="42.98157" lon="0.53765">
        <ele>1511</ele>
        <time>2019-06-30T09:55:50.000Z</time>
      </trkpt>
      <trkpt lat="42.98157" lon="0.53764">
        <ele>1511</ele>
        <time>2019-06-30T09:55:52.000Z</time>
      </trkpt>
      <trkpt lat="42.98157" lon="0.53763">
        <ele>1511</ele>
        <time>2019-06-30T09:55:54.000Z</time>
      </trkpt>
      <trkpt lat="42.98157" lon="0.53763">
        <ele>1511</ele>
        <time>2019-06-30T09:55:56.000Z</time>
      </trkpt>
      <trkpt lat="42.98157" lon="0.53763">
        <ele>1511</ele>
        <time>2019-06-30T09:55:58.000Z</time>
      </trkpt>
      <trkpt lat="42.98158" lon="0.53764">
        <ele>1511</ele>
        <time>2019-06-30T09:56:00.000Z</time>
      </trkpt>
      <trkpt lat="42.98159" lon="0.53766">
        <ele>1511</ele>
        <time>2019-06-30T09:56:02.000Z</time>
      </trkpt>
      <trkpt lat="42.98159" lon="0.53766">
        <ele>1511</ele>
        <time>2019-06-30T09:56:04.000Z</time>
      </trkpt>
      <trkpt lat="42.98159" lon="0.53767">
        <ele>1511</ele>
        <time>2019-06-30T09:56:06.000Z</time>
      </trkpt>
      <trkpt lat="42.98159" lon="0.53768">
        <ele>1511</ele>
        <time>2019-06-30T09:56:08.000Z</time>
      </trkpt>
      <trkpt lat="42.98159" lon="0.53769">
        <ele>1511</ele>
        <time>2019-06-30T09:56:10.000Z</time>
      </trkpt>
      <trkpt lat="42.98159" lon="0.53771">
        <ele>1512</ele>
        <time>2019-06-30T09:56:12.000Z</time>
      </trkpt>
      <trkpt lat="42.9816" lon="0.53771">
        <ele>1512</ele>
        <time>2019-06-30T09:56:14.000Z</time>
      </trkpt>
      <trkpt lat="42.98159" lon="0.53771">
        <ele>1512</ele>
        <time>2019-06-30T09:56:16.000Z</time>
      </trkpt>
      <trkpt lat="42.98159" lon="0.5377">
        <ele>1511</ele>
        <time>2019-06-30T09:56:18.000Z</time>
      </trkpt>
      <trkpt lat="42.98158" lon="0.5377">
        <ele>1511</ele>
        <time>2019-06-30T09:56:20.000Z</time>
      </trkpt>
      <trkpt lat="42.98159" lon="0.53771">
        <ele>1511</ele>
        <time>2019-06-30T09:56:22.000Z</time>
      </trkpt>
      <trkpt lat="42.98158" lon="0.53771">
        <ele>1511</ele>
        <time>2019-06-30T09:56:24.000Z</time>
      </trkpt>
      <trkpt lat="42.98158" lon="0.53771">
        <ele>1511</ele>
        <time>2019-06-30T09:56:26.000Z</time>
      </trkpt>
      <trkpt lat="42.98158" lon="0.53772">
        <ele>1511</ele>
        <time>2019-06-30T09:56:28.000Z</time>
      </trkpt>
      <trkpt lat="42.98158" lon="0.53772">
        <ele>1511</ele>
        <time>2019-06-30T09:56:30.000Z</time>
      </trkpt>
      <trkpt lat="42.98158" lon="0.53772">
        <ele>1511</ele>
        <time>2019-06-30T09:56:32.000Z</time>
      </trkpt>
      <trkpt lat="42.98158" lon="0.53772">
        <ele>1511</ele>
        <time>2019-06-30T09:56:34.000Z</time>
      </trkpt>
      <trkpt lat="42.98158" lon="0.53773">
        <ele>1511</ele>
        <time>2019-06-30T09:56:36.000Z</time>
      </trkpt>
      <trkpt lat="42.98157" lon="0.53773">
        <ele>1511</ele>
        <time>2019-06-30T09:56:38.000Z</time>
      </trkpt>
      <trkpt lat="42.98157" lon="0.53773">
        <ele>1510</ele>
        <time>2019-06-30T09:56:40.000Z</time>
      </trkpt>
      <trkpt lat="42.98156" lon="0.53771">
        <ele>1510</ele>
        <time>2019-06-30T09:56:42.000Z</time>
      </trkpt>
      <trkpt lat="42.98156" lon="0.53768">
        <ele>1510</ele>
        <time>2019-06-30T09:56:44.000Z</time>
      </trkpt>
      <trkpt lat="42.98156" lon="0.53768">
        <ele>1510</ele>
        <time>2019-06-30T09:56:46.000Z</time>
      </trkpt>
      <trkpt lat="42.98155" lon="0.53768">
        <ele>1510</ele>
        <time>2019-06-30T09:56:48.000Z</time>
      </trkpt>
      <trkpt lat="42.98156" lon="0.53766">
        <ele>1510</ele>
        <time>2019-06-30T09:56:50.000Z</time>
      </trkpt>
      <trkpt lat="42.98156" lon="0.53767">
        <ele>1510</ele>
        <time>2019-06-30T09:56:52.000Z</time>
      </trkpt>
      <trkpt lat="42.98157" lon="0.53767">
        <ele>1510</ele>
        <time>2019-06-30T09:56:54.000Z</time>
      </trkpt>
      <trkpt lat="42.98157" lon="0.53767">
        <ele>1511</ele>
        <time>2019-06-30T09:56:56.000Z</time>
      </trkpt>
      <trkpt lat="42.98158" lon="0.53766">
        <ele>1511</ele>
        <time>2019-06-30T09:56:58.000Z</time>
      </trkpt>
      <trkpt lat="42.98158" lon="0.53765">
        <ele>1511</ele>
        <time>2019-06-30T09:57:00.000Z</time>
      </trkpt>
      <trkpt lat="42.98158" lon="0.53764">
        <ele>1511</ele>
        <time>2019-06-30T09:57:02.000Z</time>
      </trkpt>
      <trkpt lat="42.98158" lon="0.53763">
        <ele>1511</ele>
        <time>2019-06-30T09:57:04.000Z</time>
      </trkpt>
      <trkpt lat="42.98158" lon="0.53763">
        <ele>1511</ele>
        <time>2019-06-30T09:57:06.000Z</time>
      </trkpt>
      <trkpt lat="42.98158" lon="0.53763">
        <ele>1511</ele>
        <time>2019-06-30T09:57:08.000Z</time>
      </trkpt>
      <trkpt lat="42.98158" lon="0.53763">
        <ele>1511</ele>
        <time>2019-06-30T09:57:10.000Z</time>
      </trkpt>
      <trkpt lat="42.98158" lon="0.53763">
        <ele>1511</ele>
        <time>2019-06-30T09:57:12.000Z</time>
      </trkpt>
      <trkpt lat="42.98158" lon="0.53762">
        <ele>1511</ele>
        <time>2019-06-30T09:57:14.000Z</time>
      </trkpt>
      <trkpt lat="42.98157" lon="0.53761">
        <ele>1510</ele>
        <time>2019-06-30T09:57:16.000Z</time>
      </trkpt>
      <trkpt lat="42.98156" lon="0.5376">
        <ele>1510</ele>
        <time>2019-06-30T09:57:18.000Z</time>
      </trkpt>
      <trkpt lat="42.98156" lon="0.53761">
        <ele>1510</ele>
        <time>2019-06-30T09:57:20.000Z</time>
      </trkpt>
      <trkpt lat="42.98156" lon="0.53761">
        <ele>1510</ele>
        <time>2019-06-30T09:57:22.000Z</time>
      </trkpt>
      <trkpt lat="42.98155" lon="0.53762">
        <ele>1510</ele>
        <time>2019-06-30T09:57:24.000Z</time>
      </trkpt>
      <trkpt lat="42.98156" lon="0.53763">
        <ele>1510</ele>
        <time>2019-06-30T09:57:26.000Z</time>
      </trkpt>
      <trkpt lat="42.98157" lon="0.53765">
        <ele>1510</ele>
        <time>2019-06-30T09:57:28.000Z</time>
      </trkpt>
      <trkpt lat="42.98157" lon="0.53766">
        <ele>1510</ele>
        <time>2019-06-30T09:57:30.000Z</time>
      </trkpt>
      <trkpt lat="42.98157" lon="0.53767">
        <ele>1511</ele>
        <time>2019-06-30T09:57:32.000Z</time>
      </trkpt>
      <trkpt lat="42.98158" lon="0.53768">
        <ele>1511</ele>
        <time>2019-06-30T09:57:34.000Z</time>
      </trkpt>
      <trkpt lat="42.98157" lon="0.53767">
        <ele>1511</ele>
        <time>2019-06-30T09:57:36.000Z</time>
      </trkpt>
      <trkpt lat="42.98157" lon="0.53766">
        <ele>1510</ele>
        <time>2019-06-30T09:57:38.000Z</time>
      </trkpt>
      <trkpt lat="42.98157" lon="0.53766">
        <ele>1510</ele>
        <time>2019-06-30T09:57:40.000Z</time>
      </trkpt>
      <trkpt lat="42.98157" lon="0.53767">
        <ele>1510</ele>
        <time>2019-06-30T09:57:42.000Z</time>
      </trkpt>
      <trkpt lat="42.98157" lon="0.53767">
        <ele>1510</ele>
        <time>2019-06-30T09:57:44.000Z</time>
      </trkpt>
      <trkpt lat="42.98157" lon="0.53768">
        <ele>1511</ele>
        <time>2019-06-30T09:57:46.000Z</time>
      </trkpt>
      <trkpt lat="42.98157" lon="0.53768">
        <ele>1511</ele>
        <time>2019-06-30T09:57:48.000Z</time>
      </trkpt>
      <trkpt lat="42.98158" lon="0.5377">
        <ele>1511</ele>
        <time>2019-06-30T09:57:50.000Z</time>
      </trkpt>
      <trkpt lat="42.98158" lon="0.5377">
        <ele>1511</ele>
        <time>2019-06-30T09:57:52.000Z</time>
      </trkpt>
      <trkpt lat="42.98159" lon="0.5377">
        <ele>1511</ele>
        <time>2019-06-30T09:57:54.000Z</time>
      </trkpt>
      <trkpt lat="42.98155" lon="0.53764">
        <ele>1510</ele>
        <time>2019-06-30T09:57:56.000Z</time>
      </trkpt>
      <trkpt lat="42.98155" lon="0.53764">
        <ele>1510</ele>
        <time>2019-06-30T09:57:58.000Z</time>
      </trkpt>
      <trkpt lat="42.98155" lon="0.53763">
        <ele>1510</ele>
        <time>2019-06-30T09:58:00.000Z</time>
      </trkpt>
      <trkpt lat="42.98156" lon="0.53763">
        <ele>1510</ele>
        <time>2019-06-30T09:58:02.000Z</time>
      </trkpt>
      <trkpt lat="42.98155" lon="0.53762">
        <ele>1510</ele>
        <time>2019-06-30T09:58:04.000Z</time>
      </trkpt>
      <trkpt lat="42.98155" lon="0.53762">
        <ele>1510</ele>
        <time>2019-06-30T09:58:06.000Z</time>
      </trkpt>
      <trkpt lat="42.98155" lon="0.53761">
        <ele>1509</ele>
        <time>2019-06-30T09:58:08.000Z</time>
      </trkpt>
      <trkpt lat="42.98154" lon="0.53761">
        <ele>1509</ele>
        <time>2019-06-30T09:58:10.000Z</time>
      </trkpt>
      <trkpt lat="42.98154" lon="0.5376">
        <ele>1509</ele>
        <time>2019-06-30T09:58:12.000Z</time>
      </trkpt>
      <trkpt lat="42.98154" lon="0.5376">
        <ele>1509</ele>
        <time>2019-06-30T09:58:14.000Z</time>
      </trkpt>
      <trkpt lat="42.98154" lon="0.5376">
        <ele>1509</ele>
        <time>2019-06-30T09:58:16.000Z</time>
      </trkpt>
      <trkpt lat="42.98154" lon="0.5376">
        <ele>1509</ele>
        <time>2019-06-30T09:58:18.000Z</time>
      </trkpt>
      <trkpt lat="42.98154" lon="0.53759">
        <ele>1509</ele>
        <time>2019-06-30T09:58:20.000Z</time>
      </trkpt>
      <trkpt lat="42.98154" lon="0.53758">
        <ele>1509</ele>
        <time>2019-06-30T09:58:22.000Z</time>
      </trkpt>
      <trkpt lat="42.98153" lon="0.53759">
        <ele>1509</ele>
        <time>2019-06-30T09:58:24.000Z</time>
      </trkpt>
      <trkpt lat="42.98153" lon="0.53758">
        <ele>1509</ele>
        <time>2019-06-30T09:58:26.000Z</time>
      </trkpt>
      <trkpt lat="42.98154" lon="0.53759">
        <ele>1509</ele>
        <time>2019-06-30T09:58:28.000Z</time>
      </trkpt>
      <trkpt lat="42.98154" lon="0.53759">
        <ele>1509</ele>
        <time>2019-06-30T09:58:30.000Z</time>
      </trkpt>
      <trkpt lat="42.98154" lon="0.53759">
        <ele>1509</ele>
        <time>2019-06-30T09:58:32.000Z</time>
      </trkpt>
      <trkpt lat="42.98154" lon="0.53759">
        <ele>1509</ele>
        <time>2019-06-30T09:58:34.000Z</time>
      </trkpt>
      <trkpt lat="42.98153" lon="0.53759">
        <ele>1509</ele>
        <time>2019-06-30T09:58:36.000Z</time>
      </trkpt>
      <trkpt lat="42.98153" lon="0.53759">
        <ele>1509</ele>
        <time>2019-06-30T09:58:38.000Z</time>
      </trkpt>
      <trkpt lat="42.98153" lon="0.53758">
        <ele>1509</ele>
        <time>2019-06-30T09:58:40.000Z</time>
      </trkpt>
      <trkpt lat="42.98153" lon="0.53758">
        <ele>1509</ele>
        <time>2019-06-30T09:58:42.000Z</time>
      </trkpt>
      <trkpt lat="42.98153" lon="0.53758">
        <ele>1509</ele>
        <time>2019-06-30T09:58:44.000Z</time>
      </trkpt>
      <trkpt lat="42.98153" lon="0.53759">
        <ele>1509</ele>
        <time>2019-06-30T09:58:46.000Z</time>
      </trkpt>
      <trkpt lat="42.98153" lon="0.53759">
        <ele>1509</ele>
        <time>2019-06-30T09:58:48.000Z</time>
      </trkpt>
      <trkpt lat="42.98153" lon="0.53759">
        <ele>1509</ele>
        <time>2019-06-30T09:58:50.000Z</time>
      </trkpt>
      <trkpt lat="42.98153" lon="0.53759">
        <ele>1508</ele>
        <time>2019-06-30T09:58:52.000Z</time>
      </trkpt>
      <trkpt lat="42.98152" lon="0.53759">
        <ele>1508</ele>
        <time>2019-06-30T09:58:54.000Z</time>
      </trkpt>
      <trkpt lat="42.98153" lon="0.53759">
        <ele>1508</ele>
        <time>2019-06-30T09:58:56.000Z</time>
      </trkpt>
      <trkpt lat="42.98153" lon="0.53759">
        <ele>1508</ele>
        <time>2019-06-30T09:58:58.000Z</time>
      </trkpt>
      <trkpt lat="42.98153" lon="0.53759">
        <ele>1508</ele>
        <time>2019-06-30T09:59:00.000Z</time>
      </trkpt>
      <trkpt lat="42.98153" lon="0.53759">
        <ele>1508</ele>
        <time>2019-06-30T09:59:02.000Z</time>
      </trkpt>
      <trkpt lat="42.98153" lon="0.53759">
        <ele>1508</ele>
        <time>2019-06-30T09:59:04.000Z</time>
      </trkpt>
      <trkpt lat="42.98153" lon="0.5376">
        <ele>1508</ele>
        <time>2019-06-30T09:59:06.000Z</time>
      </trkpt>
      <trkpt lat="42.98153" lon="0.5376">
        <ele>1508</ele>
        <time>2019-06-30T09:59:08.000Z</time>
      </trkpt>
      <trkpt lat="42.98153" lon="0.5376">
        <ele>1508</ele>
        <time>2019-06-30T09:59:10.000Z</time>
      </trkpt>
      <trkpt lat="42.98153" lon="0.5376">
        <ele>1509</ele>
        <time>2019-06-30T09:59:12.000Z</time>
      </trkpt>
      <trkpt lat="42.98154" lon="0.53759">
        <ele>1509</ele>
        <time>2019-06-30T09:59:14.000Z</time>
      </trkpt>
      <trkpt lat="42.98154" lon="0.53759">
        <ele>1509</ele>
        <time>2019-06-30T09:59:16.000Z</time>
      </trkpt>
      <trkpt lat="42.98154" lon="0.53758">
        <ele>1509</ele>
        <time>2019-06-30T09:59:18.000Z</time>
      </trkpt>
      <trkpt lat="42.98154" lon="0.53759">
        <ele>1509</ele>
        <time>2019-06-30T09:59:20.000Z</time>
      </trkpt>
      <trkpt lat="42.98154" lon="0.53759">
        <ele>1509</ele>
        <time>2019-06-30T09:59:22.000Z</time>
      </trkpt>
      <trkpt lat="42.98154" lon="0.53759">
        <ele>1509</ele>
        <time>2019-06-30T09:59:24.000Z</time>
      </trkpt>
      <trkpt lat="42.98154" lon="0.53758">
        <ele>1509</ele>
        <time>2019-06-30T09:59:26.000Z</time>
      </trkpt>
      <trkpt lat="42.98153" lon="0.53757">
        <ele>1509</ele>
        <time>2019-06-30T09:59:28.000Z</time>
      </trkpt>
      <trkpt lat="42.98154" lon="0.53757">
        <ele>1509</ele>
        <time>2019-06-30T09:59:30.000Z</time>
      </trkpt>
      <trkpt lat="42.98154" lon="0.53757">
        <ele>1509</ele>
        <time>2019-06-30T09:59:32.000Z</time>
      </trkpt>
      <trkpt lat="42.98154" lon="0.53757">
        <ele>1509</ele>
        <time>2019-06-30T09:59:34.000Z</time>
      </trkpt>
      <trkpt lat="42.98154" lon="0.53757">
        <ele>1509</ele>
        <time>2019-06-30T09:59:36.000Z</time>
      </trkpt>
      <trkpt lat="42.98154" lon="0.53757">
        <ele>1509</ele>
        <time>2019-06-30T09:59:38.000Z</time>
      </trkpt>
      <trkpt lat="42.98153" lon="0.53757">
        <ele>1509</ele>
        <time>2019-06-30T09:59:40.000Z</time>
      </trkpt>
      <trkpt lat="42.98154" lon="0.53757">
        <ele>1509</ele>
        <time>2019-06-30T09:59:42.000Z</time>
      </trkpt>
      <trkpt lat="42.98154" lon="0.53757">
        <ele>1509</ele>
        <time>2019-06-30T09:59:44.000Z</time>
      </trkpt>
      <trkpt lat="42.98154" lon="0.53758">
        <ele>1509</ele>
        <time>2019-06-30T09:59:46.000Z</time>
      </trkpt>
      <trkpt lat="42.98156" lon="0.53758">
        <ele>1510</ele>
        <time>2019-06-30T09:59:48.000Z</time>
      </trkpt>
      <trkpt lat="42.98156" lon="0.53758">
        <ele>1510</ele>
        <time>2019-06-30T09:59:50.000Z</time>
      </trkpt>
      <trkpt lat="42.98157" lon="0.53758">
        <ele>1510</ele>
        <time>2019-06-30T09:59:52.000Z</time>
      </trkpt>
      <trkpt lat="42.98157" lon="0.53758">
        <ele>1510</ele>
        <time>2019-06-30T09:59:54.000Z</time>
      </trkpt>
      <trkpt lat="42.98157" lon="0.53758">
        <ele>1510</ele>
        <time>2019-06-30T09:59:56.000Z</time>
      </trkpt>
      <trkpt lat="42.98157" lon="0.53758">
        <ele>1510</ele>
        <time>2019-06-30T09:59:58.000Z</time>
      </trkpt>
      <trkpt lat="42.98157" lon="0.53758">
        <ele>1510</ele>
        <time>2019-06-30T10:00:00.000Z</time>
      </trkpt>
      <trkpt lat="42.98157" lon="0.53758">
        <ele>1510</ele>
        <time>2019-06-30T10:00:02.000Z</time>
      </trkpt>
      <trkpt lat="42.98157" lon="0.53759">
        <ele>1510</ele>
        <time>2019-06-30T10:00:04.000Z</time>
      </trkpt>
      <trkpt lat="42.98157" lon="0.53759">
        <ele>1511</ele>
        <time>2019-06-30T10:00:06.000Z</time>
      </trkpt>
      <trkpt lat="42.98157" lon="0.53759">
        <ele>1511</ele>
        <time>2019-06-30T10:00:08.000Z</time>
      </trkpt>
      <trkpt lat="42.98157" lon="0.53759">
        <ele>1511</ele>
        <time>2019-06-30T10:00:10.000Z</time>
      </trkpt>
      <trkpt lat="42.98158" lon="0.5376">
        <ele>1511</ele>
        <time>2019-06-30T10:00:12.000Z</time>
      </trkpt>
      <trkpt lat="42.98158" lon="0.53761">
        <ele>1511</ele>
        <time>2019-06-30T10:00:14.000Z</time>
      </trkpt>
      <trkpt lat="42.98158" lon="0.53761">
        <ele>1511</ele>
        <time>2019-06-30T10:00:16.000Z</time>
      </trkpt>
      <trkpt lat="42.98159" lon="0.53761">
        <ele>1512</ele>
        <time>2019-06-30T10:00:18.000Z</time>
      </trkpt>
      <trkpt lat="42.98159" lon="0.53761">
        <ele>1511</ele>
        <time>2019-06-30T10:00:20.000Z</time>
      </trkpt>
      <trkpt lat="42.98159" lon="0.53761">
        <ele>1512</ele>
        <time>2019-06-30T10:00:22.000Z</time>
      </trkpt>
      <trkpt lat="42.98159" lon="0.53761">
        <ele>1511</ele>
        <time>2019-06-30T10:00:24.000Z</time>
      </trkpt>
      <trkpt lat="42.98159" lon="0.53761">
        <ele>1511</ele>
        <time>2019-06-30T10:00:26.000Z</time>
      </trkpt>
      <trkpt lat="42.98159" lon="0.53761">
        <ele>1511</ele>
        <time>2019-06-30T10:00:28.000Z</time>
      </trkpt>
      <trkpt lat="42.98158" lon="0.53761">
        <ele>1511</ele>
        <time>2019-06-30T10:00:30.000Z</time>
      </trkpt>
      <trkpt lat="42.98158" lon="0.53761">
        <ele>1511</ele>
        <time>2019-06-30T10:00:32.000Z</time>
      </trkpt>
      <trkpt lat="42.98158" lon="0.53761">
        <ele>1511</ele>
        <time>2019-06-30T10:00:34.000Z</time>
      </trkpt>
      <trkpt lat="42.98158" lon="0.53761">
        <ele>1511</ele>
        <time>2019-06-30T10:00:36.000Z</time>
      </trkpt>
      <trkpt lat="42.98158" lon="0.53761">
        <ele>1511</ele>
        <time>2019-06-30T10:00:38.000Z</time>
      </trkpt>
      <trkpt lat="42.98158" lon="0.53761">
        <ele>1511</ele>
        <time>2019-06-30T10:00:40.000Z</time>
      </trkpt>
      <trkpt lat="42.98157" lon="0.5376">
        <ele>1511</ele>
        <time>2019-06-30T10:00:42.000Z</time>
      </trkpt>
      <trkpt lat="42.98157" lon="0.5376">
        <ele>1511</ele>
        <time>2019-06-30T10:00:44.000Z</time>
      </trkpt>
      <trkpt lat="42.98157" lon="0.53761">
        <ele>1510</ele>
        <time>2019-06-30T10:00:46.000Z</time>
      </trkpt>
      <trkpt lat="42.98157" lon="0.53761">
        <ele>1510</ele>
        <time>2019-06-30T10:00:48.000Z</time>
      </trkpt>
      <trkpt lat="42.98156" lon="0.53761">
        <ele>1510</ele>
        <time>2019-06-30T10:00:50.000Z</time>
      </trkpt>
      <trkpt lat="42.98156" lon="0.53761">
        <ele>1510</ele>
        <time>2019-06-30T10:00:52.000Z</time>
      </trkpt>
      <trkpt lat="42.98156" lon="0.53761">
        <ele>1510</ele>
        <time>2019-06-30T10:00:54.000Z</time>
      </trkpt>
      <trkpt lat="42.98156" lon="0.53762">
        <ele>1510</ele>
        <time>2019-06-30T10:00:56.000Z</time>
      </trkpt>
      <trkpt lat="42.98156" lon="0.53762">
        <ele>1510</ele>
        <time>2019-06-30T10:00:58.000Z</time>
      </trkpt>
      <trkpt lat="42.98156" lon="0.53763">
        <ele>1510</ele>
        <time>2019-06-30T10:01:00.000Z</time>
      </trkpt>
      <trkpt lat="42.98156" lon="0.53763">
        <ele>1510</ele>
        <time>2019-06-30T10:01:02.000Z</time>
      </trkpt>
      <trkpt lat="42.98156" lon="0.53763">
        <ele>1510</ele>
        <time>2019-06-30T10:01:04.000Z</time>
      </trkpt>
      <trkpt lat="42.98156" lon="0.53763">
        <ele>1510</ele>
        <time>2019-06-30T10:01:06.000Z</time>
      </trkpt>
      <trkpt lat="42.98155" lon="0.53763">
        <ele>1510</ele>
        <time>2019-06-30T10:01:08.000Z</time>
      </trkpt>
      <trkpt lat="42.98155" lon="0.53763">
        <ele>1510</ele>
        <time>2019-06-30T10:01:10.000Z</time>
      </trkpt>
      <trkpt lat="42.98156" lon="0.53762">
        <ele>1510</ele>
        <time>2019-06-30T10:01:12.000Z</time>
      </trkpt>
      <trkpt lat="42.98156" lon="0.53762">
        <ele>1510</ele>
        <time>2019-06-30T10:01:14.000Z</time>
      </trkpt>
      <trkpt lat="42.98156" lon="0.53762">
        <ele>1510</ele>
        <time>2019-06-30T10:01:16.000Z</time>
      </trkpt>
      <trkpt lat="42.98155" lon="0.53761">
        <ele>1510</ele>
        <time>2019-06-30T10:01:18.000Z</time>
      </trkpt>
      <trkpt lat="42.98155" lon="0.53761">
        <ele>1510</ele>
        <time>2019-06-30T10:01:20.000Z</time>
      </trkpt>
      <trkpt lat="42.98155" lon="0.5376">
        <ele>1510</ele>
        <time>2019-06-30T10:01:22.000Z</time>
      </trkpt>
      <trkpt lat="42.98155" lon="0.53759">
        <ele>1509</ele>
        <time>2019-06-30T10:01:24.000Z</time>
      </trkpt>
      <trkpt lat="42.98154" lon="0.53759">
        <ele>1509</ele>
        <time>2019-06-30T10:01:26.000Z</time>
      </trkpt>
      <trkpt lat="42.98154" lon="0.53759">
        <ele>1509</ele>
        <time>2019-06-30T10:01:28.000Z</time>
      </trkpt>
      <trkpt lat="42.98154" lon="0.53759">
        <ele>1509</ele>
        <time>2019-06-30T10:01:30.000Z</time>
      </trkpt>
      <trkpt lat="42.98154" lon="0.5376">
        <ele>1509</ele>
        <time>2019-06-30T10:01:32.000Z</time>
      </trkpt>
      <trkpt lat="42.98154" lon="0.5376">
        <ele>1509</ele>
        <time>2019-06-30T10:01:34.000Z</time>
      </trkpt>
      <trkpt lat="42.98155" lon="0.53761">
        <ele>1509</ele>
        <time>2019-06-30T10:01:36.000Z</time>
      </trkpt>
      <trkpt lat="42.98155" lon="0.53761">
        <ele>1510</ele>
        <time>2019-06-30T10:01:38.000Z</time>
      </trkpt>
      <trkpt lat="42.98155" lon="0.53761">
        <ele>1510</ele>
        <time>2019-06-30T10:01:40.000Z</time>
      </trkpt>
      <trkpt lat="42.98155" lon="0.53761">
        <ele>1510</ele>
        <time>2019-06-30T10:01:42.000Z</time>
      </trkpt>
      <trkpt lat="42.98155" lon="0.5376">
        <ele>1510</ele>
        <time>2019-06-30T10:01:44.000Z</time>
      </trkpt>
      <trkpt lat="42.98155" lon="0.5376">
        <ele>1510</ele>
        <time>2019-06-30T10:01:46.000Z</time>
      </trkpt>
      <trkpt lat="42.98156" lon="0.53761">
        <ele>1510</ele>
        <time>2019-06-30T10:01:48.000Z</time>
      </trkpt>
      <trkpt lat="42.98156" lon="0.53762">
        <ele>1510</ele>
        <time>2019-06-30T10:01:50.000Z</time>
      </trkpt>
      <trkpt lat="42.98156" lon="0.53762">
        <ele>1510</ele>
        <time>2019-06-30T10:01:52.000Z</time>
      </trkpt>
      <trkpt lat="42.98156" lon="0.53762">
        <ele>1510</ele>
        <time>2019-06-30T10:01:54.000Z</time>
      </trkpt>
      <trkpt lat="42.98156" lon="0.53762">
        <ele>1510</ele>
        <time>2019-06-30T10:01:56.000Z</time>
      </trkpt>
      <trkpt lat="42.98156" lon="0.53761">
        <ele>1510</ele>
        <time>2019-06-30T10:01:58.000Z</time>
      </trkpt>
      <trkpt lat="42.98156" lon="0.53761">
        <ele>1510</ele>
        <time>2019-06-30T10:02:00.000Z</time>
      </trkpt>
      <trkpt lat="42.98155" lon="0.53761">
        <ele>1510</ele>
        <time>2019-06-30T10:02:02.000Z</time>
      </trkpt>
      <trkpt lat="42.98155" lon="0.53762">
        <ele>1510</ele>
        <time>2019-06-30T10:02:04.000Z</time>
      </trkpt>
      <trkpt lat="42.98155" lon="0.53762">
        <ele>1510</ele>
        <time>2019-06-30T10:02:06.000Z</time>
      </trkpt>
      <trkpt lat="42.98155" lon="0.53762">
        <ele>1510</ele>
        <time>2019-06-30T10:02:08.000Z</time>
      </trkpt>
      <trkpt lat="42.98155" lon="0.53762">
        <ele>1509</ele>
        <time>2019-06-30T10:02:10.000Z</time>
      </trkpt>
      <trkpt lat="42.98155" lon="0.53762">
        <ele>1509</ele>
        <time>2019-06-30T10:02:12.000Z</time>
      </trkpt>
      <trkpt lat="42.98155" lon="0.53761">
        <ele>1510</ele>
        <time>2019-06-30T10:02:14.000Z</time>
      </trkpt>
      <trkpt lat="42.98155" lon="0.53762">
        <ele>1510</ele>
        <time>2019-06-30T10:02:16.000Z</time>
      </trkpt>
      <trkpt lat="42.98156" lon="0.53762">
        <ele>1510</ele>
        <time>2019-06-30T10:02:18.000Z</time>
      </trkpt>
      <trkpt lat="42.98156" lon="0.53762">
        <ele>1510</ele>
        <time>2019-06-30T10:02:20.000Z</time>
      </trkpt>
      <trkpt lat="42.98156" lon="0.53762">
        <ele>1510</ele>
        <time>2019-06-30T10:02:22.000Z</time>
      </trkpt>
      <trkpt lat="42.98156" lon="0.53761">
        <ele>1510</ele>
        <time>2019-06-30T10:02:24.000Z</time>
      </trkpt>
      <trkpt lat="42.98155" lon="0.53761">
        <ele>1510</ele>
        <time>2019-06-30T10:02:26.000Z</time>
      </trkpt>
      <trkpt lat="42.98155" lon="0.53761">
        <ele>1510</ele>
        <time>2019-06-30T10:02:28.000Z</time>
      </trkpt>
      <trkpt lat="42.98155" lon="0.53761">
        <ele>1509</ele>
        <time>2019-06-30T10:02:30.000Z</time>
      </trkpt>
      <trkpt lat="42.98155" lon="0.5376">
        <ele>1509</ele>
        <time>2019-06-30T10:02:32.000Z</time>
      </trkpt>
      <trkpt lat="42.98154" lon="0.5376">
        <ele>1509</ele>
        <time>2019-06-30T10:02:34.000Z</time>
      </trkpt>
      <trkpt lat="42.98154" lon="0.5376">
        <ele>1509</ele>
        <time>2019-06-30T10:02:36.000Z</time>
      </trkpt>
      <trkpt lat="42.98155" lon="0.5376">
        <ele>1509</ele>
        <time>2019-06-30T10:02:38.000Z</time>
      </trkpt>
      <trkpt lat="42.98155" lon="0.5376">
        <ele>1509</ele>
        <time>2019-06-30T10:02:40.000Z</time>
      </trkpt>
      <trkpt lat="42.98155" lon="0.5376">
        <ele>1509</ele>
        <time>2019-06-30T10:02:42.000Z</time>
      </trkpt>
      <trkpt lat="42.98155" lon="0.5376">
        <ele>1509</ele>
        <time>2019-06-30T10:02:44.000Z</time>
      </trkpt>
      <trkpt lat="42.98155" lon="0.53759">
        <ele>1509</ele>
        <time>2019-06-30T10:02:46.000Z</time>
      </trkpt>
      <trkpt lat="42.98155" lon="0.53759">
        <ele>1510</ele>
        <time>2019-06-30T10:02:48.000Z</time>
      </trkpt>
      <trkpt lat="42.98155" lon="0.5376">
        <ele>1510</ele>
        <time>2019-06-30T10:02:50.000Z</time>
      </trkpt>
      <trkpt lat="42.98155" lon="0.5376">
        <ele>1510</ele>
        <time>2019-06-30T10:02:52.000Z</time>
      </trkpt>
      <trkpt lat="42.98155" lon="0.53761">
        <ele>1510</ele>
        <time>2019-06-30T10:02:54.000Z</time>
      </trkpt>
      <trkpt lat="42.98156" lon="0.53762">
        <ele>1510</ele>
        <time>2019-06-30T10:02:56.000Z</time>
      </trkpt>
      <trkpt lat="42.98156" lon="0.53762">
        <ele>1510</ele>
        <time>2019-06-30T10:02:58.000Z</time>
      </trkpt>
      <trkpt lat="42.98157" lon="0.53762">
        <ele>1510</ele>
        <time>2019-06-30T10:03:00.000Z</time>
      </trkpt>
      <trkpt lat="42.98157" lon="0.53761">
        <ele>1511</ele>
        <time>2019-06-30T10:03:02.000Z</time>
      </trkpt>
      <trkpt lat="42.98158" lon="0.53763">
        <ele>1511</ele>
        <time>2019-06-30T10:03:04.000Z</time>
      </trkpt>
      <trkpt lat="42.98158" lon="0.53764">
        <ele>1511</ele>
        <time>2019-06-30T10:03:06.000Z</time>
      </trkpt>
      <trkpt lat="42.98158" lon="0.53764">
        <ele>1511</ele>
        <time>2019-06-30T10:03:08.000Z</time>
      </trkpt>
      <trkpt lat="42.98158" lon="0.53764">
        <ele>1511</ele>
        <time>2019-06-30T10:03:10.000Z</time>
      </trkpt>
      <trkpt lat="42.98158" lon="0.53763">
        <ele>1511</ele>
        <time>2019-06-30T10:03:12.000Z</time>
      </trkpt>
      <trkpt lat="42.98158" lon="0.53763">
        <ele>1511</ele>
        <time>2019-06-30T10:03:14.000Z</time>
      </trkpt>
      <trkpt lat="42.98159" lon="0.53763">
        <ele>1511</ele>
        <time>2019-06-30T10:03:16.000Z</time>
      </trkpt>
      <trkpt lat="42.98159" lon="0.53762">
        <ele>1511</ele>
        <time>2019-06-30T10:03:18.000Z</time>
      </trkpt>
      <trkpt lat="42.98159" lon="0.53762">
        <ele>1511</ele>
        <time>2019-06-30T10:03:20.000Z</time>
      </trkpt>
      <trkpt lat="42.98159" lon="0.53762">
        <ele>1511</ele>
        <time>2019-06-30T10:03:22.000Z</time>
      </trkpt>
      <trkpt lat="42.98159" lon="0.53762">
        <ele>1511</ele>
        <time>2019-06-30T10:03:24.000Z</time>
      </trkpt>
      <trkpt lat="42.98158" lon="0.53761">
        <ele>1511</ele>
        <time>2019-06-30T10:03:26.000Z</time>
      </trkpt>
      <trkpt lat="42.98158" lon="0.53761">
        <ele>1511</ele>
        <time>2019-06-30T10:03:28.000Z</time>
      </trkpt>
      <trkpt lat="42.98159" lon="0.53761">
        <ele>1511</ele>
        <time>2019-06-30T10:03:30.000Z</time>
      </trkpt>
      <trkpt lat="42.98159" lon="0.53761">
        <ele>1511</ele>
        <time>2019-06-30T10:03:32.000Z</time>
      </trkpt>
      <trkpt lat="42.98159" lon="0.53761">
        <ele>1512</ele>
        <time>2019-06-30T10:03:34.000Z</time>
      </trkpt>
      <trkpt lat="42.98159" lon="0.53761">
        <ele>1512</ele>
        <time>2019-06-30T10:03:36.000Z</time>
      </trkpt>
      <trkpt lat="42.9816" lon="0.53761">
        <ele>1512</ele>
        <time>2019-06-30T10:03:38.000Z</time>
      </trkpt>
      <trkpt lat="42.98161" lon="0.53761">
        <ele>1512</ele>
        <time>2019-06-30T10:03:40.000Z</time>
      </trkpt>
      <trkpt lat="42.98161" lon="0.5376">
        <ele>1512</ele>
        <time>2019-06-30T10:03:42.000Z</time>
      </trkpt>
      <trkpt lat="42.98161" lon="0.5376">
        <ele>1512</ele>
        <time>2019-06-30T10:03:44.000Z</time>
      </trkpt>
      <trkpt lat="42.9816" lon="0.5376">
        <ele>1512</ele>
        <time>2019-06-30T10:03:46.000Z</time>
      </trkpt>
      <trkpt lat="42.9816" lon="0.53759">
        <ele>1512</ele>
        <time>2019-06-30T10:03:48.000Z</time>
      </trkpt>
      <trkpt lat="42.9816" lon="0.53759">
        <ele>1512</ele>
        <time>2019-06-30T10:03:50.000Z</time>
      </trkpt>
      <trkpt lat="42.9816" lon="0.5376">
        <ele>1512</ele>
        <time>2019-06-30T10:03:52.000Z</time>
      </trkpt>
      <trkpt lat="42.98161" lon="0.5376">
        <ele>1512</ele>
        <time>2019-06-30T10:03:54.000Z</time>
      </trkpt>
      <trkpt lat="42.98161" lon="0.5376">
        <ele>1512</ele>
        <time>2019-06-30T10:03:56.000Z</time>
      </trkpt>
      <trkpt lat="42.9816" lon="0.5376">
        <ele>1512</ele>
        <time>2019-06-30T10:03:58.000Z</time>
      </trkpt>
      <trkpt lat="42.9816" lon="0.53759">
        <ele>1512</ele>
        <time>2019-06-30T10:04:00.000Z</time>
      </trkpt>
      <trkpt lat="42.9816" lon="0.53759">
        <ele>1512</ele>
        <time>2019-06-30T10:04:02.000Z</time>
      </trkpt>
      <trkpt lat="42.98159" lon="0.53758">
        <ele>1512</ele>
        <time>2019-06-30T10:04:04.000Z</time>
      </trkpt>
      <trkpt lat="42.98159" lon="0.53758">
        <ele>1512</ele>
        <time>2019-06-30T10:04:06.000Z</time>
      </trkpt>
      <trkpt lat="42.98159" lon="0.53758">
        <ele>1511</ele>
        <time>2019-06-30T10:04:08.000Z</time>
      </trkpt>
      <trkpt lat="42.98159" lon="0.53758">
        <ele>1511</ele>
        <time>2019-06-30T10:04:10.000Z</time>
      </trkpt>
      <trkpt lat="42.98159" lon="0.53758">
        <ele>1511</ele>
        <time>2019-06-30T10:04:12.000Z</time>
      </trkpt>
      <trkpt lat="42.98159" lon="0.53758">
        <ele>1511</ele>
        <time>2019-06-30T10:04:14.000Z</time>
      </trkpt>
      <trkpt lat="42.98159" lon="0.53757">
        <ele>1511</ele>
        <time>2019-06-30T10:04:16.000Z</time>
      </trkpt>
      <trkpt lat="42.98159" lon="0.53757">
        <ele>1511</ele>
        <time>2019-06-30T10:04:18.000Z</time>
      </trkpt>
      <trkpt lat="42.98159" lon="0.53757">
        <ele>1511</ele>
        <time>2019-06-30T10:04:20.000Z</time>
      </trkpt>
      <trkpt lat="42.98159" lon="0.53757">
        <ele>1511</ele>
        <time>2019-06-30T10:04:22.000Z</time>
      </trkpt>
      <trkpt lat="42.98159" lon="0.53757">
        <ele>1511</ele>
        <time>2019-06-30T10:04:24.000Z</time>
      </trkpt>
      <trkpt lat="42.98159" lon="0.53757">
        <ele>1511</ele>
        <time>2019-06-30T10:04:26.000Z</time>
      </trkpt>
      <trkpt lat="42.98159" lon="0.53757">
        <ele>1511</ele>
        <time>2019-06-30T10:04:28.000Z</time>
      </trkpt>
      <trkpt lat="42.98158" lon="0.53756">
        <ele>1511</ele>
        <time>2019-06-30T10:04:30.000Z</time>
      </trkpt>
      <trkpt lat="42.98158" lon="0.53756">
        <ele>1511</ele>
        <time>2019-06-30T10:04:32.000Z</time>
      </trkpt>
      <trkpt lat="42.98158" lon="0.53756">
        <ele>1511</ele>
        <time>2019-06-30T10:04:34.000Z</time>
      </trkpt>
      <trkpt lat="42.98158" lon="0.53755">
        <ele>1511</ele>
        <time>2019-06-30T10:04:36.000Z</time>
      </trkpt>
      <trkpt lat="42.98157" lon="0.53755">
        <ele>1511</ele>
        <time>2019-06-30T10:04:38.000Z</time>
      </trkpt>
      <trkpt lat="42.98157" lon="0.53755">
        <ele>1510</ele>
        <time>2019-06-30T10:04:40.000Z</time>
      </trkpt>
      <trkpt lat="42.98157" lon="0.53756">
        <ele>1511</ele>
        <time>2019-06-30T10:04:42.000Z</time>
      </trkpt>
      <trkpt lat="42.98157" lon="0.53756">
        <ele>1511</ele>
        <time>2019-06-30T10:04:44.000Z</time>
      </trkpt>
      <trkpt lat="42.98158" lon="0.53756">
        <ele>1511</ele>
        <time>2019-06-30T10:04:46.000Z</time>
      </trkpt>
      <trkpt lat="42.98158" lon="0.53756">
        <ele>1511</ele>
        <time>2019-06-30T10:04:48.000Z</time>
      </trkpt>
      <trkpt lat="42.98158" lon="0.53756">
        <ele>1511</ele>
        <time>2019-06-30T10:04:50.000Z</time>
      </trkpt>
      <trkpt lat="42.98158" lon="0.53756">
        <ele>1511</ele>
        <time>2019-06-30T10:04:52.000Z</time>
      </trkpt>
      <trkpt lat="42.98158" lon="0.53756">
        <ele>1511</ele>
        <time>2019-06-30T10:04:54.000Z</time>
      </trkpt>
      <trkpt lat="42.98158" lon="0.53756">
        <ele>1511</ele>
        <time>2019-06-30T10:04:56.000Z</time>
      </trkpt>
      <trkpt lat="42.98158" lon="0.53756">
        <ele>1511</ele>
        <time>2019-06-30T10:04:58.000Z</time>
      </trkpt>
      <trkpt lat="42.98158" lon="0.53756">
        <ele>1511</ele>
        <time>2019-06-30T10:05:00.000Z</time>
      </trkpt>
      <trkpt lat="42.98158" lon="0.53756">
        <ele>1511</ele>
        <time>2019-06-30T10:05:02.000Z</time>
      </trkpt>
      <trkpt lat="42.98158" lon="0.53756">
        <ele>1511</ele>
        <time>2019-06-30T10:05:04.000Z</time>
      </trkpt>
      <trkpt lat="42.98158" lon="0.53756">
        <ele>1511</ele>
        <time>2019-06-30T10:05:06.000Z</time>
      </trkpt>
      <trkpt lat="42.98158" lon="0.53756">
        <ele>1511</ele>
        <time>2019-06-30T10:05:08.000Z</time>
      </trkpt>
      <trkpt lat="42.98158" lon="0.53757">
        <ele>1511</ele>
        <time>2019-06-30T10:05:10.000Z</time>
      </trkpt>
      <trkpt lat="42.98158" lon="0.53757">
        <ele>1511</ele>
        <time>2019-06-30T10:05:12.000Z</time>
      </trkpt>
      <trkpt lat="42.98157" lon="0.53758">
        <ele>1511</ele>
        <time>2019-06-30T10:05:14.000Z</time>
      </trkpt>
      <trkpt lat="42.98158" lon="0.53758">
        <ele>1511</ele>
        <time>2019-06-30T10:05:16.000Z</time>
      </trkpt>
      <trkpt lat="42.98158" lon="0.53759">
        <ele>1511</ele>
        <time>2019-06-30T10:05:18.000Z</time>
      </trkpt>
      <trkpt lat="42.98158" lon="0.53759">
        <ele>1511</ele>
        <time>2019-06-30T10:05:20.000Z</time>
      </trkpt>
      <trkpt lat="42.98158" lon="0.53759">
        <ele>1511</ele>
        <time>2019-06-30T10:05:22.000Z</time>
      </trkpt>
      <trkpt lat="42.98158" lon="0.5376">
        <ele>1511</ele>
        <time>2019-06-30T10:05:24.000Z</time>
      </trkpt>
      <trkpt lat="42.98158" lon="0.5376">
        <ele>1511</ele>
        <time>2019-06-30T10:05:26.000Z</time>
      </trkpt>
      <trkpt lat="42.98158" lon="0.53761">
        <ele>1511</ele>
        <time>2019-06-30T10:05:28.000Z</time>
      </trkpt>
      <trkpt lat="42.98158" lon="0.5376">
        <ele>1511</ele>
        <time>2019-06-30T10:05:30.000Z</time>
      </trkpt>
      <trkpt lat="42.98158" lon="0.53761">
        <ele>1511</ele>
        <time>2019-06-30T10:05:32.000Z</time>
      </trkpt>
      <trkpt lat="42.98158" lon="0.53761">
        <ele>1511</ele>
        <time>2019-06-30T10:05:34.000Z</time>
      </trkpt>
      <trkpt lat="42.98158" lon="0.5376">
        <ele>1511</ele>
        <time>2019-06-30T10:05:36.000Z</time>
      </trkpt>
      <trkpt lat="42.98158" lon="0.53761">
        <ele>1511</ele>
        <time>2019-06-30T10:05:38.000Z</time>
      </trkpt>
      <trkpt lat="42.98158" lon="0.53761">
        <ele>1511</ele>
        <time>2019-06-30T10:05:40.000Z</time>
      </trkpt>
      <trkpt lat="42.98158" lon="0.53761">
        <ele>1511</ele>
        <time>2019-06-30T10:05:42.000Z</time>
      </trkpt>
      <trkpt lat="42.98158" lon="0.53761">
        <ele>1511</ele>
        <time>2019-06-30T10:05:44.000Z</time>
      </trkpt>
      <trkpt lat="42.98158" lon="0.53761">
        <ele>1511</ele>
        <time>2019-06-30T10:05:46.000Z</time>
      </trkpt>
      <trkpt lat="42.98158" lon="0.53761">
        <ele>1511</ele>
        <time>2019-06-30T10:05:48.000Z</time>
      </trkpt>
      <trkpt lat="42.98159" lon="0.53761">
        <ele>1511</ele>
        <time>2019-06-30T10:05:50.000Z</time>
      </trkpt>
      <trkpt lat="42.98158" lon="0.53761">
        <ele>1511</ele>
        <time>2019-06-30T10:05:52.000Z</time>
      </trkpt>
      <trkpt lat="42.98158" lon="0.53761">
        <ele>1511</ele>
        <time>2019-06-30T10:05:54.000Z</time>
      </trkpt>
      <trkpt lat="42.98159" lon="0.5376">
        <ele>1511</ele>
        <time>2019-06-30T10:05:56.000Z</time>
      </trkpt>
      <trkpt lat="42.98159" lon="0.5376">
        <ele>1511</ele>
        <time>2019-06-30T10:05:58.000Z</time>
      </trkpt>
      <trkpt lat="42.98159" lon="0.5376">
        <ele>1511</ele>
        <time>2019-06-30T10:06:00.000Z</time>
      </trkpt>
      <trkpt lat="42.98159" lon="0.5376">
        <ele>1511</ele>
        <time>2019-06-30T10:06:02.000Z</time>
      </trkpt>
      <trkpt lat="42.98159" lon="0.53761">
        <ele>1512</ele>
        <time>2019-06-30T10:06:04.000Z</time>
      </trkpt>
      <trkpt lat="42.9816" lon="0.53761">
        <ele>1512</ele>
        <time>2019-06-30T10:06:06.000Z</time>
      </trkpt>
      <trkpt lat="42.9816" lon="0.5376">
        <ele>1512</ele>
        <time>2019-06-30T10:06:08.000Z</time>
      </trkpt>
      <trkpt lat="42.9816" lon="0.5376">
        <ele>1512</ele>
        <time>2019-06-30T10:06:10.000Z</time>
      </trkpt>
      <trkpt lat="42.98161" lon="0.5376">
        <ele>1512</ele>
        <time>2019-06-30T10:06:12.000Z</time>
      </trkpt>
      <trkpt lat="42.98161" lon="0.5376">
        <ele>1512</ele>
        <time>2019-06-30T10:06:14.000Z</time>
      </trkpt>
      <trkpt lat="42.98161" lon="0.5376">
        <ele>1512</ele>
        <time>2019-06-30T10:06:16.000Z</time>
      </trkpt>
      <trkpt lat="42.98161" lon="0.5376">
        <ele>1512</ele>
        <time>2019-06-30T10:06:18.000Z</time>
      </trkpt>
      <trkpt lat="42.98161" lon="0.5376">
        <ele>1512</ele>
        <time>2019-06-30T10:06:20.000Z</time>
      </trkpt>
      <trkpt lat="42.9816" lon="0.5376">
        <ele>1512</ele>
        <time>2019-06-30T10:06:22.000Z</time>
      </trkpt>
      <trkpt lat="42.9816" lon="0.5376">
        <ele>1512</ele>
        <time>2019-06-30T10:06:24.000Z</time>
      </trkpt>
      <trkpt lat="42.9816" lon="0.53759">
        <ele>1512</ele>
        <time>2019-06-30T10:06:26.000Z</time>
      </trkpt>
      <trkpt lat="42.98159" lon="0.53759">
        <ele>1512</ele>
        <time>2019-06-30T10:06:28.000Z</time>
      </trkpt>
      <trkpt lat="42.9816" lon="0.53758">
        <ele>1512</ele>
        <time>2019-06-30T10:06:30.000Z</time>
      </trkpt>
      <trkpt lat="42.98159" lon="0.53758">
        <ele>1512</ele>
        <time>2019-06-30T10:06:32.000Z</time>
      </trkpt>
      <trkpt lat="42.98159" lon="0.53758">
        <ele>1511</ele>
        <time>2019-06-30T10:06:34.000Z</time>
      </trkpt>
      <trkpt lat="42.98158" lon="0.53758">
        <ele>1511</ele>
        <time>2019-06-30T10:06:36.000Z</time>
      </trkpt>
      <trkpt lat="42.98158" lon="0.53758">
        <ele>1511</ele>
        <time>2019-06-30T10:06:38.000Z</time>
      </trkpt>
      <trkpt lat="42.98158" lon="0.53758">
        <ele>1511</ele>
        <time>2019-06-30T10:06:40.000Z</time>
      </trkpt>
      <trkpt lat="42.98158" lon="0.53758">
        <ele>1511</ele>
        <time>2019-06-30T10:06:42.000Z</time>
      </trkpt>
      <trkpt lat="42.98158" lon="0.53759">
        <ele>1511</ele>
        <time>2019-06-30T10:06:44.000Z</time>
      </trkpt>
      <trkpt lat="42.98158" lon="0.53758">
        <ele>1511</ele>
        <time>2019-06-30T10:06:46.000Z</time>
      </trkpt>
      <trkpt lat="42.98157" lon="0.53758">
        <ele>1511</ele>
        <time>2019-06-30T10:06:48.000Z</time>
      </trkpt>
      <trkpt lat="42.98157" lon="0.53758">
        <ele>1510</ele>
        <time>2019-06-30T10:06:50.000Z</time>
      </trkpt>
      <trkpt lat="42.98156" lon="0.53758">
        <ele>1510</ele>
        <time>2019-06-30T10:06:52.000Z</time>
      </trkpt>
      <trkpt lat="42.98154" lon="0.53757">
        <ele>1509</ele>
        <time>2019-06-30T10:06:54.000Z</time>
      </trkpt>
      <trkpt lat="42.98154" lon="0.53758">
        <ele>1509</ele>
        <time>2019-06-30T10:06:56.000Z</time>
      </trkpt>
      <trkpt lat="42.98156" lon="0.53758">
        <ele>1510</ele>
        <time>2019-06-30T10:06:58.000Z</time>
      </trkpt>
      <trkpt lat="42.98157" lon="0.53758">
        <ele>1510</ele>
        <time>2019-06-30T10:07:00.000Z</time>
      </trkpt>
      <trkpt lat="42.98157" lon="0.53758">
        <ele>1510</ele>
        <time>2019-06-30T10:07:02.000Z</time>
      </trkpt>
      <trkpt lat="42.98157" lon="0.53758">
        <ele>1510</ele>
        <time>2019-06-30T10:07:04.000Z</time>
      </trkpt>
      <trkpt lat="42.98157" lon="0.53758">
        <ele>1510</ele>
        <time>2019-06-30T10:07:06.000Z</time>
      </trkpt>
      <trkpt lat="42.98157" lon="0.53759">
        <ele>1511</ele>
        <time>2019-06-30T10:07:08.000Z</time>
      </trkpt>
      <trkpt lat="42.98157" lon="0.53759">
        <ele>1511</ele>
        <time>2019-06-30T10:07:10.000Z</time>
      </trkpt>
      <trkpt lat="42.98157" lon="0.53759">
        <ele>1511</ele>
        <time>2019-06-30T10:07:12.000Z</time>
      </trkpt>
      <trkpt lat="42.98158" lon="0.53758">
        <ele>1511</ele>
        <time>2019-06-30T10:07:14.000Z</time>
      </trkpt>
      <trkpt lat="42.98158" lon="0.53758">
        <ele>1511</ele>
        <time>2019-06-30T10:07:16.000Z</time>
      </trkpt>
      <trkpt lat="42.98158" lon="0.53758">
        <ele>1511</ele>
        <time>2019-06-30T10:07:18.000Z</time>
      </trkpt>
      <trkpt lat="42.98158" lon="0.53758">
        <ele>1511</ele>
        <time>2019-06-30T10:07:20.000Z</time>
      </trkpt>
      <trkpt lat="42.98158" lon="0.53758">
        <ele>1511</ele>
        <time>2019-06-30T10:07:22.000Z</time>
      </trkpt>
      <trkpt lat="42.98158" lon="0.53758">
        <ele>1511</ele>
        <time>2019-06-30T10:07:24.000Z</time>
      </trkpt>
      <trkpt lat="42.98158" lon="0.53757">
        <ele>1511</ele>
        <time>2019-06-30T10:07:26.000Z</time>
      </trkpt>
      <trkpt lat="42.98158" lon="0.53757">
        <ele>1511</ele>
        <time>2019-06-30T10:07:28.000Z</time>
      </trkpt>
      <trkpt lat="42.98158" lon="0.53757">
        <ele>1511</ele>
        <time>2019-06-30T10:07:30.000Z</time>
      </trkpt>
      <trkpt lat="42.98158" lon="0.53757">
        <ele>1511</ele>
        <time>2019-06-30T10:07:32.000Z</time>
      </trkpt>
      <trkpt lat="42.98158" lon="0.53757">
        <ele>1511</ele>
        <time>2019-06-30T10:07:34.000Z</time>
      </trkpt>
      <trkpt lat="42.98158" lon="0.53757">
        <ele>1511</ele>
        <time>2019-06-30T10:07:36.000Z</time>
      </trkpt>
      <trkpt lat="42.98158" lon="0.53757">
        <ele>1511</ele>
        <time>2019-06-30T10:07:38.000Z</time>
      </trkpt>
      <trkpt lat="42.98158" lon="0.53757">
        <ele>1511</ele>
        <time>2019-06-30T10:07:40.000Z</time>
      </trkpt>
      <trkpt lat="42.98158" lon="0.53757">
        <ele>1511</ele>
        <time>2019-06-30T10:07:42.000Z</time>
      </trkpt>
      <trkpt lat="42.98158" lon="0.53757">
        <ele>1511</ele>
        <time>2019-06-30T10:07:44.000Z</time>
      </trkpt>
      <trkpt lat="42.98158" lon="0.53757">
        <ele>1511</ele>
        <time>2019-06-30T10:07:46.000Z</time>
      </trkpt>
      <trkpt lat="42.98158" lon="0.53757">
        <ele>1511</ele>
        <time>2019-06-30T10:07:48.000Z</time>
      </trkpt>
      <trkpt lat="42.98158" lon="0.53758">
        <ele>1511</ele>
        <time>2019-06-30T10:07:50.000Z</time>
      </trkpt>
      <trkpt lat="42.98158" lon="0.53758">
        <ele>1511</ele>
        <time>2019-06-30T10:07:52.000Z</time>
      </trkpt>
      <trkpt lat="42.98158" lon="0.53758">
        <ele>1511</ele>
        <time>2019-06-30T10:07:54.000Z</time>
      </trkpt>
      <trkpt lat="42.98158" lon="0.53758">
        <ele>1511</ele>
        <time>2019-06-30T10:07:56.000Z</time>
      </trkpt>
      <trkpt lat="42.98158" lon="0.53758">
        <ele>1511</ele>
        <time>2019-06-30T10:07:58.000Z</time>
      </trkpt>
      <trkpt lat="42.98158" lon="0.53758">
        <ele>1511</ele>
        <time>2019-06-30T10:08:00.000Z</time>
      </trkpt>
      <trkpt lat="42.98158" lon="0.53758">
        <ele>1511</ele>
        <time>2019-06-30T10:08:02.000Z</time>
      </trkpt>
      <trkpt lat="42.98158" lon="0.53758">
        <ele>1511</ele>
        <time>2019-06-30T10:08:04.000Z</time>
      </trkpt>
      <trkpt lat="42.98158" lon="0.53758">
        <ele>1511</ele>
        <time>2019-06-30T10:08:06.000Z</time>
      </trkpt>
      <trkpt lat="42.98158" lon="0.53758">
        <ele>1511</ele>
        <time>2019-06-30T10:08:08.000Z</time>
      </trkpt>
      <trkpt lat="42.98158" lon="0.53757">
        <ele>1511</ele>
        <time>2019-06-30T10:08:10.000Z</time>
      </trkpt>
      <trkpt lat="42.98158" lon="0.53758">
        <ele>1511</ele>
        <time>2019-06-30T10:08:12.000Z</time>
      </trkpt>
      <trkpt lat="42.98158" lon="0.53758">
        <ele>1511</ele>
        <time>2019-06-30T10:08:14.000Z</time>
      </trkpt>
      <trkpt lat="42.98158" lon="0.53758">
        <ele>1511</ele>
        <time>2019-06-30T10:08:16.000Z</time>
      </trkpt>
      <trkpt lat="42.98158" lon="0.53758">
        <ele>1511</ele>
        <time>2019-06-30T10:08:18.000Z</time>
      </trkpt>
      <trkpt lat="42.98158" lon="0.53758">
        <ele>1511</ele>
        <time>2019-06-30T10:08:20.000Z</time>
      </trkpt>
      <trkpt lat="42.98157" lon="0.53758">
        <ele>1511</ele>
        <time>2019-06-30T10:08:22.000Z</time>
      </trkpt>
      <trkpt lat="42.98158" lon="0.53758">
        <ele>1511</ele>
        <time>2019-06-30T10:08:24.000Z</time>
      </trkpt>
      <trkpt lat="42.98157" lon="0.53758">
        <ele>1511</ele>
        <time>2019-06-30T10:08:26.000Z</time>
      </trkpt>
      <trkpt lat="42.98157" lon="0.53758">
        <ele>1511</ele>
        <time>2019-06-30T10:08:28.000Z</time>
      </trkpt>
      <trkpt lat="42.98157" lon="0.53759">
        <ele>1511</ele>
        <time>2019-06-30T10:08:30.000Z</time>
      </trkpt>
      <trkpt lat="42.98157" lon="0.53759">
        <ele>1511</ele>
        <time>2019-06-30T10:08:32.000Z</time>
      </trkpt>
      <trkpt lat="42.98157" lon="0.5376">
        <ele>1510</ele>
        <time>2019-06-30T10:08:34.000Z</time>
      </trkpt>
      <trkpt lat="42.98157" lon="0.5376">
        <ele>1510</ele>
        <time>2019-06-30T10:08:36.000Z</time>
      </trkpt>
      <trkpt lat="42.98157" lon="0.5376">
        <ele>1510</ele>
        <time>2019-06-30T10:08:38.000Z</time>
      </trkpt>
      <trkpt lat="42.98156" lon="0.5376">
        <ele>1510</ele>
        <time>2019-06-30T10:08:40.000Z</time>
      </trkpt>
      <trkpt lat="42.98156" lon="0.5376">
        <ele>1510</ele>
        <time>2019-06-30T10:08:42.000Z</time>
      </trkpt>
      <trkpt lat="42.98156" lon="0.5376">
        <ele>1510</ele>
        <time>2019-06-30T10:08:44.000Z</time>
      </trkpt>
      <trkpt lat="42.98156" lon="0.5376">
        <ele>1510</ele>
        <time>2019-06-30T10:08:46.000Z</time>
      </trkpt>
      <trkpt lat="42.98156" lon="0.5376">
        <ele>1510</ele>
        <time>2019-06-30T10:08:48.000Z</time>
      </trkpt>
      <trkpt lat="42.98156" lon="0.5376">
        <ele>1510</ele>
        <time>2019-06-30T10:08:50.000Z</time>
      </trkpt>
      <trkpt lat="42.98157" lon="0.5376">
        <ele>1510</ele>
        <time>2019-06-30T10:08:52.000Z</time>
      </trkpt>
      <trkpt lat="42.98157" lon="0.5376">
        <ele>1510</ele>
        <time>2019-06-30T10:08:54.000Z</time>
      </trkpt>
      <trkpt lat="42.98157" lon="0.5376">
        <ele>1510</ele>
        <time>2019-06-30T10:08:56.000Z</time>
      </trkpt>
      <trkpt lat="42.98157" lon="0.5376">
        <ele>1510</ele>
        <time>2019-06-30T10:08:58.000Z</time>
      </trkpt>
      <trkpt lat="42.98157" lon="0.5376">
        <ele>1510</ele>
        <time>2019-06-30T10:09:00.000Z</time>
      </trkpt>
      <trkpt lat="42.98157" lon="0.5376">
        <ele>1510</ele>
        <time>2019-06-30T10:09:02.000Z</time>
      </trkpt>
      <trkpt lat="42.98157" lon="0.5376">
        <ele>1510</ele>
        <time>2019-06-30T10:09:04.000Z</time>
      </trkpt>
      <trkpt lat="42.98157" lon="0.5376">
        <ele>1510</ele>
        <time>2019-06-30T10:09:06.000Z</time>
      </trkpt>
      <trkpt lat="42.98156" lon="0.5376">
        <ele>1510</ele>
        <time>2019-06-30T10:09:08.000Z</time>
      </trkpt>
      <trkpt lat="42.98156" lon="0.5376">
        <ele>1510</ele>
        <time>2019-06-30T10:09:10.000Z</time>
      </trkpt>
      <trkpt lat="42.98156" lon="0.5376">
        <ele>1510</ele>
        <time>2019-06-30T10:09:12.000Z</time>
      </trkpt>
      <trkpt lat="42.98156" lon="0.5376">
        <ele>1510</ele>
        <time>2019-06-30T10:09:14.000Z</time>
      </trkpt>
      <trkpt lat="42.98156" lon="0.53759">
        <ele>1510</ele>
        <time>2019-06-30T10:09:16.000Z</time>
      </trkpt>
      <trkpt lat="42.98156" lon="0.53759">
        <ele>1510</ele>
        <time>2019-06-30T10:09:18.000Z</time>
      </trkpt>
      <trkpt lat="42.98156" lon="0.53759">
        <ele>1510</ele>
        <time>2019-06-30T10:09:20.000Z</time>
      </trkpt>
      <trkpt lat="42.98156" lon="0.53759">
        <ele>1510</ele>
        <time>2019-06-30T10:09:22.000Z</time>
      </trkpt>
      <trkpt lat="42.98156" lon="0.53759">
        <ele>1510</ele>
        <time>2019-06-30T10:09:24.000Z</time>
      </trkpt>
      <trkpt lat="42.98157" lon="0.53759">
        <ele>1510</ele>
        <time>2019-06-30T10:09:26.000Z</time>
      </trkpt>
      <trkpt lat="42.98156" lon="0.53759">
        <ele>1510</ele>
        <time>2019-06-30T10:09:28.000Z</time>
      </trkpt>
      <trkpt lat="42.98156" lon="0.53759">
        <ele>1510</ele>
        <time>2019-06-30T10:09:30.000Z</time>
      </trkpt>
      <trkpt lat="42.98156" lon="0.53759">
        <ele>1510</ele>
        <time>2019-06-30T10:09:32.000Z</time>
      </trkpt>
      <trkpt lat="42.98156" lon="0.53759">
        <ele>1510</ele>
        <time>2019-06-30T10:09:34.000Z</time>
      </trkpt>
      <trkpt lat="42.98157" lon="0.53759">
        <ele>1510</ele>
        <time>2019-06-30T10:09:36.000Z</time>
      </trkpt>
      <trkpt lat="42.98157" lon="0.53759">
        <ele>1510</ele>
        <time>2019-06-30T10:09:38.000Z</time>
      </trkpt>
      <trkpt lat="42.98157" lon="0.53759">
        <ele>1511</ele>
        <time>2019-06-30T10:09:40.000Z</time>
      </trkpt>
      <trkpt lat="42.98158" lon="0.53759">
        <ele>1511</ele>
        <time>2019-06-30T10:09:42.000Z</time>
      </trkpt>
      <trkpt lat="42.98158" lon="0.53759">
        <ele>1511</ele>
        <time>2019-06-30T10:09:44.000Z</time>
      </trkpt>
      <trkpt lat="42.98158" lon="0.53759">
        <ele>1511</ele>
        <time>2019-06-30T10:09:46.000Z</time>
      </trkpt>
      <trkpt lat="42.98158" lon="0.53759">
        <ele>1511</ele>
        <time>2019-06-30T10:09:48.000Z</time>
      </trkpt>
      <trkpt lat="42.98159" lon="0.53759">
        <ele>1511</ele>
        <time>2019-06-30T10:09:50.000Z</time>
      </trkpt>
      <trkpt lat="42.98158" lon="0.53759">
        <ele>1511</ele>
        <time>2019-06-30T10:09:52.000Z</time>
      </trkpt>
      <trkpt lat="42.98159" lon="0.53759">
        <ele>1511</ele>
        <time>2019-06-30T10:09:54.000Z</time>
      </trkpt>
      <trkpt lat="42.98158" lon="0.53759">
        <ele>1511</ele>
        <time>2019-06-30T10:09:56.000Z</time>
      </trkpt>
      <trkpt lat="42.98158" lon="0.53759">
        <ele>1511</ele>
        <time>2019-06-30T10:09:58.000Z</time>
      </trkpt>
      <trkpt lat="42.98158" lon="0.53759">
        <ele>1511</ele>
        <time>2019-06-30T10:10:00.000Z</time>
      </trkpt>
      <trkpt lat="42.98158" lon="0.53759">
        <ele>1511</ele>
        <time>2019-06-30T10:10:02.000Z</time>
      </trkpt>
      <trkpt lat="42.98157" lon="0.53758">
        <ele>1510</ele>
        <time>2019-06-30T10:10:04.000Z</time>
      </trkpt>
      <trkpt lat="42.98157" lon="0.53759">
        <ele>1511</ele>
        <time>2019-06-30T10:10:06.000Z</time>
      </trkpt>
      <trkpt lat="42.98157" lon="0.53759">
        <ele>1511</ele>
        <time>2019-06-30T10:10:08.000Z</time>
      </trkpt>
      <trkpt lat="42.98158" lon="0.5376">
        <ele>1511</ele>
        <time>2019-06-30T10:10:10.000Z</time>
      </trkpt>
      <trkpt lat="42.98158" lon="0.5376">
        <ele>1511</ele>
        <time>2019-06-30T10:10:12.000Z</time>
      </trkpt>
      <trkpt lat="42.98158" lon="0.5376">
        <ele>1511</ele>
        <time>2019-06-30T10:10:14.000Z</time>
      </trkpt>
      <trkpt lat="42.98158" lon="0.5376">
        <ele>1511</ele>
        <time>2019-06-30T10:10:16.000Z</time>
      </trkpt>
      <trkpt lat="42.98158" lon="0.53759">
        <ele>1511</ele>
        <time>2019-06-30T10:10:18.000Z</time>
      </trkpt>
      <trkpt lat="42.98159" lon="0.53759">
        <ele>1512</ele>
        <time>2019-06-30T10:10:20.000Z</time>
      </trkpt>
      <trkpt lat="42.9816" lon="0.53759">
        <ele>1512</ele>
        <time>2019-06-30T10:10:22.000Z</time>
      </trkpt>
      <trkpt lat="42.9816" lon="0.53759">
        <ele>1512</ele>
        <time>2019-06-30T10:10:24.000Z</time>
      </trkpt>
      <trkpt lat="42.9816" lon="0.53758">
        <ele>1512</ele>
        <time>2019-06-30T10:10:26.000Z</time>
      </trkpt>
      <trkpt lat="42.9816" lon="0.53758">
        <ele>1512</ele>
        <time>2019-06-30T10:10:28.000Z</time>
      </trkpt>
      <trkpt lat="42.9816" lon="0.53758">
        <ele>1512</ele>
        <time>2019-06-30T10:10:30.000Z</time>
      </trkpt>
      <trkpt lat="42.9816" lon="0.53757">
        <ele>1512</ele>
        <time>2019-06-30T10:10:32.000Z</time>
      </trkpt>
      <trkpt lat="42.9816" lon="0.53757">
        <ele>1512</ele>
        <time>2019-06-30T10:10:34.000Z</time>
      </trkpt>
      <trkpt lat="42.98161" lon="0.53757">
        <ele>1512</ele>
        <time>2019-06-30T10:10:36.000Z</time>
      </trkpt>
      <trkpt lat="42.98161" lon="0.53756">
        <ele>1512</ele>
        <time>2019-06-30T10:10:38.000Z</time>
      </trkpt>
      <trkpt lat="42.98161" lon="0.53756">
        <ele>1513</ele>
        <time>2019-06-30T10:10:40.000Z</time>
      </trkpt>
      <trkpt lat="42.98162" lon="0.53756">
        <ele>1513</ele>
        <time>2019-06-30T10:10:42.000Z</time>
      </trkpt>
      <trkpt lat="42.98163" lon="0.53757">
        <ele>1513</ele>
        <time>2019-06-30T10:10:44.000Z</time>
      </trkpt>
      <trkpt lat="42.98162" lon="0.53756">
        <ele>1513</ele>
        <time>2019-06-30T10:10:46.000Z</time>
      </trkpt>
      <trkpt lat="42.98162" lon="0.53756">
        <ele>1513</ele>
        <time>2019-06-30T10:10:48.000Z</time>
      </trkpt>
      <trkpt lat="42.98163" lon="0.53757">
        <ele>1513</ele>
        <time>2019-06-30T10:10:50.000Z</time>
      </trkpt>
      <trkpt lat="42.98163" lon="0.53758">
        <ele>1513</ele>
        <time>2019-06-30T10:10:52.000Z</time>
      </trkpt>
      <trkpt lat="42.98163" lon="0.53758">
        <ele>1513</ele>
        <time>2019-06-30T10:10:54.000Z</time>
      </trkpt>
      <trkpt lat="42.98163" lon="0.53758">
        <ele>1513</ele>
        <time>2019-06-30T10:10:56.000Z</time>
      </trkpt>
      <trkpt lat="42.98163" lon="0.53759">
        <ele>1513</ele>
        <time>2019-06-30T10:10:58.000Z</time>
      </trkpt>
      <trkpt lat="42.98162" lon="0.53758">
        <ele>1513</ele>
        <time>2019-06-30T10:11:00.000Z</time>
      </trkpt>
      <trkpt lat="42.98162" lon="0.53758">
        <ele>1513</ele>
        <time>2019-06-30T10:11:02.000Z</time>
      </trkpt>
      <trkpt lat="42.98162" lon="0.53758">
        <ele>1513</ele>
        <time>2019-06-30T10:11:04.000Z</time>
      </trkpt>
      <trkpt lat="42.98161" lon="0.53757">
        <ele>1512</ele>
        <time>2019-06-30T10:11:06.000Z</time>
      </trkpt>
      <trkpt lat="42.98161" lon="0.53757">
        <ele>1512</ele>
        <time>2019-06-30T10:11:08.000Z</time>
      </trkpt>
      <trkpt lat="42.9816" lon="0.53757">
        <ele>1512</ele>
        <time>2019-06-30T10:11:10.000Z</time>
      </trkpt>
      <trkpt lat="42.98159" lon="0.53757">
        <ele>1512</ele>
        <time>2019-06-30T10:11:12.000Z</time>
      </trkpt>
      <trkpt lat="42.98162" lon="0.53759">
        <ele>1513</ele>
        <time>2019-06-30T10:11:14.000Z</time>
      </trkpt>
      <trkpt lat="42.98163" lon="0.53759">
        <ele>1513</ele>
        <time>2019-06-30T10:11:16.000Z</time>
      </trkpt>
      <trkpt lat="42.98162" lon="0.53758">
        <ele>1513</ele>
        <time>2019-06-30T10:11:18.000Z</time>
      </trkpt>
      <trkpt lat="42.98161" lon="0.53758">
        <ele>1513</ele>
        <time>2019-06-30T10:11:20.000Z</time>
      </trkpt>
      <trkpt lat="42.9816" lon="0.53758">
        <ele>1512</ele>
        <time>2019-06-30T10:11:22.000Z</time>
      </trkpt>
      <trkpt lat="42.98159" lon="0.53758">
        <ele>1512</ele>
        <time>2019-06-30T10:11:24.000Z</time>
      </trkpt>
      <trkpt lat="42.98159" lon="0.53757">
        <ele>1511</ele>
        <time>2019-06-30T10:11:26.000Z</time>
      </trkpt>
      <trkpt lat="42.98158" lon="0.53757">
        <ele>1511</ele>
        <time>2019-06-30T10:11:28.000Z</time>
      </trkpt>
      <trkpt lat="42.98158" lon="0.53757">
        <ele>1511</ele>
        <time>2019-06-30T10:11:30.000Z</time>
      </trkpt>
      <trkpt lat="42.98157" lon="0.53757">
        <ele>1511</ele>
        <time>2019-06-30T10:11:32.000Z</time>
      </trkpt>
      <trkpt lat="42.98156" lon="0.53757">
        <ele>1510</ele>
        <time>2019-06-30T10:11:34.000Z</time>
      </trkpt>
      <trkpt lat="42.98158" lon="0.53758">
        <ele>1511</ele>
        <time>2019-06-30T10:11:36.000Z</time>
      </trkpt>
      <trkpt lat="42.98158" lon="0.53758">
        <ele>1511</ele>
        <time>2019-06-30T10:11:38.000Z</time>
      </trkpt>
      <trkpt lat="42.98158" lon="0.53758">
        <ele>1511</ele>
        <time>2019-06-30T10:11:40.000Z</time>
      </trkpt>
      <trkpt lat="42.98159" lon="0.53759">
        <ele>1511</ele>
        <time>2019-06-30T10:11:42.000Z</time>
      </trkpt>
      <trkpt lat="42.98159" lon="0.53758">
        <ele>1511</ele>
        <time>2019-06-30T10:11:44.000Z</time>
      </trkpt>
      <trkpt lat="42.98159" lon="0.53758">
        <ele>1511</ele>
        <time>2019-06-30T10:11:46.000Z</time>
      </trkpt>
      <trkpt lat="42.98158" lon="0.53758">
        <ele>1511</ele>
        <time>2019-06-30T10:11:48.000Z</time>
      </trkpt>
      <trkpt lat="42.98157" lon="0.53758">
        <ele>1511</ele>
        <time>2019-06-30T10:11:50.000Z</time>
      </trkpt>
      <trkpt lat="42.98157" lon="0.53758">
        <ele>1510</ele>
        <time>2019-06-30T10:11:52.000Z</time>
      </trkpt>
      <trkpt lat="42.98157" lon="0.53758">
        <ele>1510</ele>
        <time>2019-06-30T10:11:54.000Z</time>
      </trkpt>
      <trkpt lat="42.98155" lon="0.53757">
        <ele>1510</ele>
        <time>2019-06-30T10:11:56.000Z</time>
      </trkpt>
      <trkpt lat="42.98154" lon="0.53757">
        <ele>1509</ele>
        <time>2019-06-30T10:11:58.000Z</time>
      </trkpt>
      <trkpt lat="42.98154" lon="0.53757">
        <ele>1509</ele>
        <time>2019-06-30T10:12:00.000Z</time>
      </trkpt>
      <trkpt lat="42.98155" lon="0.53757">
        <ele>1509</ele>
        <time>2019-06-30T10:12:02.000Z</time>
      </trkpt>
      <trkpt lat="42.98155" lon="0.53757">
        <ele>1509</ele>
        <time>2019-06-30T10:12:04.000Z</time>
      </trkpt>
      <trkpt lat="42.98155" lon="0.53758">
        <ele>1510</ele>
        <time>2019-06-30T10:12:06.000Z</time>
      </trkpt>
      <trkpt lat="42.98155" lon="0.53758">
        <ele>1510</ele>
        <time>2019-06-30T10:12:08.000Z</time>
      </trkpt>
      <trkpt lat="42.98155" lon="0.53758">
        <ele>1510</ele>
        <time>2019-06-30T10:12:10.000Z</time>
      </trkpt>
      <trkpt lat="42.98155" lon="0.53758">
        <ele>1510</ele>
        <time>2019-06-30T10:12:12.000Z</time>
      </trkpt>
      <trkpt lat="42.98156" lon="0.53758">
        <ele>1510</ele>
        <time>2019-06-30T10:12:14.000Z</time>
      </trkpt>
      <trkpt lat="42.98156" lon="0.53758">
        <ele>1510</ele>
        <time>2019-06-30T10:12:16.000Z</time>
      </trkpt>
      <trkpt lat="42.98156" lon="0.53759">
        <ele>1510</ele>
        <time>2019-06-30T10:12:18.000Z</time>
      </trkpt>
      <trkpt lat="42.98156" lon="0.53759">
        <ele>1510</ele>
        <time>2019-06-30T10:12:20.000Z</time>
      </trkpt>
      <trkpt lat="42.98156" lon="0.53759">
        <ele>1510</ele>
        <time>2019-06-30T10:12:22.000Z</time>
      </trkpt>
      <trkpt lat="42.98156" lon="0.53759">
        <ele>1510</ele>
        <time>2019-06-30T10:12:24.000Z</time>
      </trkpt>
      <trkpt lat="42.98157" lon="0.53759">
        <ele>1510</ele>
        <time>2019-06-30T10:12:26.000Z</time>
      </trkpt>
      <trkpt lat="42.98157" lon="0.53759">
        <ele>1510</ele>
        <time>2019-06-30T10:12:28.000Z</time>
      </trkpt>
      <trkpt lat="42.98157" lon="0.53759">
        <ele>1510</ele>
        <time>2019-06-30T10:12:30.000Z</time>
      </trkpt>
      <trkpt lat="42.9821" lon="0.53776">
        <ele>1513</ele>
        <time>2019-06-30T10:13:23.000Z</time>
      </trkpt>
      <trkpt lat="42.98201" lon="0.5377">
        <ele>1515</ele>
        <time>2019-06-30T10:13:25.000Z</time>
      </trkpt>
      <trkpt lat="42.98183" lon="0.53764">
        <ele>1518</ele>
        <time>2019-06-30T10:13:27.000Z</time>
      </trkpt>
      <trkpt lat="42.98177" lon="0.53764">
        <ele>1519</ele>
        <time>2019-06-30T10:13:29.000Z</time>
      </trkpt>
      <trkpt lat="42.98162" lon="0.53756">
        <ele>1513</ele>
        <time>2019-06-30T10:13:31.000Z</time>
      </trkpt>
      <trkpt lat="42.98157" lon="0.53752">
        <ele>1510</ele>
        <time>2019-06-30T10:13:33.000Z</time>
      </trkpt>
      <trkpt lat="42.98154" lon="0.53753">
        <ele>1509</ele>
        <time>2019-06-30T10:13:35.000Z</time>
      </trkpt>
      <trkpt lat="42.98153" lon="0.53754">
        <ele>1509</ele>
        <time>2019-06-30T10:13:37.000Z</time>
      </trkpt>
      <trkpt lat="42.98152" lon="0.53754">
        <ele>1508</ele>
        <time>2019-06-30T10:13:39.000Z</time>
      </trkpt>
      <trkpt lat="42.98151" lon="0.53754">
        <ele>1508</ele>
        <time>2019-06-30T10:13:41.000Z</time>
      </trkpt>
      <trkpt lat="42.98151" lon="0.53754">
        <ele>1507</ele>
        <time>2019-06-30T10:13:43.000Z</time>
      </trkpt>
      <trkpt lat="42.98156" lon="0.53758">
        <ele>1510</ele>
        <time>2019-06-30T10:13:45.000Z</time>
      </trkpt>
      <trkpt lat="42.98158" lon="0.53761">
        <ele>1511</ele>
        <time>2019-06-30T10:13:47.000Z</time>
      </trkpt>
      <trkpt lat="42.98158" lon="0.53761">
        <ele>1511</ele>
        <time>2019-06-30T10:13:49.000Z</time>
      </trkpt>
      <trkpt lat="42.98158" lon="0.53761">
        <ele>1511</ele>
        <time>2019-06-30T10:13:51.000Z</time>
      </trkpt>
      <trkpt lat="42.98158" lon="0.5376">
        <ele>1511</ele>
        <time>2019-06-30T10:13:53.000Z</time>
      </trkpt>
      <trkpt lat="42.98158" lon="0.53761">
        <ele>1511</ele>
        <time>2019-06-30T10:13:55.000Z</time>
      </trkpt>
      <trkpt lat="42.98159" lon="0.53761">
        <ele>1511</ele>
        <time>2019-06-30T10:13:57.000Z</time>
      </trkpt>
      <trkpt lat="42.98159" lon="0.53762">
        <ele>1511</ele>
        <time>2019-06-30T10:13:59.000Z</time>
      </trkpt>
      <trkpt lat="42.98158" lon="0.53762">
        <ele>1511</ele>
        <time>2019-06-30T10:14:01.000Z</time>
      </trkpt>
      <trkpt lat="42.98158" lon="0.53762">
        <ele>1511</ele>
        <time>2019-06-30T10:14:03.000Z</time>
      </trkpt>
      <trkpt lat="42.98158" lon="0.53762">
        <ele>1511</ele>
        <time>2019-06-30T10:14:05.000Z</time>
      </trkpt>
      <trkpt lat="42.98157" lon="0.53762">
        <ele>1511</ele>
        <time>2019-06-30T10:14:07.000Z</time>
      </trkpt>
      <trkpt lat="42.98158" lon="0.53762">
        <ele>1511</ele>
        <time>2019-06-30T10:14:09.000Z</time>
      </trkpt>
      <trkpt lat="42.98158" lon="0.53762">
        <ele>1511</ele>
        <time>2019-06-30T10:14:11.000Z</time>
      </trkpt>
      <trkpt lat="42.98158" lon="0.53762">
        <ele>1511</ele>
        <time>2019-06-30T10:14:13.000Z</time>
      </trkpt>
      <trkpt lat="42.98158" lon="0.53762">
        <ele>1511</ele>
        <time>2019-06-30T10:14:15.000Z</time>
      </trkpt>
      <trkpt lat="42.98157" lon="0.53762">
        <ele>1511</ele>
        <time>2019-06-30T10:14:17.000Z</time>
      </trkpt>
      <trkpt lat="42.98157" lon="0.53762">
        <ele>1511</ele>
        <time>2019-06-30T10:14:19.000Z</time>
      </trkpt>
      <trkpt lat="42.98157" lon="0.53763">
        <ele>1511</ele>
        <time>2019-06-30T10:14:21.000Z</time>
      </trkpt>
      <trkpt lat="42.98157" lon="0.53763">
        <ele>1510</ele>
        <time>2019-06-30T10:14:23.000Z</time>
      </trkpt>
      <trkpt lat="42.98157" lon="0.53764">
        <ele>1510</ele>
        <time>2019-06-30T10:14:25.000Z</time>
      </trkpt>
      <trkpt lat="42.98157" lon="0.53764">
        <ele>1510</ele>
        <time>2019-06-30T10:14:27.000Z</time>
      </trkpt>
      <trkpt lat="42.98156" lon="0.53763">
        <ele>1510</ele>
        <time>2019-06-30T10:14:29.000Z</time>
      </trkpt>
      <trkpt lat="42.98156" lon="0.53763">
        <ele>1510</ele>
        <time>2019-06-30T10:14:31.000Z</time>
      </trkpt>
      <trkpt lat="42.98156" lon="0.53763">
        <ele>1510</ele>
        <time>2019-06-30T10:14:33.000Z</time>
      </trkpt>
      <trkpt lat="42.98156" lon="0.53763">
        <ele>1510</ele>
        <time>2019-06-30T10:14:35.000Z</time>
      </trkpt>
      <trkpt lat="42.98156" lon="0.53763">
        <ele>1510</ele>
        <time>2019-06-30T10:14:37.000Z</time>
      </trkpt>
      <trkpt lat="42.98156" lon="0.53762">
        <ele>1510</ele>
        <time>2019-06-30T10:14:39.000Z</time>
      </trkpt>
      <trkpt lat="42.98157" lon="0.53762">
        <ele>1510</ele>
        <time>2019-06-30T10:14:41.000Z</time>
      </trkpt>
      <trkpt lat="42.98158" lon="0.53762">
        <ele>1511</ele>
        <time>2019-06-30T10:14:43.000Z</time>
      </trkpt>
      <trkpt lat="42.98158" lon="0.53762">
        <ele>1511</ele>
        <time>2019-06-30T10:14:45.000Z</time>
      </trkpt>
      <trkpt lat="42.98159" lon="0.53762">
        <ele>1511</ele>
        <time>2019-06-30T10:14:47.000Z</time>
      </trkpt>
      <trkpt lat="42.98159" lon="0.53762">
        <ele>1512</ele>
        <time>2019-06-30T10:14:49.000Z</time>
      </trkpt>
      <trkpt lat="42.9816" lon="0.53761">
        <ele>1512</ele>
        <time>2019-06-30T10:14:51.000Z</time>
      </trkpt>
      <trkpt lat="42.98159" lon="0.53761">
        <ele>1512</ele>
        <time>2019-06-30T10:14:53.000Z</time>
      </trkpt>
      <trkpt lat="42.98159" lon="0.53761">
        <ele>1512</ele>
        <time>2019-06-30T10:14:55.000Z</time>
      </trkpt>
      <trkpt lat="42.98159" lon="0.53761">
        <ele>1511</ele>
        <time>2019-06-30T10:14:57.000Z</time>
      </trkpt>
      <trkpt lat="42.98159" lon="0.53761">
        <ele>1511</ele>
        <time>2019-06-30T10:14:59.000Z</time>
      </trkpt>
      <trkpt lat="42.98158" lon="0.53761">
        <ele>1511</ele>
        <time>2019-06-30T10:15:01.000Z</time>
      </trkpt>
      <trkpt lat="42.98159" lon="0.53761">
        <ele>1511</ele>
        <time>2019-06-30T10:15:03.000Z</time>
      </trkpt>
      <trkpt lat="42.98159" lon="0.53761">
        <ele>1511</ele>
        <time>2019-06-30T10:15:05.000Z</time>
      </trkpt>
      <trkpt lat="42.98158" lon="0.53761">
        <ele>1511</ele>
        <time>2019-06-30T10:15:07.000Z</time>
      </trkpt>
      <trkpt lat="42.98159" lon="0.53761">
        <ele>1511</ele>
        <time>2019-06-30T10:15:09.000Z</time>
      </trkpt>
      <trkpt lat="42.98159" lon="0.5376">
        <ele>1511</ele>
        <time>2019-06-30T10:15:11.000Z</time>
      </trkpt>
      <trkpt lat="42.98159" lon="0.5376">
        <ele>1511</ele>
        <time>2019-06-30T10:15:13.000Z</time>
      </trkpt>
      <trkpt lat="42.98159" lon="0.53761">
        <ele>1511</ele>
        <time>2019-06-30T10:15:15.000Z</time>
      </trkpt>
      <trkpt lat="42.98159" lon="0.5376">
        <ele>1511</ele>
        <time>2019-06-30T10:15:17.000Z</time>
      </trkpt>
      <trkpt lat="42.98159" lon="0.5376">
        <ele>1511</ele>
        <time>2019-06-30T10:15:19.000Z</time>
      </trkpt>
      <trkpt lat="42.98159" lon="0.53761">
        <ele>1511</ele>
        <time>2019-06-30T10:15:21.000Z</time>
      </trkpt>
      <trkpt lat="42.98159" lon="0.53761">
        <ele>1511</ele>
        <time>2019-06-30T10:15:23.000Z</time>
      </trkpt>
      <trkpt lat="42.98158" lon="0.5376">
        <ele>1511</ele>
        <time>2019-06-30T10:15:25.000Z</time>
      </trkpt>
      <trkpt lat="42.98159" lon="0.5376">
        <ele>1511</ele>
        <time>2019-06-30T10:15:27.000Z</time>
      </trkpt>
      <trkpt lat="42.98159" lon="0.5376">
        <ele>1511</ele>
        <time>2019-06-30T10:15:29.000Z</time>
      </trkpt>
      <trkpt lat="42.98159" lon="0.5376">
        <ele>1511</ele>
        <time>2019-06-30T10:15:31.000Z</time>
      </trkpt>
      <trkpt lat="42.98159" lon="0.5376">
        <ele>1511</ele>
        <time>2019-06-30T10:15:33.000Z</time>
      </trkpt>
      <trkpt lat="42.98158" lon="0.5376">
        <ele>1511</ele>
        <time>2019-06-30T10:15:41.000Z</time>
      </trkpt>
      <trkpt lat="42.98158" lon="0.5376">
        <ele>1511</ele>
        <time>2019-06-30T10:15:43.000Z</time>
      </trkpt>
      <trkpt lat="42.98157" lon="0.5376">
        <ele>1511</ele>
        <time>2019-06-30T10:15:45.000Z</time>
      </trkpt>
      <trkpt lat="42.98157" lon="0.5376">
        <ele>1511</ele>
        <time>2019-06-30T10:15:47.000Z</time>
      </trkpt>
      <trkpt lat="42.98157" lon="0.5376">
        <ele>1510</ele>
        <time>2019-06-30T10:15:49.000Z</time>
      </trkpt>
      <trkpt lat="42.98157" lon="0.5376">
        <ele>1511</ele>
        <time>2019-06-30T10:15:51.000Z</time>
      </trkpt>
      <trkpt lat="42.98157" lon="0.5376">
        <ele>1511</ele>
        <time>2019-06-30T10:15:53.000Z</time>
      </trkpt>
      <trkpt lat="42.98157" lon="0.5376">
        <ele>1511</ele>
        <time>2019-06-30T10:15:55.000Z</time>
      </trkpt>
      <trkpt lat="42.98158" lon="0.5376">
        <ele>1511</ele>
        <time>2019-06-30T10:15:57.000Z</time>
      </trkpt>
      <trkpt lat="42.98158" lon="0.5376">
        <ele>1511</ele>
        <time>2019-06-30T10:15:59.000Z</time>
      </trkpt>
      <trkpt lat="42.98158" lon="0.5376">
        <ele>1511</ele>
        <time>2019-06-30T10:16:01.000Z</time>
      </trkpt>
      <trkpt lat="42.98159" lon="0.5376">
        <ele>1511</ele>
        <time>2019-06-30T10:16:03.000Z</time>
      </trkpt>
      <trkpt lat="42.98159" lon="0.5376">
        <ele>1511</ele>
        <time>2019-06-30T10:16:05.000Z</time>
      </trkpt>
      <trkpt lat="42.98159" lon="0.5376">
        <ele>1511</ele>
        <time>2019-06-30T10:16:07.000Z</time>
      </trkpt>
      <trkpt lat="42.98159" lon="0.5376">
        <ele>1511</ele>
        <time>2019-06-30T10:16:09.000Z</time>
      </trkpt>
      <trkpt lat="42.98159" lon="0.5376">
        <ele>1511</ele>
        <time>2019-06-30T10:16:11.000Z</time>
      </trkpt>
      <trkpt lat="42.98159" lon="0.5376">
        <ele>1511</ele>
        <time>2019-06-30T10:16:13.000Z</time>
      </trkpt>
      <trkpt lat="42.98159" lon="0.5376">
        <ele>1511</ele>
        <time>2019-06-30T10:16:15.000Z</time>
      </trkpt>
      <trkpt lat="42.98159" lon="0.5376">
        <ele>1511</ele>
        <time>2019-06-30T10:16:17.000Z</time>
      </trkpt>
      <trkpt lat="42.98158" lon="0.5376">
        <ele>1511</ele>
        <time>2019-06-30T10:16:19.000Z</time>
      </trkpt>
      <trkpt lat="42.98158" lon="0.5376">
        <ele>1511</ele>
        <time>2019-06-30T10:16:21.000Z</time>
      </trkpt>
      <trkpt lat="42.98158" lon="0.5376">
        <ele>1511</ele>
        <time>2019-06-30T10:16:23.000Z</time>
      </trkpt>
      <trkpt lat="42.98158" lon="0.5376">
        <ele>1511</ele>
        <time>2019-06-30T10:16:25.000Z</time>
      </trkpt>
      <trkpt lat="42.98158" lon="0.5376">
        <ele>1511</ele>
        <time>2019-06-30T10:16:27.000Z</time>
      </trkpt>
      <trkpt lat="42.98158" lon="0.5376">
        <ele>1511</ele>
        <time>2019-06-30T10:16:29.000Z</time>
      </trkpt>
      <trkpt lat="42.98158" lon="0.5376">
        <ele>1511</ele>
        <time>2019-06-30T10:16:31.000Z</time>
      </trkpt>
      <trkpt lat="42.98158" lon="0.5376">
        <ele>1511</ele>
        <time>2019-06-30T10:16:33.000Z</time>
      </trkpt>
      <trkpt lat="42.98158" lon="0.5376">
        <ele>1511</ele>
        <time>2019-06-30T10:16:35.000Z</time>
      </trkpt>
      <trkpt lat="42.98158" lon="0.53761">
        <ele>1511</ele>
        <time>2019-06-30T10:16:37.000Z</time>
      </trkpt>
      <trkpt lat="42.98158" lon="0.53761">
        <ele>1511</ele>
        <time>2019-06-30T10:16:39.000Z</time>
      </trkpt>
      <trkpt lat="42.98158" lon="0.53761">
        <ele>1511</ele>
        <time>2019-06-30T10:16:41.000Z</time>
      </trkpt>
      <trkpt lat="42.98158" lon="0.53761">
        <ele>1511</ele>
        <time>2019-06-30T10:16:43.000Z</time>
      </trkpt>
      <trkpt lat="42.98158" lon="0.53761">
        <ele>1511</ele>
        <time>2019-06-30T10:16:45.000Z</time>
      </trkpt>
      <trkpt lat="42.98158" lon="0.53761">
        <ele>1511</ele>
        <time>2019-06-30T10:16:47.000Z</time>
      </trkpt>
      <trkpt lat="42.98158" lon="0.53761">
        <ele>1511</ele>
        <time>2019-06-30T10:16:49.000Z</time>
      </trkpt>
      <trkpt lat="42.98157" lon="0.53761">
        <ele>1510</ele>
        <time>2019-06-30T10:16:51.000Z</time>
      </trkpt>
      <trkpt lat="42.98157" lon="0.53761">
        <ele>1510</ele>
        <time>2019-06-30T10:16:53.000Z</time>
      </trkpt>
      <trkpt lat="42.98157" lon="0.53761">
        <ele>1510</ele>
        <time>2019-06-30T10:16:55.000Z</time>
      </trkpt>
      <trkpt lat="42.98157" lon="0.53761">
        <ele>1510</ele>
        <time>2019-06-30T10:16:57.000Z</time>
      </trkpt>
      <trkpt lat="42.98156" lon="0.53761">
        <ele>1510</ele>
        <time>2019-06-30T10:16:59.000Z</time>
      </trkpt>
      <trkpt lat="42.98156" lon="0.53761">
        <ele>1510</ele>
        <time>2019-06-30T10:17:01.000Z</time>
      </trkpt>
      <trkpt lat="42.98156" lon="0.53761">
        <ele>1510</ele>
        <time>2019-06-30T10:17:03.000Z</time>
      </trkpt>
      <trkpt lat="42.98157" lon="0.53761">
        <ele>1510</ele>
        <time>2019-06-30T10:17:05.000Z</time>
      </trkpt>
      <trkpt lat="42.98157" lon="0.53761">
        <ele>1510</ele>
        <time>2019-06-30T10:17:07.000Z</time>
      </trkpt>
      <trkpt lat="42.98157" lon="0.53761">
        <ele>1510</ele>
        <time>2019-06-30T10:17:09.000Z</time>
      </trkpt>
      <trkpt lat="42.98157" lon="0.5376">
        <ele>1510</ele>
        <time>2019-06-30T10:17:11.000Z</time>
      </trkpt>
      <trkpt lat="42.98157" lon="0.53761">
        <ele>1510</ele>
        <time>2019-06-30T10:17:13.000Z</time>
      </trkpt>
      <trkpt lat="42.98157" lon="0.53761">
        <ele>1510</ele>
        <time>2019-06-30T10:17:15.000Z</time>
      </trkpt>
      <trkpt lat="42.98157" lon="0.53761">
        <ele>1510</ele>
        <time>2019-06-30T10:17:17.000Z</time>
      </trkpt>
      <trkpt lat="42.98157" lon="0.53761">
        <ele>1511</ele>
        <time>2019-06-30T10:17:19.000Z</time>
      </trkpt>
      <trkpt lat="42.98157" lon="0.53761">
        <ele>1510</ele>
        <time>2019-06-30T10:17:21.000Z</time>
      </trkpt>
      <trkpt lat="42.98157" lon="0.53761">
        <ele>1511</ele>
        <time>2019-06-30T10:17:23.000Z</time>
      </trkpt>
      <trkpt lat="42.98157" lon="0.53761">
        <ele>1510</ele>
        <time>2019-06-30T10:17:25.000Z</time>
      </trkpt>
      <trkpt lat="42.98157" lon="0.53761">
        <ele>1510</ele>
        <time>2019-06-30T10:17:27.000Z</time>
      </trkpt>
      <trkpt lat="42.98157" lon="0.53761">
        <ele>1510</ele>
        <time>2019-06-30T10:17:29.000Z</time>
      </trkpt>
      <trkpt lat="42.98156" lon="0.53761">
        <ele>1510</ele>
        <time>2019-06-30T10:17:31.000Z</time>
      </trkpt>
      <trkpt lat="42.98156" lon="0.53761">
        <ele>1510</ele>
        <time>2019-06-30T10:17:33.000Z</time>
      </trkpt>
      <trkpt lat="42.98156" lon="0.53761">
        <ele>1510</ele>
        <time>2019-06-30T10:17:35.000Z</time>
      </trkpt>
      <trkpt lat="42.98155" lon="0.53761">
        <ele>1510</ele>
        <time>2019-06-30T10:17:37.000Z</time>
      </trkpt>
      <trkpt lat="42.98155" lon="0.53761">
        <ele>1510</ele>
        <time>2019-06-30T10:17:39.000Z</time>
      </trkpt>
      <trkpt lat="42.98155" lon="0.53761">
        <ele>1510</ele>
        <time>2019-06-30T10:17:41.000Z</time>
      </trkpt>
      <trkpt lat="42.98155" lon="0.53761">
        <ele>1510</ele>
        <time>2019-06-30T10:17:43.000Z</time>
      </trkpt>
      <trkpt lat="42.98154" lon="0.5376">
        <ele>1509</ele>
        <time>2019-06-30T10:17:45.000Z</time>
      </trkpt>
      <trkpt lat="42.98154" lon="0.5376">
        <ele>1509</ele>
        <time>2019-06-30T10:17:47.000Z</time>
      </trkpt>
      <trkpt lat="42.98154" lon="0.5376">
        <ele>1509</ele>
        <time>2019-06-30T10:17:49.000Z</time>
      </trkpt>
      <trkpt lat="42.98153" lon="0.5376">
        <ele>1509</ele>
        <time>2019-06-30T10:17:51.000Z</time>
      </trkpt>
      <trkpt lat="42.98153" lon="0.53759">
        <ele>1509</ele>
        <time>2019-06-30T10:17:53.000Z</time>
      </trkpt>
      <trkpt lat="42.98154" lon="0.53759">
        <ele>1509</ele>
        <time>2019-06-30T10:17:55.000Z</time>
      </trkpt>
      <trkpt lat="42.98154" lon="0.53759">
        <ele>1509</ele>
        <time>2019-06-30T10:17:57.000Z</time>
      </trkpt>
      <trkpt lat="42.98154" lon="0.53759">
        <ele>1509</ele>
        <time>2019-06-30T10:17:59.000Z</time>
      </trkpt>
      <trkpt lat="42.98154" lon="0.53759">
        <ele>1509</ele>
        <time>2019-06-30T10:18:01.000Z</time>
      </trkpt>
      <trkpt lat="42.98154" lon="0.53758">
        <ele>1509</ele>
        <time>2019-06-30T10:18:03.000Z</time>
      </trkpt>
      <trkpt lat="42.98154" lon="0.53758">
        <ele>1509</ele>
        <time>2019-06-30T10:18:05.000Z</time>
      </trkpt>
      <trkpt lat="42.98154" lon="0.53758">
        <ele>1509</ele>
        <time>2019-06-30T10:18:07.000Z</time>
      </trkpt>
      <trkpt lat="42.98154" lon="0.53758">
        <ele>1509</ele>
        <time>2019-06-30T10:18:09.000Z</time>
      </trkpt>
      <trkpt lat="42.98155" lon="0.53758">
        <ele>1509</ele>
        <time>2019-06-30T10:18:11.000Z</time>
      </trkpt>
      <trkpt lat="42.98155" lon="0.53758">
        <ele>1510</ele>
        <time>2019-06-30T10:18:13.000Z</time>
      </trkpt>
      <trkpt lat="42.98155" lon="0.53758">
        <ele>1509</ele>
        <time>2019-06-30T10:18:15.000Z</time>
      </trkpt>
      <trkpt lat="42.98155" lon="0.53757">
        <ele>1509</ele>
        <time>2019-06-30T10:18:17.000Z</time>
      </trkpt>
      <trkpt lat="42.98155" lon="0.53757">
        <ele>1510</ele>
        <time>2019-06-30T10:18:19.000Z</time>
      </trkpt>
      <trkpt lat="42.98156" lon="0.53758">
        <ele>1510</ele>
        <time>2019-06-30T10:18:21.000Z</time>
      </trkpt>
      <trkpt lat="42.98158" lon="0.53759">
        <ele>1511</ele>
        <time>2019-06-30T10:18:23.000Z</time>
      </trkpt>
      <trkpt lat="42.98159" lon="0.5376">
        <ele>1511</ele>
        <time>2019-06-30T10:18:25.000Z</time>
      </trkpt>
      <trkpt lat="42.98159" lon="0.5376">
        <ele>1511</ele>
        <time>2019-06-30T10:18:27.000Z</time>
      </trkpt>
      <trkpt lat="42.98158" lon="0.53761">
        <ele>1511</ele>
        <time>2019-06-30T10:18:29.000Z</time>
      </trkpt>
      <trkpt lat="42.98158" lon="0.53761">
        <ele>1511</ele>
        <time>2019-06-30T10:18:31.000Z</time>
      </trkpt>
      <trkpt lat="42.98158" lon="0.53761">
        <ele>1511</ele>
        <time>2019-06-30T10:18:33.000Z</time>
      </trkpt>
      <trkpt lat="42.98158" lon="0.53762">
        <ele>1511</ele>
        <time>2019-06-30T10:18:35.000Z</time>
      </trkpt>
      <trkpt lat="42.98156" lon="0.53761">
        <ele>1510</ele>
        <time>2019-06-30T10:18:37.000Z</time>
      </trkpt>
      <trkpt lat="42.98154" lon="0.53761">
        <ele>1509</ele>
        <time>2019-06-30T10:18:39.000Z</time>
      </trkpt>
      <trkpt lat="42.98154" lon="0.53761">
        <ele>1509</ele>
        <time>2019-06-30T10:18:41.000Z</time>
      </trkpt>
      <trkpt lat="42.98153" lon="0.5376">
        <ele>1509</ele>
        <time>2019-06-30T10:18:43.000Z</time>
      </trkpt>
      <trkpt lat="42.98153" lon="0.53761">
        <ele>1508</ele>
        <time>2019-06-30T10:18:45.000Z</time>
      </trkpt>
      <trkpt lat="42.98152" lon="0.5376">
        <ele>1508</ele>
        <time>2019-06-30T10:18:47.000Z</time>
      </trkpt>
      <trkpt lat="42.98153" lon="0.5376">
        <ele>1508</ele>
        <time>2019-06-30T10:18:49.000Z</time>
      </trkpt>
      <trkpt lat="42.98153" lon="0.53759">
        <ele>1508</ele>
        <time>2019-06-30T10:18:51.000Z</time>
      </trkpt>
      <trkpt lat="42.98153" lon="0.53759">
        <ele>1508</ele>
        <time>2019-06-30T10:18:53.000Z</time>
      </trkpt>
      <trkpt lat="42.98153" lon="0.53759">
        <ele>1509</ele>
        <time>2019-06-30T10:18:55.000Z</time>
      </trkpt>
      <trkpt lat="42.98153" lon="0.53759">
        <ele>1509</ele>
        <time>2019-06-30T10:18:57.000Z</time>
      </trkpt>
      <trkpt lat="42.98153" lon="0.53759">
        <ele>1509</ele>
        <time>2019-06-30T10:18:59.000Z</time>
      </trkpt>
      <trkpt lat="42.98154" lon="0.53759">
        <ele>1509</ele>
        <time>2019-06-30T10:19:01.000Z</time>
      </trkpt>
      <trkpt lat="42.98154" lon="0.53759">
        <ele>1509</ele>
        <time>2019-06-30T10:19:03.000Z</time>
      </trkpt>
      <trkpt lat="42.98155" lon="0.53759">
        <ele>1509</ele>
        <time>2019-06-30T10:19:05.000Z</time>
      </trkpt>
      <trkpt lat="42.98155" lon="0.53759">
        <ele>1509</ele>
        <time>2019-06-30T10:19:07.000Z</time>
      </trkpt>
      <trkpt lat="42.98155" lon="0.53759">
        <ele>1510</ele>
        <time>2019-06-30T10:19:09.000Z</time>
      </trkpt>
      <trkpt lat="42.98155" lon="0.53759">
        <ele>1510</ele>
        <time>2019-06-30T10:19:11.000Z</time>
      </trkpt>
      <trkpt lat="42.98155" lon="0.53759">
        <ele>1509</ele>
        <time>2019-06-30T10:19:13.000Z</time>
      </trkpt>
      <trkpt lat="42.98154" lon="0.5376">
        <ele>1509</ele>
        <time>2019-06-30T10:19:15.000Z</time>
      </trkpt>
      <trkpt lat="42.98153" lon="0.5376">
        <ele>1509</ele>
        <time>2019-06-30T10:19:17.000Z</time>
      </trkpt>
      <trkpt lat="42.98153" lon="0.5376">
        <ele>1509</ele>
        <time>2019-06-30T10:19:19.000Z</time>
      </trkpt>
      <trkpt lat="42.98153" lon="0.5376">
        <ele>1508</ele>
        <time>2019-06-30T10:19:21.000Z</time>
      </trkpt>
      <trkpt lat="42.98154" lon="0.5376">
        <ele>1509</ele>
        <time>2019-06-30T10:19:23.000Z</time>
      </trkpt>
      <trkpt lat="42.98154" lon="0.53761">
        <ele>1509</ele>
        <time>2019-06-30T10:19:25.000Z</time>
      </trkpt>
      <trkpt lat="42.98155" lon="0.53761">
        <ele>1509</ele>
        <time>2019-06-30T10:19:27.000Z</time>
      </trkpt>
      <trkpt lat="42.98155" lon="0.53761">
        <ele>1509</ele>
        <time>2019-06-30T10:19:29.000Z</time>
      </trkpt>
      <trkpt lat="42.98155" lon="0.53761">
        <ele>1509</ele>
        <time>2019-06-30T10:19:31.000Z</time>
      </trkpt>
      <trkpt lat="42.98155" lon="0.53761">
        <ele>1510</ele>
        <time>2019-06-30T10:19:33.000Z</time>
      </trkpt>
      <trkpt lat="42.98156" lon="0.53761">
        <ele>1510</ele>
        <time>2019-06-30T10:19:35.000Z</time>
      </trkpt>
      <trkpt lat="42.98157" lon="0.5376">
        <ele>1510</ele>
        <time>2019-06-30T10:19:37.000Z</time>
      </trkpt>
      <trkpt lat="42.98156" lon="0.53759">
        <ele>1510</ele>
        <time>2019-06-30T10:19:39.000Z</time>
      </trkpt>
      <trkpt lat="42.98157" lon="0.53759">
        <ele>1510</ele>
        <time>2019-06-30T10:19:41.000Z</time>
      </trkpt>
      <trkpt lat="42.98157" lon="0.53759">
        <ele>1511</ele>
        <time>2019-06-30T10:19:43.000Z</time>
      </trkpt>
      <trkpt lat="42.98157" lon="0.53759">
        <ele>1511</ele>
        <time>2019-06-30T10:19:45.000Z</time>
      </trkpt>
      <trkpt lat="42.98158" lon="0.53759">
        <ele>1511</ele>
        <time>2019-06-30T10:19:47.000Z</time>
      </trkpt>
      <trkpt lat="42.98158" lon="0.53759">
        <ele>1511</ele>
        <time>2019-06-30T10:19:49.000Z</time>
      </trkpt>
      <trkpt lat="42.98159" lon="0.53759">
        <ele>1511</ele>
        <time>2019-06-30T10:19:51.000Z</time>
      </trkpt>
      <trkpt lat="42.98159" lon="0.53759">
        <ele>1511</ele>
        <time>2019-06-30T10:19:53.000Z</time>
      </trkpt>
      <trkpt lat="42.98159" lon="0.53759">
        <ele>1511</ele>
        <time>2019-06-30T10:19:55.000Z</time>
      </trkpt>
      <trkpt lat="42.98159" lon="0.53758">
        <ele>1511</ele>
        <time>2019-06-30T10:19:57.000Z</time>
      </trkpt>
      <trkpt lat="42.98159" lon="0.53757">
        <ele>1511</ele>
        <time>2019-06-30T10:19:59.000Z</time>
      </trkpt>
      <trkpt lat="42.98158" lon="0.53756">
        <ele>1511</ele>
        <time>2019-06-30T10:20:01.000Z</time>
      </trkpt>
      <trkpt lat="42.98158" lon="0.53755">
        <ele>1511</ele>
        <time>2019-06-30T10:20:03.000Z</time>
      </trkpt>
      <trkpt lat="42.98159" lon="0.53756">
        <ele>1511</ele>
        <time>2019-06-30T10:20:05.000Z</time>
      </trkpt>
      <trkpt lat="42.98159" lon="0.53757">
        <ele>1512</ele>
        <time>2019-06-30T10:20:07.000Z</time>
      </trkpt>
      <trkpt lat="42.9816" lon="0.53758">
        <ele>1512</ele>
        <time>2019-06-30T10:20:09.000Z</time>
      </trkpt>
      <trkpt lat="42.98161" lon="0.53758">
        <ele>1512</ele>
        <time>2019-06-30T10:20:11.000Z</time>
      </trkpt>
      <trkpt lat="42.98161" lon="0.53758">
        <ele>1512</ele>
        <time>2019-06-30T10:20:13.000Z</time>
      </trkpt>
      <trkpt lat="42.9816" lon="0.53759">
        <ele>1512</ele>
        <time>2019-06-30T10:20:15.000Z</time>
      </trkpt>
      <trkpt lat="42.9816" lon="0.53759">
        <ele>1512</ele>
        <time>2019-06-30T10:20:17.000Z</time>
      </trkpt>
      <trkpt lat="42.9816" lon="0.53759">
        <ele>1512</ele>
        <time>2019-06-30T10:20:19.000Z</time>
      </trkpt>
      <trkpt lat="42.9816" lon="0.5376">
        <ele>1512</ele>
        <time>2019-06-30T10:20:21.000Z</time>
      </trkpt>
      <trkpt lat="42.9816" lon="0.5376">
        <ele>1512</ele>
        <time>2019-06-30T10:20:23.000Z</time>
      </trkpt>
      <trkpt lat="42.98159" lon="0.5376">
        <ele>1512</ele>
        <time>2019-06-30T10:20:25.000Z</time>
      </trkpt>
      <trkpt lat="42.98159" lon="0.5376">
        <ele>1511</ele>
        <time>2019-06-30T10:20:27.000Z</time>
      </trkpt>
      <trkpt lat="42.98159" lon="0.53761">
        <ele>1511</ele>
        <time>2019-06-30T10:20:29.000Z</time>
      </trkpt>
      <trkpt lat="42.98159" lon="0.53761">
        <ele>1511</ele>
        <time>2019-06-30T10:20:31.000Z</time>
      </trkpt>
      <trkpt lat="42.98159" lon="0.53761">
        <ele>1511</ele>
        <time>2019-06-30T10:20:33.000Z</time>
      </trkpt>
      <trkpt lat="42.98159" lon="0.53762">
        <ele>1511</ele>
        <time>2019-06-30T10:20:35.000Z</time>
      </trkpt>
      <trkpt lat="42.98158" lon="0.53762">
        <ele>1511</ele>
        <time>2019-06-30T10:20:37.000Z</time>
      </trkpt>
      <trkpt lat="42.98158" lon="0.53763">
        <ele>1511</ele>
        <time>2019-06-30T10:20:39.000Z</time>
      </trkpt>
      <trkpt lat="42.98158" lon="0.53763">
        <ele>1511</ele>
        <time>2019-06-30T10:20:41.000Z</time>
      </trkpt>
      <trkpt lat="42.98157" lon="0.53763">
        <ele>1511</ele>
        <time>2019-06-30T10:20:43.000Z</time>
      </trkpt>
      <trkpt lat="42.98158" lon="0.53763">
        <ele>1511</ele>
        <time>2019-06-30T10:20:45.000Z</time>
      </trkpt>
      <trkpt lat="42.98158" lon="0.53763">
        <ele>1511</ele>
        <time>2019-06-30T10:20:47.000Z</time>
      </trkpt>
      <trkpt lat="42.98158" lon="0.53763">
        <ele>1511</ele>
        <time>2019-06-30T10:20:49.000Z</time>
      </trkpt>
      <trkpt lat="42.98158" lon="0.53762">
        <ele>1511</ele>
        <time>2019-06-30T10:20:51.000Z</time>
      </trkpt>
      <trkpt lat="42.98158" lon="0.53763">
        <ele>1511</ele>
        <time>2019-06-30T10:20:53.000Z</time>
      </trkpt>
      <trkpt lat="42.98158" lon="0.53763">
        <ele>1511</ele>
        <time>2019-06-30T10:20:55.000Z</time>
      </trkpt>
      <trkpt lat="42.98157" lon="0.53763">
        <ele>1511</ele>
        <time>2019-06-30T10:20:57.000Z</time>
      </trkpt>
      <trkpt lat="42.98157" lon="0.53762">
        <ele>1511</ele>
        <time>2019-06-30T10:20:59.000Z</time>
      </trkpt>
      <trkpt lat="42.98157" lon="0.53762">
        <ele>1511</ele>
        <time>2019-06-30T10:21:01.000Z</time>
      </trkpt>
      <trkpt lat="42.98157" lon="0.53762">
        <ele>1510</ele>
        <time>2019-06-30T10:21:03.000Z</time>
      </trkpt>
      <trkpt lat="42.98156" lon="0.53762">
        <ele>1510</ele>
        <time>2019-06-30T10:21:05.000Z</time>
      </trkpt>
      <trkpt lat="42.98156" lon="0.53761">
        <ele>1510</ele>
        <time>2019-06-30T10:21:07.000Z</time>
      </trkpt>
      <trkpt lat="42.98155" lon="0.53761">
        <ele>1509</ele>
        <time>2019-06-30T10:21:09.000Z</time>
      </trkpt>
      <trkpt lat="42.98155" lon="0.53761">
        <ele>1509</ele>
        <time>2019-06-30T10:21:11.000Z</time>
      </trkpt>
      <trkpt lat="42.98154" lon="0.53761">
        <ele>1509</ele>
        <time>2019-06-30T10:21:13.000Z</time>
      </trkpt>
      <trkpt lat="42.98154" lon="0.53761">
        <ele>1509</ele>
        <time>2019-06-30T10:21:15.000Z</time>
      </trkpt>
      <trkpt lat="42.98153" lon="0.5376">
        <ele>1509</ele>
        <time>2019-06-30T10:21:17.000Z</time>
      </trkpt>
      <trkpt lat="42.98153" lon="0.53761">
        <ele>1509</ele>
        <time>2019-06-30T10:21:19.000Z</time>
      </trkpt>
      <trkpt lat="42.98153" lon="0.5376">
        <ele>1508</ele>
        <time>2019-06-30T10:21:21.000Z</time>
      </trkpt>
      <trkpt lat="42.98152" lon="0.5376">
        <ele>1508</ele>
        <time>2019-06-30T10:21:23.000Z</time>
      </trkpt>
      <trkpt lat="42.98152" lon="0.53759">
        <ele>1508</ele>
        <time>2019-06-30T10:21:25.000Z</time>
      </trkpt>
      <trkpt lat="42.98151" lon="0.53758">
        <ele>1508</ele>
        <time>2019-06-30T10:21:27.000Z</time>
      </trkpt>
      <trkpt lat="42.98151" lon="0.53758">
        <ele>1508</ele>
        <time>2019-06-30T10:21:29.000Z</time>
      </trkpt>
      <trkpt lat="42.98151" lon="0.53758">
        <ele>1508</ele>
        <time>2019-06-30T10:21:31.000Z</time>
      </trkpt>
      <trkpt lat="42.98151" lon="0.53758">
        <ele>1508</ele>
        <time>2019-06-30T10:21:33.000Z</time>
      </trkpt>
      <trkpt lat="42.98151" lon="0.53759">
        <ele>1508</ele>
        <time>2019-06-30T10:21:35.000Z</time>
      </trkpt>
      <trkpt lat="42.98151" lon="0.53759">
        <ele>1508</ele>
        <time>2019-06-30T10:21:37.000Z</time>
      </trkpt>
      <trkpt lat="42.98152" lon="0.53759">
        <ele>1508</ele>
        <time>2019-06-30T10:21:39.000Z</time>
      </trkpt>
      <trkpt lat="42.98152" lon="0.5376">
        <ele>1508</ele>
        <time>2019-06-30T10:21:41.000Z</time>
      </trkpt>
      <trkpt lat="42.98153" lon="0.53761">
        <ele>1508</ele>
        <time>2019-06-30T10:21:43.000Z</time>
      </trkpt>
      <trkpt lat="42.98153" lon="0.53762">
        <ele>1508</ele>
        <time>2019-06-30T10:21:45.000Z</time>
      </trkpt>
      <trkpt lat="42.98153" lon="0.53762">
        <ele>1509</ele>
        <time>2019-06-30T10:21:47.000Z</time>
      </trkpt>
      <trkpt lat="42.98153" lon="0.53762">
        <ele>1508</ele>
        <time>2019-06-30T10:21:49.000Z</time>
      </trkpt>
      <trkpt lat="42.98152" lon="0.53762">
        <ele>1508</ele>
        <time>2019-06-30T10:21:51.000Z</time>
      </trkpt>
      <trkpt lat="42.98152" lon="0.53762">
        <ele>1508</ele>
        <time>2019-06-30T10:21:53.000Z</time>
      </trkpt>
      <trkpt lat="42.98152" lon="0.53762">
        <ele>1508</ele>
        <time>2019-06-30T10:21:55.000Z</time>
      </trkpt>
      <trkpt lat="42.98152" lon="0.53762">
        <ele>1508</ele>
        <time>2019-06-30T10:21:57.000Z</time>
      </trkpt>
      <trkpt lat="42.98152" lon="0.53762">
        <ele>1508</ele>
        <time>2019-06-30T10:21:59.000Z</time>
      </trkpt>
      <trkpt lat="42.98153" lon="0.53763">
        <ele>1509</ele>
        <time>2019-06-30T10:22:01.000Z</time>
      </trkpt>
      <trkpt lat="42.98153" lon="0.53763">
        <ele>1509</ele>
        <time>2019-06-30T10:22:03.000Z</time>
      </trkpt>
      <trkpt lat="42.98153" lon="0.53763">
        <ele>1508</ele>
        <time>2019-06-30T10:22:05.000Z</time>
      </trkpt>
      <trkpt lat="42.98153" lon="0.53762">
        <ele>1509</ele>
        <time>2019-06-30T10:22:07.000Z</time>
      </trkpt>
      <trkpt lat="42.98153" lon="0.53762">
        <ele>1508</ele>
        <time>2019-06-30T10:22:09.000Z</time>
      </trkpt>
      <trkpt lat="42.98152" lon="0.53761">
        <ele>1508</ele>
        <time>2019-06-30T10:22:11.000Z</time>
      </trkpt>
      <trkpt lat="42.98152" lon="0.5376">
        <ele>1508</ele>
        <time>2019-06-30T10:22:13.000Z</time>
      </trkpt>
      <trkpt lat="42.98152" lon="0.5376">
        <ele>1508</ele>
        <time>2019-06-30T10:22:15.000Z</time>
      </trkpt>
      <trkpt lat="42.98152" lon="0.53759">
        <ele>1508</ele>
        <time>2019-06-30T10:22:17.000Z</time>
      </trkpt>
      <trkpt lat="42.98152" lon="0.53759">
        <ele>1508</ele>
        <time>2019-06-30T10:22:19.000Z</time>
      </trkpt>
      <trkpt lat="42.98151" lon="0.53759">
        <ele>1508</ele>
        <time>2019-06-30T10:22:21.000Z</time>
      </trkpt>
      <trkpt lat="42.98151" lon="0.53759">
        <ele>1508</ele>
        <time>2019-06-30T10:22:23.000Z</time>
      </trkpt>
      <trkpt lat="42.98151" lon="0.53758">
        <ele>1508</ele>
        <time>2019-06-30T10:22:25.000Z</time>
      </trkpt>
      <trkpt lat="42.98151" lon="0.53759">
        <ele>1508</ele>
        <time>2019-06-30T10:22:27.000Z</time>
      </trkpt>
      <trkpt lat="42.98151" lon="0.53759">
        <ele>1508</ele>
        <time>2019-06-30T10:22:29.000Z</time>
      </trkpt>
      <trkpt lat="42.98152" lon="0.5376">
        <ele>1508</ele>
        <time>2019-06-30T10:22:31.000Z</time>
      </trkpt>
      <trkpt lat="42.98153" lon="0.53763">
        <ele>1509</ele>
        <time>2019-06-30T10:22:33.000Z</time>
      </trkpt>
      <trkpt lat="42.98154" lon="0.53763">
        <ele>1509</ele>
        <time>2019-06-30T10:22:35.000Z</time>
      </trkpt>
      <trkpt lat="42.98155" lon="0.53763">
        <ele>1509</ele>
        <time>2019-06-30T10:22:37.000Z</time>
      </trkpt>
      <trkpt lat="42.98155" lon="0.53763">
        <ele>1509</ele>
        <time>2019-06-30T10:22:39.000Z</time>
      </trkpt>
      <trkpt lat="42.98155" lon="0.53763">
        <ele>1509</ele>
        <time>2019-06-30T10:22:41.000Z</time>
      </trkpt>
      <trkpt lat="42.98155" lon="0.53763">
        <ele>1509</ele>
        <time>2019-06-30T10:22:43.000Z</time>
      </trkpt>
      <trkpt lat="42.98155" lon="0.53763">
        <ele>1509</ele>
        <time>2019-06-30T10:22:45.000Z</time>
      </trkpt>
      <trkpt lat="42.98154" lon="0.53763">
        <ele>1509</ele>
        <time>2019-06-30T10:22:47.000Z</time>
      </trkpt>
      <trkpt lat="42.98156" lon="0.53763">
        <ele>1510</ele>
        <time>2019-06-30T10:22:49.000Z</time>
      </trkpt>
      <trkpt lat="42.98157" lon="0.53764">
        <ele>1510</ele>
        <time>2019-06-30T10:22:51.000Z</time>
      </trkpt>
      <trkpt lat="42.98158" lon="0.53764">
        <ele>1511</ele>
        <time>2019-06-30T10:22:53.000Z</time>
      </trkpt>
      <trkpt lat="42.98158" lon="0.53764">
        <ele>1511</ele>
        <time>2019-06-30T10:22:55.000Z</time>
      </trkpt>
      <trkpt lat="42.98158" lon="0.53764">
        <ele>1511</ele>
        <time>2019-06-30T10:22:57.000Z</time>
      </trkpt>
      <trkpt lat="42.98158" lon="0.53764">
        <ele>1511</ele>
        <time>2019-06-30T10:22:59.000Z</time>
      </trkpt>
      <trkpt lat="42.98159" lon="0.53764">
        <ele>1511</ele>
        <time>2019-06-30T10:23:01.000Z</time>
      </trkpt>
      <trkpt lat="42.98159" lon="0.53764">
        <ele>1512</ele>
        <time>2019-06-30T10:23:03.000Z</time>
      </trkpt>
      <trkpt lat="42.98159" lon="0.53764">
        <ele>1512</ele>
        <time>2019-06-30T10:23:05.000Z</time>
      </trkpt>
      <trkpt lat="42.9816" lon="0.53764">
        <ele>1512</ele>
        <time>2019-06-30T10:23:07.000Z</time>
      </trkpt>
      <trkpt lat="42.9816" lon="0.53764">
        <ele>1512</ele>
        <time>2019-06-30T10:23:09.000Z</time>
      </trkpt>
      <trkpt lat="42.98159" lon="0.53764">
        <ele>1511</ele>
        <time>2019-06-30T10:23:11.000Z</time>
      </trkpt>
      <trkpt lat="42.98158" lon="0.53765">
        <ele>1511</ele>
        <time>2019-06-30T10:23:13.000Z</time>
      </trkpt>
      <trkpt lat="42.98158" lon="0.53765">
        <ele>1511</ele>
        <time>2019-06-30T10:23:15.000Z</time>
      </trkpt>
      <trkpt lat="42.98157" lon="0.53765">
        <ele>1511</ele>
        <time>2019-06-30T10:23:17.000Z</time>
      </trkpt>
      <trkpt lat="42.98157" lon="0.53765">
        <ele>1510</ele>
        <time>2019-06-30T10:23:19.000Z</time>
      </trkpt>
      <trkpt lat="42.98156" lon="0.53766">
        <ele>1510</ele>
        <time>2019-06-30T10:23:21.000Z</time>
      </trkpt>
      <trkpt lat="42.98157" lon="0.53765">
        <ele>1510</ele>
        <time>2019-06-30T10:23:23.000Z</time>
      </trkpt>
      <trkpt lat="42.98158" lon="0.53764">
        <ele>1511</ele>
        <time>2019-06-30T10:23:25.000Z</time>
      </trkpt>
      <trkpt lat="42.98158" lon="0.53763">
        <ele>1511</ele>
        <time>2019-06-30T10:23:27.000Z</time>
      </trkpt>
      <trkpt lat="42.98159" lon="0.53762">
        <ele>1511</ele>
        <time>2019-06-30T10:23:29.000Z</time>
      </trkpt>
      <trkpt lat="42.98158" lon="0.53761">
        <ele>1511</ele>
        <time>2019-06-30T10:23:31.000Z</time>
      </trkpt>
      <trkpt lat="42.98158" lon="0.53761">
        <ele>1511</ele>
        <time>2019-06-30T10:23:33.000Z</time>
      </trkpt>
      <trkpt lat="42.98157" lon="0.53761">
        <ele>1511</ele>
        <time>2019-06-30T10:23:35.000Z</time>
      </trkpt>
      <trkpt lat="42.98156" lon="0.5376">
        <ele>1510</ele>
        <time>2019-06-30T10:23:37.000Z</time>
      </trkpt>
      <trkpt lat="42.98156" lon="0.53761">
        <ele>1510</ele>
        <time>2019-06-30T10:23:39.000Z</time>
      </trkpt>
      <trkpt lat="42.98155" lon="0.53761">
        <ele>1510</ele>
        <time>2019-06-30T10:23:41.000Z</time>
      </trkpt>
      <trkpt lat="42.98155" lon="0.53761">
        <ele>1510</ele>
        <time>2019-06-30T10:23:43.000Z</time>
      </trkpt>
      <trkpt lat="42.98155" lon="0.53761">
        <ele>1510</ele>
        <time>2019-06-30T10:23:45.000Z</time>
      </trkpt>
      <trkpt lat="42.98156" lon="0.5376">
        <ele>1510</ele>
        <time>2019-06-30T10:23:47.000Z</time>
      </trkpt>
      <trkpt lat="42.98156" lon="0.5376">
        <ele>1510</ele>
        <time>2019-06-30T10:23:49.000Z</time>
      </trkpt>
      <trkpt lat="42.98156" lon="0.5376">
        <ele>1510</ele>
        <time>2019-06-30T10:23:51.000Z</time>
      </trkpt>
      <trkpt lat="42.98157" lon="0.5376">
        <ele>1510</ele>
        <time>2019-06-30T10:23:53.000Z</time>
      </trkpt>
      <trkpt lat="42.98156" lon="0.5376">
        <ele>1510</ele>
        <time>2019-06-30T10:23:55.000Z</time>
      </trkpt>
      <trkpt lat="42.98156" lon="0.5376">
        <ele>1510</ele>
        <time>2019-06-30T10:23:57.000Z</time>
      </trkpt>
      <trkpt lat="42.98156" lon="0.5376">
        <ele>1510</ele>
        <time>2019-06-30T10:23:59.000Z</time>
      </trkpt>
      <trkpt lat="42.98156" lon="0.53759">
        <ele>1510</ele>
        <time>2019-06-30T10:24:01.000Z</time>
      </trkpt>
      <trkpt lat="42.98156" lon="0.5376">
        <ele>1510</ele>
        <time>2019-06-30T10:24:03.000Z</time>
      </trkpt>
      <trkpt lat="42.98156" lon="0.5376">
        <ele>1510</ele>
        <time>2019-06-30T10:24:05.000Z</time>
      </trkpt>
      <trkpt lat="42.98155" lon="0.5376">
        <ele>1510</ele>
        <time>2019-06-30T10:24:07.000Z</time>
      </trkpt>
      <trkpt lat="42.98155" lon="0.5376">
        <ele>1509</ele>
        <time>2019-06-30T10:24:09.000Z</time>
      </trkpt>
      <trkpt lat="42.98154" lon="0.5376">
        <ele>1509</ele>
        <time>2019-06-30T10:24:11.000Z</time>
      </trkpt>
      <trkpt lat="42.98154" lon="0.53761">
        <ele>1509</ele>
        <time>2019-06-30T10:24:13.000Z</time>
      </trkpt>
      <trkpt lat="42.98155" lon="0.53762">
        <ele>1509</ele>
        <time>2019-06-30T10:24:15.000Z</time>
      </trkpt>
      <trkpt lat="42.98155" lon="0.53763">
        <ele>1510</ele>
        <time>2019-06-30T10:24:17.000Z</time>
      </trkpt>
      <trkpt lat="42.98155" lon="0.53763">
        <ele>1510</ele>
        <time>2019-06-30T10:24:19.000Z</time>
      </trkpt>
      <trkpt lat="42.98155" lon="0.53763">
        <ele>1510</ele>
        <time>2019-06-30T10:24:21.000Z</time>
      </trkpt>
      <trkpt lat="42.98155" lon="0.53763">
        <ele>1510</ele>
        <time>2019-06-30T10:24:23.000Z</time>
      </trkpt>
      <trkpt lat="42.98157" lon="0.53761">
        <ele>1510</ele>
        <time>2019-06-30T10:24:25.000Z</time>
      </trkpt>
      <trkpt lat="42.98157" lon="0.5376">
        <ele>1511</ele>
        <time>2019-06-30T10:24:27.000Z</time>
      </trkpt>
      <trkpt lat="42.98158" lon="0.53761">
        <ele>1511</ele>
        <time>2019-06-30T10:24:29.000Z</time>
      </trkpt>
      <trkpt lat="42.98159" lon="0.5376">
        <ele>1511</ele>
        <time>2019-06-30T10:24:31.000Z</time>
      </trkpt>
      <trkpt lat="42.98159" lon="0.5376">
        <ele>1511</ele>
        <time>2019-06-30T10:24:33.000Z</time>
      </trkpt>
      <trkpt lat="42.9816" lon="0.5376">
        <ele>1512</ele>
        <time>2019-06-30T10:24:35.000Z</time>
      </trkpt>
      <trkpt lat="42.9816" lon="0.5376">
        <ele>1512</ele>
        <time>2019-06-30T10:24:37.000Z</time>
      </trkpt>
      <trkpt lat="42.98159" lon="0.5376">
        <ele>1512</ele>
        <time>2019-06-30T10:24:39.000Z</time>
      </trkpt>
      <trkpt lat="42.98159" lon="0.53759">
        <ele>1512</ele>
        <time>2019-06-30T10:24:41.000Z</time>
      </trkpt>
      <trkpt lat="42.98159" lon="0.53759">
        <ele>1511</ele>
        <time>2019-06-30T10:24:43.000Z</time>
      </trkpt>
      <trkpt lat="42.98158" lon="0.53758">
        <ele>1511</ele>
        <time>2019-06-30T10:24:45.000Z</time>
      </trkpt>
      <trkpt lat="42.98157" lon="0.53758">
        <ele>1511</ele>
        <time>2019-06-30T10:24:47.000Z</time>
      </trkpt>
      <trkpt lat="42.98157" lon="0.53758">
        <ele>1510</ele>
        <time>2019-06-30T10:24:49.000Z</time>
      </trkpt>
      <trkpt lat="42.98156" lon="0.53757">
        <ele>1510</ele>
        <time>2019-06-30T10:24:51.000Z</time>
      </trkpt>
      <trkpt lat="42.98155" lon="0.53757">
        <ele>1510</ele>
        <time>2019-06-30T10:24:53.000Z</time>
      </trkpt>
      <trkpt lat="42.98154" lon="0.53758">
        <ele>1509</ele>
        <time>2019-06-30T10:24:55.000Z</time>
      </trkpt>
      <trkpt lat="42.98153" lon="0.5376">
        <ele>1509</ele>
        <time>2019-06-30T10:24:57.000Z</time>
      </trkpt>
      <trkpt lat="42.98152" lon="0.53761">
        <ele>1508</ele>
        <time>2019-06-30T10:24:59.000Z</time>
      </trkpt>
      <trkpt lat="42.98151" lon="0.53762">
        <ele>1507</ele>
        <time>2019-06-30T10:25:01.000Z</time>
      </trkpt>
      <trkpt lat="42.9815" lon="0.53763">
        <ele>1507</ele>
        <time>2019-06-30T10:25:03.000Z</time>
      </trkpt>
      <trkpt lat="42.98149" lon="0.53763">
        <ele>1507</ele>
        <time>2019-06-30T10:25:05.000Z</time>
      </trkpt>
      <trkpt lat="42.98148" lon="0.53766">
        <ele>1506</ele>
        <time>2019-06-30T10:25:07.000Z</time>
      </trkpt>
      <trkpt lat="42.98148" lon="0.53764">
        <ele>1506</ele>
        <time>2019-06-30T10:25:09.000Z</time>
      </trkpt>
      <trkpt lat="42.98151" lon="0.53764">
        <ele>1507</ele>
        <time>2019-06-30T10:25:11.000Z</time>
      </trkpt>
      <trkpt lat="42.98151" lon="0.53764">
        <ele>1508</ele>
        <time>2019-06-30T10:25:13.000Z</time>
      </trkpt>
      <trkpt lat="42.98152" lon="0.53763">
        <ele>1508</ele>
        <time>2019-06-30T10:25:15.000Z</time>
      </trkpt>
      <trkpt lat="42.98153" lon="0.53764">
        <ele>1509</ele>
        <time>2019-06-30T10:25:17.000Z</time>
      </trkpt>
      <trkpt lat="42.98153" lon="0.53764">
        <ele>1509</ele>
        <time>2019-06-30T10:25:19.000Z</time>
      </trkpt>
      <trkpt lat="42.98153" lon="0.53765">
        <ele>1509</ele>
        <time>2019-06-30T10:25:21.000Z</time>
      </trkpt>
      <trkpt lat="42.98154" lon="0.53765">
        <ele>1509</ele>
        <time>2019-06-30T10:25:23.000Z</time>
      </trkpt>
      <trkpt lat="42.98153" lon="0.53764">
        <ele>1509</ele>
        <time>2019-06-30T10:25:25.000Z</time>
      </trkpt>
      <trkpt lat="42.98153" lon="0.53764">
        <ele>1509</ele>
        <time>2019-06-30T10:25:27.000Z</time>
      </trkpt>
      <trkpt lat="42.98152" lon="0.53763">
        <ele>1508</ele>
        <time>2019-06-30T10:25:29.000Z</time>
      </trkpt>
      <trkpt lat="42.98152" lon="0.53763">
        <ele>1508</ele>
        <time>2019-06-30T10:25:31.000Z</time>
      </trkpt>
      <trkpt lat="42.98152" lon="0.53762">
        <ele>1508</ele>
        <time>2019-06-30T10:25:33.000Z</time>
      </trkpt>
      <trkpt lat="42.98152" lon="0.53761">
        <ele>1508</ele>
        <time>2019-06-30T10:25:35.000Z</time>
      </trkpt>
      <trkpt lat="42.98152" lon="0.53762">
        <ele>1508</ele>
        <time>2019-06-30T10:25:37.000Z</time>
      </trkpt>
      <trkpt lat="42.98152" lon="0.53762">
        <ele>1508</ele>
        <time>2019-06-30T10:25:39.000Z</time>
      </trkpt>
      <trkpt lat="42.98152" lon="0.53762">
        <ele>1508</ele>
        <time>2019-06-30T10:25:41.000Z</time>
      </trkpt>
      <trkpt lat="42.98153" lon="0.53761">
        <ele>1508</ele>
        <time>2019-06-30T10:25:43.000Z</time>
      </trkpt>
      <trkpt lat="42.98153" lon="0.53761">
        <ele>1509</ele>
        <time>2019-06-30T10:25:45.000Z</time>
      </trkpt>
      <trkpt lat="42.98154" lon="0.53761">
        <ele>1509</ele>
        <time>2019-06-30T10:25:47.000Z</time>
      </trkpt>
      <trkpt lat="42.98154" lon="0.53761">
        <ele>1509</ele>
        <time>2019-06-30T10:25:49.000Z</time>
      </trkpt>
      <trkpt lat="42.98153" lon="0.53762">
        <ele>1509</ele>
        <time>2019-06-30T10:25:51.000Z</time>
      </trkpt>
      <trkpt lat="42.98153" lon="0.53761">
        <ele>1509</ele>
        <time>2019-06-30T10:25:53.000Z</time>
      </trkpt>
      <trkpt lat="42.98154" lon="0.5376">
        <ele>1509</ele>
        <time>2019-06-30T10:25:55.000Z</time>
      </trkpt>
      <trkpt lat="42.98155" lon="0.5376">
        <ele>1510</ele>
        <time>2019-06-30T10:25:57.000Z</time>
      </trkpt>
      <trkpt lat="42.98156" lon="0.5376">
        <ele>1510</ele>
        <time>2019-06-30T10:25:59.000Z</time>
      </trkpt>
      <trkpt lat="42.98156" lon="0.5376">
        <ele>1510</ele>
        <time>2019-06-30T10:26:01.000Z</time>
      </trkpt>
      <trkpt lat="42.98156" lon="0.5376">
        <ele>1510</ele>
        <time>2019-06-30T10:26:03.000Z</time>
      </trkpt>
      <trkpt lat="42.98156" lon="0.5376">
        <ele>1510</ele>
        <time>2019-06-30T10:26:05.000Z</time>
      </trkpt>
      <trkpt lat="42.98156" lon="0.53761">
        <ele>1510</ele>
        <time>2019-06-30T10:26:07.000Z</time>
      </trkpt>
      <trkpt lat="42.98157" lon="0.5376">
        <ele>1510</ele>
        <time>2019-06-30T10:26:09.000Z</time>
      </trkpt>
      <trkpt lat="42.98157" lon="0.5376">
        <ele>1510</ele>
        <time>2019-06-30T10:26:11.000Z</time>
      </trkpt>
      <trkpt lat="42.98157" lon="0.5376">
        <ele>1511</ele>
        <time>2019-06-30T10:26:13.000Z</time>
      </trkpt>
      <trkpt lat="42.98157" lon="0.5376">
        <ele>1511</ele>
        <time>2019-06-30T10:26:15.000Z</time>
      </trkpt>
      <trkpt lat="42.98157" lon="0.5376">
        <ele>1511</ele>
        <time>2019-06-30T10:26:17.000Z</time>
      </trkpt>
      <trkpt lat="42.98158" lon="0.5376">
        <ele>1511</ele>
        <time>2019-06-30T10:26:19.000Z</time>
      </trkpt>
      <trkpt lat="42.98158" lon="0.5376">
        <ele>1511</ele>
        <time>2019-06-30T10:26:21.000Z</time>
      </trkpt>
      <trkpt lat="42.98158" lon="0.5376">
        <ele>1511</ele>
        <time>2019-06-30T10:26:23.000Z</time>
      </trkpt>
      <trkpt lat="42.98158" lon="0.5376">
        <ele>1511</ele>
        <time>2019-06-30T10:26:25.000Z</time>
      </trkpt>
      <trkpt lat="42.98158" lon="0.53759">
        <ele>1511</ele>
        <time>2019-06-30T10:26:27.000Z</time>
      </trkpt>
      <trkpt lat="42.98158" lon="0.53759">
        <ele>1511</ele>
        <time>2019-06-30T10:26:29.000Z</time>
      </trkpt>
      <trkpt lat="42.98159" lon="0.5376">
        <ele>1511</ele>
        <time>2019-06-30T10:26:31.000Z</time>
      </trkpt>
      <trkpt lat="42.98158" lon="0.5376">
        <ele>1511</ele>
        <time>2019-06-30T10:26:33.000Z</time>
      </trkpt>
      <trkpt lat="42.98159" lon="0.5376">
        <ele>1511</ele>
        <time>2019-06-30T10:26:35.000Z</time>
      </trkpt>
      <trkpt lat="42.98159" lon="0.5376">
        <ele>1511</ele>
        <time>2019-06-30T10:26:37.000Z</time>
      </trkpt>
      <trkpt lat="42.98159" lon="0.53761">
        <ele>1511</ele>
        <time>2019-06-30T10:26:39.000Z</time>
      </trkpt>
      <trkpt lat="42.98158" lon="0.53761">
        <ele>1511</ele>
        <time>2019-06-30T10:26:41.000Z</time>
      </trkpt>
      <trkpt lat="42.98158" lon="0.53761">
        <ele>1511</ele>
        <time>2019-06-30T10:26:43.000Z</time>
      </trkpt>
      <trkpt lat="42.98157" lon="0.53762">
        <ele>1511</ele>
        <time>2019-06-30T10:26:45.000Z</time>
      </trkpt>
      <trkpt lat="42.98158" lon="0.53762">
        <ele>1511</ele>
        <time>2019-06-30T10:26:47.000Z</time>
      </trkpt>
      <trkpt lat="42.98157" lon="0.53762">
        <ele>1511</ele>
        <time>2019-06-30T10:26:49.000Z</time>
      </trkpt>
      <trkpt lat="42.98158" lon="0.53761">
        <ele>1511</ele>
        <time>2019-06-30T10:26:51.000Z</time>
      </trkpt>
      <trkpt lat="42.98158" lon="0.53761">
        <ele>1511</ele>
        <time>2019-06-30T10:26:53.000Z</time>
      </trkpt>
      <trkpt lat="42.98157" lon="0.53761">
        <ele>1511</ele>
        <time>2019-06-30T10:26:55.000Z</time>
      </trkpt>
      <trkpt lat="42.98157" lon="0.53761">
        <ele>1511</ele>
        <time>2019-06-30T10:26:57.000Z</time>
      </trkpt>
      <trkpt lat="42.98157" lon="0.53761">
        <ele>1511</ele>
        <time>2019-06-30T10:26:59.000Z</time>
      </trkpt>
      <trkpt lat="42.98157" lon="0.5376">
        <ele>1511</ele>
        <time>2019-06-30T10:27:01.000Z</time>
      </trkpt>
      <trkpt lat="42.98157" lon="0.5376">
        <ele>1510</ele>
        <time>2019-06-30T10:27:03.000Z</time>
      </trkpt>
      <trkpt lat="42.98157" lon="0.5376">
        <ele>1510</ele>
        <time>2019-06-30T10:27:05.000Z</time>
      </trkpt>
      <trkpt lat="42.98157" lon="0.5376">
        <ele>1511</ele>
        <time>2019-06-30T10:27:07.000Z</time>
      </trkpt>
      <trkpt lat="42.98156" lon="0.5376">
        <ele>1510</ele>
        <time>2019-06-30T10:27:09.000Z</time>
      </trkpt>
      <trkpt lat="42.98157" lon="0.5376">
        <ele>1510</ele>
        <time>2019-06-30T10:27:11.000Z</time>
      </trkpt>
      <trkpt lat="42.98157" lon="0.5376">
        <ele>1510</ele>
        <time>2019-06-30T10:27:13.000Z</time>
      </trkpt>
      <trkpt lat="42.98157" lon="0.5376">
        <ele>1510</ele>
        <time>2019-06-30T10:27:15.000Z</time>
      </trkpt>
      <trkpt lat="42.98156" lon="0.5376">
        <ele>1510</ele>
        <time>2019-06-30T10:27:17.000Z</time>
      </trkpt>
      <trkpt lat="42.98156" lon="0.53761">
        <ele>1510</ele>
        <time>2019-06-30T10:27:19.000Z</time>
      </trkpt>
      <trkpt lat="42.98156" lon="0.53761">
        <ele>1510</ele>
        <time>2019-06-30T10:27:21.000Z</time>
      </trkpt>
      <trkpt lat="42.98156" lon="0.5376">
        <ele>1510</ele>
        <time>2019-06-30T10:27:23.000Z</time>
      </trkpt>
      <trkpt lat="42.98157" lon="0.5376">
        <ele>1510</ele>
        <time>2019-06-30T10:27:25.000Z</time>
      </trkpt>
      <trkpt lat="42.98157" lon="0.53759">
        <ele>1510</ele>
        <time>2019-06-30T10:27:27.000Z</time>
      </trkpt>
      <trkpt lat="42.98158" lon="0.53758">
        <ele>1511</ele>
        <time>2019-06-30T10:27:29.000Z</time>
      </trkpt>
      <trkpt lat="42.98158" lon="0.53757">
        <ele>1511</ele>
        <time>2019-06-30T10:27:31.000Z</time>
      </trkpt>
      <trkpt lat="42.98158" lon="0.53757">
        <ele>1511</ele>
        <time>2019-06-30T10:27:33.000Z</time>
      </trkpt>
      <trkpt lat="42.98158" lon="0.53757">
        <ele>1511</ele>
        <time>2019-06-30T10:27:35.000Z</time>
      </trkpt>
      <trkpt lat="42.98158" lon="0.53757">
        <ele>1511</ele>
        <time>2019-06-30T10:27:37.000Z</time>
      </trkpt>
      <trkpt lat="42.98158" lon="0.53757">
        <ele>1511</ele>
        <time>2019-06-30T10:27:39.000Z</time>
      </trkpt>
      <trkpt lat="42.98158" lon="0.53758">
        <ele>1511</ele>
        <time>2019-06-30T10:27:41.000Z</time>
      </trkpt>
      <trkpt lat="42.98159" lon="0.53759">
        <ele>1511</ele>
        <time>2019-06-30T10:27:43.000Z</time>
      </trkpt>
      <trkpt lat="42.98159" lon="0.53759">
        <ele>1511</ele>
        <time>2019-06-30T10:27:45.000Z</time>
      </trkpt>
      <trkpt lat="42.98159" lon="0.53759">
        <ele>1511</ele>
        <time>2019-06-30T10:27:47.000Z</time>
      </trkpt>
      <trkpt lat="42.98159" lon="0.53759">
        <ele>1511</ele>
        <time>2019-06-30T10:27:49.000Z</time>
      </trkpt>
      <trkpt lat="42.98159" lon="0.53759">
        <ele>1512</ele>
        <time>2019-06-30T10:27:51.000Z</time>
      </trkpt>
      <trkpt lat="42.98159" lon="0.53759">
        <ele>1511</ele>
        <time>2019-06-30T10:27:53.000Z</time>
      </trkpt>
      <trkpt lat="42.98159" lon="0.53759">
        <ele>1512</ele>
        <time>2019-06-30T10:27:55.000Z</time>
      </trkpt>
      <trkpt lat="42.98159" lon="0.53759">
        <ele>1511</ele>
        <time>2019-06-30T10:27:57.000Z</time>
      </trkpt>
      <trkpt lat="42.98158" lon="0.53759">
        <ele>1511</ele>
        <time>2019-06-30T10:27:59.000Z</time>
      </trkpt>
      <trkpt lat="42.98158" lon="0.53759">
        <ele>1511</ele>
        <time>2019-06-30T10:28:01.000Z</time>
      </trkpt>
      <trkpt lat="42.98157" lon="0.53759">
        <ele>1511</ele>
        <time>2019-06-30T10:28:03.000Z</time>
      </trkpt>
      <trkpt lat="42.98157" lon="0.53759">
        <ele>1510</ele>
        <time>2019-06-30T10:28:05.000Z</time>
      </trkpt>
      <trkpt lat="42.98156" lon="0.53759">
        <ele>1510</ele>
        <time>2019-06-30T10:28:07.000Z</time>
      </trkpt>
      <trkpt lat="42.98156" lon="0.5376">
        <ele>1510</ele>
        <time>2019-06-30T10:28:09.000Z</time>
      </trkpt>
      <trkpt lat="42.98156" lon="0.5376">
        <ele>1510</ele>
        <time>2019-06-30T10:28:11.000Z</time>
      </trkpt>
      <trkpt lat="42.98156" lon="0.5376">
        <ele>1510</ele>
        <time>2019-06-30T10:28:13.000Z</time>
      </trkpt>
      <trkpt lat="42.98156" lon="0.53761">
        <ele>1510</ele>
        <time>2019-06-30T10:28:15.000Z</time>
      </trkpt>
      <trkpt lat="42.98156" lon="0.53761">
        <ele>1510</ele>
        <time>2019-06-30T10:28:17.000Z</time>
      </trkpt>
      <trkpt lat="42.98157" lon="0.53761">
        <ele>1510</ele>
        <time>2019-06-30T10:28:19.000Z</time>
      </trkpt>
      <trkpt lat="42.98157" lon="0.53761">
        <ele>1510</ele>
        <time>2019-06-30T10:28:21.000Z</time>
      </trkpt>
      <trkpt lat="42.98157" lon="0.53761">
        <ele>1510</ele>
        <time>2019-06-30T10:28:23.000Z</time>
      </trkpt>
      <trkpt lat="42.98157" lon="0.53761">
        <ele>1511</ele>
        <time>2019-06-30T10:28:25.000Z</time>
      </trkpt>
      <trkpt lat="42.98157" lon="0.53761">
        <ele>1511</ele>
        <time>2019-06-30T10:28:27.000Z</time>
      </trkpt>
      <trkpt lat="42.98158" lon="0.53761">
        <ele>1511</ele>
        <time>2019-06-30T10:28:29.000Z</time>
      </trkpt>
      <trkpt lat="42.98157" lon="0.5376">
        <ele>1511</ele>
        <time>2019-06-30T10:28:31.000Z</time>
      </trkpt>
      <trkpt lat="42.98157" lon="0.5376">
        <ele>1511</ele>
        <time>2019-06-30T10:28:33.000Z</time>
      </trkpt>
      <trkpt lat="42.98157" lon="0.53759">
        <ele>1511</ele>
        <time>2019-06-30T10:28:35.000Z</time>
      </trkpt>
      <trkpt lat="42.98157" lon="0.53759">
        <ele>1511</ele>
        <time>2019-06-30T10:28:37.000Z</time>
      </trkpt>
      <trkpt lat="42.98157" lon="0.53759">
        <ele>1511</ele>
        <time>2019-06-30T10:28:39.000Z</time>
      </trkpt>
      <trkpt lat="42.98157" lon="0.53759">
        <ele>1511</ele>
        <time>2019-06-30T10:28:41.000Z</time>
      </trkpt>
      <trkpt lat="42.98157" lon="0.5376">
        <ele>1511</ele>
        <time>2019-06-30T10:28:43.000Z</time>
      </trkpt>
      <trkpt lat="42.98157" lon="0.53759">
        <ele>1511</ele>
        <time>2019-06-30T10:28:45.000Z</time>
      </trkpt>
      <trkpt lat="42.98157" lon="0.53759">
        <ele>1511</ele>
        <time>2019-06-30T10:28:47.000Z</time>
      </trkpt>
      <trkpt lat="42.98158" lon="0.53759">
        <ele>1511</ele>
        <time>2019-06-30T10:28:49.000Z</time>
      </trkpt>
      <trkpt lat="42.98158" lon="0.53759">
        <ele>1511</ele>
        <time>2019-06-30T10:28:51.000Z</time>
      </trkpt>
      <trkpt lat="42.98158" lon="0.53759">
        <ele>1511</ele>
        <time>2019-06-30T10:28:53.000Z</time>
      </trkpt>
      <trkpt lat="42.98158" lon="0.53758">
        <ele>1511</ele>
        <time>2019-06-30T10:28:55.000Z</time>
      </trkpt>
      <trkpt lat="42.98159" lon="0.53758">
        <ele>1511</ele>
        <time>2019-06-30T10:28:57.000Z</time>
      </trkpt>
      <trkpt lat="42.98158" lon="0.53757">
        <ele>1511</ele>
        <time>2019-06-30T10:28:59.000Z</time>
      </trkpt>
      <trkpt lat="42.98158" lon="0.53757">
        <ele>1511</ele>
        <time>2019-06-30T10:29:01.000Z</time>
      </trkpt>
      <trkpt lat="42.98158" lon="0.53757">
        <ele>1511</ele>
        <time>2019-06-30T10:29:03.000Z</time>
      </trkpt>
      <trkpt lat="42.98157" lon="0.53756">
        <ele>1511</ele>
        <time>2019-06-30T10:29:05.000Z</time>
      </trkpt>
      <trkpt lat="42.98158" lon="0.53756">
        <ele>1511</ele>
        <time>2019-06-30T10:29:07.000Z</time>
      </trkpt>
      <trkpt lat="42.98157" lon="0.53756">
        <ele>1511</ele>
        <time>2019-06-30T10:29:09.000Z</time>
      </trkpt>
      <trkpt lat="42.98157" lon="0.53756">
        <ele>1510</ele>
        <time>2019-06-30T10:29:11.000Z</time>
      </trkpt>
      <trkpt lat="42.98157" lon="0.53755">
        <ele>1511</ele>
        <time>2019-06-30T10:29:13.000Z</time>
      </trkpt>
      <trkpt lat="42.98157" lon="0.53756">
        <ele>1511</ele>
        <time>2019-06-30T10:29:15.000Z</time>
      </trkpt>
      <trkpt lat="42.98158" lon="0.53756">
        <ele>1511</ele>
        <time>2019-06-30T10:29:17.000Z</time>
      </trkpt>
      <trkpt lat="42.98158" lon="0.53756">
        <ele>1511</ele>
        <time>2019-06-30T10:29:19.000Z</time>
      </trkpt>
      <trkpt lat="42.98158" lon="0.53756">
        <ele>1511</ele>
        <time>2019-06-30T10:29:21.000Z</time>
      </trkpt>
      <trkpt lat="42.98158" lon="0.53756">
        <ele>1511</ele>
        <time>2019-06-30T10:29:23.000Z</time>
      </trkpt>
      <trkpt lat="42.98159" lon="0.53756">
        <ele>1511</ele>
        <time>2019-06-30T10:29:25.000Z</time>
      </trkpt>
      <trkpt lat="42.98159" lon="0.53756">
        <ele>1511</ele>
        <time>2019-06-30T10:29:27.000Z</time>
      </trkpt>
      <trkpt lat="42.98159" lon="0.53756">
        <ele>1512</ele>
        <time>2019-06-30T10:29:29.000Z</time>
      </trkpt>
      <trkpt lat="42.9816" lon="0.53756">
        <ele>1512</ele>
        <time>2019-06-30T10:29:31.000Z</time>
      </trkpt>
      <trkpt lat="42.98162" lon="0.53756">
        <ele>1513</ele>
        <time>2019-06-30T10:29:33.000Z</time>
      </trkpt>
      <trkpt lat="42.98165" lon="0.5376">
        <ele>1515</ele>
        <time>2019-06-30T10:29:35.000Z</time>
      </trkpt>
      <trkpt lat="42.98165" lon="0.53761">
        <ele>1514</ele>
        <time>2019-06-30T10:29:37.000Z</time>
      </trkpt>
      <trkpt lat="42.98164" lon="0.53761">
        <ele>1514</ele>
        <time>2019-06-30T10:29:39.000Z</time>
      </trkpt>
      <trkpt lat="42.98164" lon="0.5376">
        <ele>1514</ele>
        <time>2019-06-30T10:29:41.000Z</time>
      </trkpt>
      <trkpt lat="42.98163" lon="0.5376">
        <ele>1513</ele>
        <time>2019-06-30T10:29:43.000Z</time>
      </trkpt>
      <trkpt lat="42.98162" lon="0.5376">
        <ele>1513</ele>
        <time>2019-06-30T10:29:45.000Z</time>
      </trkpt>
      <trkpt lat="42.98161" lon="0.53759">
        <ele>1512</ele>
        <time>2019-06-30T10:29:47.000Z</time>
      </trkpt>
      <trkpt lat="42.98161" lon="0.53759">
        <ele>1512</ele>
        <time>2019-06-30T10:29:49.000Z</time>
      </trkpt>
      <trkpt lat="42.9816" lon="0.53759">
        <ele>1512</ele>
        <time>2019-06-30T10:29:51.000Z</time>
      </trkpt>
      <trkpt lat="42.9816" lon="0.5376">
        <ele>1512</ele>
        <time>2019-06-30T10:29:53.000Z</time>
      </trkpt>
      <trkpt lat="42.98159" lon="0.5376">
        <ele>1512</ele>
        <time>2019-06-30T10:29:55.000Z</time>
      </trkpt>
      <trkpt lat="42.98159" lon="0.53761">
        <ele>1511</ele>
        <time>2019-06-30T10:29:57.000Z</time>
      </trkpt>
      <trkpt lat="42.98158" lon="0.53761">
        <ele>1511</ele>
        <time>2019-06-30T10:29:59.000Z</time>
      </trkpt>
      <trkpt lat="42.98157" lon="0.53761">
        <ele>1511</ele>
        <time>2019-06-30T10:30:01.000Z</time>
      </trkpt>
      <trkpt lat="42.98157" lon="0.5376">
        <ele>1511</ele>
        <time>2019-06-30T10:30:03.000Z</time>
      </trkpt>
      <trkpt lat="42.98157" lon="0.53759">
        <ele>1511</ele>
        <time>2019-06-30T10:30:05.000Z</time>
      </trkpt>
      <trkpt lat="42.98158" lon="0.53758">
        <ele>1511</ele>
        <time>2019-06-30T10:30:07.000Z</time>
      </trkpt>
      <trkpt lat="42.98157" lon="0.53758">
        <ele>1511</ele>
        <time>2019-06-30T10:30:09.000Z</time>
      </trkpt>
      <trkpt lat="42.98157" lon="0.53758">
        <ele>1511</ele>
        <time>2019-06-30T10:30:11.000Z</time>
      </trkpt>
      <trkpt lat="42.98158" lon="0.53758">
        <ele>1511</ele>
        <time>2019-06-30T10:30:13.000Z</time>
      </trkpt>
      <trkpt lat="42.98158" lon="0.53757">
        <ele>1511</ele>
        <time>2019-06-30T10:30:15.000Z</time>
      </trkpt>
      <trkpt lat="42.98158" lon="0.53758">
        <ele>1511</ele>
        <time>2019-06-30T10:30:17.000Z</time>
      </trkpt>
      <trkpt lat="42.98158" lon="0.53758">
        <ele>1511</ele>
        <time>2019-06-30T10:30:19.000Z</time>
      </trkpt>
      <trkpt lat="42.98158" lon="0.53758">
        <ele>1511</ele>
        <time>2019-06-30T10:30:21.000Z</time>
      </trkpt>
      <trkpt lat="42.98156" lon="0.53757">
        <ele>1510</ele>
        <time>2019-06-30T10:30:23.000Z</time>
      </trkpt>
      <trkpt lat="42.98156" lon="0.53757">
        <ele>1510</ele>
        <time>2019-06-30T10:30:25.000Z</time>
      </trkpt>
      <trkpt lat="42.98156" lon="0.53757">
        <ele>1510</ele>
        <time>2019-06-30T10:30:27.000Z</time>
      </trkpt>
      <trkpt lat="42.98155" lon="0.53757">
        <ele>1510</ele>
        <time>2019-06-30T10:30:29.000Z</time>
      </trkpt>
      <trkpt lat="42.98155" lon="0.53758">
        <ele>1510</ele>
        <time>2019-06-30T10:30:31.000Z</time>
      </trkpt>
      <trkpt lat="42.98156" lon="0.53758">
        <ele>1510</ele>
        <time>2019-06-30T10:30:33.000Z</time>
      </trkpt>
      <trkpt lat="42.98156" lon="0.53758">
        <ele>1510</ele>
        <time>2019-06-30T10:30:35.000Z</time>
      </trkpt>
      <trkpt lat="42.98156" lon="0.53758">
        <ele>1510</ele>
        <time>2019-06-30T10:30:37.000Z</time>
      </trkpt>
      <trkpt lat="42.98156" lon="0.53758">
        <ele>1510</ele>
        <time>2019-06-30T10:30:39.000Z</time>
      </trkpt>
      <trkpt lat="42.98156" lon="0.53758">
        <ele>1510</ele>
        <time>2019-06-30T10:30:41.000Z</time>
      </trkpt>
      <trkpt lat="42.98156" lon="0.53758">
        <ele>1510</ele>
        <time>2019-06-30T10:30:43.000Z</time>
      </trkpt>
      <trkpt lat="42.98156" lon="0.53759">
        <ele>1510</ele>
        <time>2019-06-30T10:30:45.000Z</time>
      </trkpt>
      <trkpt lat="42.98156" lon="0.53759">
        <ele>1510</ele>
        <time>2019-06-30T10:30:47.000Z</time>
      </trkpt>
      <trkpt lat="42.98156" lon="0.53759">
        <ele>1510</ele>
        <time>2019-06-30T10:30:49.000Z</time>
      </trkpt>
      <trkpt lat="42.98156" lon="0.53759">
        <ele>1510</ele>
        <time>2019-06-30T10:30:51.000Z</time>
      </trkpt>
      <trkpt lat="42.98156" lon="0.53759">
        <ele>1510</ele>
        <time>2019-06-30T10:30:53.000Z</time>
      </trkpt>
      <trkpt lat="42.98156" lon="0.53759">
        <ele>1510</ele>
        <time>2019-06-30T10:30:55.000Z</time>
      </trkpt>
      <trkpt lat="42.98156" lon="0.53759">
        <ele>1510</ele>
        <time>2019-06-30T10:30:57.000Z</time>
      </trkpt>
      <trkpt lat="42.98156" lon="0.53759">
        <ele>1510</ele>
        <time>2019-06-30T10:30:59.000Z</time>
      </trkpt>
      <trkpt lat="42.98156" lon="0.5376">
        <ele>1510</ele>
        <time>2019-06-30T10:31:01.000Z</time>
      </trkpt>
      <trkpt lat="42.98157" lon="0.5376">
        <ele>1510</ele>
        <time>2019-06-30T10:31:03.000Z</time>
      </trkpt>
      <trkpt lat="42.98157" lon="0.5376">
        <ele>1510</ele>
        <time>2019-06-30T10:31:05.000Z</time>
      </trkpt>
      <trkpt lat="42.98157" lon="0.5376">
        <ele>1510</ele>
        <time>2019-06-30T10:31:07.000Z</time>
      </trkpt>
      <trkpt lat="42.98157" lon="0.5376">
        <ele>1510</ele>
        <time>2019-06-30T10:31:09.000Z</time>
      </trkpt>
      <trkpt lat="42.98157" lon="0.5376">
        <ele>1510</ele>
        <time>2019-06-30T10:31:11.000Z</time>
      </trkpt>
      <trkpt lat="42.98157" lon="0.5376">
        <ele>1510</ele>
        <time>2019-06-30T10:31:13.000Z</time>
      </trkpt>
      <trkpt lat="42.98157" lon="0.53761">
        <ele>1511</ele>
        <time>2019-06-30T10:31:15.000Z</time>
      </trkpt>
      <trkpt lat="42.98157" lon="0.5376">
        <ele>1511</ele>
        <time>2019-06-30T10:31:17.000Z</time>
      </trkpt>
      <trkpt lat="42.98158" lon="0.5376">
        <ele>1511</ele>
        <time>2019-06-30T10:31:19.000Z</time>
      </trkpt>
      <trkpt lat="42.98158" lon="0.5376">
        <ele>1511</ele>
        <time>2019-06-30T10:31:21.000Z</time>
      </trkpt>
      <trkpt lat="42.98158" lon="0.5376">
        <ele>1511</ele>
        <time>2019-06-30T10:31:23.000Z</time>
      </trkpt>
      <trkpt lat="42.98158" lon="0.5376">
        <ele>1511</ele>
        <time>2019-06-30T10:31:25.000Z</time>
      </trkpt>
      <trkpt lat="42.98157" lon="0.5376">
        <ele>1511</ele>
        <time>2019-06-30T10:31:27.000Z</time>
      </trkpt>
      <trkpt lat="42.98157" lon="0.5376">
        <ele>1511</ele>
        <time>2019-06-30T10:31:29.000Z</time>
      </trkpt>
      <trkpt lat="42.98157" lon="0.53759">
        <ele>1511</ele>
        <time>2019-06-30T10:31:31.000Z</time>
      </trkpt>
      <trkpt lat="42.98157" lon="0.53759">
        <ele>1511</ele>
        <time>2019-06-30T10:31:33.000Z</time>
      </trkpt>
      <trkpt lat="42.98157" lon="0.53759">
        <ele>1511</ele>
        <time>2019-06-30T10:31:35.000Z</time>
      </trkpt>
      <trkpt lat="42.98157" lon="0.53759">
        <ele>1510</ele>
        <time>2019-06-30T10:31:37.000Z</time>
      </trkpt>
      <trkpt lat="42.98157" lon="0.53759">
        <ele>1510</ele>
        <time>2019-06-30T10:31:39.000Z</time>
      </trkpt>
      <trkpt lat="42.98156" lon="0.53759">
        <ele>1510</ele>
        <time>2019-06-30T10:31:41.000Z</time>
      </trkpt>
      <trkpt lat="42.98156" lon="0.53759">
        <ele>1510</ele>
        <time>2019-06-30T10:31:43.000Z</time>
      </trkpt>
      <trkpt lat="42.98156" lon="0.5376">
        <ele>1510</ele>
        <time>2019-06-30T10:31:45.000Z</time>
      </trkpt>
      <trkpt lat="42.98156" lon="0.5376">
        <ele>1510</ele>
        <time>2019-06-30T10:31:47.000Z</time>
      </trkpt>
      <trkpt lat="42.98156" lon="0.5376">
        <ele>1510</ele>
        <time>2019-06-30T10:31:49.000Z</time>
      </trkpt>
      <trkpt lat="42.98156" lon="0.53759">
        <ele>1510</ele>
        <time>2019-06-30T10:31:51.000Z</time>
      </trkpt>
      <trkpt lat="42.98156" lon="0.53759">
        <ele>1510</ele>
        <time>2019-06-30T10:31:53.000Z</time>
      </trkpt>
      <trkpt lat="42.98156" lon="0.5376">
        <ele>1510</ele>
        <time>2019-06-30T10:31:55.000Z</time>
      </trkpt>
      <trkpt lat="42.98156" lon="0.5376">
        <ele>1510</ele>
        <time>2019-06-30T10:31:57.000Z</time>
      </trkpt>
      <trkpt lat="42.98156" lon="0.5376">
        <ele>1510</ele>
        <time>2019-06-30T10:31:59.000Z</time>
      </trkpt>
      <trkpt lat="42.98156" lon="0.5376">
        <ele>1510</ele>
        <time>2019-06-30T10:32:01.000Z</time>
      </trkpt>
      <trkpt lat="42.98156" lon="0.5376">
        <ele>1510</ele>
        <time>2019-06-30T10:32:03.000Z</time>
      </trkpt>
      <trkpt lat="42.98156" lon="0.53759">
        <ele>1510</ele>
        <time>2019-06-30T10:32:05.000Z</time>
      </trkpt>
      <trkpt lat="42.98156" lon="0.53759">
        <ele>1510</ele>
        <time>2019-06-30T10:32:07.000Z</time>
      </trkpt>
      <trkpt lat="42.98157" lon="0.53759">
        <ele>1510</ele>
        <time>2019-06-30T10:32:09.000Z</time>
      </trkpt>
      <trkpt lat="42.98157" lon="0.53759">
        <ele>1510</ele>
        <time>2019-06-30T10:32:11.000Z</time>
      </trkpt>
      <trkpt lat="42.98157" lon="0.53759">
        <ele>1510</ele>
        <time>2019-06-30T10:32:13.000Z</time>
      </trkpt>
      <trkpt lat="42.98157" lon="0.53759">
        <ele>1510</ele>
        <time>2019-06-30T10:32:15.000Z</time>
      </trkpt>
      <trkpt lat="42.98157" lon="0.5376">
        <ele>1510</ele>
        <time>2019-06-30T10:32:17.000Z</time>
      </trkpt>
      <trkpt lat="42.98157" lon="0.5376">
        <ele>1510</ele>
        <time>2019-06-30T10:32:19.000Z</time>
      </trkpt>
      <trkpt lat="42.98157" lon="0.5376">
        <ele>1511</ele>
        <time>2019-06-30T10:32:21.000Z</time>
      </trkpt>
      <trkpt lat="42.98157" lon="0.5376">
        <ele>1511</ele>
        <time>2019-06-30T10:32:23.000Z</time>
      </trkpt>
      <trkpt lat="42.98157" lon="0.5376">
        <ele>1511</ele>
        <time>2019-06-30T10:32:25.000Z</time>
      </trkpt>
      <trkpt lat="42.98157" lon="0.5376">
        <ele>1511</ele>
        <time>2019-06-30T10:32:27.000Z</time>
      </trkpt>
      <trkpt lat="42.98157" lon="0.5376">
        <ele>1511</ele>
        <time>2019-06-30T10:32:29.000Z</time>
      </trkpt>
      <trkpt lat="42.98157" lon="0.5376">
        <ele>1510</ele>
        <time>2019-06-30T10:32:31.000Z</time>
      </trkpt>
      <trkpt lat="42.98157" lon="0.5376">
        <ele>1510</ele>
        <time>2019-06-30T10:32:33.000Z</time>
      </trkpt>
      <trkpt lat="42.98157" lon="0.5376">
        <ele>1510</ele>
        <time>2019-06-30T10:32:35.000Z</time>
      </trkpt>
      <trkpt lat="42.98157" lon="0.5376">
        <ele>1510</ele>
        <time>2019-06-30T10:32:37.000Z</time>
      </trkpt>
      <trkpt lat="42.98157" lon="0.5376">
        <ele>1510</ele>
        <time>2019-06-30T10:32:39.000Z</time>
      </trkpt>
      <trkpt lat="42.98157" lon="0.5376">
        <ele>1510</ele>
        <time>2019-06-30T10:32:41.000Z</time>
      </trkpt>
      <trkpt lat="42.98157" lon="0.5376">
        <ele>1510</ele>
        <time>2019-06-30T10:32:43.000Z</time>
      </trkpt>
      <trkpt lat="42.98157" lon="0.5376">
        <ele>1511</ele>
        <time>2019-06-30T10:32:45.000Z</time>
      </trkpt>
      <trkpt lat="42.98157" lon="0.5376">
        <ele>1511</ele>
        <time>2019-06-30T10:32:47.000Z</time>
      </trkpt>
      <trkpt lat="42.98157" lon="0.5376">
        <ele>1511</ele>
        <time>2019-06-30T10:32:49.000Z</time>
      </trkpt>
      <trkpt lat="42.98157" lon="0.5376">
        <ele>1511</ele>
        <time>2019-06-30T10:32:51.000Z</time>
      </trkpt>
      <trkpt lat="42.98157" lon="0.5376">
        <ele>1511</ele>
        <time>2019-06-30T10:32:53.000Z</time>
      </trkpt>
      <trkpt lat="42.98157" lon="0.53759">
        <ele>1511</ele>
        <time>2019-06-30T10:32:55.000Z</time>
      </trkpt>
      <trkpt lat="42.98157" lon="0.53759">
        <ele>1511</ele>
        <time>2019-06-30T10:32:57.000Z</time>
      </trkpt>
      <trkpt lat="42.98158" lon="0.53759">
        <ele>1511</ele>
        <time>2019-06-30T10:32:59.000Z</time>
      </trkpt>
      <trkpt lat="42.98158" lon="0.53759">
        <ele>1511</ele>
        <time>2019-06-30T10:33:01.000Z</time>
      </trkpt>
      <trkpt lat="42.98158" lon="0.53759">
        <ele>1511</ele>
        <time>2019-06-30T10:33:03.000Z</time>
      </trkpt>
      <trkpt lat="42.98158" lon="0.53759">
        <ele>1511</ele>
        <time>2019-06-30T10:33:05.000Z</time>
      </trkpt>
      <trkpt lat="42.98158" lon="0.53759">
        <ele>1511</ele>
        <time>2019-06-30T10:33:07.000Z</time>
      </trkpt>
      <trkpt lat="42.98158" lon="0.53759">
        <ele>1511</ele>
        <time>2019-06-30T10:33:09.000Z</time>
      </trkpt>
      <trkpt lat="42.98158" lon="0.53758">
        <ele>1511</ele>
        <time>2019-06-30T10:33:11.000Z</time>
      </trkpt>
      <trkpt lat="42.98158" lon="0.53758">
        <ele>1511</ele>
        <time>2019-06-30T10:33:13.000Z</time>
      </trkpt>
      <trkpt lat="42.98158" lon="0.53758">
        <ele>1511</ele>
        <time>2019-06-30T10:33:15.000Z</time>
      </trkpt>
      <trkpt lat="42.98158" lon="0.53759">
        <ele>1511</ele>
        <time>2019-06-30T10:33:17.000Z</time>
      </trkpt>
      <trkpt lat="42.98158" lon="0.53759">
        <ele>1511</ele>
        <time>2019-06-30T10:33:19.000Z</time>
      </trkpt>
      <trkpt lat="42.98158" lon="0.53759">
        <ele>1511</ele>
        <time>2019-06-30T10:33:21.000Z</time>
      </trkpt>
      <trkpt lat="42.98158" lon="0.53759">
        <ele>1511</ele>
        <time>2019-06-30T10:33:23.000Z</time>
      </trkpt>
      <trkpt lat="42.98158" lon="0.53759">
        <ele>1511</ele>
        <time>2019-06-30T10:33:25.000Z</time>
      </trkpt>
      <trkpt lat="42.98158" lon="0.53759">
        <ele>1511</ele>
        <time>2019-06-30T10:33:27.000Z</time>
      </trkpt>
      <trkpt lat="42.98158" lon="0.53759">
        <ele>1511</ele>
        <time>2019-06-30T10:33:29.000Z</time>
      </trkpt>
      <trkpt lat="42.98158" lon="0.53759">
        <ele>1511</ele>
        <time>2019-06-30T10:33:31.000Z</time>
      </trkpt>
      <trkpt lat="42.98158" lon="0.53759">
        <ele>1511</ele>
        <time>2019-06-30T10:33:33.000Z</time>
      </trkpt>
      <trkpt lat="42.98158" lon="0.53759">
        <ele>1511</ele>
        <time>2019-06-30T10:33:35.000Z</time>
      </trkpt>
      <trkpt lat="42.98158" lon="0.53759">
        <ele>1511</ele>
        <time>2019-06-30T10:33:37.000Z</time>
      </trkpt>
      <trkpt lat="42.98159" lon="0.53758">
        <ele>1511</ele>
        <time>2019-06-30T10:33:39.000Z</time>
      </trkpt>
      <trkpt lat="42.9816" lon="0.53758">
        <ele>1512</ele>
        <time>2019-06-30T10:33:41.000Z</time>
      </trkpt>
      <trkpt lat="42.9816" lon="0.53759">
        <ele>1512</ele>
        <time>2019-06-30T10:33:43.000Z</time>
      </trkpt>
      <trkpt lat="42.98161" lon="0.53758">
        <ele>1512</ele>
        <time>2019-06-30T10:33:45.000Z</time>
      </trkpt>
      <trkpt lat="42.98161" lon="0.53758">
        <ele>1512</ele>
        <time>2019-06-30T10:33:47.000Z</time>
      </trkpt>
      <trkpt lat="42.98161" lon="0.53758">
        <ele>1513</ele>
        <time>2019-06-30T10:33:49.000Z</time>
      </trkpt>
      <trkpt lat="42.98161" lon="0.53758">
        <ele>1513</ele>
        <time>2019-06-30T10:33:51.000Z</time>
      </trkpt>
      <trkpt lat="42.98161" lon="0.53758">
        <ele>1512</ele>
        <time>2019-06-30T10:33:53.000Z</time>
      </trkpt>
      <trkpt lat="42.9816" lon="0.53758">
        <ele>1512</ele>
        <time>2019-06-30T10:33:55.000Z</time>
      </trkpt>
      <trkpt lat="42.9816" lon="0.53757">
        <ele>1512</ele>
        <time>2019-06-30T10:33:57.000Z</time>
      </trkpt>
      <trkpt lat="42.98159" lon="0.53757">
        <ele>1512</ele>
        <time>2019-06-30T10:33:59.000Z</time>
      </trkpt>
      <trkpt lat="42.98159" lon="0.53757">
        <ele>1512</ele>
        <time>2019-06-30T10:34:01.000Z</time>
      </trkpt>
      <trkpt lat="42.98159" lon="0.53756">
        <ele>1512</ele>
        <time>2019-06-30T10:34:03.000Z</time>
      </trkpt>
      <trkpt lat="42.98159" lon="0.53756">
        <ele>1512</ele>
        <time>2019-06-30T10:34:05.000Z</time>
      </trkpt>
      <trkpt lat="42.98159" lon="0.53756">
        <ele>1512</ele>
        <time>2019-06-30T10:34:07.000Z</time>
      </trkpt>
      <trkpt lat="42.98159" lon="0.53756">
        <ele>1512</ele>
        <time>2019-06-30T10:34:09.000Z</time>
      </trkpt>
      <trkpt lat="42.98159" lon="0.53756">
        <ele>1512</ele>
        <time>2019-06-30T10:34:11.000Z</time>
      </trkpt>
      <trkpt lat="42.98159" lon="0.53756">
        <ele>1512</ele>
        <time>2019-06-30T10:34:13.000Z</time>
      </trkpt>
      <trkpt lat="42.9816" lon="0.53756">
        <ele>1512</ele>
        <time>2019-06-30T10:34:15.000Z</time>
      </trkpt>
      <trkpt lat="42.9816" lon="0.53756">
        <ele>1512</ele>
        <time>2019-06-30T10:34:17.000Z</time>
      </trkpt>
      <trkpt lat="42.9816" lon="0.53756">
        <ele>1512</ele>
        <time>2019-06-30T10:34:19.000Z</time>
      </trkpt>
      <trkpt lat="42.9816" lon="0.53756">
        <ele>1512</ele>
        <time>2019-06-30T10:34:21.000Z</time>
      </trkpt>
      <trkpt lat="42.9816" lon="0.53757">
        <ele>1512</ele>
        <time>2019-06-30T10:34:23.000Z</time>
      </trkpt>
      <trkpt lat="42.98161" lon="0.53757">
        <ele>1512</ele>
        <time>2019-06-30T10:34:25.000Z</time>
      </trkpt>
      <trkpt lat="42.9816" lon="0.53758">
        <ele>1512</ele>
        <time>2019-06-30T10:34:27.000Z</time>
      </trkpt>
      <trkpt lat="42.9816" lon="0.53758">
        <ele>1512</ele>
        <time>2019-06-30T10:34:29.000Z</time>
      </trkpt>
      <trkpt lat="42.9816" lon="0.53758">
        <ele>1512</ele>
        <time>2019-06-30T10:34:31.000Z</time>
      </trkpt>
      <trkpt lat="42.9816" lon="0.53758">
        <ele>1512</ele>
        <time>2019-06-30T10:34:33.000Z</time>
      </trkpt>
      <trkpt lat="42.9816" lon="0.53759">
        <ele>1512</ele>
        <time>2019-06-30T10:34:35.000Z</time>
      </trkpt>
      <trkpt lat="42.9816" lon="0.5376">
        <ele>1512</ele>
        <time>2019-06-30T10:34:37.000Z</time>
      </trkpt>
      <trkpt lat="42.98159" lon="0.5376">
        <ele>1512</ele>
        <time>2019-06-30T10:34:39.000Z</time>
      </trkpt>
      <trkpt lat="42.98159" lon="0.53761">
        <ele>1511</ele>
        <time>2019-06-30T10:34:41.000Z</time>
      </trkpt>
      <trkpt lat="42.98158" lon="0.53762">
        <ele>1511</ele>
        <time>2019-06-30T10:34:43.000Z</time>
      </trkpt>
      <trkpt lat="42.98158" lon="0.53763">
        <ele>1511</ele>
        <time>2019-06-30T10:34:45.000Z</time>
      </trkpt>
      <trkpt lat="42.98158" lon="0.53763">
        <ele>1511</ele>
        <time>2019-06-30T10:34:47.000Z</time>
      </trkpt>
      <trkpt lat="42.98158" lon="0.53764">
        <ele>1511</ele>
        <time>2019-06-30T10:34:49.000Z</time>
      </trkpt>
      <trkpt lat="42.98158" lon="0.53763">
        <ele>1511</ele>
        <time>2019-06-30T10:34:51.000Z</time>
      </trkpt>
      <trkpt lat="42.98158" lon="0.53763">
        <ele>1511</ele>
        <time>2019-06-30T10:34:53.000Z</time>
      </trkpt>
      <trkpt lat="42.98158" lon="0.53763">
        <ele>1511</ele>
        <time>2019-06-30T10:34:55.000Z</time>
      </trkpt>
      <trkpt lat="42.98157" lon="0.53762">
        <ele>1511</ele>
        <time>2019-06-30T10:34:57.000Z</time>
      </trkpt>
      <trkpt lat="42.98157" lon="0.53762">
        <ele>1510</ele>
        <time>2019-06-30T10:34:59.000Z</time>
      </trkpt>
      <trkpt lat="42.98157" lon="0.53762">
        <ele>1510</ele>
        <time>2019-06-30T10:35:01.000Z</time>
      </trkpt>
      <trkpt lat="42.98157" lon="0.53761">
        <ele>1510</ele>
        <time>2019-06-30T10:35:03.000Z</time>
      </trkpt>
      <trkpt lat="42.98157" lon="0.53761">
        <ele>1510</ele>
        <time>2019-06-30T10:35:05.000Z</time>
      </trkpt>
      <trkpt lat="42.98157" lon="0.5376">
        <ele>1510</ele>
        <time>2019-06-30T10:35:07.000Z</time>
      </trkpt>
      <trkpt lat="42.98157" lon="0.5376">
        <ele>1510</ele>
        <time>2019-06-30T10:35:09.000Z</time>
      </trkpt>
      <trkpt lat="42.98157" lon="0.5376">
        <ele>1510</ele>
        <time>2019-06-30T10:35:11.000Z</time>
      </trkpt>
      <trkpt lat="42.98158" lon="0.5376">
        <ele>1511</ele>
        <time>2019-06-30T10:35:13.000Z</time>
      </trkpt>
      <trkpt lat="42.98158" lon="0.53759">
        <ele>1511</ele>
        <time>2019-06-30T10:35:15.000Z</time>
      </trkpt>
      <trkpt lat="42.98158" lon="0.53759">
        <ele>1511</ele>
        <time>2019-06-30T10:35:17.000Z</time>
      </trkpt>
      <trkpt lat="42.98158" lon="0.53759">
        <ele>1511</ele>
        <time>2019-06-30T10:35:19.000Z</time>
      </trkpt>
      <trkpt lat="42.98159" lon="0.53758">
        <ele>1511</ele>
        <time>2019-06-30T10:35:21.000Z</time>
      </trkpt>
      <trkpt lat="42.98159" lon="0.53758">
        <ele>1511</ele>
        <time>2019-06-30T10:35:23.000Z</time>
      </trkpt>
      <trkpt lat="42.98159" lon="0.53758">
        <ele>1511</ele>
        <time>2019-06-30T10:35:25.000Z</time>
      </trkpt>
      <trkpt lat="42.98159" lon="0.53758">
        <ele>1512</ele>
        <time>2019-06-30T10:35:27.000Z</time>
      </trkpt>
      <trkpt lat="42.98159" lon="0.53758">
        <ele>1512</ele>
        <time>2019-06-30T10:35:29.000Z</time>
      </trkpt>
      <trkpt lat="42.98159" lon="0.53758">
        <ele>1512</ele>
        <time>2019-06-30T10:35:31.000Z</time>
      </trkpt>
      <trkpt lat="42.98159" lon="0.53758">
        <ele>1511</ele>
        <time>2019-06-30T10:35:33.000Z</time>
      </trkpt>
      <trkpt lat="42.98159" lon="0.53758">
        <ele>1511</ele>
        <time>2019-06-30T10:35:35.000Z</time>
      </trkpt>
      <trkpt lat="42.98159" lon="0.53758">
        <ele>1511</ele>
        <time>2019-06-30T10:35:37.000Z</time>
      </trkpt>
      <trkpt lat="42.98158" lon="0.53759">
        <ele>1511</ele>
        <time>2019-06-30T10:35:39.000Z</time>
      </trkpt>
      <trkpt lat="42.98158" lon="0.53759">
        <ele>1511</ele>
        <time>2019-06-30T10:35:41.000Z</time>
      </trkpt>
      <trkpt lat="42.98158" lon="0.53758">
        <ele>1511</ele>
        <time>2019-06-30T10:35:43.000Z</time>
      </trkpt>
      <trkpt lat="42.98158" lon="0.53758">
        <ele>1511</ele>
        <time>2019-06-30T10:35:45.000Z</time>
      </trkpt>
      <trkpt lat="42.98158" lon="0.53759">
        <ele>1511</ele>
        <time>2019-06-30T10:35:47.000Z</time>
      </trkpt>
      <trkpt lat="42.98158" lon="0.53759">
        <ele>1511</ele>
        <time>2019-06-30T10:35:49.000Z</time>
      </trkpt>
      <trkpt lat="42.98158" lon="0.53759">
        <ele>1511</ele>
        <time>2019-06-30T10:35:51.000Z</time>
      </trkpt>
      <trkpt lat="42.98158" lon="0.53759">
        <ele>1511</ele>
        <time>2019-06-30T10:35:53.000Z</time>
      </trkpt>
      <trkpt lat="42.98158" lon="0.53759">
        <ele>1511</ele>
        <time>2019-06-30T10:35:55.000Z</time>
      </trkpt>
      <trkpt lat="42.98157" lon="0.53759">
        <ele>1511</ele>
        <time>2019-06-30T10:35:57.000Z</time>
      </trkpt>
      <trkpt lat="42.98157" lon="0.5376">
        <ele>1510</ele>
        <time>2019-06-30T10:35:59.000Z</time>
      </trkpt>
      <trkpt lat="42.98157" lon="0.5376">
        <ele>1510</ele>
        <time>2019-06-30T10:36:01.000Z</time>
      </trkpt>
      <trkpt lat="42.98157" lon="0.5376">
        <ele>1510</ele>
        <time>2019-06-30T10:36:03.000Z</time>
      </trkpt>
      <trkpt lat="42.98157" lon="0.53761">
        <ele>1510</ele>
        <time>2019-06-30T10:36:05.000Z</time>
      </trkpt>
      <trkpt lat="42.98156" lon="0.53761">
        <ele>1510</ele>
        <time>2019-06-30T10:36:07.000Z</time>
      </trkpt>
      <trkpt lat="42.98157" lon="0.53761">
        <ele>1510</ele>
        <time>2019-06-30T10:36:09.000Z</time>
      </trkpt>
      <trkpt lat="42.98156" lon="0.53761">
        <ele>1510</ele>
        <time>2019-06-30T10:36:11.000Z</time>
      </trkpt>
      <trkpt lat="42.98156" lon="0.53761">
        <ele>1510</ele>
        <time>2019-06-30T10:36:13.000Z</time>
      </trkpt>
      <trkpt lat="42.98156" lon="0.53761">
        <ele>1510</ele>
        <time>2019-06-30T10:36:15.000Z</time>
      </trkpt>
      <trkpt lat="42.98156" lon="0.53761">
        <ele>1510</ele>
        <time>2019-06-30T10:36:17.000Z</time>
      </trkpt>
      <trkpt lat="42.98155" lon="0.53761">
        <ele>1510</ele>
        <time>2019-06-30T10:36:19.000Z</time>
      </trkpt>
      <trkpt lat="42.98156" lon="0.53761">
        <ele>1510</ele>
        <time>2019-06-30T10:36:21.000Z</time>
      </trkpt>
      <trkpt lat="42.98156" lon="0.53761">
        <ele>1510</ele>
        <time>2019-06-30T10:36:23.000Z</time>
      </trkpt>
      <trkpt lat="42.98156" lon="0.53761">
        <ele>1510</ele>
        <time>2019-06-30T10:36:25.000Z</time>
      </trkpt>
      <trkpt lat="42.98157" lon="0.53761">
        <ele>1510</ele>
        <time>2019-06-30T10:36:27.000Z</time>
      </trkpt>
      <trkpt lat="42.98157" lon="0.53762">
        <ele>1510</ele>
        <time>2019-06-30T10:36:29.000Z</time>
      </trkpt>
      <trkpt lat="42.98156" lon="0.53762">
        <ele>1510</ele>
        <time>2019-06-30T10:36:31.000Z</time>
      </trkpt>
      <trkpt lat="42.98157" lon="0.53762">
        <ele>1510</ele>
        <time>2019-06-30T10:36:33.000Z</time>
      </trkpt>
      <trkpt lat="42.98157" lon="0.53762">
        <ele>1511</ele>
        <time>2019-06-30T10:36:35.000Z</time>
      </trkpt>
      <trkpt lat="42.98157" lon="0.53762">
        <ele>1511</ele>
        <time>2019-06-30T10:36:37.000Z</time>
      </trkpt>
      <trkpt lat="42.98158" lon="0.53762">
        <ele>1511</ele>
        <time>2019-06-30T10:36:39.000Z</time>
      </trkpt>
      <trkpt lat="42.98158" lon="0.53762">
        <ele>1511</ele>
        <time>2019-06-30T10:36:41.000Z</time>
      </trkpt>
      <trkpt lat="42.98158" lon="0.53762">
        <ele>1511</ele>
        <time>2019-06-30T10:36:43.000Z</time>
      </trkpt>
      <trkpt lat="42.98157" lon="0.53762">
        <ele>1511</ele>
        <time>2019-06-30T10:36:45.000Z</time>
      </trkpt>
      <trkpt lat="42.98158" lon="0.53761">
        <ele>1511</ele>
        <time>2019-06-30T10:36:47.000Z</time>
      </trkpt>
      <trkpt lat="42.98158" lon="0.53761">
        <ele>1511</ele>
        <time>2019-06-30T10:36:49.000Z</time>
      </trkpt>
      <trkpt lat="42.98158" lon="0.53761">
        <ele>1511</ele>
        <time>2019-06-30T10:36:51.000Z</time>
      </trkpt>
      <trkpt lat="42.98158" lon="0.53761">
        <ele>1511</ele>
        <time>2019-06-30T10:36:53.000Z</time>
      </trkpt>
      <trkpt lat="42.98159" lon="0.53762">
        <ele>1511</ele>
        <time>2019-06-30T10:36:55.000Z</time>
      </trkpt>
      <trkpt lat="42.98159" lon="0.53762">
        <ele>1512</ele>
        <time>2019-06-30T10:36:57.000Z</time>
      </trkpt>
      <trkpt lat="42.98159" lon="0.53761">
        <ele>1512</ele>
        <time>2019-06-30T10:36:59.000Z</time>
      </trkpt>
      <trkpt lat="42.9816" lon="0.53761">
        <ele>1512</ele>
        <time>2019-06-30T10:37:01.000Z</time>
      </trkpt>
      <trkpt lat="42.9816" lon="0.53761">
        <ele>1512</ele>
        <time>2019-06-30T10:37:03.000Z</time>
      </trkpt>
      <trkpt lat="42.9816" lon="0.53762">
        <ele>1512</ele>
        <time>2019-06-30T10:37:05.000Z</time>
      </trkpt>
      <trkpt lat="42.9816" lon="0.53762">
        <ele>1512</ele>
        <time>2019-06-30T10:37:07.000Z</time>
      </trkpt>
      <trkpt lat="42.9816" lon="0.53762">
        <ele>1512</ele>
        <time>2019-06-30T10:37:09.000Z</time>
      </trkpt>
      <trkpt lat="42.9816" lon="0.53762">
        <ele>1512</ele>
        <time>2019-06-30T10:37:11.000Z</time>
      </trkpt>
      <trkpt lat="42.9816" lon="0.53762">
        <ele>1512</ele>
        <time>2019-06-30T10:37:13.000Z</time>
      </trkpt>
      <trkpt lat="42.9816" lon="0.53762">
        <ele>1512</ele>
        <time>2019-06-30T10:37:15.000Z</time>
      </trkpt>
      <trkpt lat="42.9816" lon="0.53762">
        <ele>1512</ele>
        <time>2019-06-30T10:37:17.000Z</time>
      </trkpt>
      <trkpt lat="42.9816" lon="0.53762">
        <ele>1512</ele>
        <time>2019-06-30T10:37:19.000Z</time>
      </trkpt>
      <trkpt lat="42.9816" lon="0.53762">
        <ele>1512</ele>
        <time>2019-06-30T10:37:21.000Z</time>
      </trkpt>
      <trkpt lat="42.9816" lon="0.53762">
        <ele>1512</ele>
        <time>2019-06-30T10:37:23.000Z</time>
      </trkpt>
      <trkpt lat="42.98159" lon="0.53762">
        <ele>1512</ele>
        <time>2019-06-30T10:37:25.000Z</time>
      </trkpt>
      <trkpt lat="42.98159" lon="0.53762">
        <ele>1512</ele>
        <time>2019-06-30T10:37:27.000Z</time>
      </trkpt>
      <trkpt lat="42.98159" lon="0.53762">
        <ele>1512</ele>
        <time>2019-06-30T10:37:29.000Z</time>
      </trkpt>
      <trkpt lat="42.98159" lon="0.53762">
        <ele>1512</ele>
        <time>2019-06-30T10:37:31.000Z</time>
      </trkpt>
      <trkpt lat="42.98159" lon="0.53762">
        <ele>1511</ele>
        <time>2019-06-30T10:37:33.000Z</time>
      </trkpt>
      <trkpt lat="42.98158" lon="0.53762">
        <ele>1511</ele>
        <time>2019-06-30T10:37:35.000Z</time>
      </trkpt>
      <trkpt lat="42.98157" lon="0.53762">
        <ele>1511</ele>
        <time>2019-06-30T10:37:37.000Z</time>
      </trkpt>
      <trkpt lat="42.98157" lon="0.53761">
        <ele>1510</ele>
        <time>2019-06-30T10:37:39.000Z</time>
      </trkpt>
      <trkpt lat="42.98156" lon="0.53761">
        <ele>1510</ele>
        <time>2019-06-30T10:37:41.000Z</time>
      </trkpt>
      <trkpt lat="42.98156" lon="0.53761">
        <ele>1510</ele>
        <time>2019-06-30T10:37:43.000Z</time>
      </trkpt>
      <trkpt lat="42.98156" lon="0.53761">
        <ele>1510</ele>
        <time>2019-06-30T10:37:45.000Z</time>
      </trkpt>
      <trkpt lat="42.98156" lon="0.53761">
        <ele>1510</ele>
        <time>2019-06-30T10:37:47.000Z</time>
      </trkpt>
      <trkpt lat="42.98155" lon="0.5376">
        <ele>1510</ele>
        <time>2019-06-30T10:37:49.000Z</time>
      </trkpt>
      <trkpt lat="42.98155" lon="0.5376">
        <ele>1510</ele>
        <time>2019-06-30T10:37:51.000Z</time>
      </trkpt>
      <trkpt lat="42.98155" lon="0.5376">
        <ele>1510</ele>
        <time>2019-06-30T10:37:53.000Z</time>
      </trkpt>
      <trkpt lat="42.98156" lon="0.5376">
        <ele>1510</ele>
        <time>2019-06-30T10:37:55.000Z</time>
      </trkpt>
      <trkpt lat="42.98156" lon="0.5376">
        <ele>1510</ele>
        <time>2019-06-30T10:37:57.000Z</time>
      </trkpt>
      <trkpt lat="42.98157" lon="0.5376">
        <ele>1510</ele>
        <time>2019-06-30T10:37:59.000Z</time>
      </trkpt>
      <trkpt lat="42.98157" lon="0.5376">
        <ele>1511</ele>
        <time>2019-06-30T10:38:01.000Z</time>
      </trkpt>
      <trkpt lat="42.98157" lon="0.5376">
        <ele>1511</ele>
        <time>2019-06-30T10:38:03.000Z</time>
      </trkpt>
      <trkpt lat="42.98157" lon="0.5376">
        <ele>1511</ele>
        <time>2019-06-30T10:38:05.000Z</time>
      </trkpt>
      <trkpt lat="42.98157" lon="0.5376">
        <ele>1511</ele>
        <time>2019-06-30T10:38:07.000Z</time>
      </trkpt>
      <trkpt lat="42.98157" lon="0.5376">
        <ele>1511</ele>
        <time>2019-06-30T10:38:09.000Z</time>
      </trkpt>
      <trkpt lat="42.98157" lon="0.5376">
        <ele>1511</ele>
        <time>2019-06-30T10:38:11.000Z</time>
      </trkpt>
      <trkpt lat="42.98157" lon="0.5376">
        <ele>1511</ele>
        <time>2019-06-30T10:38:13.000Z</time>
      </trkpt>
      <trkpt lat="42.98157" lon="0.5376">
        <ele>1510</ele>
        <time>2019-06-30T10:38:15.000Z</time>
      </trkpt>
      <trkpt lat="42.98157" lon="0.5376">
        <ele>1510</ele>
        <time>2019-06-30T10:38:17.000Z</time>
      </trkpt>
      <trkpt lat="42.98157" lon="0.53759">
        <ele>1510</ele>
        <time>2019-06-30T10:38:19.000Z</time>
      </trkpt>
      <trkpt lat="42.98157" lon="0.53759">
        <ele>1510</ele>
        <time>2019-06-30T10:38:21.000Z</time>
      </trkpt>
      <trkpt lat="42.98157" lon="0.53759">
        <ele>1510</ele>
        <time>2019-06-30T10:38:23.000Z</time>
      </trkpt>
      <trkpt lat="42.98156" lon="0.53759">
        <ele>1510</ele>
        <time>2019-06-30T10:38:25.000Z</time>
      </trkpt>
      <trkpt lat="42.98156" lon="0.53759">
        <ele>1510</ele>
        <time>2019-06-30T10:38:27.000Z</time>
      </trkpt>
      <trkpt lat="42.98156" lon="0.53759">
        <ele>1510</ele>
        <time>2019-06-30T10:38:29.000Z</time>
      </trkpt>
      <trkpt lat="42.98156" lon="0.53759">
        <ele>1510</ele>
        <time>2019-06-30T10:38:31.000Z</time>
      </trkpt>
      <trkpt lat="42.98157" lon="0.53759">
        <ele>1510</ele>
        <time>2019-06-30T10:38:33.000Z</time>
      </trkpt>
      <trkpt lat="42.98157" lon="0.53759">
        <ele>1511</ele>
        <time>2019-06-30T10:38:35.000Z</time>
      </trkpt>
      <trkpt lat="42.98157" lon="0.5376">
        <ele>1511</ele>
        <time>2019-06-30T10:38:37.000Z</time>
      </trkpt>
      <trkpt lat="42.98157" lon="0.5376">
        <ele>1511</ele>
        <time>2019-06-30T10:38:39.000Z</time>
      </trkpt>
      <trkpt lat="42.98157" lon="0.5376">
        <ele>1511</ele>
        <time>2019-06-30T10:38:41.000Z</time>
      </trkpt>
      <trkpt lat="42.98157" lon="0.5376">
        <ele>1510</ele>
        <time>2019-06-30T10:38:43.000Z</time>
      </trkpt>
      <trkpt lat="42.98157" lon="0.5376">
        <ele>1510</ele>
        <time>2019-06-30T10:38:45.000Z</time>
      </trkpt>
      <trkpt lat="42.98157" lon="0.5376">
        <ele>1510</ele>
        <time>2019-06-30T10:38:47.000Z</time>
      </trkpt>
      <trkpt lat="42.98157" lon="0.5376">
        <ele>1510</ele>
        <time>2019-06-30T10:38:49.000Z</time>
      </trkpt>
      <trkpt lat="42.98157" lon="0.5376">
        <ele>1511</ele>
        <time>2019-06-30T10:38:51.000Z</time>
      </trkpt>
      <trkpt lat="42.98157" lon="0.5376">
        <ele>1511</ele>
        <time>2019-06-30T10:38:53.000Z</time>
      </trkpt>
      <trkpt lat="42.98157" lon="0.5376">
        <ele>1511</ele>
        <time>2019-06-30T10:38:55.000Z</time>
      </trkpt>
      <trkpt lat="42.98158" lon="0.5376">
        <ele>1511</ele>
        <time>2019-06-30T10:38:57.000Z</time>
      </trkpt>
      <trkpt lat="42.98158" lon="0.5376">
        <ele>1511</ele>
        <time>2019-06-30T10:38:59.000Z</time>
      </trkpt>
      <trkpt lat="42.98158" lon="0.5376">
        <ele>1511</ele>
        <time>2019-06-30T10:39:01.000Z</time>
      </trkpt>
      <trkpt lat="42.98158" lon="0.5376">
        <ele>1511</ele>
        <time>2019-06-30T10:39:03.000Z</time>
      </trkpt>
      <trkpt lat="42.98158" lon="0.5376">
        <ele>1511</ele>
        <time>2019-06-30T10:39:05.000Z</time>
      </trkpt>
      <trkpt lat="42.98158" lon="0.5376">
        <ele>1511</ele>
        <time>2019-06-30T10:39:07.000Z</time>
      </trkpt>
      <trkpt lat="42.98158" lon="0.5376">
        <ele>1511</ele>
        <time>2019-06-30T10:39:09.000Z</time>
      </trkpt>
      <trkpt lat="42.98159" lon="0.5376">
        <ele>1511</ele>
        <time>2019-06-30T10:39:11.000Z</time>
      </trkpt>
      <trkpt lat="42.98159" lon="0.5376">
        <ele>1511</ele>
        <time>2019-06-30T10:39:13.000Z</time>
      </trkpt>
      <trkpt lat="42.98159" lon="0.5376">
        <ele>1511</ele>
        <time>2019-06-30T10:39:15.000Z</time>
      </trkpt>
      <trkpt lat="42.98159" lon="0.53761">
        <ele>1511</ele>
        <time>2019-06-30T10:39:17.000Z</time>
      </trkpt>
      <trkpt lat="42.98158" lon="0.53761">
        <ele>1511</ele>
        <time>2019-06-30T10:39:19.000Z</time>
      </trkpt>
      <trkpt lat="42.98157" lon="0.53761">
        <ele>1511</ele>
        <time>2019-06-30T10:39:21.000Z</time>
      </trkpt>
      <trkpt lat="42.98156" lon="0.53761">
        <ele>1510</ele>
        <time>2019-06-30T10:39:23.000Z</time>
      </trkpt>
      <trkpt lat="42.98156" lon="0.53761">
        <ele>1510</ele>
        <time>2019-06-30T10:39:25.000Z</time>
      </trkpt>
      <trkpt lat="42.98155" lon="0.53762">
        <ele>1510</ele>
        <time>2019-06-30T10:39:27.000Z</time>
      </trkpt>
      <trkpt lat="42.98155" lon="0.53761">
        <ele>1510</ele>
        <time>2019-06-30T10:39:29.000Z</time>
      </trkpt>
      <trkpt lat="42.98155" lon="0.53761">
        <ele>1509</ele>
        <time>2019-06-30T10:39:31.000Z</time>
      </trkpt>
      <trkpt lat="42.98155" lon="0.53761">
        <ele>1509</ele>
        <time>2019-06-30T10:39:33.000Z</time>
      </trkpt>
      <trkpt lat="42.98155" lon="0.53761">
        <ele>1510</ele>
        <time>2019-06-30T10:39:35.000Z</time>
      </trkpt>
      <trkpt lat="42.98156" lon="0.53761">
        <ele>1510</ele>
        <time>2019-06-30T10:39:37.000Z</time>
      </trkpt>
      <trkpt lat="42.98157" lon="0.53762">
        <ele>1510</ele>
        <time>2019-06-30T10:39:39.000Z</time>
      </trkpt>
      <trkpt lat="42.98157" lon="0.53762">
        <ele>1511</ele>
        <time>2019-06-30T10:39:41.000Z</time>
      </trkpt>
      <trkpt lat="42.98157" lon="0.53762">
        <ele>1511</ele>
        <time>2019-06-30T10:39:43.000Z</time>
      </trkpt>
      <trkpt lat="42.98157" lon="0.53762">
        <ele>1511</ele>
        <time>2019-06-30T10:39:45.000Z</time>
      </trkpt>
      <trkpt lat="42.98157" lon="0.53762">
        <ele>1511</ele>
        <time>2019-06-30T10:39:47.000Z</time>
      </trkpt>
      <trkpt lat="42.98157" lon="0.53762">
        <ele>1511</ele>
        <time>2019-06-30T10:39:49.000Z</time>
      </trkpt>
      <trkpt lat="42.98157" lon="0.53762">
        <ele>1510</ele>
        <time>2019-06-30T10:39:51.000Z</time>
      </trkpt>
      <trkpt lat="42.98157" lon="0.53763">
        <ele>1511</ele>
        <time>2019-06-30T10:39:53.000Z</time>
      </trkpt>
      <trkpt lat="42.98157" lon="0.53763">
        <ele>1511</ele>
        <time>2019-06-30T10:39:55.000Z</time>
      </trkpt>
      <trkpt lat="42.98158" lon="0.53763">
        <ele>1511</ele>
        <time>2019-06-30T10:39:57.000Z</time>
      </trkpt>
      <trkpt lat="42.98158" lon="0.53762">
        <ele>1511</ele>
        <time>2019-06-30T10:39:59.000Z</time>
      </trkpt>
      <trkpt lat="42.98158" lon="0.53762">
        <ele>1511</ele>
        <time>2019-06-30T10:40:01.000Z</time>
      </trkpt>
      <trkpt lat="42.98158" lon="0.53762">
        <ele>1511</ele>
        <time>2019-06-30T10:40:03.000Z</time>
      </trkpt>
      <trkpt lat="42.98158" lon="0.53762">
        <ele>1511</ele>
        <time>2019-06-30T10:40:05.000Z</time>
      </trkpt>
      <trkpt lat="42.98158" lon="0.53762">
        <ele>1511</ele>
        <time>2019-06-30T10:40:07.000Z</time>
      </trkpt>
      <trkpt lat="42.98158" lon="0.53762">
        <ele>1511</ele>
        <time>2019-06-30T10:40:09.000Z</time>
      </trkpt>
      <trkpt lat="42.98158" lon="0.53762">
        <ele>1511</ele>
        <time>2019-06-30T10:40:11.000Z</time>
      </trkpt>
      <trkpt lat="42.98158" lon="0.53762">
        <ele>1511</ele>
        <time>2019-06-30T10:40:13.000Z</time>
      </trkpt>
      <trkpt lat="42.98158" lon="0.53762">
        <ele>1511</ele>
        <time>2019-06-30T10:40:15.000Z</time>
      </trkpt>
      <trkpt lat="42.98158" lon="0.53761">
        <ele>1511</ele>
        <time>2019-06-30T10:40:17.000Z</time>
      </trkpt>
      <trkpt lat="42.98158" lon="0.53761">
        <ele>1511</ele>
        <time>2019-06-30T10:40:19.000Z</time>
      </trkpt>
      <trkpt lat="42.98158" lon="0.53761">
        <ele>1511</ele>
        <time>2019-06-30T10:40:21.000Z</time>
      </trkpt>
      <trkpt lat="42.98158" lon="0.53761">
        <ele>1511</ele>
        <time>2019-06-30T10:40:23.000Z</time>
      </trkpt>
      <trkpt lat="42.98158" lon="0.53761">
        <ele>1511</ele>
        <time>2019-06-30T10:40:25.000Z</time>
      </trkpt>
      <trkpt lat="42.98158" lon="0.53761">
        <ele>1511</ele>
        <time>2019-06-30T10:40:27.000Z</time>
      </trkpt>
      <trkpt lat="42.98158" lon="0.53761">
        <ele>1511</ele>
        <time>2019-06-30T10:40:29.000Z</time>
      </trkpt>
      <trkpt lat="42.98158" lon="0.53761">
        <ele>1511</ele>
        <time>2019-06-30T10:40:31.000Z</time>
      </trkpt>
      <trkpt lat="42.98158" lon="0.53761">
        <ele>1511</ele>
        <time>2019-06-30T10:40:33.000Z</time>
      </trkpt>
      <trkpt lat="42.98158" lon="0.53761">
        <ele>1511</ele>
        <time>2019-06-30T10:40:35.000Z</time>
      </trkpt>
      <trkpt lat="42.98159" lon="0.53762">
        <ele>1511</ele>
        <time>2019-06-30T10:40:37.000Z</time>
      </trkpt>
      <trkpt lat="42.98159" lon="0.53762">
        <ele>1511</ele>
        <time>2019-06-30T10:40:39.000Z</time>
      </trkpt>
      <trkpt lat="42.98159" lon="0.53762">
        <ele>1511</ele>
        <time>2019-06-30T10:40:41.000Z</time>
      </trkpt>
      <trkpt lat="42.98159" lon="0.53762">
        <ele>1511</ele>
        <time>2019-06-30T10:40:43.000Z</time>
      </trkpt>
      <trkpt lat="42.98159" lon="0.53762">
        <ele>1511</ele>
        <time>2019-06-30T10:40:45.000Z</time>
      </trkpt>
      <trkpt lat="42.98159" lon="0.53762">
        <ele>1511</ele>
        <time>2019-06-30T10:40:47.000Z</time>
      </trkpt>
      <trkpt lat="42.98159" lon="0.53762">
        <ele>1511</ele>
        <time>2019-06-30T10:40:49.000Z</time>
      </trkpt>
      <trkpt lat="42.98159" lon="0.53763">
        <ele>1511</ele>
        <time>2019-06-30T10:40:51.000Z</time>
      </trkpt>
      <trkpt lat="42.98159" lon="0.53763">
        <ele>1511</ele>
        <time>2019-06-30T10:40:53.000Z</time>
      </trkpt>
      <trkpt lat="42.98159" lon="0.53763">
        <ele>1511</ele>
        <time>2019-06-30T10:40:55.000Z</time>
      </trkpt>
      <trkpt lat="42.98159" lon="0.53763">
        <ele>1512</ele>
        <time>2019-06-30T10:40:57.000Z</time>
      </trkpt>
      <trkpt lat="42.98159" lon="0.53763">
        <ele>1511</ele>
        <time>2019-06-30T10:40:59.000Z</time>
      </trkpt>
      <trkpt lat="42.98159" lon="0.53763">
        <ele>1512</ele>
        <time>2019-06-30T10:41:01.000Z</time>
      </trkpt>
      <trkpt lat="42.98159" lon="0.53763">
        <ele>1512</ele>
        <time>2019-06-30T10:41:03.000Z</time>
      </trkpt>
      <trkpt lat="42.98159" lon="0.53763">
        <ele>1511</ele>
        <time>2019-06-30T10:41:05.000Z</time>
      </trkpt>
      <trkpt lat="42.98159" lon="0.53762">
        <ele>1511</ele>
        <time>2019-06-30T10:41:07.000Z</time>
      </trkpt>
      <trkpt lat="42.98159" lon="0.53762">
        <ele>1511</ele>
        <time>2019-06-30T10:41:09.000Z</time>
      </trkpt>
      <trkpt lat="42.98159" lon="0.53762">
        <ele>1511</ele>
        <time>2019-06-30T10:41:11.000Z</time>
      </trkpt>
      <trkpt lat="42.98159" lon="0.53762">
        <ele>1511</ele>
        <time>2019-06-30T10:41:13.000Z</time>
      </trkpt>
      <trkpt lat="42.98159" lon="0.53761">
        <ele>1511</ele>
        <time>2019-06-30T10:41:15.000Z</time>
      </trkpt>
      <trkpt lat="42.98159" lon="0.53761">
        <ele>1511</ele>
        <time>2019-06-30T10:41:17.000Z</time>
      </trkpt>
      <trkpt lat="42.98159" lon="0.53761">
        <ele>1511</ele>
        <time>2019-06-30T10:41:19.000Z</time>
      </trkpt>
      <trkpt lat="42.98159" lon="0.53761">
        <ele>1511</ele>
        <time>2019-06-30T10:41:21.000Z</time>
      </trkpt>
      <trkpt lat="42.98159" lon="0.53761">
        <ele>1511</ele>
        <time>2019-06-30T10:41:23.000Z</time>
      </trkpt>
      <trkpt lat="42.98159" lon="0.5376">
        <ele>1511</ele>
        <time>2019-06-30T10:41:25.000Z</time>
      </trkpt>
      <trkpt lat="42.98159" lon="0.5376">
        <ele>1511</ele>
        <time>2019-06-30T10:41:27.000Z</time>
      </trkpt>
      <trkpt lat="42.98159" lon="0.5376">
        <ele>1511</ele>
        <time>2019-06-30T10:41:29.000Z</time>
      </trkpt>
      <trkpt lat="42.98159" lon="0.5376">
        <ele>1511</ele>
        <time>2019-06-30T10:41:31.000Z</time>
      </trkpt>
      <trkpt lat="42.98159" lon="0.53761">
        <ele>1511</ele>
        <time>2019-06-30T10:41:33.000Z</time>
      </trkpt>
      <trkpt lat="42.98159" lon="0.53761">
        <ele>1511</ele>
        <time>2019-06-30T10:41:35.000Z</time>
      </trkpt>
      <trkpt lat="42.98159" lon="0.53761">
        <ele>1511</ele>
        <time>2019-06-30T10:41:37.000Z</time>
      </trkpt>
      <trkpt lat="42.98158" lon="0.5376">
        <ele>1511</ele>
        <time>2019-06-30T10:41:39.000Z</time>
      </trkpt>
      <trkpt lat="42.98158" lon="0.53761">
        <ele>1511</ele>
        <time>2019-06-30T10:41:41.000Z</time>
      </trkpt>
      <trkpt lat="42.98158" lon="0.53761">
        <ele>1511</ele>
        <time>2019-06-30T10:41:43.000Z</time>
      </trkpt>
      <trkpt lat="42.98158" lon="0.53762">
        <ele>1511</ele>
        <time>2019-06-30T10:41:45.000Z</time>
      </trkpt>
      <trkpt lat="42.98158" lon="0.53762">
        <ele>1511</ele>
        <time>2019-06-30T10:41:47.000Z</time>
      </trkpt>
      <trkpt lat="42.98158" lon="0.53762">
        <ele>1511</ele>
        <time>2019-06-30T10:41:49.000Z</time>
      </trkpt>
      <trkpt lat="42.98158" lon="0.53763">
        <ele>1511</ele>
        <time>2019-06-30T10:41:51.000Z</time>
      </trkpt>
      <trkpt lat="42.98158" lon="0.53764">
        <ele>1511</ele>
        <time>2019-06-30T10:41:53.000Z</time>
      </trkpt>
      <trkpt lat="42.98158" lon="0.53763">
        <ele>1511</ele>
        <time>2019-06-30T10:41:55.000Z</time>
      </trkpt>
      <trkpt lat="42.98158" lon="0.53763">
        <ele>1511</ele>
        <time>2019-06-30T10:41:57.000Z</time>
      </trkpt>
      <trkpt lat="42.98158" lon="0.53763">
        <ele>1511</ele>
        <time>2019-06-30T10:41:59.000Z</time>
      </trkpt>
      <trkpt lat="42.98158" lon="0.53763">
        <ele>1511</ele>
        <time>2019-06-30T10:42:01.000Z</time>
      </trkpt>
      <trkpt lat="42.98158" lon="0.53763">
        <ele>1511</ele>
        <time>2019-06-30T10:42:03.000Z</time>
      </trkpt>
      <trkpt lat="42.98158" lon="0.53764">
        <ele>1511</ele>
        <time>2019-06-30T10:42:05.000Z</time>
      </trkpt>
      <trkpt lat="42.98158" lon="0.53764">
        <ele>1511</ele>
        <time>2019-06-30T10:42:07.000Z</time>
      </trkpt>
      <trkpt lat="42.98158" lon="0.53764">
        <ele>1511</ele>
        <time>2019-06-30T10:42:09.000Z</time>
      </trkpt>
      <trkpt lat="42.98158" lon="0.53764">
        <ele>1511</ele>
        <time>2019-06-30T10:42:11.000Z</time>
      </trkpt>
      <trkpt lat="42.98158" lon="0.53764">
        <ele>1511</ele>
        <time>2019-06-30T10:42:13.000Z</time>
      </trkpt>
      <trkpt lat="42.98158" lon="0.53763">
        <ele>1511</ele>
        <time>2019-06-30T10:42:15.000Z</time>
      </trkpt>
      <trkpt lat="42.98158" lon="0.53763">
        <ele>1511</ele>
        <time>2019-06-30T10:42:17.000Z</time>
      </trkpt>
      <trkpt lat="42.98158" lon="0.53763">
        <ele>1511</ele>
        <time>2019-06-30T10:42:19.000Z</time>
      </trkpt>
      <trkpt lat="42.98158" lon="0.53763">
        <ele>1511</ele>
        <time>2019-06-30T10:42:21.000Z</time>
      </trkpt>
      <trkpt lat="42.98158" lon="0.53763">
        <ele>1511</ele>
        <time>2019-06-30T10:42:23.000Z</time>
      </trkpt>
      <trkpt lat="42.98158" lon="0.53763">
        <ele>1511</ele>
        <time>2019-06-30T10:42:25.000Z</time>
      </trkpt>
      <trkpt lat="42.98158" lon="0.53763">
        <ele>1511</ele>
        <time>2019-06-30T10:42:27.000Z</time>
      </trkpt>
      <trkpt lat="42.98158" lon="0.53762">
        <ele>1511</ele>
        <time>2019-06-30T10:42:29.000Z</time>
      </trkpt>
      <trkpt lat="42.98158" lon="0.53762">
        <ele>1511</ele>
        <time>2019-06-30T10:42:31.000Z</time>
      </trkpt>
      <trkpt lat="42.98158" lon="0.53762">
        <ele>1511</ele>
        <time>2019-06-30T10:42:33.000Z</time>
      </trkpt>
      <trkpt lat="42.98158" lon="0.53761">
        <ele>1511</ele>
        <time>2019-06-30T10:42:35.000Z</time>
      </trkpt>
      <trkpt lat="42.98158" lon="0.53761">
        <ele>1511</ele>
        <time>2019-06-30T10:42:37.000Z</time>
      </trkpt>
      <trkpt lat="42.98158" lon="0.5376">
        <ele>1511</ele>
        <time>2019-06-30T10:42:39.000Z</time>
      </trkpt>
      <trkpt lat="42.98158" lon="0.53761">
        <ele>1511</ele>
        <time>2019-06-30T10:42:41.000Z</time>
      </trkpt>
      <trkpt lat="42.98159" lon="0.53761">
        <ele>1511</ele>
        <time>2019-06-30T10:42:43.000Z</time>
      </trkpt>
      <trkpt lat="42.98159" lon="0.5376">
        <ele>1511</ele>
        <time>2019-06-30T10:42:45.000Z</time>
      </trkpt>
      <trkpt lat="42.98159" lon="0.5376">
        <ele>1511</ele>
        <time>2019-06-30T10:42:47.000Z</time>
      </trkpt>
      <trkpt lat="42.98158" lon="0.53761">
        <ele>1511</ele>
        <time>2019-06-30T10:42:49.000Z</time>
      </trkpt>
      <trkpt lat="42.98158" lon="0.53762">
        <ele>1511</ele>
        <time>2019-06-30T10:42:51.000Z</time>
      </trkpt>
      <trkpt lat="42.98158" lon="0.53762">
        <ele>1511</ele>
        <time>2019-06-30T10:42:53.000Z</time>
      </trkpt>
      <trkpt lat="42.98158" lon="0.53762">
        <ele>1511</ele>
        <time>2019-06-30T10:42:55.000Z</time>
      </trkpt>
      <trkpt lat="42.98158" lon="0.53762">
        <ele>1511</ele>
        <time>2019-06-30T10:42:57.000Z</time>
      </trkpt>
      <trkpt lat="42.98158" lon="0.53762">
        <ele>1511</ele>
        <time>2019-06-30T10:42:59.000Z</time>
      </trkpt>
      <trkpt lat="42.98158" lon="0.53762">
        <ele>1511</ele>
        <time>2019-06-30T10:43:01.000Z</time>
      </trkpt>
      <trkpt lat="42.98158" lon="0.53761">
        <ele>1511</ele>
        <time>2019-06-30T10:43:03.000Z</time>
      </trkpt>
      <trkpt lat="42.98158" lon="0.53761">
        <ele>1511</ele>
        <time>2019-06-30T10:43:05.000Z</time>
      </trkpt>
      <trkpt lat="42.98159" lon="0.53761">
        <ele>1511</ele>
        <time>2019-06-30T10:43:07.000Z</time>
      </trkpt>
      <trkpt lat="42.98158" lon="0.53761">
        <ele>1511</ele>
        <time>2019-06-30T10:43:09.000Z</time>
      </trkpt>
      <trkpt lat="42.98158" lon="0.5376">
        <ele>1511</ele>
        <time>2019-06-30T10:43:11.000Z</time>
      </trkpt>
      <trkpt lat="42.98159" lon="0.5376">
        <ele>1511</ele>
        <time>2019-06-30T10:43:13.000Z</time>
      </trkpt>
      <trkpt lat="42.98159" lon="0.53761">
        <ele>1511</ele>
        <time>2019-06-30T10:43:15.000Z</time>
      </trkpt>
      <trkpt lat="42.98159" lon="0.53761">
        <ele>1511</ele>
        <time>2019-06-30T10:43:17.000Z</time>
      </trkpt>
      <trkpt lat="42.98159" lon="0.53761">
        <ele>1511</ele>
        <time>2019-06-30T10:43:19.000Z</time>
      </trkpt>
      <trkpt lat="42.98159" lon="0.53761">
        <ele>1512</ele>
        <time>2019-06-30T10:43:21.000Z</time>
      </trkpt>
      <trkpt lat="42.9816" lon="0.53761">
        <ele>1512</ele>
        <time>2019-06-30T10:43:23.000Z</time>
      </trkpt>
      <trkpt lat="42.9816" lon="0.53761">
        <ele>1512</ele>
        <time>2019-06-30T10:43:25.000Z</time>
      </trkpt>
      <trkpt lat="42.9816" lon="0.53761">
        <ele>1512</ele>
        <time>2019-06-30T10:43:27.000Z</time>
      </trkpt>
      <trkpt lat="42.9816" lon="0.53761">
        <ele>1512</ele>
        <time>2019-06-30T10:43:29.000Z</time>
      </trkpt>
      <trkpt lat="42.9816" lon="0.53761">
        <ele>1512</ele>
        <time>2019-06-30T10:43:31.000Z</time>
      </trkpt>
      <trkpt lat="42.9816" lon="0.53761">
        <ele>1512</ele>
        <time>2019-06-30T10:43:33.000Z</time>
      </trkpt>
      <trkpt lat="42.9816" lon="0.53761">
        <ele>1512</ele>
        <time>2019-06-30T10:43:35.000Z</time>
      </trkpt>
      <trkpt lat="42.9816" lon="0.53761">
        <ele>1512</ele>
        <time>2019-06-30T10:43:37.000Z</time>
      </trkpt>
      <trkpt lat="42.9816" lon="0.53761">
        <ele>1512</ele>
        <time>2019-06-30T10:43:39.000Z</time>
      </trkpt>
      <trkpt lat="42.98161" lon="0.53762">
        <ele>1512</ele>
        <time>2019-06-30T10:43:41.000Z</time>
      </trkpt>
      <trkpt lat="42.98161" lon="0.53763">
        <ele>1512</ele>
        <time>2019-06-30T10:43:43.000Z</time>
      </trkpt>
      <trkpt lat="42.9816" lon="0.53763">
        <ele>1512</ele>
        <time>2019-06-30T10:43:45.000Z</time>
      </trkpt>
      <trkpt lat="42.9816" lon="0.53763">
        <ele>1512</ele>
        <time>2019-06-30T10:43:47.000Z</time>
      </trkpt>
      <trkpt lat="42.9816" lon="0.53763">
        <ele>1512</ele>
        <time>2019-06-30T10:43:49.000Z</time>
      </trkpt>
      <trkpt lat="42.9816" lon="0.53763">
        <ele>1512</ele>
        <time>2019-06-30T10:43:51.000Z</time>
      </trkpt>
      <trkpt lat="42.9816" lon="0.53763">
        <ele>1512</ele>
        <time>2019-06-30T10:43:53.000Z</time>
      </trkpt>
      <trkpt lat="42.9816" lon="0.53763">
        <ele>1512</ele>
        <time>2019-06-30T10:43:55.000Z</time>
      </trkpt>
      <trkpt lat="42.9816" lon="0.53763">
        <ele>1512</ele>
        <time>2019-06-30T10:43:57.000Z</time>
      </trkpt>
      <trkpt lat="42.9816" lon="0.53763">
        <ele>1512</ele>
        <time>2019-06-30T10:43:59.000Z</time>
      </trkpt>
      <trkpt lat="42.9816" lon="0.53762">
        <ele>1512</ele>
        <time>2019-06-30T10:44:01.000Z</time>
      </trkpt>
      <trkpt lat="42.9816" lon="0.53762">
        <ele>1512</ele>
        <time>2019-06-30T10:44:03.000Z</time>
      </trkpt>
      <trkpt lat="42.9816" lon="0.53762">
        <ele>1512</ele>
        <time>2019-06-30T10:44:05.000Z</time>
      </trkpt>
      <trkpt lat="42.9816" lon="0.53761">
        <ele>1512</ele>
        <time>2019-06-30T10:44:07.000Z</time>
      </trkpt>
      <trkpt lat="42.9816" lon="0.53761">
        <ele>1512</ele>
        <time>2019-06-30T10:44:09.000Z</time>
      </trkpt>
      <trkpt lat="42.9816" lon="0.53761">
        <ele>1512</ele>
        <time>2019-06-30T10:44:11.000Z</time>
      </trkpt>
      <trkpt lat="42.9816" lon="0.5376">
        <ele>1512</ele>
        <time>2019-06-30T10:44:13.000Z</time>
      </trkpt>
      <trkpt lat="42.9816" lon="0.53759">
        <ele>1512</ele>
        <time>2019-06-30T10:44:15.000Z</time>
      </trkpt>
      <trkpt lat="42.98159" lon="0.53759">
        <ele>1512</ele>
        <time>2019-06-30T10:44:17.000Z</time>
      </trkpt>
      <trkpt lat="42.98159" lon="0.53759">
        <ele>1512</ele>
        <time>2019-06-30T10:44:19.000Z</time>
      </trkpt>
      <trkpt lat="42.98159" lon="0.53759">
        <ele>1511</ele>
        <time>2019-06-30T10:44:21.000Z</time>
      </trkpt>
      <trkpt lat="42.98159" lon="0.53759">
        <ele>1511</ele>
        <time>2019-06-30T10:44:23.000Z</time>
      </trkpt>
      <trkpt lat="42.98159" lon="0.53759">
        <ele>1511</ele>
        <time>2019-06-30T10:44:25.000Z</time>
      </trkpt>
      <trkpt lat="42.98159" lon="0.53758">
        <ele>1512</ele>
        <time>2019-06-30T10:44:27.000Z</time>
      </trkpt>
      <trkpt lat="42.98159" lon="0.53758">
        <ele>1512</ele>
        <time>2019-06-30T10:44:29.000Z</time>
      </trkpt>
      <trkpt lat="42.98159" lon="0.53758">
        <ele>1512</ele>
        <time>2019-06-30T10:44:31.000Z</time>
      </trkpt>
      <trkpt lat="42.98159" lon="0.53758">
        <ele>1512</ele>
        <time>2019-06-30T10:44:33.000Z</time>
      </trkpt>
      <trkpt lat="42.98159" lon="0.53758">
        <ele>1512</ele>
        <time>2019-06-30T10:44:35.000Z</time>
      </trkpt>
      <trkpt lat="42.98159" lon="0.53758">
        <ele>1512</ele>
        <time>2019-06-30T10:44:37.000Z</time>
      </trkpt>
      <trkpt lat="42.98159" lon="0.53759">
        <ele>1512</ele>
        <time>2019-06-30T10:44:39.000Z</time>
      </trkpt>
      <trkpt lat="42.98159" lon="0.53759">
        <ele>1512</ele>
        <time>2019-06-30T10:44:41.000Z</time>
      </trkpt>
      <trkpt lat="42.98159" lon="0.53759">
        <ele>1512</ele>
        <time>2019-06-30T10:44:43.000Z</time>
      </trkpt>
      <trkpt lat="42.98159" lon="0.53759">
        <ele>1511</ele>
        <time>2019-06-30T10:44:45.000Z</time>
      </trkpt>
      <trkpt lat="42.98159" lon="0.53759">
        <ele>1511</ele>
        <time>2019-06-30T10:44:47.000Z</time>
      </trkpt>
      <trkpt lat="42.98159" lon="0.53759">
        <ele>1511</ele>
        <time>2019-06-30T10:44:49.000Z</time>
      </trkpt>
      <trkpt lat="42.98159" lon="0.53759">
        <ele>1511</ele>
        <time>2019-06-30T10:44:51.000Z</time>
      </trkpt>
      <trkpt lat="42.98159" lon="0.5376">
        <ele>1511</ele>
        <time>2019-06-30T10:44:53.000Z</time>
      </trkpt>
      <trkpt lat="42.98158" lon="0.5376">
        <ele>1511</ele>
        <time>2019-06-30T10:44:55.000Z</time>
      </trkpt>
      <trkpt lat="42.98158" lon="0.53761">
        <ele>1511</ele>
        <time>2019-06-30T10:44:57.000Z</time>
      </trkpt>
      <trkpt lat="42.98159" lon="0.53761">
        <ele>1511</ele>
        <time>2019-06-30T10:44:59.000Z</time>
      </trkpt>
      <trkpt lat="42.98159" lon="0.53761">
        <ele>1511</ele>
        <time>2019-06-30T10:45:01.000Z</time>
      </trkpt>
      <trkpt lat="42.98159" lon="0.53761">
        <ele>1511</ele>
        <time>2019-06-30T10:45:03.000Z</time>
      </trkpt>
      <trkpt lat="42.98159" lon="0.53761">
        <ele>1511</ele>
        <time>2019-06-30T10:45:05.000Z</time>
      </trkpt>
      <trkpt lat="42.98159" lon="0.53761">
        <ele>1511</ele>
        <time>2019-06-30T10:45:07.000Z</time>
      </trkpt>
      <trkpt lat="42.98159" lon="0.53761">
        <ele>1511</ele>
        <time>2019-06-30T10:45:09.000Z</time>
      </trkpt>
      <trkpt lat="42.98159" lon="0.53761">
        <ele>1511</ele>
        <time>2019-06-30T10:45:11.000Z</time>
      </trkpt>
      <trkpt lat="42.98159" lon="0.53762">
        <ele>1511</ele>
        <time>2019-06-30T10:45:13.000Z</time>
      </trkpt>
      <trkpt lat="42.98159" lon="0.53761">
        <ele>1511</ele>
        <time>2019-06-30T10:45:15.000Z</time>
      </trkpt>
      <trkpt lat="42.98159" lon="0.53762">
        <ele>1512</ele>
        <time>2019-06-30T10:45:17.000Z</time>
      </trkpt>
      <trkpt lat="42.98159" lon="0.53762">
        <ele>1512</ele>
        <time>2019-06-30T10:45:19.000Z</time>
      </trkpt>
      <trkpt lat="42.98159" lon="0.53762">
        <ele>1511</ele>
        <time>2019-06-30T10:45:21.000Z</time>
      </trkpt>
      <trkpt lat="42.98159" lon="0.53761">
        <ele>1511</ele>
        <time>2019-06-30T10:45:23.000Z</time>
      </trkpt>
      <trkpt lat="42.98159" lon="0.53761">
        <ele>1511</ele>
        <time>2019-06-30T10:45:25.000Z</time>
      </trkpt>
      <trkpt lat="42.98159" lon="0.53761">
        <ele>1511</ele>
        <time>2019-06-30T10:45:27.000Z</time>
      </trkpt>
      <trkpt lat="42.98159" lon="0.53761">
        <ele>1511</ele>
        <time>2019-06-30T10:45:29.000Z</time>
      </trkpt>
      <trkpt lat="42.98159" lon="0.53761">
        <ele>1511</ele>
        <time>2019-06-30T10:45:31.000Z</time>
      </trkpt>
      <trkpt lat="42.98159" lon="0.53761">
        <ele>1511</ele>
        <time>2019-06-30T10:45:33.000Z</time>
      </trkpt>
      <trkpt lat="42.98159" lon="0.53761">
        <ele>1511</ele>
        <time>2019-06-30T10:45:35.000Z</time>
      </trkpt>
      <trkpt lat="42.98159" lon="0.53761">
        <ele>1511</ele>
        <time>2019-06-30T10:45:37.000Z</time>
      </trkpt>
      <trkpt lat="42.98158" lon="0.5376">
        <ele>1511</ele>
        <time>2019-06-30T10:45:39.000Z</time>
      </trkpt>
      <trkpt lat="42.98158" lon="0.5376">
        <ele>1511</ele>
        <time>2019-06-30T10:45:41.000Z</time>
      </trkpt>
      <trkpt lat="42.98158" lon="0.5376">
        <ele>1511</ele>
        <time>2019-06-30T10:45:43.000Z</time>
      </trkpt>
      <trkpt lat="42.98158" lon="0.5376">
        <ele>1511</ele>
        <time>2019-06-30T10:45:45.000Z</time>
      </trkpt>
      <trkpt lat="42.98157" lon="0.5376">
        <ele>1511</ele>
        <time>2019-06-30T10:45:47.000Z</time>
      </trkpt>
      <trkpt lat="42.98157" lon="0.5376">
        <ele>1511</ele>
        <time>2019-06-30T10:45:49.000Z</time>
      </trkpt>
      <trkpt lat="42.98157" lon="0.5376">
        <ele>1510</ele>
        <time>2019-06-30T10:45:51.000Z</time>
      </trkpt>
      <trkpt lat="42.98157" lon="0.5376">
        <ele>1510</ele>
        <time>2019-06-30T10:45:53.000Z</time>
      </trkpt>
      <trkpt lat="42.98157" lon="0.53759">
        <ele>1510</ele>
        <time>2019-06-30T10:45:55.000Z</time>
      </trkpt>
      <trkpt lat="42.98156" lon="0.53759">
        <ele>1510</ele>
        <time>2019-06-30T10:45:57.000Z</time>
      </trkpt>
      <trkpt lat="42.98156" lon="0.53759">
        <ele>1510</ele>
        <time>2019-06-30T10:45:59.000Z</time>
      </trkpt>
      <trkpt lat="42.98156" lon="0.53759">
        <ele>1510</ele>
        <time>2019-06-30T10:46:01.000Z</time>
      </trkpt>
      <trkpt lat="42.98156" lon="0.53759">
        <ele>1510</ele>
        <time>2019-06-30T10:46:03.000Z</time>
      </trkpt>
      <trkpt lat="42.98157" lon="0.5376">
        <ele>1510</ele>
        <time>2019-06-30T10:46:05.000Z</time>
      </trkpt>
      <trkpt lat="42.98157" lon="0.5376">
        <ele>1510</ele>
        <time>2019-06-30T10:46:07.000Z</time>
      </trkpt>
      <trkpt lat="42.98157" lon="0.5376">
        <ele>1510</ele>
        <time>2019-06-30T10:46:09.000Z</time>
      </trkpt>
      <trkpt lat="42.98157" lon="0.53759">
        <ele>1510</ele>
        <time>2019-06-30T10:46:11.000Z</time>
      </trkpt>
      <trkpt lat="42.98157" lon="0.53759">
        <ele>1510</ele>
        <time>2019-06-30T10:46:13.000Z</time>
      </trkpt>
      <trkpt lat="42.98157" lon="0.5376">
        <ele>1510</ele>
        <time>2019-06-30T10:46:15.000Z</time>
      </trkpt>
      <trkpt lat="42.98157" lon="0.5376">
        <ele>1510</ele>
        <time>2019-06-30T10:46:17.000Z</time>
      </trkpt>
      <trkpt lat="42.98157" lon="0.5376">
        <ele>1510</ele>
        <time>2019-06-30T10:46:19.000Z</time>
      </trkpt>
      <trkpt lat="42.98157" lon="0.5376">
        <ele>1510</ele>
        <time>2019-06-30T10:46:21.000Z</time>
      </trkpt>
      <trkpt lat="42.98157" lon="0.5376">
        <ele>1510</ele>
        <time>2019-06-30T10:46:23.000Z</time>
      </trkpt>
      <trkpt lat="42.98157" lon="0.5376">
        <ele>1510</ele>
        <time>2019-06-30T10:46:25.000Z</time>
      </trkpt>
      <trkpt lat="42.98156" lon="0.5376">
        <ele>1510</ele>
        <time>2019-06-30T10:46:27.000Z</time>
      </trkpt>
      <trkpt lat="42.98156" lon="0.5376">
        <ele>1510</ele>
        <time>2019-06-30T10:46:29.000Z</time>
      </trkpt>
      <trkpt lat="42.98157" lon="0.53761">
        <ele>1510</ele>
        <time>2019-06-30T10:46:31.000Z</time>
      </trkpt>
      <trkpt lat="42.98157" lon="0.53761">
        <ele>1510</ele>
        <time>2019-06-30T10:46:33.000Z</time>
      </trkpt>
      <trkpt lat="42.98158" lon="0.53761">
        <ele>1511</ele>
        <time>2019-06-30T10:46:35.000Z</time>
      </trkpt>
      <trkpt lat="42.98158" lon="0.53761">
        <ele>1511</ele>
        <time>2019-06-30T10:46:37.000Z</time>
      </trkpt>
      <trkpt lat="42.98158" lon="0.53762">
        <ele>1511</ele>
        <time>2019-06-30T10:46:39.000Z</time>
      </trkpt>
      <trkpt lat="42.98158" lon="0.53762">
        <ele>1511</ele>
        <time>2019-06-30T10:46:41.000Z</time>
      </trkpt>
      <trkpt lat="42.98158" lon="0.53762">
        <ele>1511</ele>
        <time>2019-06-30T10:46:43.000Z</time>
      </trkpt>
      <trkpt lat="42.98158" lon="0.53762">
        <ele>1511</ele>
        <time>2019-06-30T10:46:45.000Z</time>
      </trkpt>
      <trkpt lat="42.98158" lon="0.53762">
        <ele>1511</ele>
        <time>2019-06-30T10:46:47.000Z</time>
      </trkpt>
      <trkpt lat="42.98158" lon="0.53762">
        <ele>1511</ele>
        <time>2019-06-30T10:46:49.000Z</time>
      </trkpt>
      <trkpt lat="42.98158" lon="0.53762">
        <ele>1511</ele>
        <time>2019-06-30T10:46:51.000Z</time>
      </trkpt>
      <trkpt lat="42.98157" lon="0.53762">
        <ele>1511</ele>
        <time>2019-06-30T10:46:53.000Z</time>
      </trkpt>
      <trkpt lat="42.98158" lon="0.53762">
        <ele>1511</ele>
        <time>2019-06-30T10:46:55.000Z</time>
      </trkpt>
      <trkpt lat="42.98157" lon="0.53762">
        <ele>1511</ele>
        <time>2019-06-30T10:46:57.000Z</time>
      </trkpt>
      <trkpt lat="42.98157" lon="0.53762">
        <ele>1511</ele>
        <time>2019-06-30T10:46:59.000Z</time>
      </trkpt>
      <trkpt lat="42.98157" lon="0.53762">
        <ele>1511</ele>
        <time>2019-06-30T10:47:01.000Z</time>
      </trkpt>
      <trkpt lat="42.98157" lon="0.53762">
        <ele>1510</ele>
        <time>2019-06-30T10:47:03.000Z</time>
      </trkpt>
      <trkpt lat="42.98157" lon="0.53762">
        <ele>1510</ele>
        <time>2019-06-30T10:47:05.000Z</time>
      </trkpt>
      <trkpt lat="42.98156" lon="0.53762">
        <ele>1510</ele>
        <time>2019-06-30T10:47:07.000Z</time>
      </trkpt>
      <trkpt lat="42.98156" lon="0.53762">
        <ele>1510</ele>
        <time>2019-06-30T10:47:09.000Z</time>
      </trkpt>
      <trkpt lat="42.98156" lon="0.53761">
        <ele>1510</ele>
        <time>2019-06-30T10:47:11.000Z</time>
      </trkpt>
      <trkpt lat="42.98156" lon="0.53761">
        <ele>1510</ele>
        <time>2019-06-30T10:47:13.000Z</time>
      </trkpt>
      <trkpt lat="42.98156" lon="0.53761">
        <ele>1510</ele>
        <time>2019-06-30T10:47:15.000Z</time>
      </trkpt>
      <trkpt lat="42.98157" lon="0.53761">
        <ele>1511</ele>
        <time>2019-06-30T10:47:17.000Z</time>
      </trkpt>
      <trkpt lat="42.98157" lon="0.53761">
        <ele>1511</ele>
        <time>2019-06-30T10:47:19.000Z</time>
      </trkpt>
      <trkpt lat="42.98157" lon="0.53761">
        <ele>1511</ele>
        <time>2019-06-30T10:47:21.000Z</time>
      </trkpt>
      <trkpt lat="42.98157" lon="0.53761">
        <ele>1511</ele>
        <time>2019-06-30T10:47:23.000Z</time>
      </trkpt>
      <trkpt lat="42.98158" lon="0.53762">
        <ele>1511</ele>
        <time>2019-06-30T10:47:25.000Z</time>
      </trkpt>
      <trkpt lat="42.98159" lon="0.53763">
        <ele>1511</ele>
        <time>2019-06-30T10:47:27.000Z</time>
      </trkpt>
      <trkpt lat="42.98159" lon="0.53763">
        <ele>1511</ele>
        <time>2019-06-30T10:47:29.000Z</time>
      </trkpt>
      <trkpt lat="42.98159" lon="0.53763">
        <ele>1512</ele>
        <time>2019-06-30T10:47:31.000Z</time>
      </trkpt>
      <trkpt lat="42.9816" lon="0.53763">
        <ele>1512</ele>
        <time>2019-06-30T10:47:33.000Z</time>
      </trkpt>
      <trkpt lat="42.98161" lon="0.53765">
        <ele>1512</ele>
        <time>2019-06-30T10:47:35.000Z</time>
      </trkpt>
      <trkpt lat="42.98161" lon="0.53767">
        <ele>1512</ele>
        <time>2019-06-30T10:47:37.000Z</time>
      </trkpt>
      <trkpt lat="42.98162" lon="0.53769">
        <ele>1513</ele>
        <time>2019-06-30T10:47:39.000Z</time>
      </trkpt>
      <trkpt lat="42.98162" lon="0.53771">
        <ele>1513</ele>
        <time>2019-06-30T10:47:41.000Z</time>
      </trkpt>
      <trkpt lat="42.98162" lon="0.53773">
        <ele>1513</ele>
        <time>2019-06-30T10:47:43.000Z</time>
      </trkpt>
      <trkpt lat="42.98162" lon="0.53774">
        <ele>1513</ele>
        <time>2019-06-30T10:47:45.000Z</time>
      </trkpt>
      <trkpt lat="42.98162" lon="0.53776">
        <ele>1513</ele>
        <time>2019-06-30T10:47:47.000Z</time>
      </trkpt>
      <trkpt lat="42.98161" lon="0.53778">
        <ele>1513</ele>
        <time>2019-06-30T10:47:49.000Z</time>
      </trkpt>
      <trkpt lat="42.98161" lon="0.53779">
        <ele>1513</ele>
        <time>2019-06-30T10:47:51.000Z</time>
      </trkpt>
      <trkpt lat="42.98161" lon="0.53781">
        <ele>1513</ele>
        <time>2019-06-30T10:47:53.000Z</time>
      </trkpt>
      <trkpt lat="42.98161" lon="0.53783">
        <ele>1512</ele>
        <time>2019-06-30T10:47:55.000Z</time>
      </trkpt>
      <trkpt lat="42.9816" lon="0.53785">
        <ele>1512</ele>
        <time>2019-06-30T10:47:57.000Z</time>
      </trkpt>
      <trkpt lat="42.9816" lon="0.53787">
        <ele>1512</ele>
        <time>2019-06-30T10:47:59.000Z</time>
      </trkpt>
      <trkpt lat="42.9816" lon="0.53789">
        <ele>1512</ele>
        <time>2019-06-30T10:48:01.000Z</time>
      </trkpt>
      <trkpt lat="42.9816" lon="0.53792">
        <ele>1513</ele>
        <time>2019-06-30T10:48:03.000Z</time>
      </trkpt>
      <trkpt lat="42.98159" lon="0.53793">
        <ele>1513</ele>
        <time>2019-06-30T10:48:05.000Z</time>
      </trkpt>
      <trkpt lat="42.98159" lon="0.53795">
        <ele>1513</ele>
        <time>2019-06-30T10:48:07.000Z</time>
      </trkpt>
      <trkpt lat="42.98159" lon="0.53797">
        <ele>1513</ele>
        <time>2019-06-30T10:48:09.000Z</time>
      </trkpt>
      <trkpt lat="42.98158" lon="0.53798">
        <ele>1513</ele>
        <time>2019-06-30T10:48:11.000Z</time>
      </trkpt>
      <trkpt lat="42.98158" lon="0.538">
        <ele>1513</ele>
        <time>2019-06-30T10:48:13.000Z</time>
      </trkpt>
      <trkpt lat="42.98158" lon="0.53802">
        <ele>1513</ele>
        <time>2019-06-30T10:48:15.000Z</time>
      </trkpt>
      <trkpt lat="42.98158" lon="0.53804">
        <ele>1513</ele>
        <time>2019-06-30T10:48:17.000Z</time>
      </trkpt>
      <trkpt lat="42.98158" lon="0.53806">
        <ele>1513</ele>
        <time>2019-06-30T10:48:19.000Z</time>
      </trkpt>
      <trkpt lat="42.98158" lon="0.53808">
        <ele>1513</ele>
        <time>2019-06-30T10:48:21.000Z</time>
      </trkpt>
      <trkpt lat="42.98157" lon="0.5381">
        <ele>1512</ele>
        <time>2019-06-30T10:48:23.000Z</time>
      </trkpt>
      <trkpt lat="42.98155" lon="0.53811">
        <ele>1512</ele>
        <time>2019-06-30T10:48:25.000Z</time>
      </trkpt>
      <trkpt lat="42.98155" lon="0.53813">
        <ele>1512</ele>
        <time>2019-06-30T10:48:27.000Z</time>
      </trkpt>
      <trkpt lat="42.98155" lon="0.53815">
        <ele>1511</ele>
        <time>2019-06-30T10:48:29.000Z</time>
      </trkpt>
      <trkpt lat="42.98155" lon="0.53817">
        <ele>1511</ele>
        <time>2019-06-30T10:48:31.000Z</time>
      </trkpt>
      <trkpt lat="42.98154" lon="0.53818">
        <ele>1511</ele>
        <time>2019-06-30T10:48:33.000Z</time>
      </trkpt>
      <trkpt lat="42.98154" lon="0.53821">
        <ele>1510</ele>
        <time>2019-06-30T10:48:35.000Z</time>
      </trkpt>
      <trkpt lat="42.98153" lon="0.53822">
        <ele>1510</ele>
        <time>2019-06-30T10:48:37.000Z</time>
      </trkpt>
      <trkpt lat="42.98152" lon="0.53823">
        <ele>1510</ele>
        <time>2019-06-30T10:48:39.000Z</time>
      </trkpt>
      <trkpt lat="42.98152" lon="0.53825">
        <ele>1510</ele>
        <time>2019-06-30T10:48:41.000Z</time>
      </trkpt>
      <trkpt lat="42.98151" lon="0.53827">
        <ele>1509</ele>
        <time>2019-06-30T10:48:43.000Z</time>
      </trkpt>
      <trkpt lat="42.9815" lon="0.53828">
        <ele>1509</ele>
        <time>2019-06-30T10:48:45.000Z</time>
      </trkpt>
      <trkpt lat="42.98149" lon="0.5383">
        <ele>1508</ele>
        <time>2019-06-30T10:48:47.000Z</time>
      </trkpt>
      <trkpt lat="42.98148" lon="0.53832">
        <ele>1508</ele>
        <time>2019-06-30T10:48:49.000Z</time>
      </trkpt>
      <trkpt lat="42.98148" lon="0.53833">
        <ele>1508</ele>
        <time>2019-06-30T10:48:51.000Z</time>
      </trkpt>
      <trkpt lat="42.98148" lon="0.53836">
        <ele>1507</ele>
        <time>2019-06-30T10:48:53.000Z</time>
      </trkpt>
      <trkpt lat="42.98148" lon="0.53838">
        <ele>1507</ele>
        <time>2019-06-30T10:48:55.000Z</time>
      </trkpt>
      <trkpt lat="42.98147" lon="0.5384">
        <ele>1507</ele>
        <time>2019-06-30T10:48:57.000Z</time>
      </trkpt>
      <trkpt lat="42.98147" lon="0.53843">
        <ele>1507</ele>
        <time>2019-06-30T10:48:59.000Z</time>
      </trkpt>
      <trkpt lat="42.98146" lon="0.53844">
        <ele>1506</ele>
        <time>2019-06-30T10:49:01.000Z</time>
      </trkpt>
      <trkpt lat="42.98146" lon="0.53846">
        <ele>1506</ele>
        <time>2019-06-30T10:49:03.000Z</time>
      </trkpt>
      <trkpt lat="42.98145" lon="0.53849">
        <ele>1506</ele>
        <time>2019-06-30T10:49:05.000Z</time>
      </trkpt>
      <trkpt lat="42.98145" lon="0.53852">
        <ele>1505</ele>
        <time>2019-06-30T10:49:07.000Z</time>
      </trkpt>
      <trkpt lat="42.98145" lon="0.53854">
        <ele>1505</ele>
        <time>2019-06-30T10:49:09.000Z</time>
      </trkpt>
      <trkpt lat="42.98144" lon="0.53857">
        <ele>1506</ele>
        <time>2019-06-30T10:49:11.000Z</time>
      </trkpt>
      <trkpt lat="42.98143" lon="0.5386">
        <ele>1506</ele>
        <time>2019-06-30T10:49:13.000Z</time>
      </trkpt>
      <trkpt lat="42.98142" lon="0.53862">
        <ele>1506</ele>
        <time>2019-06-30T10:49:15.000Z</time>
      </trkpt>
      <trkpt lat="42.98141" lon="0.53865">
        <ele>1507</ele>
        <time>2019-06-30T10:49:17.000Z</time>
      </trkpt>
      <trkpt lat="42.9814" lon="0.53867">
        <ele>1507</ele>
        <time>2019-06-30T10:49:19.000Z</time>
      </trkpt>
      <trkpt lat="42.9814" lon="0.5387">
        <ele>1507</ele>
        <time>2019-06-30T10:49:21.000Z</time>
      </trkpt>
      <trkpt lat="42.98139" lon="0.53872">
        <ele>1507</ele>
        <time>2019-06-30T10:49:23.000Z</time>
      </trkpt>
      <trkpt lat="42.98138" lon="0.53873">
        <ele>1508</ele>
        <time>2019-06-30T10:49:25.000Z</time>
      </trkpt>
      <trkpt lat="42.98136" lon="0.53875">
        <ele>1508</ele>
        <time>2019-06-30T10:49:27.000Z</time>
      </trkpt>
      <trkpt lat="42.98135" lon="0.53877">
        <ele>1508</ele>
        <time>2019-06-30T10:49:29.000Z</time>
      </trkpt>
      <trkpt lat="42.98134" lon="0.53878">
        <ele>1508</ele>
        <time>2019-06-30T10:49:31.000Z</time>
      </trkpt>
      <trkpt lat="42.98134" lon="0.53879">
        <ele>1508</ele>
        <time>2019-06-30T10:49:33.000Z</time>
      </trkpt>
      <trkpt lat="42.98133" lon="0.53881">
        <ele>1508</ele>
        <time>2019-06-30T10:49:35.000Z</time>
      </trkpt>
      <trkpt lat="42.98132" lon="0.53883">
        <ele>1509</ele>
        <time>2019-06-30T10:49:37.000Z</time>
      </trkpt>
      <trkpt lat="42.9813" lon="0.53884">
        <ele>1509</ele>
        <time>2019-06-30T10:49:39.000Z</time>
      </trkpt>
      <trkpt lat="42.9813" lon="0.53886">
        <ele>1508</ele>
        <time>2019-06-30T10:49:41.000Z</time>
      </trkpt>
      <trkpt lat="42.98128" lon="0.53887">
        <ele>1508</ele>
        <time>2019-06-30T10:49:43.000Z</time>
      </trkpt>
      <trkpt lat="42.98127" lon="0.53888">
        <ele>1508</ele>
        <time>2019-06-30T10:49:45.000Z</time>
      </trkpt>
      <trkpt lat="42.98126" lon="0.53889">
        <ele>1507</ele>
        <time>2019-06-30T10:49:47.000Z</time>
      </trkpt>
      <trkpt lat="42.98126" lon="0.53892">
        <ele>1507</ele>
        <time>2019-06-30T10:49:49.000Z</time>
      </trkpt>
      <trkpt lat="42.98125" lon="0.53893">
        <ele>1506</ele>
        <time>2019-06-30T10:49:51.000Z</time>
      </trkpt>
      <trkpt lat="42.98123" lon="0.53895">
        <ele>1506</ele>
        <time>2019-06-30T10:49:53.000Z</time>
      </trkpt>
      <trkpt lat="42.98123" lon="0.53897">
        <ele>1505</ele>
        <time>2019-06-30T10:49:55.000Z</time>
      </trkpt>
      <trkpt lat="42.98121" lon="0.53899">
        <ele>1505</ele>
        <time>2019-06-30T10:49:57.000Z</time>
      </trkpt>
      <trkpt lat="42.9812" lon="0.539">
        <ele>1504</ele>
        <time>2019-06-30T10:49:59.000Z</time>
      </trkpt>
      <trkpt lat="42.9812" lon="0.539">
        <ele>1504</ele>
        <time>2019-06-30T10:50:01.000Z</time>
      </trkpt>
      <trkpt lat="42.98119" lon="0.53901">
        <ele>1504</ele>
        <time>2019-06-30T10:50:03.000Z</time>
      </trkpt>
      <trkpt lat="42.98118" lon="0.53903">
        <ele>1503</ele>
        <time>2019-06-30T10:50:05.000Z</time>
      </trkpt>
      <trkpt lat="42.98117" lon="0.53904">
        <ele>1503</ele>
        <time>2019-06-30T10:50:07.000Z</time>
      </trkpt>
      <trkpt lat="42.98117" lon="0.53906">
        <ele>1502</ele>
        <time>2019-06-30T10:50:09.000Z</time>
      </trkpt>
      <trkpt lat="42.98116" lon="0.53908">
        <ele>1502</ele>
        <time>2019-06-30T10:50:11.000Z</time>
      </trkpt>
      <trkpt lat="42.98115" lon="0.5391">
        <ele>1502</ele>
        <time>2019-06-30T10:50:13.000Z</time>
      </trkpt>
      <trkpt lat="42.98114" lon="0.53912">
        <ele>1502</ele>
        <time>2019-06-30T10:50:15.000Z</time>
      </trkpt>
      <trkpt lat="42.98113" lon="0.53914">
        <ele>1502</ele>
        <time>2019-06-30T10:50:17.000Z</time>
      </trkpt>
      <trkpt lat="42.98111" lon="0.53915">
        <ele>1503</ele>
        <time>2019-06-30T10:50:19.000Z</time>
      </trkpt>
      <trkpt lat="42.9811" lon="0.53917">
        <ele>1503</ele>
        <time>2019-06-30T10:50:21.000Z</time>
      </trkpt>
      <trkpt lat="42.98109" lon="0.53918">
        <ele>1503</ele>
        <time>2019-06-30T10:50:23.000Z</time>
      </trkpt>
      <trkpt lat="42.98107" lon="0.5392">
        <ele>1504</ele>
        <time>2019-06-30T10:50:25.000Z</time>
      </trkpt>
      <trkpt lat="42.98106" lon="0.53923">
        <ele>1504</ele>
        <time>2019-06-30T10:50:27.000Z</time>
      </trkpt>
      <trkpt lat="42.98104" lon="0.53925">
        <ele>1504</ele>
        <time>2019-06-30T10:50:29.000Z</time>
      </trkpt>
      <trkpt lat="42.98103" lon="0.53927">
        <ele>1505</ele>
        <time>2019-06-30T10:50:31.000Z</time>
      </trkpt>
      <trkpt lat="42.98102" lon="0.53929">
        <ele>1505</ele>
        <time>2019-06-30T10:50:33.000Z</time>
      </trkpt>
      <trkpt lat="42.98101" lon="0.53931">
        <ele>1505</ele>
        <time>2019-06-30T10:50:35.000Z</time>
      </trkpt>
      <trkpt lat="42.98099" lon="0.53933">
        <ele>1505</ele>
        <time>2019-06-30T10:50:37.000Z</time>
      </trkpt>
      <trkpt lat="42.98098" lon="0.53933">
        <ele>1506</ele>
        <time>2019-06-30T10:50:39.000Z</time>
      </trkpt>
      <trkpt lat="42.98097" lon="0.53933">
        <ele>1506</ele>
        <time>2019-06-30T10:50:41.000Z</time>
      </trkpt>
      <trkpt lat="42.98095" lon="0.53934">
        <ele>1506</ele>
        <time>2019-06-30T10:50:43.000Z</time>
      </trkpt>
      <trkpt lat="42.98095" lon="0.53935">
        <ele>1506</ele>
        <time>2019-06-30T10:50:45.000Z</time>
      </trkpt>
      <trkpt lat="42.98094" lon="0.53936">
        <ele>1506</ele>
        <time>2019-06-30T10:50:47.000Z</time>
      </trkpt>
      <trkpt lat="42.98094" lon="0.53938">
        <ele>1507</ele>
        <time>2019-06-30T10:50:49.000Z</time>
      </trkpt>
      <trkpt lat="42.98093" lon="0.53939">
        <ele>1507</ele>
        <time>2019-06-30T10:50:51.000Z</time>
      </trkpt>
      <trkpt lat="42.98092" lon="0.5394">
        <ele>1507</ele>
        <time>2019-06-30T10:50:53.000Z</time>
      </trkpt>
      <trkpt lat="42.98092" lon="0.53942">
        <ele>1507</ele>
        <time>2019-06-30T10:50:55.000Z</time>
      </trkpt>
      <trkpt lat="42.98091" lon="0.53944">
        <ele>1507</ele>
        <time>2019-06-30T10:50:57.000Z</time>
      </trkpt>
      <trkpt lat="42.98091" lon="0.53946">
        <ele>1507</ele>
        <time>2019-06-30T10:50:59.000Z</time>
      </trkpt>
      <trkpt lat="42.98091" lon="0.53946">
        <ele>1507</ele>
        <time>2019-06-30T10:51:01.000Z</time>
      </trkpt>
      <trkpt lat="42.98092" lon="0.53947">
        <ele>1507</ele>
        <time>2019-06-30T10:51:03.000Z</time>
      </trkpt>
      <trkpt lat="42.98091" lon="0.53948">
        <ele>1507</ele>
        <time>2019-06-30T10:51:05.000Z</time>
      </trkpt>
      <trkpt lat="42.98089" lon="0.53949">
        <ele>1506</ele>
        <time>2019-06-30T10:51:07.000Z</time>
      </trkpt>
      <trkpt lat="42.98087" lon="0.5395">
        <ele>1505</ele>
        <time>2019-06-30T10:51:09.000Z</time>
      </trkpt>
      <trkpt lat="42.98086" lon="0.53953">
        <ele>1504</ele>
        <time>2019-06-30T10:51:11.000Z</time>
      </trkpt>
      <trkpt lat="42.98085" lon="0.53956">
        <ele>1503</ele>
        <time>2019-06-30T10:51:13.000Z</time>
      </trkpt>
      <trkpt lat="42.98084" lon="0.53958">
        <ele>1503</ele>
        <time>2019-06-30T10:51:15.000Z</time>
      </trkpt>
      <trkpt lat="42.98083" lon="0.53961">
        <ele>1503</ele>
        <time>2019-06-30T10:51:17.000Z</time>
      </trkpt>
      <trkpt lat="42.98082" lon="0.53964">
        <ele>1504</ele>
        <time>2019-06-30T10:51:19.000Z</time>
      </trkpt>
      <trkpt lat="42.9808" lon="0.53967">
        <ele>1505</ele>
        <time>2019-06-30T10:51:21.000Z</time>
      </trkpt>
      <trkpt lat="42.98078" lon="0.53969">
        <ele>1504</ele>
        <time>2019-06-30T10:51:23.000Z</time>
      </trkpt>
      <trkpt lat="42.98076" lon="0.53971">
        <ele>1503</ele>
        <time>2019-06-30T10:51:25.000Z</time>
      </trkpt>
      <trkpt lat="42.98074" lon="0.53973">
        <ele>1503</ele>
        <time>2019-06-30T10:51:27.000Z</time>
      </trkpt>
      <trkpt lat="42.98072" lon="0.53975">
        <ele>1502</ele>
        <time>2019-06-30T10:51:29.000Z</time>
      </trkpt>
      <trkpt lat="42.98071" lon="0.53977">
        <ele>1501</ele>
        <time>2019-06-30T10:51:31.000Z</time>
      </trkpt>
      <trkpt lat="42.9807" lon="0.53979">
        <ele>1501</ele>
        <time>2019-06-30T10:51:33.000Z</time>
      </trkpt>
      <trkpt lat="42.98069" lon="0.53981">
        <ele>1500</ele>
        <time>2019-06-30T10:51:35.000Z</time>
      </trkpt>
      <trkpt lat="42.98068" lon="0.53983">
        <ele>1500</ele>
        <time>2019-06-30T10:51:37.000Z</time>
      </trkpt>
      <trkpt lat="42.98067" lon="0.53983">
        <ele>1499</ele>
        <time>2019-06-30T10:51:39.000Z</time>
      </trkpt>
      <trkpt lat="42.98065" lon="0.53984">
        <ele>1499</ele>
        <time>2019-06-30T10:51:41.000Z</time>
      </trkpt>
      <trkpt lat="42.98065" lon="0.53985">
        <ele>1498</ele>
        <time>2019-06-30T10:51:43.000Z</time>
      </trkpt>
      <trkpt lat="42.98064" lon="0.53986">
        <ele>1498</ele>
        <time>2019-06-30T10:51:45.000Z</time>
      </trkpt>
      <trkpt lat="42.98064" lon="0.53986">
        <ele>1498</ele>
        <time>2019-06-30T10:51:47.000Z</time>
      </trkpt>
      <trkpt lat="42.98063" lon="0.53987">
        <ele>1497</ele>
        <time>2019-06-30T10:51:49.000Z</time>
      </trkpt>
      <trkpt lat="42.98062" lon="0.53989">
        <ele>1497</ele>
        <time>2019-06-30T10:51:51.000Z</time>
      </trkpt>
      <trkpt lat="42.98061" lon="0.5399">
        <ele>1496</ele>
        <time>2019-06-30T10:51:53.000Z</time>
      </trkpt>
      <trkpt lat="42.9806" lon="0.53991">
        <ele>1496</ele>
        <time>2019-06-30T10:51:55.000Z</time>
      </trkpt>
      <trkpt lat="42.98058" lon="0.53992">
        <ele>1495</ele>
        <time>2019-06-30T10:51:57.000Z</time>
      </trkpt>
      <trkpt lat="42.98056" lon="0.53992">
        <ele>1495</ele>
        <time>2019-06-30T10:51:59.000Z</time>
      </trkpt>
      <trkpt lat="42.98055" lon="0.53993">
        <ele>1494</ele>
        <time>2019-06-30T10:52:01.000Z</time>
      </trkpt>
      <trkpt lat="42.98053" lon="0.53993">
        <ele>1494</ele>
        <time>2019-06-30T10:52:03.000Z</time>
      </trkpt>
      <trkpt lat="42.98051" lon="0.53993">
        <ele>1494</ele>
        <time>2019-06-30T10:52:05.000Z</time>
      </trkpt>
      <trkpt lat="42.9805" lon="0.53994">
        <ele>1493</ele>
        <time>2019-06-30T10:52:07.000Z</time>
      </trkpt>
      <trkpt lat="42.98048" lon="0.53994">
        <ele>1493</ele>
        <time>2019-06-30T10:52:09.000Z</time>
      </trkpt>
      <trkpt lat="42.98047" lon="0.53995">
        <ele>1492</ele>
        <time>2019-06-30T10:52:11.000Z</time>
      </trkpt>
      <trkpt lat="42.98046" lon="0.53997">
        <ele>1492</ele>
        <time>2019-06-30T10:52:13.000Z</time>
      </trkpt>
      <trkpt lat="42.98045" lon="0.53998">
        <ele>1491</ele>
        <time>2019-06-30T10:52:15.000Z</time>
      </trkpt>
      <trkpt lat="42.98043" lon="0.54">
        <ele>1490</ele>
        <time>2019-06-30T10:52:17.000Z</time>
      </trkpt>
      <trkpt lat="42.98041" lon="0.54">
        <ele>1490</ele>
        <time>2019-06-30T10:52:19.000Z</time>
      </trkpt>
      <trkpt lat="42.9804" lon="0.54">
        <ele>1490</ele>
        <time>2019-06-30T10:52:21.000Z</time>
      </trkpt>
      <trkpt lat="42.98038" lon="0.54001">
        <ele>1490</ele>
        <time>2019-06-30T10:52:23.000Z</time>
      </trkpt>
      <trkpt lat="42.98037" lon="0.54001">
        <ele>1490</ele>
        <time>2019-06-30T10:52:25.000Z</time>
      </trkpt>
      <trkpt lat="42.98035" lon="0.54002">
        <ele>1490</ele>
        <time>2019-06-30T10:52:27.000Z</time>
      </trkpt>
      <trkpt lat="42.98034" lon="0.54002">
        <ele>1490</ele>
        <time>2019-06-30T10:52:29.000Z</time>
      </trkpt>
      <trkpt lat="42.98033" lon="0.54002">
        <ele>1490</ele>
        <time>2019-06-30T10:52:31.000Z</time>
      </trkpt>
      <trkpt lat="42.98032" lon="0.54003">
        <ele>1490</ele>
        <time>2019-06-30T10:52:33.000Z</time>
      </trkpt>
      <trkpt lat="42.98031" lon="0.54004">
        <ele>1490</ele>
        <time>2019-06-30T10:52:35.000Z</time>
      </trkpt>
      <trkpt lat="42.9803" lon="0.54005">
        <ele>1490</ele>
        <time>2019-06-30T10:52:37.000Z</time>
      </trkpt>
      <trkpt lat="42.9803" lon="0.54005">
        <ele>1490</ele>
        <time>2019-06-30T10:52:39.000Z</time>
      </trkpt>
      <trkpt lat="42.9803" lon="0.54005">
        <ele>1490</ele>
        <time>2019-06-30T10:52:41.000Z</time>
      </trkpt>
      <trkpt lat="42.9803" lon="0.54005">
        <ele>1490</ele>
        <time>2019-06-30T10:52:43.000Z</time>
      </trkpt>
      <trkpt lat="42.98029" lon="0.54004">
        <ele>1490</ele>
        <time>2019-06-30T10:52:45.000Z</time>
      </trkpt>
      <trkpt lat="42.98029" lon="0.54004">
        <ele>1490</ele>
        <time>2019-06-30T10:52:47.000Z</time>
      </trkpt>
      <trkpt lat="42.98028" lon="0.54004">
        <ele>1490</ele>
        <time>2019-06-30T10:52:49.000Z</time>
      </trkpt>
      <trkpt lat="42.98028" lon="0.54004">
        <ele>1489</ele>
        <time>2019-06-30T10:52:51.000Z</time>
      </trkpt>
      <trkpt lat="42.98027" lon="0.54004">
        <ele>1489</ele>
        <time>2019-06-30T10:52:53.000Z</time>
      </trkpt>
      <trkpt lat="42.98026" lon="0.54003">
        <ele>1489</ele>
        <time>2019-06-30T10:52:55.000Z</time>
      </trkpt>
      <trkpt lat="42.98025" lon="0.54003">
        <ele>1489</ele>
        <time>2019-06-30T10:52:57.000Z</time>
      </trkpt>
      <trkpt lat="42.98024" lon="0.54002">
        <ele>1489</ele>
        <time>2019-06-30T10:52:59.000Z</time>
      </trkpt>
      <trkpt lat="42.98023" lon="0.54002">
        <ele>1489</ele>
        <time>2019-06-30T10:53:01.000Z</time>
      </trkpt>
      <trkpt lat="42.98023" lon="0.54002">
        <ele>1489</ele>
        <time>2019-06-30T10:53:03.000Z</time>
      </trkpt>
      <trkpt lat="42.98022" lon="0.54001">
        <ele>1489</ele>
        <time>2019-06-30T10:53:05.000Z</time>
      </trkpt>
      <trkpt lat="42.98022" lon="0.54001">
        <ele>1489</ele>
        <time>2019-06-30T10:53:07.000Z</time>
      </trkpt>
      <trkpt lat="42.98021" lon="0.54001">
        <ele>1489</ele>
        <time>2019-06-30T10:53:09.000Z</time>
      </trkpt>
      <trkpt lat="42.98021" lon="0.54001">
        <ele>1489</ele>
        <time>2019-06-30T10:53:11.000Z</time>
      </trkpt>
      <trkpt lat="42.9802" lon="0.54001">
        <ele>1489</ele>
        <time>2019-06-30T10:53:13.000Z</time>
      </trkpt>
      <trkpt lat="42.9802" lon="0.54001">
        <ele>1489</ele>
        <time>2019-06-30T10:53:15.000Z</time>
      </trkpt>
      <trkpt lat="42.9802" lon="0.54001">
        <ele>1489</ele>
        <time>2019-06-30T10:53:17.000Z</time>
      </trkpt>
      <trkpt lat="42.9802" lon="0.54001">
        <ele>1489</ele>
        <time>2019-06-30T10:53:19.000Z</time>
      </trkpt>
      <trkpt lat="42.9802" lon="0.54001">
        <ele>1489</ele>
        <time>2019-06-30T10:53:21.000Z</time>
      </trkpt>
      <trkpt lat="42.9802" lon="0.54001">
        <ele>1489</ele>
        <time>2019-06-30T10:53:23.000Z</time>
      </trkpt>
      <trkpt lat="42.9802" lon="0.54001">
        <ele>1489</ele>
        <time>2019-06-30T10:53:25.000Z</time>
      </trkpt>
      <trkpt lat="42.98019" lon="0.54001">
        <ele>1489</ele>
        <time>2019-06-30T10:53:27.000Z</time>
      </trkpt>
      <trkpt lat="42.98019" lon="0.54">
        <ele>1489</ele>
        <time>2019-06-30T10:53:29.000Z</time>
      </trkpt>
      <trkpt lat="42.98019" lon="0.54001">
        <ele>1489</ele>
        <time>2019-06-30T10:53:31.000Z</time>
      </trkpt>
      <trkpt lat="42.98019" lon="0.54">
        <ele>1489</ele>
        <time>2019-06-30T10:53:33.000Z</time>
      </trkpt>
      <trkpt lat="42.98019" lon="0.54">
        <ele>1489</ele>
        <time>2019-06-30T10:53:35.000Z</time>
      </trkpt>
      <trkpt lat="42.98019" lon="0.54">
        <ele>1489</ele>
        <time>2019-06-30T10:53:37.000Z</time>
      </trkpt>
      <trkpt lat="42.98019" lon="0.54">
        <ele>1489</ele>
        <time>2019-06-30T10:53:39.000Z</time>
      </trkpt>
      <trkpt lat="42.98019" lon="0.54001">
        <ele>1489</ele>
        <time>2019-06-30T10:53:41.000Z</time>
      </trkpt>
      <trkpt lat="42.98018" lon="0.54001">
        <ele>1489</ele>
        <time>2019-06-30T10:53:43.000Z</time>
      </trkpt>
      <trkpt lat="42.98018" lon="0.54001">
        <ele>1489</ele>
        <time>2019-06-30T10:53:45.000Z</time>
      </trkpt>
      <trkpt lat="42.98018" lon="0.54001">
        <ele>1489</ele>
        <time>2019-06-30T10:53:47.000Z</time>
      </trkpt>
      <trkpt lat="42.98018" lon="0.54001">
        <ele>1489</ele>
        <time>2019-06-30T10:53:49.000Z</time>
      </trkpt>
      <trkpt lat="42.98018" lon="0.54001">
        <ele>1489</ele>
        <time>2019-06-30T10:53:51.000Z</time>
      </trkpt>
      <trkpt lat="42.98018" lon="0.54001">
        <ele>1489</ele>
        <time>2019-06-30T10:53:53.000Z</time>
      </trkpt>
      <trkpt lat="42.98017" lon="0.54002">
        <ele>1489</ele>
        <time>2019-06-30T10:53:55.000Z</time>
      </trkpt>
      <trkpt lat="42.98017" lon="0.54002">
        <ele>1489</ele>
        <time>2019-06-30T10:53:57.000Z</time>
      </trkpt>
      <trkpt lat="42.98017" lon="0.54001">
        <ele>1489</ele>
        <time>2019-06-30T10:53:59.000Z</time>
      </trkpt>
      <trkpt lat="42.98017" lon="0.54001">
        <ele>1489</ele>
        <time>2019-06-30T10:54:01.000Z</time>
      </trkpt>
      <trkpt lat="42.98017" lon="0.54001">
        <ele>1489</ele>
        <time>2019-06-30T10:54:03.000Z</time>
      </trkpt>
      <trkpt lat="42.98017" lon="0.54">
        <ele>1489</ele>
        <time>2019-06-30T10:54:05.000Z</time>
      </trkpt>
      <trkpt lat="42.98016" lon="0.54">
        <ele>1489</ele>
        <time>2019-06-30T10:54:07.000Z</time>
      </trkpt>
      <trkpt lat="42.98016" lon="0.53999">
        <ele>1489</ele>
        <time>2019-06-30T10:54:09.000Z</time>
      </trkpt>
      <trkpt lat="42.98016" lon="0.53999">
        <ele>1489</ele>
        <time>2019-06-30T10:54:11.000Z</time>
      </trkpt>
      <trkpt lat="42.98016" lon="0.53998">
        <ele>1489</ele>
        <time>2019-06-30T10:54:13.000Z</time>
      </trkpt>
      <trkpt lat="42.98015" lon="0.53998">
        <ele>1489</ele>
        <time>2019-06-30T10:54:15.000Z</time>
      </trkpt>
      <trkpt lat="42.98015" lon="0.53998">
        <ele>1489</ele>
        <time>2019-06-30T10:54:17.000Z</time>
      </trkpt>
      <trkpt lat="42.98015" lon="0.53999">
        <ele>1489</ele>
        <time>2019-06-30T10:54:19.000Z</time>
      </trkpt>
      <trkpt lat="42.98015" lon="0.53999">
        <ele>1489</ele>
        <time>2019-06-30T10:54:21.000Z</time>
      </trkpt>
      <trkpt lat="42.98015" lon="0.53999">
        <ele>1489</ele>
        <time>2019-06-30T10:54:23.000Z</time>
      </trkpt>
      <trkpt lat="42.98015" lon="0.53999">
        <ele>1489</ele>
        <time>2019-06-30T10:54:25.000Z</time>
      </trkpt>
      <trkpt lat="42.98015" lon="0.54">
        <ele>1489</ele>
        <time>2019-06-30T10:54:27.000Z</time>
      </trkpt>
      <trkpt lat="42.98015" lon="0.54">
        <ele>1489</ele>
        <time>2019-06-30T10:54:29.000Z</time>
      </trkpt>
      <trkpt lat="42.98015" lon="0.54">
        <ele>1489</ele>
        <time>2019-06-30T10:54:31.000Z</time>
      </trkpt>
      <trkpt lat="42.98014" lon="0.54">
        <ele>1489</ele>
        <time>2019-06-30T10:54:33.000Z</time>
      </trkpt>
      <trkpt lat="42.98015" lon="0.54">
        <ele>1489</ele>
        <time>2019-06-30T10:54:35.000Z</time>
      </trkpt>
      <trkpt lat="42.98014" lon="0.53999">
        <ele>1489</ele>
        <time>2019-06-30T10:54:37.000Z</time>
      </trkpt>
      <trkpt lat="42.98015" lon="0.53999">
        <ele>1489</ele>
        <time>2019-06-30T10:54:39.000Z</time>
      </trkpt>
      <trkpt lat="42.98015" lon="0.53998">
        <ele>1489</ele>
        <time>2019-06-30T10:54:41.000Z</time>
      </trkpt>
      <trkpt lat="42.98015" lon="0.53999">
        <ele>1489</ele>
        <time>2019-06-30T10:54:43.000Z</time>
      </trkpt>
      <trkpt lat="42.98015" lon="0.53999">
        <ele>1489</ele>
        <time>2019-06-30T10:54:45.000Z</time>
      </trkpt>
      <trkpt lat="42.98016" lon="0.53999">
        <ele>1489</ele>
        <time>2019-06-30T10:54:47.000Z</time>
      </trkpt>
      <trkpt lat="42.98016" lon="0.53999">
        <ele>1489</ele>
        <time>2019-06-30T10:54:49.000Z</time>
      </trkpt>
      <trkpt lat="42.98016" lon="0.53999">
        <ele>1489</ele>
        <time>2019-06-30T10:54:51.000Z</time>
      </trkpt>
      <trkpt lat="42.98016" lon="0.53998">
        <ele>1489</ele>
        <time>2019-06-30T10:54:53.000Z</time>
      </trkpt>
      <trkpt lat="42.98016" lon="0.53999">
        <ele>1489</ele>
        <time>2019-06-30T10:54:55.000Z</time>
      </trkpt>
      <trkpt lat="42.98017" lon="0.53999">
        <ele>1489</ele>
        <time>2019-06-30T10:54:57.000Z</time>
      </trkpt>
      <trkpt lat="42.98017" lon="0.53999">
        <ele>1489</ele>
        <time>2019-06-30T10:54:59.000Z</time>
      </trkpt>
      <trkpt lat="42.98016" lon="0.53999">
        <ele>1489</ele>
        <time>2019-06-30T10:55:01.000Z</time>
      </trkpt>
      <trkpt lat="42.98016" lon="0.53999">
        <ele>1489</ele>
        <time>2019-06-30T10:55:03.000Z</time>
      </trkpt>
      <trkpt lat="42.98016" lon="0.53999">
        <ele>1489</ele>
        <time>2019-06-30T10:55:05.000Z</time>
      </trkpt>
      <trkpt lat="42.98016" lon="0.53998">
        <ele>1489</ele>
        <time>2019-06-30T10:55:07.000Z</time>
      </trkpt>
      <trkpt lat="42.98016" lon="0.53999">
        <ele>1489</ele>
        <time>2019-06-30T10:55:09.000Z</time>
      </trkpt>
      <trkpt lat="42.98017" lon="0.53999">
        <ele>1489</ele>
        <time>2019-06-30T10:55:11.000Z</time>
      </trkpt>
      <trkpt lat="42.98017" lon="0.53998">
        <ele>1489</ele>
        <time>2019-06-30T10:55:13.000Z</time>
      </trkpt>
      <trkpt lat="42.98017" lon="0.53998">
        <ele>1489</ele>
        <time>2019-06-30T10:55:15.000Z</time>
      </trkpt>
      <trkpt lat="42.98018" lon="0.53998">
        <ele>1489</ele>
        <time>2019-06-30T10:55:17.000Z</time>
      </trkpt>
      <trkpt lat="42.98018" lon="0.53998">
        <ele>1489</ele>
        <time>2019-06-30T10:55:19.000Z</time>
      </trkpt>
      <trkpt lat="42.98019" lon="0.53999">
        <ele>1489</ele>
        <time>2019-06-30T10:55:21.000Z</time>
      </trkpt>
      <trkpt lat="42.98019" lon="0.53999">
        <ele>1489</ele>
        <time>2019-06-30T10:55:23.000Z</time>
      </trkpt>
      <trkpt lat="42.9802" lon="0.54">
        <ele>1489</ele>
        <time>2019-06-30T10:55:25.000Z</time>
      </trkpt>
      <trkpt lat="42.9802" lon="0.54001">
        <ele>1489</ele>
        <time>2019-06-30T10:55:27.000Z</time>
      </trkpt>
      <trkpt lat="42.98021" lon="0.54002">
        <ele>1489</ele>
        <time>2019-06-30T10:55:29.000Z</time>
      </trkpt>
      <trkpt lat="42.98021" lon="0.54002">
        <ele>1489</ele>
        <time>2019-06-30T10:55:31.000Z</time>
      </trkpt>
      <trkpt lat="42.98022" lon="0.54003">
        <ele>1489</ele>
        <time>2019-06-30T10:55:33.000Z</time>
      </trkpt>
      <trkpt lat="42.98022" lon="0.54003">
        <ele>1489</ele>
        <time>2019-06-30T10:55:35.000Z</time>
      </trkpt>
      <trkpt lat="42.98022" lon="0.54002">
        <ele>1489</ele>
        <time>2019-06-30T10:55:37.000Z</time>
      </trkpt>
      <trkpt lat="42.98022" lon="0.54002">
        <ele>1489</ele>
        <time>2019-06-30T10:55:39.000Z</time>
      </trkpt>
      <trkpt lat="42.98022" lon="0.54001">
        <ele>1489</ele>
        <time>2019-06-30T10:55:41.000Z</time>
      </trkpt>
      <trkpt lat="42.98021" lon="0.54001">
        <ele>1489</ele>
        <time>2019-06-30T10:55:43.000Z</time>
      </trkpt>
      <trkpt lat="42.98021" lon="0.54">
        <ele>1489</ele>
        <time>2019-06-30T10:55:45.000Z</time>
      </trkpt>
      <trkpt lat="42.98021" lon="0.53999">
        <ele>1489</ele>
        <time>2019-06-30T10:55:47.000Z</time>
      </trkpt>
      <trkpt lat="42.98021" lon="0.53999">
        <ele>1489</ele>
        <time>2019-06-30T10:55:49.000Z</time>
      </trkpt>
      <trkpt lat="42.98021" lon="0.53998">
        <ele>1489</ele>
        <time>2019-06-30T10:55:51.000Z</time>
      </trkpt>
      <trkpt lat="42.98021" lon="0.53998">
        <ele>1489</ele>
        <time>2019-06-30T10:55:53.000Z</time>
      </trkpt>
      <trkpt lat="42.98021" lon="0.53998">
        <ele>1489</ele>
        <time>2019-06-30T10:55:55.000Z</time>
      </trkpt>
      <trkpt lat="42.98022" lon="0.53997">
        <ele>1489</ele>
        <time>2019-06-30T10:55:57.000Z</time>
      </trkpt>
      <trkpt lat="42.98022" lon="0.53998">
        <ele>1489</ele>
        <time>2019-06-30T10:55:59.000Z</time>
      </trkpt>
      <trkpt lat="42.98022" lon="0.53997">
        <ele>1489</ele>
        <time>2019-06-30T10:56:01.000Z</time>
      </trkpt>
      <trkpt lat="42.98022" lon="0.53997">
        <ele>1489</ele>
        <time>2019-06-30T10:56:03.000Z</time>
      </trkpt>
      <trkpt lat="42.98022" lon="0.53997">
        <ele>1489</ele>
        <time>2019-06-30T10:56:05.000Z</time>
      </trkpt>
      <trkpt lat="42.98022" lon="0.53997">
        <ele>1489</ele>
        <time>2019-06-30T10:56:07.000Z</time>
      </trkpt>
      <trkpt lat="42.98022" lon="0.53997">
        <ele>1489</ele>
        <time>2019-06-30T10:56:09.000Z</time>
      </trkpt>
      <trkpt lat="42.98022" lon="0.53998">
        <ele>1489</ele>
        <time>2019-06-30T10:56:11.000Z</time>
      </trkpt>
      <trkpt lat="42.98022" lon="0.53998">
        <ele>1489</ele>
        <time>2019-06-30T10:56:13.000Z</time>
      </trkpt>
      <trkpt lat="42.98022" lon="0.53997">
        <ele>1489</ele>
        <time>2019-06-30T10:56:15.000Z</time>
      </trkpt>
      <trkpt lat="42.98022" lon="0.53997">
        <ele>1489</ele>
        <time>2019-06-30T10:56:17.000Z</time>
      </trkpt>
      <trkpt lat="42.98022" lon="0.53997">
        <ele>1489</ele>
        <time>2019-06-30T10:56:19.000Z</time>
      </trkpt>
      <trkpt lat="42.98022" lon="0.53997">
        <ele>1489</ele>
        <time>2019-06-30T10:56:21.000Z</time>
      </trkpt>
      <trkpt lat="42.98022" lon="0.53997">
        <ele>1489</ele>
        <time>2019-06-30T10:56:23.000Z</time>
      </trkpt>
      <trkpt lat="42.98022" lon="0.53997">
        <ele>1489</ele>
        <time>2019-06-30T10:56:25.000Z</time>
      </trkpt>
      <trkpt lat="42.98022" lon="0.53997">
        <ele>1489</ele>
        <time>2019-06-30T10:56:27.000Z</time>
      </trkpt>
      <trkpt lat="42.98022" lon="0.53997">
        <ele>1489</ele>
        <time>2019-06-30T10:56:29.000Z</time>
      </trkpt>
      <trkpt lat="42.98022" lon="0.53997">
        <ele>1489</ele>
        <time>2019-06-30T10:56:31.000Z</time>
      </trkpt>
      <trkpt lat="42.98022" lon="0.53997">
        <ele>1489</ele>
        <time>2019-06-30T10:56:33.000Z</time>
      </trkpt>
      <trkpt lat="42.98022" lon="0.53997">
        <ele>1489</ele>
        <time>2019-06-30T10:56:35.000Z</time>
      </trkpt>
      <trkpt lat="42.98022" lon="0.53997">
        <ele>1489</ele>
        <time>2019-06-30T10:56:37.000Z</time>
      </trkpt>
      <trkpt lat="42.98022" lon="0.53996">
        <ele>1489</ele>
        <time>2019-06-30T10:56:39.000Z</time>
      </trkpt>
      <trkpt lat="42.98022" lon="0.53997">
        <ele>1489</ele>
        <time>2019-06-30T10:56:41.000Z</time>
      </trkpt>
      <trkpt lat="42.98023" lon="0.53997">
        <ele>1489</ele>
        <time>2019-06-30T10:56:43.000Z</time>
      </trkpt>
      <trkpt lat="42.98024" lon="0.53998">
        <ele>1489</ele>
        <time>2019-06-30T10:56:45.000Z</time>
      </trkpt>
      <trkpt lat="42.98024" lon="0.53998">
        <ele>1489</ele>
        <time>2019-06-30T10:56:47.000Z</time>
      </trkpt>
      <trkpt lat="42.98024" lon="0.53998">
        <ele>1489</ele>
        <time>2019-06-30T10:56:49.000Z</time>
      </trkpt>
      <trkpt lat="42.98025" lon="0.53998">
        <ele>1489</ele>
        <time>2019-06-30T10:56:51.000Z</time>
      </trkpt>
      <trkpt lat="42.98026" lon="0.53999">
        <ele>1489</ele>
        <time>2019-06-30T10:56:53.000Z</time>
      </trkpt>
      <trkpt lat="42.98027" lon="0.53999">
        <ele>1489</ele>
        <time>2019-06-30T10:56:55.000Z</time>
      </trkpt>
      <trkpt lat="42.98027" lon="0.53998">
        <ele>1489</ele>
        <time>2019-06-30T10:56:57.000Z</time>
      </trkpt>
      <trkpt lat="42.98028" lon="0.53998">
        <ele>1489</ele>
        <time>2019-06-30T10:56:59.000Z</time>
      </trkpt>
      <trkpt lat="42.9803" lon="0.53999">
        <ele>1489</ele>
        <time>2019-06-30T10:57:01.000Z</time>
      </trkpt>
      <trkpt lat="42.98031" lon="0.53999">
        <ele>1489</ele>
        <time>2019-06-30T10:57:03.000Z</time>
      </trkpt>
      <trkpt lat="42.98033" lon="0.54">
        <ele>1489</ele>
        <time>2019-06-30T10:57:05.000Z</time>
      </trkpt>
      <trkpt lat="42.98034" lon="0.54">
        <ele>1489</ele>
        <time>2019-06-30T10:57:07.000Z</time>
      </trkpt>
      <trkpt lat="42.98035" lon="0.54">
        <ele>1490</ele>
        <time>2019-06-30T10:57:09.000Z</time>
      </trkpt>
      <trkpt lat="42.98037" lon="0.54">
        <ele>1490</ele>
        <time>2019-06-30T10:57:11.000Z</time>
      </trkpt>
      <trkpt lat="42.98038" lon="0.54">
        <ele>1490</ele>
        <time>2019-06-30T10:57:13.000Z</time>
      </trkpt>
      <trkpt lat="42.9804" lon="0.54">
        <ele>1490</ele>
        <time>2019-06-30T10:57:15.000Z</time>
      </trkpt>
      <trkpt lat="42.98041" lon="0.54">
        <ele>1490</ele>
        <time>2019-06-30T10:57:17.000Z</time>
      </trkpt>
      <trkpt lat="42.98042" lon="0.54">
        <ele>1490</ele>
        <time>2019-06-30T10:57:19.000Z</time>
      </trkpt>
      <trkpt lat="42.98044" lon="0.54001">
        <ele>1490</ele>
        <time>2019-06-30T10:57:21.000Z</time>
      </trkpt>
      <trkpt lat="42.98046" lon="0.54002">
        <ele>1491</ele>
        <time>2019-06-30T10:57:23.000Z</time>
      </trkpt>
      <trkpt lat="42.98047" lon="0.54003">
        <ele>1491</ele>
        <time>2019-06-30T10:57:25.000Z</time>
      </trkpt>
      <trkpt lat="42.98049" lon="0.54003">
        <ele>1491</ele>
        <time>2019-06-30T10:57:27.000Z</time>
      </trkpt>
      <trkpt lat="42.9805" lon="0.54005">
        <ele>1491</ele>
        <time>2019-06-30T10:57:29.000Z</time>
      </trkpt>
      <trkpt lat="42.98052" lon="0.54005">
        <ele>1492</ele>
        <time>2019-06-30T10:57:31.000Z</time>
      </trkpt>
      <trkpt lat="42.98053" lon="0.54006">
        <ele>1492</ele>
        <time>2019-06-30T10:57:33.000Z</time>
      </trkpt>
      <trkpt lat="42.98055" lon="0.54006">
        <ele>1492</ele>
        <time>2019-06-30T10:57:35.000Z</time>
      </trkpt>
      <trkpt lat="42.98057" lon="0.54005">
        <ele>1493</ele>
        <time>2019-06-30T10:57:37.000Z</time>
      </trkpt>
      <trkpt lat="42.98059" lon="0.54004">
        <ele>1494</ele>
        <time>2019-06-30T10:57:39.000Z</time>
      </trkpt>
      <trkpt lat="42.9806" lon="0.54003">
        <ele>1494</ele>
        <time>2019-06-30T10:57:41.000Z</time>
      </trkpt>
      <trkpt lat="42.98061" lon="0.54002">
        <ele>1494</ele>
        <time>2019-06-30T10:57:43.000Z</time>
      </trkpt>
      <trkpt lat="42.98062" lon="0.54001">
        <ele>1495</ele>
        <time>2019-06-30T10:57:45.000Z</time>
      </trkpt>
      <trkpt lat="42.98062" lon="0.54001">
        <ele>1495</ele>
        <time>2019-06-30T10:57:47.000Z</time>
      </trkpt>
      <trkpt lat="42.98062" lon="0.54">
        <ele>1495</ele>
        <time>2019-06-30T10:57:49.000Z</time>
      </trkpt>
      <trkpt lat="42.98062" lon="0.54">
        <ele>1495</ele>
        <time>2019-06-30T10:57:51.000Z</time>
      </trkpt>
      <trkpt lat="42.98062" lon="0.54">
        <ele>1495</ele>
        <time>2019-06-30T10:57:53.000Z</time>
      </trkpt>
      <trkpt lat="42.98062" lon="0.54">
        <ele>1495</ele>
        <time>2019-06-30T10:57:55.000Z</time>
      </trkpt>
      <trkpt lat="42.98063" lon="0.54">
        <ele>1495</ele>
        <time>2019-06-30T10:57:57.000Z</time>
      </trkpt>
      <trkpt lat="42.98063" lon="0.54001">
        <ele>1495</ele>
        <time>2019-06-30T10:57:59.000Z</time>
      </trkpt>
      <trkpt lat="42.98063" lon="0.54001">
        <ele>1495</ele>
        <time>2019-06-30T10:58:01.000Z</time>
      </trkpt>
      <trkpt lat="42.98063" lon="0.54002">
        <ele>1495</ele>
        <time>2019-06-30T10:58:03.000Z</time>
      </trkpt>
      <trkpt lat="42.98063" lon="0.54001">
        <ele>1495</ele>
        <time>2019-06-30T10:58:05.000Z</time>
      </trkpt>
      <trkpt lat="42.98063" lon="0.54001">
        <ele>1495</ele>
        <time>2019-06-30T10:58:07.000Z</time>
      </trkpt>
      <trkpt lat="42.98063" lon="0.54001">
        <ele>1495</ele>
        <time>2019-06-30T10:58:09.000Z</time>
      </trkpt>
      <trkpt lat="42.98063" lon="0.54001">
        <ele>1495</ele>
        <time>2019-06-30T10:58:11.000Z</time>
      </trkpt>
      <trkpt lat="42.98064" lon="0.54">
        <ele>1495</ele>
        <time>2019-06-30T10:58:13.000Z</time>
      </trkpt>
      <trkpt lat="42.98064" lon="0.54001">
        <ele>1496</ele>
        <time>2019-06-30T10:58:15.000Z</time>
      </trkpt>
      <trkpt lat="42.98065" lon="0.54002">
        <ele>1496</ele>
        <time>2019-06-30T10:58:17.000Z</time>
      </trkpt>
      <trkpt lat="42.98066" lon="0.54003">
        <ele>1496</ele>
        <time>2019-06-30T10:58:19.000Z</time>
      </trkpt>
      <trkpt lat="42.98067" lon="0.54005">
        <ele>1496</ele>
        <time>2019-06-30T10:58:21.000Z</time>
      </trkpt>
      <trkpt lat="42.98069" lon="0.54006">
        <ele>1496</ele>
        <time>2019-06-30T10:58:23.000Z</time>
      </trkpt>
      <trkpt lat="42.9807" lon="0.54007">
        <ele>1496</ele>
        <time>2019-06-30T10:58:25.000Z</time>
      </trkpt>
      <trkpt lat="42.98071" lon="0.54008">
        <ele>1496</ele>
        <time>2019-06-30T10:58:27.000Z</time>
      </trkpt>
      <trkpt lat="42.98072" lon="0.5401">
        <ele>1496</ele>
        <time>2019-06-30T10:58:29.000Z</time>
      </trkpt>
      <trkpt lat="42.98073" lon="0.54012">
        <ele>1496</ele>
        <time>2019-06-30T10:58:31.000Z</time>
      </trkpt>
      <trkpt lat="42.98072" lon="0.54014">
        <ele>1495</ele>
        <time>2019-06-30T10:58:33.000Z</time>
      </trkpt>
      <trkpt lat="42.98071" lon="0.54015">
        <ele>1495</ele>
        <time>2019-06-30T10:58:35.000Z</time>
      </trkpt>
      <trkpt lat="42.98071" lon="0.54017">
        <ele>1495</ele>
        <time>2019-06-30T10:58:37.000Z</time>
      </trkpt>
      <trkpt lat="42.9807" lon="0.54018">
        <ele>1494</ele>
        <time>2019-06-30T10:58:39.000Z</time>
      </trkpt>
      <trkpt lat="42.98069" lon="0.54019">
        <ele>1494</ele>
        <time>2019-06-30T10:58:41.000Z</time>
      </trkpt>
      <trkpt lat="42.98069" lon="0.54021">
        <ele>1493</ele>
        <time>2019-06-30T10:58:43.000Z</time>
      </trkpt>
      <trkpt lat="42.98067" lon="0.54022">
        <ele>1493</ele>
        <time>2019-06-30T10:58:45.000Z</time>
      </trkpt>
      <trkpt lat="42.98067" lon="0.54024">
        <ele>1492</ele>
        <time>2019-06-30T10:58:47.000Z</time>
      </trkpt>
      <trkpt lat="42.98066" lon="0.54026">
        <ele>1492</ele>
        <time>2019-06-30T10:58:49.000Z</time>
      </trkpt>
      <trkpt lat="42.98065" lon="0.54027">
        <ele>1492</ele>
        <time>2019-06-30T10:58:51.000Z</time>
      </trkpt>
      <trkpt lat="42.98064" lon="0.54028">
        <ele>1492</ele>
        <time>2019-06-30T10:58:53.000Z</time>
      </trkpt>
      <trkpt lat="42.98063" lon="0.54029">
        <ele>1492</ele>
        <time>2019-06-30T10:58:55.000Z</time>
      </trkpt>
      <trkpt lat="42.98063" lon="0.54031">
        <ele>1492</ele>
        <time>2019-06-30T10:58:57.000Z</time>
      </trkpt>
      <trkpt lat="42.98062" lon="0.54033">
        <ele>1492</ele>
        <time>2019-06-30T10:58:59.000Z</time>
      </trkpt>
      <trkpt lat="42.98061" lon="0.54034">
        <ele>1492</ele>
        <time>2019-06-30T10:59:01.000Z</time>
      </trkpt>
      <trkpt lat="42.98061" lon="0.54035">
        <ele>1492</ele>
        <time>2019-06-30T10:59:03.000Z</time>
      </trkpt>
      <trkpt lat="42.98062" lon="0.54036">
        <ele>1492</ele>
        <time>2019-06-30T10:59:05.000Z</time>
      </trkpt>
      <trkpt lat="42.98062" lon="0.54037">
        <ele>1492</ele>
        <time>2019-06-30T10:59:07.000Z</time>
      </trkpt>
      <trkpt lat="42.98063" lon="0.54039">
        <ele>1492</ele>
        <time>2019-06-30T10:59:09.000Z</time>
      </trkpt>
      <trkpt lat="42.98063" lon="0.5404">
        <ele>1492</ele>
        <time>2019-06-30T10:59:11.000Z</time>
      </trkpt>
      <trkpt lat="42.98063" lon="0.54041">
        <ele>1493</ele>
        <time>2019-06-30T10:59:13.000Z</time>
      </trkpt>
      <trkpt lat="42.98063" lon="0.54043">
        <ele>1493</ele>
        <time>2019-06-30T10:59:15.000Z</time>
      </trkpt>
      <trkpt lat="42.98062" lon="0.54045">
        <ele>1493</ele>
        <time>2019-06-30T10:59:17.000Z</time>
      </trkpt>
      <trkpt lat="42.98062" lon="0.54046">
        <ele>1493</ele>
        <time>2019-06-30T10:59:19.000Z</time>
      </trkpt>
      <trkpt lat="42.9806" lon="0.54048">
        <ele>1493</ele>
        <time>2019-06-30T10:59:21.000Z</time>
      </trkpt>
      <trkpt lat="42.98059" lon="0.54051">
        <ele>1493</ele>
        <time>2019-06-30T10:59:23.000Z</time>
      </trkpt>
      <trkpt lat="42.98059" lon="0.54053">
        <ele>1492</ele>
        <time>2019-06-30T10:59:25.000Z</time>
      </trkpt>
      <trkpt lat="42.98058" lon="0.54055">
        <ele>1491</ele>
        <time>2019-06-30T10:59:27.000Z</time>
      </trkpt>
      <trkpt lat="42.98056" lon="0.54056">
        <ele>1491</ele>
        <time>2019-06-30T10:59:29.000Z</time>
      </trkpt>
      <trkpt lat="42.98055" lon="0.54057">
        <ele>1490</ele>
        <time>2019-06-30T10:59:31.000Z</time>
      </trkpt>
      <trkpt lat="42.98054" lon="0.54059">
        <ele>1490</ele>
        <time>2019-06-30T10:59:33.000Z</time>
      </trkpt>
      <trkpt lat="42.98053" lon="0.54061">
        <ele>1489</ele>
        <time>2019-06-30T10:59:35.000Z</time>
      </trkpt>
      <trkpt lat="42.98052" lon="0.54062">
        <ele>1489</ele>
        <time>2019-06-30T10:59:37.000Z</time>
      </trkpt>
      <trkpt lat="42.98051" lon="0.54064">
        <ele>1488</ele>
        <time>2019-06-30T10:59:39.000Z</time>
      </trkpt>
      <trkpt lat="42.98051" lon="0.54067">
        <ele>1487</ele>
        <time>2019-06-30T10:59:41.000Z</time>
      </trkpt>
      <trkpt lat="42.9805" lon="0.54069">
        <ele>1486</ele>
        <time>2019-06-30T10:59:43.000Z</time>
      </trkpt>
      <trkpt lat="42.98048" lon="0.5407">
        <ele>1486</ele>
        <time>2019-06-30T10:59:45.000Z</time>
      </trkpt>
      <trkpt lat="42.98047" lon="0.54071">
        <ele>1486</ele>
        <time>2019-06-30T10:59:47.000Z</time>
      </trkpt>
      <trkpt lat="42.98047" lon="0.5407">
        <ele>1486</ele>
        <time>2019-06-30T10:59:49.000Z</time>
      </trkpt>
      <trkpt lat="42.98046" lon="0.5407">
        <ele>1486</ele>
        <time>2019-06-30T10:59:51.000Z</time>
      </trkpt>
      <trkpt lat="42.98045" lon="0.5407">
        <ele>1486</ele>
        <time>2019-06-30T10:59:53.000Z</time>
      </trkpt>
      <trkpt lat="42.98043" lon="0.5407">
        <ele>1486</ele>
        <time>2019-06-30T10:59:55.000Z</time>
      </trkpt>
      <trkpt lat="42.98042" lon="0.5407">
        <ele>1485</ele>
        <time>2019-06-30T10:59:57.000Z</time>
      </trkpt>
      <trkpt lat="42.98042" lon="0.54071">
        <ele>1485</ele>
        <time>2019-06-30T10:59:59.000Z</time>
      </trkpt>
      <trkpt lat="42.98042" lon="0.5407">
        <ele>1485</ele>
        <time>2019-06-30T11:00:01.000Z</time>
      </trkpt>
      <trkpt lat="42.98042" lon="0.5407">
        <ele>1485</ele>
        <time>2019-06-30T11:00:03.000Z</time>
      </trkpt>
      <trkpt lat="42.98041" lon="0.5407">
        <ele>1485</ele>
        <time>2019-06-30T11:00:05.000Z</time>
      </trkpt>
      <trkpt lat="42.98041" lon="0.5407">
        <ele>1485</ele>
        <time>2019-06-30T11:00:07.000Z</time>
      </trkpt>
      <trkpt lat="42.98041" lon="0.5407">
        <ele>1485</ele>
        <time>2019-06-30T11:00:09.000Z</time>
      </trkpt>
      <trkpt lat="42.98041" lon="0.5407">
        <ele>1485</ele>
        <time>2019-06-30T11:00:11.000Z</time>
      </trkpt>
      <trkpt lat="42.9804" lon="0.54071">
        <ele>1485</ele>
        <time>2019-06-30T11:00:13.000Z</time>
      </trkpt>
      <trkpt lat="42.9804" lon="0.54071">
        <ele>1485</ele>
        <time>2019-06-30T11:00:15.000Z</time>
      </trkpt>
      <trkpt lat="42.9804" lon="0.54071">
        <ele>1485</ele>
        <time>2019-06-30T11:00:17.000Z</time>
      </trkpt>
      <trkpt lat="42.98041" lon="0.54072">
        <ele>1485</ele>
        <time>2019-06-30T11:00:19.000Z</time>
      </trkpt>
      <trkpt lat="42.98041" lon="0.54072">
        <ele>1485</ele>
        <time>2019-06-30T11:00:21.000Z</time>
      </trkpt>
      <trkpt lat="42.9804" lon="0.54073">
        <ele>1484</ele>
        <time>2019-06-30T11:00:23.000Z</time>
      </trkpt>
      <trkpt lat="42.9804" lon="0.54073">
        <ele>1484</ele>
        <time>2019-06-30T11:00:25.000Z</time>
      </trkpt>
      <trkpt lat="42.9804" lon="0.54073">
        <ele>1484</ele>
        <time>2019-06-30T11:00:27.000Z</time>
      </trkpt>
      <trkpt lat="42.9804" lon="0.54074">
        <ele>1484</ele>
        <time>2019-06-30T11:00:29.000Z</time>
      </trkpt>
      <trkpt lat="42.9804" lon="0.54074">
        <ele>1484</ele>
        <time>2019-06-30T11:00:31.000Z</time>
      </trkpt>
      <trkpt lat="42.98039" lon="0.54075">
        <ele>1484</ele>
        <time>2019-06-30T11:00:33.000Z</time>
      </trkpt>
      <trkpt lat="42.98039" lon="0.54076">
        <ele>1483</ele>
        <time>2019-06-30T11:00:35.000Z</time>
      </trkpt>
      <trkpt lat="42.98038" lon="0.54077">
        <ele>1483</ele>
        <time>2019-06-30T11:00:37.000Z</time>
      </trkpt>
      <trkpt lat="42.98039" lon="0.54077">
        <ele>1483</ele>
        <time>2019-06-30T11:00:39.000Z</time>
      </trkpt>
      <trkpt lat="42.98039" lon="0.54076">
        <ele>1483</ele>
        <time>2019-06-30T11:00:41.000Z</time>
      </trkpt>
      <trkpt lat="42.98039" lon="0.54076">
        <ele>1483</ele>
        <time>2019-06-30T11:00:43.000Z</time>
      </trkpt>
      <trkpt lat="42.98039" lon="0.54076">
        <ele>1483</ele>
        <time>2019-06-30T11:00:45.000Z</time>
      </trkpt>
      <trkpt lat="42.98039" lon="0.54076">
        <ele>1483</ele>
        <time>2019-06-30T11:00:47.000Z</time>
      </trkpt>
      <trkpt lat="42.98039" lon="0.54077">
        <ele>1483</ele>
        <time>2019-06-30T11:00:49.000Z</time>
      </trkpt>
      <trkpt lat="42.98039" lon="0.54077">
        <ele>1483</ele>
        <time>2019-06-30T11:00:51.000Z</time>
      </trkpt>
      <trkpt lat="42.98039" lon="0.54078">
        <ele>1483</ele>
        <time>2019-06-30T11:00:53.000Z</time>
      </trkpt>
      <trkpt lat="42.98038" lon="0.54079">
        <ele>1482</ele>
        <time>2019-06-30T11:00:55.000Z</time>
      </trkpt>
      <trkpt lat="42.98038" lon="0.54079">
        <ele>1482</ele>
        <time>2019-06-30T11:00:57.000Z</time>
      </trkpt>
      <trkpt lat="42.98037" lon="0.5408">
        <ele>1482</ele>
        <time>2019-06-30T11:00:59.000Z</time>
      </trkpt>
      <trkpt lat="42.98036" lon="0.54081">
        <ele>1482</ele>
        <time>2019-06-30T11:01:01.000Z</time>
      </trkpt>
      <trkpt lat="42.98035" lon="0.54082">
        <ele>1482</ele>
        <time>2019-06-30T11:01:03.000Z</time>
      </trkpt>
      <trkpt lat="42.98034" lon="0.54083">
        <ele>1482</ele>
        <time>2019-06-30T11:01:05.000Z</time>
      </trkpt>
      <trkpt lat="42.98034" lon="0.54084">
        <ele>1482</ele>
        <time>2019-06-30T11:01:07.000Z</time>
      </trkpt>
      <trkpt lat="42.98033" lon="0.54085">
        <ele>1482</ele>
        <time>2019-06-30T11:01:09.000Z</time>
      </trkpt>
      <trkpt lat="42.98033" lon="0.54085">
        <ele>1482</ele>
        <time>2019-06-30T11:01:11.000Z</time>
      </trkpt>
      <trkpt lat="42.98032" lon="0.54086">
        <ele>1482</ele>
        <time>2019-06-30T11:01:13.000Z</time>
      </trkpt>
      <trkpt lat="42.98032" lon="0.54087">
        <ele>1482</ele>
        <time>2019-06-30T11:01:15.000Z</time>
      </trkpt>
      <trkpt lat="42.98031" lon="0.54088">
        <ele>1482</ele>
        <time>2019-06-30T11:01:17.000Z</time>
      </trkpt>
      <trkpt lat="42.9803" lon="0.54089">
        <ele>1482</ele>
        <time>2019-06-30T11:01:19.000Z</time>
      </trkpt>
      <trkpt lat="42.9803" lon="0.5409">
        <ele>1482</ele>
        <time>2019-06-30T11:01:21.000Z</time>
      </trkpt>
      <trkpt lat="42.98028" lon="0.54093">
        <ele>1482</ele>
        <time>2019-06-30T11:01:23.000Z</time>
      </trkpt>
      <trkpt lat="42.98027" lon="0.54095">
        <ele>1481</ele>
        <time>2019-06-30T11:01:25.000Z</time>
      </trkpt>
      <trkpt lat="42.98026" lon="0.54098">
        <ele>1481</ele>
        <time>2019-06-30T11:01:27.000Z</time>
      </trkpt>
      <trkpt lat="42.98025" lon="0.541">
        <ele>1481</ele>
        <time>2019-06-30T11:01:29.000Z</time>
      </trkpt>
      <trkpt lat="42.98025" lon="0.54102">
        <ele>1481</ele>
        <time>2019-06-30T11:01:31.000Z</time>
      </trkpt>
      <trkpt lat="42.98025" lon="0.54103">
        <ele>1481</ele>
        <time>2019-06-30T11:01:33.000Z</time>
      </trkpt>
      <trkpt lat="42.98024" lon="0.54104">
        <ele>1481</ele>
        <time>2019-06-30T11:01:35.000Z</time>
      </trkpt>
      <trkpt lat="42.98025" lon="0.54106">
        <ele>1480</ele>
        <time>2019-06-30T11:01:37.000Z</time>
      </trkpt>
      <trkpt lat="42.98024" lon="0.54109">
        <ele>1480</ele>
        <time>2019-06-30T11:01:39.000Z</time>
      </trkpt>
      <trkpt lat="42.98023" lon="0.5411">
        <ele>1480</ele>
        <time>2019-06-30T11:01:41.000Z</time>
      </trkpt>
      <trkpt lat="42.98024" lon="0.54112">
        <ele>1479</ele>
        <time>2019-06-30T11:01:43.000Z</time>
      </trkpt>
      <trkpt lat="42.98024" lon="0.54114">
        <ele>1479</ele>
        <time>2019-06-30T11:01:45.000Z</time>
      </trkpt>
      <trkpt lat="42.98023" lon="0.54115">
        <ele>1479</ele>
        <time>2019-06-30T11:01:47.000Z</time>
      </trkpt>
      <trkpt lat="42.98023" lon="0.54117">
        <ele>1479</ele>
        <time>2019-06-30T11:01:49.000Z</time>
      </trkpt>
      <trkpt lat="42.98022" lon="0.54119">
        <ele>1479</ele>
        <time>2019-06-30T11:01:51.000Z</time>
      </trkpt>
      <trkpt lat="42.98022" lon="0.54121">
        <ele>1479</ele>
        <time>2019-06-30T11:01:53.000Z</time>
      </trkpt>
      <trkpt lat="42.98022" lon="0.54122">
        <ele>1478</ele>
        <time>2019-06-30T11:01:55.000Z</time>
      </trkpt>
      <trkpt lat="42.98021" lon="0.54124">
        <ele>1478</ele>
        <time>2019-06-30T11:01:57.000Z</time>
      </trkpt>
      <trkpt lat="42.9802" lon="0.54125">
        <ele>1478</ele>
        <time>2019-06-30T11:01:59.000Z</time>
      </trkpt>
      <trkpt lat="42.9802" lon="0.54126">
        <ele>1478</ele>
        <time>2019-06-30T11:02:01.000Z</time>
      </trkpt>
      <trkpt lat="42.98019" lon="0.54127">
        <ele>1478</ele>
        <time>2019-06-30T11:02:03.000Z</time>
      </trkpt>
      <trkpt lat="42.98018" lon="0.54128">
        <ele>1478</ele>
        <time>2019-06-30T11:02:05.000Z</time>
      </trkpt>
      <trkpt lat="42.98017" lon="0.5413">
        <ele>1478</ele>
        <time>2019-06-30T11:02:07.000Z</time>
      </trkpt>
      <trkpt lat="42.98017" lon="0.54132">
        <ele>1478</ele>
        <time>2019-06-30T11:02:09.000Z</time>
      </trkpt>
      <trkpt lat="42.98017" lon="0.54133">
        <ele>1478</ele>
        <time>2019-06-30T11:02:11.000Z</time>
      </trkpt>
      <trkpt lat="42.98016" lon="0.54134">
        <ele>1478</ele>
        <time>2019-06-30T11:02:13.000Z</time>
      </trkpt>
      <trkpt lat="42.98017" lon="0.54135">
        <ele>1477</ele>
        <time>2019-06-30T11:02:15.000Z</time>
      </trkpt>
      <trkpt lat="42.98018" lon="0.54136">
        <ele>1477</ele>
        <time>2019-06-30T11:02:17.000Z</time>
      </trkpt>
      <trkpt lat="42.98019" lon="0.54136">
        <ele>1476</ele>
        <time>2019-06-30T11:02:19.000Z</time>
      </trkpt>
      <trkpt lat="42.98019" lon="0.54139">
        <ele>1475</ele>
        <time>2019-06-30T11:02:21.000Z</time>
      </trkpt>
      <trkpt lat="42.98019" lon="0.54141">
        <ele>1474</ele>
        <time>2019-06-30T11:02:23.000Z</time>
      </trkpt>
      <trkpt lat="42.9802" lon="0.54142">
        <ele>1473</ele>
        <time>2019-06-30T11:02:25.000Z</time>
      </trkpt>
      <trkpt lat="42.9802" lon="0.54143">
        <ele>1473</ele>
        <time>2019-06-30T11:02:27.000Z</time>
      </trkpt>
      <trkpt lat="42.9802" lon="0.54145">
        <ele>1472</ele>
        <time>2019-06-30T11:02:29.000Z</time>
      </trkpt>
      <trkpt lat="42.98021" lon="0.54145">
        <ele>1472</ele>
        <time>2019-06-30T11:02:31.000Z</time>
      </trkpt>
      <trkpt lat="42.98021" lon="0.54146">
        <ele>1471</ele>
        <time>2019-06-30T11:02:33.000Z</time>
      </trkpt>
      <trkpt lat="42.98021" lon="0.54148">
        <ele>1470</ele>
        <time>2019-06-30T11:02:35.000Z</time>
      </trkpt>
      <trkpt lat="42.98021" lon="0.5415">
        <ele>1470</ele>
        <time>2019-06-30T11:02:37.000Z</time>
      </trkpt>
      <trkpt lat="42.9802" lon="0.54152">
        <ele>1470</ele>
        <time>2019-06-30T11:02:39.000Z</time>
      </trkpt>
      <trkpt lat="42.98021" lon="0.54152">
        <ele>1470</ele>
        <time>2019-06-30T11:02:41.000Z</time>
      </trkpt>
      <trkpt lat="42.98021" lon="0.54153">
        <ele>1469</ele>
        <time>2019-06-30T11:02:43.000Z</time>
      </trkpt>
      <trkpt lat="42.98021" lon="0.54154">
        <ele>1469</ele>
        <time>2019-06-30T11:02:45.000Z</time>
      </trkpt>
      <trkpt lat="42.9802" lon="0.54157">
        <ele>1469</ele>
        <time>2019-06-30T11:02:47.000Z</time>
      </trkpt>
      <trkpt lat="42.9802" lon="0.54158">
        <ele>1469</ele>
        <time>2019-06-30T11:02:49.000Z</time>
      </trkpt>
      <trkpt lat="42.9802" lon="0.54159">
        <ele>1468</ele>
        <time>2019-06-30T11:02:51.000Z</time>
      </trkpt>
      <trkpt lat="42.98019" lon="0.5416">
        <ele>1468</ele>
        <time>2019-06-30T11:02:53.000Z</time>
      </trkpt>
      <trkpt lat="42.98019" lon="0.54161">
        <ele>1468</ele>
        <time>2019-06-30T11:02:55.000Z</time>
      </trkpt>
      <trkpt lat="42.98019" lon="0.54161">
        <ele>1468</ele>
        <time>2019-06-30T11:02:57.000Z</time>
      </trkpt>
      <trkpt lat="42.98019" lon="0.54161">
        <ele>1468</ele>
        <time>2019-06-30T11:02:59.000Z</time>
      </trkpt>
      <trkpt lat="42.98018" lon="0.54162">
        <ele>1468</ele>
        <time>2019-06-30T11:03:01.000Z</time>
      </trkpt>
      <trkpt lat="42.98018" lon="0.54163">
        <ele>1468</ele>
        <time>2019-06-30T11:03:03.000Z</time>
      </trkpt>
      <trkpt lat="42.98018" lon="0.54165">
        <ele>1468</ele>
        <time>2019-06-30T11:03:05.000Z</time>
      </trkpt>
      <trkpt lat="42.98018" lon="0.54167">
        <ele>1468</ele>
        <time>2019-06-30T11:03:07.000Z</time>
      </trkpt>
      <trkpt lat="42.98017" lon="0.54169">
        <ele>1467</ele>
        <time>2019-06-30T11:03:09.000Z</time>
      </trkpt>
      <trkpt lat="42.98016" lon="0.5417">
        <ele>1467</ele>
        <time>2019-06-30T11:03:11.000Z</time>
      </trkpt>
      <trkpt lat="42.98016" lon="0.54172">
        <ele>1467</ele>
        <time>2019-06-30T11:03:13.000Z</time>
      </trkpt>
      <trkpt lat="42.98016" lon="0.54174">
        <ele>1466</ele>
        <time>2019-06-30T11:03:15.000Z</time>
      </trkpt>
      <trkpt lat="42.98016" lon="0.54176">
        <ele>1466</ele>
        <time>2019-06-30T11:03:17.000Z</time>
      </trkpt>
      <trkpt lat="42.98016" lon="0.54177">
        <ele>1466</ele>
        <time>2019-06-30T11:03:19.000Z</time>
      </trkpt>
      <trkpt lat="42.98016" lon="0.54179">
        <ele>1466</ele>
        <time>2019-06-30T11:03:21.000Z</time>
      </trkpt>
      <trkpt lat="42.98016" lon="0.5418">
        <ele>1465</ele>
        <time>2019-06-30T11:03:23.000Z</time>
      </trkpt>
      <trkpt lat="42.98015" lon="0.5418">
        <ele>1465</ele>
        <time>2019-06-30T11:03:25.000Z</time>
      </trkpt>
      <trkpt lat="42.98014" lon="0.54181">
        <ele>1466</ele>
        <time>2019-06-30T11:03:27.000Z</time>
      </trkpt>
      <trkpt lat="42.98014" lon="0.54183">
        <ele>1466</ele>
        <time>2019-06-30T11:03:29.000Z</time>
      </trkpt>
      <trkpt lat="42.98013" lon="0.54185">
        <ele>1465</ele>
        <time>2019-06-30T11:03:31.000Z</time>
      </trkpt>
      <trkpt lat="42.98013" lon="0.54186">
        <ele>1465</ele>
        <time>2019-06-30T11:03:33.000Z</time>
      </trkpt>
      <trkpt lat="42.98013" lon="0.54186">
        <ele>1465</ele>
        <time>2019-06-30T11:03:35.000Z</time>
      </trkpt>
      <trkpt lat="42.98013" lon="0.54187">
        <ele>1465</ele>
        <time>2019-06-30T11:03:37.000Z</time>
      </trkpt>
      <trkpt lat="42.98013" lon="0.54187">
        <ele>1465</ele>
        <time>2019-06-30T11:03:39.000Z</time>
      </trkpt>
      <trkpt lat="42.98013" lon="0.54188">
        <ele>1465</ele>
        <time>2019-06-30T11:03:41.000Z</time>
      </trkpt>
      <trkpt lat="42.98013" lon="0.54189">
        <ele>1465</ele>
        <time>2019-06-30T11:03:43.000Z</time>
      </trkpt>
      <trkpt lat="42.98012" lon="0.54188">
        <ele>1465</ele>
        <time>2019-06-30T11:03:45.000Z</time>
      </trkpt>
      <trkpt lat="42.98011" lon="0.54188">
        <ele>1465</ele>
        <time>2019-06-30T11:03:47.000Z</time>
      </trkpt>
      <trkpt lat="42.9801" lon="0.54189">
        <ele>1466</ele>
        <time>2019-06-30T11:03:49.000Z</time>
      </trkpt>
      <trkpt lat="42.98009" lon="0.54189">
        <ele>1466</ele>
        <time>2019-06-30T11:03:51.000Z</time>
      </trkpt>
      <trkpt lat="42.98008" lon="0.54189">
        <ele>1466</ele>
        <time>2019-06-30T11:03:53.000Z</time>
      </trkpt>
      <trkpt lat="42.98008" lon="0.54189">
        <ele>1466</ele>
        <time>2019-06-30T11:03:55.000Z</time>
      </trkpt>
      <trkpt lat="42.98007" lon="0.54189">
        <ele>1466</ele>
        <time>2019-06-30T11:03:57.000Z</time>
      </trkpt>
      <trkpt lat="42.98007" lon="0.5419">
        <ele>1466</ele>
        <time>2019-06-30T11:03:59.000Z</time>
      </trkpt>
      <trkpt lat="42.98006" lon="0.54191">
        <ele>1465</ele>
        <time>2019-06-30T11:04:01.000Z</time>
      </trkpt>
      <trkpt lat="42.98005" lon="0.54191">
        <ele>1465</ele>
        <time>2019-06-30T11:04:03.000Z</time>
      </trkpt>
      <trkpt lat="42.98005" lon="0.54191">
        <ele>1465</ele>
        <time>2019-06-30T11:04:05.000Z</time>
      </trkpt>
      <trkpt lat="42.98005" lon="0.54191">
        <ele>1465</ele>
        <time>2019-06-30T11:04:07.000Z</time>
      </trkpt>
      <trkpt lat="42.98005" lon="0.54191">
        <ele>1465</ele>
        <time>2019-06-30T11:04:09.000Z</time>
      </trkpt>
      <trkpt lat="42.98005" lon="0.5419">
        <ele>1465</ele>
        <time>2019-06-30T11:04:11.000Z</time>
      </trkpt>
      <trkpt lat="42.98005" lon="0.54191">
        <ele>1465</ele>
        <time>2019-06-30T11:04:13.000Z</time>
      </trkpt>
      <trkpt lat="42.98006" lon="0.5419">
        <ele>1465</ele>
        <time>2019-06-30T11:04:15.000Z</time>
      </trkpt>
      <trkpt lat="42.98005" lon="0.54189">
        <ele>1466</ele>
        <time>2019-06-30T11:04:17.000Z</time>
      </trkpt>
      <trkpt lat="42.98005" lon="0.54188">
        <ele>1466</ele>
        <time>2019-06-30T11:04:19.000Z</time>
      </trkpt>
      <trkpt lat="42.98006" lon="0.54188">
        <ele>1466</ele>
        <time>2019-06-30T11:04:21.000Z</time>
      </trkpt>
      <trkpt lat="42.98006" lon="0.54188">
        <ele>1466</ele>
        <time>2019-06-30T11:04:23.000Z</time>
      </trkpt>
      <trkpt lat="42.98007" lon="0.54187">
        <ele>1466</ele>
        <time>2019-06-30T11:04:25.000Z</time>
      </trkpt>
      <trkpt lat="42.98007" lon="0.54188">
        <ele>1466</ele>
        <time>2019-06-30T11:04:27.000Z</time>
      </trkpt>
      <trkpt lat="42.98007" lon="0.54189">
        <ele>1466</ele>
        <time>2019-06-30T11:04:29.000Z</time>
      </trkpt>
      <trkpt lat="42.98007" lon="0.54189">
        <ele>1466</ele>
        <time>2019-06-30T11:04:31.000Z</time>
      </trkpt>
      <trkpt lat="42.98007" lon="0.5419">
        <ele>1466</ele>
        <time>2019-06-30T11:04:33.000Z</time>
      </trkpt>
      <trkpt lat="42.98007" lon="0.54189">
        <ele>1466</ele>
        <time>2019-06-30T11:04:35.000Z</time>
      </trkpt>
      <trkpt lat="42.98007" lon="0.54189">
        <ele>1466</ele>
        <time>2019-06-30T11:04:37.000Z</time>
      </trkpt>
      <trkpt lat="42.98007" lon="0.54189">
        <ele>1466</ele>
        <time>2019-06-30T11:04:39.000Z</time>
      </trkpt>
      <trkpt lat="42.98006" lon="0.54189">
        <ele>1466</ele>
        <time>2019-06-30T11:04:41.000Z</time>
      </trkpt>
      <trkpt lat="42.98006" lon="0.54189">
        <ele>1466</ele>
        <time>2019-06-30T11:04:43.000Z</time>
      </trkpt>
      <trkpt lat="42.98006" lon="0.54189">
        <ele>1466</ele>
        <time>2019-06-30T11:04:45.000Z</time>
      </trkpt>
      <trkpt lat="42.98007" lon="0.54191">
        <ele>1466</ele>
        <time>2019-06-30T11:04:47.000Z</time>
      </trkpt>
      <trkpt lat="42.98007" lon="0.54191">
        <ele>1466</ele>
        <time>2019-06-30T11:04:49.000Z</time>
      </trkpt>
      <trkpt lat="42.98008" lon="0.54193">
        <ele>1465</ele>
        <time>2019-06-30T11:04:51.000Z</time>
      </trkpt>
      <trkpt lat="42.98007" lon="0.54193">
        <ele>1465</ele>
        <time>2019-06-30T11:04:53.000Z</time>
      </trkpt>
      <trkpt lat="42.98008" lon="0.54194">
        <ele>1465</ele>
        <time>2019-06-30T11:04:55.000Z</time>
      </trkpt>
      <trkpt lat="42.98009" lon="0.54193">
        <ele>1465</ele>
        <time>2019-06-30T11:04:57.000Z</time>
      </trkpt>
      <trkpt lat="42.98009" lon="0.54193">
        <ele>1465</ele>
        <time>2019-06-30T11:04:59.000Z</time>
      </trkpt>
      <trkpt lat="42.98009" lon="0.54194">
        <ele>1465</ele>
        <time>2019-06-30T11:05:01.000Z</time>
      </trkpt>
      <trkpt lat="42.98009" lon="0.54195">
        <ele>1465</ele>
        <time>2019-06-30T11:05:03.000Z</time>
      </trkpt>
      <trkpt lat="42.98009" lon="0.54195">
        <ele>1465</ele>
        <time>2019-06-30T11:05:05.000Z</time>
      </trkpt>
      <trkpt lat="42.9801" lon="0.54194">
        <ele>1465</ele>
        <time>2019-06-30T11:05:07.000Z</time>
      </trkpt>
      <trkpt lat="42.9801" lon="0.54194">
        <ele>1465</ele>
        <time>2019-06-30T11:05:09.000Z</time>
      </trkpt>
      <trkpt lat="42.98011" lon="0.54194">
        <ele>1464</ele>
        <time>2019-06-30T11:05:11.000Z</time>
      </trkpt>
      <trkpt lat="42.98011" lon="0.54194">
        <ele>1464</ele>
        <time>2019-06-30T11:05:13.000Z</time>
      </trkpt>
      <trkpt lat="42.98012" lon="0.54194">
        <ele>1464</ele>
        <time>2019-06-30T11:05:15.000Z</time>
      </trkpt>
      <trkpt lat="42.98012" lon="0.54193">
        <ele>1464</ele>
        <time>2019-06-30T11:05:17.000Z</time>
      </trkpt>
      <trkpt lat="42.98012" lon="0.54193">
        <ele>1464</ele>
        <time>2019-06-30T11:05:19.000Z</time>
      </trkpt>
      <trkpt lat="42.98012" lon="0.54193">
        <ele>1464</ele>
        <time>2019-06-30T11:05:21.000Z</time>
      </trkpt>
      <trkpt lat="42.98013" lon="0.54193">
        <ele>1463</ele>
        <time>2019-06-30T11:05:23.000Z</time>
      </trkpt>
      <trkpt lat="42.98013" lon="0.54195">
        <ele>1463</ele>
        <time>2019-06-30T11:05:25.000Z</time>
      </trkpt>
      <trkpt lat="42.98013" lon="0.54196">
        <ele>1463</ele>
        <time>2019-06-30T11:05:27.000Z</time>
      </trkpt>
      <trkpt lat="42.98013" lon="0.54197">
        <ele>1463</ele>
        <time>2019-06-30T11:05:29.000Z</time>
      </trkpt>
      <trkpt lat="42.98014" lon="0.542">
        <ele>1461</ele>
        <time>2019-06-30T11:05:31.000Z</time>
      </trkpt>
      <trkpt lat="42.98015" lon="0.54201">
        <ele>1461</ele>
        <time>2019-06-30T11:05:33.000Z</time>
      </trkpt>
      <trkpt lat="42.98015" lon="0.54203">
        <ele>1461</ele>
        <time>2019-06-30T11:05:35.000Z</time>
      </trkpt>
      <trkpt lat="42.98015" lon="0.54204">
        <ele>1460</ele>
        <time>2019-06-30T11:05:37.000Z</time>
      </trkpt>
      <trkpt lat="42.98015" lon="0.54207">
        <ele>1459</ele>
        <time>2019-06-30T11:05:39.000Z</time>
      </trkpt>
      <trkpt lat="42.98016" lon="0.54208">
        <ele>1459</ele>
        <time>2019-06-30T11:05:41.000Z</time>
      </trkpt>
      <trkpt lat="42.98017" lon="0.54208">
        <ele>1458</ele>
        <time>2019-06-30T11:05:43.000Z</time>
      </trkpt>
      <trkpt lat="42.98018" lon="0.5421">
        <ele>1458</ele>
        <time>2019-06-30T11:05:45.000Z</time>
      </trkpt>
      <trkpt lat="42.98018" lon="0.54211">
        <ele>1457</ele>
        <time>2019-06-30T11:05:47.000Z</time>
      </trkpt>
      <trkpt lat="42.98017" lon="0.54212">
        <ele>1457</ele>
        <time>2019-06-30T11:05:49.000Z</time>
      </trkpt>
      <trkpt lat="42.98018" lon="0.54212">
        <ele>1457</ele>
        <time>2019-06-30T11:05:51.000Z</time>
      </trkpt>
      <trkpt lat="42.98017" lon="0.54212">
        <ele>1457</ele>
        <time>2019-06-30T11:05:53.000Z</time>
      </trkpt>
      <trkpt lat="42.98017" lon="0.54212">
        <ele>1457</ele>
        <time>2019-06-30T11:05:55.000Z</time>
      </trkpt>
      <trkpt lat="42.98017" lon="0.54212">
        <ele>1457</ele>
        <time>2019-06-30T11:05:57.000Z</time>
      </trkpt>
      <trkpt lat="42.98018" lon="0.54213">
        <ele>1457</ele>
        <time>2019-06-30T11:05:59.000Z</time>
      </trkpt>
      <trkpt lat="42.98018" lon="0.54212">
        <ele>1457</ele>
        <time>2019-06-30T11:06:01.000Z</time>
      </trkpt>
      <trkpt lat="42.98018" lon="0.54211">
        <ele>1457</ele>
        <time>2019-06-30T11:06:03.000Z</time>
      </trkpt>
      <trkpt lat="42.98018" lon="0.54211">
        <ele>1457</ele>
        <time>2019-06-30T11:06:05.000Z</time>
      </trkpt>
      <trkpt lat="42.98017" lon="0.54211">
        <ele>1458</ele>
        <time>2019-06-30T11:06:07.000Z</time>
      </trkpt>
      <trkpt lat="42.98016" lon="0.54211">
        <ele>1458</ele>
        <time>2019-06-30T11:06:09.000Z</time>
      </trkpt>
      <trkpt lat="42.98016" lon="0.54211">
        <ele>1458</ele>
        <time>2019-06-30T11:06:11.000Z</time>
      </trkpt>
      <trkpt lat="42.98015" lon="0.54213">
        <ele>1458</ele>
        <time>2019-06-30T11:06:13.000Z</time>
      </trkpt>
      <trkpt lat="42.98015" lon="0.54215">
        <ele>1458</ele>
        <time>2019-06-30T11:06:15.000Z</time>
      </trkpt>
      <trkpt lat="42.98016" lon="0.54218">
        <ele>1457</ele>
        <time>2019-06-30T11:06:17.000Z</time>
      </trkpt>
      <trkpt lat="42.98016" lon="0.5422">
        <ele>1456</ele>
        <time>2019-06-30T11:06:19.000Z</time>
      </trkpt>
      <trkpt lat="42.98016" lon="0.54221">
        <ele>1455</ele>
        <time>2019-06-30T11:06:21.000Z</time>
      </trkpt>
      <trkpt lat="42.98016" lon="0.54222">
        <ele>1455</ele>
        <time>2019-06-30T11:06:23.000Z</time>
      </trkpt>
      <trkpt lat="42.98016" lon="0.54222">
        <ele>1455</ele>
        <time>2019-06-30T11:06:25.000Z</time>
      </trkpt>
      <trkpt lat="42.98017" lon="0.54223">
        <ele>1454</ele>
        <time>2019-06-30T11:06:27.000Z</time>
      </trkpt>
      <trkpt lat="42.98017" lon="0.54224">
        <ele>1454</ele>
        <time>2019-06-30T11:06:29.000Z</time>
      </trkpt>
      <trkpt lat="42.98018" lon="0.54226">
        <ele>1453</ele>
        <time>2019-06-30T11:06:31.000Z</time>
      </trkpt>
      <trkpt lat="42.98018" lon="0.54228">
        <ele>1452</ele>
        <time>2019-06-30T11:06:33.000Z</time>
      </trkpt>
      <trkpt lat="42.98017" lon="0.5423">
        <ele>1452</ele>
        <time>2019-06-30T11:06:35.000Z</time>
      </trkpt>
      <trkpt lat="42.98017" lon="0.54231">
        <ele>1451</ele>
        <time>2019-06-30T11:06:37.000Z</time>
      </trkpt>
      <trkpt lat="42.98017" lon="0.54233">
        <ele>1450</ele>
        <time>2019-06-30T11:06:39.000Z</time>
      </trkpt>
      <trkpt lat="42.98017" lon="0.54235">
        <ele>1450</ele>
        <time>2019-06-30T11:06:41.000Z</time>
      </trkpt>
      <trkpt lat="42.98018" lon="0.54236">
        <ele>1449</ele>
        <time>2019-06-30T11:06:43.000Z</time>
      </trkpt>
      <trkpt lat="42.98017" lon="0.54238">
        <ele>1449</ele>
        <time>2019-06-30T11:06:45.000Z</time>
      </trkpt>
      <trkpt lat="42.98017" lon="0.54239">
        <ele>1448</ele>
        <time>2019-06-30T11:06:47.000Z</time>
      </trkpt>
      <trkpt lat="42.98018" lon="0.54241">
        <ele>1448</ele>
        <time>2019-06-30T11:06:49.000Z</time>
      </trkpt>
      <trkpt lat="42.98018" lon="0.54241">
        <ele>1447</ele>
        <time>2019-06-30T11:06:51.000Z</time>
      </trkpt>
      <trkpt lat="42.98018" lon="0.54241">
        <ele>1448</ele>
        <time>2019-06-30T11:06:53.000Z</time>
      </trkpt>
      <trkpt lat="42.98017" lon="0.54241">
        <ele>1448</ele>
        <time>2019-06-30T11:06:55.000Z</time>
      </trkpt>
      <trkpt lat="42.98017" lon="0.54241">
        <ele>1448</ele>
        <time>2019-06-30T11:06:57.000Z</time>
      </trkpt>
      <trkpt lat="42.98017" lon="0.54241">
        <ele>1448</ele>
        <time>2019-06-30T11:06:59.000Z</time>
      </trkpt>
      <trkpt lat="42.98018" lon="0.54242">
        <ele>1447</ele>
        <time>2019-06-30T11:07:01.000Z</time>
      </trkpt>
      <trkpt lat="42.98018" lon="0.54243">
        <ele>1447</ele>
        <time>2019-06-30T11:07:03.000Z</time>
      </trkpt>
      <trkpt lat="42.98018" lon="0.54243">
        <ele>1447</ele>
        <time>2019-06-30T11:07:05.000Z</time>
      </trkpt>
      <trkpt lat="42.98017" lon="0.54243">
        <ele>1447</ele>
        <time>2019-06-30T11:07:07.000Z</time>
      </trkpt>
      <trkpt lat="42.98016" lon="0.54243">
        <ele>1448</ele>
        <time>2019-06-30T11:07:09.000Z</time>
      </trkpt>
      <trkpt lat="42.98015" lon="0.54242">
        <ele>1448</ele>
        <time>2019-06-30T11:07:11.000Z</time>
      </trkpt>
      <trkpt lat="42.98015" lon="0.54241">
        <ele>1449</ele>
        <time>2019-06-30T11:07:13.000Z</time>
      </trkpt>
      <trkpt lat="42.98014" lon="0.54241">
        <ele>1449</ele>
        <time>2019-06-30T11:07:15.000Z</time>
      </trkpt>
      <trkpt lat="42.98013" lon="0.54242">
        <ele>1449</ele>
        <time>2019-06-30T11:07:17.000Z</time>
      </trkpt>
      <trkpt lat="42.98014" lon="0.54242">
        <ele>1449</ele>
        <time>2019-06-30T11:07:19.000Z</time>
      </trkpt>
      <trkpt lat="42.98014" lon="0.54243">
        <ele>1448</ele>
        <time>2019-06-30T11:07:21.000Z</time>
      </trkpt>
      <trkpt lat="42.98013" lon="0.54245">
        <ele>1448</ele>
        <time>2019-06-30T11:07:23.000Z</time>
      </trkpt>
      <trkpt lat="42.98013" lon="0.54246">
        <ele>1448</ele>
        <time>2019-06-30T11:07:25.000Z</time>
      </trkpt>
      <trkpt lat="42.98012" lon="0.54247">
        <ele>1448</ele>
        <time>2019-06-30T11:07:27.000Z</time>
      </trkpt>
      <trkpt lat="42.98012" lon="0.54246">
        <ele>1448</ele>
        <time>2019-06-30T11:07:29.000Z</time>
      </trkpt>
      <trkpt lat="42.98013" lon="0.54246">
        <ele>1448</ele>
        <time>2019-06-30T11:07:31.000Z</time>
      </trkpt>
      <trkpt lat="42.98015" lon="0.54245">
        <ele>1447</ele>
        <time>2019-06-30T11:07:33.000Z</time>
      </trkpt>
      <trkpt lat="42.98016" lon="0.54245">
        <ele>1447</ele>
        <time>2019-06-30T11:07:35.000Z</time>
      </trkpt>
      <trkpt lat="42.98016" lon="0.54245">
        <ele>1447</ele>
        <time>2019-06-30T11:07:37.000Z</time>
      </trkpt>
      <trkpt lat="42.98016" lon="0.54244">
        <ele>1447</ele>
        <time>2019-06-30T11:07:39.000Z</time>
      </trkpt>
      <trkpt lat="42.98016" lon="0.54244">
        <ele>1447</ele>
        <time>2019-06-30T11:07:41.000Z</time>
      </trkpt>
      <trkpt lat="42.98016" lon="0.54245">
        <ele>1447</ele>
        <time>2019-06-30T11:07:43.000Z</time>
      </trkpt>
      <trkpt lat="42.98017" lon="0.54245">
        <ele>1447</ele>
        <time>2019-06-30T11:07:45.000Z</time>
      </trkpt>
      <trkpt lat="42.98016" lon="0.54245">
        <ele>1447</ele>
        <time>2019-06-30T11:07:47.000Z</time>
      </trkpt>
      <trkpt lat="42.98016" lon="0.54244">
        <ele>1447</ele>
        <time>2019-06-30T11:07:49.000Z</time>
      </trkpt>
      <trkpt lat="42.98015" lon="0.54244">
        <ele>1447</ele>
        <time>2019-06-30T11:07:51.000Z</time>
      </trkpt>
      <trkpt lat="42.98015" lon="0.54244">
        <ele>1448</ele>
        <time>2019-06-30T11:07:53.000Z</time>
      </trkpt>
      <trkpt lat="42.98014" lon="0.54244">
        <ele>1448</ele>
        <time>2019-06-30T11:07:55.000Z</time>
      </trkpt>
      <trkpt lat="42.98015" lon="0.54244">
        <ele>1448</ele>
        <time>2019-06-30T11:07:57.000Z</time>
      </trkpt>
      <trkpt lat="42.98015" lon="0.54244">
        <ele>1448</ele>
        <time>2019-06-30T11:07:59.000Z</time>
      </trkpt>
      <trkpt lat="42.98015" lon="0.54244">
        <ele>1447</ele>
        <time>2019-06-30T11:08:01.000Z</time>
      </trkpt>
      <trkpt lat="42.98015" lon="0.54245">
        <ele>1447</ele>
        <time>2019-06-30T11:08:03.000Z</time>
      </trkpt>
      <trkpt lat="42.98015" lon="0.54245">
        <ele>1447</ele>
        <time>2019-06-30T11:08:05.000Z</time>
      </trkpt>
      <trkpt lat="42.98016" lon="0.54244">
        <ele>1447</ele>
        <time>2019-06-30T11:08:07.000Z</time>
      </trkpt>
      <trkpt lat="42.98017" lon="0.54245">
        <ele>1446</ele>
        <time>2019-06-30T11:08:09.000Z</time>
      </trkpt>
      <trkpt lat="42.98018" lon="0.54245">
        <ele>1446</ele>
        <time>2019-06-30T11:08:11.000Z</time>
      </trkpt>
      <trkpt lat="42.98019" lon="0.54245">
        <ele>1446</ele>
        <time>2019-06-30T11:08:13.000Z</time>
      </trkpt>
      <trkpt lat="42.9802" lon="0.54245">
        <ele>1445</ele>
        <time>2019-06-30T11:08:15.000Z</time>
      </trkpt>
      <trkpt lat="42.98021" lon="0.54245">
        <ele>1445</ele>
        <time>2019-06-30T11:08:17.000Z</time>
      </trkpt>
      <trkpt lat="42.98022" lon="0.54246">
        <ele>1444</ele>
        <time>2019-06-30T11:08:19.000Z</time>
      </trkpt>
      <trkpt lat="42.98023" lon="0.54246">
        <ele>1443</ele>
        <time>2019-06-30T11:08:21.000Z</time>
      </trkpt>
      <trkpt lat="42.98023" lon="0.54246">
        <ele>1443</ele>
        <time>2019-06-30T11:08:23.000Z</time>
      </trkpt>
      <trkpt lat="42.98024" lon="0.54247">
        <ele>1443</ele>
        <time>2019-06-30T11:08:25.000Z</time>
      </trkpt>
      <trkpt lat="42.98024" lon="0.54248">
        <ele>1442</ele>
        <time>2019-06-30T11:08:27.000Z</time>
      </trkpt>
      <trkpt lat="42.98024" lon="0.54248">
        <ele>1442</ele>
        <time>2019-06-30T11:08:29.000Z</time>
      </trkpt>
      <trkpt lat="42.98024" lon="0.54249">
        <ele>1442</ele>
        <time>2019-06-30T11:08:31.000Z</time>
      </trkpt>
      <trkpt lat="42.98025" lon="0.54249">
        <ele>1442</ele>
        <time>2019-06-30T11:08:33.000Z</time>
      </trkpt>
      <trkpt lat="42.98025" lon="0.54249">
        <ele>1442</ele>
        <time>2019-06-30T11:08:35.000Z</time>
      </trkpt>
      <trkpt lat="42.98025" lon="0.54249">
        <ele>1442</ele>
        <time>2019-06-30T11:08:37.000Z</time>
      </trkpt>
      <trkpt lat="42.98025" lon="0.54248">
        <ele>1442</ele>
        <time>2019-06-30T11:08:39.000Z</time>
      </trkpt>
      <trkpt lat="42.98024" lon="0.54248">
        <ele>1442</ele>
        <time>2019-06-30T11:08:41.000Z</time>
      </trkpt>
      <trkpt lat="42.98024" lon="0.54247">
        <ele>1442</ele>
        <time>2019-06-30T11:08:43.000Z</time>
      </trkpt>
      <trkpt lat="42.98025" lon="0.54248">
        <ele>1442</ele>
        <time>2019-06-30T11:08:45.000Z</time>
      </trkpt>
      <trkpt lat="42.98025" lon="0.54246">
        <ele>1443</ele>
        <time>2019-06-30T11:08:47.000Z</time>
      </trkpt>
      <trkpt lat="42.98026" lon="0.54244">
        <ele>1443</ele>
        <time>2019-06-30T11:08:49.000Z</time>
      </trkpt>
      <trkpt lat="42.98026" lon="0.54242">
        <ele>1444</ele>
        <time>2019-06-30T11:08:51.000Z</time>
      </trkpt>
      <trkpt lat="42.98027" lon="0.5424">
        <ele>1444</ele>
        <time>2019-06-30T11:08:53.000Z</time>
      </trkpt>
      <trkpt lat="42.98028" lon="0.54238">
        <ele>1445</ele>
        <time>2019-06-30T11:08:55.000Z</time>
      </trkpt>
      <trkpt lat="42.98028" lon="0.54236">
        <ele>1445</ele>
        <time>2019-06-30T11:08:57.000Z</time>
      </trkpt>
      <trkpt lat="42.98028" lon="0.54235">
        <ele>1445</ele>
        <time>2019-06-30T11:08:59.000Z</time>
      </trkpt>
      <trkpt lat="42.98028" lon="0.54234">
        <ele>1446</ele>
        <time>2019-06-30T11:09:01.000Z</time>
      </trkpt>
      <trkpt lat="42.98028" lon="0.54234">
        <ele>1446</ele>
        <time>2019-06-30T11:09:03.000Z</time>
      </trkpt>
      <trkpt lat="42.98028" lon="0.54234">
        <ele>1446</ele>
        <time>2019-06-30T11:09:05.000Z</time>
      </trkpt>
      <trkpt lat="42.98028" lon="0.54234">
        <ele>1445</ele>
        <time>2019-06-30T11:09:07.000Z</time>
      </trkpt>
      <trkpt lat="42.98028" lon="0.54234">
        <ele>1445</ele>
        <time>2019-06-30T11:09:09.000Z</time>
      </trkpt>
      <trkpt lat="42.98029" lon="0.54233">
        <ele>1446</ele>
        <time>2019-06-30T11:09:11.000Z</time>
      </trkpt>
      <trkpt lat="42.98029" lon="0.54233">
        <ele>1446</ele>
        <time>2019-06-30T11:09:13.000Z</time>
      </trkpt>
      <trkpt lat="42.98029" lon="0.54233">
        <ele>1445</ele>
        <time>2019-06-30T11:09:15.000Z</time>
      </trkpt>
      <trkpt lat="42.98029" lon="0.54231">
        <ele>1446</ele>
        <time>2019-06-30T11:09:17.000Z</time>
      </trkpt>
      <trkpt lat="42.98029" lon="0.54229">
        <ele>1447</ele>
        <time>2019-06-30T11:09:19.000Z</time>
      </trkpt>
      <trkpt lat="42.98029" lon="0.54228">
        <ele>1447</ele>
        <time>2019-06-30T11:09:21.000Z</time>
      </trkpt>
      <trkpt lat="42.9803" lon="0.54226">
        <ele>1448</ele>
        <time>2019-06-30T11:09:23.000Z</time>
      </trkpt>
      <trkpt lat="42.9803" lon="0.54225">
        <ele>1448</ele>
        <time>2019-06-30T11:09:25.000Z</time>
      </trkpt>
      <trkpt lat="42.98031" lon="0.54224">
        <ele>1448</ele>
        <time>2019-06-30T11:09:27.000Z</time>
      </trkpt>
      <trkpt lat="42.98031" lon="0.54223">
        <ele>1448</ele>
        <time>2019-06-30T11:09:29.000Z</time>
      </trkpt>
      <trkpt lat="42.98032" lon="0.54222">
        <ele>1448</ele>
        <time>2019-06-30T11:09:31.000Z</time>
      </trkpt>
      <trkpt lat="42.98032" lon="0.54221">
        <ele>1449</ele>
        <time>2019-06-30T11:09:33.000Z</time>
      </trkpt>
      <trkpt lat="42.98031" lon="0.54221">
        <ele>1449</ele>
        <time>2019-06-30T11:09:35.000Z</time>
      </trkpt>
      <trkpt lat="42.98032" lon="0.5422">
        <ele>1449</ele>
        <time>2019-06-30T11:09:37.000Z</time>
      </trkpt>
      <trkpt lat="42.98033" lon="0.5422">
        <ele>1449</ele>
        <time>2019-06-30T11:09:39.000Z</time>
      </trkpt>
      <trkpt lat="42.98033" lon="0.5422">
        <ele>1448</ele>
        <time>2019-06-30T11:09:41.000Z</time>
      </trkpt>
      <trkpt lat="42.98033" lon="0.54219">
        <ele>1449</ele>
        <time>2019-06-30T11:09:43.000Z</time>
      </trkpt>
      <trkpt lat="42.98034" lon="0.54218">
        <ele>1449</ele>
        <time>2019-06-30T11:09:45.000Z</time>
      </trkpt>
      <trkpt lat="42.98034" lon="0.54217">
        <ele>1449</ele>
        <time>2019-06-30T11:09:47.000Z</time>
      </trkpt>
      <trkpt lat="42.98034" lon="0.54216">
        <ele>1450</ele>
        <time>2019-06-30T11:09:49.000Z</time>
      </trkpt>
      <trkpt lat="42.98034" lon="0.54216">
        <ele>1449</ele>
        <time>2019-06-30T11:09:51.000Z</time>
      </trkpt>
      <trkpt lat="42.98035" lon="0.54215">
        <ele>1449</ele>
        <time>2019-06-30T11:09:53.000Z</time>
      </trkpt>
      <trkpt lat="42.98036" lon="0.54215">
        <ele>1449</ele>
        <time>2019-06-30T11:09:55.000Z</time>
      </trkpt>
      <trkpt lat="42.98037" lon="0.54215">
        <ele>1448</ele>
        <time>2019-06-30T11:09:57.000Z</time>
      </trkpt>
      <trkpt lat="42.98038" lon="0.54215">
        <ele>1448</ele>
        <time>2019-06-30T11:09:59.000Z</time>
      </trkpt>
      <trkpt lat="42.98039" lon="0.54214">
        <ele>1448</ele>
        <time>2019-06-30T11:10:01.000Z</time>
      </trkpt>
      <trkpt lat="42.9804" lon="0.54214">
        <ele>1447</ele>
        <time>2019-06-30T11:10:03.000Z</time>
      </trkpt>
      <trkpt lat="42.98041" lon="0.54214">
        <ele>1447</ele>
        <time>2019-06-30T11:10:05.000Z</time>
      </trkpt>
      <trkpt lat="42.98042" lon="0.54215">
        <ele>1446</ele>
        <time>2019-06-30T11:10:07.000Z</time>
      </trkpt>
      <trkpt lat="42.98043" lon="0.54215">
        <ele>1446</ele>
        <time>2019-06-30T11:10:09.000Z</time>
      </trkpt>
      <trkpt lat="42.98044" lon="0.54215">
        <ele>1445</ele>
        <time>2019-06-30T11:10:11.000Z</time>
      </trkpt>
      <trkpt lat="42.98044" lon="0.54215">
        <ele>1445</ele>
        <time>2019-06-30T11:10:13.000Z</time>
      </trkpt>
      <trkpt lat="42.98045" lon="0.54214">
        <ele>1445</ele>
        <time>2019-06-30T11:10:15.000Z</time>
      </trkpt>
      <trkpt lat="42.98046" lon="0.54213">
        <ele>1445</ele>
        <time>2019-06-30T11:10:17.000Z</time>
      </trkpt>
      <trkpt lat="42.98047" lon="0.54212">
        <ele>1445</ele>
        <time>2019-06-30T11:10:19.000Z</time>
      </trkpt>
      <trkpt lat="42.98048" lon="0.54211">
        <ele>1445</ele>
        <time>2019-06-30T11:10:21.000Z</time>
      </trkpt>
      <trkpt lat="42.98048" lon="0.5421">
        <ele>1445</ele>
        <time>2019-06-30T11:10:23.000Z</time>
      </trkpt>
      <trkpt lat="42.98049" lon="0.54209">
        <ele>1445</ele>
        <time>2019-06-30T11:10:25.000Z</time>
      </trkpt>
      <trkpt lat="42.98049" lon="0.54208">
        <ele>1445</ele>
        <time>2019-06-30T11:10:27.000Z</time>
      </trkpt>
      <trkpt lat="42.98049" lon="0.54208">
        <ele>1445</ele>
        <time>2019-06-30T11:10:29.000Z</time>
      </trkpt>
      <trkpt lat="42.98049" lon="0.54207">
        <ele>1445</ele>
        <time>2019-06-30T11:10:31.000Z</time>
      </trkpt>
      <trkpt lat="42.98049" lon="0.54206">
        <ele>1445</ele>
        <time>2019-06-30T11:10:33.000Z</time>
      </trkpt>
      <trkpt lat="42.98049" lon="0.54206">
        <ele>1445</ele>
        <time>2019-06-30T11:10:35.000Z</time>
      </trkpt>
      <trkpt lat="42.98049" lon="0.54208">
        <ele>1445</ele>
        <time>2019-06-30T11:10:37.000Z</time>
      </trkpt>
      <trkpt lat="42.9805" lon="0.54208">
        <ele>1445</ele>
        <time>2019-06-30T11:10:39.000Z</time>
      </trkpt>
      <trkpt lat="42.9805" lon="0.54209">
        <ele>1444</ele>
        <time>2019-06-30T11:10:41.000Z</time>
      </trkpt>
      <trkpt lat="42.98051" lon="0.54208">
        <ele>1444</ele>
        <time>2019-06-30T11:10:43.000Z</time>
      </trkpt>
      <trkpt lat="42.98051" lon="0.54208">
        <ele>1444</ele>
        <time>2019-06-30T11:10:45.000Z</time>
      </trkpt>
      <trkpt lat="42.98051" lon="0.54209">
        <ele>1444</ele>
        <time>2019-06-30T11:10:47.000Z</time>
      </trkpt>
      <trkpt lat="42.98052" lon="0.54209">
        <ele>1444</ele>
        <time>2019-06-30T11:10:49.000Z</time>
      </trkpt>
      <trkpt lat="42.98052" lon="0.54209">
        <ele>1443</ele>
        <time>2019-06-30T11:10:51.000Z</time>
      </trkpt>
      <trkpt lat="42.98052" lon="0.54209">
        <ele>1443</ele>
        <time>2019-06-30T11:10:53.000Z</time>
      </trkpt>
      <trkpt lat="42.98052" lon="0.54208">
        <ele>1443</ele>
        <time>2019-06-30T11:10:55.000Z</time>
      </trkpt>
      <trkpt lat="42.98053" lon="0.54207">
        <ele>1444</ele>
        <time>2019-06-30T11:10:57.000Z</time>
      </trkpt>
      <trkpt lat="42.98053" lon="0.54207">
        <ele>1444</ele>
        <time>2019-06-30T11:10:59.000Z</time>
      </trkpt>
      <trkpt lat="42.98054" lon="0.54205">
        <ele>1444</ele>
        <time>2019-06-30T11:11:01.000Z</time>
      </trkpt>
      <trkpt lat="42.98054" lon="0.54204">
        <ele>1444</ele>
        <time>2019-06-30T11:11:03.000Z</time>
      </trkpt>
      <trkpt lat="42.98055" lon="0.54203">
        <ele>1444</ele>
        <time>2019-06-30T11:11:05.000Z</time>
      </trkpt>
      <trkpt lat="42.98055" lon="0.54203">
        <ele>1443</ele>
        <time>2019-06-30T11:11:07.000Z</time>
      </trkpt>
      <trkpt lat="42.98055" lon="0.54203">
        <ele>1444</ele>
        <time>2019-06-30T11:11:09.000Z</time>
      </trkpt>
      <trkpt lat="42.98056" lon="0.54202">
        <ele>1443</ele>
        <time>2019-06-30T11:11:11.000Z</time>
      </trkpt>
      <trkpt lat="42.98056" lon="0.54202">
        <ele>1443</ele>
        <time>2019-06-30T11:11:13.000Z</time>
      </trkpt>
      <trkpt lat="42.98056" lon="0.54202">
        <ele>1444</ele>
        <time>2019-06-30T11:11:15.000Z</time>
      </trkpt>
      <trkpt lat="42.98056" lon="0.54202">
        <ele>1443</ele>
        <time>2019-06-30T11:11:17.000Z</time>
      </trkpt>
      <trkpt lat="42.98057" lon="0.54202">
        <ele>1443</ele>
        <time>2019-06-30T11:11:19.000Z</time>
      </trkpt>
      <trkpt lat="42.98057" lon="0.54201">
        <ele>1443</ele>
        <time>2019-06-30T11:11:21.000Z</time>
      </trkpt>
      <trkpt lat="42.98058" lon="0.54201">
        <ele>1443</ele>
        <time>2019-06-30T11:11:23.000Z</time>
      </trkpt>
      <trkpt lat="42.98057" lon="0.542">
        <ele>1443</ele>
        <time>2019-06-30T11:11:25.000Z</time>
      </trkpt>
      <trkpt lat="42.98058" lon="0.542">
        <ele>1443</ele>
        <time>2019-06-30T11:11:27.000Z</time>
      </trkpt>
      <trkpt lat="42.98057" lon="0.54199">
        <ele>1444</ele>
        <time>2019-06-30T11:11:29.000Z</time>
      </trkpt>
      <trkpt lat="42.98058" lon="0.54198">
        <ele>1444</ele>
        <time>2019-06-30T11:11:31.000Z</time>
      </trkpt>
      <trkpt lat="42.98058" lon="0.54196">
        <ele>1444</ele>
        <time>2019-06-30T11:11:33.000Z</time>
      </trkpt>
      <trkpt lat="42.98058" lon="0.54196">
        <ele>1444</ele>
        <time>2019-06-30T11:11:35.000Z</time>
      </trkpt>
      <trkpt lat="42.98058" lon="0.54195">
        <ele>1444</ele>
        <time>2019-06-30T11:11:37.000Z</time>
      </trkpt>
      <trkpt lat="42.98059" lon="0.54195">
        <ele>1444</ele>
        <time>2019-06-30T11:11:39.000Z</time>
      </trkpt>
      <trkpt lat="42.98059" lon="0.54194">
        <ele>1444</ele>
        <time>2019-06-30T11:11:41.000Z</time>
      </trkpt>
      <trkpt lat="42.98059" lon="0.54194">
        <ele>1444</ele>
        <time>2019-06-30T11:11:43.000Z</time>
      </trkpt>
      <trkpt lat="42.9806" lon="0.54193">
        <ele>1444</ele>
        <time>2019-06-30T11:11:45.000Z</time>
      </trkpt>
      <trkpt lat="42.98061" lon="0.54192">
        <ele>1443</ele>
        <time>2019-06-30T11:11:47.000Z</time>
      </trkpt>
      <trkpt lat="42.98063" lon="0.54194">
        <ele>1443</ele>
        <time>2019-06-30T11:11:49.000Z</time>
      </trkpt>
      <trkpt lat="42.98064" lon="0.54193">
        <ele>1442</ele>
        <time>2019-06-30T11:11:51.000Z</time>
      </trkpt>
      <trkpt lat="42.98066" lon="0.54192">
        <ele>1442</ele>
        <time>2019-06-30T11:11:53.000Z</time>
      </trkpt>
      <trkpt lat="42.98067" lon="0.54191">
        <ele>1442</ele>
        <time>2019-06-30T11:11:55.000Z</time>
      </trkpt>
      <trkpt lat="42.98068" lon="0.54189">
        <ele>1442</ele>
        <time>2019-06-30T11:11:57.000Z</time>
      </trkpt>
      <trkpt lat="42.9807" lon="0.54188">
        <ele>1443</ele>
        <time>2019-06-30T11:11:59.000Z</time>
      </trkpt>
      <trkpt lat="42.98071" lon="0.54187">
        <ele>1443</ele>
        <time>2019-06-30T11:12:01.000Z</time>
      </trkpt>
      <trkpt lat="42.98071" lon="0.54185">
        <ele>1444</ele>
        <time>2019-06-30T11:12:03.000Z</time>
      </trkpt>
      <trkpt lat="42.98072" lon="0.54184">
        <ele>1444</ele>
        <time>2019-06-30T11:12:05.000Z</time>
      </trkpt>
      <trkpt lat="42.98072" lon="0.54182">
        <ele>1445</ele>
        <time>2019-06-30T11:12:07.000Z</time>
      </trkpt>
      <trkpt lat="42.98073" lon="0.54181">
        <ele>1446</ele>
        <time>2019-06-30T11:12:09.000Z</time>
      </trkpt>
      <trkpt lat="42.98074" lon="0.5418">
        <ele>1446</ele>
        <time>2019-06-30T11:12:11.000Z</time>
      </trkpt>
      <trkpt lat="42.98075" lon="0.5418">
        <ele>1446</ele>
        <time>2019-06-30T11:12:13.000Z</time>
      </trkpt>
      <trkpt lat="42.98075" lon="0.54178">
        <ele>1447</ele>
        <time>2019-06-30T11:12:15.000Z</time>
      </trkpt>
      <trkpt lat="42.98076" lon="0.54177">
        <ele>1447</ele>
        <time>2019-06-30T11:12:17.000Z</time>
      </trkpt>
      <trkpt lat="42.98076" lon="0.54176">
        <ele>1448</ele>
        <time>2019-06-30T11:12:19.000Z</time>
      </trkpt>
      <trkpt lat="42.98077" lon="0.54176">
        <ele>1447</ele>
        <time>2019-06-30T11:12:21.000Z</time>
      </trkpt>
      <trkpt lat="42.98078" lon="0.54176">
        <ele>1447</ele>
        <time>2019-06-30T11:12:23.000Z</time>
      </trkpt>
      <trkpt lat="42.98078" lon="0.54176">
        <ele>1447</ele>
        <time>2019-06-30T11:12:25.000Z</time>
      </trkpt>
      <trkpt lat="42.98079" lon="0.54175">
        <ele>1448</ele>
        <time>2019-06-30T11:12:27.000Z</time>
      </trkpt>
      <trkpt lat="42.9808" lon="0.54174">
        <ele>1448</ele>
        <time>2019-06-30T11:12:29.000Z</time>
      </trkpt>
      <trkpt lat="42.9808" lon="0.54174">
        <ele>1448</ele>
        <time>2019-06-30T11:12:31.000Z</time>
      </trkpt>
      <trkpt lat="42.9808" lon="0.54172">
        <ele>1448</ele>
        <time>2019-06-30T11:12:33.000Z</time>
      </trkpt>
      <trkpt lat="42.98081" lon="0.54172">
        <ele>1449</ele>
        <time>2019-06-30T11:12:35.000Z</time>
      </trkpt>
      <trkpt lat="42.98081" lon="0.54172">
        <ele>1448</ele>
        <time>2019-06-30T11:12:37.000Z</time>
      </trkpt>
      <trkpt lat="42.9808" lon="0.54172">
        <ele>1449</ele>
        <time>2019-06-30T11:12:39.000Z</time>
      </trkpt>
      <trkpt lat="42.9808" lon="0.54171">
        <ele>1449</ele>
        <time>2019-06-30T11:12:41.000Z</time>
      </trkpt>
      <trkpt lat="42.98079" lon="0.5417">
        <ele>1450</ele>
        <time>2019-06-30T11:12:43.000Z</time>
      </trkpt>
      <trkpt lat="42.9808" lon="0.54169">
        <ele>1450</ele>
        <time>2019-06-30T11:12:45.000Z</time>
      </trkpt>
      <trkpt lat="42.9808" lon="0.54169">
        <ele>1450</ele>
        <time>2019-06-30T11:12:47.000Z</time>
      </trkpt>
      <trkpt lat="42.9808" lon="0.54167">
        <ele>1451</ele>
        <time>2019-06-30T11:12:49.000Z</time>
      </trkpt>
      <trkpt lat="42.9808" lon="0.54166">
        <ele>1451</ele>
        <time>2019-06-30T11:12:51.000Z</time>
      </trkpt>
      <trkpt lat="42.98081" lon="0.54165">
        <ele>1452</ele>
        <time>2019-06-30T11:12:53.000Z</time>
      </trkpt>
      <trkpt lat="42.98081" lon="0.54165">
        <ele>1452</ele>
        <time>2019-06-30T11:12:55.000Z</time>
      </trkpt>
      <trkpt lat="42.98082" lon="0.54165">
        <ele>1452</ele>
        <time>2019-06-30T11:12:57.000Z</time>
      </trkpt>
      <trkpt lat="42.98083" lon="0.54164">
        <ele>1452</ele>
        <time>2019-06-30T11:12:59.000Z</time>
      </trkpt>
      <trkpt lat="42.98083" lon="0.54164">
        <ele>1452</ele>
        <time>2019-06-30T11:13:01.000Z</time>
      </trkpt>
      <trkpt lat="42.98085" lon="0.54164">
        <ele>1452</ele>
        <time>2019-06-30T11:13:03.000Z</time>
      </trkpt>
      <trkpt lat="42.98085" lon="0.54164">
        <ele>1452</ele>
        <time>2019-06-30T11:13:05.000Z</time>
      </trkpt>
      <trkpt lat="42.98086" lon="0.54164">
        <ele>1452</ele>
        <time>2019-06-30T11:13:07.000Z</time>
      </trkpt>
      <trkpt lat="42.98087" lon="0.54164">
        <ele>1451</ele>
        <time>2019-06-30T11:13:09.000Z</time>
      </trkpt>
      <trkpt lat="42.98088" lon="0.54164">
        <ele>1451</ele>
        <time>2019-06-30T11:13:11.000Z</time>
      </trkpt>
      <trkpt lat="42.98089" lon="0.54164">
        <ele>1451</ele>
        <time>2019-06-30T11:13:13.000Z</time>
      </trkpt>
      <trkpt lat="42.98089" lon="0.54164">
        <ele>1451</ele>
        <time>2019-06-30T11:13:15.000Z</time>
      </trkpt>
      <trkpt lat="42.98089" lon="0.54164">
        <ele>1451</ele>
        <time>2019-06-30T11:13:17.000Z</time>
      </trkpt>
      <trkpt lat="42.98089" lon="0.54164">
        <ele>1451</ele>
        <time>2019-06-30T11:13:19.000Z</time>
      </trkpt>
      <trkpt lat="42.98089" lon="0.54163">
        <ele>1451</ele>
        <time>2019-06-30T11:13:21.000Z</time>
      </trkpt>
      <trkpt lat="42.98089" lon="0.54162">
        <ele>1452</ele>
        <time>2019-06-30T11:13:23.000Z</time>
      </trkpt>
      <trkpt lat="42.9809" lon="0.5416">
        <ele>1453</ele>
        <time>2019-06-30T11:13:25.000Z</time>
      </trkpt>
      <trkpt lat="42.9809" lon="0.54159">
        <ele>1453</ele>
        <time>2019-06-30T11:13:27.000Z</time>
      </trkpt>
      <trkpt lat="42.98091" lon="0.54159">
        <ele>1453</ele>
        <time>2019-06-30T11:13:29.000Z</time>
      </trkpt>
      <trkpt lat="42.98091" lon="0.54158">
        <ele>1453</ele>
        <time>2019-06-30T11:13:31.000Z</time>
      </trkpt>
      <trkpt lat="42.98091" lon="0.54159">
        <ele>1453</ele>
        <time>2019-06-30T11:13:33.000Z</time>
      </trkpt>
      <trkpt lat="42.98092" lon="0.54159">
        <ele>1453</ele>
        <time>2019-06-30T11:13:35.000Z</time>
      </trkpt>
      <trkpt lat="42.98092" lon="0.5416">
        <ele>1452</ele>
        <time>2019-06-30T11:13:37.000Z</time>
      </trkpt>
      <trkpt lat="42.98092" lon="0.54161">
        <ele>1452</ele>
        <time>2019-06-30T11:13:39.000Z</time>
      </trkpt>
      <trkpt lat="42.98092" lon="0.54161">
        <ele>1452</ele>
        <time>2019-06-30T11:13:41.000Z</time>
      </trkpt>
      <trkpt lat="42.98092" lon="0.54161">
        <ele>1452</ele>
        <time>2019-06-30T11:13:43.000Z</time>
      </trkpt>
      <trkpt lat="42.98092" lon="0.5416">
        <ele>1452</ele>
        <time>2019-06-30T11:13:45.000Z</time>
      </trkpt>
      <trkpt lat="42.98091" lon="0.54158">
        <ele>1454</ele>
        <time>2019-06-30T11:13:47.000Z</time>
      </trkpt>
      <trkpt lat="42.98091" lon="0.54157">
        <ele>1454</ele>
        <time>2019-06-30T11:13:49.000Z</time>
      </trkpt>
      <trkpt lat="42.98091" lon="0.54156">
        <ele>1455</ele>
        <time>2019-06-30T11:13:51.000Z</time>
      </trkpt>
      <trkpt lat="42.98093" lon="0.54155">
        <ele>1454</ele>
        <time>2019-06-30T11:13:53.000Z</time>
      </trkpt>
      <trkpt lat="42.98094" lon="0.54155">
        <ele>1454</ele>
        <time>2019-06-30T11:13:55.000Z</time>
      </trkpt>
      <trkpt lat="42.98095" lon="0.54153">
        <ele>1454</ele>
        <time>2019-06-30T11:13:57.000Z</time>
      </trkpt>
      <trkpt lat="42.98096" lon="0.54152">
        <ele>1454</ele>
        <time>2019-06-30T11:13:59.000Z</time>
      </trkpt>
      <trkpt lat="42.98096" lon="0.54151">
        <ele>1455</ele>
        <time>2019-06-30T11:14:01.000Z</time>
      </trkpt>
      <trkpt lat="42.98096" lon="0.54151">
        <ele>1455</ele>
        <time>2019-06-30T11:14:03.000Z</time>
      </trkpt>
      <trkpt lat="42.98097" lon="0.5415">
        <ele>1455</ele>
        <time>2019-06-30T11:14:05.000Z</time>
      </trkpt>
      <trkpt lat="42.98098" lon="0.54149">
        <ele>1455</ele>
        <time>2019-06-30T11:14:07.000Z</time>
      </trkpt>
      <trkpt lat="42.98099" lon="0.54148">
        <ele>1455</ele>
        <time>2019-06-30T11:14:09.000Z</time>
      </trkpt>
      <trkpt lat="42.98099" lon="0.54147">
        <ele>1456</ele>
        <time>2019-06-30T11:14:11.000Z</time>
      </trkpt>
      <trkpt lat="42.981" lon="0.54146">
        <ele>1455</ele>
        <time>2019-06-30T11:14:13.000Z</time>
      </trkpt>
      <trkpt lat="42.98102" lon="0.54145">
        <ele>1455</ele>
        <time>2019-06-30T11:14:15.000Z</time>
      </trkpt>
      <trkpt lat="42.98104" lon="0.54145">
        <ele>1455</ele>
        <time>2019-06-30T11:14:17.000Z</time>
      </trkpt>
      <trkpt lat="42.98105" lon="0.54145">
        <ele>1454</ele>
        <time>2019-06-30T11:14:19.000Z</time>
      </trkpt>
      <trkpt lat="42.98106" lon="0.54143">
        <ele>1454</ele>
        <time>2019-06-30T11:14:21.000Z</time>
      </trkpt>
      <trkpt lat="42.98107" lon="0.54142">
        <ele>1454</ele>
        <time>2019-06-30T11:14:23.000Z</time>
      </trkpt>
      <trkpt lat="42.98108" lon="0.54141">
        <ele>1454</ele>
        <time>2019-06-30T11:14:25.000Z</time>
      </trkpt>
      <trkpt lat="42.98109" lon="0.5414">
        <ele>1454</ele>
        <time>2019-06-30T11:14:27.000Z</time>
      </trkpt>
      <trkpt lat="42.98111" lon="0.54139">
        <ele>1454</ele>
        <time>2019-06-30T11:14:29.000Z</time>
      </trkpt>
      <trkpt lat="42.98113" lon="0.54138">
        <ele>1454</ele>
        <time>2019-06-30T11:14:31.000Z</time>
      </trkpt>
      <trkpt lat="42.98115" lon="0.54137">
        <ele>1453</ele>
        <time>2019-06-30T11:14:33.000Z</time>
      </trkpt>
      <trkpt lat="42.98117" lon="0.54136">
        <ele>1453</ele>
        <time>2019-06-30T11:14:35.000Z</time>
      </trkpt>
      <trkpt lat="42.98118" lon="0.54136">
        <ele>1452</ele>
        <time>2019-06-30T11:14:37.000Z</time>
      </trkpt>
      <trkpt lat="42.98119" lon="0.54135">
        <ele>1452</ele>
        <time>2019-06-30T11:14:39.000Z</time>
      </trkpt>
      <trkpt lat="42.9812" lon="0.54135">
        <ele>1452</ele>
        <time>2019-06-30T11:14:41.000Z</time>
      </trkpt>
      <trkpt lat="42.9812" lon="0.54133">
        <ele>1452</ele>
        <time>2019-06-30T11:14:43.000Z</time>
      </trkpt>
      <trkpt lat="42.9812" lon="0.54133">
        <ele>1453</ele>
        <time>2019-06-30T11:14:45.000Z</time>
      </trkpt>
      <trkpt lat="42.9812" lon="0.54133">
        <ele>1452</ele>
        <time>2019-06-30T11:14:47.000Z</time>
      </trkpt>
      <trkpt lat="42.98121" lon="0.54134">
        <ele>1452</ele>
        <time>2019-06-30T11:14:49.000Z</time>
      </trkpt>
      <trkpt lat="42.98121" lon="0.54135">
        <ele>1452</ele>
        <time>2019-06-30T11:14:51.000Z</time>
      </trkpt>
      <trkpt lat="42.98121" lon="0.54134">
        <ele>1452</ele>
        <time>2019-06-30T11:14:53.000Z</time>
      </trkpt>
      <trkpt lat="42.98122" lon="0.54134">
        <ele>1452</ele>
        <time>2019-06-30T11:14:55.000Z</time>
      </trkpt>
      <trkpt lat="42.98122" lon="0.54132">
        <ele>1452</ele>
        <time>2019-06-30T11:14:57.000Z</time>
      </trkpt>
      <trkpt lat="42.98123" lon="0.54131">
        <ele>1452</ele>
        <time>2019-06-30T11:14:59.000Z</time>
      </trkpt>
      <trkpt lat="42.98124" lon="0.54131">
        <ele>1452</ele>
        <time>2019-06-30T11:15:01.000Z</time>
      </trkpt>
      <trkpt lat="42.98125" lon="0.5413">
        <ele>1451</ele>
        <time>2019-06-30T11:15:03.000Z</time>
      </trkpt>
      <trkpt lat="42.98126" lon="0.54128">
        <ele>1452</ele>
        <time>2019-06-30T11:15:05.000Z</time>
      </trkpt>
      <trkpt lat="42.98127" lon="0.54126">
        <ele>1452</ele>
        <time>2019-06-30T11:15:07.000Z</time>
      </trkpt>
      <trkpt lat="42.98127" lon="0.54126">
        <ele>1452</ele>
        <time>2019-06-30T11:15:09.000Z</time>
      </trkpt>
      <trkpt lat="42.98128" lon="0.54124">
        <ele>1452</ele>
        <time>2019-06-30T11:15:11.000Z</time>
      </trkpt>
      <trkpt lat="42.98129" lon="0.54124">
        <ele>1452</ele>
        <time>2019-06-30T11:15:13.000Z</time>
      </trkpt>
      <trkpt lat="42.9813" lon="0.54122">
        <ele>1452</ele>
        <time>2019-06-30T11:15:15.000Z</time>
      </trkpt>
      <trkpt lat="42.98132" lon="0.54121">
        <ele>1452</ele>
        <time>2019-06-30T11:15:17.000Z</time>
      </trkpt>
      <trkpt lat="42.98133" lon="0.54122">
        <ele>1451</ele>
        <time>2019-06-30T11:15:19.000Z</time>
      </trkpt>
      <trkpt lat="42.98134" lon="0.54121">
        <ele>1451</ele>
        <time>2019-06-30T11:15:21.000Z</time>
      </trkpt>
      <trkpt lat="42.98135" lon="0.5412">
        <ele>1451</ele>
        <time>2019-06-30T11:15:23.000Z</time>
      </trkpt>
      <trkpt lat="42.98136" lon="0.5412">
        <ele>1450</ele>
        <time>2019-06-30T11:15:25.000Z</time>
      </trkpt>
      <trkpt lat="42.98137" lon="0.54119">
        <ele>1450</ele>
        <time>2019-06-30T11:15:27.000Z</time>
      </trkpt>
      <trkpt lat="42.98138" lon="0.54118">
        <ele>1450</ele>
        <time>2019-06-30T11:15:29.000Z</time>
      </trkpt>
      <trkpt lat="42.98139" lon="0.54117">
        <ele>1450</ele>
        <time>2019-06-30T11:15:31.000Z</time>
      </trkpt>
      <trkpt lat="42.98139" lon="0.54116">
        <ele>1450</ele>
        <time>2019-06-30T11:15:33.000Z</time>
      </trkpt>
      <trkpt lat="42.98139" lon="0.54115">
        <ele>1450</ele>
        <time>2019-06-30T11:15:35.000Z</time>
      </trkpt>
      <trkpt lat="42.98139" lon="0.54114">
        <ele>1451</ele>
        <time>2019-06-30T11:15:37.000Z</time>
      </trkpt>
      <trkpt lat="42.98139" lon="0.54113">
        <ele>1451</ele>
        <time>2019-06-30T11:15:39.000Z</time>
      </trkpt>
      <trkpt lat="42.9814" lon="0.54112">
        <ele>1451</ele>
        <time>2019-06-30T11:15:41.000Z</time>
      </trkpt>
      <trkpt lat="42.98142" lon="0.54112">
        <ele>1450</ele>
        <time>2019-06-30T11:15:43.000Z</time>
      </trkpt>
      <trkpt lat="42.98142" lon="0.54111">
        <ele>1450</ele>
        <time>2019-06-30T11:15:45.000Z</time>
      </trkpt>
      <trkpt lat="42.98143" lon="0.5411">
        <ele>1451</ele>
        <time>2019-06-30T11:15:47.000Z</time>
      </trkpt>
      <trkpt lat="42.98144" lon="0.54108">
        <ele>1451</ele>
        <time>2019-06-30T11:15:49.000Z</time>
      </trkpt>
      <trkpt lat="42.98144" lon="0.54106">
        <ele>1451</ele>
        <time>2019-06-30T11:15:51.000Z</time>
      </trkpt>
      <trkpt lat="42.98146" lon="0.54105">
        <ele>1451</ele>
        <time>2019-06-30T11:15:53.000Z</time>
      </trkpt>
      <trkpt lat="42.98146" lon="0.54104">
        <ele>1451</ele>
        <time>2019-06-30T11:15:55.000Z</time>
      </trkpt>
      <trkpt lat="42.98147" lon="0.54104">
        <ele>1451</ele>
        <time>2019-06-30T11:15:57.000Z</time>
      </trkpt>
      <trkpt lat="42.98147" lon="0.54103">
        <ele>1451</ele>
        <time>2019-06-30T11:15:59.000Z</time>
      </trkpt>
      <trkpt lat="42.98148" lon="0.54102">
        <ele>1452</ele>
        <time>2019-06-30T11:16:01.000Z</time>
      </trkpt>
      <trkpt lat="42.98148" lon="0.54101">
        <ele>1453</ele>
        <time>2019-06-30T11:16:03.000Z</time>
      </trkpt>
      <trkpt lat="42.98147" lon="0.54099">
        <ele>1453</ele>
        <time>2019-06-30T11:16:05.000Z</time>
      </trkpt>
      <trkpt lat="42.98148" lon="0.54098">
        <ele>1454</ele>
        <time>2019-06-30T11:16:07.000Z</time>
      </trkpt>
      <trkpt lat="42.98148" lon="0.54096">
        <ele>1455</ele>
        <time>2019-06-30T11:16:09.000Z</time>
      </trkpt>
      <trkpt lat="42.98148" lon="0.54095">
        <ele>1455</ele>
        <time>2019-06-30T11:16:11.000Z</time>
      </trkpt>
      <trkpt lat="42.98148" lon="0.54095">
        <ele>1455</ele>
        <time>2019-06-30T11:16:13.000Z</time>
      </trkpt>
      <trkpt lat="42.98148" lon="0.54094">
        <ele>1455</ele>
        <time>2019-06-30T11:16:15.000Z</time>
      </trkpt>
      <trkpt lat="42.98149" lon="0.54093">
        <ele>1456</ele>
        <time>2019-06-30T11:16:17.000Z</time>
      </trkpt>
      <trkpt lat="42.98149" lon="0.54093">
        <ele>1456</ele>
        <time>2019-06-30T11:16:19.000Z</time>
      </trkpt>
      <trkpt lat="42.98149" lon="0.54092">
        <ele>1456</ele>
        <time>2019-06-30T11:16:21.000Z</time>
      </trkpt>
      <trkpt lat="42.98149" lon="0.54092">
        <ele>1456</ele>
        <time>2019-06-30T11:16:23.000Z</time>
      </trkpt>
      <trkpt lat="42.98149" lon="0.54092">
        <ele>1456</ele>
        <time>2019-06-30T11:16:25.000Z</time>
      </trkpt>
      <trkpt lat="42.98149" lon="0.54092">
        <ele>1456</ele>
        <time>2019-06-30T11:16:27.000Z</time>
      </trkpt>
      <trkpt lat="42.9815" lon="0.54092">
        <ele>1456</ele>
        <time>2019-06-30T11:16:29.000Z</time>
      </trkpt>
      <trkpt lat="42.98151" lon="0.54092">
        <ele>1456</ele>
        <time>2019-06-30T11:16:31.000Z</time>
      </trkpt>
      <trkpt lat="42.98152" lon="0.54093">
        <ele>1455</ele>
        <time>2019-06-30T11:16:33.000Z</time>
      </trkpt>
      <trkpt lat="42.98153" lon="0.54094">
        <ele>1454</ele>
        <time>2019-06-30T11:16:35.000Z</time>
      </trkpt>
      <trkpt lat="42.98153" lon="0.54095">
        <ele>1454</ele>
        <time>2019-06-30T11:16:37.000Z</time>
      </trkpt>
      <trkpt lat="42.98153" lon="0.54096">
        <ele>1453</ele>
        <time>2019-06-30T11:16:39.000Z</time>
      </trkpt>
      <trkpt lat="42.98154" lon="0.54096">
        <ele>1453</ele>
        <time>2019-06-30T11:16:41.000Z</time>
      </trkpt>
      <trkpt lat="42.98154" lon="0.54096">
        <ele>1453</ele>
        <time>2019-06-30T11:16:43.000Z</time>
      </trkpt>
      <trkpt lat="42.98154" lon="0.54096">
        <ele>1453</ele>
        <time>2019-06-30T11:16:45.000Z</time>
      </trkpt>
      <trkpt lat="42.98154" lon="0.54096">
        <ele>1453</ele>
        <time>2019-06-30T11:16:47.000Z</time>
      </trkpt>
      <trkpt lat="42.98154" lon="0.54097">
        <ele>1453</ele>
        <time>2019-06-30T11:16:49.000Z</time>
      </trkpt>
      <trkpt lat="42.98154" lon="0.54096">
        <ele>1453</ele>
        <time>2019-06-30T11:16:51.000Z</time>
      </trkpt>
      <trkpt lat="42.98154" lon="0.54096">
        <ele>1453</ele>
        <time>2019-06-30T11:16:53.000Z</time>
      </trkpt>
      <trkpt lat="42.98154" lon="0.54095">
        <ele>1454</ele>
        <time>2019-06-30T11:16:55.000Z</time>
      </trkpt>
      <trkpt lat="42.98154" lon="0.54094">
        <ele>1454</ele>
        <time>2019-06-30T11:16:57.000Z</time>
      </trkpt>
      <trkpt lat="42.98155" lon="0.54093">
        <ele>1454</ele>
        <time>2019-06-30T11:16:59.000Z</time>
      </trkpt>
      <trkpt lat="42.98155" lon="0.54093">
        <ele>1454</ele>
        <time>2019-06-30T11:17:01.000Z</time>
      </trkpt>
      <trkpt lat="42.98155" lon="0.54091">
        <ele>1455</ele>
        <time>2019-06-30T11:17:03.000Z</time>
      </trkpt>
      <trkpt lat="42.98155" lon="0.54089">
        <ele>1456</ele>
        <time>2019-06-30T11:17:05.000Z</time>
      </trkpt>
      <trkpt lat="42.98155" lon="0.54087">
        <ele>1457</ele>
        <time>2019-06-30T11:17:07.000Z</time>
      </trkpt>
      <trkpt lat="42.98155" lon="0.54085">
        <ele>1458</ele>
        <time>2019-06-30T11:17:09.000Z</time>
      </trkpt>
      <trkpt lat="42.98156" lon="0.54084">
        <ele>1458</ele>
        <time>2019-06-30T11:17:11.000Z</time>
      </trkpt>
      <trkpt lat="42.98157" lon="0.54085">
        <ele>1457</ele>
        <time>2019-06-30T11:17:13.000Z</time>
      </trkpt>
      <trkpt lat="42.98157" lon="0.54086">
        <ele>1457</ele>
        <time>2019-06-30T11:17:15.000Z</time>
      </trkpt>
      <trkpt lat="42.98156" lon="0.54087">
        <ele>1457</ele>
        <time>2019-06-30T11:17:17.000Z</time>
      </trkpt>
      <trkpt lat="42.98156" lon="0.54088">
        <ele>1456</ele>
        <time>2019-06-30T11:17:19.000Z</time>
      </trkpt>
      <trkpt lat="42.98155" lon="0.54088">
        <ele>1456</ele>
        <time>2019-06-30T11:17:21.000Z</time>
      </trkpt>
      <trkpt lat="42.98157" lon="0.54088">
        <ele>1456</ele>
        <time>2019-06-30T11:17:23.000Z</time>
      </trkpt>
      <trkpt lat="42.98158" lon="0.54087">
        <ele>1456</ele>
        <time>2019-06-30T11:17:25.000Z</time>
      </trkpt>
      <trkpt lat="42.98159" lon="0.54087">
        <ele>1456</ele>
        <time>2019-06-30T11:17:27.000Z</time>
      </trkpt>
      <trkpt lat="42.98159" lon="0.54087">
        <ele>1456</ele>
        <time>2019-06-30T11:17:29.000Z</time>
      </trkpt>
      <trkpt lat="42.98159" lon="0.54086">
        <ele>1456</ele>
        <time>2019-06-30T11:17:31.000Z</time>
      </trkpt>
      <trkpt lat="42.9816" lon="0.54085">
        <ele>1456</ele>
        <time>2019-06-30T11:17:33.000Z</time>
      </trkpt>
      <trkpt lat="42.98161" lon="0.54085">
        <ele>1456</ele>
        <time>2019-06-30T11:17:35.000Z</time>
      </trkpt>
      <trkpt lat="42.98161" lon="0.54085">
        <ele>1456</ele>
        <time>2019-06-30T11:17:37.000Z</time>
      </trkpt>
      <trkpt lat="42.98162" lon="0.54084">
        <ele>1456</ele>
        <time>2019-06-30T11:17:39.000Z</time>
      </trkpt>
      <trkpt lat="42.98163" lon="0.54083">
        <ele>1456</ele>
        <time>2019-06-30T11:17:41.000Z</time>
      </trkpt>
      <trkpt lat="42.98164" lon="0.54083">
        <ele>1456</ele>
        <time>2019-06-30T11:17:43.000Z</time>
      </trkpt>
      <trkpt lat="42.98165" lon="0.54082">
        <ele>1456</ele>
        <time>2019-06-30T11:17:45.000Z</time>
      </trkpt>
      <trkpt lat="42.98165" lon="0.54082">
        <ele>1456</ele>
        <time>2019-06-30T11:17:47.000Z</time>
      </trkpt>
      <trkpt lat="42.98166" lon="0.54081">
        <ele>1456</ele>
        <time>2019-06-30T11:17:49.000Z</time>
      </trkpt>
      <trkpt lat="42.98165" lon="0.5408">
        <ele>1457</ele>
        <time>2019-06-30T11:17:51.000Z</time>
      </trkpt>
      <trkpt lat="42.98166" lon="0.54079">
        <ele>1457</ele>
        <time>2019-06-30T11:17:53.000Z</time>
      </trkpt>
      <trkpt lat="42.98166" lon="0.54077">
        <ele>1458</ele>
        <time>2019-06-30T11:17:55.000Z</time>
      </trkpt>
      <trkpt lat="42.98167" lon="0.54076">
        <ele>1458</ele>
        <time>2019-06-30T11:17:57.000Z</time>
      </trkpt>
      <trkpt lat="42.98168" lon="0.54075">
        <ele>1459</ele>
        <time>2019-06-30T11:17:59.000Z</time>
      </trkpt>
      <trkpt lat="42.98168" lon="0.54074">
        <ele>1459</ele>
        <time>2019-06-30T11:18:01.000Z</time>
      </trkpt>
      <trkpt lat="42.98169" lon="0.54073">
        <ele>1459</ele>
        <time>2019-06-30T11:18:03.000Z</time>
      </trkpt>
      <trkpt lat="42.98169" lon="0.54071">
        <ele>1460</ele>
        <time>2019-06-30T11:18:05.000Z</time>
      </trkpt>
      <trkpt lat="42.98171" lon="0.54069">
        <ele>1461</ele>
        <time>2019-06-30T11:18:07.000Z</time>
      </trkpt>
      <trkpt lat="42.98171" lon="0.54068">
        <ele>1461</ele>
        <time>2019-06-30T11:18:09.000Z</time>
      </trkpt>
      <trkpt lat="42.98172" lon="0.54068">
        <ele>1461</ele>
        <time>2019-06-30T11:18:11.000Z</time>
      </trkpt>
      <trkpt lat="42.98172" lon="0.54068">
        <ele>1461</ele>
        <time>2019-06-30T11:18:13.000Z</time>
      </trkpt>
      <trkpt lat="42.98172" lon="0.54068">
        <ele>1461</ele>
        <time>2019-06-30T11:18:15.000Z</time>
      </trkpt>
      <trkpt lat="42.98173" lon="0.54068">
        <ele>1460</ele>
        <time>2019-06-30T11:18:17.000Z</time>
      </trkpt>
      <trkpt lat="42.98174" lon="0.54067">
        <ele>1460</ele>
        <time>2019-06-30T11:18:19.000Z</time>
      </trkpt>
      <trkpt lat="42.98176" lon="0.54066">
        <ele>1460</ele>
        <time>2019-06-30T11:18:21.000Z</time>
      </trkpt>
      <trkpt lat="42.98177" lon="0.54066">
        <ele>1460</ele>
        <time>2019-06-30T11:18:23.000Z</time>
      </trkpt>
      <trkpt lat="42.98178" lon="0.54065">
        <ele>1460</ele>
        <time>2019-06-30T11:18:25.000Z</time>
      </trkpt>
      <trkpt lat="42.98179" lon="0.54064">
        <ele>1460</ele>
        <time>2019-06-30T11:18:27.000Z</time>
      </trkpt>
      <trkpt lat="42.98181" lon="0.54063">
        <ele>1460</ele>
        <time>2019-06-30T11:18:29.000Z</time>
      </trkpt>
      <trkpt lat="42.98182" lon="0.54062">
        <ele>1461</ele>
        <time>2019-06-30T11:18:31.000Z</time>
      </trkpt>
      <trkpt lat="42.98184" lon="0.54061">
        <ele>1461</ele>
        <time>2019-06-30T11:18:33.000Z</time>
      </trkpt>
      <trkpt lat="42.98186" lon="0.54059">
        <ele>1461</ele>
        <time>2019-06-30T11:18:35.000Z</time>
      </trkpt>
      <trkpt lat="42.98187" lon="0.54059">
        <ele>1461</ele>
        <time>2019-06-30T11:18:37.000Z</time>
      </trkpt>
      <trkpt lat="42.98189" lon="0.54057">
        <ele>1461</ele>
        <time>2019-06-30T11:18:39.000Z</time>
      </trkpt>
      <trkpt lat="42.9819" lon="0.54056">
        <ele>1461</ele>
        <time>2019-06-30T11:18:41.000Z</time>
      </trkpt>
      <trkpt lat="42.9819" lon="0.54055">
        <ele>1461</ele>
        <time>2019-06-30T11:18:43.000Z</time>
      </trkpt>
      <trkpt lat="42.98191" lon="0.54055">
        <ele>1461</ele>
        <time>2019-06-30T11:18:45.000Z</time>
      </trkpt>
      <trkpt lat="42.98192" lon="0.54052">
        <ele>1461</ele>
        <time>2019-06-30T11:18:47.000Z</time>
      </trkpt>
      <trkpt lat="42.98194" lon="0.5405">
        <ele>1462</ele>
        <time>2019-06-30T11:18:49.000Z</time>
      </trkpt>
      <trkpt lat="42.98195" lon="0.54047">
        <ele>1462</ele>
        <time>2019-06-30T11:18:51.000Z</time>
      </trkpt>
      <trkpt lat="42.98197" lon="0.54045">
        <ele>1462</ele>
        <time>2019-06-30T11:18:53.000Z</time>
      </trkpt>
      <trkpt lat="42.98199" lon="0.54045">
        <ele>1462</ele>
        <time>2019-06-30T11:18:55.000Z</time>
      </trkpt>
      <trkpt lat="42.98201" lon="0.54044">
        <ele>1461</ele>
        <time>2019-06-30T11:18:57.000Z</time>
      </trkpt>
      <trkpt lat="42.98202" lon="0.54043">
        <ele>1461</ele>
        <time>2019-06-30T11:18:59.000Z</time>
      </trkpt>
      <trkpt lat="42.98203" lon="0.54042">
        <ele>1461</ele>
        <time>2019-06-30T11:19:01.000Z</time>
      </trkpt>
      <trkpt lat="42.98204" lon="0.54041">
        <ele>1461</ele>
        <time>2019-06-30T11:19:03.000Z</time>
      </trkpt>
      <trkpt lat="42.98206" lon="0.54039">
        <ele>1461</ele>
        <time>2019-06-30T11:19:05.000Z</time>
      </trkpt>
      <trkpt lat="42.98207" lon="0.54038">
        <ele>1461</ele>
        <time>2019-06-30T11:19:07.000Z</time>
      </trkpt>
      <trkpt lat="42.98209" lon="0.54037">
        <ele>1460</ele>
        <time>2019-06-30T11:19:09.000Z</time>
      </trkpt>
      <trkpt lat="42.98211" lon="0.54035">
        <ele>1460</ele>
        <time>2019-06-30T11:19:11.000Z</time>
      </trkpt>
      <trkpt lat="42.98213" lon="0.54035">
        <ele>1459</ele>
        <time>2019-06-30T11:19:13.000Z</time>
      </trkpt>
      <trkpt lat="42.98215" lon="0.54035">
        <ele>1459</ele>
        <time>2019-06-30T11:19:15.000Z</time>
      </trkpt>
      <trkpt lat="42.98217" lon="0.54036">
        <ele>1458</ele>
        <time>2019-06-30T11:19:17.000Z</time>
      </trkpt>
      <trkpt lat="42.98219" lon="0.54035">
        <ele>1457</ele>
        <time>2019-06-30T11:19:19.000Z</time>
      </trkpt>
      <trkpt lat="42.98221" lon="0.54035">
        <ele>1457</ele>
        <time>2019-06-30T11:19:21.000Z</time>
      </trkpt>
      <trkpt lat="42.98223" lon="0.54034">
        <ele>1456</ele>
        <time>2019-06-30T11:19:23.000Z</time>
      </trkpt>
      <trkpt lat="42.98224" lon="0.54034">
        <ele>1456</ele>
        <time>2019-06-30T11:19:25.000Z</time>
      </trkpt>
      <trkpt lat="42.98226" lon="0.54033">
        <ele>1456</ele>
        <time>2019-06-30T11:19:27.000Z</time>
      </trkpt>
      <trkpt lat="42.98228" lon="0.54032">
        <ele>1455</ele>
        <time>2019-06-30T11:19:29.000Z</time>
      </trkpt>
      <trkpt lat="42.98229" lon="0.5403">
        <ele>1455</ele>
        <time>2019-06-30T11:19:31.000Z</time>
      </trkpt>
      <trkpt lat="42.98231" lon="0.54028">
        <ele>1456</ele>
        <time>2019-06-30T11:19:33.000Z</time>
      </trkpt>
      <trkpt lat="42.98232" lon="0.54027">
        <ele>1455</ele>
        <time>2019-06-30T11:19:35.000Z</time>
      </trkpt>
      <trkpt lat="42.98233" lon="0.54026">
        <ele>1455</ele>
        <time>2019-06-30T11:19:37.000Z</time>
      </trkpt>
      <trkpt lat="42.98233" lon="0.54025">
        <ele>1456</ele>
        <time>2019-06-30T11:19:39.000Z</time>
      </trkpt>
      <trkpt lat="42.98235" lon="0.54025">
        <ele>1455</ele>
        <time>2019-06-30T11:19:41.000Z</time>
      </trkpt>
      <trkpt lat="42.98236" lon="0.54023">
        <ele>1455</ele>
        <time>2019-06-30T11:19:43.000Z</time>
      </trkpt>
      <trkpt lat="42.98238" lon="0.54021">
        <ele>1455</ele>
        <time>2019-06-30T11:19:45.000Z</time>
      </trkpt>
      <trkpt lat="42.98239" lon="0.5402">
        <ele>1455</ele>
        <time>2019-06-30T11:19:47.000Z</time>
      </trkpt>
      <trkpt lat="42.98241" lon="0.54017">
        <ele>1455</ele>
        <time>2019-06-30T11:19:49.000Z</time>
      </trkpt>
      <trkpt lat="42.98242" lon="0.54016">
        <ele>1455</ele>
        <time>2019-06-30T11:19:51.000Z</time>
      </trkpt>
      <trkpt lat="42.98243" lon="0.54014">
        <ele>1455</ele>
        <time>2019-06-30T11:19:53.000Z</time>
      </trkpt>
      <trkpt lat="42.98245" lon="0.54013">
        <ele>1455</ele>
        <time>2019-06-30T11:19:55.000Z</time>
      </trkpt>
      <trkpt lat="42.98246" lon="0.54012">
        <ele>1455</ele>
        <time>2019-06-30T11:19:57.000Z</time>
      </trkpt>
      <trkpt lat="42.98247" lon="0.54011">
        <ele>1455</ele>
        <time>2019-06-30T11:19:59.000Z</time>
      </trkpt>
      <trkpt lat="42.98248" lon="0.54009">
        <ele>1455</ele>
        <time>2019-06-30T11:20:01.000Z</time>
      </trkpt>
      <trkpt lat="42.9825" lon="0.54008">
        <ele>1455</ele>
        <time>2019-06-30T11:20:03.000Z</time>
      </trkpt>
      <trkpt lat="42.98251" lon="0.54005">
        <ele>1455</ele>
        <time>2019-06-30T11:20:05.000Z</time>
      </trkpt>
      <trkpt lat="42.98254" lon="0.54002">
        <ele>1455</ele>
        <time>2019-06-30T11:20:07.000Z</time>
      </trkpt>
      <trkpt lat="42.98255" lon="0.54001">
        <ele>1454</ele>
        <time>2019-06-30T11:20:09.000Z</time>
      </trkpt>
      <trkpt lat="42.98257" lon="0.54">
        <ele>1454</ele>
        <time>2019-06-30T11:20:11.000Z</time>
      </trkpt>
      <trkpt lat="42.98258" lon="0.53998">
        <ele>1454</ele>
        <time>2019-06-30T11:20:13.000Z</time>
      </trkpt>
      <trkpt lat="42.9826" lon="0.53996">
        <ele>1454</ele>
        <time>2019-06-30T11:20:15.000Z</time>
      </trkpt>
      <trkpt lat="42.98261" lon="0.53995">
        <ele>1454</ele>
        <time>2019-06-30T11:20:17.000Z</time>
      </trkpt>
      <trkpt lat="42.98263" lon="0.53994">
        <ele>1454</ele>
        <time>2019-06-30T11:20:19.000Z</time>
      </trkpt>
      <trkpt lat="42.98265" lon="0.53993">
        <ele>1453</ele>
        <time>2019-06-30T11:20:21.000Z</time>
      </trkpt>
      <trkpt lat="42.98268" lon="0.53991">
        <ele>1453</ele>
        <time>2019-06-30T11:20:23.000Z</time>
      </trkpt>
      <trkpt lat="42.9827" lon="0.5399">
        <ele>1453</ele>
        <time>2019-06-30T11:20:25.000Z</time>
      </trkpt>
      <trkpt lat="42.98271" lon="0.5399">
        <ele>1452</ele>
        <time>2019-06-30T11:20:27.000Z</time>
      </trkpt>
      <trkpt lat="42.98273" lon="0.5399">
        <ele>1452</ele>
        <time>2019-06-30T11:20:29.000Z</time>
      </trkpt>
      <trkpt lat="42.98275" lon="0.53988">
        <ele>1451</ele>
        <time>2019-06-30T11:20:31.000Z</time>
      </trkpt>
      <trkpt lat="42.98276" lon="0.53988">
        <ele>1451</ele>
        <time>2019-06-30T11:20:33.000Z</time>
      </trkpt>
      <trkpt lat="42.98278" lon="0.53987">
        <ele>1451</ele>
        <time>2019-06-30T11:20:35.000Z</time>
      </trkpt>
      <trkpt lat="42.98279" lon="0.53986">
        <ele>1450</ele>
        <time>2019-06-30T11:20:37.000Z</time>
      </trkpt>
      <trkpt lat="42.9828" lon="0.53984">
        <ele>1451</ele>
        <time>2019-06-30T11:20:39.000Z</time>
      </trkpt>
      <trkpt lat="42.9828" lon="0.53983">
        <ele>1451</ele>
        <time>2019-06-30T11:20:41.000Z</time>
      </trkpt>
      <trkpt lat="42.98281" lon="0.53984">
        <ele>1450</ele>
        <time>2019-06-30T11:20:43.000Z</time>
      </trkpt>
      <trkpt lat="42.98284" lon="0.53984">
        <ele>1449</ele>
        <time>2019-06-30T11:20:45.000Z</time>
      </trkpt>
      <trkpt lat="42.98285" lon="0.53982">
        <ele>1449</ele>
        <time>2019-06-30T11:20:47.000Z</time>
      </trkpt>
      <trkpt lat="42.98288" lon="0.53979">
        <ele>1449</ele>
        <time>2019-06-30T11:20:49.000Z</time>
      </trkpt>
      <trkpt lat="42.9829" lon="0.53978">
        <ele>1449</ele>
        <time>2019-06-30T11:20:51.000Z</time>
      </trkpt>
      <trkpt lat="42.98293" lon="0.53976">
        <ele>1448</ele>
        <time>2019-06-30T11:20:53.000Z</time>
      </trkpt>
      <trkpt lat="42.98295" lon="0.53976">
        <ele>1447</ele>
        <time>2019-06-30T11:20:55.000Z</time>
      </trkpt>
      <trkpt lat="42.98299" lon="0.53974">
        <ele>1446</ele>
        <time>2019-06-30T11:20:57.000Z</time>
      </trkpt>
      <trkpt lat="42.98302" lon="0.53974">
        <ele>1445</ele>
        <time>2019-06-30T11:20:59.000Z</time>
      </trkpt>
      <trkpt lat="42.98305" lon="0.53973">
        <ele>1444</ele>
        <time>2019-06-30T11:21:01.000Z</time>
      </trkpt>
      <trkpt lat="42.98307" lon="0.53972">
        <ele>1444</ele>
        <time>2019-06-30T11:21:03.000Z</time>
      </trkpt>
      <trkpt lat="42.9831" lon="0.53972">
        <ele>1443</ele>
        <time>2019-06-30T11:21:05.000Z</time>
      </trkpt>
      <trkpt lat="42.98312" lon="0.53971">
        <ele>1442</ele>
        <time>2019-06-30T11:21:07.000Z</time>
      </trkpt>
      <trkpt lat="42.98314" lon="0.53971">
        <ele>1441</ele>
        <time>2019-06-30T11:21:09.000Z</time>
      </trkpt>
      <trkpt lat="42.98316" lon="0.5397">
        <ele>1441</ele>
        <time>2019-06-30T11:21:11.000Z</time>
      </trkpt>
      <trkpt lat="42.98318" lon="0.5397">
        <ele>1440</ele>
        <time>2019-06-30T11:21:13.000Z</time>
      </trkpt>
      <trkpt lat="42.9832" lon="0.53969">
        <ele>1440</ele>
        <time>2019-06-30T11:21:15.000Z</time>
      </trkpt>
      <trkpt lat="42.98321" lon="0.53968">
        <ele>1439</ele>
        <time>2019-06-30T11:21:17.000Z</time>
      </trkpt>
      <trkpt lat="42.98323" lon="0.53967">
        <ele>1439</ele>
        <time>2019-06-30T11:21:19.000Z</time>
      </trkpt>
      <trkpt lat="42.98324" lon="0.53967">
        <ele>1439</ele>
        <time>2019-06-30T11:21:21.000Z</time>
      </trkpt>
      <trkpt lat="42.98326" lon="0.53966">
        <ele>1438</ele>
        <time>2019-06-30T11:21:23.000Z</time>
      </trkpt>
      <trkpt lat="42.98327" lon="0.53966">
        <ele>1438</ele>
        <time>2019-06-30T11:21:25.000Z</time>
      </trkpt>
      <trkpt lat="42.98329" lon="0.53965">
        <ele>1437</ele>
        <time>2019-06-30T11:21:27.000Z</time>
      </trkpt>
      <trkpt lat="42.9833" lon="0.53964">
        <ele>1437</ele>
        <time>2019-06-30T11:21:29.000Z</time>
      </trkpt>
      <trkpt lat="42.98332" lon="0.53964">
        <ele>1436</ele>
        <time>2019-06-30T11:21:31.000Z</time>
      </trkpt>
      <trkpt lat="42.98333" lon="0.53964">
        <ele>1436</ele>
        <time>2019-06-30T11:21:33.000Z</time>
      </trkpt>
      <trkpt lat="42.98334" lon="0.53963">
        <ele>1436</ele>
        <time>2019-06-30T11:21:35.000Z</time>
      </trkpt>
      <trkpt lat="42.98337" lon="0.53963">
        <ele>1435</ele>
        <time>2019-06-30T11:21:37.000Z</time>
      </trkpt>
      <trkpt lat="42.98338" lon="0.53962">
        <ele>1435</ele>
        <time>2019-06-30T11:21:39.000Z</time>
      </trkpt>
      <trkpt lat="42.9834" lon="0.53961">
        <ele>1434</ele>
        <time>2019-06-30T11:21:41.000Z</time>
      </trkpt>
      <trkpt lat="42.98342" lon="0.53961">
        <ele>1433</ele>
        <time>2019-06-30T11:21:43.000Z</time>
      </trkpt>
      <trkpt lat="42.98343" lon="0.53961">
        <ele>1433</ele>
        <time>2019-06-30T11:21:45.000Z</time>
      </trkpt>
      <trkpt lat="42.98344" lon="0.53959">
        <ele>1433</ele>
        <time>2019-06-30T11:21:47.000Z</time>
      </trkpt>
      <trkpt lat="42.98346" lon="0.53959">
        <ele>1433</ele>
        <time>2019-06-30T11:21:49.000Z</time>
      </trkpt>
      <trkpt lat="42.98347" lon="0.5396">
        <ele>1432</ele>
        <time>2019-06-30T11:21:51.000Z</time>
      </trkpt>
      <trkpt lat="42.98348" lon="0.5396">
        <ele>1432</ele>
        <time>2019-06-30T11:21:53.000Z</time>
      </trkpt>
      <trkpt lat="42.98349" lon="0.5396">
        <ele>1431</ele>
        <time>2019-06-30T11:21:55.000Z</time>
      </trkpt>
      <trkpt lat="42.98351" lon="0.53961">
        <ele>1431</ele>
        <time>2019-06-30T11:21:57.000Z</time>
      </trkpt>
      <trkpt lat="42.98352" lon="0.53962">
        <ele>1430</ele>
        <time>2019-06-30T11:21:59.000Z</time>
      </trkpt>
      <trkpt lat="42.98353" lon="0.53962">
        <ele>1430</ele>
        <time>2019-06-30T11:22:01.000Z</time>
      </trkpt>
      <trkpt lat="42.98354" lon="0.53962">
        <ele>1429</ele>
        <time>2019-06-30T11:22:03.000Z</time>
      </trkpt>
      <trkpt lat="42.98354" lon="0.53961">
        <ele>1429</ele>
        <time>2019-06-30T11:22:05.000Z</time>
      </trkpt>
      <trkpt lat="42.98355" lon="0.53962">
        <ele>1429</ele>
        <time>2019-06-30T11:22:07.000Z</time>
      </trkpt>
      <trkpt lat="42.98355" lon="0.53962">
        <ele>1429</ele>
        <time>2019-06-30T11:22:09.000Z</time>
      </trkpt>
      <trkpt lat="42.98354" lon="0.53962">
        <ele>1429</ele>
        <time>2019-06-30T11:22:11.000Z</time>
      </trkpt>
      <trkpt lat="42.98354" lon="0.53961">
        <ele>1430</ele>
        <time>2019-06-30T11:22:13.000Z</time>
      </trkpt>
      <trkpt lat="42.98355" lon="0.5396">
        <ele>1429</ele>
        <time>2019-06-30T11:22:15.000Z</time>
      </trkpt>
      <trkpt lat="42.98356" lon="0.53959">
        <ele>1429</ele>
        <time>2019-06-30T11:22:17.000Z</time>
      </trkpt>
      <trkpt lat="42.98358" lon="0.5396">
        <ele>1429</ele>
        <time>2019-06-30T11:22:19.000Z</time>
      </trkpt>
      <trkpt lat="42.9836" lon="0.53962">
        <ele>1427</ele>
        <time>2019-06-30T11:22:21.000Z</time>
      </trkpt>
      <trkpt lat="42.98362" lon="0.53963">
        <ele>1427</ele>
        <time>2019-06-30T11:22:23.000Z</time>
      </trkpt>
      <trkpt lat="42.98363" lon="0.53962">
        <ele>1426</ele>
        <time>2019-06-30T11:22:25.000Z</time>
      </trkpt>
      <trkpt lat="42.98364" lon="0.53962">
        <ele>1426</ele>
        <time>2019-06-30T11:22:27.000Z</time>
      </trkpt>
      <trkpt lat="42.98367" lon="0.53961">
        <ele>1426</ele>
        <time>2019-06-30T11:22:29.000Z</time>
      </trkpt>
      <trkpt lat="42.98368" lon="0.53959">
        <ele>1425</ele>
        <time>2019-06-30T11:22:31.000Z</time>
      </trkpt>
      <trkpt lat="42.9837" lon="0.53956">
        <ele>1426</ele>
        <time>2019-06-30T11:22:33.000Z</time>
      </trkpt>
      <trkpt lat="42.98371" lon="0.53954">
        <ele>1426</ele>
        <time>2019-06-30T11:22:35.000Z</time>
      </trkpt>
      <trkpt lat="42.98371" lon="0.53952">
        <ele>1426</ele>
        <time>2019-06-30T11:22:37.000Z</time>
      </trkpt>
      <trkpt lat="42.98373" lon="0.53951">
        <ele>1426</ele>
        <time>2019-06-30T11:22:39.000Z</time>
      </trkpt>
      <trkpt lat="42.98374" lon="0.53951">
        <ele>1426</ele>
        <time>2019-06-30T11:22:41.000Z</time>
      </trkpt>
      <trkpt lat="42.98375" lon="0.5395">
        <ele>1426</ele>
        <time>2019-06-30T11:22:43.000Z</time>
      </trkpt>
      <trkpt lat="42.98376" lon="0.53949">
        <ele>1425</ele>
        <time>2019-06-30T11:22:45.000Z</time>
      </trkpt>
      <trkpt lat="42.98378" lon="0.53948">
        <ele>1425</ele>
        <time>2019-06-30T11:22:47.000Z</time>
      </trkpt>
      <trkpt lat="42.98379" lon="0.53947">
        <ele>1425</ele>
        <time>2019-06-30T11:22:49.000Z</time>
      </trkpt>
      <trkpt lat="42.98381" lon="0.53947">
        <ele>1424</ele>
        <time>2019-06-30T11:22:51.000Z</time>
      </trkpt>
      <trkpt lat="42.98382" lon="0.53947">
        <ele>1424</ele>
        <time>2019-06-30T11:22:53.000Z</time>
      </trkpt>
      <trkpt lat="42.98384" lon="0.53946">
        <ele>1424</ele>
        <time>2019-06-30T11:22:55.000Z</time>
      </trkpt>
      <trkpt lat="42.98385" lon="0.53943">
        <ele>1424</ele>
        <time>2019-06-30T11:22:57.000Z</time>
      </trkpt>
      <trkpt lat="42.98386" lon="0.53943">
        <ele>1424</ele>
        <time>2019-06-30T11:22:59.000Z</time>
      </trkpt>
      <trkpt lat="42.98387" lon="0.53942">
        <ele>1424</ele>
        <time>2019-06-30T11:23:01.000Z</time>
      </trkpt>
      <trkpt lat="42.98388" lon="0.53941">
        <ele>1423</ele>
        <time>2019-06-30T11:23:03.000Z</time>
      </trkpt>
      <trkpt lat="42.9839" lon="0.5394">
        <ele>1423</ele>
        <time>2019-06-30T11:23:05.000Z</time>
      </trkpt>
      <trkpt lat="42.98392" lon="0.53937">
        <ele>1423</ele>
        <time>2019-06-30T11:23:07.000Z</time>
      </trkpt>
      <trkpt lat="42.98394" lon="0.53936">
        <ele>1423</ele>
        <time>2019-06-30T11:23:09.000Z</time>
      </trkpt>
      <trkpt lat="42.98395" lon="0.53934">
        <ele>1423</ele>
        <time>2019-06-30T11:23:11.000Z</time>
      </trkpt>
      <trkpt lat="42.98397" lon="0.53933">
        <ele>1422</ele>
        <time>2019-06-30T11:23:13.000Z</time>
      </trkpt>
      <trkpt lat="42.98399" lon="0.5393">
        <ele>1422</ele>
        <time>2019-06-30T11:23:15.000Z</time>
      </trkpt>
      <trkpt lat="42.984" lon="0.53929">
        <ele>1422</ele>
        <time>2019-06-30T11:23:17.000Z</time>
      </trkpt>
      <trkpt lat="42.98402" lon="0.53928">
        <ele>1422</ele>
        <time>2019-06-30T11:23:19.000Z</time>
      </trkpt>
      <trkpt lat="42.98404" lon="0.53927">
        <ele>1422</ele>
        <time>2019-06-30T11:23:21.000Z</time>
      </trkpt>
      <trkpt lat="42.98405" lon="0.53926">
        <ele>1421</ele>
        <time>2019-06-30T11:23:23.000Z</time>
      </trkpt>
      <trkpt lat="42.98408" lon="0.53924">
        <ele>1421</ele>
        <time>2019-06-30T11:23:25.000Z</time>
      </trkpt>
      <trkpt lat="42.9841" lon="0.53922">
        <ele>1421</ele>
        <time>2019-06-30T11:23:27.000Z</time>
      </trkpt>
      <trkpt lat="42.98411" lon="0.53921">
        <ele>1420</ele>
        <time>2019-06-30T11:23:29.000Z</time>
      </trkpt>
      <trkpt lat="42.98414" lon="0.5392">
        <ele>1419</ele>
        <time>2019-06-30T11:23:31.000Z</time>
      </trkpt>
      <trkpt lat="42.98415" lon="0.53919">
        <ele>1419</ele>
        <time>2019-06-30T11:23:33.000Z</time>
      </trkpt>
      <trkpt lat="42.98417" lon="0.53918">
        <ele>1419</ele>
        <time>2019-06-30T11:23:35.000Z</time>
      </trkpt>
      <trkpt lat="42.98419" lon="0.53917">
        <ele>1418</ele>
        <time>2019-06-30T11:23:37.000Z</time>
      </trkpt>
      <trkpt lat="42.98422" lon="0.53916">
        <ele>1418</ele>
        <time>2019-06-30T11:23:39.000Z</time>
      </trkpt>
      <trkpt lat="42.98424" lon="0.53914">
        <ele>1418</ele>
        <time>2019-06-30T11:23:41.000Z</time>
      </trkpt>
      <trkpt lat="42.98425" lon="0.53912">
        <ele>1417</ele>
        <time>2019-06-30T11:23:43.000Z</time>
      </trkpt>
      <trkpt lat="42.98426" lon="0.53912">
        <ele>1417</ele>
        <time>2019-06-30T11:23:45.000Z</time>
      </trkpt>
      <trkpt lat="42.98428" lon="0.53911">
        <ele>1416</ele>
        <time>2019-06-30T11:23:47.000Z</time>
      </trkpt>
      <trkpt lat="42.9843" lon="0.5391">
        <ele>1415</ele>
        <time>2019-06-30T11:23:49.000Z</time>
      </trkpt>
      <trkpt lat="42.98432" lon="0.53909">
        <ele>1414</ele>
        <time>2019-06-30T11:23:51.000Z</time>
      </trkpt>
      <trkpt lat="42.98434" lon="0.53907">
        <ele>1414</ele>
        <time>2019-06-30T11:23:53.000Z</time>
      </trkpt>
      <trkpt lat="42.98435" lon="0.53905">
        <ele>1414</ele>
        <time>2019-06-30T11:23:55.000Z</time>
      </trkpt>
      <trkpt lat="42.98436" lon="0.53903">
        <ele>1414</ele>
        <time>2019-06-30T11:23:57.000Z</time>
      </trkpt>
      <trkpt lat="42.98437" lon="0.539">
        <ele>1413</ele>
        <time>2019-06-30T11:23:59.000Z</time>
      </trkpt>
      <trkpt lat="42.98437" lon="0.53898">
        <ele>1414</ele>
        <time>2019-06-30T11:24:01.000Z</time>
      </trkpt>
      <trkpt lat="42.98439" lon="0.53895">
        <ele>1414</ele>
        <time>2019-06-30T11:24:03.000Z</time>
      </trkpt>
      <trkpt lat="42.9844" lon="0.53893">
        <ele>1414</ele>
        <time>2019-06-30T11:24:05.000Z</time>
      </trkpt>
      <trkpt lat="42.98441" lon="0.5389">
        <ele>1414</ele>
        <time>2019-06-30T11:24:07.000Z</time>
      </trkpt>
      <trkpt lat="42.98441" lon="0.53889">
        <ele>1414</ele>
        <time>2019-06-30T11:24:09.000Z</time>
      </trkpt>
      <trkpt lat="42.98443" lon="0.53887">
        <ele>1413</ele>
        <time>2019-06-30T11:24:11.000Z</time>
      </trkpt>
      <trkpt lat="42.98446" lon="0.53885">
        <ele>1413</ele>
        <time>2019-06-30T11:24:13.000Z</time>
      </trkpt>
      <trkpt lat="42.98446" lon="0.53883">
        <ele>1412</ele>
        <time>2019-06-30T11:24:15.000Z</time>
      </trkpt>
      <trkpt lat="42.98448" lon="0.5388">
        <ele>1412</ele>
        <time>2019-06-30T11:24:17.000Z</time>
      </trkpt>
      <trkpt lat="42.98449" lon="0.53879">
        <ele>1412</ele>
        <time>2019-06-30T11:24:19.000Z</time>
      </trkpt>
      <trkpt lat="42.98451" lon="0.53877">
        <ele>1411</ele>
        <time>2019-06-30T11:24:21.000Z</time>
      </trkpt>
      <trkpt lat="42.98451" lon="0.53876">
        <ele>1411</ele>
        <time>2019-06-30T11:24:23.000Z</time>
      </trkpt>
      <trkpt lat="42.98453" lon="0.53874">
        <ele>1411</ele>
        <time>2019-06-30T11:24:25.000Z</time>
      </trkpt>
      <trkpt lat="42.98454" lon="0.53872">
        <ele>1410</ele>
        <time>2019-06-30T11:24:27.000Z</time>
      </trkpt>
      <trkpt lat="42.98456" lon="0.53871">
        <ele>1409</ele>
        <time>2019-06-30T11:24:29.000Z</time>
      </trkpt>
      <trkpt lat="42.98457" lon="0.53869">
        <ele>1409</ele>
        <time>2019-06-30T11:24:31.000Z</time>
      </trkpt>
      <trkpt lat="42.98459" lon="0.53868">
        <ele>1408</ele>
        <time>2019-06-30T11:24:33.000Z</time>
      </trkpt>
      <trkpt lat="42.98461" lon="0.53866">
        <ele>1407</ele>
        <time>2019-06-30T11:24:35.000Z</time>
      </trkpt>
      <trkpt lat="42.98463" lon="0.53864">
        <ele>1407</ele>
        <time>2019-06-30T11:24:37.000Z</time>
      </trkpt>
      <trkpt lat="42.98464" lon="0.53862">
        <ele>1407</ele>
        <time>2019-06-30T11:24:39.000Z</time>
      </trkpt>
      <trkpt lat="42.98465" lon="0.5386">
        <ele>1407</ele>
        <time>2019-06-30T11:24:41.000Z</time>
      </trkpt>
      <trkpt lat="42.98466" lon="0.53858">
        <ele>1406</ele>
        <time>2019-06-30T11:24:43.000Z</time>
      </trkpt>
      <trkpt lat="42.98468" lon="0.53857">
        <ele>1405</ele>
        <time>2019-06-30T11:24:45.000Z</time>
      </trkpt>
      <trkpt lat="42.98469" lon="0.53856">
        <ele>1405</ele>
        <time>2019-06-30T11:24:47.000Z</time>
      </trkpt>
      <trkpt lat="42.9847" lon="0.53855">
        <ele>1404</ele>
        <time>2019-06-30T11:24:49.000Z</time>
      </trkpt>
      <trkpt lat="42.98471" lon="0.53854">
        <ele>1404</ele>
        <time>2019-06-30T11:24:51.000Z</time>
      </trkpt>
      <trkpt lat="42.98472" lon="0.53851">
        <ele>1404</ele>
        <time>2019-06-30T11:24:53.000Z</time>
      </trkpt>
      <trkpt lat="42.98474" lon="0.5385">
        <ele>1403</ele>
        <time>2019-06-30T11:24:55.000Z</time>
      </trkpt>
      <trkpt lat="42.98475" lon="0.53848">
        <ele>1403</ele>
        <time>2019-06-30T11:24:57.000Z</time>
      </trkpt>
      <trkpt lat="42.98475" lon="0.53846">
        <ele>1404</ele>
        <time>2019-06-30T11:24:59.000Z</time>
      </trkpt>
      <trkpt lat="42.98474" lon="0.53843">
        <ele>1404</ele>
        <time>2019-06-30T11:25:01.000Z</time>
      </trkpt>
      <trkpt lat="42.98475" lon="0.5384">
        <ele>1404</ele>
        <time>2019-06-30T11:25:03.000Z</time>
      </trkpt>
      <trkpt lat="42.98477" lon="0.53838">
        <ele>1404</ele>
        <time>2019-06-30T11:25:05.000Z</time>
      </trkpt>
      <trkpt lat="42.98477" lon="0.53837">
        <ele>1405</ele>
        <time>2019-06-30T11:25:07.000Z</time>
      </trkpt>
      <trkpt lat="42.98479" lon="0.53835">
        <ele>1404</ele>
        <time>2019-06-30T11:25:09.000Z</time>
      </trkpt>
      <trkpt lat="42.9848" lon="0.53834">
        <ele>1403</ele>
        <time>2019-06-30T11:25:11.000Z</time>
      </trkpt>
      <trkpt lat="42.98482" lon="0.53833">
        <ele>1403</ele>
        <time>2019-06-30T11:25:13.000Z</time>
      </trkpt>
      <trkpt lat="42.98483" lon="0.53832">
        <ele>1402</ele>
        <time>2019-06-30T11:25:15.000Z</time>
      </trkpt>
      <trkpt lat="42.98485" lon="0.53831">
        <ele>1402</ele>
        <time>2019-06-30T11:25:17.000Z</time>
      </trkpt>
      <trkpt lat="42.98486" lon="0.53828">
        <ele>1402</ele>
        <time>2019-06-30T11:25:19.000Z</time>
      </trkpt>
      <trkpt lat="42.98488" lon="0.53826">
        <ele>1401</ele>
        <time>2019-06-30T11:25:21.000Z</time>
      </trkpt>
      <trkpt lat="42.98491" lon="0.53825">
        <ele>1400</ele>
        <time>2019-06-30T11:25:23.000Z</time>
      </trkpt>
      <trkpt lat="42.98495" lon="0.53823">
        <ele>1398</ele>
        <time>2019-06-30T11:25:25.000Z</time>
      </trkpt>
      <trkpt lat="42.98496" lon="0.53821">
        <ele>1398</ele>
        <time>2019-06-30T11:25:27.000Z</time>
      </trkpt>
      <trkpt lat="42.98498" lon="0.53819">
        <ele>1397</ele>
        <time>2019-06-30T11:25:29.000Z</time>
      </trkpt>
      <trkpt lat="42.98498" lon="0.53817">
        <ele>1398</ele>
        <time>2019-06-30T11:25:31.000Z</time>
      </trkpt>
      <trkpt lat="42.98499" lon="0.53815">
        <ele>1398</ele>
        <time>2019-06-30T11:25:33.000Z</time>
      </trkpt>
      <trkpt lat="42.985" lon="0.53813">
        <ele>1398</ele>
        <time>2019-06-30T11:25:35.000Z</time>
      </trkpt>
      <trkpt lat="42.98502" lon="0.53811">
        <ele>1397</ele>
        <time>2019-06-30T11:25:37.000Z</time>
      </trkpt>
      <trkpt lat="42.98503" lon="0.53808">
        <ele>1397</ele>
        <time>2019-06-30T11:25:39.000Z</time>
      </trkpt>
      <trkpt lat="42.98504" lon="0.53807">
        <ele>1397</ele>
        <time>2019-06-30T11:25:41.000Z</time>
      </trkpt>
      <trkpt lat="42.98505" lon="0.53804">
        <ele>1397</ele>
        <time>2019-06-30T11:25:43.000Z</time>
      </trkpt>
      <trkpt lat="42.98506" lon="0.53803">
        <ele>1397</ele>
        <time>2019-06-30T11:25:45.000Z</time>
      </trkpt>
      <trkpt lat="42.98507" lon="0.53802">
        <ele>1396</ele>
        <time>2019-06-30T11:25:47.000Z</time>
      </trkpt>
      <trkpt lat="42.98508" lon="0.53799">
        <ele>1396</ele>
        <time>2019-06-30T11:25:49.000Z</time>
      </trkpt>
      <trkpt lat="42.98508" lon="0.53796">
        <ele>1397</ele>
        <time>2019-06-30T11:25:51.000Z</time>
      </trkpt>
      <trkpt lat="42.9851" lon="0.53794">
        <ele>1396</ele>
        <time>2019-06-30T11:25:53.000Z</time>
      </trkpt>
      <trkpt lat="42.98513" lon="0.53792">
        <ele>1395</ele>
        <time>2019-06-30T11:25:55.000Z</time>
      </trkpt>
      <trkpt lat="42.98515" lon="0.53791">
        <ele>1394</ele>
        <time>2019-06-30T11:25:57.000Z</time>
      </trkpt>
      <trkpt lat="42.98515" lon="0.53789">
        <ele>1394</ele>
        <time>2019-06-30T11:25:59.000Z</time>
      </trkpt>
      <trkpt lat="42.98518" lon="0.53788">
        <ele>1393</ele>
        <time>2019-06-30T11:26:01.000Z</time>
      </trkpt>
      <trkpt lat="42.98519" lon="0.53786">
        <ele>1392</ele>
        <time>2019-06-30T11:26:03.000Z</time>
      </trkpt>
      <trkpt lat="42.98522" lon="0.53785">
        <ele>1391</ele>
        <time>2019-06-30T11:26:05.000Z</time>
      </trkpt>
      <trkpt lat="42.98524" lon="0.53784">
        <ele>1390</ele>
        <time>2019-06-30T11:26:07.000Z</time>
      </trkpt>
      <trkpt lat="42.98525" lon="0.53781">
        <ele>1390</ele>
        <time>2019-06-30T11:26:09.000Z</time>
      </trkpt>
      <trkpt lat="42.98526" lon="0.5378">
        <ele>1390</ele>
        <time>2019-06-30T11:26:11.000Z</time>
      </trkpt>
      <trkpt lat="42.98527" lon="0.53777">
        <ele>1389</ele>
        <time>2019-06-30T11:26:13.000Z</time>
      </trkpt>
      <trkpt lat="42.98528" lon="0.53775">
        <ele>1389</ele>
        <time>2019-06-30T11:26:15.000Z</time>
      </trkpt>
      <trkpt lat="42.98531" lon="0.53774">
        <ele>1388</ele>
        <time>2019-06-30T11:26:17.000Z</time>
      </trkpt>
      <trkpt lat="42.98532" lon="0.53773">
        <ele>1387</ele>
        <time>2019-06-30T11:26:19.000Z</time>
      </trkpt>
      <trkpt lat="42.98536" lon="0.53771">
        <ele>1385</ele>
        <time>2019-06-30T11:26:21.000Z</time>
      </trkpt>
      <trkpt lat="42.98537" lon="0.53769">
        <ele>1385</ele>
        <time>2019-06-30T11:26:23.000Z</time>
      </trkpt>
      <trkpt lat="42.98538" lon="0.53768">
        <ele>1385</ele>
        <time>2019-06-30T11:26:25.000Z</time>
      </trkpt>
      <trkpt lat="42.98539" lon="0.53765">
        <ele>1385</ele>
        <time>2019-06-30T11:26:27.000Z</time>
      </trkpt>
      <trkpt lat="42.98539" lon="0.53763">
        <ele>1385</ele>
        <time>2019-06-30T11:26:29.000Z</time>
      </trkpt>
      <trkpt lat="42.98539" lon="0.53761">
        <ele>1385</ele>
        <time>2019-06-30T11:26:31.000Z</time>
      </trkpt>
      <trkpt lat="42.9854" lon="0.53759">
        <ele>1385</ele>
        <time>2019-06-30T11:26:33.000Z</time>
      </trkpt>
      <trkpt lat="42.98542" lon="0.53757">
        <ele>1384</ele>
        <time>2019-06-30T11:26:35.000Z</time>
      </trkpt>
      <trkpt lat="42.98544" lon="0.53754">
        <ele>1384</ele>
        <time>2019-06-30T11:26:37.000Z</time>
      </trkpt>
      <trkpt lat="42.98543" lon="0.53751">
        <ele>1385</ele>
        <time>2019-06-30T11:26:39.000Z</time>
      </trkpt>
      <trkpt lat="42.98542" lon="0.53749">
        <ele>1386</ele>
        <time>2019-06-30T11:26:41.000Z</time>
      </trkpt>
      <trkpt lat="42.98542" lon="0.53746">
        <ele>1386</ele>
        <time>2019-06-30T11:26:43.000Z</time>
      </trkpt>
      <trkpt lat="42.98543" lon="0.53745">
        <ele>1386</ele>
        <time>2019-06-30T11:26:45.000Z</time>
      </trkpt>
      <trkpt lat="42.98545" lon="0.53743">
        <ele>1386</ele>
        <time>2019-06-30T11:26:47.000Z</time>
      </trkpt>
      <trkpt lat="42.98547" lon="0.53742">
        <ele>1385</ele>
        <time>2019-06-30T11:26:49.000Z</time>
      </trkpt>
      <trkpt lat="42.98547" lon="0.53739">
        <ele>1385</ele>
        <time>2019-06-30T11:26:51.000Z</time>
      </trkpt>
      <trkpt lat="42.98549" lon="0.53737">
        <ele>1385</ele>
        <time>2019-06-30T11:26:53.000Z</time>
      </trkpt>
      <trkpt lat="42.98549" lon="0.53735">
        <ele>1385</ele>
        <time>2019-06-30T11:26:55.000Z</time>
      </trkpt>
      <trkpt lat="42.9855" lon="0.53732">
        <ele>1385</ele>
        <time>2019-06-30T11:26:57.000Z</time>
      </trkpt>
      <trkpt lat="42.98551" lon="0.5373">
        <ele>1385</ele>
        <time>2019-06-30T11:26:59.000Z</time>
      </trkpt>
      <trkpt lat="42.98552" lon="0.53728">
        <ele>1385</ele>
        <time>2019-06-30T11:27:01.000Z</time>
      </trkpt>
      <trkpt lat="42.98553" lon="0.53727">
        <ele>1385</ele>
        <time>2019-06-30T11:27:03.000Z</time>
      </trkpt>
      <trkpt lat="42.98553" lon="0.53724">
        <ele>1385</ele>
        <time>2019-06-30T11:27:05.000Z</time>
      </trkpt>
      <trkpt lat="42.98554" lon="0.53722">
        <ele>1385</ele>
        <time>2019-06-30T11:27:07.000Z</time>
      </trkpt>
      <trkpt lat="42.98556" lon="0.53721">
        <ele>1384</ele>
        <time>2019-06-30T11:27:09.000Z</time>
      </trkpt>
      <trkpt lat="42.98556" lon="0.53719">
        <ele>1384</ele>
        <time>2019-06-30T11:27:11.000Z</time>
      </trkpt>
      <trkpt lat="42.98557" lon="0.53717">
        <ele>1384</ele>
        <time>2019-06-30T11:27:13.000Z</time>
      </trkpt>
      <trkpt lat="42.98557" lon="0.53715">
        <ele>1384</ele>
        <time>2019-06-30T11:27:15.000Z</time>
      </trkpt>
      <trkpt lat="42.98557" lon="0.53714">
        <ele>1385</ele>
        <time>2019-06-30T11:27:17.000Z</time>
      </trkpt>
      <trkpt lat="42.98558" lon="0.53713">
        <ele>1385</ele>
        <time>2019-06-30T11:27:19.000Z</time>
      </trkpt>
      <trkpt lat="42.98557" lon="0.5371">
        <ele>1385</ele>
        <time>2019-06-30T11:27:21.000Z</time>
      </trkpt>
      <trkpt lat="42.98557" lon="0.53709">
        <ele>1386</ele>
        <time>2019-06-30T11:27:23.000Z</time>
      </trkpt>
      <trkpt lat="42.98558" lon="0.53708">
        <ele>1385</ele>
        <time>2019-06-30T11:27:25.000Z</time>
      </trkpt>
      <trkpt lat="42.98559" lon="0.53706">
        <ele>1385</ele>
        <time>2019-06-30T11:27:27.000Z</time>
      </trkpt>
      <trkpt lat="42.9856" lon="0.53704">
        <ele>1385</ele>
        <time>2019-06-30T11:27:29.000Z</time>
      </trkpt>
      <trkpt lat="42.98561" lon="0.53701">
        <ele>1385</ele>
        <time>2019-06-30T11:27:31.000Z</time>
      </trkpt>
      <trkpt lat="42.98562" lon="0.53699">
        <ele>1384</ele>
        <time>2019-06-30T11:27:33.000Z</time>
      </trkpt>
      <trkpt lat="42.98563" lon="0.53697">
        <ele>1384</ele>
        <time>2019-06-30T11:27:35.000Z</time>
      </trkpt>
      <trkpt lat="42.98564" lon="0.53695">
        <ele>1384</ele>
        <time>2019-06-30T11:27:37.000Z</time>
      </trkpt>
      <trkpt lat="42.98567" lon="0.53693">
        <ele>1383</ele>
        <time>2019-06-30T11:27:39.000Z</time>
      </trkpt>
      <trkpt lat="42.98568" lon="0.5369">
        <ele>1383</ele>
        <time>2019-06-30T11:27:41.000Z</time>
      </trkpt>
      <trkpt lat="42.98569" lon="0.53688">
        <ele>1382</ele>
        <time>2019-06-30T11:27:43.000Z</time>
      </trkpt>
      <trkpt lat="42.9857" lon="0.53684">
        <ele>1382</ele>
        <time>2019-06-30T11:27:45.000Z</time>
      </trkpt>
      <trkpt lat="42.98569" lon="0.53682">
        <ele>1383</ele>
        <time>2019-06-30T11:27:47.000Z</time>
      </trkpt>
      <trkpt lat="42.98569" lon="0.5368">
        <ele>1383</ele>
        <time>2019-06-30T11:27:49.000Z</time>
      </trkpt>
      <trkpt lat="42.9857" lon="0.53679">
        <ele>1383</ele>
        <time>2019-06-30T11:27:51.000Z</time>
      </trkpt>
      <trkpt lat="42.98568" lon="0.53677">
        <ele>1384</ele>
        <time>2019-06-30T11:27:53.000Z</time>
      </trkpt>
      <trkpt lat="42.98568" lon="0.53675">
        <ele>1384</ele>
        <time>2019-06-30T11:27:55.000Z</time>
      </trkpt>
      <trkpt lat="42.98568" lon="0.53673">
        <ele>1384</ele>
        <time>2019-06-30T11:27:57.000Z</time>
      </trkpt>
      <trkpt lat="42.98569" lon="0.53671">
        <ele>1384</ele>
        <time>2019-06-30T11:27:59.000Z</time>
      </trkpt>
      <trkpt lat="42.98571" lon="0.5367">
        <ele>1383</ele>
        <time>2019-06-30T11:28:01.000Z</time>
      </trkpt>
      <trkpt lat="42.98573" lon="0.53667">
        <ele>1383</ele>
        <time>2019-06-30T11:28:03.000Z</time>
      </trkpt>
      <trkpt lat="42.98575" lon="0.53665">
        <ele>1381</ele>
        <time>2019-06-30T11:28:05.000Z</time>
      </trkpt>
      <trkpt lat="42.98576" lon="0.53663">
        <ele>1381</ele>
        <time>2019-06-30T11:28:07.000Z</time>
      </trkpt>
      <trkpt lat="42.98577" lon="0.53661">
        <ele>1381</ele>
        <time>2019-06-30T11:28:09.000Z</time>
      </trkpt>
      <trkpt lat="42.98579" lon="0.53659">
        <ele>1380</ele>
        <time>2019-06-30T11:28:11.000Z</time>
      </trkpt>
      <trkpt lat="42.9858" lon="0.53657">
        <ele>1380</ele>
        <time>2019-06-30T11:28:13.000Z</time>
      </trkpt>
      <trkpt lat="42.9858" lon="0.53653">
        <ele>1380</ele>
        <time>2019-06-30T11:28:15.000Z</time>
      </trkpt>
      <trkpt lat="42.98582" lon="0.53651">
        <ele>1379</ele>
        <time>2019-06-30T11:28:17.000Z</time>
      </trkpt>
      <trkpt lat="42.98583" lon="0.53649">
        <ele>1379</ele>
        <time>2019-06-30T11:28:19.000Z</time>
      </trkpt>
      <trkpt lat="42.98586" lon="0.53648">
        <ele>1377</ele>
        <time>2019-06-30T11:28:21.000Z</time>
      </trkpt>
      <trkpt lat="42.98588" lon="0.53646">
        <ele>1377</ele>
        <time>2019-06-30T11:28:23.000Z</time>
      </trkpt>
      <trkpt lat="42.98588" lon="0.53645">
        <ele>1377</ele>
        <time>2019-06-30T11:28:25.000Z</time>
      </trkpt>
      <trkpt lat="42.98588" lon="0.53643">
        <ele>1377</ele>
        <time>2019-06-30T11:28:27.000Z</time>
      </trkpt>
      <trkpt lat="42.98589" lon="0.5364">
        <ele>1376</ele>
        <time>2019-06-30T11:28:29.000Z</time>
      </trkpt>
      <trkpt lat="42.9859" lon="0.53639">
        <ele>1376</ele>
        <time>2019-06-30T11:28:31.000Z</time>
      </trkpt>
      <trkpt lat="42.9859" lon="0.53637">
        <ele>1377</ele>
        <time>2019-06-30T11:28:33.000Z</time>
      </trkpt>
      <trkpt lat="42.9859" lon="0.53635">
        <ele>1377</ele>
        <time>2019-06-30T11:28:35.000Z</time>
      </trkpt>
      <trkpt lat="42.98591" lon="0.53633">
        <ele>1376</ele>
        <time>2019-06-30T11:28:37.000Z</time>
      </trkpt>
      <trkpt lat="42.98592" lon="0.53631">
        <ele>1376</ele>
        <time>2019-06-30T11:28:39.000Z</time>
      </trkpt>
      <trkpt lat="42.98593" lon="0.53629">
        <ele>1376</ele>
        <time>2019-06-30T11:28:41.000Z</time>
      </trkpt>
      <trkpt lat="42.98596" lon="0.53627">
        <ele>1375</ele>
        <time>2019-06-30T11:28:43.000Z</time>
      </trkpt>
      <trkpt lat="42.98598" lon="0.53626">
        <ele>1373</ele>
        <time>2019-06-30T11:28:45.000Z</time>
      </trkpt>
      <trkpt lat="42.98601" lon="0.53624">
        <ele>1372</ele>
        <time>2019-06-30T11:28:47.000Z</time>
      </trkpt>
      <trkpt lat="42.98601" lon="0.53622">
        <ele>1372</ele>
        <time>2019-06-30T11:28:49.000Z</time>
      </trkpt>
      <trkpt lat="42.98603" lon="0.53619">
        <ele>1372</ele>
        <time>2019-06-30T11:28:51.000Z</time>
      </trkpt>
      <trkpt lat="42.98603" lon="0.53617">
        <ele>1372</ele>
        <time>2019-06-30T11:28:53.000Z</time>
      </trkpt>
      <trkpt lat="42.98602" lon="0.53615">
        <ele>1373</ele>
        <time>2019-06-30T11:28:55.000Z</time>
      </trkpt>
      <trkpt lat="42.98604" lon="0.53614">
        <ele>1372</ele>
        <time>2019-06-30T11:28:57.000Z</time>
      </trkpt>
      <trkpt lat="42.98605" lon="0.53611">
        <ele>1372</ele>
        <time>2019-06-30T11:28:59.000Z</time>
      </trkpt>
      <trkpt lat="42.98604" lon="0.53608">
        <ele>1373</ele>
        <time>2019-06-30T11:29:01.000Z</time>
      </trkpt>
      <trkpt lat="42.98604" lon="0.53607">
        <ele>1373</ele>
        <time>2019-06-30T11:29:03.000Z</time>
      </trkpt>
      <trkpt lat="42.98604" lon="0.53605">
        <ele>1373</ele>
        <time>2019-06-30T11:29:05.000Z</time>
      </trkpt>
      <trkpt lat="42.98602" lon="0.53603">
        <ele>1374</ele>
        <time>2019-06-30T11:29:07.000Z</time>
      </trkpt>
      <trkpt lat="42.986" lon="0.53601">
        <ele>1375</ele>
        <time>2019-06-30T11:29:09.000Z</time>
      </trkpt>
      <trkpt lat="42.98599" lon="0.53598">
        <ele>1376</ele>
        <time>2019-06-30T11:29:11.000Z</time>
      </trkpt>
      <trkpt lat="42.98597" lon="0.53597">
        <ele>1377</ele>
        <time>2019-06-30T11:29:13.000Z</time>
      </trkpt>
      <trkpt lat="42.98594" lon="0.53595">
        <ele>1379</ele>
        <time>2019-06-30T11:29:15.000Z</time>
      </trkpt>
      <trkpt lat="42.98595" lon="0.53594">
        <ele>1379</ele>
        <time>2019-06-30T11:29:17.000Z</time>
      </trkpt>
      <trkpt lat="42.98593" lon="0.53593">
        <ele>1379</ele>
        <time>2019-06-30T11:29:19.000Z</time>
      </trkpt>
      <trkpt lat="42.98591" lon="0.53592">
        <ele>1381</ele>
        <time>2019-06-30T11:29:21.000Z</time>
      </trkpt>
      <trkpt lat="42.98589" lon="0.53591">
        <ele>1382</ele>
        <time>2019-06-30T11:29:23.000Z</time>
      </trkpt>
      <trkpt lat="42.98589" lon="0.53589">
        <ele>1382</ele>
        <time>2019-06-30T11:29:25.000Z</time>
      </trkpt>
      <trkpt lat="42.98588" lon="0.53588">
        <ele>1383</ele>
        <time>2019-06-30T11:29:27.000Z</time>
      </trkpt>
      <trkpt lat="42.98586" lon="0.53587">
        <ele>1385</ele>
        <time>2019-06-30T11:29:29.000Z</time>
      </trkpt>
      <trkpt lat="42.98586" lon="0.53587">
        <ele>1384</ele>
        <time>2019-06-30T11:29:31.000Z</time>
      </trkpt>
      <trkpt lat="42.98589" lon="0.53588">
        <ele>1383</ele>
        <time>2019-06-30T11:29:33.000Z</time>
      </trkpt>
      <trkpt lat="42.98592" lon="0.53588">
        <ele>1381</ele>
        <time>2019-06-30T11:29:35.000Z</time>
      </trkpt>
      <trkpt lat="42.98596" lon="0.53589">
        <ele>1379</ele>
        <time>2019-06-30T11:29:37.000Z</time>
      </trkpt>
      <trkpt lat="42.986" lon="0.53588">
        <ele>1377</ele>
        <time>2019-06-30T11:29:39.000Z</time>
      </trkpt>
      <trkpt lat="42.98602" lon="0.53589">
        <ele>1375</ele>
        <time>2019-06-30T11:29:41.000Z</time>
      </trkpt>
      <trkpt lat="42.98605" lon="0.5359">
        <ele>1374</ele>
        <time>2019-06-30T11:29:43.000Z</time>
      </trkpt>
      <trkpt lat="42.98607" lon="0.53592">
        <ele>1373</ele>
        <time>2019-06-30T11:29:45.000Z</time>
      </trkpt>
      <trkpt lat="42.98609" lon="0.53594">
        <ele>1372</ele>
        <time>2019-06-30T11:29:47.000Z</time>
      </trkpt>
      <trkpt lat="42.98611" lon="0.53597">
        <ele>1370</ele>
        <time>2019-06-30T11:29:49.000Z</time>
      </trkpt>
      <trkpt lat="42.98614" lon="0.53599">
        <ele>1369</ele>
        <time>2019-06-30T11:29:51.000Z</time>
      </trkpt>
      <trkpt lat="42.98615" lon="0.53602">
        <ele>1368</ele>
        <time>2019-06-30T11:29:53.000Z</time>
      </trkpt>
      <trkpt lat="42.98616" lon="0.53603">
        <ele>1367</ele>
        <time>2019-06-30T11:29:55.000Z</time>
      </trkpt>
      <trkpt lat="42.98617" lon="0.53606">
        <ele>1366</ele>
        <time>2019-06-30T11:29:57.000Z</time>
      </trkpt>
      <trkpt lat="42.98619" lon="0.53608">
        <ele>1365</ele>
        <time>2019-06-30T11:29:59.000Z</time>
      </trkpt>
      <trkpt lat="42.9862" lon="0.53612">
        <ele>1364</ele>
        <time>2019-06-30T11:30:01.000Z</time>
      </trkpt>
      <trkpt lat="42.98622" lon="0.53614">
        <ele>1363</ele>
        <time>2019-06-30T11:30:03.000Z</time>
      </trkpt>
      <trkpt lat="42.98624" lon="0.53616">
        <ele>1362</ele>
        <time>2019-06-30T11:30:05.000Z</time>
      </trkpt>
      <trkpt lat="42.98626" lon="0.53618">
        <ele>1361</ele>
        <time>2019-06-30T11:30:07.000Z</time>
      </trkpt>
      <trkpt lat="42.98627" lon="0.5362">
        <ele>1360</ele>
        <time>2019-06-30T11:30:09.000Z</time>
      </trkpt>
      <trkpt lat="42.98628" lon="0.53622">
        <ele>1359</ele>
        <time>2019-06-30T11:30:11.000Z</time>
      </trkpt>
      <trkpt lat="42.98629" lon="0.53624">
        <ele>1359</ele>
        <time>2019-06-30T11:30:13.000Z</time>
      </trkpt>
      <trkpt lat="42.98631" lon="0.53626">
        <ele>1358</ele>
        <time>2019-06-30T11:30:15.000Z</time>
      </trkpt>
      <trkpt lat="42.98631" lon="0.53628">
        <ele>1357</ele>
        <time>2019-06-30T11:30:17.000Z</time>
      </trkpt>
      <trkpt lat="42.98632" lon="0.5363">
        <ele>1356</ele>
        <time>2019-06-30T11:30:19.000Z</time>
      </trkpt>
      <trkpt lat="42.98633" lon="0.53632">
        <ele>1356</ele>
        <time>2019-06-30T11:30:21.000Z</time>
      </trkpt>
      <trkpt lat="42.98633" lon="0.53634">
        <ele>1355</ele>
        <time>2019-06-30T11:30:23.000Z</time>
      </trkpt>
      <trkpt lat="42.98634" lon="0.53636">
        <ele>1355</ele>
        <time>2019-06-30T11:30:25.000Z</time>
      </trkpt>
      <trkpt lat="42.98634" lon="0.53638">
        <ele>1354</ele>
        <time>2019-06-30T11:30:27.000Z</time>
      </trkpt>
      <trkpt lat="42.98635" lon="0.53639">
        <ele>1353</ele>
        <time>2019-06-30T11:30:29.000Z</time>
      </trkpt>
      <trkpt lat="42.98634" lon="0.53641">
        <ele>1353</ele>
        <time>2019-06-30T11:30:31.000Z</time>
      </trkpt>
      <trkpt lat="42.98634" lon="0.53642">
        <ele>1353</ele>
        <time>2019-06-30T11:30:33.000Z</time>
      </trkpt>
      <trkpt lat="42.98634" lon="0.53642">
        <ele>1353</ele>
        <time>2019-06-30T11:30:35.000Z</time>
      </trkpt>
      <trkpt lat="42.98635" lon="0.53643">
        <ele>1352</ele>
        <time>2019-06-30T11:30:37.000Z</time>
      </trkpt>
      <trkpt lat="42.98635" lon="0.53643">
        <ele>1352</ele>
        <time>2019-06-30T11:30:39.000Z</time>
      </trkpt>
      <trkpt lat="42.98636" lon="0.53644">
        <ele>1352</ele>
        <time>2019-06-30T11:30:41.000Z</time>
      </trkpt>
      <trkpt lat="42.98637" lon="0.53644">
        <ele>1351</ele>
        <time>2019-06-30T11:30:43.000Z</time>
      </trkpt>
      <trkpt lat="42.98638" lon="0.53645">
        <ele>1350</ele>
        <time>2019-06-30T11:30:45.000Z</time>
      </trkpt>
      <trkpt lat="42.98638" lon="0.53645">
        <ele>1350</ele>
        <time>2019-06-30T11:30:47.000Z</time>
      </trkpt>
      <trkpt lat="42.98638" lon="0.53646">
        <ele>1350</ele>
        <time>2019-06-30T11:30:49.000Z</time>
      </trkpt>
      <trkpt lat="42.98641" lon="0.53646">
        <ele>1349</ele>
        <time>2019-06-30T11:30:51.000Z</time>
      </trkpt>
      <trkpt lat="42.98644" lon="0.53646">
        <ele>1347</ele>
        <time>2019-06-30T11:30:53.000Z</time>
      </trkpt>
      <trkpt lat="42.98646" lon="0.53647">
        <ele>1346</ele>
        <time>2019-06-30T11:30:55.000Z</time>
      </trkpt>
      <trkpt lat="42.98647" lon="0.53647">
        <ele>1345</ele>
        <time>2019-06-30T11:30:57.000Z</time>
      </trkpt>
      <trkpt lat="42.98647" lon="0.53648">
        <ele>1345</ele>
        <time>2019-06-30T11:30:59.000Z</time>
      </trkpt>
      <trkpt lat="42.98646" lon="0.53648">
        <ele>1346</ele>
        <time>2019-06-30T11:31:01.000Z</time>
      </trkpt>
      <trkpt lat="42.98645" lon="0.53648">
        <ele>1346</ele>
        <time>2019-06-30T11:31:03.000Z</time>
      </trkpt>
      <trkpt lat="42.98644" lon="0.53648">
        <ele>1346</ele>
        <time>2019-06-30T11:31:05.000Z</time>
      </trkpt>
      <trkpt lat="42.98644" lon="0.53648">
        <ele>1347</ele>
        <time>2019-06-30T11:31:07.000Z</time>
      </trkpt>
      <trkpt lat="42.98643" lon="0.53648">
        <ele>1347</ele>
        <time>2019-06-30T11:31:09.000Z</time>
      </trkpt>
      <trkpt lat="42.98641" lon="0.53648">
        <ele>1348</ele>
        <time>2019-06-30T11:31:11.000Z</time>
      </trkpt>
      <trkpt lat="42.9864" lon="0.53647">
        <ele>1348</ele>
        <time>2019-06-30T11:31:13.000Z</time>
      </trkpt>
      <trkpt lat="42.9864" lon="0.53647">
        <ele>1349</ele>
        <time>2019-06-30T11:31:15.000Z</time>
      </trkpt>
      <trkpt lat="42.9864" lon="0.53647">
        <ele>1349</ele>
        <time>2019-06-30T11:31:17.000Z</time>
      </trkpt>
      <trkpt lat="42.9864" lon="0.53647">
        <ele>1349</ele>
        <time>2019-06-30T11:31:19.000Z</time>
      </trkpt>
      <trkpt lat="42.9864" lon="0.53647">
        <ele>1349</ele>
        <time>2019-06-30T11:31:21.000Z</time>
      </trkpt>
      <trkpt lat="42.98639" lon="0.53647">
        <ele>1349</ele>
        <time>2019-06-30T11:31:23.000Z</time>
      </trkpt>
      <trkpt lat="42.98639" lon="0.53647">
        <ele>1349</ele>
        <time>2019-06-30T11:31:25.000Z</time>
      </trkpt>
      <trkpt lat="42.98639" lon="0.53647">
        <ele>1349</ele>
        <time>2019-06-30T11:31:27.000Z</time>
      </trkpt>
      <trkpt lat="42.98639" lon="0.53647">
        <ele>1349</ele>
        <time>2019-06-30T11:31:29.000Z</time>
      </trkpt>
      <trkpt lat="42.9864" lon="0.53648">
        <ele>1349</ele>
        <time>2019-06-30T11:31:31.000Z</time>
      </trkpt>
      <trkpt lat="42.98639" lon="0.53648">
        <ele>1349</ele>
        <time>2019-06-30T11:31:33.000Z</time>
      </trkpt>
      <trkpt lat="42.98639" lon="0.53648">
        <ele>1349</ele>
        <time>2019-06-30T11:31:35.000Z</time>
      </trkpt>
      <trkpt lat="42.98638" lon="0.53647">
        <ele>1349</ele>
        <time>2019-06-30T11:31:37.000Z</time>
      </trkpt>
      <trkpt lat="42.98638" lon="0.53648">
        <ele>1350</ele>
        <time>2019-06-30T11:31:39.000Z</time>
      </trkpt>
      <trkpt lat="42.98638" lon="0.53647">
        <ele>1350</ele>
        <time>2019-06-30T11:31:41.000Z</time>
      </trkpt>
      <trkpt lat="42.98639" lon="0.53647">
        <ele>1349</ele>
        <time>2019-06-30T11:31:43.000Z</time>
      </trkpt>
      <trkpt lat="42.9864" lon="0.53647">
        <ele>1349</ele>
        <time>2019-06-30T11:31:45.000Z</time>
      </trkpt>
      <trkpt lat="42.9864" lon="0.53646">
        <ele>1349</ele>
        <time>2019-06-30T11:31:47.000Z</time>
      </trkpt>
      <trkpt lat="42.98639" lon="0.53645">
        <ele>1350</ele>
        <time>2019-06-30T11:31:49.000Z</time>
      </trkpt>
      <trkpt lat="42.98638" lon="0.53644">
        <ele>1350</ele>
        <time>2019-06-30T11:31:51.000Z</time>
      </trkpt>
      <trkpt lat="42.98638" lon="0.53643">
        <ele>1351</ele>
        <time>2019-06-30T11:31:53.000Z</time>
      </trkpt>
      <trkpt lat="42.98637" lon="0.53643">
        <ele>1351</ele>
        <time>2019-06-30T11:31:55.000Z</time>
      </trkpt>
      <trkpt lat="42.98637" lon="0.53643">
        <ele>1351</ele>
        <time>2019-06-30T11:31:57.000Z</time>
      </trkpt>
      <trkpt lat="42.98636" lon="0.53643">
        <ele>1352</ele>
        <time>2019-06-30T11:31:59.000Z</time>
      </trkpt>
      <trkpt lat="42.98636" lon="0.53644">
        <ele>1351</ele>
        <time>2019-06-30T11:32:01.000Z</time>
      </trkpt>
      <trkpt lat="42.98638" lon="0.53647">
        <ele>1350</ele>
        <time>2019-06-30T11:32:03.000Z</time>
      </trkpt>
      <trkpt lat="42.9864" lon="0.53648">
        <ele>1349</ele>
        <time>2019-06-30T11:32:05.000Z</time>
      </trkpt>
      <trkpt lat="42.98641" lon="0.53649">
        <ele>1348</ele>
        <time>2019-06-30T11:32:07.000Z</time>
      </trkpt>
      <trkpt lat="42.98642" lon="0.53649">
        <ele>1347</ele>
        <time>2019-06-30T11:32:09.000Z</time>
      </trkpt>
      <trkpt lat="42.98643" lon="0.53649">
        <ele>1347</ele>
        <time>2019-06-30T11:32:11.000Z</time>
      </trkpt>
      <trkpt lat="42.98644" lon="0.53649">
        <ele>1346</ele>
        <time>2019-06-30T11:32:13.000Z</time>
      </trkpt>
      <trkpt lat="42.98645" lon="0.53649">
        <ele>1346</ele>
        <time>2019-06-30T11:32:15.000Z</time>
      </trkpt>
      <trkpt lat="42.98645" lon="0.53649">
        <ele>1346</ele>
        <time>2019-06-30T11:32:17.000Z</time>
      </trkpt>
      <trkpt lat="42.98646" lon="0.53648">
        <ele>1346</ele>
        <time>2019-06-30T11:32:19.000Z</time>
      </trkpt>
      <trkpt lat="42.98647" lon="0.53648">
        <ele>1345</ele>
        <time>2019-06-30T11:32:21.000Z</time>
      </trkpt>
      <trkpt lat="42.98646" lon="0.53648">
        <ele>1345</ele>
        <time>2019-06-30T11:32:23.000Z</time>
      </trkpt>
      <trkpt lat="42.98646" lon="0.53648">
        <ele>1345</ele>
        <time>2019-06-30T11:32:25.000Z</time>
      </trkpt>
      <trkpt lat="42.98647" lon="0.53648">
        <ele>1345</ele>
        <time>2019-06-30T11:32:27.000Z</time>
      </trkpt>
      <trkpt lat="42.98647" lon="0.53647">
        <ele>1345</ele>
        <time>2019-06-30T11:32:29.000Z</time>
      </trkpt>
      <trkpt lat="42.98647" lon="0.53647">
        <ele>1345</ele>
        <time>2019-06-30T11:32:31.000Z</time>
      </trkpt>
      <trkpt lat="42.98647" lon="0.53646">
        <ele>1345</ele>
        <time>2019-06-30T11:32:33.000Z</time>
      </trkpt>
      <trkpt lat="42.98647" lon="0.53646">
        <ele>1345</ele>
        <time>2019-06-30T11:32:35.000Z</time>
      </trkpt>
      <trkpt lat="42.98647" lon="0.53646">
        <ele>1345</ele>
        <time>2019-06-30T11:32:37.000Z</time>
      </trkpt>
      <trkpt lat="42.98648" lon="0.53646">
        <ele>1345</ele>
        <time>2019-06-30T11:32:39.000Z</time>
      </trkpt>
      <trkpt lat="42.98649" lon="0.53646">
        <ele>1345</ele>
        <time>2019-06-30T11:32:41.000Z</time>
      </trkpt>
      <trkpt lat="42.98649" lon="0.53646">
        <ele>1345</ele>
        <time>2019-06-30T11:32:43.000Z</time>
      </trkpt>
      <trkpt lat="42.98649" lon="0.53645">
        <ele>1345</ele>
        <time>2019-06-30T11:32:45.000Z</time>
      </trkpt>
      <trkpt lat="42.9865" lon="0.53645">
        <ele>1345</ele>
        <time>2019-06-30T11:32:47.000Z</time>
      </trkpt>
      <trkpt lat="42.98649" lon="0.53645">
        <ele>1345</ele>
        <time>2019-06-30T11:32:49.000Z</time>
      </trkpt>
      <trkpt lat="42.98649" lon="0.53644">
        <ele>1345</ele>
        <time>2019-06-30T11:32:51.000Z</time>
      </trkpt>
      <trkpt lat="42.98649" lon="0.53644">
        <ele>1345</ele>
        <time>2019-06-30T11:32:53.000Z</time>
      </trkpt>
      <trkpt lat="42.98647" lon="0.53644">
        <ele>1346</ele>
        <time>2019-06-30T11:32:55.000Z</time>
      </trkpt>
      <trkpt lat="42.98646" lon="0.53644">
        <ele>1346</ele>
        <time>2019-06-30T11:32:57.000Z</time>
      </trkpt>
      <trkpt lat="42.98646" lon="0.53644">
        <ele>1347</ele>
        <time>2019-06-30T11:32:59.000Z</time>
      </trkpt>
      <trkpt lat="42.98645" lon="0.53644">
        <ele>1347</ele>
        <time>2019-06-30T11:33:01.000Z</time>
      </trkpt>
      <trkpt lat="42.98645" lon="0.53644">
        <ele>1347</ele>
        <time>2019-06-30T11:33:03.000Z</time>
      </trkpt>
      <trkpt lat="42.98643" lon="0.53645">
        <ele>1348</ele>
        <time>2019-06-30T11:33:05.000Z</time>
      </trkpt>
      <trkpt lat="42.98643" lon="0.53645">
        <ele>1348</ele>
        <time>2019-06-30T11:33:07.000Z</time>
      </trkpt>
      <trkpt lat="42.98643" lon="0.53645">
        <ele>1348</ele>
        <time>2019-06-30T11:33:09.000Z</time>
      </trkpt>
      <trkpt lat="42.98643" lon="0.53646">
        <ele>1348</ele>
        <time>2019-06-30T11:33:11.000Z</time>
      </trkpt>
      <trkpt lat="42.98642" lon="0.53646">
        <ele>1348</ele>
        <time>2019-06-30T11:33:13.000Z</time>
      </trkpt>
      <trkpt lat="42.98641" lon="0.53647">
        <ele>1348</ele>
        <time>2019-06-30T11:33:15.000Z</time>
      </trkpt>
      <trkpt lat="42.9864" lon="0.53647">
        <ele>1349</ele>
        <time>2019-06-30T11:33:17.000Z</time>
      </trkpt>
      <trkpt lat="42.98639" lon="0.53648">
        <ele>1349</ele>
        <time>2019-06-30T11:33:19.000Z</time>
      </trkpt>
      <trkpt lat="42.9864" lon="0.53649">
        <ele>1348</ele>
        <time>2019-06-30T11:33:21.000Z</time>
      </trkpt>
      <trkpt lat="42.9864" lon="0.53649">
        <ele>1348</ele>
        <time>2019-06-30T11:33:23.000Z</time>
      </trkpt>
      <trkpt lat="42.98641" lon="0.53649">
        <ele>1348</ele>
        <time>2019-06-30T11:33:25.000Z</time>
      </trkpt>
      <trkpt lat="42.98641" lon="0.53649">
        <ele>1348</ele>
        <time>2019-06-30T11:33:27.000Z</time>
      </trkpt>
      <trkpt lat="42.98641" lon="0.53649">
        <ele>1348</ele>
        <time>2019-06-30T11:33:29.000Z</time>
      </trkpt>
      <trkpt lat="42.98641" lon="0.53649">
        <ele>1348</ele>
        <time>2019-06-30T11:33:31.000Z</time>
      </trkpt>
      <trkpt lat="42.98643" lon="0.53649">
        <ele>1347</ele>
        <time>2019-06-30T11:33:33.000Z</time>
      </trkpt>
      <trkpt lat="42.98644" lon="0.53648">
        <ele>1347</ele>
        <time>2019-06-30T11:33:35.000Z</time>
      </trkpt>
      <trkpt lat="42.98644" lon="0.53648">
        <ele>1347</ele>
        <time>2019-06-30T11:33:37.000Z</time>
      </trkpt>
      <trkpt lat="42.98644" lon="0.53647">
        <ele>1347</ele>
        <time>2019-06-30T11:33:39.000Z</time>
      </trkpt>
      <trkpt lat="42.98643" lon="0.53647">
        <ele>1347</ele>
        <time>2019-06-30T11:33:41.000Z</time>
      </trkpt>
      <trkpt lat="42.98643" lon="0.53647">
        <ele>1347</ele>
        <time>2019-06-30T11:33:43.000Z</time>
      </trkpt>
      <trkpt lat="42.98643" lon="0.53648">
        <ele>1347</ele>
        <time>2019-06-30T11:33:45.000Z</time>
      </trkpt>
      <trkpt lat="42.98642" lon="0.53648">
        <ele>1347</ele>
        <time>2019-06-30T11:33:47.000Z</time>
      </trkpt>
      <trkpt lat="42.98642" lon="0.53649">
        <ele>1347</ele>
        <time>2019-06-30T11:33:49.000Z</time>
      </trkpt>
      <trkpt lat="42.98642" lon="0.5365">
        <ele>1347</ele>
        <time>2019-06-30T11:33:51.000Z</time>
      </trkpt>
      <trkpt lat="42.98643" lon="0.5365">
        <ele>1347</ele>
        <time>2019-06-30T11:33:53.000Z</time>
      </trkpt>
      <trkpt lat="42.98643" lon="0.5365">
        <ele>1346</ele>
        <time>2019-06-30T11:33:55.000Z</time>
      </trkpt>
      <trkpt lat="42.98645" lon="0.5365">
        <ele>1346</ele>
        <time>2019-06-30T11:33:57.000Z</time>
      </trkpt>
      <trkpt lat="42.98646" lon="0.53649">
        <ele>1345</ele>
        <time>2019-06-30T11:33:59.000Z</time>
      </trkpt>
      <trkpt lat="42.98647" lon="0.53649">
        <ele>1345</ele>
        <time>2019-06-30T11:34:01.000Z</time>
      </trkpt>
      <trkpt lat="42.98647" lon="0.53649">
        <ele>1345</ele>
        <time>2019-06-30T11:34:03.000Z</time>
      </trkpt>
      <trkpt lat="42.98647" lon="0.53649">
        <ele>1345</ele>
        <time>2019-06-30T11:34:05.000Z</time>
      </trkpt>
      <trkpt lat="42.98647" lon="0.53649">
        <ele>1345</ele>
        <time>2019-06-30T11:34:07.000Z</time>
      </trkpt>
      <trkpt lat="42.98646" lon="0.53649">
        <ele>1345</ele>
        <time>2019-06-30T11:34:09.000Z</time>
      </trkpt>
      <trkpt lat="42.98645" lon="0.53649">
        <ele>1345</ele>
        <time>2019-06-30T11:34:11.000Z</time>
      </trkpt>
      <trkpt lat="42.98645" lon="0.53649">
        <ele>1346</ele>
        <time>2019-06-30T11:34:13.000Z</time>
      </trkpt>
      <trkpt lat="42.98646" lon="0.53649">
        <ele>1345</ele>
        <time>2019-06-30T11:34:15.000Z</time>
      </trkpt>
      <trkpt lat="42.98646" lon="0.53649">
        <ele>1345</ele>
        <time>2019-06-30T11:34:17.000Z</time>
      </trkpt>
      <trkpt lat="42.98646" lon="0.53649">
        <ele>1345</ele>
        <time>2019-06-30T11:34:19.000Z</time>
      </trkpt>
      <trkpt lat="42.98647" lon="0.53649">
        <ele>1345</ele>
        <time>2019-06-30T11:34:21.000Z</time>
      </trkpt>
      <trkpt lat="42.98648" lon="0.53648">
        <ele>1345</ele>
        <time>2019-06-30T11:34:23.000Z</time>
      </trkpt>
      <trkpt lat="42.98649" lon="0.53648">
        <ele>1344</ele>
        <time>2019-06-30T11:34:25.000Z</time>
      </trkpt>
      <trkpt lat="42.98649" lon="0.53648">
        <ele>1344</ele>
        <time>2019-06-30T11:34:27.000Z</time>
      </trkpt>
      <trkpt lat="42.9865" lon="0.53648">
        <ele>1344</ele>
        <time>2019-06-30T11:34:29.000Z</time>
      </trkpt>
      <trkpt lat="42.9865" lon="0.53648">
        <ele>1344</ele>
        <time>2019-06-30T11:34:31.000Z</time>
      </trkpt>
      <trkpt lat="42.9865" lon="0.53647">
        <ele>1344</ele>
        <time>2019-06-30T11:34:33.000Z</time>
      </trkpt>
      <trkpt lat="42.9865" lon="0.53647">
        <ele>1343</ele>
        <time>2019-06-30T11:34:35.000Z</time>
      </trkpt>
      <trkpt lat="42.9865" lon="0.53647">
        <ele>1344</ele>
        <time>2019-06-30T11:34:37.000Z</time>
      </trkpt>
      <trkpt lat="42.9865" lon="0.53647">
        <ele>1344</ele>
        <time>2019-06-30T11:34:39.000Z</time>
      </trkpt>
      <trkpt lat="42.98651" lon="0.53647">
        <ele>1343</ele>
        <time>2019-06-30T11:34:41.000Z</time>
      </trkpt>
      <trkpt lat="42.98652" lon="0.53647">
        <ele>1343</ele>
        <time>2019-06-30T11:34:43.000Z</time>
      </trkpt>
      <trkpt lat="42.98652" lon="0.53647">
        <ele>1343</ele>
        <time>2019-06-30T11:34:45.000Z</time>
      </trkpt>
      <trkpt lat="42.98653" lon="0.53647">
        <ele>1342</ele>
        <time>2019-06-30T11:34:47.000Z</time>
      </trkpt>
      <trkpt lat="42.98652" lon="0.53647">
        <ele>1343</ele>
        <time>2019-06-30T11:34:49.000Z</time>
      </trkpt>
      <trkpt lat="42.9865" lon="0.53647">
        <ele>1344</ele>
        <time>2019-06-30T11:34:51.000Z</time>
      </trkpt>
      <trkpt lat="42.9865" lon="0.53647">
        <ele>1344</ele>
        <time>2019-06-30T11:34:53.000Z</time>
      </trkpt>
      <trkpt lat="42.98649" lon="0.53647">
        <ele>1344</ele>
        <time>2019-06-30T11:34:55.000Z</time>
      </trkpt>
      <trkpt lat="42.98648" lon="0.53647">
        <ele>1345</ele>
        <time>2019-06-30T11:34:57.000Z</time>
      </trkpt>
      <trkpt lat="42.98647" lon="0.53647">
        <ele>1345</ele>
        <time>2019-06-30T11:34:59.000Z</time>
      </trkpt>
      <trkpt lat="42.98646" lon="0.53646">
        <ele>1346</ele>
        <time>2019-06-30T11:35:01.000Z</time>
      </trkpt>
      <trkpt lat="42.98645" lon="0.53646">
        <ele>1346</ele>
        <time>2019-06-30T11:35:03.000Z</time>
      </trkpt>
      <trkpt lat="42.98645" lon="0.53646">
        <ele>1347</ele>
        <time>2019-06-30T11:35:05.000Z</time>
      </trkpt>
      <trkpt lat="42.98645" lon="0.53645">
        <ele>1347</ele>
        <time>2019-06-30T11:35:07.000Z</time>
      </trkpt>
      <trkpt lat="42.98645" lon="0.53646">
        <ele>1347</ele>
        <time>2019-06-30T11:35:09.000Z</time>
      </trkpt>
      <trkpt lat="42.98644" lon="0.53646">
        <ele>1347</ele>
        <time>2019-06-30T11:35:11.000Z</time>
      </trkpt>
      <trkpt lat="42.98644" lon="0.53646">
        <ele>1347</ele>
        <time>2019-06-30T11:35:13.000Z</time>
      </trkpt>
      <trkpt lat="42.98644" lon="0.53646">
        <ele>1347</ele>
        <time>2019-06-30T11:35:15.000Z</time>
      </trkpt>
      <trkpt lat="42.98644" lon="0.53646">
        <ele>1347</ele>
        <time>2019-06-30T11:35:17.000Z</time>
      </trkpt>
      <trkpt lat="42.98644" lon="0.53647">
        <ele>1347</ele>
        <time>2019-06-30T11:35:19.000Z</time>
      </trkpt>
      <trkpt lat="42.98644" lon="0.53648">
        <ele>1347</ele>
        <time>2019-06-30T11:35:21.000Z</time>
      </trkpt>
      <trkpt lat="42.98644" lon="0.5365">
        <ele>1346</ele>
        <time>2019-06-30T11:35:23.000Z</time>
      </trkpt>
      <trkpt lat="42.98644" lon="0.53651">
        <ele>1346</ele>
        <time>2019-06-30T11:35:25.000Z</time>
      </trkpt>
      <trkpt lat="42.98645" lon="0.53653">
        <ele>1345</ele>
        <time>2019-06-30T11:35:27.000Z</time>
      </trkpt>
      <trkpt lat="42.98645" lon="0.53655">
        <ele>1344</ele>
        <time>2019-06-30T11:35:29.000Z</time>
      </trkpt>
      <trkpt lat="42.98646" lon="0.53657">
        <ele>1343</ele>
        <time>2019-06-30T11:35:31.000Z</time>
      </trkpt>
      <trkpt lat="42.98646" lon="0.53658">
        <ele>1343</ele>
        <time>2019-06-30T11:35:33.000Z</time>
      </trkpt>
      <trkpt lat="42.98646" lon="0.53661">
        <ele>1342</ele>
        <time>2019-06-30T11:35:35.000Z</time>
      </trkpt>
      <trkpt lat="42.98646" lon="0.53663">
        <ele>1342</ele>
        <time>2019-06-30T11:35:37.000Z</time>
      </trkpt>
      <trkpt lat="42.98646" lon="0.53665">
        <ele>1341</ele>
        <time>2019-06-30T11:35:39.000Z</time>
      </trkpt>
      <trkpt lat="42.98644" lon="0.53667">
        <ele>1341</ele>
        <time>2019-06-30T11:35:41.000Z</time>
      </trkpt>
      <trkpt lat="42.98643" lon="0.5367">
        <ele>1341</ele>
        <time>2019-06-30T11:35:43.000Z</time>
      </trkpt>
      <trkpt lat="42.98642" lon="0.53672">
        <ele>1341</ele>
        <time>2019-06-30T11:35:45.000Z</time>
      </trkpt>
      <trkpt lat="42.98641" lon="0.53674">
        <ele>1341</ele>
        <time>2019-06-30T11:35:47.000Z</time>
      </trkpt>
      <trkpt lat="42.9864" lon="0.53676">
        <ele>1341</ele>
        <time>2019-06-30T11:35:49.000Z</time>
      </trkpt>
      <trkpt lat="42.98639" lon="0.53679">
        <ele>1341</ele>
        <time>2019-06-30T11:35:51.000Z</time>
      </trkpt>
      <trkpt lat="42.98638" lon="0.53681">
        <ele>1341</ele>
        <time>2019-06-30T11:35:53.000Z</time>
      </trkpt>
      <trkpt lat="42.98638" lon="0.53684">
        <ele>1341</ele>
        <time>2019-06-30T11:35:55.000Z</time>
      </trkpt>
      <trkpt lat="42.98637" lon="0.53687">
        <ele>1341</ele>
        <time>2019-06-30T11:35:57.000Z</time>
      </trkpt>
      <trkpt lat="42.98636" lon="0.5369">
        <ele>1341</ele>
        <time>2019-06-30T11:35:59.000Z</time>
      </trkpt>
      <trkpt lat="42.98635" lon="0.53692">
        <ele>1341</ele>
        <time>2019-06-30T11:36:01.000Z</time>
      </trkpt>
      <trkpt lat="42.98636" lon="0.53695">
        <ele>1341</ele>
        <time>2019-06-30T11:36:03.000Z</time>
      </trkpt>
      <trkpt lat="42.98635" lon="0.53697">
        <ele>1341</ele>
        <time>2019-06-30T11:36:05.000Z</time>
      </trkpt>
      <trkpt lat="42.98635" lon="0.537">
        <ele>1340</ele>
        <time>2019-06-30T11:36:07.000Z</time>
      </trkpt>
      <trkpt lat="42.98636" lon="0.53703">
        <ele>1339</ele>
        <time>2019-06-30T11:36:09.000Z</time>
      </trkpt>
      <trkpt lat="42.98636" lon="0.53705">
        <ele>1339</ele>
        <time>2019-06-30T11:36:11.000Z</time>
      </trkpt>
      <trkpt lat="42.98636" lon="0.53707">
        <ele>1339</ele>
        <time>2019-06-30T11:36:13.000Z</time>
      </trkpt>
      <trkpt lat="42.98636" lon="0.5371">
        <ele>1339</ele>
        <time>2019-06-30T11:36:15.000Z</time>
      </trkpt>
      <trkpt lat="42.98634" lon="0.53712">
        <ele>1339</ele>
        <time>2019-06-30T11:36:17.000Z</time>
      </trkpt>
      <trkpt lat="42.98634" lon="0.53715">
        <ele>1339</ele>
        <time>2019-06-30T11:36:19.000Z</time>
      </trkpt>
      <trkpt lat="42.98634" lon="0.53718">
        <ele>1339</ele>
        <time>2019-06-30T11:36:21.000Z</time>
      </trkpt>
      <trkpt lat="42.98634" lon="0.53721">
        <ele>1338</ele>
        <time>2019-06-30T11:36:23.000Z</time>
      </trkpt>
      <trkpt lat="42.98634" lon="0.53723">
        <ele>1338</ele>
        <time>2019-06-30T11:36:25.000Z</time>
      </trkpt>
      <trkpt lat="42.98633" lon="0.53725">
        <ele>1338</ele>
        <time>2019-06-30T11:36:27.000Z</time>
      </trkpt>
      <trkpt lat="42.98634" lon="0.53728">
        <ele>1337</ele>
        <time>2019-06-30T11:36:29.000Z</time>
      </trkpt>
      <trkpt lat="42.98634" lon="0.53731">
        <ele>1336</ele>
        <time>2019-06-30T11:36:31.000Z</time>
      </trkpt>
      <trkpt lat="42.98633" lon="0.53734">
        <ele>1335</ele>
        <time>2019-06-30T11:36:33.000Z</time>
      </trkpt>
      <trkpt lat="42.98633" lon="0.53736">
        <ele>1335</ele>
        <time>2019-06-30T11:36:35.000Z</time>
      </trkpt>
      <trkpt lat="42.98632" lon="0.53739">
        <ele>1335</ele>
        <time>2019-06-30T11:36:37.000Z</time>
      </trkpt>
      <trkpt lat="42.98632" lon="0.53741">
        <ele>1335</ele>
        <time>2019-06-30T11:36:39.000Z</time>
      </trkpt>
      <trkpt lat="42.98631" lon="0.53743">
        <ele>1334</ele>
        <time>2019-06-30T11:36:41.000Z</time>
      </trkpt>
      <trkpt lat="42.98632" lon="0.53746">
        <ele>1334</ele>
        <time>2019-06-30T11:36:43.000Z</time>
      </trkpt>
      <trkpt lat="42.98632" lon="0.53749">
        <ele>1332</ele>
        <time>2019-06-30T11:36:45.000Z</time>
      </trkpt>
      <trkpt lat="42.98632" lon="0.53752">
        <ele>1332</ele>
        <time>2019-06-30T11:36:47.000Z</time>
      </trkpt>
      <trkpt lat="42.98632" lon="0.53755">
        <ele>1331</ele>
        <time>2019-06-30T11:36:49.000Z</time>
      </trkpt>
      <trkpt lat="42.98631" lon="0.53757">
        <ele>1331</ele>
        <time>2019-06-30T11:36:51.000Z</time>
      </trkpt>
      <trkpt lat="42.98631" lon="0.5376">
        <ele>1331</ele>
        <time>2019-06-30T11:36:53.000Z</time>
      </trkpt>
      <trkpt lat="42.98631" lon="0.53763">
        <ele>1330</ele>
        <time>2019-06-30T11:36:55.000Z</time>
      </trkpt>
      <trkpt lat="42.98631" lon="0.53765">
        <ele>1330</ele>
        <time>2019-06-30T11:36:57.000Z</time>
      </trkpt>
      <trkpt lat="42.98631" lon="0.53768">
        <ele>1330</ele>
        <time>2019-06-30T11:36:59.000Z</time>
      </trkpt>
      <trkpt lat="42.9863" lon="0.5377">
        <ele>1329</ele>
        <time>2019-06-30T11:37:01.000Z</time>
      </trkpt>
      <trkpt lat="42.9863" lon="0.53772">
        <ele>1329</ele>
        <time>2019-06-30T11:37:03.000Z</time>
      </trkpt>
      <trkpt lat="42.9863" lon="0.53774">
        <ele>1328</ele>
        <time>2019-06-30T11:37:05.000Z</time>
      </trkpt>
      <trkpt lat="42.98629" lon="0.53777">
        <ele>1329</ele>
        <time>2019-06-30T11:37:07.000Z</time>
      </trkpt>
      <trkpt lat="42.98629" lon="0.5378">
        <ele>1328</ele>
        <time>2019-06-30T11:37:09.000Z</time>
      </trkpt>
      <trkpt lat="42.98628" lon="0.53783">
        <ele>1328</ele>
        <time>2019-06-30T11:37:11.000Z</time>
      </trkpt>
      <trkpt lat="42.98628" lon="0.53785">
        <ele>1328</ele>
        <time>2019-06-30T11:37:13.000Z</time>
      </trkpt>
      <trkpt lat="42.98626" lon="0.53787">
        <ele>1328</ele>
        <time>2019-06-30T11:37:15.000Z</time>
      </trkpt>
      <trkpt lat="42.98625" lon="0.53789">
        <ele>1329</ele>
        <time>2019-06-30T11:37:17.000Z</time>
      </trkpt>
      <trkpt lat="42.98625" lon="0.53791">
        <ele>1329</ele>
        <time>2019-06-30T11:37:19.000Z</time>
      </trkpt>
      <trkpt lat="42.98625" lon="0.53793">
        <ele>1328</ele>
        <time>2019-06-30T11:37:21.000Z</time>
      </trkpt>
      <trkpt lat="42.98624" lon="0.53796">
        <ele>1328</ele>
        <time>2019-06-30T11:37:23.000Z</time>
      </trkpt>
      <trkpt lat="42.98624" lon="0.53799">
        <ele>1328</ele>
        <time>2019-06-30T11:37:25.000Z</time>
      </trkpt>
      <trkpt lat="42.98623" lon="0.53801">
        <ele>1328</ele>
        <time>2019-06-30T11:37:27.000Z</time>
      </trkpt>
      <trkpt lat="42.98622" lon="0.53805">
        <ele>1328</ele>
        <time>2019-06-30T11:37:29.000Z</time>
      </trkpt>
      <trkpt lat="42.98621" lon="0.53808">
        <ele>1327</ele>
        <time>2019-06-30T11:37:31.000Z</time>
      </trkpt>
      <trkpt lat="42.98621" lon="0.5381">
        <ele>1327</ele>
        <time>2019-06-30T11:37:33.000Z</time>
      </trkpt>
      <trkpt lat="42.98622" lon="0.53813">
        <ele>1325</ele>
        <time>2019-06-30T11:37:35.000Z</time>
      </trkpt>
      <trkpt lat="42.98622" lon="0.53816">
        <ele>1325</ele>
        <time>2019-06-30T11:37:37.000Z</time>
      </trkpt>
      <trkpt lat="42.98622" lon="0.53819">
        <ele>1324</ele>
        <time>2019-06-30T11:37:39.000Z</time>
      </trkpt>
      <trkpt lat="42.98623" lon="0.53822">
        <ele>1323</ele>
        <time>2019-06-30T11:37:41.000Z</time>
      </trkpt>
      <trkpt lat="42.98621" lon="0.53825">
        <ele>1323</ele>
        <time>2019-06-30T11:37:43.000Z</time>
      </trkpt>
      <trkpt lat="42.98621" lon="0.53827">
        <ele>1322</ele>
        <time>2019-06-30T11:37:45.000Z</time>
      </trkpt>
      <trkpt lat="42.98622" lon="0.5383">
        <ele>1321</ele>
        <time>2019-06-30T11:37:47.000Z</time>
      </trkpt>
      <trkpt lat="42.98622" lon="0.53833">
        <ele>1320</ele>
        <time>2019-06-30T11:37:49.000Z</time>
      </trkpt>
      <trkpt lat="42.98622" lon="0.53836">
        <ele>1319</ele>
        <time>2019-06-30T11:37:51.000Z</time>
      </trkpt>
      <trkpt lat="42.9862" lon="0.53838">
        <ele>1320</ele>
        <time>2019-06-30T11:37:53.000Z</time>
      </trkpt>
      <trkpt lat="42.98618" lon="0.5384">
        <ele>1321</ele>
        <time>2019-06-30T11:37:55.000Z</time>
      </trkpt>
      <trkpt lat="42.98617" lon="0.53843">
        <ele>1321</ele>
        <time>2019-06-30T11:37:57.000Z</time>
      </trkpt>
      <trkpt lat="42.98615" lon="0.53845">
        <ele>1321</ele>
        <time>2019-06-30T11:37:59.000Z</time>
      </trkpt>
      <trkpt lat="42.98614" lon="0.53847">
        <ele>1322</ele>
        <time>2019-06-30T11:38:01.000Z</time>
      </trkpt>
      <trkpt lat="42.98612" lon="0.53849">
        <ele>1322</ele>
        <time>2019-06-30T11:38:03.000Z</time>
      </trkpt>
      <trkpt lat="42.98611" lon="0.53851">
        <ele>1323</ele>
        <time>2019-06-30T11:38:05.000Z</time>
      </trkpt>
      <trkpt lat="42.98609" lon="0.53853">
        <ele>1323</ele>
        <time>2019-06-30T11:38:07.000Z</time>
      </trkpt>
      <trkpt lat="42.98608" lon="0.53856">
        <ele>1323</ele>
        <time>2019-06-30T11:38:09.000Z</time>
      </trkpt>
      <trkpt lat="42.98607" lon="0.53857">
        <ele>1323</ele>
        <time>2019-06-30T11:38:11.000Z</time>
      </trkpt>
      <trkpt lat="42.98606" lon="0.53859">
        <ele>1324</ele>
        <time>2019-06-30T11:38:13.000Z</time>
      </trkpt>
      <trkpt lat="42.98606" lon="0.53861">
        <ele>1323</ele>
        <time>2019-06-30T11:38:15.000Z</time>
      </trkpt>
      <trkpt lat="42.98606" lon="0.53864">
        <ele>1322</ele>
        <time>2019-06-30T11:38:17.000Z</time>
      </trkpt>
      <trkpt lat="42.98605" lon="0.53867">
        <ele>1322</ele>
        <time>2019-06-30T11:38:19.000Z</time>
      </trkpt>
      <trkpt lat="42.98605" lon="0.53869">
        <ele>1321</ele>
        <time>2019-06-30T11:38:21.000Z</time>
      </trkpt>
      <trkpt lat="42.98604" lon="0.53871">
        <ele>1321</ele>
        <time>2019-06-30T11:38:23.000Z</time>
      </trkpt>
      <trkpt lat="42.98604" lon="0.53874">
        <ele>1320</ele>
        <time>2019-06-30T11:38:25.000Z</time>
      </trkpt>
      <trkpt lat="42.98603" lon="0.53877">
        <ele>1320</ele>
        <time>2019-06-30T11:38:27.000Z</time>
      </trkpt>
      <trkpt lat="42.98604" lon="0.53879">
        <ele>1319</ele>
        <time>2019-06-30T11:38:29.000Z</time>
      </trkpt>
      <trkpt lat="42.98602" lon="0.53881">
        <ele>1320</ele>
        <time>2019-06-30T11:38:31.000Z</time>
      </trkpt>
      <trkpt lat="42.98602" lon="0.53883">
        <ele>1319</ele>
        <time>2019-06-30T11:38:33.000Z</time>
      </trkpt>
      <trkpt lat="42.98602" lon="0.53885">
        <ele>1319</ele>
        <time>2019-06-30T11:38:35.000Z</time>
      </trkpt>
      <trkpt lat="42.98602" lon="0.53887">
        <ele>1319</ele>
        <time>2019-06-30T11:38:37.000Z</time>
      </trkpt>
      <trkpt lat="42.986" lon="0.5389">
        <ele>1319</ele>
        <time>2019-06-30T11:38:39.000Z</time>
      </trkpt>
      <trkpt lat="42.98598" lon="0.53892">
        <ele>1320</ele>
        <time>2019-06-30T11:38:41.000Z</time>
      </trkpt>
      <trkpt lat="42.98596" lon="0.53895">
        <ele>1320</ele>
        <time>2019-06-30T11:38:43.000Z</time>
      </trkpt>
      <trkpt lat="42.98596" lon="0.53898">
        <ele>1320</ele>
        <time>2019-06-30T11:38:45.000Z</time>
      </trkpt>
      <trkpt lat="42.98594" lon="0.539">
        <ele>1321</ele>
        <time>2019-06-30T11:38:47.000Z</time>
      </trkpt>
      <trkpt lat="42.98593" lon="0.53902">
        <ele>1321</ele>
        <time>2019-06-30T11:38:49.000Z</time>
      </trkpt>
      <trkpt lat="42.98591" lon="0.53905">
        <ele>1322</ele>
        <time>2019-06-30T11:38:51.000Z</time>
      </trkpt>
      <trkpt lat="42.9859" lon="0.53907">
        <ele>1322</ele>
        <time>2019-06-30T11:38:53.000Z</time>
      </trkpt>
      <trkpt lat="42.98588" lon="0.53908">
        <ele>1323</ele>
        <time>2019-06-30T11:38:55.000Z</time>
      </trkpt>
      <trkpt lat="42.98589" lon="0.53911">
        <ele>1322</ele>
        <time>2019-06-30T11:38:57.000Z</time>
      </trkpt>
      <trkpt lat="42.98589" lon="0.53914">
        <ele>1321</ele>
        <time>2019-06-30T11:38:59.000Z</time>
      </trkpt>
      <trkpt lat="42.98589" lon="0.53917">
        <ele>1321</ele>
        <time>2019-06-30T11:39:01.000Z</time>
      </trkpt>
      <trkpt lat="42.98589" lon="0.5392">
        <ele>1320</ele>
        <time>2019-06-30T11:39:03.000Z</time>
      </trkpt>
      <trkpt lat="42.98589" lon="0.53923">
        <ele>1319</ele>
        <time>2019-06-30T11:39:05.000Z</time>
      </trkpt>
      <trkpt lat="42.98588" lon="0.53925">
        <ele>1319</ele>
        <time>2019-06-30T11:39:07.000Z</time>
      </trkpt>
      <trkpt lat="42.98588" lon="0.53928">
        <ele>1319</ele>
        <time>2019-06-30T11:39:09.000Z</time>
      </trkpt>
      <trkpt lat="42.98588" lon="0.53931">
        <ele>1318</ele>
        <time>2019-06-30T11:39:11.000Z</time>
      </trkpt>
      <trkpt lat="42.98588" lon="0.53933">
        <ele>1318</ele>
        <time>2019-06-30T11:39:13.000Z</time>
      </trkpt>
      <trkpt lat="42.98587" lon="0.53935">
        <ele>1318</ele>
        <time>2019-06-30T11:39:15.000Z</time>
      </trkpt>
      <trkpt lat="42.98586" lon="0.53938">
        <ele>1318</ele>
        <time>2019-06-30T11:39:17.000Z</time>
      </trkpt>
      <trkpt lat="42.98585" lon="0.53941">
        <ele>1318</ele>
        <time>2019-06-30T11:39:19.000Z</time>
      </trkpt>
      <trkpt lat="42.98583" lon="0.53944">
        <ele>1318</ele>
        <time>2019-06-30T11:39:21.000Z</time>
      </trkpt>
      <trkpt lat="42.98583" lon="0.53946">
        <ele>1318</ele>
        <time>2019-06-30T11:39:23.000Z</time>
      </trkpt>
      <trkpt lat="42.98581" lon="0.53949">
        <ele>1318</ele>
        <time>2019-06-30T11:39:25.000Z</time>
      </trkpt>
      <trkpt lat="42.9858" lon="0.53951">
        <ele>1319</ele>
        <time>2019-06-30T11:39:27.000Z</time>
      </trkpt>
      <trkpt lat="42.98579" lon="0.53953">
        <ele>1319</ele>
        <time>2019-06-30T11:39:29.000Z</time>
      </trkpt>
      <trkpt lat="42.9858" lon="0.53957">
        <ele>1317</ele>
        <time>2019-06-30T11:39:31.000Z</time>
      </trkpt>
      <trkpt lat="42.9858" lon="0.53959">
        <ele>1317</ele>
        <time>2019-06-30T11:39:33.000Z</time>
      </trkpt>
      <trkpt lat="42.9858" lon="0.53962">
        <ele>1316</ele>
        <time>2019-06-30T11:39:35.000Z</time>
      </trkpt>
      <trkpt lat="42.9858" lon="0.53964">
        <ele>1316</ele>
        <time>2019-06-30T11:39:37.000Z</time>
      </trkpt>
      <trkpt lat="42.98578" lon="0.53967">
        <ele>1316</ele>
        <time>2019-06-30T11:39:39.000Z</time>
      </trkpt>
      <trkpt lat="42.98578" lon="0.5397">
        <ele>1316</ele>
        <time>2019-06-30T11:39:41.000Z</time>
      </trkpt>
      <trkpt lat="42.98577" lon="0.53972">
        <ele>1316</ele>
        <time>2019-06-30T11:39:43.000Z</time>
      </trkpt>
      <trkpt lat="42.98576" lon="0.53974">
        <ele>1316</ele>
        <time>2019-06-30T11:39:45.000Z</time>
      </trkpt>
      <trkpt lat="42.98576" lon="0.53976">
        <ele>1315</ele>
        <time>2019-06-30T11:39:47.000Z</time>
      </trkpt>
      <trkpt lat="42.98577" lon="0.53979">
        <ele>1314</ele>
        <time>2019-06-30T11:39:49.000Z</time>
      </trkpt>
      <trkpt lat="42.98576" lon="0.53982">
        <ele>1313</ele>
        <time>2019-06-30T11:39:51.000Z</time>
      </trkpt>
      <trkpt lat="42.98575" lon="0.53985">
        <ele>1313</ele>
        <time>2019-06-30T11:39:53.000Z</time>
      </trkpt>
      <trkpt lat="42.98575" lon="0.53988">
        <ele>1312</ele>
        <time>2019-06-30T11:39:55.000Z</time>
      </trkpt>
      <trkpt lat="42.98574" lon="0.53991">
        <ele>1312</ele>
        <time>2019-06-30T11:39:57.000Z</time>
      </trkpt>
      <trkpt lat="42.98574" lon="0.53994">
        <ele>1311</ele>
        <time>2019-06-30T11:39:59.000Z</time>
      </trkpt>
      <trkpt lat="42.98574" lon="0.53997">
        <ele>1310</ele>
        <time>2019-06-30T11:40:01.000Z</time>
      </trkpt>
      <trkpt lat="42.98575" lon="0.54">
        <ele>1309</ele>
        <time>2019-06-30T11:40:03.000Z</time>
      </trkpt>
      <trkpt lat="42.98575" lon="0.54003">
        <ele>1308</ele>
        <time>2019-06-30T11:40:05.000Z</time>
      </trkpt>
      <trkpt lat="42.98575" lon="0.54006">
        <ele>1307</ele>
        <time>2019-06-30T11:40:07.000Z</time>
      </trkpt>
      <trkpt lat="42.98574" lon="0.54008">
        <ele>1307</ele>
        <time>2019-06-30T11:40:09.000Z</time>
      </trkpt>
      <trkpt lat="42.98574" lon="0.54011">
        <ele>1306</ele>
        <time>2019-06-30T11:40:11.000Z</time>
      </trkpt>
      <trkpt lat="42.98574" lon="0.54014">
        <ele>1306</ele>
        <time>2019-06-30T11:40:13.000Z</time>
      </trkpt>
      <trkpt lat="42.98573" lon="0.54016">
        <ele>1305</ele>
        <time>2019-06-30T11:40:15.000Z</time>
      </trkpt>
      <trkpt lat="42.98572" lon="0.54019">
        <ele>1305</ele>
        <time>2019-06-30T11:40:17.000Z</time>
      </trkpt>
      <trkpt lat="42.98572" lon="0.54022">
        <ele>1305</ele>
        <time>2019-06-30T11:40:19.000Z</time>
      </trkpt>
      <trkpt lat="42.98572" lon="0.54025">
        <ele>1304</ele>
        <time>2019-06-30T11:40:21.000Z</time>
      </trkpt>
      <trkpt lat="42.98571" lon="0.54027">
        <ele>1304</ele>
        <time>2019-06-30T11:40:23.000Z</time>
      </trkpt>
      <trkpt lat="42.98569" lon="0.5403">
        <ele>1304</ele>
        <time>2019-06-30T11:40:25.000Z</time>
      </trkpt>
      <trkpt lat="42.98568" lon="0.54032">
        <ele>1304</ele>
        <time>2019-06-30T11:40:27.000Z</time>
      </trkpt>
      <trkpt lat="42.98567" lon="0.54035">
        <ele>1303</ele>
        <time>2019-06-30T11:40:29.000Z</time>
      </trkpt>
      <trkpt lat="42.98567" lon="0.54037">
        <ele>1303</ele>
        <time>2019-06-30T11:40:31.000Z</time>
      </trkpt>
      <trkpt lat="42.98566" lon="0.5404">
        <ele>1302</ele>
        <time>2019-06-30T11:40:33.000Z</time>
      </trkpt>
      <trkpt lat="42.98565" lon="0.54042">
        <ele>1302</ele>
        <time>2019-06-30T11:40:35.000Z</time>
      </trkpt>
      <trkpt lat="42.98565" lon="0.54044">
        <ele>1302</ele>
        <time>2019-06-30T11:40:37.000Z</time>
      </trkpt>
      <trkpt lat="42.98564" lon="0.54046">
        <ele>1301</ele>
        <time>2019-06-30T11:40:39.000Z</time>
      </trkpt>
      <trkpt lat="42.98564" lon="0.54048">
        <ele>1301</ele>
        <time>2019-06-30T11:40:41.000Z</time>
      </trkpt>
      <trkpt lat="42.98564" lon="0.54051">
        <ele>1300</ele>
        <time>2019-06-30T11:40:43.000Z</time>
      </trkpt>
      <trkpt lat="42.98564" lon="0.54054">
        <ele>1299</ele>
        <time>2019-06-30T11:40:45.000Z</time>
      </trkpt>
      <trkpt lat="42.98563" lon="0.54057">
        <ele>1299</ele>
        <time>2019-06-30T11:40:47.000Z</time>
      </trkpt>
      <trkpt lat="42.98561" lon="0.54059">
        <ele>1300</ele>
        <time>2019-06-30T11:40:49.000Z</time>
      </trkpt>
      <trkpt lat="42.98558" lon="0.54061">
        <ele>1300</ele>
        <time>2019-06-30T11:40:51.000Z</time>
      </trkpt>
      <trkpt lat="42.98556" lon="0.54063">
        <ele>1301</ele>
        <time>2019-06-30T11:40:53.000Z</time>
      </trkpt>
      <trkpt lat="42.98552" lon="0.54065">
        <ele>1303</ele>
        <time>2019-06-30T11:40:55.000Z</time>
      </trkpt>
      <trkpt lat="42.98551" lon="0.54068">
        <ele>1303</ele>
        <time>2019-06-30T11:40:57.000Z</time>
      </trkpt>
      <trkpt lat="42.98551" lon="0.54071">
        <ele>1302</ele>
        <time>2019-06-30T11:40:59.000Z</time>
      </trkpt>
      <trkpt lat="42.9855" lon="0.54073">
        <ele>1302</ele>
        <time>2019-06-30T11:41:01.000Z</time>
      </trkpt>
      <trkpt lat="42.98548" lon="0.54075">
        <ele>1303</ele>
        <time>2019-06-30T11:41:03.000Z</time>
      </trkpt>
      <trkpt lat="42.98546" lon="0.54078">
        <ele>1303</ele>
        <time>2019-06-30T11:41:05.000Z</time>
      </trkpt>
      <trkpt lat="42.98545" lon="0.5408">
        <ele>1303</ele>
        <time>2019-06-30T11:41:07.000Z</time>
      </trkpt>
      <trkpt lat="42.98544" lon="0.54083">
        <ele>1303</ele>
        <time>2019-06-30T11:41:09.000Z</time>
      </trkpt>
      <trkpt lat="42.98543" lon="0.54086">
        <ele>1303</ele>
        <time>2019-06-30T11:41:11.000Z</time>
      </trkpt>
      <trkpt lat="42.98542" lon="0.54088">
        <ele>1302</ele>
        <time>2019-06-30T11:41:13.000Z</time>
      </trkpt>
      <trkpt lat="42.98542" lon="0.54091">
        <ele>1301</ele>
        <time>2019-06-30T11:41:15.000Z</time>
      </trkpt>
      <trkpt lat="42.9854" lon="0.54093">
        <ele>1301</ele>
        <time>2019-06-30T11:41:17.000Z</time>
      </trkpt>
      <trkpt lat="42.9854" lon="0.54095">
        <ele>1301</ele>
        <time>2019-06-30T11:41:19.000Z</time>
      </trkpt>
      <trkpt lat="42.98539" lon="0.54098">
        <ele>1300</ele>
        <time>2019-06-30T11:41:21.000Z</time>
      </trkpt>
      <trkpt lat="42.98537" lon="0.541">
        <ele>1300</ele>
        <time>2019-06-30T11:41:23.000Z</time>
      </trkpt>
      <trkpt lat="42.98536" lon="0.54103">
        <ele>1300</ele>
        <time>2019-06-30T11:41:25.000Z</time>
      </trkpt>
      <trkpt lat="42.98534" lon="0.54105">
        <ele>1300</ele>
        <time>2019-06-30T11:41:27.000Z</time>
      </trkpt>
      <trkpt lat="42.98533" lon="0.54108">
        <ele>1299</ele>
        <time>2019-06-30T11:41:29.000Z</time>
      </trkpt>
      <trkpt lat="42.98532" lon="0.5411">
        <ele>1299</ele>
        <time>2019-06-30T11:41:31.000Z</time>
      </trkpt>
      <trkpt lat="42.9853" lon="0.54112">
        <ele>1299</ele>
        <time>2019-06-30T11:41:33.000Z</time>
      </trkpt>
      <trkpt lat="42.98529" lon="0.54114">
        <ele>1299</ele>
        <time>2019-06-30T11:41:35.000Z</time>
      </trkpt>
      <trkpt lat="42.98527" lon="0.54115">
        <ele>1299</ele>
        <time>2019-06-30T11:41:37.000Z</time>
      </trkpt>
      <trkpt lat="42.98525" lon="0.54117">
        <ele>1299</ele>
        <time>2019-06-30T11:41:39.000Z</time>
      </trkpt>
      <trkpt lat="42.98524" lon="0.54119">
        <ele>1299</ele>
        <time>2019-06-30T11:41:41.000Z</time>
      </trkpt>
      <trkpt lat="42.98523" lon="0.54122">
        <ele>1299</ele>
        <time>2019-06-30T11:41:43.000Z</time>
      </trkpt>
      <trkpt lat="42.9852" lon="0.54124">
        <ele>1299</ele>
        <time>2019-06-30T11:41:45.000Z</time>
      </trkpt>
      <trkpt lat="42.98518" lon="0.54126">
        <ele>1299</ele>
        <time>2019-06-30T11:41:47.000Z</time>
      </trkpt>
      <trkpt lat="42.98517" lon="0.54129">
        <ele>1299</ele>
        <time>2019-06-30T11:41:49.000Z</time>
      </trkpt>
      <trkpt lat="42.98516" lon="0.54131">
        <ele>1299</ele>
        <time>2019-06-30T11:41:51.000Z</time>
      </trkpt>
      <trkpt lat="42.98516" lon="0.54134">
        <ele>1297</ele>
        <time>2019-06-30T11:41:53.000Z</time>
      </trkpt>
      <trkpt lat="42.98515" lon="0.54137">
        <ele>1297</ele>
        <time>2019-06-30T11:41:55.000Z</time>
      </trkpt>
      <trkpt lat="42.98515" lon="0.5414">
        <ele>1296</ele>
        <time>2019-06-30T11:41:57.000Z</time>
      </trkpt>
      <trkpt lat="42.98514" lon="0.54141">
        <ele>1296</ele>
        <time>2019-06-30T11:41:59.000Z</time>
      </trkpt>
      <trkpt lat="42.98515" lon="0.5414">
        <ele>1296</ele>
        <time>2019-06-30T11:42:01.000Z</time>
      </trkpt>
      <trkpt lat="42.98514" lon="0.54139">
        <ele>1297</ele>
        <time>2019-06-30T11:42:03.000Z</time>
      </trkpt>
      <trkpt lat="42.98513" lon="0.54138">
        <ele>1297</ele>
        <time>2019-06-30T11:42:05.000Z</time>
      </trkpt>
      <trkpt lat="42.98512" lon="0.54136">
        <ele>1299</ele>
        <time>2019-06-30T11:42:07.000Z</time>
      </trkpt>
      <trkpt lat="42.98512" lon="0.54135">
        <ele>1299</ele>
        <time>2019-06-30T11:42:09.000Z</time>
      </trkpt>
      <trkpt lat="42.98513" lon="0.54133">
        <ele>1299</ele>
        <time>2019-06-30T11:42:11.000Z</time>
      </trkpt>
      <trkpt lat="42.98514" lon="0.5413">
        <ele>1300</ele>
        <time>2019-06-30T11:42:13.000Z</time>
      </trkpt>
      <trkpt lat="42.98515" lon="0.54128">
        <ele>1300</ele>
        <time>2019-06-30T11:42:15.000Z</time>
      </trkpt>
      <trkpt lat="42.98517" lon="0.54125">
        <ele>1300</ele>
        <time>2019-06-30T11:42:17.000Z</time>
      </trkpt>
      <trkpt lat="42.98518" lon="0.54123">
        <ele>1300</ele>
        <time>2019-06-30T11:42:19.000Z</time>
      </trkpt>
      <trkpt lat="42.9852" lon="0.54121">
        <ele>1300</ele>
        <time>2019-06-30T11:42:21.000Z</time>
      </trkpt>
      <trkpt lat="42.98521" lon="0.5412">
        <ele>1300</ele>
        <time>2019-06-30T11:42:23.000Z</time>
      </trkpt>
      <trkpt lat="42.98523" lon="0.5412">
        <ele>1300</ele>
        <time>2019-06-30T11:42:25.000Z</time>
      </trkpt>
      <trkpt lat="42.98524" lon="0.54118">
        <ele>1300</ele>
        <time>2019-06-30T11:42:27.000Z</time>
      </trkpt>
      <trkpt lat="42.98525" lon="0.54116">
        <ele>1300</ele>
        <time>2019-06-30T11:42:29.000Z</time>
      </trkpt>
      <trkpt lat="42.98526" lon="0.54115">
        <ele>1300</ele>
        <time>2019-06-30T11:42:31.000Z</time>
      </trkpt>
      <trkpt lat="42.98527" lon="0.54113">
        <ele>1300</ele>
        <time>2019-06-30T11:42:33.000Z</time>
      </trkpt>
      <trkpt lat="42.98529" lon="0.54113">
        <ele>1299</ele>
        <time>2019-06-30T11:42:35.000Z</time>
      </trkpt>
      <trkpt lat="42.9853" lon="0.54112">
        <ele>1299</ele>
        <time>2019-06-30T11:42:37.000Z</time>
      </trkpt>
      <trkpt lat="42.98531" lon="0.5411">
        <ele>1299</ele>
        <time>2019-06-30T11:42:39.000Z</time>
      </trkpt>
      <trkpt lat="42.98533" lon="0.54109">
        <ele>1298</ele>
        <time>2019-06-30T11:42:41.000Z</time>
      </trkpt>
      <trkpt lat="42.98535" lon="0.54108">
        <ele>1298</ele>
        <time>2019-06-30T11:42:43.000Z</time>
      </trkpt>
      <trkpt lat="42.98536" lon="0.54107">
        <ele>1298</ele>
        <time>2019-06-30T11:42:45.000Z</time>
      </trkpt>
      <trkpt lat="42.98537" lon="0.54106">
        <ele>1298</ele>
        <time>2019-06-30T11:42:47.000Z</time>
      </trkpt>
      <trkpt lat="42.98539" lon="0.54105">
        <ele>1298</ele>
        <time>2019-06-30T11:42:49.000Z</time>
      </trkpt>
      <trkpt lat="42.98541" lon="0.54103">
        <ele>1297</ele>
        <time>2019-06-30T11:42:51.000Z</time>
      </trkpt>
      <trkpt lat="42.98542" lon="0.54102">
        <ele>1297</ele>
        <time>2019-06-30T11:42:53.000Z</time>
      </trkpt>
      <trkpt lat="42.98544" lon="0.541">
        <ele>1297</ele>
        <time>2019-06-30T11:42:55.000Z</time>
      </trkpt>
      <trkpt lat="42.98546" lon="0.54098">
        <ele>1296</ele>
        <time>2019-06-30T11:42:57.000Z</time>
      </trkpt>
      <trkpt lat="42.98549" lon="0.54097">
        <ele>1296</ele>
        <time>2019-06-30T11:42:59.000Z</time>
      </trkpt>
      <trkpt lat="42.98552" lon="0.54096">
        <ele>1295</ele>
        <time>2019-06-30T11:43:01.000Z</time>
      </trkpt>
      <trkpt lat="42.98555" lon="0.54095">
        <ele>1293</ele>
        <time>2019-06-30T11:43:03.000Z</time>
      </trkpt>
      <trkpt lat="42.98558" lon="0.54094">
        <ele>1292</ele>
        <time>2019-06-30T11:43:05.000Z</time>
      </trkpt>
      <trkpt lat="42.9856" lon="0.54093">
        <ele>1291</ele>
        <time>2019-06-30T11:43:07.000Z</time>
      </trkpt>
      <trkpt lat="42.98563" lon="0.54091">
        <ele>1290</ele>
        <time>2019-06-30T11:43:09.000Z</time>
      </trkpt>
      <trkpt lat="42.98565" lon="0.54089">
        <ele>1289</ele>
        <time>2019-06-30T11:43:11.000Z</time>
      </trkpt>
      <trkpt lat="42.98567" lon="0.54087">
        <ele>1289</ele>
        <time>2019-06-30T11:43:13.000Z</time>
      </trkpt>
      <trkpt lat="42.98568" lon="0.54087">
        <ele>1288</ele>
        <time>2019-06-30T11:43:15.000Z</time>
      </trkpt>
      <trkpt lat="42.98571" lon="0.54086">
        <ele>1286</ele>
        <time>2019-06-30T11:43:17.000Z</time>
      </trkpt>
      <trkpt lat="42.98573" lon="0.54085">
        <ele>1285</ele>
        <time>2019-06-30T11:43:19.000Z</time>
      </trkpt>
      <trkpt lat="42.98575" lon="0.54084">
        <ele>1284</ele>
        <time>2019-06-30T11:43:21.000Z</time>
      </trkpt>
      <trkpt lat="42.98577" lon="0.54082">
        <ele>1284</ele>
        <time>2019-06-30T11:43:23.000Z</time>
      </trkpt>
      <trkpt lat="42.98577" lon="0.54081">
        <ele>1284</ele>
        <time>2019-06-30T11:43:25.000Z</time>
      </trkpt>
      <trkpt lat="42.98579" lon="0.54079">
        <ele>1284</ele>
        <time>2019-06-30T11:43:27.000Z</time>
      </trkpt>
      <trkpt lat="42.9858" lon="0.54079">
        <ele>1283</ele>
        <time>2019-06-30T11:43:29.000Z</time>
      </trkpt>
      <trkpt lat="42.98582" lon="0.54078">
        <ele>1283</ele>
        <time>2019-06-30T11:43:31.000Z</time>
      </trkpt>
      <trkpt lat="42.98583" lon="0.54076">
        <ele>1282</ele>
        <time>2019-06-30T11:43:33.000Z</time>
      </trkpt>
      <trkpt lat="42.98584" lon="0.54075">
        <ele>1282</ele>
        <time>2019-06-30T11:43:35.000Z</time>
      </trkpt>
      <trkpt lat="42.98584" lon="0.54074">
        <ele>1282</ele>
        <time>2019-06-30T11:43:37.000Z</time>
      </trkpt>
      <trkpt lat="42.98586" lon="0.54073">
        <ele>1281</ele>
        <time>2019-06-30T11:43:39.000Z</time>
      </trkpt>
      <trkpt lat="42.98587" lon="0.54072">
        <ele>1281</ele>
        <time>2019-06-30T11:43:41.000Z</time>
      </trkpt>
      <trkpt lat="42.98588" lon="0.5407">
        <ele>1281</ele>
        <time>2019-06-30T11:43:43.000Z</time>
      </trkpt>
      <trkpt lat="42.98589" lon="0.54069">
        <ele>1280</ele>
        <time>2019-06-30T11:43:45.000Z</time>
      </trkpt>
      <trkpt lat="42.98592" lon="0.54068">
        <ele>1279</ele>
        <time>2019-06-30T11:43:47.000Z</time>
      </trkpt>
      <trkpt lat="42.98593" lon="0.54067">
        <ele>1279</ele>
        <time>2019-06-30T11:43:49.000Z</time>
      </trkpt>
      <trkpt lat="42.98593" lon="0.54065">
        <ele>1279</ele>
        <time>2019-06-30T11:43:51.000Z</time>
      </trkpt>
      <trkpt lat="42.98596" lon="0.54063">
        <ele>1278</ele>
        <time>2019-06-30T11:43:53.000Z</time>
      </trkpt>
      <trkpt lat="42.98597" lon="0.54062">
        <ele>1278</ele>
        <time>2019-06-30T11:43:55.000Z</time>
      </trkpt>
      <trkpt lat="42.98598" lon="0.5406">
        <ele>1278</ele>
        <time>2019-06-30T11:43:57.000Z</time>
      </trkpt>
      <trkpt lat="42.98599" lon="0.54058">
        <ele>1278</ele>
        <time>2019-06-30T11:43:59.000Z</time>
      </trkpt>
      <trkpt lat="42.986" lon="0.54056">
        <ele>1278</ele>
        <time>2019-06-30T11:44:01.000Z</time>
      </trkpt>
      <trkpt lat="42.98602" lon="0.54054">
        <ele>1277</ele>
        <time>2019-06-30T11:44:03.000Z</time>
      </trkpt>
      <trkpt lat="42.98603" lon="0.54053">
        <ele>1277</ele>
        <time>2019-06-30T11:44:05.000Z</time>
      </trkpt>
      <trkpt lat="42.98605" lon="0.54051">
        <ele>1276</ele>
        <time>2019-06-30T11:44:07.000Z</time>
      </trkpt>
      <trkpt lat="42.98607" lon="0.5405">
        <ele>1275</ele>
        <time>2019-06-30T11:44:09.000Z</time>
      </trkpt>
      <trkpt lat="42.98608" lon="0.54051">
        <ele>1274</ele>
        <time>2019-06-30T11:44:11.000Z</time>
      </trkpt>
      <trkpt lat="42.9861" lon="0.54052">
        <ele>1273</ele>
        <time>2019-06-30T11:44:13.000Z</time>
      </trkpt>
      <trkpt lat="42.98612" lon="0.54054">
        <ele>1272</ele>
        <time>2019-06-30T11:44:15.000Z</time>
      </trkpt>
      <trkpt lat="42.98612" lon="0.54055">
        <ele>1271</ele>
        <time>2019-06-30T11:44:17.000Z</time>
      </trkpt>
      <trkpt lat="42.98612" lon="0.54057">
        <ele>1270</ele>
        <time>2019-06-30T11:44:19.000Z</time>
      </trkpt>
      <trkpt lat="42.98612" lon="0.5406">
        <ele>1270</ele>
        <time>2019-06-30T11:44:21.000Z</time>
      </trkpt>
      <trkpt lat="42.98612" lon="0.54062">
        <ele>1269</ele>
        <time>2019-06-30T11:44:23.000Z</time>
      </trkpt>
      <trkpt lat="42.98613" lon="0.54064">
        <ele>1268</ele>
        <time>2019-06-30T11:44:25.000Z</time>
      </trkpt>
      <trkpt lat="42.98615" lon="0.54067">
        <ele>1266</ele>
        <time>2019-06-30T11:44:27.000Z</time>
      </trkpt>
      <trkpt lat="42.98616" lon="0.5407">
        <ele>1265</ele>
        <time>2019-06-30T11:44:29.000Z</time>
      </trkpt>
      <trkpt lat="42.98615" lon="0.54072">
        <ele>1265</ele>
        <time>2019-06-30T11:44:31.000Z</time>
      </trkpt>
      <trkpt lat="42.98614" lon="0.54073">
        <ele>1265</ele>
        <time>2019-06-30T11:44:33.000Z</time>
      </trkpt>
      <trkpt lat="42.98614" lon="0.54076">
        <ele>1265</ele>
        <time>2019-06-30T11:44:35.000Z</time>
      </trkpt>
      <trkpt lat="42.98613" lon="0.54078">
        <ele>1264</ele>
        <time>2019-06-30T11:44:37.000Z</time>
      </trkpt>
      <trkpt lat="42.98613" lon="0.5408">
        <ele>1264</ele>
        <time>2019-06-30T11:44:39.000Z</time>
      </trkpt>
      <trkpt lat="42.98614" lon="0.54083">
        <ele>1263</ele>
        <time>2019-06-30T11:44:41.000Z</time>
      </trkpt>
      <trkpt lat="42.98614" lon="0.54086">
        <ele>1262</ele>
        <time>2019-06-30T11:44:43.000Z</time>
      </trkpt>
      <trkpt lat="42.98614" lon="0.54088">
        <ele>1261</ele>
        <time>2019-06-30T11:44:45.000Z</time>
      </trkpt>
      <trkpt lat="42.98613" lon="0.54091">
        <ele>1261</ele>
        <time>2019-06-30T11:44:47.000Z</time>
      </trkpt>
      <trkpt lat="42.98613" lon="0.54093">
        <ele>1261</ele>
        <time>2019-06-30T11:44:49.000Z</time>
      </trkpt>
      <trkpt lat="42.98613" lon="0.54095">
        <ele>1260</ele>
        <time>2019-06-30T11:44:51.000Z</time>
      </trkpt>
      <trkpt lat="42.98613" lon="0.54097">
        <ele>1260</ele>
        <time>2019-06-30T11:44:53.000Z</time>
      </trkpt>
      <trkpt lat="42.98612" lon="0.541">
        <ele>1259</ele>
        <time>2019-06-30T11:44:55.000Z</time>
      </trkpt>
      <trkpt lat="42.98612" lon="0.54102">
        <ele>1259</ele>
        <time>2019-06-30T11:44:57.000Z</time>
      </trkpt>
      <trkpt lat="42.98611" lon="0.54104">
        <ele>1259</ele>
        <time>2019-06-30T11:44:59.000Z</time>
      </trkpt>
      <trkpt lat="42.9861" lon="0.54105">
        <ele>1259</ele>
        <time>2019-06-30T11:45:01.000Z</time>
      </trkpt>
      <trkpt lat="42.98609" lon="0.54107">
        <ele>1259</ele>
        <time>2019-06-30T11:45:03.000Z</time>
      </trkpt>
      <trkpt lat="42.98608" lon="0.54109">
        <ele>1259</ele>
        <time>2019-06-30T11:45:05.000Z</time>
      </trkpt>
      <trkpt lat="42.98608" lon="0.54112">
        <ele>1258</ele>
        <time>2019-06-30T11:45:07.000Z</time>
      </trkpt>
      <trkpt lat="42.98609" lon="0.54114">
        <ele>1257</ele>
        <time>2019-06-30T11:45:09.000Z</time>
      </trkpt>
      <trkpt lat="42.98609" lon="0.54116">
        <ele>1257</ele>
        <time>2019-06-30T11:45:11.000Z</time>
      </trkpt>
      <trkpt lat="42.9861" lon="0.54118">
        <ele>1256</ele>
        <time>2019-06-30T11:45:13.000Z</time>
      </trkpt>
      <trkpt lat="42.98609" lon="0.5412">
        <ele>1256</ele>
        <time>2019-06-30T11:45:15.000Z</time>
      </trkpt>
      <trkpt lat="42.98607" lon="0.54122">
        <ele>1256</ele>
        <time>2019-06-30T11:45:17.000Z</time>
      </trkpt>
      <trkpt lat="42.98606" lon="0.54124">
        <ele>1256</ele>
        <time>2019-06-30T11:45:19.000Z</time>
      </trkpt>
      <trkpt lat="42.98605" lon="0.54126">
        <ele>1257</ele>
        <time>2019-06-30T11:45:21.000Z</time>
      </trkpt>
      <trkpt lat="42.98603" lon="0.54127">
        <ele>1257</ele>
        <time>2019-06-30T11:45:23.000Z</time>
      </trkpt>
      <trkpt lat="42.98602" lon="0.54129">
        <ele>1257</ele>
        <time>2019-06-30T11:45:25.000Z</time>
      </trkpt>
      <trkpt lat="42.98602" lon="0.54131">
        <ele>1257</ele>
        <time>2019-06-30T11:45:27.000Z</time>
      </trkpt>
      <trkpt lat="42.986" lon="0.54132">
        <ele>1258</ele>
        <time>2019-06-30T11:45:29.000Z</time>
      </trkpt>
      <trkpt lat="42.98598" lon="0.54134">
        <ele>1258</ele>
        <time>2019-06-30T11:45:31.000Z</time>
      </trkpt>
      <trkpt lat="42.98598" lon="0.54136">
        <ele>1258</ele>
        <time>2019-06-30T11:45:33.000Z</time>
      </trkpt>
      <trkpt lat="42.98597" lon="0.54137">
        <ele>1258</ele>
        <time>2019-06-30T11:45:35.000Z</time>
      </trkpt>
      <trkpt lat="42.98596" lon="0.54139">
        <ele>1258</ele>
        <time>2019-06-30T11:45:37.000Z</time>
      </trkpt>
      <trkpt lat="42.98596" lon="0.5414">
        <ele>1257</ele>
        <time>2019-06-30T11:45:39.000Z</time>
      </trkpt>
      <trkpt lat="42.98595" lon="0.54142">
        <ele>1257</ele>
        <time>2019-06-30T11:45:41.000Z</time>
      </trkpt>
      <trkpt lat="42.98596" lon="0.54145">
        <ele>1257</ele>
        <time>2019-06-30T11:45:43.000Z</time>
      </trkpt>
      <trkpt lat="42.98596" lon="0.54147">
        <ele>1256</ele>
        <time>2019-06-30T11:45:45.000Z</time>
      </trkpt>
      <trkpt lat="42.98596" lon="0.5415">
        <ele>1255</ele>
        <time>2019-06-30T11:45:47.000Z</time>
      </trkpt>
      <trkpt lat="42.98597" lon="0.54152">
        <ele>1254</ele>
        <time>2019-06-30T11:45:49.000Z</time>
      </trkpt>
      <trkpt lat="42.98596" lon="0.54154">
        <ele>1254</ele>
        <time>2019-06-30T11:45:51.000Z</time>
      </trkpt>
      <trkpt lat="42.98595" lon="0.54156">
        <ele>1254</ele>
        <time>2019-06-30T11:45:53.000Z</time>
      </trkpt>
      <trkpt lat="42.98595" lon="0.54158">
        <ele>1254</ele>
        <time>2019-06-30T11:45:55.000Z</time>
      </trkpt>
      <trkpt lat="42.98595" lon="0.54159">
        <ele>1254</ele>
        <time>2019-06-30T11:45:57.000Z</time>
      </trkpt>
      <trkpt lat="42.98595" lon="0.54161">
        <ele>1253</ele>
        <time>2019-06-30T11:45:59.000Z</time>
      </trkpt>
      <trkpt lat="42.98595" lon="0.54163">
        <ele>1252</ele>
        <time>2019-06-30T11:46:01.000Z</time>
      </trkpt>
      <trkpt lat="42.98595" lon="0.54166">
        <ele>1252</ele>
        <time>2019-06-30T11:46:03.000Z</time>
      </trkpt>
      <trkpt lat="42.98596" lon="0.54169">
        <ele>1251</ele>
        <time>2019-06-30T11:46:05.000Z</time>
      </trkpt>
      <trkpt lat="42.98595" lon="0.54171">
        <ele>1250</ele>
        <time>2019-06-30T11:46:07.000Z</time>
      </trkpt>
      <trkpt lat="42.98595" lon="0.54173">
        <ele>1250</ele>
        <time>2019-06-30T11:46:09.000Z</time>
      </trkpt>
      <trkpt lat="42.98594" lon="0.54175">
        <ele>1250</ele>
        <time>2019-06-30T11:46:11.000Z</time>
      </trkpt>
      <trkpt lat="42.98592" lon="0.54178">
        <ele>1251</ele>
        <time>2019-06-30T11:46:13.000Z</time>
      </trkpt>
      <trkpt lat="42.98592" lon="0.5418">
        <ele>1250</ele>
        <time>2019-06-30T11:46:15.000Z</time>
      </trkpt>
      <trkpt lat="42.98592" lon="0.54182">
        <ele>1250</ele>
        <time>2019-06-30T11:46:17.000Z</time>
      </trkpt>
      <trkpt lat="42.98592" lon="0.54184">
        <ele>1249</ele>
        <time>2019-06-30T11:46:19.000Z</time>
      </trkpt>
      <trkpt lat="42.9859" lon="0.54186">
        <ele>1250</ele>
        <time>2019-06-30T11:46:21.000Z</time>
      </trkpt>
      <trkpt lat="42.98589" lon="0.54187">
        <ele>1250</ele>
        <time>2019-06-30T11:46:23.000Z</time>
      </trkpt>
      <trkpt lat="42.98588" lon="0.54189">
        <ele>1250</ele>
        <time>2019-06-30T11:46:25.000Z</time>
      </trkpt>
      <trkpt lat="42.98587" lon="0.5419">
        <ele>1250</ele>
        <time>2019-06-30T11:46:27.000Z</time>
      </trkpt>
      <trkpt lat="42.98587" lon="0.54192">
        <ele>1250</ele>
        <time>2019-06-30T11:46:29.000Z</time>
      </trkpt>
      <trkpt lat="42.98588" lon="0.54195">
        <ele>1248</ele>
        <time>2019-06-30T11:46:31.000Z</time>
      </trkpt>
      <trkpt lat="42.98588" lon="0.54198">
        <ele>1248</ele>
        <time>2019-06-30T11:46:33.000Z</time>
      </trkpt>
      <trkpt lat="42.98589" lon="0.542">
        <ele>1247</ele>
        <time>2019-06-30T11:46:35.000Z</time>
      </trkpt>
      <trkpt lat="42.98589" lon="0.54203">
        <ele>1246</ele>
        <time>2019-06-30T11:46:37.000Z</time>
      </trkpt>
      <trkpt lat="42.98589" lon="0.54205">
        <ele>1245</ele>
        <time>2019-06-30T11:46:39.000Z</time>
      </trkpt>
      <trkpt lat="42.98589" lon="0.54207">
        <ele>1245</ele>
        <time>2019-06-30T11:46:41.000Z</time>
      </trkpt>
      <trkpt lat="42.9859" lon="0.54209">
        <ele>1244</ele>
        <time>2019-06-30T11:46:43.000Z</time>
      </trkpt>
      <trkpt lat="42.9859" lon="0.54212">
        <ele>1243</ele>
        <time>2019-06-30T11:46:45.000Z</time>
      </trkpt>
      <trkpt lat="42.9859" lon="0.54214">
        <ele>1243</ele>
        <time>2019-06-30T11:46:47.000Z</time>
      </trkpt>
      <trkpt lat="42.98588" lon="0.54216">
        <ele>1243</ele>
        <time>2019-06-30T11:46:49.000Z</time>
      </trkpt>
      <trkpt lat="42.98587" lon="0.54218">
        <ele>1242</ele>
        <time>2019-06-30T11:46:51.000Z</time>
      </trkpt>
      <trkpt lat="42.98588" lon="0.5422">
        <ele>1242</ele>
        <time>2019-06-30T11:46:53.000Z</time>
      </trkpt>
      <trkpt lat="42.98588" lon="0.54222">
        <ele>1241</ele>
        <time>2019-06-30T11:46:55.000Z</time>
      </trkpt>
      <trkpt lat="42.98588" lon="0.54224">
        <ele>1241</ele>
        <time>2019-06-30T11:46:57.000Z</time>
      </trkpt>
      <trkpt lat="42.98586" lon="0.54227">
        <ele>1241</ele>
        <time>2019-06-30T11:46:59.000Z</time>
      </trkpt>
      <trkpt lat="42.98584" lon="0.54228">
        <ele>1241</ele>
        <time>2019-06-30T11:47:01.000Z</time>
      </trkpt>
      <trkpt lat="42.98582" lon="0.54229">
        <ele>1242</ele>
        <time>2019-06-30T11:47:03.000Z</time>
      </trkpt>
      <trkpt lat="42.98582" lon="0.54229">
        <ele>1242</ele>
        <time>2019-06-30T11:47:05.000Z</time>
      </trkpt>
      <trkpt lat="42.98582" lon="0.5423">
        <ele>1242</ele>
        <time>2019-06-30T11:47:07.000Z</time>
      </trkpt>
      <trkpt lat="42.98581" lon="0.54233">
        <ele>1241</ele>
        <time>2019-06-30T11:47:09.000Z</time>
      </trkpt>
      <trkpt lat="42.98581" lon="0.54235">
        <ele>1241</ele>
        <time>2019-06-30T11:47:11.000Z</time>
      </trkpt>
      <trkpt lat="42.9858" lon="0.54238">
        <ele>1240</ele>
        <time>2019-06-30T11:47:13.000Z</time>
      </trkpt>
      <trkpt lat="42.9858" lon="0.54241">
        <ele>1239</ele>
        <time>2019-06-30T11:47:15.000Z</time>
      </trkpt>
      <trkpt lat="42.98581" lon="0.54243">
        <ele>1239</ele>
        <time>2019-06-30T11:47:17.000Z</time>
      </trkpt>
      <trkpt lat="42.98581" lon="0.54245">
        <ele>1238</ele>
        <time>2019-06-30T11:47:19.000Z</time>
      </trkpt>
      <trkpt lat="42.98582" lon="0.54247">
        <ele>1237</ele>
        <time>2019-06-30T11:47:21.000Z</time>
      </trkpt>
      <trkpt lat="42.98582" lon="0.54248">
        <ele>1237</ele>
        <time>2019-06-30T11:47:23.000Z</time>
      </trkpt>
      <trkpt lat="42.98582" lon="0.54249">
        <ele>1236</ele>
        <time>2019-06-30T11:47:25.000Z</time>
      </trkpt>
      <trkpt lat="42.98583" lon="0.5425">
        <ele>1236</ele>
        <time>2019-06-30T11:47:27.000Z</time>
      </trkpt>
      <trkpt lat="42.98582" lon="0.5425">
        <ele>1237</ele>
        <time>2019-06-30T11:47:29.000Z</time>
      </trkpt>
      <trkpt lat="42.98582" lon="0.54249">
        <ele>1236</ele>
        <time>2019-06-30T11:47:31.000Z</time>
      </trkpt>
      <trkpt lat="42.98583" lon="0.54249">
        <ele>1236</ele>
        <time>2019-06-30T11:47:33.000Z</time>
      </trkpt>
      <trkpt lat="42.98584" lon="0.54248">
        <ele>1236</ele>
        <time>2019-06-30T11:47:35.000Z</time>
      </trkpt>
      <trkpt lat="42.98584" lon="0.54246">
        <ele>1237</ele>
        <time>2019-06-30T11:47:37.000Z</time>
      </trkpt>
      <trkpt lat="42.98584" lon="0.54244">
        <ele>1237</ele>
        <time>2019-06-30T11:47:39.000Z</time>
      </trkpt>
      <trkpt lat="42.98584" lon="0.54243">
        <ele>1237</ele>
        <time>2019-06-30T11:47:41.000Z</time>
      </trkpt>
      <trkpt lat="42.98585" lon="0.54241">
        <ele>1237</ele>
        <time>2019-06-30T11:47:43.000Z</time>
      </trkpt>
      <trkpt lat="42.98586" lon="0.5424">
        <ele>1238</ele>
        <time>2019-06-30T11:47:45.000Z</time>
      </trkpt>
      <trkpt lat="42.98586" lon="0.54239">
        <ele>1238</ele>
        <time>2019-06-30T11:47:47.000Z</time>
      </trkpt>
      <trkpt lat="42.98587" lon="0.54237">
        <ele>1237</ele>
        <time>2019-06-30T11:47:49.000Z</time>
      </trkpt>
      <trkpt lat="42.98589" lon="0.54236">
        <ele>1237</ele>
        <time>2019-06-30T11:47:51.000Z</time>
      </trkpt>
      <trkpt lat="42.9859" lon="0.54235">
        <ele>1237</ele>
        <time>2019-06-30T11:47:53.000Z</time>
      </trkpt>
      <trkpt lat="42.98592" lon="0.54235">
        <ele>1236</ele>
        <time>2019-06-30T11:47:55.000Z</time>
      </trkpt>
      <trkpt lat="42.98594" lon="0.54235">
        <ele>1235</ele>
        <time>2019-06-30T11:47:57.000Z</time>
      </trkpt>
      <trkpt lat="42.98597" lon="0.54234">
        <ele>1234</ele>
        <time>2019-06-30T11:47:59.000Z</time>
      </trkpt>
      <trkpt lat="42.986" lon="0.54235">
        <ele>1232</ele>
        <time>2019-06-30T11:48:01.000Z</time>
      </trkpt>
      <trkpt lat="42.98601" lon="0.54236">
        <ele>1231</ele>
        <time>2019-06-30T11:48:03.000Z</time>
      </trkpt>
      <trkpt lat="42.98601" lon="0.54238">
        <ele>1230</ele>
        <time>2019-06-30T11:48:05.000Z</time>
      </trkpt>
      <trkpt lat="42.98603" lon="0.54241">
        <ele>1228</ele>
        <time>2019-06-30T11:48:07.000Z</time>
      </trkpt>
      <trkpt lat="42.98604" lon="0.54245">
        <ele>1227</ele>
        <time>2019-06-30T11:48:09.000Z</time>
      </trkpt>
      <trkpt lat="42.98606" lon="0.54249">
        <ele>1225</ele>
        <time>2019-06-30T11:48:11.000Z</time>
      </trkpt>
      <trkpt lat="42.98607" lon="0.54251">
        <ele>1224</ele>
        <time>2019-06-30T11:48:13.000Z</time>
      </trkpt>
      <trkpt lat="42.98607" lon="0.54254">
        <ele>1223</ele>
        <time>2019-06-30T11:48:15.000Z</time>
      </trkpt>
      <trkpt lat="42.98608" lon="0.54256">
        <ele>1222</ele>
        <time>2019-06-30T11:48:17.000Z</time>
      </trkpt>
      <trkpt lat="42.9861" lon="0.54259">
        <ele>1220</ele>
        <time>2019-06-30T11:48:19.000Z</time>
      </trkpt>
      <trkpt lat="42.98611" lon="0.54262">
        <ele>1218</ele>
        <time>2019-06-30T11:48:21.000Z</time>
      </trkpt>
      <trkpt lat="42.98612" lon="0.54264">
        <ele>1218</ele>
        <time>2019-06-30T11:48:23.000Z</time>
      </trkpt>
      <trkpt lat="42.98612" lon="0.54267">
        <ele>1217</ele>
        <time>2019-06-30T11:48:25.000Z</time>
      </trkpt>
      <trkpt lat="42.9861" lon="0.5427">
        <ele>1217</ele>
        <time>2019-06-30T11:48:27.000Z</time>
      </trkpt>
      <trkpt lat="42.9861" lon="0.54272">
        <ele>1216</ele>
        <time>2019-06-30T11:48:29.000Z</time>
      </trkpt>
      <trkpt lat="42.98611" lon="0.54275">
        <ele>1215</ele>
        <time>2019-06-30T11:48:31.000Z</time>
      </trkpt>
      <trkpt lat="42.98611" lon="0.54278">
        <ele>1214</ele>
        <time>2019-06-30T11:48:33.000Z</time>
      </trkpt>
      <trkpt lat="42.98612" lon="0.54281">
        <ele>1213</ele>
        <time>2019-06-30T11:48:35.000Z</time>
      </trkpt>
      <trkpt lat="42.98612" lon="0.54283">
        <ele>1212</ele>
        <time>2019-06-30T11:48:37.000Z</time>
      </trkpt>
      <trkpt lat="42.98612" lon="0.54287">
        <ele>1211</ele>
        <time>2019-06-30T11:48:39.000Z</time>
      </trkpt>
      <trkpt lat="42.98613" lon="0.54289">
        <ele>1210</ele>
        <time>2019-06-30T11:48:41.000Z</time>
      </trkpt>
      <trkpt lat="42.98613" lon="0.54291">
        <ele>1210</ele>
        <time>2019-06-30T11:48:43.000Z</time>
      </trkpt>
      <trkpt lat="42.98613" lon="0.54294">
        <ele>1209</ele>
        <time>2019-06-30T11:48:45.000Z</time>
      </trkpt>
      <trkpt lat="42.98611" lon="0.54296">
        <ele>1209</ele>
        <time>2019-06-30T11:48:47.000Z</time>
      </trkpt>
      <trkpt lat="42.98611" lon="0.54298">
        <ele>1209</ele>
        <time>2019-06-30T11:48:49.000Z</time>
      </trkpt>
      <trkpt lat="42.98612" lon="0.543">
        <ele>1208</ele>
        <time>2019-06-30T11:48:51.000Z</time>
      </trkpt>
      <trkpt lat="42.98612" lon="0.54303">
        <ele>1207</ele>
        <time>2019-06-30T11:48:53.000Z</time>
      </trkpt>
      <trkpt lat="42.98611" lon="0.54305">
        <ele>1207</ele>
        <time>2019-06-30T11:48:55.000Z</time>
      </trkpt>
      <trkpt lat="42.98612" lon="0.54308">
        <ele>1206</ele>
        <time>2019-06-30T11:48:57.000Z</time>
      </trkpt>
      <trkpt lat="42.98612" lon="0.5431">
        <ele>1205</ele>
        <time>2019-06-30T11:48:59.000Z</time>
      </trkpt>
      <trkpt lat="42.98612" lon="0.54312">
        <ele>1204</ele>
        <time>2019-06-30T11:49:01.000Z</time>
      </trkpt>
      <trkpt lat="42.98613" lon="0.54314">
        <ele>1204</ele>
        <time>2019-06-30T11:49:03.000Z</time>
      </trkpt>
      <trkpt lat="42.98613" lon="0.54316">
        <ele>1203</ele>
        <time>2019-06-30T11:49:05.000Z</time>
      </trkpt>
      <trkpt lat="42.98613" lon="0.54317">
        <ele>1202</ele>
        <time>2019-06-30T11:49:07.000Z</time>
      </trkpt>
      <trkpt lat="42.98615" lon="0.54319">
        <ele>1201</ele>
        <time>2019-06-30T11:49:09.000Z</time>
      </trkpt>
      <trkpt lat="42.98615" lon="0.5432">
        <ele>1200</ele>
        <time>2019-06-30T11:49:11.000Z</time>
      </trkpt>
      <trkpt lat="42.98615" lon="0.54322">
        <ele>1200</ele>
        <time>2019-06-30T11:49:13.000Z</time>
      </trkpt>
      <trkpt lat="42.98615" lon="0.54324">
        <ele>1199</ele>
        <time>2019-06-30T11:49:15.000Z</time>
      </trkpt>
      <trkpt lat="42.98615" lon="0.54326">
        <ele>1199</ele>
        <time>2019-06-30T11:49:17.000Z</time>
      </trkpt>
      <trkpt lat="42.98615" lon="0.54328">
        <ele>1198</ele>
        <time>2019-06-30T11:49:19.000Z</time>
      </trkpt>
      <trkpt lat="42.98614" lon="0.54331">
        <ele>1198</ele>
        <time>2019-06-30T11:49:21.000Z</time>
      </trkpt>
      <trkpt lat="42.98615" lon="0.54333">
        <ele>1197</ele>
        <time>2019-06-30T11:49:23.000Z</time>
      </trkpt>
      <trkpt lat="42.98615" lon="0.54335">
        <ele>1197</ele>
        <time>2019-06-30T11:49:25.000Z</time>
      </trkpt>
      <trkpt lat="42.98616" lon="0.54337">
        <ele>1195</ele>
        <time>2019-06-30T11:49:27.000Z</time>
      </trkpt>
      <trkpt lat="42.98616" lon="0.54339">
        <ele>1195</ele>
        <time>2019-06-30T11:49:29.000Z</time>
      </trkpt>
      <trkpt lat="42.98618" lon="0.54341">
        <ele>1193</ele>
        <time>2019-06-30T11:49:31.000Z</time>
      </trkpt>
      <trkpt lat="42.98617" lon="0.54343">
        <ele>1193</ele>
        <time>2019-06-30T11:49:33.000Z</time>
      </trkpt>
      <trkpt lat="42.98616" lon="0.54345">
        <ele>1193</ele>
        <time>2019-06-30T11:49:35.000Z</time>
      </trkpt>
      <trkpt lat="42.98615" lon="0.54347">
        <ele>1193</ele>
        <time>2019-06-30T11:49:37.000Z</time>
      </trkpt>
      <trkpt lat="42.98615" lon="0.54349">
        <ele>1193</ele>
        <time>2019-06-30T11:49:39.000Z</time>
      </trkpt>
      <trkpt lat="42.98616" lon="0.54352">
        <ele>1191</ele>
        <time>2019-06-30T11:49:41.000Z</time>
      </trkpt>
      <trkpt lat="42.98617" lon="0.54354">
        <ele>1191</ele>
        <time>2019-06-30T11:49:43.000Z</time>
      </trkpt>
      <trkpt lat="42.98617" lon="0.54357">
        <ele>1189</ele>
        <time>2019-06-30T11:49:45.000Z</time>
      </trkpt>
      <trkpt lat="42.98617" lon="0.5436">
        <ele>1188</ele>
        <time>2019-06-30T11:49:47.000Z</time>
      </trkpt>
      <trkpt lat="42.98618" lon="0.54364">
        <ele>1187</ele>
        <time>2019-06-30T11:49:49.000Z</time>
      </trkpt>
      <trkpt lat="42.98619" lon="0.54367">
        <ele>1186</ele>
        <time>2019-06-30T11:49:51.000Z</time>
      </trkpt>
      <trkpt lat="42.98619" lon="0.5437">
        <ele>1185</ele>
        <time>2019-06-30T11:49:53.000Z</time>
      </trkpt>
      <trkpt lat="42.98618" lon="0.54373">
        <ele>1185</ele>
        <time>2019-06-30T11:49:55.000Z</time>
      </trkpt>
      <trkpt lat="42.98616" lon="0.54375">
        <ele>1185</ele>
        <time>2019-06-30T11:49:57.000Z</time>
      </trkpt>
      <trkpt lat="42.98613" lon="0.54379">
        <ele>1186</ele>
        <time>2019-06-30T11:49:59.000Z</time>
      </trkpt>
      <trkpt lat="42.98612" lon="0.54382">
        <ele>1186</ele>
        <time>2019-06-30T11:50:01.000Z</time>
      </trkpt>
      <trkpt lat="42.98612" lon="0.54386">
        <ele>1185</ele>
        <time>2019-06-30T11:50:03.000Z</time>
      </trkpt>
      <trkpt lat="42.98611" lon="0.54388">
        <ele>1185</ele>
        <time>2019-06-30T11:50:05.000Z</time>
      </trkpt>
      <trkpt lat="42.98609" lon="0.54391">
        <ele>1184</ele>
        <time>2019-06-30T11:50:07.000Z</time>
      </trkpt>
      <trkpt lat="42.98608" lon="0.54394">
        <ele>1184</ele>
        <time>2019-06-30T11:50:09.000Z</time>
      </trkpt>
      <trkpt lat="42.98606" lon="0.54396">
        <ele>1185</ele>
        <time>2019-06-30T11:50:11.000Z</time>
      </trkpt>
      <trkpt lat="42.98603" lon="0.54397">
        <ele>1186</ele>
        <time>2019-06-30T11:50:13.000Z</time>
      </trkpt>
      <trkpt lat="42.98601" lon="0.54399">
        <ele>1186</ele>
        <time>2019-06-30T11:50:15.000Z</time>
      </trkpt>
      <trkpt lat="42.98599" lon="0.544">
        <ele>1187</ele>
        <time>2019-06-30T11:50:17.000Z</time>
      </trkpt>
      <trkpt lat="42.98598" lon="0.54402">
        <ele>1187</ele>
        <time>2019-06-30T11:50:19.000Z</time>
      </trkpt>
      <trkpt lat="42.98596" lon="0.54404">
        <ele>1187</ele>
        <time>2019-06-30T11:50:21.000Z</time>
      </trkpt>
      <trkpt lat="42.98595" lon="0.54406">
        <ele>1187</ele>
        <time>2019-06-30T11:50:23.000Z</time>
      </trkpt>
      <trkpt lat="42.98594" lon="0.54408">
        <ele>1187</ele>
        <time>2019-06-30T11:50:25.000Z</time>
      </trkpt>
      <trkpt lat="42.98589" lon="0.54411">
        <ele>1187</ele>
        <time>2019-06-30T11:50:27.000Z</time>
      </trkpt>
      <trkpt lat="42.98586" lon="0.54415">
        <ele>1186</ele>
        <time>2019-06-30T11:50:29.000Z</time>
      </trkpt>
      <trkpt lat="42.98583" lon="0.54419">
        <ele>1186</ele>
        <time>2019-06-30T11:50:31.000Z</time>
      </trkpt>
      <trkpt lat="42.9858" lon="0.54422">
        <ele>1185</ele>
        <time>2019-06-30T11:50:33.000Z</time>
      </trkpt>
      <trkpt lat="42.98578" lon="0.54424">
        <ele>1184</ele>
        <time>2019-06-30T11:50:35.000Z</time>
      </trkpt>
      <trkpt lat="42.98575" lon="0.54427">
        <ele>1184</ele>
        <time>2019-06-30T11:50:37.000Z</time>
      </trkpt>
      <trkpt lat="42.98572" lon="0.54429">
        <ele>1184</ele>
        <time>2019-06-30T11:50:39.000Z</time>
      </trkpt>
      <trkpt lat="42.98569" lon="0.54431">
        <ele>1183</ele>
        <time>2019-06-30T11:50:41.000Z</time>
      </trkpt>
      <trkpt lat="42.98567" lon="0.54434">
        <ele>1182</ele>
        <time>2019-06-30T11:50:43.000Z</time>
      </trkpt>
      <trkpt lat="42.98564" lon="0.54436">
        <ele>1182</ele>
        <time>2019-06-30T11:50:45.000Z</time>
      </trkpt>
      <trkpt lat="42.98562" lon="0.54438">
        <ele>1182</ele>
        <time>2019-06-30T11:50:47.000Z</time>
      </trkpt>
      <trkpt lat="42.98559" lon="0.54441">
        <ele>1180</ele>
        <time>2019-06-30T11:50:49.000Z</time>
      </trkpt>
      <trkpt lat="42.98558" lon="0.54443">
        <ele>1179</ele>
        <time>2019-06-30T11:50:51.000Z</time>
      </trkpt>
      <trkpt lat="42.98556" lon="0.54445">
        <ele>1178</ele>
        <time>2019-06-30T11:50:53.000Z</time>
      </trkpt>
      <trkpt lat="42.98554" lon="0.54448">
        <ele>1176</ele>
        <time>2019-06-30T11:50:55.000Z</time>
      </trkpt>
      <trkpt lat="42.98553" lon="0.54451">
        <ele>1175</ele>
        <time>2019-06-30T11:50:57.000Z</time>
      </trkpt>
      <trkpt lat="42.98551" lon="0.54453">
        <ele>1174</ele>
        <time>2019-06-30T11:50:59.000Z</time>
      </trkpt>
      <trkpt lat="42.98549" lon="0.54455">
        <ele>1173</ele>
        <time>2019-06-30T11:51:01.000Z</time>
      </trkpt>
      <trkpt lat="42.98546" lon="0.54456">
        <ele>1172</ele>
        <time>2019-06-30T11:51:03.000Z</time>
      </trkpt>
      <trkpt lat="42.98543" lon="0.54458">
        <ele>1171</ele>
        <time>2019-06-30T11:51:05.000Z</time>
      </trkpt>
      <trkpt lat="42.9854" lon="0.5446">
        <ele>1170</ele>
        <time>2019-06-30T11:51:07.000Z</time>
      </trkpt>
      <trkpt lat="42.98538" lon="0.54462">
        <ele>1169</ele>
        <time>2019-06-30T11:51:09.000Z</time>
      </trkpt>
      <trkpt lat="42.98536" lon="0.54462">
        <ele>1169</ele>
        <time>2019-06-30T11:51:11.000Z</time>
      </trkpt>
      <trkpt lat="42.98533" lon="0.54464">
        <ele>1168</ele>
        <time>2019-06-30T11:51:13.000Z</time>
      </trkpt>
      <trkpt lat="42.98531" lon="0.54466">
        <ele>1167</ele>
        <time>2019-06-30T11:51:15.000Z</time>
      </trkpt>
      <trkpt lat="42.98529" lon="0.54466">
        <ele>1167</ele>
        <time>2019-06-30T11:51:17.000Z</time>
      </trkpt>
      <trkpt lat="42.98528" lon="0.54466">
        <ele>1167</ele>
        <time>2019-06-30T11:51:19.000Z</time>
      </trkpt>
      <trkpt lat="42.98526" lon="0.54466">
        <ele>1167</ele>
        <time>2019-06-30T11:51:21.000Z</time>
      </trkpt>
      <trkpt lat="42.98523" lon="0.54467">
        <ele>1166</ele>
        <time>2019-06-30T11:51:23.000Z</time>
      </trkpt>
      <trkpt lat="42.9852" lon="0.54467">
        <ele>1166</ele>
        <time>2019-06-30T11:51:25.000Z</time>
      </trkpt>
      <trkpt lat="42.98517" lon="0.54468">
        <ele>1166</ele>
        <time>2019-06-30T11:51:27.000Z</time>
      </trkpt>
      <trkpt lat="42.98514" lon="0.54468">
        <ele>1166</ele>
        <time>2019-06-30T11:51:29.000Z</time>
      </trkpt>
      <trkpt lat="42.9851" lon="0.54468">
        <ele>1166</ele>
        <time>2019-06-30T11:51:31.000Z</time>
      </trkpt>
      <trkpt lat="42.98507" lon="0.54468">
        <ele>1166</ele>
        <time>2019-06-30T11:51:33.000Z</time>
      </trkpt>
      <trkpt lat="42.98505" lon="0.54468">
        <ele>1166</ele>
        <time>2019-06-30T11:51:35.000Z</time>
      </trkpt>
      <trkpt lat="42.98504" lon="0.5447">
        <ele>1166</ele>
        <time>2019-06-30T11:51:37.000Z</time>
      </trkpt>
      <trkpt lat="42.98503" lon="0.54471">
        <ele>1166</ele>
        <time>2019-06-30T11:51:39.000Z</time>
      </trkpt>
      <trkpt lat="42.98502" lon="0.54473">
        <ele>1165</ele>
        <time>2019-06-30T11:51:41.000Z</time>
      </trkpt>
      <trkpt lat="42.985" lon="0.54475">
        <ele>1165</ele>
        <time>2019-06-30T11:51:43.000Z</time>
      </trkpt>
      <trkpt lat="42.98499" lon="0.54477">
        <ele>1164</ele>
        <time>2019-06-30T11:51:45.000Z</time>
      </trkpt>
      <trkpt lat="42.98497" lon="0.54479">
        <ele>1164</ele>
        <time>2019-06-30T11:51:47.000Z</time>
      </trkpt>
      <trkpt lat="42.98494" lon="0.54481">
        <ele>1163</ele>
        <time>2019-06-30T11:51:49.000Z</time>
      </trkpt>
      <trkpt lat="42.98491" lon="0.54483">
        <ele>1163</ele>
        <time>2019-06-30T11:51:51.000Z</time>
      </trkpt>
      <trkpt lat="42.98489" lon="0.54484">
        <ele>1163</ele>
        <time>2019-06-30T11:51:53.000Z</time>
      </trkpt>
      <trkpt lat="42.98486" lon="0.54485">
        <ele>1163</ele>
        <time>2019-06-30T11:51:55.000Z</time>
      </trkpt>
      <trkpt lat="42.98483" lon="0.54486">
        <ele>1164</ele>
        <time>2019-06-30T11:51:57.000Z</time>
      </trkpt>
      <trkpt lat="42.9848" lon="0.54486">
        <ele>1164</ele>
        <time>2019-06-30T11:51:59.000Z</time>
      </trkpt>
      <trkpt lat="42.98477" lon="0.54485">
        <ele>1165</ele>
        <time>2019-06-30T11:52:01.000Z</time>
      </trkpt>
      <trkpt lat="42.98474" lon="0.54486">
        <ele>1165</ele>
        <time>2019-06-30T11:52:03.000Z</time>
      </trkpt>
      <trkpt lat="42.98472" lon="0.54486">
        <ele>1166</ele>
        <time>2019-06-30T11:52:05.000Z</time>
      </trkpt>
      <trkpt lat="42.98469" lon="0.54486">
        <ele>1166</ele>
        <time>2019-06-30T11:52:07.000Z</time>
      </trkpt>
      <trkpt lat="42.98466" lon="0.54487">
        <ele>1167</ele>
        <time>2019-06-30T11:52:09.000Z</time>
      </trkpt>
      <trkpt lat="42.98463" lon="0.54488">
        <ele>1167</ele>
        <time>2019-06-30T11:52:11.000Z</time>
      </trkpt>
      <trkpt lat="42.98461" lon="0.54488">
        <ele>1167</ele>
        <time>2019-06-30T11:52:13.000Z</time>
      </trkpt>
      <trkpt lat="42.98458" lon="0.54489">
        <ele>1167</ele>
        <time>2019-06-30T11:52:15.000Z</time>
      </trkpt>
      <trkpt lat="42.98456" lon="0.54488">
        <ele>1168</ele>
        <time>2019-06-30T11:52:17.000Z</time>
      </trkpt>
      <trkpt lat="42.98454" lon="0.5449">
        <ele>1168</ele>
        <time>2019-06-30T11:52:19.000Z</time>
      </trkpt>
      <trkpt lat="42.98452" lon="0.54491">
        <ele>1168</ele>
        <time>2019-06-30T11:52:21.000Z</time>
      </trkpt>
      <trkpt lat="42.9845" lon="0.54491">
        <ele>1168</ele>
        <time>2019-06-30T11:52:23.000Z</time>
      </trkpt>
      <trkpt lat="42.98448" lon="0.54492">
        <ele>1168</ele>
        <time>2019-06-30T11:52:25.000Z</time>
      </trkpt>
      <trkpt lat="42.98448" lon="0.54494">
        <ele>1167</ele>
        <time>2019-06-30T11:52:27.000Z</time>
      </trkpt>
      <trkpt lat="42.98447" lon="0.54496">
        <ele>1166</ele>
        <time>2019-06-30T11:52:29.000Z</time>
      </trkpt>
      <trkpt lat="42.98446" lon="0.54498">
        <ele>1165</ele>
        <time>2019-06-30T11:52:31.000Z</time>
      </trkpt>
      <trkpt lat="42.98445" lon="0.54501">
        <ele>1164</ele>
        <time>2019-06-30T11:52:33.000Z</time>
      </trkpt>
      <trkpt lat="42.98444" lon="0.54504">
        <ele>1163</ele>
        <time>2019-06-30T11:52:35.000Z</time>
      </trkpt>
      <trkpt lat="42.98444" lon="0.54506">
        <ele>1162</ele>
        <time>2019-06-30T11:52:37.000Z</time>
      </trkpt>
      <trkpt lat="42.98442" lon="0.54509">
        <ele>1161</ele>
        <time>2019-06-30T11:52:39.000Z</time>
      </trkpt>
      <trkpt lat="42.98442" lon="0.54512">
        <ele>1159</ele>
        <time>2019-06-30T11:52:41.000Z</time>
      </trkpt>
      <trkpt lat="42.98442" lon="0.54516">
        <ele>1158</ele>
        <time>2019-06-30T11:52:43.000Z</time>
      </trkpt>
      <trkpt lat="42.98441" lon="0.54519">
        <ele>1156</ele>
        <time>2019-06-30T11:52:45.000Z</time>
      </trkpt>
      <trkpt lat="42.98441" lon="0.54521">
        <ele>1155</ele>
        <time>2019-06-30T11:52:47.000Z</time>
      </trkpt>
      <trkpt lat="42.98442" lon="0.54521">
        <ele>1155</ele>
        <time>2019-06-30T11:52:49.000Z</time>
      </trkpt>
      <trkpt lat="42.98441" lon="0.54522">
        <ele>1155</ele>
        <time>2019-06-30T11:52:51.000Z</time>
      </trkpt>
      <trkpt lat="42.98442" lon="0.54525">
        <ele>1153</ele>
        <time>2019-06-30T11:52:53.000Z</time>
      </trkpt>
      <trkpt lat="42.98442" lon="0.54526">
        <ele>1153</ele>
        <time>2019-06-30T11:52:55.000Z</time>
      </trkpt>
      <trkpt lat="42.98442" lon="0.54528">
        <ele>1152</ele>
        <time>2019-06-30T11:52:57.000Z</time>
      </trkpt>
      <trkpt lat="42.98442" lon="0.5453">
        <ele>1151</ele>
        <time>2019-06-30T11:52:59.000Z</time>
      </trkpt>
      <trkpt lat="42.9844" lon="0.54533">
        <ele>1150</ele>
        <time>2019-06-30T11:53:01.000Z</time>
      </trkpt>
      <trkpt lat="42.98437" lon="0.54536">
        <ele>1149</ele>
        <time>2019-06-30T11:53:03.000Z</time>
      </trkpt>
      <trkpt lat="42.98435" lon="0.54539">
        <ele>1148</ele>
        <time>2019-06-30T11:53:05.000Z</time>
      </trkpt>
      <trkpt lat="42.98434" lon="0.5454">
        <ele>1147</ele>
        <time>2019-06-30T11:53:07.000Z</time>
      </trkpt>
      <trkpt lat="42.98433" lon="0.54542">
        <ele>1146</ele>
        <time>2019-06-30T11:53:09.000Z</time>
      </trkpt>
      <trkpt lat="42.98432" lon="0.54542">
        <ele>1146</ele>
        <time>2019-06-30T11:53:11.000Z</time>
      </trkpt>
      <trkpt lat="42.98431" lon="0.54543">
        <ele>1146</ele>
        <time>2019-06-30T11:53:13.000Z</time>
      </trkpt>
      <trkpt lat="42.9843" lon="0.54544">
        <ele>1146</ele>
        <time>2019-06-30T11:53:15.000Z</time>
      </trkpt>
      <trkpt lat="42.98428" lon="0.54545">
        <ele>1145</ele>
        <time>2019-06-30T11:53:17.000Z</time>
      </trkpt>
      <trkpt lat="42.98428" lon="0.54548">
        <ele>1144</ele>
        <time>2019-06-30T11:53:19.000Z</time>
      </trkpt>
      <trkpt lat="42.98427" lon="0.54549">
        <ele>1144</ele>
        <time>2019-06-30T11:53:21.000Z</time>
      </trkpt>
      <trkpt lat="42.98425" lon="0.54551">
        <ele>1143</ele>
        <time>2019-06-30T11:53:23.000Z</time>
      </trkpt>
      <trkpt lat="42.98425" lon="0.54553">
        <ele>1142</ele>
        <time>2019-06-30T11:53:25.000Z</time>
      </trkpt>
      <trkpt lat="42.98423" lon="0.54553">
        <ele>1142</ele>
        <time>2019-06-30T11:53:27.000Z</time>
      </trkpt>
      <trkpt lat="42.98422" lon="0.54554">
        <ele>1142</ele>
        <time>2019-06-30T11:53:29.000Z</time>
      </trkpt>
      <trkpt lat="42.98421" lon="0.54554">
        <ele>1142</ele>
        <time>2019-06-30T11:53:31.000Z</time>
      </trkpt>
      <trkpt lat="42.98421" lon="0.54555">
        <ele>1142</ele>
        <time>2019-06-30T11:53:33.000Z</time>
      </trkpt>
      <trkpt lat="42.9842" lon="0.54556">
        <ele>1142</ele>
        <time>2019-06-30T11:53:35.000Z</time>
      </trkpt>
      <trkpt lat="42.98418" lon="0.54556">
        <ele>1142</ele>
        <time>2019-06-30T11:53:37.000Z</time>
      </trkpt>
      <trkpt lat="42.98417" lon="0.54556">
        <ele>1142</ele>
        <time>2019-06-30T11:53:39.000Z</time>
      </trkpt>
      <trkpt lat="42.98416" lon="0.54556">
        <ele>1142</ele>
        <time>2019-06-30T11:53:41.000Z</time>
      </trkpt>
      <trkpt lat="42.98416" lon="0.54557">
        <ele>1142</ele>
        <time>2019-06-30T11:53:43.000Z</time>
      </trkpt>
      <trkpt lat="42.98416" lon="0.54557">
        <ele>1142</ele>
        <time>2019-06-30T11:53:45.000Z</time>
      </trkpt>
      <trkpt lat="42.98416" lon="0.54556">
        <ele>1142</ele>
        <time>2019-06-30T11:53:47.000Z</time>
      </trkpt>
      <trkpt lat="42.98417" lon="0.54556">
        <ele>1142</ele>
        <time>2019-06-30T11:53:49.000Z</time>
      </trkpt>
      <trkpt lat="42.98417" lon="0.54556">
        <ele>1142</ele>
        <time>2019-06-30T11:53:51.000Z</time>
      </trkpt>
      <trkpt lat="42.98417" lon="0.54555">
        <ele>1142</ele>
        <time>2019-06-30T11:53:53.000Z</time>
      </trkpt>
      <trkpt lat="42.98416" lon="0.54554">
        <ele>1143</ele>
        <time>2019-06-30T11:53:55.000Z</time>
      </trkpt>
      <trkpt lat="42.98415" lon="0.54553">
        <ele>1143</ele>
        <time>2019-06-30T11:53:57.000Z</time>
      </trkpt>
      <trkpt lat="42.98414" lon="0.54553">
        <ele>1143</ele>
        <time>2019-06-30T11:53:59.000Z</time>
      </trkpt>
      <trkpt lat="42.98414" lon="0.54554">
        <ele>1143</ele>
        <time>2019-06-30T11:54:01.000Z</time>
      </trkpt>
      <trkpt lat="42.98413" lon="0.54554">
        <ele>1143</ele>
        <time>2019-06-30T11:54:03.000Z</time>
      </trkpt>
      <trkpt lat="42.98413" lon="0.54554">
        <ele>1143</ele>
        <time>2019-06-30T11:54:05.000Z</time>
      </trkpt>
      <trkpt lat="42.98414" lon="0.54553">
        <ele>1143</ele>
        <time>2019-06-30T11:54:07.000Z</time>
      </trkpt>
      <trkpt lat="42.98415" lon="0.54554">
        <ele>1143</ele>
        <time>2019-06-30T11:54:09.000Z</time>
      </trkpt>
      <trkpt lat="42.98416" lon="0.54554">
        <ele>1143</ele>
        <time>2019-06-30T11:54:11.000Z</time>
      </trkpt>
      <trkpt lat="42.98416" lon="0.54553">
        <ele>1143</ele>
        <time>2019-06-30T11:54:13.000Z</time>
      </trkpt>
      <trkpt lat="42.98417" lon="0.54553">
        <ele>1143</ele>
        <time>2019-06-30T11:54:15.000Z</time>
      </trkpt>
      <trkpt lat="42.98418" lon="0.54553">
        <ele>1143</ele>
        <time>2019-06-30T11:54:17.000Z</time>
      </trkpt>
      <trkpt lat="42.98419" lon="0.54552">
        <ele>1144</ele>
        <time>2019-06-30T11:54:19.000Z</time>
      </trkpt>
      <trkpt lat="42.98419" lon="0.54551">
        <ele>1144</ele>
        <time>2019-06-30T11:54:21.000Z</time>
      </trkpt>
      <trkpt lat="42.98419" lon="0.5455">
        <ele>1145</ele>
        <time>2019-06-30T11:54:23.000Z</time>
      </trkpt>
      <trkpt lat="42.9842" lon="0.5455">
        <ele>1145</ele>
        <time>2019-06-30T11:54:25.000Z</time>
      </trkpt>
      <trkpt lat="42.9842" lon="0.54551">
        <ele>1144</ele>
        <time>2019-06-30T11:54:27.000Z</time>
      </trkpt>
      <trkpt lat="42.98423" lon="0.54552">
        <ele>1143</ele>
        <time>2019-06-30T11:54:29.000Z</time>
      </trkpt>
      <trkpt lat="42.98425" lon="0.54553">
        <ele>1142</ele>
        <time>2019-06-30T11:54:31.000Z</time>
      </trkpt>
      <trkpt lat="42.98428" lon="0.54553">
        <ele>1142</ele>
        <time>2019-06-30T11:54:33.000Z</time>
      </trkpt>
      <trkpt lat="42.98431" lon="0.54555">
        <ele>1141</ele>
        <time>2019-06-30T11:54:35.000Z</time>
      </trkpt>
      <trkpt lat="42.98432" lon="0.54555">
        <ele>1141</ele>
        <time>2019-06-30T11:54:37.000Z</time>
      </trkpt>
      <trkpt lat="42.98433" lon="0.54555">
        <ele>1141</ele>
        <time>2019-06-30T11:54:39.000Z</time>
      </trkpt>
      <trkpt lat="42.98433" lon="0.54555">
        <ele>1141</ele>
        <time>2019-06-30T11:54:41.000Z</time>
      </trkpt>
      <trkpt lat="42.98432" lon="0.54555">
        <ele>1141</ele>
        <time>2019-06-30T11:54:43.000Z</time>
      </trkpt>
      <trkpt lat="42.98431" lon="0.54555">
        <ele>1141</ele>
        <time>2019-06-30T11:54:45.000Z</time>
      </trkpt>
      <trkpt lat="42.98428" lon="0.54554">
        <ele>1141</ele>
        <time>2019-06-30T11:54:47.000Z</time>
      </trkpt>
      <trkpt lat="42.98425" lon="0.54554">
        <ele>1141</ele>
        <time>2019-06-30T11:54:49.000Z</time>
      </trkpt>
      <trkpt lat="42.98424" lon="0.54554">
        <ele>1142</ele>
        <time>2019-06-30T11:54:51.000Z</time>
      </trkpt>
      <trkpt lat="42.98422" lon="0.54553">
        <ele>1142</ele>
        <time>2019-06-30T11:54:53.000Z</time>
      </trkpt>
      <trkpt lat="42.98421" lon="0.54552">
        <ele>1143</ele>
        <time>2019-06-30T11:54:55.000Z</time>
      </trkpt>
      <trkpt lat="42.98421" lon="0.54551">
        <ele>1143</ele>
        <time>2019-06-30T11:54:57.000Z</time>
      </trkpt>
      <trkpt lat="42.98421" lon="0.54551">
        <ele>1143</ele>
        <time>2019-06-30T11:54:59.000Z</time>
      </trkpt>
      <trkpt lat="42.98421" lon="0.54551">
        <ele>1143</ele>
        <time>2019-06-30T11:55:01.000Z</time>
      </trkpt>
      <trkpt lat="42.98421" lon="0.54551">
        <ele>1143</ele>
        <time>2019-06-30T11:55:03.000Z</time>
      </trkpt>
      <trkpt lat="42.98421" lon="0.54551">
        <ele>1143</ele>
        <time>2019-06-30T11:55:05.000Z</time>
      </trkpt>
      <trkpt lat="42.98421" lon="0.5455">
        <ele>1144</ele>
        <time>2019-06-30T11:55:07.000Z</time>
      </trkpt>
      <trkpt lat="42.9842" lon="0.54549">
        <ele>1145</ele>
        <time>2019-06-30T11:55:09.000Z</time>
      </trkpt>
      <trkpt lat="42.9842" lon="0.54548">
        <ele>1146</ele>
        <time>2019-06-30T11:55:11.000Z</time>
      </trkpt>
      <trkpt lat="42.9842" lon="0.54549">
        <ele>1146</ele>
        <time>2019-06-30T11:55:13.000Z</time>
      </trkpt>
      <trkpt lat="42.98419" lon="0.5455">
        <ele>1145</ele>
        <time>2019-06-30T11:55:15.000Z</time>
      </trkpt>
      <trkpt lat="42.98415" lon="0.54549">
        <ele>1146</ele>
        <time>2019-06-30T11:55:17.000Z</time>
      </trkpt>
      <trkpt lat="42.98412" lon="0.54549">
        <ele>1147</ele>
        <time>2019-06-30T11:55:19.000Z</time>
      </trkpt>
      <trkpt lat="42.98412" lon="0.54551">
        <ele>1145</ele>
        <time>2019-06-30T11:55:21.000Z</time>
      </trkpt>
      <trkpt lat="42.98413" lon="0.54552">
        <ele>1144</ele>
        <time>2019-06-30T11:55:23.000Z</time>
      </trkpt>
      <trkpt lat="42.98416" lon="0.54552">
        <ele>1144</ele>
        <time>2019-06-30T11:55:25.000Z</time>
      </trkpt>
      <trkpt lat="42.98418" lon="0.54552">
        <ele>1143</ele>
        <time>2019-06-30T11:55:27.000Z</time>
      </trkpt>
      <trkpt lat="42.98419" lon="0.54552">
        <ele>1143</ele>
        <time>2019-06-30T11:55:29.000Z</time>
      </trkpt>
      <trkpt lat="42.98417" lon="0.54552">
        <ele>1143</ele>
        <time>2019-06-30T11:55:31.000Z</time>
      </trkpt>
      <trkpt lat="42.98416" lon="0.54553">
        <ele>1143</ele>
        <time>2019-06-30T11:55:33.000Z</time>
      </trkpt>
      <trkpt lat="42.98415" lon="0.54553">
        <ele>1143</ele>
        <time>2019-06-30T11:55:35.000Z</time>
      </trkpt>
      <trkpt lat="42.98414" lon="0.54553">
        <ele>1144</ele>
        <time>2019-06-30T11:55:37.000Z</time>
      </trkpt>
      <trkpt lat="42.98413" lon="0.54554">
        <ele>1143</ele>
        <time>2019-06-30T11:55:39.000Z</time>
      </trkpt>
      <trkpt lat="42.98412" lon="0.54553">
        <ele>1144</ele>
        <time>2019-06-30T11:55:41.000Z</time>
      </trkpt>
      <trkpt lat="42.98411" lon="0.54553">
        <ele>1144</ele>
        <time>2019-06-30T11:55:43.000Z</time>
      </trkpt>
      <trkpt lat="42.98412" lon="0.54553">
        <ele>1144</ele>
        <time>2019-06-30T11:55:45.000Z</time>
      </trkpt>
      <trkpt lat="42.98411" lon="0.54553">
        <ele>1144</ele>
        <time>2019-06-30T11:55:47.000Z</time>
      </trkpt>
      <trkpt lat="42.98411" lon="0.54553">
        <ele>1144</ele>
        <time>2019-06-30T11:55:49.000Z</time>
      </trkpt>
      <trkpt lat="42.9841" lon="0.54553">
        <ele>1144</ele>
        <time>2019-06-30T11:55:51.000Z</time>
      </trkpt>
      <trkpt lat="42.9841" lon="0.54554">
        <ele>1144</ele>
        <time>2019-06-30T11:55:53.000Z</time>
      </trkpt>
      <trkpt lat="42.98412" lon="0.54555">
        <ele>1143</ele>
        <time>2019-06-30T11:55:55.000Z</time>
      </trkpt>
      <trkpt lat="42.98413" lon="0.54555">
        <ele>1143</ele>
        <time>2019-06-30T11:55:57.000Z</time>
      </trkpt>
      <trkpt lat="42.98413" lon="0.54556">
        <ele>1143</ele>
        <time>2019-06-30T11:55:59.000Z</time>
      </trkpt>
      <trkpt lat="42.98415" lon="0.54556">
        <ele>1142</ele>
        <time>2019-06-30T11:56:01.000Z</time>
      </trkpt>
      <trkpt lat="42.98415" lon="0.54557">
        <ele>1142</ele>
        <time>2019-06-30T11:56:03.000Z</time>
      </trkpt>
      <trkpt lat="42.98414" lon="0.54559">
        <ele>1141</ele>
        <time>2019-06-30T11:56:05.000Z</time>
      </trkpt>
      <trkpt lat="42.98414" lon="0.54558">
        <ele>1141</ele>
        <time>2019-06-30T11:56:07.000Z</time>
      </trkpt>
      <trkpt lat="42.98413" lon="0.54558">
        <ele>1141</ele>
        <time>2019-06-30T11:56:09.000Z</time>
      </trkpt>
      <trkpt lat="42.98413" lon="0.54559">
        <ele>1141</ele>
        <time>2019-06-30T11:56:11.000Z</time>
      </trkpt>
      <trkpt lat="42.98413" lon="0.5456">
        <ele>1141</ele>
        <time>2019-06-30T11:56:13.000Z</time>
      </trkpt>
      <trkpt lat="42.98413" lon="0.54559">
        <ele>1141</ele>
        <time>2019-06-30T11:56:15.000Z</time>
      </trkpt>
      <trkpt lat="42.98413" lon="0.54559">
        <ele>1141</ele>
        <time>2019-06-30T11:56:17.000Z</time>
      </trkpt>
      <trkpt lat="42.98414" lon="0.5456">
        <ele>1141</ele>
        <time>2019-06-30T11:56:19.000Z</time>
      </trkpt>
      <trkpt lat="42.98414" lon="0.5456">
        <ele>1141</ele>
        <time>2019-06-30T11:56:21.000Z</time>
      </trkpt>
      <trkpt lat="42.98414" lon="0.54559">
        <ele>1141</ele>
        <time>2019-06-30T11:56:23.000Z</time>
      </trkpt>
      <trkpt lat="42.98414" lon="0.54559">
        <ele>1141</ele>
        <time>2019-06-30T11:56:25.000Z</time>
      </trkpt>
      <trkpt lat="42.98414" lon="0.54559">
        <ele>1141</ele>
        <time>2019-06-30T11:56:27.000Z</time>
      </trkpt>
      <trkpt lat="42.98413" lon="0.54559">
        <ele>1141</ele>
        <time>2019-06-30T11:56:29.000Z</time>
      </trkpt>
      <trkpt lat="42.98413" lon="0.54558">
        <ele>1142</ele>
        <time>2019-06-30T11:56:31.000Z</time>
      </trkpt>
      <trkpt lat="42.98412" lon="0.54557">
        <ele>1142</ele>
        <time>2019-06-30T11:56:33.000Z</time>
      </trkpt>
      <trkpt lat="42.98412" lon="0.54556">
        <ele>1143</ele>
        <time>2019-06-30T11:56:35.000Z</time>
      </trkpt>
      <trkpt lat="42.98409" lon="0.54556">
        <ele>1143</ele>
        <time>2019-06-30T11:56:37.000Z</time>
      </trkpt>
      <trkpt lat="42.98407" lon="0.54556">
        <ele>1143</ele>
        <time>2019-06-30T11:56:39.000Z</time>
      </trkpt>
      <trkpt lat="42.98406" lon="0.54557">
        <ele>1143</ele>
        <time>2019-06-30T11:56:41.000Z</time>
      </trkpt>
      <trkpt lat="42.98405" lon="0.54558">
        <ele>1143</ele>
        <time>2019-06-30T11:56:43.000Z</time>
      </trkpt>
      <trkpt lat="42.98404" lon="0.5456">
        <ele>1142</ele>
        <time>2019-06-30T11:56:45.000Z</time>
      </trkpt>
      <trkpt lat="42.98404" lon="0.5456">
        <ele>1142</ele>
        <time>2019-06-30T11:56:47.000Z</time>
      </trkpt>
      <trkpt lat="42.98405" lon="0.5456">
        <ele>1142</ele>
        <time>2019-06-30T11:56:49.000Z</time>
      </trkpt>
      <trkpt lat="42.98406" lon="0.54559">
        <ele>1142</ele>
        <time>2019-06-30T11:56:51.000Z</time>
      </trkpt>
      <trkpt lat="42.98407" lon="0.54558">
        <ele>1142</ele>
        <time>2019-06-30T11:56:53.000Z</time>
      </trkpt>
      <trkpt lat="42.98408" lon="0.54557">
        <ele>1143</ele>
        <time>2019-06-30T11:56:55.000Z</time>
      </trkpt>
      <trkpt lat="42.98409" lon="0.54556">
        <ele>1143</ele>
        <time>2019-06-30T11:56:57.000Z</time>
      </trkpt>
      <trkpt lat="42.98409" lon="0.54556">
        <ele>1143</ele>
        <time>2019-06-30T11:56:59.000Z</time>
      </trkpt>
      <trkpt lat="42.9841" lon="0.54556">
        <ele>1143</ele>
        <time>2019-06-30T11:57:01.000Z</time>
      </trkpt>
      <trkpt lat="42.98411" lon="0.54556">
        <ele>1143</ele>
        <time>2019-06-30T11:57:03.000Z</time>
      </trkpt>
      <trkpt lat="42.98412" lon="0.54556">
        <ele>1142</ele>
        <time>2019-06-30T11:57:05.000Z</time>
      </trkpt>
      <trkpt lat="42.98413" lon="0.54557">
        <ele>1142</ele>
        <time>2019-06-30T11:57:07.000Z</time>
      </trkpt>
      <trkpt lat="42.98415" lon="0.54557">
        <ele>1142</ele>
        <time>2019-06-30T11:57:09.000Z</time>
      </trkpt>
      <trkpt lat="42.98416" lon="0.54558">
        <ele>1141</ele>
        <time>2019-06-30T11:57:11.000Z</time>
      </trkpt>
      <trkpt lat="42.98417" lon="0.54558">
        <ele>1141</ele>
        <time>2019-06-30T11:57:13.000Z</time>
      </trkpt>
      <trkpt lat="42.98418" lon="0.54558">
        <ele>1141</ele>
        <time>2019-06-30T11:57:15.000Z</time>
      </trkpt>
      <trkpt lat="42.98418" lon="0.54558">
        <ele>1141</ele>
        <time>2019-06-30T11:57:17.000Z</time>
      </trkpt>
      <trkpt lat="42.98418" lon="0.54557">
        <ele>1141</ele>
        <time>2019-06-30T11:57:19.000Z</time>
      </trkpt>
      <trkpt lat="42.98418" lon="0.54557">
        <ele>1141</ele>
        <time>2019-06-30T11:57:21.000Z</time>
      </trkpt>
      <trkpt lat="42.98418" lon="0.54558">
        <ele>1141</ele>
        <time>2019-06-30T11:57:23.000Z</time>
      </trkpt>
      <trkpt lat="42.98419" lon="0.54558">
        <ele>1141</ele>
        <time>2019-06-30T11:57:25.000Z</time>
      </trkpt>
      <trkpt lat="42.98419" lon="0.54558">
        <ele>1141</ele>
        <time>2019-06-30T11:57:27.000Z</time>
      </trkpt>
      <trkpt lat="42.98419" lon="0.54558">
        <ele>1141</ele>
        <time>2019-06-30T11:57:29.000Z</time>
      </trkpt>
      <trkpt lat="42.9842" lon="0.54558">
        <ele>1141</ele>
        <time>2019-06-30T11:57:31.000Z</time>
      </trkpt>
      <trkpt lat="42.98422" lon="0.54558">
        <ele>1140</ele>
        <time>2019-06-30T11:57:33.000Z</time>
      </trkpt>
      <trkpt lat="42.98423" lon="0.54558">
        <ele>1140</ele>
        <time>2019-06-30T11:57:35.000Z</time>
      </trkpt>
      <trkpt lat="42.98423" lon="0.54559">
        <ele>1140</ele>
        <time>2019-06-30T11:57:37.000Z</time>
      </trkpt>
      <trkpt lat="42.98423" lon="0.54559">
        <ele>1140</ele>
        <time>2019-06-30T11:57:39.000Z</time>
      </trkpt>
      <trkpt lat="42.98423" lon="0.54561">
        <ele>1139</ele>
        <time>2019-06-30T11:57:41.000Z</time>
      </trkpt>
      <trkpt lat="42.98424" lon="0.5456">
        <ele>1139</ele>
        <time>2019-06-30T11:57:43.000Z</time>
      </trkpt>
      <trkpt lat="42.98423" lon="0.5456">
        <ele>1139</ele>
        <time>2019-06-30T11:57:45.000Z</time>
      </trkpt>
      <trkpt lat="42.98422" lon="0.54558">
        <ele>1140</ele>
        <time>2019-06-30T11:57:47.000Z</time>
      </trkpt>
      <trkpt lat="42.98421" lon="0.54558">
        <ele>1140</ele>
        <time>2019-06-30T11:57:49.000Z</time>
      </trkpt>
      <trkpt lat="42.98421" lon="0.54558">
        <ele>1141</ele>
        <time>2019-06-30T11:57:51.000Z</time>
      </trkpt>
      <trkpt lat="42.98421" lon="0.54557">
        <ele>1141</ele>
        <time>2019-06-30T11:57:53.000Z</time>
      </trkpt>
      <trkpt lat="42.98422" lon="0.54557">
        <ele>1141</ele>
        <time>2019-06-30T11:57:55.000Z</time>
      </trkpt>
      <trkpt lat="42.98422" lon="0.54557">
        <ele>1141</ele>
        <time>2019-06-30T11:57:57.000Z</time>
      </trkpt>
      <trkpt lat="42.98423" lon="0.54557">
        <ele>1141</ele>
        <time>2019-06-30T11:57:59.000Z</time>
      </trkpt>
      <trkpt lat="42.98423" lon="0.54557">
        <ele>1141</ele>
        <time>2019-06-30T11:58:01.000Z</time>
      </trkpt>
      <trkpt lat="42.98423" lon="0.54557">
        <ele>1141</ele>
        <time>2019-06-30T11:58:03.000Z</time>
      </trkpt>
      <trkpt lat="42.98423" lon="0.54557">
        <ele>1141</ele>
        <time>2019-06-30T11:58:05.000Z</time>
      </trkpt>
      <trkpt lat="42.98423" lon="0.54558">
        <ele>1140</ele>
        <time>2019-06-30T11:58:07.000Z</time>
      </trkpt>
      <trkpt lat="42.98424" lon="0.54559">
        <ele>1139</ele>
        <time>2019-06-30T11:58:09.000Z</time>
      </trkpt>
      <trkpt lat="42.98425" lon="0.5456">
        <ele>1139</ele>
        <time>2019-06-30T11:58:11.000Z</time>
      </trkpt>
      <trkpt lat="42.98425" lon="0.5456">
        <ele>1139</ele>
        <time>2019-06-30T11:58:13.000Z</time>
      </trkpt>
      <trkpt lat="42.98425" lon="0.5456">
        <ele>1139</ele>
        <time>2019-06-30T11:58:15.000Z</time>
      </trkpt>
      <trkpt lat="42.98424" lon="0.5456">
        <ele>1139</ele>
        <time>2019-06-30T11:58:17.000Z</time>
      </trkpt>
      <trkpt lat="42.98422" lon="0.5456">
        <ele>1140</ele>
        <time>2019-06-30T11:58:19.000Z</time>
      </trkpt>
      <trkpt lat="42.98421" lon="0.54559">
        <ele>1140</ele>
        <time>2019-06-30T11:58:21.000Z</time>
      </trkpt>
      <trkpt lat="42.98419" lon="0.54559">
        <ele>1140</ele>
        <time>2019-06-30T11:58:23.000Z</time>
      </trkpt>
      <trkpt lat="42.98417" lon="0.54558">
        <ele>1141</ele>
        <time>2019-06-30T11:58:25.000Z</time>
      </trkpt>
      <trkpt lat="42.98415" lon="0.54557">
        <ele>1142</ele>
        <time>2019-06-30T11:58:27.000Z</time>
      </trkpt>
      <trkpt lat="42.98414" lon="0.54556">
        <ele>1142</ele>
        <time>2019-06-30T11:58:29.000Z</time>
      </trkpt>
      <trkpt lat="42.98414" lon="0.54556">
        <ele>1142</ele>
        <time>2019-06-30T11:58:31.000Z</time>
      </trkpt>
      <trkpt lat="42.98415" lon="0.54556">
        <ele>1142</ele>
        <time>2019-06-30T11:58:33.000Z</time>
      </trkpt>
      <trkpt lat="42.98415" lon="0.54556">
        <ele>1142</ele>
        <time>2019-06-30T11:58:35.000Z</time>
      </trkpt>
      <trkpt lat="42.98417" lon="0.54557">
        <ele>1141</ele>
        <time>2019-06-30T11:58:37.000Z</time>
      </trkpt>
      <trkpt lat="42.98417" lon="0.54558">
        <ele>1141</ele>
        <time>2019-06-30T11:58:39.000Z</time>
      </trkpt>
      <trkpt lat="42.98418" lon="0.54559">
        <ele>1140</ele>
        <time>2019-06-30T11:58:41.000Z</time>
      </trkpt>
      <trkpt lat="42.98419" lon="0.54561">
        <ele>1139</ele>
        <time>2019-06-30T11:58:43.000Z</time>
      </trkpt>
      <trkpt lat="42.9842" lon="0.54561">
        <ele>1139</ele>
        <time>2019-06-30T11:58:45.000Z</time>
      </trkpt>
      <trkpt lat="42.98421" lon="0.54562">
        <ele>1139</ele>
        <time>2019-06-30T11:58:47.000Z</time>
      </trkpt>
      <trkpt lat="42.98422" lon="0.54563">
        <ele>1138</ele>
        <time>2019-06-30T11:58:49.000Z</time>
      </trkpt>
      <trkpt lat="42.98423" lon="0.54563">
        <ele>1138</ele>
        <time>2019-06-30T11:58:51.000Z</time>
      </trkpt>
      <trkpt lat="42.98425" lon="0.54564">
        <ele>1137</ele>
        <time>2019-06-30T11:58:53.000Z</time>
      </trkpt>
      <trkpt lat="42.98426" lon="0.54563">
        <ele>1138</ele>
        <time>2019-06-30T11:58:55.000Z</time>
      </trkpt>
      <trkpt lat="42.98426" lon="0.54563">
        <ele>1138</ele>
        <time>2019-06-30T11:58:57.000Z</time>
      </trkpt>
      <trkpt lat="42.98426" lon="0.54563">
        <ele>1138</ele>
        <time>2019-06-30T11:58:59.000Z</time>
      </trkpt>
      <trkpt lat="42.98426" lon="0.54562">
        <ele>1138</ele>
        <time>2019-06-30T11:59:01.000Z</time>
      </trkpt>
      <trkpt lat="42.98427" lon="0.54562">
        <ele>1138</ele>
        <time>2019-06-30T11:59:03.000Z</time>
      </trkpt>
      <trkpt lat="42.98428" lon="0.54561">
        <ele>1138</ele>
        <time>2019-06-30T11:59:05.000Z</time>
      </trkpt>
      <trkpt lat="42.98428" lon="0.54561">
        <ele>1139</ele>
        <time>2019-06-30T11:59:07.000Z</time>
      </trkpt>
      <trkpt lat="42.98428" lon="0.5456">
        <ele>1139</ele>
        <time>2019-06-30T11:59:09.000Z</time>
      </trkpt>
      <trkpt lat="42.98428" lon="0.54561">
        <ele>1139</ele>
        <time>2019-06-30T11:59:11.000Z</time>
      </trkpt>
      <trkpt lat="42.98427" lon="0.5456">
        <ele>1139</ele>
        <time>2019-06-30T11:59:13.000Z</time>
      </trkpt>
      <trkpt lat="42.98427" lon="0.5456">
        <ele>1139</ele>
        <time>2019-06-30T11:59:15.000Z</time>
      </trkpt>
      <trkpt lat="42.98426" lon="0.54559">
        <ele>1139</ele>
        <time>2019-06-30T11:59:17.000Z</time>
      </trkpt>
      <trkpt lat="42.98425" lon="0.54558">
        <ele>1140</ele>
        <time>2019-06-30T11:59:19.000Z</time>
      </trkpt>
      <trkpt lat="42.98423" lon="0.54557">
        <ele>1141</ele>
        <time>2019-06-30T11:59:21.000Z</time>
      </trkpt>
      <trkpt lat="42.98421" lon="0.54556">
        <ele>1141</ele>
        <time>2019-06-30T11:59:23.000Z</time>
      </trkpt>
      <trkpt lat="42.98418" lon="0.54555">
        <ele>1142</ele>
        <time>2019-06-30T11:59:25.000Z</time>
      </trkpt>
      <trkpt lat="42.98416" lon="0.54554">
        <ele>1143</ele>
        <time>2019-06-30T11:59:27.000Z</time>
      </trkpt>
      <trkpt lat="42.98415" lon="0.54553">
        <ele>1143</ele>
        <time>2019-06-30T11:59:29.000Z</time>
      </trkpt>
      <trkpt lat="42.98415" lon="0.54554">
        <ele>1143</ele>
        <time>2019-06-30T11:59:31.000Z</time>
      </trkpt>
      <trkpt lat="42.98415" lon="0.54554">
        <ele>1143</ele>
        <time>2019-06-30T11:59:33.000Z</time>
      </trkpt>
      <trkpt lat="42.98416" lon="0.54554">
        <ele>1143</ele>
        <time>2019-06-30T11:59:35.000Z</time>
      </trkpt>
      <trkpt lat="42.98417" lon="0.54555">
        <ele>1142</ele>
        <time>2019-06-30T11:59:37.000Z</time>
      </trkpt>
      <trkpt lat="42.98417" lon="0.54555">
        <ele>1142</ele>
        <time>2019-06-30T11:59:39.000Z</time>
      </trkpt>
      <trkpt lat="42.98417" lon="0.54555">
        <ele>1142</ele>
        <time>2019-06-30T11:59:41.000Z</time>
      </trkpt>
      <trkpt lat="42.98418" lon="0.54555">
        <ele>1142</ele>
        <time>2019-06-30T11:59:43.000Z</time>
      </trkpt>
      <trkpt lat="42.98419" lon="0.54556">
        <ele>1142</ele>
        <time>2019-06-30T11:59:45.000Z</time>
      </trkpt>
      <trkpt lat="42.98419" lon="0.54556">
        <ele>1141</ele>
        <time>2019-06-30T11:59:47.000Z</time>
      </trkpt>
      <trkpt lat="42.9842" lon="0.54557">
        <ele>1141</ele>
        <time>2019-06-30T11:59:49.000Z</time>
      </trkpt>
      <trkpt lat="42.98421" lon="0.54558">
        <ele>1141</ele>
        <time>2019-06-30T11:59:51.000Z</time>
      </trkpt>
      <trkpt lat="42.98421" lon="0.54559">
        <ele>1140</ele>
        <time>2019-06-30T11:59:53.000Z</time>
      </trkpt>
      <trkpt lat="42.98421" lon="0.54559">
        <ele>1140</ele>
        <time>2019-06-30T11:59:55.000Z</time>
      </trkpt>
      <trkpt lat="42.98421" lon="0.54559">
        <ele>1140</ele>
        <time>2019-06-30T11:59:57.000Z</time>
      </trkpt>
      <trkpt lat="42.9842" lon="0.54559">
        <ele>1140</ele>
        <time>2019-06-30T11:59:59.000Z</time>
      </trkpt>
      <trkpt lat="42.9842" lon="0.54559">
        <ele>1140</ele>
        <time>2019-06-30T12:00:01.000Z</time>
      </trkpt>
      <trkpt lat="42.9842" lon="0.54558">
        <ele>1141</ele>
        <time>2019-06-30T12:00:03.000Z</time>
      </trkpt>
      <trkpt lat="42.9842" lon="0.54557">
        <ele>1141</ele>
        <time>2019-06-30T12:00:05.000Z</time>
      </trkpt>
      <trkpt lat="42.9842" lon="0.54556">
        <ele>1141</ele>
        <time>2019-06-30T12:00:07.000Z</time>
      </trkpt>
      <trkpt lat="42.98419" lon="0.54556">
        <ele>1142</ele>
        <time>2019-06-30T12:00:09.000Z</time>
      </trkpt>
      <trkpt lat="42.98419" lon="0.54555">
        <ele>1142</ele>
        <time>2019-06-30T12:00:11.000Z</time>
      </trkpt>
      <trkpt lat="42.98418" lon="0.54554">
        <ele>1142</ele>
        <time>2019-06-30T12:00:13.000Z</time>
      </trkpt>
      <trkpt lat="42.98418" lon="0.54554">
        <ele>1143</ele>
        <time>2019-06-30T12:00:15.000Z</time>
      </trkpt>
      <trkpt lat="42.98417" lon="0.54553">
        <ele>1143</ele>
        <time>2019-06-30T12:00:17.000Z</time>
      </trkpt>
      <trkpt lat="42.98417" lon="0.54553">
        <ele>1143</ele>
        <time>2019-06-30T12:00:19.000Z</time>
      </trkpt>
      <trkpt lat="42.98416" lon="0.54553">
        <ele>1143</ele>
        <time>2019-06-30T12:00:21.000Z</time>
      </trkpt>
      <trkpt lat="42.98415" lon="0.54552">
        <ele>1144</ele>
        <time>2019-06-30T12:00:23.000Z</time>
      </trkpt>
      <trkpt lat="42.98415" lon="0.54552">
        <ele>1144</ele>
        <time>2019-06-30T12:00:25.000Z</time>
      </trkpt>
      <trkpt lat="42.98414" lon="0.54552">
        <ele>1144</ele>
        <time>2019-06-30T12:00:27.000Z</time>
      </trkpt>
      <trkpt lat="42.98414" lon="0.54552">
        <ele>1144</ele>
        <time>2019-06-30T12:00:29.000Z</time>
      </trkpt>
      <trkpt lat="42.98415" lon="0.54552">
        <ele>1144</ele>
        <time>2019-06-30T12:00:31.000Z</time>
      </trkpt>
      <trkpt lat="42.98415" lon="0.54552">
        <ele>1144</ele>
        <time>2019-06-30T12:00:33.000Z</time>
      </trkpt>
      <trkpt lat="42.98416" lon="0.54553">
        <ele>1143</ele>
        <time>2019-06-30T12:00:35.000Z</time>
      </trkpt>
      <trkpt lat="42.98415" lon="0.54553">
        <ele>1143</ele>
        <time>2019-06-30T12:00:37.000Z</time>
      </trkpt>
      <trkpt lat="42.98416" lon="0.54554">
        <ele>1143</ele>
        <time>2019-06-30T12:00:39.000Z</time>
      </trkpt>
      <trkpt lat="42.98417" lon="0.54555">
        <ele>1143</ele>
        <time>2019-06-30T12:00:41.000Z</time>
      </trkpt>
      <trkpt lat="42.98417" lon="0.54555">
        <ele>1142</ele>
        <time>2019-06-30T12:00:43.000Z</time>
      </trkpt>
      <trkpt lat="42.98419" lon="0.54555">
        <ele>1142</ele>
        <time>2019-06-30T12:00:45.000Z</time>
      </trkpt>
      <trkpt lat="42.9842" lon="0.54555">
        <ele>1142</ele>
        <time>2019-06-30T12:00:47.000Z</time>
      </trkpt>
      <trkpt lat="42.98421" lon="0.54556">
        <ele>1141</ele>
        <time>2019-06-30T12:00:49.000Z</time>
      </trkpt>
      <trkpt lat="42.98422" lon="0.54556">
        <ele>1141</ele>
        <time>2019-06-30T12:00:51.000Z</time>
      </trkpt>
      <trkpt lat="42.98423" lon="0.54557">
        <ele>1141</ele>
        <time>2019-06-30T12:00:53.000Z</time>
      </trkpt>
      <trkpt lat="42.98424" lon="0.54557">
        <ele>1141</ele>
        <time>2019-06-30T12:00:55.000Z</time>
      </trkpt>
      <trkpt lat="42.98424" lon="0.54557">
        <ele>1140</ele>
        <time>2019-06-30T12:00:57.000Z</time>
      </trkpt>
      <trkpt lat="42.98425" lon="0.54558">
        <ele>1140</ele>
        <time>2019-06-30T12:00:59.000Z</time>
      </trkpt>
      <trkpt lat="42.98425" lon="0.54558">
        <ele>1140</ele>
        <time>2019-06-30T12:01:01.000Z</time>
      </trkpt>
      <trkpt lat="42.98425" lon="0.54558">
        <ele>1140</ele>
        <time>2019-06-30T12:01:03.000Z</time>
      </trkpt>
      <trkpt lat="42.98425" lon="0.54558">
        <ele>1140</ele>
        <time>2019-06-30T12:01:05.000Z</time>
      </trkpt>
      <trkpt lat="42.98424" lon="0.54557">
        <ele>1141</ele>
        <time>2019-06-30T12:01:07.000Z</time>
      </trkpt>
      <trkpt lat="42.98424" lon="0.54556">
        <ele>1141</ele>
        <time>2019-06-30T12:01:09.000Z</time>
      </trkpt>
      <trkpt lat="42.98423" lon="0.54556">
        <ele>1141</ele>
        <time>2019-06-30T12:01:11.000Z</time>
      </trkpt>
      <trkpt lat="42.98422" lon="0.54556">
        <ele>1141</ele>
        <time>2019-06-30T12:01:13.000Z</time>
      </trkpt>
      <trkpt lat="42.98421" lon="0.54555">
        <ele>1142</ele>
        <time>2019-06-30T12:01:15.000Z</time>
      </trkpt>
      <trkpt lat="42.9842" lon="0.54555">
        <ele>1142</ele>
        <time>2019-06-30T12:01:17.000Z</time>
      </trkpt>
      <trkpt lat="42.9842" lon="0.54555">
        <ele>1142</ele>
        <time>2019-06-30T12:01:19.000Z</time>
      </trkpt>
      <trkpt lat="42.9842" lon="0.54556">
        <ele>1142</ele>
        <time>2019-06-30T12:01:21.000Z</time>
      </trkpt>
      <trkpt lat="42.98417" lon="0.54555">
        <ele>1142</ele>
        <time>2019-06-30T12:01:23.000Z</time>
      </trkpt>
      <trkpt lat="42.98415" lon="0.54555">
        <ele>1142</ele>
        <time>2019-06-30T12:01:25.000Z</time>
      </trkpt>
      <trkpt lat="42.98415" lon="0.54555">
        <ele>1143</ele>
        <time>2019-06-30T12:01:27.000Z</time>
      </trkpt>
      <trkpt lat="42.98415" lon="0.54555">
        <ele>1143</ele>
        <time>2019-06-30T12:01:29.000Z</time>
      </trkpt>
      <trkpt lat="42.98415" lon="0.54555">
        <ele>1143</ele>
        <time>2019-06-30T12:01:31.000Z</time>
      </trkpt>
      <trkpt lat="42.98415" lon="0.54555">
        <ele>1143</ele>
        <time>2019-06-30T12:01:33.000Z</time>
      </trkpt>
      <trkpt lat="42.98416" lon="0.54555">
        <ele>1142</ele>
        <time>2019-06-30T12:01:35.000Z</time>
      </trkpt>
      <trkpt lat="42.98416" lon="0.54555">
        <ele>1143</ele>
        <time>2019-06-30T12:01:37.000Z</time>
      </trkpt>
      <trkpt lat="42.98415" lon="0.54554">
        <ele>1143</ele>
        <time>2019-06-30T12:01:39.000Z</time>
      </trkpt>
      <trkpt lat="42.98415" lon="0.54554">
        <ele>1143</ele>
        <time>2019-06-30T12:01:41.000Z</time>
      </trkpt>
      <trkpt lat="42.98415" lon="0.54554">
        <ele>1143</ele>
        <time>2019-06-30T12:01:43.000Z</time>
      </trkpt>
      <trkpt lat="42.98415" lon="0.54554">
        <ele>1143</ele>
        <time>2019-06-30T12:01:45.000Z</time>
      </trkpt>
      <trkpt lat="42.98415" lon="0.54553">
        <ele>1143</ele>
        <time>2019-06-30T12:01:47.000Z</time>
      </trkpt>
      <trkpt lat="42.98415" lon="0.54553">
        <ele>1143</ele>
        <time>2019-06-30T12:01:49.000Z</time>
      </trkpt>
      <trkpt lat="42.98416" lon="0.54553">
        <ele>1143</ele>
        <time>2019-06-30T12:01:51.000Z</time>
      </trkpt>
      <trkpt lat="42.98415" lon="0.54553">
        <ele>1143</ele>
        <time>2019-06-30T12:01:53.000Z</time>
      </trkpt>
      <trkpt lat="42.98416" lon="0.54553">
        <ele>1143</ele>
        <time>2019-06-30T12:01:55.000Z</time>
      </trkpt>
      <trkpt lat="42.98416" lon="0.54554">
        <ele>1143</ele>
        <time>2019-06-30T12:01:57.000Z</time>
      </trkpt>
      <trkpt lat="42.98416" lon="0.54554">
        <ele>1143</ele>
        <time>2019-06-30T12:01:59.000Z</time>
      </trkpt>
      <trkpt lat="42.98417" lon="0.54555">
        <ele>1142</ele>
        <time>2019-06-30T12:02:01.000Z</time>
      </trkpt>
      <trkpt lat="42.98418" lon="0.54556">
        <ele>1142</ele>
        <time>2019-06-30T12:02:03.000Z</time>
      </trkpt>
      <trkpt lat="42.98418" lon="0.54557">
        <ele>1142</ele>
        <time>2019-06-30T12:02:05.000Z</time>
      </trkpt>
      <trkpt lat="42.98417" lon="0.54557">
        <ele>1141</ele>
        <time>2019-06-30T12:02:07.000Z</time>
      </trkpt>
      <trkpt lat="42.98415" lon="0.54557">
        <ele>1142</ele>
        <time>2019-06-30T12:02:09.000Z</time>
      </trkpt>
      <trkpt lat="42.98415" lon="0.54557">
        <ele>1142</ele>
        <time>2019-06-30T12:02:11.000Z</time>
      </trkpt>
      <trkpt lat="42.98414" lon="0.54557">
        <ele>1142</ele>
        <time>2019-06-30T12:02:13.000Z</time>
      </trkpt>
      <trkpt lat="42.98414" lon="0.54557">
        <ele>1142</ele>
        <time>2019-06-30T12:02:15.000Z</time>
      </trkpt>
      <trkpt lat="42.98413" lon="0.54557">
        <ele>1142</ele>
        <time>2019-06-30T12:02:17.000Z</time>
      </trkpt>
      <trkpt lat="42.98413" lon="0.54558">
        <ele>1141</ele>
        <time>2019-06-30T12:02:19.000Z</time>
      </trkpt>
      <trkpt lat="42.98414" lon="0.54559">
        <ele>1141</ele>
        <time>2019-06-30T12:02:21.000Z</time>
      </trkpt>
      <trkpt lat="42.98413" lon="0.5456">
        <ele>1141</ele>
        <time>2019-06-30T12:02:23.000Z</time>
      </trkpt>
      <trkpt lat="42.98413" lon="0.54559">
        <ele>1141</ele>
        <time>2019-06-30T12:02:25.000Z</time>
      </trkpt>
      <trkpt lat="42.98413" lon="0.54557">
        <ele>1142</ele>
        <time>2019-06-30T12:02:27.000Z</time>
      </trkpt>
      <trkpt lat="42.98413" lon="0.54557">
        <ele>1142</ele>
        <time>2019-06-30T12:02:29.000Z</time>
      </trkpt>
      <trkpt lat="42.98413" lon="0.54556">
        <ele>1142</ele>
        <time>2019-06-30T12:02:31.000Z</time>
      </trkpt>
      <trkpt lat="42.98413" lon="0.54558">
        <ele>1142</ele>
        <time>2019-06-30T12:02:33.000Z</time>
      </trkpt>
      <trkpt lat="42.98413" lon="0.54558">
        <ele>1142</ele>
        <time>2019-06-30T12:02:35.000Z</time>
      </trkpt>
      <trkpt lat="42.98413" lon="0.54558">
        <ele>1142</ele>
        <time>2019-06-30T12:02:37.000Z</time>
      </trkpt>
      <trkpt lat="42.98413" lon="0.54559">
        <ele>1141</ele>
        <time>2019-06-30T12:02:39.000Z</time>
      </trkpt>
      <trkpt lat="42.98414" lon="0.5456">
        <ele>1141</ele>
        <time>2019-06-30T12:02:41.000Z</time>
      </trkpt>
      <trkpt lat="42.98414" lon="0.54559">
        <ele>1141</ele>
        <time>2019-06-30T12:02:43.000Z</time>
      </trkpt>
      <trkpt lat="42.98413" lon="0.54558">
        <ele>1141</ele>
        <time>2019-06-30T12:02:45.000Z</time>
      </trkpt>
      <trkpt lat="42.98413" lon="0.54558">
        <ele>1142</ele>
        <time>2019-06-30T12:02:47.000Z</time>
      </trkpt>
      <trkpt lat="42.98413" lon="0.54558">
        <ele>1142</ele>
        <time>2019-06-30T12:02:49.000Z</time>
      </trkpt>
      <trkpt lat="42.98413" lon="0.54557">
        <ele>1142</ele>
        <time>2019-06-30T12:02:51.000Z</time>
      </trkpt>
      <trkpt lat="42.98413" lon="0.54556">
        <ele>1143</ele>
        <time>2019-06-30T12:02:53.000Z</time>
      </trkpt>
      <trkpt lat="42.98412" lon="0.54555">
        <ele>1143</ele>
        <time>2019-06-30T12:02:55.000Z</time>
      </trkpt>
      <trkpt lat="42.98412" lon="0.54556">
        <ele>1143</ele>
        <time>2019-06-30T12:02:57.000Z</time>
      </trkpt>
      <trkpt lat="42.98412" lon="0.54555">
        <ele>1143</ele>
        <time>2019-06-30T12:02:59.000Z</time>
      </trkpt>
      <trkpt lat="42.98413" lon="0.54555">
        <ele>1143</ele>
        <time>2019-06-30T12:03:01.000Z</time>
      </trkpt>
      <trkpt lat="42.98413" lon="0.54556">
        <ele>1143</ele>
        <time>2019-06-30T12:03:03.000Z</time>
      </trkpt>
      <trkpt lat="42.98414" lon="0.54557">
        <ele>1142</ele>
        <time>2019-06-30T12:03:05.000Z</time>
      </trkpt>
      <trkpt lat="42.98414" lon="0.54559">
        <ele>1141</ele>
        <time>2019-06-30T12:03:07.000Z</time>
      </trkpt>
      <trkpt lat="42.98414" lon="0.54561">
        <ele>1140</ele>
        <time>2019-06-30T12:03:09.000Z</time>
      </trkpt>
      <trkpt lat="42.98413" lon="0.54562">
        <ele>1140</ele>
        <time>2019-06-30T12:03:11.000Z</time>
      </trkpt>
      <trkpt lat="42.98413" lon="0.54562">
        <ele>1140</ele>
        <time>2019-06-30T12:03:13.000Z</time>
      </trkpt>
      <trkpt lat="42.98414" lon="0.54563">
        <ele>1139</ele>
        <time>2019-06-30T12:03:15.000Z</time>
      </trkpt>
      <trkpt lat="42.98414" lon="0.54566">
        <ele>1138</ele>
        <time>2019-06-30T12:03:17.000Z</time>
      </trkpt>
      <trkpt lat="42.98414" lon="0.54567">
        <ele>1138</ele>
        <time>2019-06-30T12:03:19.000Z</time>
      </trkpt>
      <trkpt lat="42.98412" lon="0.54568">
        <ele>1137</ele>
        <time>2019-06-30T12:03:21.000Z</time>
      </trkpt>
      <trkpt lat="42.98411" lon="0.54569">
        <ele>1137</ele>
        <time>2019-06-30T12:03:23.000Z</time>
      </trkpt>
      <trkpt lat="42.98409" lon="0.5457">
        <ele>1137</ele>
        <time>2019-06-30T12:03:25.000Z</time>
      </trkpt>
      <trkpt lat="42.98408" lon="0.54572">
        <ele>1136</ele>
        <time>2019-06-30T12:03:27.000Z</time>
      </trkpt>
      <trkpt lat="42.98406" lon="0.54574">
        <ele>1136</ele>
        <time>2019-06-30T12:03:29.000Z</time>
      </trkpt>
      <trkpt lat="42.98405" lon="0.54577">
        <ele>1135</ele>
        <time>2019-06-30T12:03:31.000Z</time>
      </trkpt>
      <trkpt lat="42.98404" lon="0.54579">
        <ele>1134</ele>
        <time>2019-06-30T12:03:33.000Z</time>
      </trkpt>
      <trkpt lat="42.98403" lon="0.54582">
        <ele>1133</ele>
        <time>2019-06-30T12:03:35.000Z</time>
      </trkpt>
      <trkpt lat="42.98401" lon="0.54584">
        <ele>1132</ele>
        <time>2019-06-30T12:03:37.000Z</time>
      </trkpt>
      <trkpt lat="42.98399" lon="0.54586">
        <ele>1132</ele>
        <time>2019-06-30T12:03:39.000Z</time>
      </trkpt>
      <trkpt lat="42.98399" lon="0.54589">
        <ele>1130</ele>
        <time>2019-06-30T12:03:41.000Z</time>
      </trkpt>
      <trkpt lat="42.98398" lon="0.54591">
        <ele>1129</ele>
        <time>2019-06-30T12:03:43.000Z</time>
      </trkpt>
      <trkpt lat="42.98398" lon="0.54594">
        <ele>1128</ele>
        <time>2019-06-30T12:03:45.000Z</time>
      </trkpt>
      <trkpt lat="42.98398" lon="0.54597">
        <ele>1127</ele>
        <time>2019-06-30T12:03:47.000Z</time>
      </trkpt>
      <trkpt lat="42.98397" lon="0.546">
        <ele>1126</ele>
        <time>2019-06-30T12:03:49.000Z</time>
      </trkpt>
      <trkpt lat="42.98396" lon="0.54603">
        <ele>1125</ele>
        <time>2019-06-30T12:03:51.000Z</time>
      </trkpt>
      <trkpt lat="42.98395" lon="0.54605">
        <ele>1124</ele>
        <time>2019-06-30T12:03:53.000Z</time>
      </trkpt>
      <trkpt lat="42.98394" lon="0.54609">
        <ele>1123</ele>
        <time>2019-06-30T12:03:55.000Z</time>
      </trkpt>
      <trkpt lat="42.98394" lon="0.54612">
        <ele>1121</ele>
        <time>2019-06-30T12:03:57.000Z</time>
      </trkpt>
      <trkpt lat="42.98392" lon="0.54614">
        <ele>1121</ele>
        <time>2019-06-30T12:03:59.000Z</time>
      </trkpt>
      <trkpt lat="42.98391" lon="0.54616">
        <ele>1120</ele>
        <time>2019-06-30T12:04:01.000Z</time>
      </trkpt>
      <trkpt lat="42.9839" lon="0.54618">
        <ele>1119</ele>
        <time>2019-06-30T12:04:03.000Z</time>
      </trkpt>
      <trkpt lat="42.98388" lon="0.5462">
        <ele>1119</ele>
        <time>2019-06-30T12:04:05.000Z</time>
      </trkpt>
      <trkpt lat="42.98387" lon="0.54622">
        <ele>1118</ele>
        <time>2019-06-30T12:04:07.000Z</time>
      </trkpt>
      <trkpt lat="42.98386" lon="0.54624">
        <ele>1118</ele>
        <time>2019-06-30T12:04:09.000Z</time>
      </trkpt>
      <trkpt lat="42.98384" lon="0.54625">
        <ele>1117</ele>
        <time>2019-06-30T12:04:11.000Z</time>
      </trkpt>
      <trkpt lat="42.98383" lon="0.54627">
        <ele>1117</ele>
        <time>2019-06-30T12:04:13.000Z</time>
      </trkpt>
      <trkpt lat="42.98381" lon="0.54629">
        <ele>1116</ele>
        <time>2019-06-30T12:04:15.000Z</time>
      </trkpt>
      <trkpt lat="42.9838" lon="0.54631">
        <ele>1116</ele>
        <time>2019-06-30T12:04:17.000Z</time>
      </trkpt>
      <trkpt lat="42.98378" lon="0.54633">
        <ele>1115</ele>
        <time>2019-06-30T12:04:19.000Z</time>
      </trkpt>
      <trkpt lat="42.98377" lon="0.54634">
        <ele>1115</ele>
        <time>2019-06-30T12:04:21.000Z</time>
      </trkpt>
      <trkpt lat="42.98377" lon="0.54636">
        <ele>1115</ele>
        <time>2019-06-30T12:04:23.000Z</time>
      </trkpt>
      <trkpt lat="42.98374" lon="0.54638">
        <ele>1114</ele>
        <time>2019-06-30T12:04:25.000Z</time>
      </trkpt>
      <trkpt lat="42.98373" lon="0.5464">
        <ele>1113</ele>
        <time>2019-06-30T12:04:27.000Z</time>
      </trkpt>
      <trkpt lat="42.98372" lon="0.54642">
        <ele>1113</ele>
        <time>2019-06-30T12:04:29.000Z</time>
      </trkpt>
      <trkpt lat="42.9837" lon="0.54645">
        <ele>1112</ele>
        <time>2019-06-30T12:04:31.000Z</time>
      </trkpt>
      <trkpt lat="42.98369" lon="0.54647">
        <ele>1111</ele>
        <time>2019-06-30T12:04:33.000Z</time>
      </trkpt>
      <trkpt lat="42.98368" lon="0.5465">
        <ele>1110</ele>
        <time>2019-06-30T12:04:35.000Z</time>
      </trkpt>
      <trkpt lat="42.98367" lon="0.54652">
        <ele>1110</ele>
        <time>2019-06-30T12:04:37.000Z</time>
      </trkpt>
      <trkpt lat="42.98366" lon="0.54654">
        <ele>1109</ele>
        <time>2019-06-30T12:04:39.000Z</time>
      </trkpt>
      <trkpt lat="42.98364" lon="0.54657">
        <ele>1108</ele>
        <time>2019-06-30T12:04:41.000Z</time>
      </trkpt>
      <trkpt lat="42.98364" lon="0.54659">
        <ele>1108</ele>
        <time>2019-06-30T12:04:43.000Z</time>
      </trkpt>
      <trkpt lat="42.98363" lon="0.54663">
        <ele>1106</ele>
        <time>2019-06-30T12:04:45.000Z</time>
      </trkpt>
      <trkpt lat="42.98362" lon="0.54665">
        <ele>1106</ele>
        <time>2019-06-30T12:04:47.000Z</time>
      </trkpt>
      <trkpt lat="42.9836" lon="0.54667">
        <ele>1105</ele>
        <time>2019-06-30T12:04:49.000Z</time>
      </trkpt>
      <trkpt lat="42.98358" lon="0.54669">
        <ele>1105</ele>
        <time>2019-06-30T12:04:51.000Z</time>
      </trkpt>
      <trkpt lat="42.98356" lon="0.54671">
        <ele>1104</ele>
        <time>2019-06-30T12:04:53.000Z</time>
      </trkpt>
      <trkpt lat="42.98354" lon="0.54674">
        <ele>1104</ele>
        <time>2019-06-30T12:04:55.000Z</time>
      </trkpt>
      <trkpt lat="42.98353" lon="0.54675">
        <ele>1104</ele>
        <time>2019-06-30T12:04:57.000Z</time>
      </trkpt>
      <trkpt lat="42.98351" lon="0.54678">
        <ele>1103</ele>
        <time>2019-06-30T12:04:59.000Z</time>
      </trkpt>
      <trkpt lat="42.9835" lon="0.54679">
        <ele>1103</ele>
        <time>2019-06-30T12:05:01.000Z</time>
      </trkpt>
      <trkpt lat="42.98349" lon="0.54682">
        <ele>1102</ele>
        <time>2019-06-30T12:05:03.000Z</time>
      </trkpt>
      <trkpt lat="42.98347" lon="0.54685">
        <ele>1101</ele>
        <time>2019-06-30T12:05:05.000Z</time>
      </trkpt>
      <trkpt lat="42.98346" lon="0.54688">
        <ele>1100</ele>
        <time>2019-06-30T12:05:07.000Z</time>
      </trkpt>
      <trkpt lat="42.98344" lon="0.5469">
        <ele>1100</ele>
        <time>2019-06-30T12:05:09.000Z</time>
      </trkpt>
      <trkpt lat="42.98343" lon="0.54692">
        <ele>1099</ele>
        <time>2019-06-30T12:05:11.000Z</time>
      </trkpt>
      <trkpt lat="42.98341" lon="0.54693">
        <ele>1099</ele>
        <time>2019-06-30T12:05:13.000Z</time>
      </trkpt>
      <trkpt lat="42.9834" lon="0.54694">
        <ele>1099</ele>
        <time>2019-06-30T12:05:15.000Z</time>
      </trkpt>
      <trkpt lat="42.98339" lon="0.54695">
        <ele>1099</ele>
        <time>2019-06-30T12:05:17.000Z</time>
      </trkpt>
      <trkpt lat="42.98337" lon="0.54697">
        <ele>1100</ele>
        <time>2019-06-30T12:05:19.000Z</time>
      </trkpt>
      <trkpt lat="42.98336" lon="0.54699">
        <ele>1099</ele>
        <time>2019-06-30T12:05:21.000Z</time>
      </trkpt>
      <trkpt lat="42.98334" lon="0.54701">
        <ele>1100</ele>
        <time>2019-06-30T12:05:23.000Z</time>
      </trkpt>
      <trkpt lat="42.98332" lon="0.54702">
        <ele>1100</ele>
        <time>2019-06-30T12:05:25.000Z</time>
      </trkpt>
      <trkpt lat="42.98331" lon="0.54704">
        <ele>1100</ele>
        <time>2019-06-30T12:05:27.000Z</time>
      </trkpt>
      <trkpt lat="42.98329" lon="0.54705">
        <ele>1100</ele>
        <time>2019-06-30T12:05:29.000Z</time>
      </trkpt>
      <trkpt lat="42.98326" lon="0.54707">
        <ele>1101</ele>
        <time>2019-06-30T12:05:31.000Z</time>
      </trkpt>
      <trkpt lat="42.98325" lon="0.54708">
        <ele>1101</ele>
        <time>2019-06-30T12:05:33.000Z</time>
      </trkpt>
      <trkpt lat="42.98323" lon="0.5471">
        <ele>1101</ele>
        <time>2019-06-30T12:05:35.000Z</time>
      </trkpt>
      <trkpt lat="42.98321" lon="0.54711">
        <ele>1101</ele>
        <time>2019-06-30T12:05:37.000Z</time>
      </trkpt>
      <trkpt lat="42.9832" lon="0.54713">
        <ele>1101</ele>
        <time>2019-06-30T12:05:39.000Z</time>
      </trkpt>
      <trkpt lat="42.98318" lon="0.54714">
        <ele>1101</ele>
        <time>2019-06-30T12:05:41.000Z</time>
      </trkpt>
      <trkpt lat="42.98316" lon="0.54718">
        <ele>1100</ele>
        <time>2019-06-30T12:05:43.000Z</time>
      </trkpt>
      <trkpt lat="42.98315" lon="0.54721">
        <ele>1100</ele>
        <time>2019-06-30T12:05:45.000Z</time>
      </trkpt>
      <trkpt lat="42.98313" lon="0.54724">
        <ele>1100</ele>
        <time>2019-06-30T12:05:47.000Z</time>
      </trkpt>
      <trkpt lat="42.98311" lon="0.54726">
        <ele>1100</ele>
        <time>2019-06-30T12:05:49.000Z</time>
      </trkpt>
      <trkpt lat="42.98309" lon="0.54728">
        <ele>1100</ele>
        <time>2019-06-30T12:05:51.000Z</time>
      </trkpt>
      <trkpt lat="42.98308" lon="0.5473">
        <ele>1100</ele>
        <time>2019-06-30T12:05:53.000Z</time>
      </trkpt>
      <trkpt lat="42.98307" lon="0.54732">
        <ele>1100</ele>
        <time>2019-06-30T12:05:55.000Z</time>
      </trkpt>
      <trkpt lat="42.98306" lon="0.54733">
        <ele>1100</ele>
        <time>2019-06-30T12:05:57.000Z</time>
      </trkpt>
      <trkpt lat="42.98306" lon="0.54735">
        <ele>1100</ele>
        <time>2019-06-30T12:05:59.000Z</time>
      </trkpt>
      <trkpt lat="42.98304" lon="0.54737">
        <ele>1100</ele>
        <time>2019-06-30T12:06:01.000Z</time>
      </trkpt>
      <trkpt lat="42.98303" lon="0.54738">
        <ele>1100</ele>
        <time>2019-06-30T12:06:03.000Z</time>
      </trkpt>
      <trkpt lat="42.98303" lon="0.54741">
        <ele>1099</ele>
        <time>2019-06-30T12:06:05.000Z</time>
      </trkpt>
      <trkpt lat="42.98301" lon="0.54743">
        <ele>1099</ele>
        <time>2019-06-30T12:06:07.000Z</time>
      </trkpt>
      <trkpt lat="42.98301" lon="0.54745">
        <ele>1099</ele>
        <time>2019-06-30T12:06:09.000Z</time>
      </trkpt>
      <trkpt lat="42.983" lon="0.54747">
        <ele>1099</ele>
        <time>2019-06-30T12:06:11.000Z</time>
      </trkpt>
      <trkpt lat="42.983" lon="0.54749">
        <ele>1098</ele>
        <time>2019-06-30T12:06:13.000Z</time>
      </trkpt>
      <trkpt lat="42.983" lon="0.54752">
        <ele>1098</ele>
        <time>2019-06-30T12:06:15.000Z</time>
      </trkpt>
      <trkpt lat="42.983" lon="0.54754">
        <ele>1097</ele>
        <time>2019-06-30T12:06:17.000Z</time>
      </trkpt>
      <trkpt lat="42.98301" lon="0.54756">
        <ele>1096</ele>
        <time>2019-06-30T12:06:19.000Z</time>
      </trkpt>
      <trkpt lat="42.983" lon="0.54758">
        <ele>1096</ele>
        <time>2019-06-30T12:06:21.000Z</time>
      </trkpt>
      <trkpt lat="42.983" lon="0.54759">
        <ele>1095</ele>
        <time>2019-06-30T12:06:23.000Z</time>
      </trkpt>
      <trkpt lat="42.983" lon="0.54762">
        <ele>1095</ele>
        <time>2019-06-30T12:06:25.000Z</time>
      </trkpt>
      <trkpt lat="42.98299" lon="0.54764">
        <ele>1094</ele>
        <time>2019-06-30T12:06:27.000Z</time>
      </trkpt>
      <trkpt lat="42.98298" lon="0.54766">
        <ele>1094</ele>
        <time>2019-06-30T12:06:29.000Z</time>
      </trkpt>
      <trkpt lat="42.98298" lon="0.54768">
        <ele>1093</ele>
        <time>2019-06-30T12:06:31.000Z</time>
      </trkpt>
      <trkpt lat="42.98297" lon="0.54771">
        <ele>1093</ele>
        <time>2019-06-30T12:06:33.000Z</time>
      </trkpt>
      <trkpt lat="42.98297" lon="0.54773">
        <ele>1092</ele>
        <time>2019-06-30T12:06:35.000Z</time>
      </trkpt>
      <trkpt lat="42.98296" lon="0.54774">
        <ele>1092</ele>
        <time>2019-06-30T12:06:37.000Z</time>
      </trkpt>
      <trkpt lat="42.98295" lon="0.54776">
        <ele>1091</ele>
        <time>2019-06-30T12:06:39.000Z</time>
      </trkpt>
      <trkpt lat="42.98295" lon="0.54778">
        <ele>1091</ele>
        <time>2019-06-30T12:06:41.000Z</time>
      </trkpt>
      <trkpt lat="42.98294" lon="0.5478">
        <ele>1090</ele>
        <time>2019-06-30T12:06:43.000Z</time>
      </trkpt>
      <trkpt lat="42.98294" lon="0.54782">
        <ele>1090</ele>
        <time>2019-06-30T12:06:45.000Z</time>
      </trkpt>
      <trkpt lat="42.98294" lon="0.54785">
        <ele>1089</ele>
        <time>2019-06-30T12:06:47.000Z</time>
      </trkpt>
      <trkpt lat="42.98294" lon="0.54787">
        <ele>1088</ele>
        <time>2019-06-30T12:06:49.000Z</time>
      </trkpt>
      <trkpt lat="42.98293" lon="0.5479">
        <ele>1087</ele>
        <time>2019-06-30T12:06:51.000Z</time>
      </trkpt>
      <trkpt lat="42.98293" lon="0.54792">
        <ele>1087</ele>
        <time>2019-06-30T12:06:53.000Z</time>
      </trkpt>
      <trkpt lat="42.98291" lon="0.54795">
        <ele>1087</ele>
        <time>2019-06-30T12:06:55.000Z</time>
      </trkpt>
      <trkpt lat="42.9829" lon="0.54797">
        <ele>1086</ele>
        <time>2019-06-30T12:06:57.000Z</time>
      </trkpt>
      <trkpt lat="42.98288" lon="0.548">
        <ele>1085</ele>
        <time>2019-06-30T12:06:59.000Z</time>
      </trkpt>
      <trkpt lat="42.98288" lon="0.54803">
        <ele>1085</ele>
        <time>2019-06-30T12:07:01.000Z</time>
      </trkpt>
      <trkpt lat="42.98289" lon="0.54806">
        <ele>1084</ele>
        <time>2019-06-30T12:07:03.000Z</time>
      </trkpt>
      <trkpt lat="42.9829" lon="0.54809">
        <ele>1082</ele>
        <time>2019-06-30T12:07:05.000Z</time>
      </trkpt>
      <trkpt lat="42.98289" lon="0.54812">
        <ele>1082</ele>
        <time>2019-06-30T12:07:07.000Z</time>
      </trkpt>
      <trkpt lat="42.98287" lon="0.54815">
        <ele>1082</ele>
        <time>2019-06-30T12:07:09.000Z</time>
      </trkpt>
      <trkpt lat="42.98285" lon="0.54817">
        <ele>1082</ele>
        <time>2019-06-30T12:07:11.000Z</time>
      </trkpt>
      <trkpt lat="42.98282" lon="0.5482">
        <ele>1082</ele>
        <time>2019-06-30T12:07:13.000Z</time>
      </trkpt>
      <trkpt lat="42.98282" lon="0.54822">
        <ele>1082</ele>
        <time>2019-06-30T12:07:15.000Z</time>
      </trkpt>
      <trkpt lat="42.98281" lon="0.54825">
        <ele>1081</ele>
        <time>2019-06-30T12:07:17.000Z</time>
      </trkpt>
      <trkpt lat="42.9828" lon="0.54828">
        <ele>1081</ele>
        <time>2019-06-30T12:07:19.000Z</time>
      </trkpt>
      <trkpt lat="42.98279" lon="0.5483">
        <ele>1081</ele>
        <time>2019-06-30T12:07:21.000Z</time>
      </trkpt>
      <trkpt lat="42.98276" lon="0.54832">
        <ele>1081</ele>
        <time>2019-06-30T12:07:23.000Z</time>
      </trkpt>
      <trkpt lat="42.98274" lon="0.54834">
        <ele>1081</ele>
        <time>2019-06-30T12:07:25.000Z</time>
      </trkpt>
      <trkpt lat="42.98272" lon="0.54835">
        <ele>1082</ele>
        <time>2019-06-30T12:07:27.000Z</time>
      </trkpt>
      <trkpt lat="42.9827" lon="0.54836">
        <ele>1082</ele>
        <time>2019-06-30T12:07:29.000Z</time>
      </trkpt>
      <trkpt lat="42.98269" lon="0.54837">
        <ele>1083</ele>
        <time>2019-06-30T12:07:31.000Z</time>
      </trkpt>
      <trkpt lat="42.98269" lon="0.54838">
        <ele>1082</ele>
        <time>2019-06-30T12:07:33.000Z</time>
      </trkpt>
      <trkpt lat="42.98268" lon="0.54839">
        <ele>1082</ele>
        <time>2019-06-30T12:07:35.000Z</time>
      </trkpt>
      <trkpt lat="42.98268" lon="0.54839">
        <ele>1082</ele>
        <time>2019-06-30T12:07:37.000Z</time>
      </trkpt>
      <trkpt lat="42.98267" lon="0.54839">
        <ele>1083</ele>
        <time>2019-06-30T12:07:39.000Z</time>
      </trkpt>
      <trkpt lat="42.98266" lon="0.54839">
        <ele>1083</ele>
        <time>2019-06-30T12:07:41.000Z</time>
      </trkpt>
      <trkpt lat="42.98264" lon="0.54839">
        <ele>1084</ele>
        <time>2019-06-30T12:07:43.000Z</time>
      </trkpt>
      <trkpt lat="42.98264" lon="0.5484">
        <ele>1084</ele>
        <time>2019-06-30T12:07:45.000Z</time>
      </trkpt>
      <trkpt lat="42.98264" lon="0.54839">
        <ele>1084</ele>
        <time>2019-06-30T12:07:47.000Z</time>
      </trkpt>
      <trkpt lat="42.98265" lon="0.5484">
        <ele>1083</ele>
        <time>2019-06-30T12:07:49.000Z</time>
      </trkpt>
      <trkpt lat="42.98265" lon="0.5484">
        <ele>1083</ele>
        <time>2019-06-30T12:07:51.000Z</time>
      </trkpt>
      <trkpt lat="42.98265" lon="0.5484">
        <ele>1083</ele>
        <time>2019-06-30T12:07:53.000Z</time>
      </trkpt>
      <trkpt lat="42.98264" lon="0.5484">
        <ele>1084</ele>
        <time>2019-06-30T12:07:55.000Z</time>
      </trkpt>
      <trkpt lat="42.98264" lon="0.5484">
        <ele>1083</ele>
        <time>2019-06-30T12:07:57.000Z</time>
      </trkpt>
      <trkpt lat="42.98264" lon="0.5484">
        <ele>1084</ele>
        <time>2019-06-30T12:07:59.000Z</time>
      </trkpt>
      <trkpt lat="42.98263" lon="0.54839">
        <ele>1084</ele>
        <time>2019-06-30T12:08:01.000Z</time>
      </trkpt>
      <trkpt lat="42.98262" lon="0.54838">
        <ele>1085</ele>
        <time>2019-06-30T12:08:03.000Z</time>
      </trkpt>
      <trkpt lat="42.98263" lon="0.54838">
        <ele>1085</ele>
        <time>2019-06-30T12:08:05.000Z</time>
      </trkpt>
      <trkpt lat="42.98263" lon="0.54838">
        <ele>1084</ele>
        <time>2019-06-30T12:08:07.000Z</time>
      </trkpt>
      <trkpt lat="42.98264" lon="0.54839">
        <ele>1084</ele>
        <time>2019-06-30T12:08:09.000Z</time>
      </trkpt>
      <trkpt lat="42.98264" lon="0.5484">
        <ele>1083</ele>
        <time>2019-06-30T12:08:11.000Z</time>
      </trkpt>
      <trkpt lat="42.98265" lon="0.5484">
        <ele>1083</ele>
        <time>2019-06-30T12:08:13.000Z</time>
      </trkpt>
      <trkpt lat="42.98266" lon="0.54841">
        <ele>1082</ele>
        <time>2019-06-30T12:08:15.000Z</time>
      </trkpt>
      <trkpt lat="42.98267" lon="0.54842">
        <ele>1082</ele>
        <time>2019-06-30T12:08:17.000Z</time>
      </trkpt>
      <trkpt lat="42.98267" lon="0.54841">
        <ele>1082</ele>
        <time>2019-06-30T12:08:19.000Z</time>
      </trkpt>
      <trkpt lat="42.98267" lon="0.54841">
        <ele>1082</ele>
        <time>2019-06-30T12:08:21.000Z</time>
      </trkpt>
      <trkpt lat="42.98267" lon="0.54841">
        <ele>1082</ele>
        <time>2019-06-30T12:08:23.000Z</time>
      </trkpt>
      <trkpt lat="42.98268" lon="0.54841">
        <ele>1082</ele>
        <time>2019-06-30T12:08:25.000Z</time>
      </trkpt>
      <trkpt lat="42.98268" lon="0.54841">
        <ele>1082</ele>
        <time>2019-06-30T12:08:27.000Z</time>
      </trkpt>
      <trkpt lat="42.98268" lon="0.5484">
        <ele>1082</ele>
        <time>2019-06-30T12:08:29.000Z</time>
      </trkpt>
      <trkpt lat="42.98267" lon="0.54839">
        <ele>1082</ele>
        <time>2019-06-30T12:08:31.000Z</time>
      </trkpt>
      <trkpt lat="42.98266" lon="0.54838">
        <ele>1083</ele>
        <time>2019-06-30T12:08:33.000Z</time>
      </trkpt>
      <trkpt lat="42.98265" lon="0.54837">
        <ele>1084</ele>
        <time>2019-06-30T12:08:35.000Z</time>
      </trkpt>
      <trkpt lat="42.98263" lon="0.54836">
        <ele>1085</ele>
        <time>2019-06-30T12:08:37.000Z</time>
      </trkpt>
      <trkpt lat="42.98262" lon="0.54834">
        <ele>1086</ele>
        <time>2019-06-30T12:08:39.000Z</time>
      </trkpt>
      <trkpt lat="42.98261" lon="0.54834">
        <ele>1086</ele>
        <time>2019-06-30T12:08:41.000Z</time>
      </trkpt>
      <trkpt lat="42.98262" lon="0.54833">
        <ele>1086</ele>
        <time>2019-06-30T12:08:43.000Z</time>
      </trkpt>
      <trkpt lat="42.98262" lon="0.54833">
        <ele>1086</ele>
        <time>2019-06-30T12:08:45.000Z</time>
      </trkpt>
      <trkpt lat="42.98262" lon="0.54833">
        <ele>1086</ele>
        <time>2019-06-30T12:08:47.000Z</time>
      </trkpt>
      <trkpt lat="42.98262" lon="0.54834">
        <ele>1086</ele>
        <time>2019-06-30T12:08:49.000Z</time>
      </trkpt>
      <trkpt lat="42.98262" lon="0.54835">
        <ele>1085</ele>
        <time>2019-06-30T12:08:51.000Z</time>
      </trkpt>
      <trkpt lat="42.98263" lon="0.54835">
        <ele>1085</ele>
        <time>2019-06-30T12:08:53.000Z</time>
      </trkpt>
      <trkpt lat="42.98262" lon="0.54835">
        <ele>1085</ele>
        <time>2019-06-30T12:08:55.000Z</time>
      </trkpt>
      <trkpt lat="42.98261" lon="0.54835">
        <ele>1086</ele>
        <time>2019-06-30T12:08:57.000Z</time>
      </trkpt>
      <trkpt lat="42.98261" lon="0.54835">
        <ele>1086</ele>
        <time>2019-06-30T12:08:59.000Z</time>
      </trkpt>
      <trkpt lat="42.9826" lon="0.54835">
        <ele>1086</ele>
        <time>2019-06-30T12:09:01.000Z</time>
      </trkpt>
      <trkpt lat="42.98258" lon="0.54835">
        <ele>1087</ele>
        <time>2019-06-30T12:09:03.000Z</time>
      </trkpt>
      <trkpt lat="42.98258" lon="0.54836">
        <ele>1087</ele>
        <time>2019-06-30T12:09:05.000Z</time>
      </trkpt>
      <trkpt lat="42.98258" lon="0.54837">
        <ele>1087</ele>
        <time>2019-06-30T12:09:07.000Z</time>
      </trkpt>
      <trkpt lat="42.98259" lon="0.54839">
        <ele>1086</ele>
        <time>2019-06-30T12:09:09.000Z</time>
      </trkpt>
      <trkpt lat="42.9826" lon="0.54839">
        <ele>1085</ele>
        <time>2019-06-30T12:09:11.000Z</time>
      </trkpt>
      <trkpt lat="42.98261" lon="0.54841">
        <ele>1084</ele>
        <time>2019-06-30T12:09:13.000Z</time>
      </trkpt>
      <trkpt lat="42.98262" lon="0.54843">
        <ele>1083</ele>
        <time>2019-06-30T12:09:15.000Z</time>
      </trkpt>
      <trkpt lat="42.98263" lon="0.54845">
        <ele>1082</ele>
        <time>2019-06-30T12:09:17.000Z</time>
      </trkpt>
      <trkpt lat="42.98262" lon="0.54845">
        <ele>1083</ele>
        <time>2019-06-30T12:09:19.000Z</time>
      </trkpt>
      <trkpt lat="42.98261" lon="0.54844">
        <ele>1083</ele>
        <time>2019-06-30T12:09:21.000Z</time>
      </trkpt>
      <trkpt lat="42.98261" lon="0.54842">
        <ele>1084</ele>
        <time>2019-06-30T12:09:23.000Z</time>
      </trkpt>
      <trkpt lat="42.98261" lon="0.54841">
        <ele>1084</ele>
        <time>2019-06-30T12:09:25.000Z</time>
      </trkpt>
      <trkpt lat="42.98261" lon="0.5484">
        <ele>1085</ele>
        <time>2019-06-30T12:09:27.000Z</time>
      </trkpt>
      <trkpt lat="42.9826" lon="0.54839">
        <ele>1085</ele>
        <time>2019-06-30T12:09:29.000Z</time>
      </trkpt>
      <trkpt lat="42.9826" lon="0.54839">
        <ele>1085</ele>
        <time>2019-06-30T12:09:31.000Z</time>
      </trkpt>
      <trkpt lat="42.98259" lon="0.54839">
        <ele>1086</ele>
        <time>2019-06-30T12:09:33.000Z</time>
      </trkpt>
      <trkpt lat="42.98258" lon="0.54838">
        <ele>1086</ele>
        <time>2019-06-30T12:09:35.000Z</time>
      </trkpt>
      <trkpt lat="42.98258" lon="0.54838">
        <ele>1086</ele>
        <time>2019-06-30T12:09:37.000Z</time>
      </trkpt>
      <trkpt lat="42.98259" lon="0.54838">
        <ele>1086</ele>
        <time>2019-06-30T12:09:39.000Z</time>
      </trkpt>
      <trkpt lat="42.98259" lon="0.54838">
        <ele>1086</ele>
        <time>2019-06-30T12:09:41.000Z</time>
      </trkpt>
      <trkpt lat="42.98258" lon="0.54838">
        <ele>1086</ele>
        <time>2019-06-30T12:09:43.000Z</time>
      </trkpt>
      <trkpt lat="42.98257" lon="0.54838">
        <ele>1086</ele>
        <time>2019-06-30T12:09:45.000Z</time>
      </trkpt>
      <trkpt lat="42.98257" lon="0.54838">
        <ele>1087</ele>
        <time>2019-06-30T12:09:47.000Z</time>
      </trkpt>
      <trkpt lat="42.98258" lon="0.54836">
        <ele>1087</ele>
        <time>2019-06-30T12:09:49.000Z</time>
      </trkpt>
      <trkpt lat="42.98258" lon="0.54836">
        <ele>1087</ele>
        <time>2019-06-30T12:09:51.000Z</time>
      </trkpt>
      <trkpt lat="42.98258" lon="0.54835">
        <ele>1087</ele>
        <time>2019-06-30T12:09:53.000Z</time>
      </trkpt>
      <trkpt lat="42.98257" lon="0.54835">
        <ele>1087</ele>
        <time>2019-06-30T12:09:55.000Z</time>
      </trkpt>
      <trkpt lat="42.98257" lon="0.54835">
        <ele>1087</ele>
        <time>2019-06-30T12:09:57.000Z</time>
      </trkpt>
      <trkpt lat="42.98257" lon="0.54836">
        <ele>1087</ele>
        <time>2019-06-30T12:09:59.000Z</time>
      </trkpt>
      <trkpt lat="42.98257" lon="0.54836">
        <ele>1087</ele>
        <time>2019-06-30T12:10:01.000Z</time>
      </trkpt>
      <trkpt lat="42.98257" lon="0.54837">
        <ele>1087</ele>
        <time>2019-06-30T12:10:03.000Z</time>
      </trkpt>
      <trkpt lat="42.98256" lon="0.54837">
        <ele>1087</ele>
        <time>2019-06-30T12:10:05.000Z</time>
      </trkpt>
      <trkpt lat="42.98256" lon="0.54837">
        <ele>1087</ele>
        <time>2019-06-30T12:10:07.000Z</time>
      </trkpt>
      <trkpt lat="42.98258" lon="0.54837">
        <ele>1087</ele>
        <time>2019-06-30T12:10:09.000Z</time>
      </trkpt>
      <trkpt lat="42.9826" lon="0.54838">
        <ele>1086</ele>
        <time>2019-06-30T12:10:11.000Z</time>
      </trkpt>
      <trkpt lat="42.98261" lon="0.54838">
        <ele>1085</ele>
        <time>2019-06-30T12:10:13.000Z</time>
      </trkpt>
      <trkpt lat="42.98262" lon="0.54838">
        <ele>1085</ele>
        <time>2019-06-30T12:10:15.000Z</time>
      </trkpt>
      <trkpt lat="42.98263" lon="0.54836">
        <ele>1085</ele>
        <time>2019-06-30T12:10:17.000Z</time>
      </trkpt>
      <trkpt lat="42.98264" lon="0.54834">
        <ele>1085</ele>
        <time>2019-06-30T12:10:19.000Z</time>
      </trkpt>
      <trkpt lat="42.98265" lon="0.54833">
        <ele>1085</ele>
        <time>2019-06-30T12:10:21.000Z</time>
      </trkpt>
      <trkpt lat="42.98265" lon="0.54831">
        <ele>1085</ele>
        <time>2019-06-30T12:10:23.000Z</time>
      </trkpt>
      <trkpt lat="42.98266" lon="0.54829">
        <ele>1086</ele>
        <time>2019-06-30T12:10:25.000Z</time>
      </trkpt>
      <trkpt lat="42.98266" lon="0.54827">
        <ele>1086</ele>
        <time>2019-06-30T12:10:27.000Z</time>
      </trkpt>
      <trkpt lat="42.98266" lon="0.54826">
        <ele>1086</ele>
        <time>2019-06-30T12:10:29.000Z</time>
      </trkpt>
      <trkpt lat="42.98267" lon="0.54825">
        <ele>1086</ele>
        <time>2019-06-30T12:10:31.000Z</time>
      </trkpt>
      <trkpt lat="42.98267" lon="0.54824">
        <ele>1086</ele>
        <time>2019-06-30T12:10:33.000Z</time>
      </trkpt>
      <trkpt lat="42.98268" lon="0.54823">
        <ele>1087</ele>
        <time>2019-06-30T12:10:35.000Z</time>
      </trkpt>
      <trkpt lat="42.98268" lon="0.54821">
        <ele>1087</ele>
        <time>2019-06-30T12:10:37.000Z</time>
      </trkpt>
      <trkpt lat="42.98269" lon="0.5482">
        <ele>1087</ele>
        <time>2019-06-30T12:10:39.000Z</time>
      </trkpt>
      <trkpt lat="42.98269" lon="0.54817">
        <ele>1088</ele>
        <time>2019-06-30T12:10:41.000Z</time>
      </trkpt>
      <trkpt lat="42.98269" lon="0.54815">
        <ele>1088</ele>
        <time>2019-06-30T12:10:43.000Z</time>
      </trkpt>
      <trkpt lat="42.9827" lon="0.54814">
        <ele>1088</ele>
        <time>2019-06-30T12:10:45.000Z</time>
      </trkpt>
      <trkpt lat="42.98272" lon="0.54813">
        <ele>1088</ele>
        <time>2019-06-30T12:10:47.000Z</time>
      </trkpt>
      <trkpt lat="42.98274" lon="0.54812">
        <ele>1087</ele>
        <time>2019-06-30T12:10:49.000Z</time>
      </trkpt>
      <trkpt lat="42.98277" lon="0.54812">
        <ele>1086</ele>
        <time>2019-06-30T12:10:51.000Z</time>
      </trkpt>
      <trkpt lat="42.9828" lon="0.54812">
        <ele>1085</ele>
        <time>2019-06-30T12:10:53.000Z</time>
      </trkpt>
      <trkpt lat="42.98282" lon="0.54811">
        <ele>1085</ele>
        <time>2019-06-30T12:10:55.000Z</time>
      </trkpt>
      <trkpt lat="42.98284" lon="0.5481">
        <ele>1084</ele>
        <time>2019-06-30T12:10:57.000Z</time>
      </trkpt>
      <trkpt lat="42.98286" lon="0.54809">
        <ele>1084</ele>
        <time>2019-06-30T12:10:59.000Z</time>
      </trkpt>
      <trkpt lat="42.98288" lon="0.54808">
        <ele>1083</ele>
        <time>2019-06-30T12:11:01.000Z</time>
      </trkpt>
      <trkpt lat="42.9829" lon="0.54807">
        <ele>1083</ele>
        <time>2019-06-30T12:11:03.000Z</time>
      </trkpt>
      <trkpt lat="42.98291" lon="0.54806">
        <ele>1083</ele>
        <time>2019-06-30T12:11:05.000Z</time>
      </trkpt>
      <trkpt lat="42.98294" lon="0.54806">
        <ele>1082</ele>
        <time>2019-06-30T12:11:07.000Z</time>
      </trkpt>
      <trkpt lat="42.98296" lon="0.54805">
        <ele>1081</ele>
        <time>2019-06-30T12:11:09.000Z</time>
      </trkpt>
      <trkpt lat="42.98297" lon="0.54803">
        <ele>1081</ele>
        <time>2019-06-30T12:11:11.000Z</time>
      </trkpt>
      <trkpt lat="42.98298" lon="0.54801">
        <ele>1082</ele>
        <time>2019-06-30T12:11:13.000Z</time>
      </trkpt>
      <trkpt lat="42.98299" lon="0.54799">
        <ele>1082</ele>
        <time>2019-06-30T12:11:15.000Z</time>
      </trkpt>
      <trkpt lat="42.98299" lon="0.54798">
        <ele>1082</ele>
        <time>2019-06-30T12:11:17.000Z</time>
      </trkpt>
      <trkpt lat="42.983" lon="0.54799">
        <ele>1082</ele>
        <time>2019-06-30T12:11:19.000Z</time>
      </trkpt>
      <trkpt lat="42.983" lon="0.54799">
        <ele>1081</ele>
        <time>2019-06-30T12:11:21.000Z</time>
      </trkpt>
      <trkpt lat="42.983" lon="0.54801">
        <ele>1081</ele>
        <time>2019-06-30T12:11:23.000Z</time>
      </trkpt>
      <trkpt lat="42.98299" lon="0.54803">
        <ele>1081</ele>
        <time>2019-06-30T12:11:25.000Z</time>
      </trkpt>
      <trkpt lat="42.98299" lon="0.54804">
        <ele>1080</ele>
        <time>2019-06-30T12:11:27.000Z</time>
      </trkpt>
      <trkpt lat="42.98298" lon="0.54806">
        <ele>1080</ele>
        <time>2019-06-30T12:11:29.000Z</time>
      </trkpt>
      <trkpt lat="42.98298" lon="0.54807">
        <ele>1080</ele>
        <time>2019-06-30T12:11:31.000Z</time>
      </trkpt>
      <trkpt lat="42.98296" lon="0.5481">
        <ele>1080</ele>
        <time>2019-06-30T12:11:33.000Z</time>
      </trkpt>
      <trkpt lat="42.98294" lon="0.54811">
        <ele>1080</ele>
        <time>2019-06-30T12:11:35.000Z</time>
      </trkpt>
      <trkpt lat="42.98293" lon="0.54813">
        <ele>1080</ele>
        <time>2019-06-30T12:11:37.000Z</time>
      </trkpt>
      <trkpt lat="42.98293" lon="0.54816">
        <ele>1079</ele>
        <time>2019-06-30T12:11:39.000Z</time>
      </trkpt>
      <trkpt lat="42.98293" lon="0.54818">
        <ele>1079</ele>
        <time>2019-06-30T12:11:41.000Z</time>
      </trkpt>
      <trkpt lat="42.98293" lon="0.54822">
        <ele>1078</ele>
        <time>2019-06-30T12:11:43.000Z</time>
      </trkpt>
      <trkpt lat="42.98294" lon="0.54825">
        <ele>1076</ele>
        <time>2019-06-30T12:11:45.000Z</time>
      </trkpt>
      <trkpt lat="42.98295" lon="0.54828">
        <ele>1075</ele>
        <time>2019-06-30T12:11:47.000Z</time>
      </trkpt>
      <trkpt lat="42.98295" lon="0.54831">
        <ele>1074</ele>
        <time>2019-06-30T12:11:49.000Z</time>
      </trkpt>
      <trkpt lat="42.98295" lon="0.54834">
        <ele>1074</ele>
        <time>2019-06-30T12:11:51.000Z</time>
      </trkpt>
      <trkpt lat="42.98294" lon="0.54836">
        <ele>1073</ele>
        <time>2019-06-30T12:11:53.000Z</time>
      </trkpt>
      <trkpt lat="42.98293" lon="0.54838">
        <ele>1073</ele>
        <time>2019-06-30T12:11:55.000Z</time>
      </trkpt>
      <trkpt lat="42.98292" lon="0.54841">
        <ele>1073</ele>
        <time>2019-06-30T12:11:57.000Z</time>
      </trkpt>
      <trkpt lat="42.98292" lon="0.54844">
        <ele>1072</ele>
        <time>2019-06-30T12:11:59.000Z</time>
      </trkpt>
      <trkpt lat="42.98292" lon="0.54846">
        <ele>1071</ele>
        <time>2019-06-30T12:12:01.000Z</time>
      </trkpt>
      <trkpt lat="42.98291" lon="0.54849">
        <ele>1071</ele>
        <time>2019-06-30T12:12:03.000Z</time>
      </trkpt>
      <trkpt lat="42.98291" lon="0.54855">
        <ele>1070</ele>
        <time>2019-06-30T12:12:05.000Z</time>
      </trkpt>
      <trkpt lat="42.9829" lon="0.54858">
        <ele>1069</ele>
        <time>2019-06-30T12:12:07.000Z</time>
      </trkpt>
      <trkpt lat="42.9829" lon="0.5486">
        <ele>1069</ele>
        <time>2019-06-30T12:12:09.000Z</time>
      </trkpt>
      <trkpt lat="42.9829" lon="0.54863">
        <ele>1068</ele>
        <time>2019-06-30T12:12:11.000Z</time>
      </trkpt>
      <trkpt lat="42.9829" lon="0.54866">
        <ele>1067</ele>
        <time>2019-06-30T12:12:13.000Z</time>
      </trkpt>
      <trkpt lat="42.9829" lon="0.54869">
        <ele>1066</ele>
        <time>2019-06-30T12:12:15.000Z</time>
      </trkpt>
      <trkpt lat="42.98289" lon="0.54872">
        <ele>1066</ele>
        <time>2019-06-30T12:12:17.000Z</time>
      </trkpt>
      <trkpt lat="42.98289" lon="0.54876">
        <ele>1065</ele>
        <time>2019-06-30T12:12:19.000Z</time>
      </trkpt>
      <trkpt lat="42.98289" lon="0.54878">
        <ele>1064</ele>
        <time>2019-06-30T12:12:21.000Z</time>
      </trkpt>
      <trkpt lat="42.9829" lon="0.5488">
        <ele>1063</ele>
        <time>2019-06-30T12:12:23.000Z</time>
      </trkpt>
      <trkpt lat="42.98292" lon="0.54883">
        <ele>1062</ele>
        <time>2019-06-30T12:12:25.000Z</time>
      </trkpt>
      <trkpt lat="42.98292" lon="0.54887">
        <ele>1061</ele>
        <time>2019-06-30T12:12:27.000Z</time>
      </trkpt>
      <trkpt lat="42.98292" lon="0.54889">
        <ele>1060</ele>
        <time>2019-06-30T12:12:29.000Z</time>
      </trkpt>
      <trkpt lat="42.98293" lon="0.54892">
        <ele>1059</ele>
        <time>2019-06-30T12:12:31.000Z</time>
      </trkpt>
      <trkpt lat="42.98294" lon="0.54896">
        <ele>1057</ele>
        <time>2019-06-30T12:12:33.000Z</time>
      </trkpt>
      <trkpt lat="42.98295" lon="0.54899">
        <ele>1056</ele>
        <time>2019-06-30T12:12:35.000Z</time>
      </trkpt>
      <trkpt lat="42.98295" lon="0.54902">
        <ele>1055</ele>
        <time>2019-06-30T12:12:37.000Z</time>
      </trkpt>
      <trkpt lat="42.98293" lon="0.54905">
        <ele>1055</ele>
        <time>2019-06-30T12:12:39.000Z</time>
      </trkpt>
      <trkpt lat="42.98293" lon="0.54908">
        <ele>1054</ele>
        <time>2019-06-30T12:12:41.000Z</time>
      </trkpt>
      <trkpt lat="42.98292" lon="0.54911">
        <ele>1054</ele>
        <time>2019-06-30T12:12:43.000Z</time>
      </trkpt>
      <trkpt lat="42.9829" lon="0.54915">
        <ele>1054</ele>
        <time>2019-06-30T12:12:45.000Z</time>
      </trkpt>
      <trkpt lat="42.98289" lon="0.54917">
        <ele>1053</ele>
        <time>2019-06-30T12:12:47.000Z</time>
      </trkpt>
      <trkpt lat="42.98288" lon="0.54919">
        <ele>1053</ele>
        <time>2019-06-30T12:12:49.000Z</time>
      </trkpt>
      <trkpt lat="42.98288" lon="0.54923">
        <ele>1052</ele>
        <time>2019-06-30T12:12:51.000Z</time>
      </trkpt>
      <trkpt lat="42.98287" lon="0.54926">
        <ele>1051</ele>
        <time>2019-06-30T12:12:53.000Z</time>
      </trkpt>
      <trkpt lat="42.98286" lon="0.54929">
        <ele>1050</ele>
        <time>2019-06-30T12:12:55.000Z</time>
      </trkpt>
      <trkpt lat="42.98286" lon="0.54933">
        <ele>1049</ele>
        <time>2019-06-30T12:12:57.000Z</time>
      </trkpt>
      <trkpt lat="42.98284" lon="0.54935">
        <ele>1049</ele>
        <time>2019-06-30T12:12:59.000Z</time>
      </trkpt>
      <trkpt lat="42.98282" lon="0.54938">
        <ele>1049</ele>
        <time>2019-06-30T12:13:01.000Z</time>
      </trkpt>
      <trkpt lat="42.98281" lon="0.54941">
        <ele>1048</ele>
        <time>2019-06-30T12:13:03.000Z</time>
      </trkpt>
      <trkpt lat="42.98279" lon="0.54944">
        <ele>1048</ele>
        <time>2019-06-30T12:13:05.000Z</time>
      </trkpt>
      <trkpt lat="42.98277" lon="0.54948">
        <ele>1047</ele>
        <time>2019-06-30T12:13:07.000Z</time>
      </trkpt>
      <trkpt lat="42.98274" lon="0.5495">
        <ele>1047</ele>
        <time>2019-06-30T12:13:09.000Z</time>
      </trkpt>
      <trkpt lat="42.98272" lon="0.54954">
        <ele>1047</ele>
        <time>2019-06-30T12:13:11.000Z</time>
      </trkpt>
      <trkpt lat="42.98272" lon="0.54956">
        <ele>1046</ele>
        <time>2019-06-30T12:13:13.000Z</time>
      </trkpt>
      <trkpt lat="42.98271" lon="0.54959">
        <ele>1046</ele>
        <time>2019-06-30T12:13:15.000Z</time>
      </trkpt>
      <trkpt lat="42.98268" lon="0.54962">
        <ele>1045</ele>
        <time>2019-06-30T12:13:17.000Z</time>
      </trkpt>
      <trkpt lat="42.98267" lon="0.54965">
        <ele>1045</ele>
        <time>2019-06-30T12:13:19.000Z</time>
      </trkpt>
      <trkpt lat="42.98265" lon="0.54968">
        <ele>1045</ele>
        <time>2019-06-30T12:13:21.000Z</time>
      </trkpt>
      <trkpt lat="42.98263" lon="0.5497">
        <ele>1045</ele>
        <time>2019-06-30T12:13:23.000Z</time>
      </trkpt>
      <trkpt lat="42.98261" lon="0.54973">
        <ele>1044</ele>
        <time>2019-06-30T12:13:25.000Z</time>
      </trkpt>
      <trkpt lat="42.98258" lon="0.54975">
        <ele>1044</ele>
        <time>2019-06-30T12:13:27.000Z</time>
      </trkpt>
      <trkpt lat="42.98255" lon="0.54975">
        <ele>1044</ele>
        <time>2019-06-30T12:13:29.000Z</time>
      </trkpt>
      <trkpt lat="42.98253" lon="0.54976">
        <ele>1045</ele>
        <time>2019-06-30T12:13:31.000Z</time>
      </trkpt>
      <trkpt lat="42.98251" lon="0.54977">
        <ele>1045</ele>
        <time>2019-06-30T12:13:33.000Z</time>
      </trkpt>
      <trkpt lat="42.98249" lon="0.54978">
        <ele>1045</ele>
        <time>2019-06-30T12:13:35.000Z</time>
      </trkpt>
      <trkpt lat="42.98247" lon="0.5498">
        <ele>1045</ele>
        <time>2019-06-30T12:13:37.000Z</time>
      </trkpt>
      <trkpt lat="42.98246" lon="0.54981">
        <ele>1044</ele>
        <time>2019-06-30T12:13:39.000Z</time>
      </trkpt>
      <trkpt lat="42.98247" lon="0.54983">
        <ele>1043</ele>
        <time>2019-06-30T12:13:41.000Z</time>
      </trkpt>
      <trkpt lat="42.98247" lon="0.54983">
        <ele>1043</ele>
        <time>2019-06-30T12:13:43.000Z</time>
      </trkpt>
      <trkpt lat="42.98249" lon="0.54982">
        <ele>1043</ele>
        <time>2019-06-30T12:13:45.000Z</time>
      </trkpt>
      <trkpt lat="42.98252" lon="0.54981">
        <ele>1043</ele>
        <time>2019-06-30T12:13:47.000Z</time>
      </trkpt>
      <trkpt lat="42.98254" lon="0.54981">
        <ele>1042</ele>
        <time>2019-06-30T12:13:49.000Z</time>
      </trkpt>
      <trkpt lat="42.98258" lon="0.5498">
        <ele>1042</ele>
        <time>2019-06-30T12:13:51.000Z</time>
      </trkpt>
      <trkpt lat="42.9826" lon="0.5498">
        <ele>1041</ele>
        <time>2019-06-30T12:13:53.000Z</time>
      </trkpt>
      <trkpt lat="42.98262" lon="0.5498">
        <ele>1040</ele>
        <time>2019-06-30T12:13:55.000Z</time>
      </trkpt>
      <trkpt lat="42.98265" lon="0.54979">
        <ele>1040</ele>
        <time>2019-06-30T12:13:57.000Z</time>
      </trkpt>
      <trkpt lat="42.98266" lon="0.54979">
        <ele>1040</ele>
        <time>2019-06-30T12:13:59.000Z</time>
      </trkpt>
      <trkpt lat="42.98269" lon="0.54978">
        <ele>1039</ele>
        <time>2019-06-30T12:14:01.000Z</time>
      </trkpt>
      <trkpt lat="42.98271" lon="0.54977">
        <ele>1039</ele>
        <time>2019-06-30T12:14:03.000Z</time>
      </trkpt>
      <trkpt lat="42.98273" lon="0.54977">
        <ele>1038</ele>
        <time>2019-06-30T12:14:05.000Z</time>
      </trkpt>
      <trkpt lat="42.98276" lon="0.54977">
        <ele>1038</ele>
        <time>2019-06-30T12:14:07.000Z</time>
      </trkpt>
      <trkpt lat="42.98278" lon="0.54977">
        <ele>1037</ele>
        <time>2019-06-30T12:14:09.000Z</time>
      </trkpt>
      <trkpt lat="42.98279" lon="0.54976">
        <ele>1037</ele>
        <time>2019-06-30T12:14:11.000Z</time>
      </trkpt>
      <trkpt lat="42.9828" lon="0.54975">
        <ele>1037</ele>
        <time>2019-06-30T12:14:13.000Z</time>
      </trkpt>
      <trkpt lat="42.98281" lon="0.54975">
        <ele>1037</ele>
        <time>2019-06-30T12:14:15.000Z</time>
      </trkpt>
      <trkpt lat="42.98283" lon="0.54974">
        <ele>1037</ele>
        <time>2019-06-30T12:14:17.000Z</time>
      </trkpt>
      <trkpt lat="42.98284" lon="0.54971">
        <ele>1037</ele>
        <time>2019-06-30T12:14:19.000Z</time>
      </trkpt>
      <trkpt lat="42.98285" lon="0.5497">
        <ele>1037</ele>
        <time>2019-06-30T12:14:21.000Z</time>
      </trkpt>
      <trkpt lat="42.98286" lon="0.54969">
        <ele>1037</ele>
        <time>2019-06-30T12:14:23.000Z</time>
      </trkpt>
      <trkpt lat="42.98287" lon="0.54967">
        <ele>1038</ele>
        <time>2019-06-30T12:14:25.000Z</time>
      </trkpt>
      <trkpt lat="42.98288" lon="0.54966">
        <ele>1038</ele>
        <time>2019-06-30T12:14:27.000Z</time>
      </trkpt>
      <trkpt lat="42.98289" lon="0.54965">
        <ele>1038</ele>
        <time>2019-06-30T12:14:29.000Z</time>
      </trkpt>
      <trkpt lat="42.98291" lon="0.54965">
        <ele>1037</ele>
        <time>2019-06-30T12:14:31.000Z</time>
      </trkpt>
      <trkpt lat="42.98292" lon="0.54964">
        <ele>1037</ele>
        <time>2019-06-30T12:14:33.000Z</time>
      </trkpt>
      <trkpt lat="42.98292" lon="0.54962">
        <ele>1038</ele>
        <time>2019-06-30T12:14:35.000Z</time>
      </trkpt>
      <trkpt lat="42.98293" lon="0.54959">
        <ele>1038</ele>
        <time>2019-06-30T12:14:37.000Z</time>
      </trkpt>
      <trkpt lat="42.98294" lon="0.54957">
        <ele>1039</ele>
        <time>2019-06-30T12:14:39.000Z</time>
      </trkpt>
      <trkpt lat="42.98296" lon="0.54956">
        <ele>1039</ele>
        <time>2019-06-30T12:14:41.000Z</time>
      </trkpt>
      <trkpt lat="42.98298" lon="0.54953">
        <ele>1039</ele>
        <time>2019-06-30T12:14:43.000Z</time>
      </trkpt>
      <trkpt lat="42.98299" lon="0.54951">
        <ele>1039</ele>
        <time>2019-06-30T12:14:45.000Z</time>
      </trkpt>
      <trkpt lat="42.98301" lon="0.54949">
        <ele>1039</ele>
        <time>2019-06-30T12:14:47.000Z</time>
      </trkpt>
      <trkpt lat="42.98303" lon="0.54946">
        <ele>1040</ele>
        <time>2019-06-30T12:14:49.000Z</time>
      </trkpt>
      <trkpt lat="42.98305" lon="0.54943">
        <ele>1040</ele>
        <time>2019-06-30T12:14:51.000Z</time>
      </trkpt>
      <trkpt lat="42.98306" lon="0.54941">
        <ele>1040</ele>
        <time>2019-06-30T12:14:53.000Z</time>
      </trkpt>
      <trkpt lat="42.98308" lon="0.54938">
        <ele>1040</ele>
        <time>2019-06-30T12:14:55.000Z</time>
      </trkpt>
      <trkpt lat="42.98309" lon="0.54936">
        <ele>1041</ele>
        <time>2019-06-30T12:14:57.000Z</time>
      </trkpt>
      <trkpt lat="42.98311" lon="0.54934">
        <ele>1041</ele>
        <time>2019-06-30T12:14:59.000Z</time>
      </trkpt>
      <trkpt lat="42.98313" lon="0.54933">
        <ele>1040</ele>
        <time>2019-06-30T12:15:01.000Z</time>
      </trkpt>
      <trkpt lat="42.98315" lon="0.54932">
        <ele>1040</ele>
        <time>2019-06-30T12:15:03.000Z</time>
      </trkpt>
      <trkpt lat="42.98317" lon="0.5493">
        <ele>1039</ele>
        <time>2019-06-30T12:15:05.000Z</time>
      </trkpt>
      <trkpt lat="42.98319" lon="0.54927">
        <ele>1040</ele>
        <time>2019-06-30T12:15:07.000Z</time>
      </trkpt>
      <trkpt lat="42.9832" lon="0.54925">
        <ele>1040</ele>
        <time>2019-06-30T12:15:09.000Z</time>
      </trkpt>
      <trkpt lat="42.98323" lon="0.54923">
        <ele>1039</ele>
        <time>2019-06-30T12:15:11.000Z</time>
      </trkpt>
      <trkpt lat="42.98325" lon="0.54922">
        <ele>1039</ele>
        <time>2019-06-30T12:15:13.000Z</time>
      </trkpt>
      <trkpt lat="42.98327" lon="0.54921">
        <ele>1038</ele>
        <time>2019-06-30T12:15:15.000Z</time>
      </trkpt>
      <trkpt lat="42.98329" lon="0.54919">
        <ele>1038</ele>
        <time>2019-06-30T12:15:17.000Z</time>
      </trkpt>
      <trkpt lat="42.98332" lon="0.54917">
        <ele>1038</ele>
        <time>2019-06-30T12:15:19.000Z</time>
      </trkpt>
      <trkpt lat="42.98334" lon="0.54915">
        <ele>1037</ele>
        <time>2019-06-30T12:15:21.000Z</time>
      </trkpt>
      <trkpt lat="42.98338" lon="0.54913">
        <ele>1036</ele>
        <time>2019-06-30T12:15:23.000Z</time>
      </trkpt>
      <trkpt lat="42.98341" lon="0.54912">
        <ele>1036</ele>
        <time>2019-06-30T12:15:25.000Z</time>
      </trkpt>
      <trkpt lat="42.98342" lon="0.54911">
        <ele>1036</ele>
        <time>2019-06-30T12:15:27.000Z</time>
      </trkpt>
      <trkpt lat="42.98343" lon="0.54908">
        <ele>1036</ele>
        <time>2019-06-30T12:15:29.000Z</time>
      </trkpt>
      <trkpt lat="42.98345" lon="0.54906">
        <ele>1036</ele>
        <time>2019-06-30T12:15:31.000Z</time>
      </trkpt>
      <trkpt lat="42.98346" lon="0.54905">
        <ele>1036</ele>
        <time>2019-06-30T12:15:33.000Z</time>
      </trkpt>
      <trkpt lat="42.98347" lon="0.54904">
        <ele>1036</ele>
        <time>2019-06-30T12:15:35.000Z</time>
      </trkpt>
      <trkpt lat="42.98349" lon="0.54903">
        <ele>1035</ele>
        <time>2019-06-30T12:15:37.000Z</time>
      </trkpt>
      <trkpt lat="42.98352" lon="0.54903">
        <ele>1035</ele>
        <time>2019-06-30T12:15:39.000Z</time>
      </trkpt>
      <trkpt lat="42.98356" lon="0.54902">
        <ele>1033</ele>
        <time>2019-06-30T12:15:41.000Z</time>
      </trkpt>
      <trkpt lat="42.98359" lon="0.54901">
        <ele>1033</ele>
        <time>2019-06-30T12:15:43.000Z</time>
      </trkpt>
      <trkpt lat="42.98362" lon="0.54901">
        <ele>1032</ele>
        <time>2019-06-30T12:15:45.000Z</time>
      </trkpt>
      <trkpt lat="42.98366" lon="0.549">
        <ele>1031</ele>
        <time>2019-06-30T12:15:47.000Z</time>
      </trkpt>
      <trkpt lat="42.98369" lon="0.54898">
        <ele>1031</ele>
        <time>2019-06-30T12:15:49.000Z</time>
      </trkpt>
      <trkpt lat="42.98372" lon="0.54897">
        <ele>1031</ele>
        <time>2019-06-30T12:15:51.000Z</time>
      </trkpt>
      <trkpt lat="42.98375" lon="0.54896">
        <ele>1030</ele>
        <time>2019-06-30T12:15:53.000Z</time>
      </trkpt>
      <trkpt lat="42.98377" lon="0.54895">
        <ele>1029</ele>
        <time>2019-06-30T12:15:55.000Z</time>
      </trkpt>
      <trkpt lat="42.98378" lon="0.54894">
        <ele>1030</ele>
        <time>2019-06-30T12:15:57.000Z</time>
      </trkpt>
      <trkpt lat="42.9838" lon="0.54894">
        <ele>1029</ele>
        <time>2019-06-30T12:15:59.000Z</time>
      </trkpt>
      <trkpt lat="42.98382" lon="0.54894">
        <ele>1028</ele>
        <time>2019-06-30T12:16:01.000Z</time>
      </trkpt>
      <trkpt lat="42.98384" lon="0.54893">
        <ele>1028</ele>
        <time>2019-06-30T12:16:03.000Z</time>
      </trkpt>
      <trkpt lat="42.98385" lon="0.54892">
        <ele>1028</ele>
        <time>2019-06-30T12:16:05.000Z</time>
      </trkpt>
      <trkpt lat="42.98387" lon="0.54891">
        <ele>1028</ele>
        <time>2019-06-30T12:16:07.000Z</time>
      </trkpt>
      <trkpt lat="42.98388" lon="0.54889">
        <ele>1028</ele>
        <time>2019-06-30T12:16:09.000Z</time>
      </trkpt>
      <trkpt lat="42.98389" lon="0.54887">
        <ele>1028</ele>
        <time>2019-06-30T12:16:11.000Z</time>
      </trkpt>
      <trkpt lat="42.98391" lon="0.54886">
        <ele>1028</ele>
        <time>2019-06-30T12:16:13.000Z</time>
      </trkpt>
      <trkpt lat="42.98392" lon="0.54885">
        <ele>1028</ele>
        <time>2019-06-30T12:16:15.000Z</time>
      </trkpt>
      <trkpt lat="42.98392" lon="0.54884">
        <ele>1028</ele>
        <time>2019-06-30T12:16:17.000Z</time>
      </trkpt>
      <trkpt lat="42.98394" lon="0.54883">
        <ele>1028</ele>
        <time>2019-06-30T12:16:19.000Z</time>
      </trkpt>
      <trkpt lat="42.98397" lon="0.54884">
        <ele>1027</ele>
        <time>2019-06-30T12:16:21.000Z</time>
      </trkpt>
      <trkpt lat="42.98401" lon="0.54884">
        <ele>1026</ele>
        <time>2019-06-30T12:16:23.000Z</time>
      </trkpt>
      <trkpt lat="42.98403" lon="0.54885">
        <ele>1025</ele>
        <time>2019-06-30T12:16:25.000Z</time>
      </trkpt>
      <trkpt lat="42.98407" lon="0.54885">
        <ele>1024</ele>
        <time>2019-06-30T12:16:27.000Z</time>
      </trkpt>
      <trkpt lat="42.98409" lon="0.54885">
        <ele>1024</ele>
        <time>2019-06-30T12:16:29.000Z</time>
      </trkpt>
      <trkpt lat="42.98411" lon="0.54884">
        <ele>1023</ele>
        <time>2019-06-30T12:16:31.000Z</time>
      </trkpt>
      <trkpt lat="42.98414" lon="0.54885">
        <ele>1022</ele>
        <time>2019-06-30T12:16:33.000Z</time>
      </trkpt>
      <trkpt lat="42.98417" lon="0.54887">
        <ele>1020</ele>
        <time>2019-06-30T12:16:35.000Z</time>
      </trkpt>
      <trkpt lat="42.98421" lon="0.54888">
        <ele>1019</ele>
        <time>2019-06-30T12:16:37.000Z</time>
      </trkpt>
      <trkpt lat="42.98423" lon="0.54887">
        <ele>1019</ele>
        <time>2019-06-30T12:16:39.000Z</time>
      </trkpt>
      <trkpt lat="42.98425" lon="0.54887">
        <ele>1018</ele>
        <time>2019-06-30T12:16:41.000Z</time>
      </trkpt>
      <trkpt lat="42.98429" lon="0.54886">
        <ele>1018</ele>
        <time>2019-06-30T12:16:43.000Z</time>
      </trkpt>
      <trkpt lat="42.98431" lon="0.54887">
        <ele>1017</ele>
        <time>2019-06-30T12:16:45.000Z</time>
      </trkpt>
      <trkpt lat="42.98434" lon="0.54888">
        <ele>1016</ele>
        <time>2019-06-30T12:16:47.000Z</time>
      </trkpt>
      <trkpt lat="42.98437" lon="0.54889">
        <ele>1015</ele>
        <time>2019-06-30T12:16:49.000Z</time>
      </trkpt>
      <trkpt lat="42.9844" lon="0.54891">
        <ele>1014</ele>
        <time>2019-06-30T12:16:51.000Z</time>
      </trkpt>
      <trkpt lat="42.98445" lon="0.54893">
        <ele>1013</ele>
        <time>2019-06-30T12:16:53.000Z</time>
      </trkpt>
      <trkpt lat="42.98448" lon="0.54893">
        <ele>1012</ele>
        <time>2019-06-30T12:16:55.000Z</time>
      </trkpt>
      <trkpt lat="42.98451" lon="0.54893">
        <ele>1012</ele>
        <time>2019-06-30T12:16:57.000Z</time>
      </trkpt>
      <trkpt lat="42.98453" lon="0.54893">
        <ele>1011</ele>
        <time>2019-06-30T12:16:59.000Z</time>
      </trkpt>
      <trkpt lat="42.98456" lon="0.54894">
        <ele>1010</ele>
        <time>2019-06-30T12:17:01.000Z</time>
      </trkpt>
      <trkpt lat="42.98458" lon="0.54894">
        <ele>1010</ele>
        <time>2019-06-30T12:17:03.000Z</time>
      </trkpt>
      <trkpt lat="42.9846" lon="0.54894">
        <ele>1010</ele>
        <time>2019-06-30T12:17:05.000Z</time>
      </trkpt>
      <trkpt lat="42.98462" lon="0.54894">
        <ele>1009</ele>
        <time>2019-06-30T12:17:07.000Z</time>
      </trkpt>
      <trkpt lat="42.98463" lon="0.54892">
        <ele>1010</ele>
        <time>2019-06-30T12:17:09.000Z</time>
      </trkpt>
      <trkpt lat="42.98465" lon="0.54892">
        <ele>1010</ele>
        <time>2019-06-30T12:17:11.000Z</time>
      </trkpt>
      <trkpt lat="42.98466" lon="0.54892">
        <ele>1009</ele>
        <time>2019-06-30T12:17:13.000Z</time>
      </trkpt>
      <trkpt lat="42.98468" lon="0.54891">
        <ele>1009</ele>
        <time>2019-06-30T12:17:15.000Z</time>
      </trkpt>
      <trkpt lat="42.98469" lon="0.54891">
        <ele>1009</ele>
        <time>2019-06-30T12:17:17.000Z</time>
      </trkpt>
      <trkpt lat="42.9847" lon="0.5489">
        <ele>1009</ele>
        <time>2019-06-30T12:17:19.000Z</time>
      </trkpt>
      <trkpt lat="42.98472" lon="0.5489">
        <ele>1009</ele>
        <time>2019-06-30T12:17:21.000Z</time>
      </trkpt>
      <trkpt lat="42.98475" lon="0.54891">
        <ele>1008</ele>
        <time>2019-06-30T12:17:23.000Z</time>
      </trkpt>
      <trkpt lat="42.98477" lon="0.54893">
        <ele>1007</ele>
        <time>2019-06-30T12:17:25.000Z</time>
      </trkpt>
      <trkpt lat="42.98479" lon="0.54893">
        <ele>1007</ele>
        <time>2019-06-30T12:17:27.000Z</time>
      </trkpt>
      <trkpt lat="42.98482" lon="0.54894">
        <ele>1006</ele>
        <time>2019-06-30T12:17:29.000Z</time>
      </trkpt>
      <trkpt lat="42.98484" lon="0.54894">
        <ele>1006</ele>
        <time>2019-06-30T12:17:31.000Z</time>
      </trkpt>
      <trkpt lat="42.98487" lon="0.54895">
        <ele>1005</ele>
        <time>2019-06-30T12:17:33.000Z</time>
      </trkpt>
      <trkpt lat="42.98489" lon="0.54897">
        <ele>1004</ele>
        <time>2019-06-30T12:17:35.000Z</time>
      </trkpt>
      <trkpt lat="42.98491" lon="0.54897">
        <ele>1003</ele>
        <time>2019-06-30T12:17:37.000Z</time>
      </trkpt>
      <trkpt lat="42.98493" lon="0.54898">
        <ele>1003</ele>
        <time>2019-06-30T12:17:39.000Z</time>
      </trkpt>
      <trkpt lat="42.98494" lon="0.54899">
        <ele>1002</ele>
        <time>2019-06-30T12:17:41.000Z</time>
      </trkpt>
      <trkpt lat="42.98496" lon="0.54899">
        <ele>1002</ele>
        <time>2019-06-30T12:17:43.000Z</time>
      </trkpt>
      <trkpt lat="42.98499" lon="0.54898">
        <ele>1002</ele>
        <time>2019-06-30T12:17:45.000Z</time>
      </trkpt>
      <trkpt lat="42.98502" lon="0.54897">
        <ele>1002</ele>
        <time>2019-06-30T12:17:47.000Z</time>
      </trkpt>
      <trkpt lat="42.98503" lon="0.54895">
        <ele>1002</ele>
        <time>2019-06-30T12:17:49.000Z</time>
      </trkpt>
      <trkpt lat="42.98505" lon="0.54895">
        <ele>1002</ele>
        <time>2019-06-30T12:17:51.000Z</time>
      </trkpt>
      <trkpt lat="42.98507" lon="0.54894">
        <ele>1002</ele>
        <time>2019-06-30T12:17:53.000Z</time>
      </trkpt>
      <trkpt lat="42.98509" lon="0.54894">
        <ele>1001</ele>
        <time>2019-06-30T12:17:55.000Z</time>
      </trkpt>
      <trkpt lat="42.98511" lon="0.54895">
        <ele>1001</ele>
        <time>2019-06-30T12:17:57.000Z</time>
      </trkpt>
      <trkpt lat="42.98512" lon="0.54895">
        <ele>1000</ele>
        <time>2019-06-30T12:17:59.000Z</time>
      </trkpt>
      <trkpt lat="42.98513" lon="0.54895">
        <ele>1000</ele>
        <time>2019-06-30T12:18:01.000Z</time>
      </trkpt>
      <trkpt lat="42.98514" lon="0.54894">
        <ele>1001</ele>
        <time>2019-06-30T12:18:03.000Z</time>
      </trkpt>
      <trkpt lat="42.98514" lon="0.54893">
        <ele>1001</ele>
        <time>2019-06-30T12:18:05.000Z</time>
      </trkpt>
      <trkpt lat="42.98514" lon="0.54893">
        <ele>1001</ele>
        <time>2019-06-30T12:18:07.000Z</time>
      </trkpt>
      <trkpt lat="42.98514" lon="0.54892">
        <ele>1001</ele>
        <time>2019-06-30T12:18:09.000Z</time>
      </trkpt>
      <trkpt lat="42.98514" lon="0.54892">
        <ele>1001</ele>
        <time>2019-06-30T12:18:11.000Z</time>
      </trkpt>
      <trkpt lat="42.98515" lon="0.54891">
        <ele>1001</ele>
        <time>2019-06-30T12:18:13.000Z</time>
      </trkpt>
      <trkpt lat="42.98516" lon="0.5489">
        <ele>1002</ele>
        <time>2019-06-30T12:18:15.000Z</time>
      </trkpt>
      <trkpt lat="42.98518" lon="0.54889">
        <ele>1002</ele>
        <time>2019-06-30T12:18:17.000Z</time>
      </trkpt>
      <trkpt lat="42.9852" lon="0.54888">
        <ele>1002</ele>
        <time>2019-06-30T12:18:19.000Z</time>
      </trkpt>
      <trkpt lat="42.98522" lon="0.54888">
        <ele>1003</ele>
        <time>2019-06-30T12:18:21.000Z</time>
      </trkpt>
      <trkpt lat="42.98523" lon="0.54887">
        <ele>1003</ele>
        <time>2019-06-30T12:18:23.000Z</time>
      </trkpt>
      <trkpt lat="42.98524" lon="0.54887">
        <ele>1003</ele>
        <time>2019-06-30T12:18:25.000Z</time>
      </trkpt>
      <trkpt lat="42.98523" lon="0.54887">
        <ele>1003</ele>
        <time>2019-06-30T12:18:27.000Z</time>
      </trkpt>
      <trkpt lat="42.98523" lon="0.54888">
        <ele>1002</ele>
        <time>2019-06-30T12:18:29.000Z</time>
      </trkpt>
      <trkpt lat="42.98523" lon="0.54888">
        <ele>1003</ele>
        <time>2019-06-30T12:18:31.000Z</time>
      </trkpt>
      <trkpt lat="42.98524" lon="0.5489">
        <ele>1001</ele>
        <time>2019-06-30T12:18:33.000Z</time>
      </trkpt>
      <trkpt lat="42.98524" lon="0.54891">
        <ele>1001</ele>
        <time>2019-06-30T12:18:35.000Z</time>
      </trkpt>
      <trkpt lat="42.98522" lon="0.5489">
        <ele>1002</ele>
        <time>2019-06-30T12:18:37.000Z</time>
      </trkpt>
      <trkpt lat="42.98522" lon="0.54892">
        <ele>1001</ele>
        <time>2019-06-30T12:18:39.000Z</time>
      </trkpt>
      <trkpt lat="42.98522" lon="0.54894">
        <ele>1000</ele>
        <time>2019-06-30T12:18:41.000Z</time>
      </trkpt>
      <trkpt lat="42.9852" lon="0.54896">
        <ele>999</ele>
        <time>2019-06-30T12:18:43.000Z</time>
      </trkpt>
      <trkpt lat="42.98518" lon="0.54897">
        <ele>999</ele>
        <time>2019-06-30T12:18:45.000Z</time>
      </trkpt>
      <trkpt lat="42.98518" lon="0.54898">
        <ele>999</ele>
        <time>2019-06-30T12:18:47.000Z</time>
      </trkpt>
      <trkpt lat="42.98516" lon="0.54898">
        <ele>999</ele>
        <time>2019-06-30T12:18:49.000Z</time>
      </trkpt>
      <trkpt lat="42.98514" lon="0.54899">
        <ele>999</ele>
        <time>2019-06-30T12:18:51.000Z</time>
      </trkpt>
      <trkpt lat="42.98514" lon="0.549">
        <ele>999</ele>
        <time>2019-06-30T12:18:53.000Z</time>
      </trkpt>
      <trkpt lat="42.98514" lon="0.549">
        <ele>998</ele>
        <time>2019-06-30T12:18:55.000Z</time>
      </trkpt>
      <trkpt lat="42.98512" lon="0.54902">
        <ele>998</ele>
        <time>2019-06-30T12:18:57.000Z</time>
      </trkpt>
      <trkpt lat="42.98511" lon="0.54903">
        <ele>998</ele>
        <time>2019-06-30T12:18:59.000Z</time>
      </trkpt>
      <trkpt lat="42.9851" lon="0.54905">
        <ele>998</ele>
        <time>2019-06-30T12:19:01.000Z</time>
      </trkpt>
      <trkpt lat="42.98508" lon="0.54905">
        <ele>998</ele>
        <time>2019-06-30T12:19:03.000Z</time>
      </trkpt>
      <trkpt lat="42.98507" lon="0.54907">
        <ele>997</ele>
        <time>2019-06-30T12:19:05.000Z</time>
      </trkpt>
      <trkpt lat="42.98504" lon="0.54911">
        <ele>996</ele>
        <time>2019-06-30T12:19:07.000Z</time>
      </trkpt>
      <trkpt lat="42.98504" lon="0.54915">
        <ele>995</ele>
        <time>2019-06-30T12:19:09.000Z</time>
      </trkpt>
      <trkpt lat="42.98502" lon="0.54918">
        <ele>994</ele>
        <time>2019-06-30T12:19:11.000Z</time>
      </trkpt>
      <trkpt lat="42.98501" lon="0.54921">
        <ele>993</ele>
        <time>2019-06-30T12:19:13.000Z</time>
      </trkpt>
      <trkpt lat="42.985" lon="0.54924">
        <ele>992</ele>
        <time>2019-06-30T12:19:15.000Z</time>
      </trkpt>
      <trkpt lat="42.98498" lon="0.54927">
        <ele>992</ele>
        <time>2019-06-30T12:19:17.000Z</time>
      </trkpt>
      <trkpt lat="42.98495" lon="0.54929">
        <ele>992</ele>
        <time>2019-06-30T12:19:19.000Z</time>
      </trkpt>
      <trkpt lat="42.98493" lon="0.54932">
        <ele>991</ele>
        <time>2019-06-30T12:19:21.000Z</time>
      </trkpt>
      <trkpt lat="42.98492" lon="0.54935">
        <ele>990</ele>
        <time>2019-06-30T12:19:23.000Z</time>
      </trkpt>
      <trkpt lat="42.9849" lon="0.54938">
        <ele>990</ele>
        <time>2019-06-30T12:19:25.000Z</time>
      </trkpt>
      <trkpt lat="42.98489" lon="0.54939">
        <ele>989</ele>
        <time>2019-06-30T12:19:27.000Z</time>
      </trkpt>
      <trkpt lat="42.98488" lon="0.54941">
        <ele>989</ele>
        <time>2019-06-30T12:19:29.000Z</time>
      </trkpt>
      <trkpt lat="42.98487" lon="0.54944">
        <ele>988</ele>
        <time>2019-06-30T12:19:31.000Z</time>
      </trkpt>
      <trkpt lat="42.98485" lon="0.54946">
        <ele>987</ele>
        <time>2019-06-30T12:19:33.000Z</time>
      </trkpt>
      <trkpt lat="42.98485" lon="0.54948">
        <ele>987</ele>
        <time>2019-06-30T12:19:35.000Z</time>
      </trkpt>
      <trkpt lat="42.98484" lon="0.54952">
        <ele>986</ele>
        <time>2019-06-30T12:19:37.000Z</time>
      </trkpt>
      <trkpt lat="42.98483" lon="0.54955">
        <ele>985</ele>
        <time>2019-06-30T12:19:39.000Z</time>
      </trkpt>
      <trkpt lat="42.98481" lon="0.54957">
        <ele>985</ele>
        <time>2019-06-30T12:19:41.000Z</time>
      </trkpt>
      <trkpt lat="42.9848" lon="0.5496">
        <ele>984</ele>
        <time>2019-06-30T12:19:43.000Z</time>
      </trkpt>
      <trkpt lat="42.98479" lon="0.54962">
        <ele>984</ele>
        <time>2019-06-30T12:19:45.000Z</time>
      </trkpt>
      <trkpt lat="42.98477" lon="0.54964">
        <ele>983</ele>
        <time>2019-06-30T12:19:47.000Z</time>
      </trkpt>
      <trkpt lat="42.98477" lon="0.54967">
        <ele>983</ele>
        <time>2019-06-30T12:19:49.000Z</time>
      </trkpt>
      <trkpt lat="42.98475" lon="0.5497">
        <ele>982</ele>
        <time>2019-06-30T12:19:51.000Z</time>
      </trkpt>
      <trkpt lat="42.98474" lon="0.54972">
        <ele>981</ele>
        <time>2019-06-30T12:19:53.000Z</time>
      </trkpt>
      <trkpt lat="42.98472" lon="0.54975">
        <ele>980</ele>
        <time>2019-06-30T12:19:55.000Z</time>
      </trkpt>
      <trkpt lat="42.98472" lon="0.54978">
        <ele>979</ele>
        <time>2019-06-30T12:19:57.000Z</time>
      </trkpt>
      <trkpt lat="42.98471" lon="0.5498">
        <ele>979</ele>
        <time>2019-06-30T12:19:59.000Z</time>
      </trkpt>
      <trkpt lat="42.98468" lon="0.54983">
        <ele>978</ele>
        <time>2019-06-30T12:20:01.000Z</time>
      </trkpt>
      <trkpt lat="42.98467" lon="0.54985">
        <ele>977</ele>
        <time>2019-06-30T12:20:03.000Z</time>
      </trkpt>
      <trkpt lat="42.98465" lon="0.54988">
        <ele>976</ele>
        <time>2019-06-30T12:20:05.000Z</time>
      </trkpt>
      <trkpt lat="42.98464" lon="0.5499">
        <ele>976</ele>
        <time>2019-06-30T12:20:07.000Z</time>
      </trkpt>
      <trkpt lat="42.98463" lon="0.54992">
        <ele>975</ele>
        <time>2019-06-30T12:20:09.000Z</time>
      </trkpt>
      <trkpt lat="42.98462" lon="0.54994">
        <ele>975</ele>
        <time>2019-06-30T12:20:11.000Z</time>
      </trkpt>
      <trkpt lat="42.98461" lon="0.54996">
        <ele>974</ele>
        <time>2019-06-30T12:20:13.000Z</time>
      </trkpt>
      <trkpt lat="42.98461" lon="0.54999">
        <ele>973</ele>
        <time>2019-06-30T12:20:15.000Z</time>
      </trkpt>
      <trkpt lat="42.9846" lon="0.55003">
        <ele>971</ele>
        <time>2019-06-30T12:20:17.000Z</time>
      </trkpt>
      <trkpt lat="42.9846" lon="0.55006">
        <ele>971</ele>
        <time>2019-06-30T12:20:19.000Z</time>
      </trkpt>
      <trkpt lat="42.98459" lon="0.55009">
        <ele>970</ele>
        <time>2019-06-30T12:20:21.000Z</time>
      </trkpt>
      <trkpt lat="42.98458" lon="0.55011">
        <ele>970</ele>
        <time>2019-06-30T12:20:23.000Z</time>
      </trkpt>
      <trkpt lat="42.98458" lon="0.55013">
        <ele>969</ele>
        <time>2019-06-30T12:20:25.000Z</time>
      </trkpt>
      <trkpt lat="42.98456" lon="0.55014">
        <ele>969</ele>
        <time>2019-06-30T12:20:27.000Z</time>
      </trkpt>
      <trkpt lat="42.98454" lon="0.55015">
        <ele>970</ele>
        <time>2019-06-30T12:20:29.000Z</time>
      </trkpt>
      <trkpt lat="42.98453" lon="0.55017">
        <ele>969</ele>
        <time>2019-06-30T12:20:31.000Z</time>
      </trkpt>
      <trkpt lat="42.98451" lon="0.5502">
        <ele>969</ele>
        <time>2019-06-30T12:20:33.000Z</time>
      </trkpt>
      <trkpt lat="42.98448" lon="0.55022">
        <ele>969</ele>
        <time>2019-06-30T12:20:35.000Z</time>
      </trkpt>
      <trkpt lat="42.98445" lon="0.55025">
        <ele>969</ele>
        <time>2019-06-30T12:20:37.000Z</time>
      </trkpt>
      <trkpt lat="42.98444" lon="0.55027">
        <ele>969</ele>
        <time>2019-06-30T12:20:39.000Z</time>
      </trkpt>
      <trkpt lat="42.98442" lon="0.55029">
        <ele>969</ele>
        <time>2019-06-30T12:20:41.000Z</time>
      </trkpt>
      <trkpt lat="42.98441" lon="0.55031">
        <ele>969</ele>
        <time>2019-06-30T12:20:43.000Z</time>
      </trkpt>
      <trkpt lat="42.98441" lon="0.55034">
        <ele>968</ele>
        <time>2019-06-30T12:20:45.000Z</time>
      </trkpt>
      <trkpt lat="42.9844" lon="0.55036">
        <ele>968</ele>
        <time>2019-06-30T12:20:47.000Z</time>
      </trkpt>
      <trkpt lat="42.9844" lon="0.5504">
        <ele>966</ele>
        <time>2019-06-30T12:20:49.000Z</time>
      </trkpt>
      <trkpt lat="42.98438" lon="0.55044">
        <ele>966</ele>
        <time>2019-06-30T12:20:51.000Z</time>
      </trkpt>
      <trkpt lat="42.98437" lon="0.55047">
        <ele>965</ele>
        <time>2019-06-30T12:20:53.000Z</time>
      </trkpt>
      <trkpt lat="42.98435" lon="0.5505">
        <ele>965</ele>
        <time>2019-06-30T12:20:55.000Z</time>
      </trkpt>
      <trkpt lat="42.98435" lon="0.55053">
        <ele>964</ele>
        <time>2019-06-30T12:20:57.000Z</time>
      </trkpt>
      <trkpt lat="42.98434" lon="0.55054">
        <ele>964</ele>
        <time>2019-06-30T12:20:59.000Z</time>
      </trkpt>
      <trkpt lat="42.98433" lon="0.55056">
        <ele>963</ele>
        <time>2019-06-30T12:21:01.000Z</time>
      </trkpt>
      <trkpt lat="42.98432" lon="0.55058">
        <ele>963</ele>
        <time>2019-06-30T12:21:03.000Z</time>
      </trkpt>
      <trkpt lat="42.98432" lon="0.55061">
        <ele>961</ele>
        <time>2019-06-30T12:21:05.000Z</time>
      </trkpt>
      <trkpt lat="42.98431" lon="0.55065">
        <ele>960</ele>
        <time>2019-06-30T12:21:07.000Z</time>
      </trkpt>
      <trkpt lat="42.98431" lon="0.55068">
        <ele>959</ele>
        <time>2019-06-30T12:21:09.000Z</time>
      </trkpt>
      <trkpt lat="42.98432" lon="0.55072">
        <ele>957</ele>
        <time>2019-06-30T12:21:11.000Z</time>
      </trkpt>
      <trkpt lat="42.98431" lon="0.55075">
        <ele>956</ele>
        <time>2019-06-30T12:21:13.000Z</time>
      </trkpt>
      <trkpt lat="42.9843" lon="0.55077">
        <ele>955</ele>
        <time>2019-06-30T12:21:15.000Z</time>
      </trkpt>
      <trkpt lat="42.9843" lon="0.5508">
        <ele>955</ele>
        <time>2019-06-30T12:21:17.000Z</time>
      </trkpt>
      <trkpt lat="42.98428" lon="0.55083">
        <ele>954</ele>
        <time>2019-06-30T12:21:19.000Z</time>
      </trkpt>
      <trkpt lat="42.98427" lon="0.55085">
        <ele>953</ele>
        <time>2019-06-30T12:21:21.000Z</time>
      </trkpt>
      <trkpt lat="42.98425" lon="0.55088">
        <ele>953</ele>
        <time>2019-06-30T12:21:23.000Z</time>
      </trkpt>
      <trkpt lat="42.98424" lon="0.5509">
        <ele>952</ele>
        <time>2019-06-30T12:21:25.000Z</time>
      </trkpt>
      <trkpt lat="42.98422" lon="0.55092">
        <ele>952</ele>
        <time>2019-06-30T12:21:27.000Z</time>
      </trkpt>
      <trkpt lat="42.98421" lon="0.55095">
        <ele>951</ele>
        <time>2019-06-30T12:21:29.000Z</time>
      </trkpt>
      <trkpt lat="42.98421" lon="0.55099">
        <ele>949</ele>
        <time>2019-06-30T12:21:31.000Z</time>
      </trkpt>
      <trkpt lat="42.9842" lon="0.55102">
        <ele>948</ele>
        <time>2019-06-30T12:21:33.000Z</time>
      </trkpt>
      <trkpt lat="42.98419" lon="0.55104">
        <ele>948</ele>
        <time>2019-06-30T12:21:35.000Z</time>
      </trkpt>
      <trkpt lat="42.98419" lon="0.55106">
        <ele>947</ele>
        <time>2019-06-30T12:21:37.000Z</time>
      </trkpt>
      <trkpt lat="42.98418" lon="0.55108">
        <ele>946</ele>
        <time>2019-06-30T12:21:39.000Z</time>
      </trkpt>
      <trkpt lat="42.98417" lon="0.5511">
        <ele>945</ele>
        <time>2019-06-30T12:21:41.000Z</time>
      </trkpt>
      <trkpt lat="42.98417" lon="0.55114">
        <ele>944</ele>
        <time>2019-06-30T12:21:43.000Z</time>
      </trkpt>
      <trkpt lat="42.98416" lon="0.55117">
        <ele>943</ele>
        <time>2019-06-30T12:21:45.000Z</time>
      </trkpt>
      <trkpt lat="42.98414" lon="0.5512">
        <ele>942</ele>
        <time>2019-06-30T12:21:47.000Z</time>
      </trkpt>
      <trkpt lat="42.98413" lon="0.55124">
        <ele>941</ele>
        <time>2019-06-30T12:21:49.000Z</time>
      </trkpt>
      <trkpt lat="42.98412" lon="0.55128">
        <ele>939</ele>
        <time>2019-06-30T12:21:51.000Z</time>
      </trkpt>
      <trkpt lat="42.98411" lon="0.55131">
        <ele>938</ele>
        <time>2019-06-30T12:21:53.000Z</time>
      </trkpt>
      <trkpt lat="42.9841" lon="0.55132">
        <ele>938</ele>
        <time>2019-06-30T12:21:55.000Z</time>
      </trkpt>
      <trkpt lat="42.98408" lon="0.55136">
        <ele>937</ele>
        <time>2019-06-30T12:21:57.000Z</time>
      </trkpt>
      <trkpt lat="42.98405" lon="0.55139">
        <ele>936</ele>
        <time>2019-06-30T12:21:59.000Z</time>
      </trkpt>
      <trkpt lat="42.98404" lon="0.55143">
        <ele>935</ele>
        <time>2019-06-30T12:22:01.000Z</time>
      </trkpt>
      <trkpt lat="42.98404" lon="0.55146">
        <ele>933</ele>
        <time>2019-06-30T12:22:03.000Z</time>
      </trkpt>
      <trkpt lat="42.98402" lon="0.5515">
        <ele>932</ele>
        <time>2019-06-30T12:22:05.000Z</time>
      </trkpt>
      <trkpt lat="42.98399" lon="0.55152">
        <ele>932</ele>
        <time>2019-06-30T12:22:07.000Z</time>
      </trkpt>
      <trkpt lat="42.98396" lon="0.55154">
        <ele>932</ele>
        <time>2019-06-30T12:22:09.000Z</time>
      </trkpt>
      <trkpt lat="42.98394" lon="0.55155">
        <ele>932</ele>
        <time>2019-06-30T12:22:11.000Z</time>
      </trkpt>
      <trkpt lat="42.98391" lon="0.55157">
        <ele>932</ele>
        <time>2019-06-30T12:22:13.000Z</time>
      </trkpt>
      <trkpt lat="42.98389" lon="0.5516">
        <ele>931</ele>
        <time>2019-06-30T12:22:15.000Z</time>
      </trkpt>
      <trkpt lat="42.98386" lon="0.55162">
        <ele>930</ele>
        <time>2019-06-30T12:22:17.000Z</time>
      </trkpt>
      <trkpt lat="42.98384" lon="0.55164">
        <ele>930</ele>
        <time>2019-06-30T12:22:19.000Z</time>
      </trkpt>
      <trkpt lat="42.98381" lon="0.55167">
        <ele>929</ele>
        <time>2019-06-30T12:22:21.000Z</time>
      </trkpt>
      <trkpt lat="42.98378" lon="0.5517">
        <ele>929</ele>
        <time>2019-06-30T12:22:23.000Z</time>
      </trkpt>
      <trkpt lat="42.98376" lon="0.55174">
        <ele>928</ele>
        <time>2019-06-30T12:22:25.000Z</time>
      </trkpt>
      <trkpt lat="42.98374" lon="0.55176">
        <ele>927</ele>
        <time>2019-06-30T12:22:27.000Z</time>
      </trkpt>
      <trkpt lat="42.98371" lon="0.55178">
        <ele>927</ele>
        <time>2019-06-30T12:22:29.000Z</time>
      </trkpt>
      <trkpt lat="42.98369" lon="0.5518">
        <ele>927</ele>
        <time>2019-06-30T12:22:31.000Z</time>
      </trkpt>
      <trkpt lat="42.98368" lon="0.55183">
        <ele>927</ele>
        <time>2019-06-30T12:22:33.000Z</time>
      </trkpt>
      <trkpt lat="42.98366" lon="0.55187">
        <ele>925</ele>
        <time>2019-06-30T12:22:35.000Z</time>
      </trkpt>
      <trkpt lat="42.98365" lon="0.55188">
        <ele>925</ele>
        <time>2019-06-30T12:22:37.000Z</time>
      </trkpt>
      <trkpt lat="42.98364" lon="0.5519">
        <ele>925</ele>
        <time>2019-06-30T12:22:39.000Z</time>
      </trkpt>
      <trkpt lat="42.98361" lon="0.5519">
        <ele>925</ele>
        <time>2019-06-30T12:22:41.000Z</time>
      </trkpt>
      <trkpt lat="42.98358" lon="0.55193">
        <ele>925</ele>
        <time>2019-06-30T12:22:43.000Z</time>
      </trkpt>
      <trkpt lat="42.98355" lon="0.55194">
        <ele>925</ele>
        <time>2019-06-30T12:22:45.000Z</time>
      </trkpt>
      <trkpt lat="42.98351" lon="0.55196">
        <ele>926</ele>
        <time>2019-06-30T12:22:47.000Z</time>
      </trkpt>
      <trkpt lat="42.98348" lon="0.55198">
        <ele>926</ele>
        <time>2019-06-30T12:22:49.000Z</time>
      </trkpt>
      <trkpt lat="42.98345" lon="0.552">
        <ele>926</ele>
        <time>2019-06-30T12:22:51.000Z</time>
      </trkpt>
      <trkpt lat="42.98342" lon="0.55201">
        <ele>926</ele>
        <time>2019-06-30T12:22:53.000Z</time>
      </trkpt>
      <trkpt lat="42.98339" lon="0.55202">
        <ele>927</ele>
        <time>2019-06-30T12:22:55.000Z</time>
      </trkpt>
      <trkpt lat="42.98336" lon="0.55204">
        <ele>927</ele>
        <time>2019-06-30T12:22:57.000Z</time>
      </trkpt>
      <trkpt lat="42.98333" lon="0.55206">
        <ele>927</ele>
        <time>2019-06-30T12:22:59.000Z</time>
      </trkpt>
      <trkpt lat="42.98331" lon="0.55208">
        <ele>927</ele>
        <time>2019-06-30T12:23:01.000Z</time>
      </trkpt>
      <trkpt lat="42.9833" lon="0.55211">
        <ele>926</ele>
        <time>2019-06-30T12:23:03.000Z</time>
      </trkpt>
      <trkpt lat="42.98328" lon="0.55214">
        <ele>925</ele>
        <time>2019-06-30T12:23:05.000Z</time>
      </trkpt>
      <trkpt lat="42.98326" lon="0.55216">
        <ele>925</ele>
        <time>2019-06-30T12:23:07.000Z</time>
      </trkpt>
      <trkpt lat="42.98323" lon="0.55219">
        <ele>925</ele>
        <time>2019-06-30T12:23:09.000Z</time>
      </trkpt>
      <trkpt lat="42.98322" lon="0.55221">
        <ele>925</ele>
        <time>2019-06-30T12:23:11.000Z</time>
      </trkpt>
      <trkpt lat="42.98321" lon="0.55224">
        <ele>924</ele>
        <time>2019-06-30T12:23:13.000Z</time>
      </trkpt>
      <trkpt lat="42.98319" lon="0.55227">
        <ele>923</ele>
        <time>2019-06-30T12:23:15.000Z</time>
      </trkpt>
      <trkpt lat="42.98318" lon="0.5523">
        <ele>923</ele>
        <time>2019-06-30T12:23:17.000Z</time>
      </trkpt>
      <trkpt lat="42.98316" lon="0.55233">
        <ele>923</ele>
        <time>2019-06-30T12:23:19.000Z</time>
      </trkpt>
      <trkpt lat="42.98314" lon="0.55235">
        <ele>923</ele>
        <time>2019-06-30T12:23:21.000Z</time>
      </trkpt>
      <trkpt lat="42.98313" lon="0.55237">
        <ele>922</ele>
        <time>2019-06-30T12:23:23.000Z</time>
      </trkpt>
      <trkpt lat="42.98312" lon="0.5524">
        <ele>922</ele>
        <time>2019-06-30T12:23:25.000Z</time>
      </trkpt>
      <trkpt lat="42.98311" lon="0.55243">
        <ele>921</ele>
        <time>2019-06-30T12:23:27.000Z</time>
      </trkpt>
      <trkpt lat="42.98312" lon="0.55247">
        <ele>920</ele>
        <time>2019-06-30T12:23:29.000Z</time>
      </trkpt>
      <trkpt lat="42.9831" lon="0.5525">
        <ele>919</ele>
        <time>2019-06-30T12:23:31.000Z</time>
      </trkpt>
      <trkpt lat="42.98309" lon="0.55252">
        <ele>919</ele>
        <time>2019-06-30T12:23:33.000Z</time>
      </trkpt>
      <trkpt lat="42.98309" lon="0.55255">
        <ele>918</ele>
        <time>2019-06-30T12:23:35.000Z</time>
      </trkpt>
      <trkpt lat="42.98308" lon="0.55258">
        <ele>918</ele>
        <time>2019-06-30T12:23:37.000Z</time>
      </trkpt>
      <trkpt lat="42.98306" lon="0.55261">
        <ele>917</ele>
        <time>2019-06-30T12:23:39.000Z</time>
      </trkpt>
      <trkpt lat="42.98305" lon="0.55264">
        <ele>917</ele>
        <time>2019-06-30T12:23:41.000Z</time>
      </trkpt>
      <trkpt lat="42.98304" lon="0.55267">
        <ele>916</ele>
        <time>2019-06-30T12:23:43.000Z</time>
      </trkpt>
      <trkpt lat="42.98302" lon="0.5527">
        <ele>915</ele>
        <time>2019-06-30T12:23:45.000Z</time>
      </trkpt>
      <trkpt lat="42.98301" lon="0.55273">
        <ele>914</ele>
        <time>2019-06-30T12:23:47.000Z</time>
      </trkpt>
      <trkpt lat="42.98299" lon="0.55275">
        <ele>914</ele>
        <time>2019-06-30T12:23:49.000Z</time>
      </trkpt>
      <trkpt lat="42.98298" lon="0.55277">
        <ele>914</ele>
        <time>2019-06-30T12:23:51.000Z</time>
      </trkpt>
      <trkpt lat="42.98296" lon="0.5528">
        <ele>913</ele>
        <time>2019-06-30T12:23:53.000Z</time>
      </trkpt>
      <trkpt lat="42.98295" lon="0.55283">
        <ele>912</ele>
        <time>2019-06-30T12:23:55.000Z</time>
      </trkpt>
      <trkpt lat="42.98293" lon="0.55286">
        <ele>912</ele>
        <time>2019-06-30T12:23:57.000Z</time>
      </trkpt>
      <trkpt lat="42.98292" lon="0.55289">
        <ele>911</ele>
        <time>2019-06-30T12:23:59.000Z</time>
      </trkpt>
      <trkpt lat="42.9829" lon="0.55292">
        <ele>910</ele>
        <time>2019-06-30T12:24:01.000Z</time>
      </trkpt>
      <trkpt lat="42.9829" lon="0.55295">
        <ele>909</ele>
        <time>2019-06-30T12:24:03.000Z</time>
      </trkpt>
      <trkpt lat="42.98288" lon="0.55297">
        <ele>909</ele>
        <time>2019-06-30T12:24:05.000Z</time>
      </trkpt>
      <trkpt lat="42.98287" lon="0.553">
        <ele>908</ele>
        <time>2019-06-30T12:24:07.000Z</time>
      </trkpt>
      <trkpt lat="42.98285" lon="0.55302">
        <ele>907</ele>
        <time>2019-06-30T12:24:09.000Z</time>
      </trkpt>
      <trkpt lat="42.98283" lon="0.55304">
        <ele>907</ele>
        <time>2019-06-30T12:24:11.000Z</time>
      </trkpt>
      <trkpt lat="42.98282" lon="0.55306">
        <ele>906</ele>
        <time>2019-06-30T12:24:13.000Z</time>
      </trkpt>
      <trkpt lat="42.98281" lon="0.55308">
        <ele>905</ele>
        <time>2019-06-30T12:24:15.000Z</time>
      </trkpt>
      <trkpt lat="42.98281" lon="0.55311">
        <ele>905</ele>
        <time>2019-06-30T12:24:17.000Z</time>
      </trkpt>
      <trkpt lat="42.9828" lon="0.55313">
        <ele>904</ele>
        <time>2019-06-30T12:24:19.000Z</time>
      </trkpt>
      <trkpt lat="42.9828" lon="0.55315">
        <ele>903</ele>
        <time>2019-06-30T12:24:21.000Z</time>
      </trkpt>
      <trkpt lat="42.98279" lon="0.55317">
        <ele>903</ele>
        <time>2019-06-30T12:24:23.000Z</time>
      </trkpt>
      <trkpt lat="42.98278" lon="0.55318">
        <ele>902</ele>
        <time>2019-06-30T12:24:25.000Z</time>
      </trkpt>
      <trkpt lat="42.98277" lon="0.5532">
        <ele>902</ele>
        <time>2019-06-30T12:24:27.000Z</time>
      </trkpt>
      <trkpt lat="42.98276" lon="0.55321">
        <ele>901</ele>
        <time>2019-06-30T12:24:29.000Z</time>
      </trkpt>
      <trkpt lat="42.98275" lon="0.55321">
        <ele>902</ele>
        <time>2019-06-30T12:24:31.000Z</time>
      </trkpt>
      <trkpt lat="42.98274" lon="0.55323">
        <ele>901</ele>
        <time>2019-06-30T12:24:33.000Z</time>
      </trkpt>
      <trkpt lat="42.98273" lon="0.55324">
        <ele>901</ele>
        <time>2019-06-30T12:24:35.000Z</time>
      </trkpt>
      <trkpt lat="42.98272" lon="0.55326">
        <ele>900</ele>
        <time>2019-06-30T12:24:37.000Z</time>
      </trkpt>
      <trkpt lat="42.98271" lon="0.55328">
        <ele>900</ele>
        <time>2019-06-30T12:24:39.000Z</time>
      </trkpt>
      <trkpt lat="42.9827" lon="0.55329">
        <ele>899</ele>
        <time>2019-06-30T12:24:41.000Z</time>
      </trkpt>
      <trkpt lat="42.9827" lon="0.55331">
        <ele>899</ele>
        <time>2019-06-30T12:24:43.000Z</time>
      </trkpt>
      <trkpt lat="42.98269" lon="0.55332">
        <ele>898</ele>
        <time>2019-06-30T12:24:45.000Z</time>
      </trkpt>
      <trkpt lat="42.98269" lon="0.55332">
        <ele>898</ele>
        <time>2019-06-30T12:24:47.000Z</time>
      </trkpt>
      <trkpt lat="42.98268" lon="0.55334">
        <ele>898</ele>
        <time>2019-06-30T12:24:49.000Z</time>
      </trkpt>
      <trkpt lat="42.98267" lon="0.55336">
        <ele>897</ele>
        <time>2019-06-30T12:24:51.000Z</time>
      </trkpt>
      <trkpt lat="42.98267" lon="0.55337">
        <ele>897</ele>
        <time>2019-06-30T12:24:53.000Z</time>
      </trkpt>
      <trkpt lat="42.98267" lon="0.55338">
        <ele>897</ele>
        <time>2019-06-30T12:24:55.000Z</time>
      </trkpt>
      <trkpt lat="42.98266" lon="0.5534">
        <ele>896</ele>
        <time>2019-06-30T12:24:57.000Z</time>
      </trkpt>
      <trkpt lat="42.98266" lon="0.55343">
        <ele>895</ele>
        <time>2019-06-30T12:24:59.000Z</time>
      </trkpt>
      <trkpt lat="42.98265" lon="0.55346">
        <ele>893</ele>
        <time>2019-06-30T12:25:01.000Z</time>
      </trkpt>
      <trkpt lat="42.98264" lon="0.55349">
        <ele>892</ele>
        <time>2019-06-30T12:25:03.000Z</time>
      </trkpt>
      <trkpt lat="42.98264" lon="0.55351">
        <ele>891</ele>
        <time>2019-06-30T12:25:05.000Z</time>
      </trkpt>
      <trkpt lat="42.98264" lon="0.55355">
        <ele>890</ele>
        <time>2019-06-30T12:25:07.000Z</time>
      </trkpt>
      <trkpt lat="42.98263" lon="0.55358">
        <ele>889</ele>
        <time>2019-06-30T12:25:09.000Z</time>
      </trkpt>
      <trkpt lat="42.98263" lon="0.55361">
        <ele>887</ele>
        <time>2019-06-30T12:25:11.000Z</time>
      </trkpt>
      <trkpt lat="42.98262" lon="0.55364">
        <ele>887</ele>
        <time>2019-06-30T12:25:13.000Z</time>
      </trkpt>
      <trkpt lat="42.98261" lon="0.55366">
        <ele>886</ele>
        <time>2019-06-30T12:25:15.000Z</time>
      </trkpt>
      <trkpt lat="42.9826" lon="0.55367">
        <ele>886</ele>
        <time>2019-06-30T12:25:17.000Z</time>
      </trkpt>
      <trkpt lat="42.98259" lon="0.55369">
        <ele>885</ele>
        <time>2019-06-30T12:25:19.000Z</time>
      </trkpt>
      <trkpt lat="42.98258" lon="0.55372">
        <ele>884</ele>
        <time>2019-06-30T12:25:21.000Z</time>
      </trkpt>
      <trkpt lat="42.98258" lon="0.55372">
        <ele>884</ele>
        <time>2019-06-30T12:25:23.000Z</time>
      </trkpt>
      <trkpt lat="42.98257" lon="0.55372">
        <ele>884</ele>
        <time>2019-06-30T12:25:25.000Z</time>
      </trkpt>
      <trkpt lat="42.98257" lon="0.55372">
        <ele>884</ele>
        <time>2019-06-30T12:25:27.000Z</time>
      </trkpt>
      <trkpt lat="42.98256" lon="0.55373">
        <ele>884</ele>
        <time>2019-06-30T12:25:29.000Z</time>
      </trkpt>
      <trkpt lat="42.98255" lon="0.55374">
        <ele>884</ele>
        <time>2019-06-30T12:25:31.000Z</time>
      </trkpt>
      <trkpt lat="42.98254" lon="0.55374">
        <ele>884</ele>
        <time>2019-06-30T12:25:33.000Z</time>
      </trkpt>
      <trkpt lat="42.98253" lon="0.55374">
        <ele>885</ele>
        <time>2019-06-30T12:25:35.000Z</time>
      </trkpt>
      <trkpt lat="42.98253" lon="0.55375">
        <ele>884</ele>
        <time>2019-06-30T12:25:37.000Z</time>
      </trkpt>
      <trkpt lat="42.98252" lon="0.55377">
        <ele>884</ele>
        <time>2019-06-30T12:25:39.000Z</time>
      </trkpt>
      <trkpt lat="42.98251" lon="0.55378">
        <ele>883</ele>
        <time>2019-06-30T12:25:41.000Z</time>
      </trkpt>
      <trkpt lat="42.9825" lon="0.5538">
        <ele>883</ele>
        <time>2019-06-30T12:25:43.000Z</time>
      </trkpt>
      <trkpt lat="42.9825" lon="0.55383">
        <ele>882</ele>
        <time>2019-06-30T12:25:45.000Z</time>
      </trkpt>
      <trkpt lat="42.98248" lon="0.55384">
        <ele>882</ele>
        <time>2019-06-30T12:25:47.000Z</time>
      </trkpt>
      <trkpt lat="42.98247" lon="0.55387">
        <ele>881</ele>
        <time>2019-06-30T12:25:49.000Z</time>
      </trkpt>
      <trkpt lat="42.98246" lon="0.5539">
        <ele>880</ele>
        <time>2019-06-30T12:25:51.000Z</time>
      </trkpt>
      <trkpt lat="42.98245" lon="0.55392">
        <ele>879</ele>
        <time>2019-06-30T12:25:53.000Z</time>
      </trkpt>
      <trkpt lat="42.98244" lon="0.55395">
        <ele>878</ele>
        <time>2019-06-30T12:25:55.000Z</time>
      </trkpt>
      <trkpt lat="42.98243" lon="0.55398">
        <ele>877</ele>
        <time>2019-06-30T12:25:57.000Z</time>
      </trkpt>
      <trkpt lat="42.98242" lon="0.55402">
        <ele>876</ele>
        <time>2019-06-30T12:25:59.000Z</time>
      </trkpt>
      <trkpt lat="42.98241" lon="0.55405">
        <ele>875</ele>
        <time>2019-06-30T12:26:01.000Z</time>
      </trkpt>
      <trkpt lat="42.98239" lon="0.55408">
        <ele>874</ele>
        <time>2019-06-30T12:26:03.000Z</time>
      </trkpt>
      <trkpt lat="42.98238" lon="0.5541">
        <ele>873</ele>
        <time>2019-06-30T12:26:05.000Z</time>
      </trkpt>
      <trkpt lat="42.98236" lon="0.55412">
        <ele>873</ele>
        <time>2019-06-30T12:26:07.000Z</time>
      </trkpt>
      <trkpt lat="42.98234" lon="0.55414">
        <ele>872</ele>
        <time>2019-06-30T12:26:09.000Z</time>
      </trkpt>
      <trkpt lat="42.98232" lon="0.55416">
        <ele>872</ele>
        <time>2019-06-30T12:26:11.000Z</time>
      </trkpt>
      <trkpt lat="42.98231" lon="0.55418">
        <ele>871</ele>
        <time>2019-06-30T12:26:13.000Z</time>
      </trkpt>
      <trkpt lat="42.98229" lon="0.5542">
        <ele>871</ele>
        <time>2019-06-30T12:26:15.000Z</time>
      </trkpt>
      <trkpt lat="42.98228" lon="0.55421">
        <ele>871</ele>
        <time>2019-06-30T12:26:17.000Z</time>
      </trkpt>
      <trkpt lat="42.98226" lon="0.55423">
        <ele>871</ele>
        <time>2019-06-30T12:26:19.000Z</time>
      </trkpt>
      <trkpt lat="42.98224" lon="0.55425">
        <ele>870</ele>
        <time>2019-06-30T12:26:21.000Z</time>
      </trkpt>
      <trkpt lat="42.98223" lon="0.55426">
        <ele>870</ele>
        <time>2019-06-30T12:26:23.000Z</time>
      </trkpt>
      <trkpt lat="42.98222" lon="0.55428">
        <ele>870</ele>
        <time>2019-06-30T12:26:25.000Z</time>
      </trkpt>
      <trkpt lat="42.98221" lon="0.55429">
        <ele>869</ele>
        <time>2019-06-30T12:26:27.000Z</time>
      </trkpt>
      <trkpt lat="42.98219" lon="0.55432">
        <ele>869</ele>
        <time>2019-06-30T12:26:29.000Z</time>
      </trkpt>
      <trkpt lat="42.98219" lon="0.55434">
        <ele>868</ele>
        <time>2019-06-30T12:26:31.000Z</time>
      </trkpt>
      <trkpt lat="42.98219" lon="0.55436">
        <ele>868</ele>
        <time>2019-06-30T12:26:33.000Z</time>
      </trkpt>
      <trkpt lat="42.98219" lon="0.55438">
        <ele>867</ele>
        <time>2019-06-30T12:26:35.000Z</time>
      </trkpt>
      <trkpt lat="42.98217" lon="0.5544">
        <ele>867</ele>
        <time>2019-06-30T12:26:37.000Z</time>
      </trkpt>
      <trkpt lat="42.98216" lon="0.55443">
        <ele>867</ele>
        <time>2019-06-30T12:26:39.000Z</time>
      </trkpt>
      <trkpt lat="42.98215" lon="0.55445">
        <ele>867</ele>
        <time>2019-06-30T12:26:41.000Z</time>
      </trkpt>
      <trkpt lat="42.98214" lon="0.55446">
        <ele>866</ele>
        <time>2019-06-30T12:26:43.000Z</time>
      </trkpt>
      <trkpt lat="42.98213" lon="0.55448">
        <ele>866</ele>
        <time>2019-06-30T12:26:45.000Z</time>
      </trkpt>
      <trkpt lat="42.98212" lon="0.55449">
        <ele>866</ele>
        <time>2019-06-30T12:26:47.000Z</time>
      </trkpt>
      <trkpt lat="42.98212" lon="0.55452">
        <ele>866</ele>
        <time>2019-06-30T12:26:49.000Z</time>
      </trkpt>
      <trkpt lat="42.98211" lon="0.55454">
        <ele>865</ele>
        <time>2019-06-30T12:26:51.000Z</time>
      </trkpt>
      <trkpt lat="42.98209" lon="0.55456">
        <ele>865</ele>
        <time>2019-06-30T12:26:53.000Z</time>
      </trkpt>
      <trkpt lat="42.98208" lon="0.55458">
        <ele>865</ele>
        <time>2019-06-30T12:26:55.000Z</time>
      </trkpt>
      <trkpt lat="42.98206" lon="0.55459">
        <ele>865</ele>
        <time>2019-06-30T12:26:57.000Z</time>
      </trkpt>
      <trkpt lat="42.98205" lon="0.55462">
        <ele>865</ele>
        <time>2019-06-30T12:26:59.000Z</time>
      </trkpt>
      <trkpt lat="42.98205" lon="0.55465">
        <ele>864</ele>
        <time>2019-06-30T12:27:01.000Z</time>
      </trkpt>
      <trkpt lat="42.98204" lon="0.55467">
        <ele>864</ele>
        <time>2019-06-30T12:27:03.000Z</time>
      </trkpt>
      <trkpt lat="42.98202" lon="0.55469">
        <ele>864</ele>
        <time>2019-06-30T12:27:05.000Z</time>
      </trkpt>
      <trkpt lat="42.98201" lon="0.55472">
        <ele>863</ele>
        <time>2019-06-30T12:27:07.000Z</time>
      </trkpt>
      <trkpt lat="42.98202" lon="0.55475">
        <ele>862</ele>
        <time>2019-06-30T12:27:09.000Z</time>
      </trkpt>
      <trkpt lat="42.98202" lon="0.55479">
        <ele>861</ele>
        <time>2019-06-30T12:27:11.000Z</time>
      </trkpt>
      <trkpt lat="42.98202" lon="0.55481">
        <ele>860</ele>
        <time>2019-06-30T12:27:13.000Z</time>
      </trkpt>
      <trkpt lat="42.98201" lon="0.55484">
        <ele>860</ele>
        <time>2019-06-30T12:27:15.000Z</time>
      </trkpt>
      <trkpt lat="42.98201" lon="0.55486">
        <ele>859</ele>
        <time>2019-06-30T12:27:17.000Z</time>
      </trkpt>
      <trkpt lat="42.982" lon="0.5549">
        <ele>858</ele>
        <time>2019-06-30T12:27:19.000Z</time>
      </trkpt>
      <trkpt lat="42.98199" lon="0.55493">
        <ele>858</ele>
        <time>2019-06-30T12:27:21.000Z</time>
      </trkpt>
      <trkpt lat="42.98198" lon="0.55495">
        <ele>858</ele>
        <time>2019-06-30T12:27:23.000Z</time>
      </trkpt>
      <trkpt lat="42.98197" lon="0.55496">
        <ele>858</ele>
        <time>2019-06-30T12:27:25.000Z</time>
      </trkpt>
      <trkpt lat="42.98196" lon="0.55499">
        <ele>857</ele>
        <time>2019-06-30T12:27:27.000Z</time>
      </trkpt>
      <trkpt lat="42.98195" lon="0.55502">
        <ele>857</ele>
        <time>2019-06-30T12:27:29.000Z</time>
      </trkpt>
      <trkpt lat="42.98194" lon="0.55504">
        <ele>857</ele>
        <time>2019-06-30T12:27:31.000Z</time>
      </trkpt>
      <trkpt lat="42.98192" lon="0.55508">
        <ele>856</ele>
        <time>2019-06-30T12:27:33.000Z</time>
      </trkpt>
      <trkpt lat="42.98191" lon="0.5551">
        <ele>856</ele>
        <time>2019-06-30T12:27:35.000Z</time>
      </trkpt>
      <trkpt lat="42.9819" lon="0.55513">
        <ele>855</ele>
        <time>2019-06-30T12:27:37.000Z</time>
      </trkpt>
      <trkpt lat="42.9819" lon="0.55516">
        <ele>854</ele>
        <time>2019-06-30T12:27:39.000Z</time>
      </trkpt>
      <trkpt lat="42.98189" lon="0.55519">
        <ele>854</ele>
        <time>2019-06-30T12:27:41.000Z</time>
      </trkpt>
      <trkpt lat="42.98188" lon="0.55521">
        <ele>853</ele>
        <time>2019-06-30T12:27:43.000Z</time>
      </trkpt>
      <trkpt lat="42.98188" lon="0.55523">
        <ele>853</ele>
        <time>2019-06-30T12:27:45.000Z</time>
      </trkpt>
      <trkpt lat="42.98187" lon="0.55524">
        <ele>853</ele>
        <time>2019-06-30T12:27:47.000Z</time>
      </trkpt>
      <trkpt lat="42.98187" lon="0.55527">
        <ele>852</ele>
        <time>2019-06-30T12:27:49.000Z</time>
      </trkpt>
      <trkpt lat="42.98185" lon="0.55529">
        <ele>852</ele>
        <time>2019-06-30T12:27:51.000Z</time>
      </trkpt>
      <trkpt lat="42.98185" lon="0.55532">
        <ele>851</ele>
        <time>2019-06-30T12:27:53.000Z</time>
      </trkpt>
      <trkpt lat="42.98183" lon="0.55534">
        <ele>851</ele>
        <time>2019-06-30T12:27:55.000Z</time>
      </trkpt>
      <trkpt lat="42.98182" lon="0.55537">
        <ele>850</ele>
        <time>2019-06-30T12:27:57.000Z</time>
      </trkpt>
      <trkpt lat="42.98182" lon="0.5554">
        <ele>850</ele>
        <time>2019-06-30T12:27:59.000Z</time>
      </trkpt>
      <trkpt lat="42.98182" lon="0.55542">
        <ele>849</ele>
        <time>2019-06-30T12:28:01.000Z</time>
      </trkpt>
      <trkpt lat="42.98183" lon="0.55545">
        <ele>848</ele>
        <time>2019-06-30T12:28:03.000Z</time>
      </trkpt>
      <trkpt lat="42.98182" lon="0.55548">
        <ele>847</ele>
        <time>2019-06-30T12:28:05.000Z</time>
      </trkpt>
      <trkpt lat="42.98182" lon="0.55551">
        <ele>846</ele>
        <time>2019-06-30T12:28:07.000Z</time>
      </trkpt>
      <trkpt lat="42.98182" lon="0.55554">
        <ele>845</ele>
        <time>2019-06-30T12:28:09.000Z</time>
      </trkpt>
      <trkpt lat="42.98182" lon="0.55557">
        <ele>844</ele>
        <time>2019-06-30T12:28:11.000Z</time>
      </trkpt>
      <trkpt lat="42.98182" lon="0.55559">
        <ele>844</ele>
        <time>2019-06-30T12:28:13.000Z</time>
      </trkpt>
      <trkpt lat="42.98182" lon="0.55562">
        <ele>843</ele>
        <time>2019-06-30T12:28:15.000Z</time>
      </trkpt>
      <trkpt lat="42.98181" lon="0.55564">
        <ele>843</ele>
        <time>2019-06-30T12:28:17.000Z</time>
      </trkpt>
      <trkpt lat="42.98182" lon="0.55567">
        <ele>842</ele>
        <time>2019-06-30T12:28:19.000Z</time>
      </trkpt>
      <trkpt lat="42.98181" lon="0.55571">
        <ele>841</ele>
        <time>2019-06-30T12:28:21.000Z</time>
      </trkpt>
      <trkpt lat="42.98181" lon="0.55574">
        <ele>840</ele>
        <time>2019-06-30T12:28:23.000Z</time>
      </trkpt>
      <trkpt lat="42.9818" lon="0.55575">
        <ele>840</ele>
        <time>2019-06-30T12:28:25.000Z</time>
      </trkpt>
      <trkpt lat="42.98179" lon="0.55577">
        <ele>840</ele>
        <time>2019-06-30T12:28:27.000Z</time>
      </trkpt>
      <trkpt lat="42.98178" lon="0.5558">
        <ele>840</ele>
        <time>2019-06-30T12:28:29.000Z</time>
      </trkpt>
      <trkpt lat="42.98176" lon="0.55583">
        <ele>840</ele>
        <time>2019-06-30T12:28:31.000Z</time>
      </trkpt>
      <trkpt lat="42.98175" lon="0.55585">
        <ele>840</ele>
        <time>2019-06-30T12:28:33.000Z</time>
      </trkpt>
      <trkpt lat="42.98173" lon="0.55588">
        <ele>840</ele>
        <time>2019-06-30T12:28:35.000Z</time>
      </trkpt>
      <trkpt lat="42.98171" lon="0.5559">
        <ele>840</ele>
        <time>2019-06-30T12:28:37.000Z</time>
      </trkpt>
      <trkpt lat="42.9817" lon="0.55592">
        <ele>840</ele>
        <time>2019-06-30T12:28:39.000Z</time>
      </trkpt>
      <trkpt lat="42.98167" lon="0.55594">
        <ele>841</ele>
        <time>2019-06-30T12:28:41.000Z</time>
      </trkpt>
      <trkpt lat="42.98166" lon="0.55596">
        <ele>841</ele>
        <time>2019-06-30T12:28:43.000Z</time>
      </trkpt>
      <trkpt lat="42.98166" lon="0.55599">
        <ele>840</ele>
        <time>2019-06-30T12:28:45.000Z</time>
      </trkpt>
      <trkpt lat="42.98166" lon="0.556">
        <ele>840</ele>
        <time>2019-06-30T12:28:47.000Z</time>
      </trkpt>
      <trkpt lat="42.98166" lon="0.55601">
        <ele>840</ele>
        <time>2019-06-30T12:28:49.000Z</time>
      </trkpt>
      <trkpt lat="42.98166" lon="0.55603">
        <ele>839</ele>
        <time>2019-06-30T12:28:51.000Z</time>
      </trkpt>
      <trkpt lat="42.98166" lon="0.55604">
        <ele>839</ele>
        <time>2019-06-30T12:28:53.000Z</time>
      </trkpt>
      <trkpt lat="42.98165" lon="0.55605">
        <ele>839</ele>
        <time>2019-06-30T12:28:55.000Z</time>
      </trkpt>
      <trkpt lat="42.98165" lon="0.55605">
        <ele>839</ele>
        <time>2019-06-30T12:28:57.000Z</time>
      </trkpt>
      <trkpt lat="42.98165" lon="0.55608">
        <ele>838</ele>
        <time>2019-06-30T12:28:59.000Z</time>
      </trkpt>
      <trkpt lat="42.98164" lon="0.55611">
        <ele>838</ele>
        <time>2019-06-30T12:29:01.000Z</time>
      </trkpt>
      <trkpt lat="42.98163" lon="0.55615">
        <ele>838</ele>
        <time>2019-06-30T12:29:03.000Z</time>
      </trkpt>
      <trkpt lat="42.98162" lon="0.55617">
        <ele>837</ele>
        <time>2019-06-30T12:29:05.000Z</time>
      </trkpt>
      <trkpt lat="42.98161" lon="0.5562">
        <ele>837</ele>
        <time>2019-06-30T12:29:07.000Z</time>
      </trkpt>
      <trkpt lat="42.9816" lon="0.55623">
        <ele>837</ele>
        <time>2019-06-30T12:29:09.000Z</time>
      </trkpt>
      <trkpt lat="42.98158" lon="0.55625">
        <ele>836</ele>
        <time>2019-06-30T12:29:11.000Z</time>
      </trkpt>
      <trkpt lat="42.98158" lon="0.55627">
        <ele>836</ele>
        <time>2019-06-30T12:29:13.000Z</time>
      </trkpt>
      <trkpt lat="42.98157" lon="0.55629">
        <ele>836</ele>
        <time>2019-06-30T12:29:15.000Z</time>
      </trkpt>
      <trkpt lat="42.98157" lon="0.5563">
        <ele>836</ele>
        <time>2019-06-30T12:29:17.000Z</time>
      </trkpt>
      <trkpt lat="42.98157" lon="0.5563">
        <ele>835</ele>
        <time>2019-06-30T12:29:19.000Z</time>
      </trkpt>
      <trkpt lat="42.98156" lon="0.55631">
        <ele>835</ele>
        <time>2019-06-30T12:29:21.000Z</time>
      </trkpt>
      <trkpt lat="42.98157" lon="0.55631">
        <ele>835</ele>
        <time>2019-06-30T12:29:23.000Z</time>
      </trkpt>
      <trkpt lat="42.98157" lon="0.55632">
        <ele>835</ele>
        <time>2019-06-30T12:29:25.000Z</time>
      </trkpt>
      <trkpt lat="42.98156" lon="0.55632">
        <ele>835</ele>
        <time>2019-06-30T12:29:27.000Z</time>
      </trkpt>
      <trkpt lat="42.98156" lon="0.55633">
        <ele>835</ele>
        <time>2019-06-30T12:29:29.000Z</time>
      </trkpt>
      <trkpt lat="42.98156" lon="0.55634">
        <ele>835</ele>
        <time>2019-06-30T12:29:31.000Z</time>
      </trkpt>
      <trkpt lat="42.98155" lon="0.55636">
        <ele>834</ele>
        <time>2019-06-30T12:29:33.000Z</time>
      </trkpt>
      <trkpt lat="42.98154" lon="0.55637">
        <ele>835</ele>
        <time>2019-06-30T12:29:35.000Z</time>
      </trkpt>
      <trkpt lat="42.98153" lon="0.55638">
        <ele>834</ele>
        <time>2019-06-30T12:29:37.000Z</time>
      </trkpt>
      <trkpt lat="42.98153" lon="0.55639">
        <ele>834</ele>
        <time>2019-06-30T12:29:39.000Z</time>
      </trkpt>
      <trkpt lat="42.98151" lon="0.55639">
        <ele>835</ele>
        <time>2019-06-30T12:29:41.000Z</time>
      </trkpt>
      <trkpt lat="42.98151" lon="0.5564">
        <ele>835</ele>
        <time>2019-06-30T12:29:43.000Z</time>
      </trkpt>
      <trkpt lat="42.9815" lon="0.55639">
        <ele>835</ele>
        <time>2019-06-30T12:29:45.000Z</time>
      </trkpt>
      <trkpt lat="42.98148" lon="0.5564">
        <ele>836</ele>
        <time>2019-06-30T12:29:47.000Z</time>
      </trkpt>
      <trkpt lat="42.98148" lon="0.5564">
        <ele>836</ele>
        <time>2019-06-30T12:29:49.000Z</time>
      </trkpt>
      <trkpt lat="42.98147" lon="0.5564">
        <ele>836</ele>
        <time>2019-06-30T12:29:51.000Z</time>
      </trkpt>
      <trkpt lat="42.98146" lon="0.55641">
        <ele>836</ele>
        <time>2019-06-30T12:29:53.000Z</time>
      </trkpt>
      <trkpt lat="42.98146" lon="0.55641">
        <ele>836</ele>
        <time>2019-06-30T12:29:55.000Z</time>
      </trkpt>
      <trkpt lat="42.98147" lon="0.55639">
        <ele>837</ele>
        <time>2019-06-30T12:29:57.000Z</time>
      </trkpt>
      <trkpt lat="42.98147" lon="0.55638">
        <ele>837</ele>
        <time>2019-06-30T12:29:59.000Z</time>
      </trkpt>
      <trkpt lat="42.98147" lon="0.55635">
        <ele>838</ele>
        <time>2019-06-30T12:30:01.000Z</time>
      </trkpt>
      <trkpt lat="42.98147" lon="0.55634">
        <ele>838</ele>
        <time>2019-06-30T12:30:03.000Z</time>
      </trkpt>
      <trkpt lat="42.98146" lon="0.55633">
        <ele>839</ele>
        <time>2019-06-30T12:30:05.000Z</time>
      </trkpt>
      <trkpt lat="42.98145" lon="0.55633">
        <ele>839</ele>
        <time>2019-06-30T12:30:07.000Z</time>
      </trkpt>
      <trkpt lat="42.98145" lon="0.55633">
        <ele>839</ele>
        <time>2019-06-30T12:30:09.000Z</time>
      </trkpt>
      <trkpt lat="42.98144" lon="0.55633">
        <ele>840</ele>
        <time>2019-06-30T12:30:11.000Z</time>
      </trkpt>
      <trkpt lat="42.98143" lon="0.55632">
        <ele>840</ele>
        <time>2019-06-30T12:30:13.000Z</time>
      </trkpt>
      <trkpt lat="42.98143" lon="0.55632">
        <ele>840</ele>
        <time>2019-06-30T12:30:15.000Z</time>
      </trkpt>
      <trkpt lat="42.98143" lon="0.55632">
        <ele>840</ele>
        <time>2019-06-30T12:30:17.000Z</time>
      </trkpt>
      <trkpt lat="42.98144" lon="0.55631">
        <ele>840</ele>
        <time>2019-06-30T12:30:19.000Z</time>
      </trkpt>
      <trkpt lat="42.98144" lon="0.55631">
        <ele>840</ele>
        <time>2019-06-30T12:30:21.000Z</time>
      </trkpt>
      <trkpt lat="42.98145" lon="0.5563">
        <ele>840</ele>
        <time>2019-06-30T12:30:23.000Z</time>
      </trkpt>
      <trkpt lat="42.98145" lon="0.5563">
        <ele>840</ele>
        <time>2019-06-30T12:30:25.000Z</time>
      </trkpt>
      <trkpt lat="42.98144" lon="0.5563">
        <ele>840</ele>
        <time>2019-06-30T12:30:27.000Z</time>
      </trkpt>
      <trkpt lat="42.98145" lon="0.5563">
        <ele>840</ele>
        <time>2019-06-30T12:30:29.000Z</time>
      </trkpt>
      <trkpt lat="42.98145" lon="0.5563">
        <ele>840</ele>
        <time>2019-06-30T12:30:31.000Z</time>
      </trkpt>
      <trkpt lat="42.98146" lon="0.5563">
        <ele>840</ele>
        <time>2019-06-30T12:30:33.000Z</time>
      </trkpt>
      <trkpt lat="42.98147" lon="0.5563">
        <ele>839</ele>
        <time>2019-06-30T12:30:35.000Z</time>
      </trkpt>
      <trkpt lat="42.98148" lon="0.55631">
        <ele>839</ele>
        <time>2019-06-30T12:30:37.000Z</time>
      </trkpt>
      <trkpt lat="42.9815" lon="0.55631">
        <ele>838</ele>
        <time>2019-06-30T12:30:39.000Z</time>
      </trkpt>
      <trkpt lat="42.98151" lon="0.55631">
        <ele>838</ele>
        <time>2019-06-30T12:30:41.000Z</time>
      </trkpt>
      <trkpt lat="42.98153" lon="0.5563">
        <ele>837</ele>
        <time>2019-06-30T12:30:43.000Z</time>
      </trkpt>
      <trkpt lat="42.98153" lon="0.5563">
        <ele>837</ele>
        <time>2019-06-30T12:30:45.000Z</time>
      </trkpt>
      <trkpt lat="42.98154" lon="0.55631">
        <ele>837</ele>
        <time>2019-06-30T12:30:47.000Z</time>
      </trkpt>
      <trkpt lat="42.98155" lon="0.55631">
        <ele>836</ele>
        <time>2019-06-30T12:30:49.000Z</time>
      </trkpt>
      <trkpt lat="42.98155" lon="0.55632">
        <ele>835</ele>
        <time>2019-06-30T12:30:51.000Z</time>
      </trkpt>
      <trkpt lat="42.98156" lon="0.55632">
        <ele>835</ele>
        <time>2019-06-30T12:30:53.000Z</time>
      </trkpt>
      <trkpt lat="42.98156" lon="0.55633">
        <ele>835</ele>
        <time>2019-06-30T12:30:55.000Z</time>
      </trkpt>
      <trkpt lat="42.98154" lon="0.55633">
        <ele>836</ele>
        <time>2019-06-30T12:30:57.000Z</time>
      </trkpt>
      <trkpt lat="42.98154" lon="0.55633">
        <ele>836</ele>
        <time>2019-06-30T12:30:59.000Z</time>
      </trkpt>
      <trkpt lat="42.98155" lon="0.55632">
        <ele>836</ele>
        <time>2019-06-30T12:31:01.000Z</time>
      </trkpt>
      <trkpt lat="42.98155" lon="0.55633">
        <ele>835</ele>
        <time>2019-06-30T12:31:03.000Z</time>
      </trkpt>
      <trkpt lat="42.98156" lon="0.55633">
        <ele>835</ele>
        <time>2019-06-30T12:31:05.000Z</time>
      </trkpt>
      <trkpt lat="42.98156" lon="0.55633">
        <ele>835</ele>
        <time>2019-06-30T12:31:07.000Z</time>
      </trkpt>
      <trkpt lat="42.98157" lon="0.55634">
        <ele>834</ele>
        <time>2019-06-30T12:31:09.000Z</time>
      </trkpt>
      <trkpt lat="42.98156" lon="0.55633">
        <ele>835</ele>
        <time>2019-06-30T12:31:11.000Z</time>
      </trkpt>
      <trkpt lat="42.98155" lon="0.55634">
        <ele>835</ele>
        <time>2019-06-30T12:31:13.000Z</time>
      </trkpt>
      <trkpt lat="42.98154" lon="0.55635">
        <ele>835</ele>
        <time>2019-06-30T12:31:15.000Z</time>
      </trkpt>
      <trkpt lat="42.98153" lon="0.55634">
        <ele>835</ele>
        <time>2019-06-30T12:31:17.000Z</time>
      </trkpt>
      <trkpt lat="42.98153" lon="0.55635">
        <ele>835</ele>
        <time>2019-06-30T12:31:19.000Z</time>
      </trkpt>
      <trkpt lat="42.98153" lon="0.55634">
        <ele>836</ele>
        <time>2019-06-30T12:31:21.000Z</time>
      </trkpt>
      <trkpt lat="42.98152" lon="0.55633">
        <ele>836</ele>
        <time>2019-06-30T12:31:23.000Z</time>
      </trkpt>
      <trkpt lat="42.98151" lon="0.55632">
        <ele>837</ele>
        <time>2019-06-30T12:31:25.000Z</time>
      </trkpt>
      <trkpt lat="42.98151" lon="0.55631">
        <ele>837</ele>
        <time>2019-06-30T12:31:27.000Z</time>
      </trkpt>
      <trkpt lat="42.98151" lon="0.55631">
        <ele>837</ele>
        <time>2019-06-30T12:31:29.000Z</time>
      </trkpt>
      <trkpt lat="42.98152" lon="0.55632">
        <ele>837</ele>
        <time>2019-06-30T12:31:31.000Z</time>
      </trkpt>
      <trkpt lat="42.98153" lon="0.55631">
        <ele>837</ele>
        <time>2019-06-30T12:31:33.000Z</time>
      </trkpt>
      <trkpt lat="42.98153" lon="0.55632">
        <ele>836</ele>
        <time>2019-06-30T12:31:35.000Z</time>
      </trkpt>
      <trkpt lat="42.98153" lon="0.55632">
        <ele>836</ele>
        <time>2019-06-30T12:31:37.000Z</time>
      </trkpt>
      <trkpt lat="42.98153" lon="0.55632">
        <ele>836</ele>
        <time>2019-06-30T12:31:39.000Z</time>
      </trkpt>
      <trkpt lat="42.98153" lon="0.55631">
        <ele>837</ele>
        <time>2019-06-30T12:31:41.000Z</time>
      </trkpt>
      <trkpt lat="42.98153" lon="0.5563">
        <ele>837</ele>
        <time>2019-06-30T12:31:43.000Z</time>
      </trkpt>
      <trkpt lat="42.98153" lon="0.5563">
        <ele>837</ele>
        <time>2019-06-30T12:31:45.000Z</time>
      </trkpt>
      <trkpt lat="42.98153" lon="0.5563">
        <ele>837</ele>
        <time>2019-06-30T12:31:47.000Z</time>
      </trkpt>
      <trkpt lat="42.98152" lon="0.5563">
        <ele>837</ele>
        <time>2019-06-30T12:31:49.000Z</time>
      </trkpt>
      <trkpt lat="42.98153" lon="0.55629">
        <ele>837</ele>
        <time>2019-06-30T12:31:51.000Z</time>
      </trkpt>
      <trkpt lat="42.98154" lon="0.55628">
        <ele>837</ele>
        <time>2019-06-30T12:31:53.000Z</time>
      </trkpt>
      <trkpt lat="42.98155" lon="0.55628">
        <ele>837</ele>
        <time>2019-06-30T12:31:55.000Z</time>
      </trkpt>
      <trkpt lat="42.98155" lon="0.55627">
        <ele>837</ele>
        <time>2019-06-30T12:31:57.000Z</time>
      </trkpt>
      <trkpt lat="42.98155" lon="0.55627">
        <ele>837</ele>
        <time>2019-06-30T12:31:59.000Z</time>
      </trkpt>
      <trkpt lat="42.98158" lon="0.55627">
        <ele>836</ele>
        <time>2019-06-30T12:32:01.000Z</time>
      </trkpt>
      <trkpt lat="42.98157" lon="0.55626">
        <ele>837</ele>
        <time>2019-06-30T12:32:03.000Z</time>
      </trkpt>
      <trkpt lat="42.98157" lon="0.55626">
        <ele>836</ele>
        <time>2019-06-30T12:32:05.000Z</time>
      </trkpt>
      <trkpt lat="42.98156" lon="0.55627">
        <ele>837</ele>
        <time>2019-06-30T12:32:07.000Z</time>
      </trkpt>
      <trkpt lat="42.98155" lon="0.55628">
        <ele>836</ele>
        <time>2019-06-30T12:32:09.000Z</time>
      </trkpt>
      <trkpt lat="42.98153" lon="0.5563">
        <ele>837</ele>
        <time>2019-06-30T12:32:11.000Z</time>
      </trkpt>
      <trkpt lat="42.98152" lon="0.5563">
        <ele>837</ele>
        <time>2019-06-30T12:32:13.000Z</time>
      </trkpt>
      <trkpt lat="42.98151" lon="0.55631">
        <ele>837</ele>
        <time>2019-06-30T12:32:15.000Z</time>
      </trkpt>
      <trkpt lat="42.9815" lon="0.55632">
        <ele>837</ele>
        <time>2019-06-30T12:32:17.000Z</time>
      </trkpt>
      <trkpt lat="42.9815" lon="0.55632">
        <ele>837</ele>
        <time>2019-06-30T12:32:19.000Z</time>
      </trkpt>
      <trkpt lat="42.9815" lon="0.55632">
        <ele>838</ele>
        <time>2019-06-30T12:32:21.000Z</time>
      </trkpt>
      <trkpt lat="42.9815" lon="0.55632">
        <ele>838</ele>
        <time>2019-06-30T12:32:23.000Z</time>
      </trkpt>
      <trkpt lat="42.9815" lon="0.55631">
        <ele>838</ele>
        <time>2019-06-30T12:32:25.000Z</time>
      </trkpt>
      <trkpt lat="42.98149" lon="0.55629">
        <ele>839</ele>
        <time>2019-06-30T12:32:27.000Z</time>
      </trkpt>
      <trkpt lat="42.98148" lon="0.55629">
        <ele>839</ele>
        <time>2019-06-30T12:32:29.000Z</time>
      </trkpt>
      <trkpt lat="42.98148" lon="0.55628">
        <ele>839</ele>
        <time>2019-06-30T12:32:31.000Z</time>
      </trkpt>
      <trkpt lat="42.98148" lon="0.55628">
        <ele>840</ele>
        <time>2019-06-30T12:32:33.000Z</time>
      </trkpt>
      <trkpt lat="42.98148" lon="0.55628">
        <ele>839</ele>
        <time>2019-06-30T12:32:35.000Z</time>
      </trkpt>
      <trkpt lat="42.98148" lon="0.55629">
        <ele>839</ele>
        <time>2019-06-30T12:32:37.000Z</time>
      </trkpt>
      <trkpt lat="42.98148" lon="0.55629">
        <ele>839</ele>
        <time>2019-06-30T12:32:39.000Z</time>
      </trkpt>
      <trkpt lat="42.98148" lon="0.55629">
        <ele>839</ele>
        <time>2019-06-30T12:32:41.000Z</time>
      </trkpt>
      <trkpt lat="42.98148" lon="0.5563">
        <ele>839</ele>
        <time>2019-06-30T12:32:43.000Z</time>
      </trkpt>
      <trkpt lat="42.98149" lon="0.5563">
        <ele>839</ele>
        <time>2019-06-30T12:32:45.000Z</time>
      </trkpt>
      <trkpt lat="42.9815" lon="0.55633">
        <ele>837</ele>
        <time>2019-06-30T12:32:47.000Z</time>
      </trkpt>
      <trkpt lat="42.98152" lon="0.55635">
        <ele>836</ele>
        <time>2019-06-30T12:32:49.000Z</time>
      </trkpt>
      <trkpt lat="42.98153" lon="0.55636">
        <ele>835</ele>
        <time>2019-06-30T12:32:51.000Z</time>
      </trkpt>
      <trkpt lat="42.98153" lon="0.55636">
        <ele>835</ele>
        <time>2019-06-30T12:32:53.000Z</time>
      </trkpt>
      <trkpt lat="42.98154" lon="0.55637">
        <ele>834</ele>
        <time>2019-06-30T12:32:55.000Z</time>
      </trkpt>
      <trkpt lat="42.98154" lon="0.55638">
        <ele>834</ele>
        <time>2019-06-30T12:32:57.000Z</time>
      </trkpt>
      <trkpt lat="42.98154" lon="0.55638">
        <ele>834</ele>
        <time>2019-06-30T12:32:59.000Z</time>
      </trkpt>
      <trkpt lat="42.98154" lon="0.55637">
        <ele>834</ele>
        <time>2019-06-30T12:33:01.000Z</time>
      </trkpt>
      <trkpt lat="42.98154" lon="0.55636">
        <ele>835</ele>
        <time>2019-06-30T12:33:03.000Z</time>
      </trkpt>
      <trkpt lat="42.98154" lon="0.55636">
        <ele>835</ele>
        <time>2019-06-30T12:33:05.000Z</time>
      </trkpt>
      <trkpt lat="42.98155" lon="0.55635">
        <ele>835</ele>
        <time>2019-06-30T12:33:07.000Z</time>
      </trkpt>
      <trkpt lat="42.98155" lon="0.55635">
        <ele>835</ele>
        <time>2019-06-30T12:33:09.000Z</time>
      </trkpt>
      <trkpt lat="42.98156" lon="0.55634">
        <ele>835</ele>
        <time>2019-06-30T12:33:11.000Z</time>
      </trkpt>
      <trkpt lat="42.98156" lon="0.55632">
        <ele>835</ele>
        <time>2019-06-30T12:33:13.000Z</time>
      </trkpt>
      <trkpt lat="42.98156" lon="0.55631">
        <ele>835</ele>
        <time>2019-06-30T12:33:15.000Z</time>
      </trkpt>
      <trkpt lat="42.98156" lon="0.5563">
        <ele>836</ele>
        <time>2019-06-30T12:33:17.000Z</time>
      </trkpt>
      <trkpt lat="42.98156" lon="0.5563">
        <ele>836</ele>
        <time>2019-06-30T12:33:19.000Z</time>
      </trkpt>
      <trkpt lat="42.98157" lon="0.55629">
        <ele>836</ele>
        <time>2019-06-30T12:33:21.000Z</time>
      </trkpt>
      <trkpt lat="42.98157" lon="0.55628">
        <ele>836</ele>
        <time>2019-06-30T12:33:23.000Z</time>
      </trkpt>
      <trkpt lat="42.98157" lon="0.55628">
        <ele>836</ele>
        <time>2019-06-30T12:33:25.000Z</time>
      </trkpt>
      <trkpt lat="42.98157" lon="0.55627">
        <ele>836</ele>
        <time>2019-06-30T12:33:27.000Z</time>
      </trkpt>
      <trkpt lat="42.98157" lon="0.55627">
        <ele>836</ele>
        <time>2019-06-30T12:33:29.000Z</time>
      </trkpt>
      <trkpt lat="42.98156" lon="0.55628">
        <ele>836</ele>
        <time>2019-06-30T12:33:31.000Z</time>
      </trkpt>
      <trkpt lat="42.98155" lon="0.5563">
        <ele>836</ele>
        <time>2019-06-30T12:33:33.000Z</time>
      </trkpt>
      <trkpt lat="42.98155" lon="0.55631">
        <ele>836</ele>
        <time>2019-06-30T12:33:35.000Z</time>
      </trkpt>
      <trkpt lat="42.98154" lon="0.55633">
        <ele>835</ele>
        <time>2019-06-30T12:33:37.000Z</time>
      </trkpt>
      <trkpt lat="42.98155" lon="0.55635">
        <ele>835</ele>
        <time>2019-06-30T12:33:39.000Z</time>
      </trkpt>
      <trkpt lat="42.98155" lon="0.55636">
        <ele>835</ele>
        <time>2019-06-30T12:33:41.000Z</time>
      </trkpt>
      <trkpt lat="42.98154" lon="0.55637">
        <ele>834</ele>
        <time>2019-06-30T12:33:43.000Z</time>
      </trkpt>
      <trkpt lat="42.98154" lon="0.55638">
        <ele>834</ele>
        <time>2019-06-30T12:33:45.000Z</time>
      </trkpt>
      <trkpt lat="42.98155" lon="0.55639">
        <ele>834</ele>
        <time>2019-06-30T12:33:47.000Z</time>
      </trkpt>
      <trkpt lat="42.98155" lon="0.55639">
        <ele>834</ele>
        <time>2019-06-30T12:33:49.000Z</time>
      </trkpt>
      <trkpt lat="42.98154" lon="0.55641">
        <ele>833</ele>
        <time>2019-06-30T12:33:51.000Z</time>
      </trkpt>
      <trkpt lat="42.98154" lon="0.55641">
        <ele>833</ele>
        <time>2019-06-30T12:33:53.000Z</time>
      </trkpt>
      <trkpt lat="42.98154" lon="0.55646">
        <ele>832</ele>
        <time>2019-06-30T12:33:55.000Z</time>
      </trkpt>
      <trkpt lat="42.98154" lon="0.55649">
        <ele>831</ele>
        <time>2019-06-30T12:33:57.000Z</time>
      </trkpt>
      <trkpt lat="42.98154" lon="0.5565">
        <ele>831</ele>
        <time>2019-06-30T12:33:59.000Z</time>
      </trkpt>
      <trkpt lat="42.98153" lon="0.55649">
        <ele>831</ele>
        <time>2019-06-30T12:34:01.000Z</time>
      </trkpt>
      <trkpt lat="42.98152" lon="0.55647">
        <ele>832</ele>
        <time>2019-06-30T12:34:03.000Z</time>
      </trkpt>
      <trkpt lat="42.98151" lon="0.55645">
        <ele>833</ele>
        <time>2019-06-30T12:34:05.000Z</time>
      </trkpt>
      <trkpt lat="42.98151" lon="0.55645">
        <ele>833</ele>
        <time>2019-06-30T12:34:07.000Z</time>
      </trkpt>
      <trkpt lat="42.98151" lon="0.55645">
        <ele>833</ele>
        <time>2019-06-30T12:34:09.000Z</time>
      </trkpt>
      <trkpt lat="42.98151" lon="0.55645">
        <ele>833</ele>
        <time>2019-06-30T12:34:11.000Z</time>
      </trkpt>
      <trkpt lat="42.98152" lon="0.55644">
        <ele>833</ele>
        <time>2019-06-30T12:34:13.000Z</time>
      </trkpt>
      <trkpt lat="42.98151" lon="0.55644">
        <ele>833</ele>
        <time>2019-06-30T12:34:15.000Z</time>
      </trkpt>
      <trkpt lat="42.9815" lon="0.55645">
        <ele>833</ele>
        <time>2019-06-30T12:34:17.000Z</time>
      </trkpt>
      <trkpt lat="42.9815" lon="0.55646">
        <ele>833</ele>
        <time>2019-06-30T12:34:19.000Z</time>
      </trkpt>
      <trkpt lat="42.98149" lon="0.55647">
        <ele>833</ele>
        <time>2019-06-30T12:34:21.000Z</time>
      </trkpt>
      <trkpt lat="42.98149" lon="0.55648">
        <ele>833</ele>
        <time>2019-06-30T12:34:23.000Z</time>
      </trkpt>
      <trkpt lat="42.9815" lon="0.5565">
        <ele>832</ele>
        <time>2019-06-30T12:34:25.000Z</time>
      </trkpt>
      <trkpt lat="42.98151" lon="0.55652">
        <ele>831</ele>
        <time>2019-06-30T12:34:27.000Z</time>
      </trkpt>
      <trkpt lat="42.98153" lon="0.55654">
        <ele>830</ele>
        <time>2019-06-30T12:34:29.000Z</time>
      </trkpt>
      <trkpt lat="42.98153" lon="0.55656">
        <ele>829</ele>
        <time>2019-06-30T12:34:31.000Z</time>
      </trkpt>
      <trkpt lat="42.98154" lon="0.55657">
        <ele>828</ele>
        <time>2019-06-30T12:34:33.000Z</time>
      </trkpt>
      <trkpt lat="42.98155" lon="0.55658">
        <ele>828</ele>
        <time>2019-06-30T12:34:35.000Z</time>
      </trkpt>
      <trkpt lat="42.98155" lon="0.5566">
        <ele>827</ele>
        <time>2019-06-30T12:34:37.000Z</time>
      </trkpt>
      <trkpt lat="42.98155" lon="0.55662">
        <ele>826</ele>
        <time>2019-06-30T12:34:39.000Z</time>
      </trkpt>
      <trkpt lat="42.98156" lon="0.55663">
        <ele>826</ele>
        <time>2019-06-30T12:34:41.000Z</time>
      </trkpt>
      <trkpt lat="42.98156" lon="0.55664">
        <ele>826</ele>
        <time>2019-06-30T12:34:43.000Z</time>
      </trkpt>
      <trkpt lat="42.98156" lon="0.55664">
        <ele>826</ele>
        <time>2019-06-30T12:34:45.000Z</time>
      </trkpt>
      <trkpt lat="42.98155" lon="0.55665">
        <ele>826</ele>
        <time>2019-06-30T12:34:47.000Z</time>
      </trkpt>
      <trkpt lat="42.98154" lon="0.55666">
        <ele>826</ele>
        <time>2019-06-30T12:34:49.000Z</time>
      </trkpt>
      <trkpt lat="42.98153" lon="0.55667">
        <ele>826</ele>
        <time>2019-06-30T12:34:51.000Z</time>
      </trkpt>
      <trkpt lat="42.98152" lon="0.55667">
        <ele>826</ele>
        <time>2019-06-30T12:34:53.000Z</time>
      </trkpt>
      <trkpt lat="42.98152" lon="0.55667">
        <ele>826</ele>
        <time>2019-06-30T12:34:55.000Z</time>
      </trkpt>
      <trkpt lat="42.98151" lon="0.55666">
        <ele>827</ele>
        <time>2019-06-30T12:34:57.000Z</time>
      </trkpt>
      <trkpt lat="42.9815" lon="0.55665">
        <ele>828</ele>
        <time>2019-06-30T12:34:59.000Z</time>
      </trkpt>
      <trkpt lat="42.98149" lon="0.55665">
        <ele>828</ele>
        <time>2019-06-30T12:35:01.000Z</time>
      </trkpt>
      <trkpt lat="42.98148" lon="0.55664">
        <ele>829</ele>
        <time>2019-06-30T12:35:03.000Z</time>
      </trkpt>
      <trkpt lat="42.98148" lon="0.55664">
        <ele>829</ele>
        <time>2019-06-30T12:35:05.000Z</time>
      </trkpt>
      <trkpt lat="42.98147" lon="0.55663">
        <ele>829</ele>
        <time>2019-06-30T12:35:07.000Z</time>
      </trkpt>
      <trkpt lat="42.98147" lon="0.55661">
        <ele>830</ele>
        <time>2019-06-30T12:35:09.000Z</time>
      </trkpt>
      <trkpt lat="42.98147" lon="0.5566">
        <ele>830</ele>
        <time>2019-06-30T12:35:11.000Z</time>
      </trkpt>
      <trkpt lat="42.98147" lon="0.55659">
        <ele>831</ele>
        <time>2019-06-30T12:35:13.000Z</time>
      </trkpt>
      <trkpt lat="42.98148" lon="0.55658">
        <ele>831</ele>
        <time>2019-06-30T12:35:15.000Z</time>
      </trkpt>
      <trkpt lat="42.98148" lon="0.55658">
        <ele>830</ele>
        <time>2019-06-30T12:35:17.000Z</time>
      </trkpt>
      <trkpt lat="42.98148" lon="0.55658">
        <ele>831</ele>
        <time>2019-06-30T12:35:19.000Z</time>
      </trkpt>
      <trkpt lat="42.98148" lon="0.55658">
        <ele>830</ele>
        <time>2019-06-30T12:35:21.000Z</time>
      </trkpt>
      <trkpt lat="42.98148" lon="0.55657">
        <ele>831</ele>
        <time>2019-06-30T12:35:23.000Z</time>
      </trkpt>
      <trkpt lat="42.98149" lon="0.55657">
        <ele>830</ele>
        <time>2019-06-30T12:35:25.000Z</time>
      </trkpt>
      <trkpt lat="42.98148" lon="0.55658">
        <ele>831</ele>
        <time>2019-06-30T12:35:27.000Z</time>
      </trkpt>
      <trkpt lat="42.98148" lon="0.55658">
        <ele>830</ele>
        <time>2019-06-30T12:35:29.000Z</time>
      </trkpt>
      <trkpt lat="42.98148" lon="0.55658">
        <ele>830</ele>
        <time>2019-06-30T12:35:31.000Z</time>
      </trkpt>
      <trkpt lat="42.98148" lon="0.55658">
        <ele>830</ele>
        <time>2019-06-30T12:35:33.000Z</time>
      </trkpt>
      <trkpt lat="42.98148" lon="0.55658">
        <ele>830</ele>
        <time>2019-06-30T12:35:35.000Z</time>
      </trkpt>
      <trkpt lat="42.98148" lon="0.55658">
        <ele>830</ele>
        <time>2019-06-30T12:35:37.000Z</time>
      </trkpt>
      <trkpt lat="42.98148" lon="0.55658">
        <ele>831</ele>
        <time>2019-06-30T12:35:39.000Z</time>
      </trkpt>
      <trkpt lat="42.98148" lon="0.55658">
        <ele>831</ele>
        <time>2019-06-30T12:35:41.000Z</time>
      </trkpt>
      <trkpt lat="42.98147" lon="0.55657">
        <ele>831</ele>
        <time>2019-06-30T12:35:43.000Z</time>
      </trkpt>
      <trkpt lat="42.98146" lon="0.55656">
        <ele>832</ele>
        <time>2019-06-30T12:35:45.000Z</time>
      </trkpt>
      <trkpt lat="42.98146" lon="0.55655">
        <ele>832</ele>
        <time>2019-06-30T12:35:47.000Z</time>
      </trkpt>
      <trkpt lat="42.98146" lon="0.55655">
        <ele>832</ele>
        <time>2019-06-30T12:35:49.000Z</time>
      </trkpt>
      <trkpt lat="42.98145" lon="0.55655">
        <ele>833</ele>
        <time>2019-06-30T12:35:51.000Z</time>
      </trkpt>
      <trkpt lat="42.98145" lon="0.55655">
        <ele>832</ele>
        <time>2019-06-30T12:35:53.000Z</time>
      </trkpt>
      <trkpt lat="42.98145" lon="0.55655">
        <ele>833</ele>
        <time>2019-06-30T12:35:55.000Z</time>
      </trkpt>
      <trkpt lat="42.98144" lon="0.55655">
        <ele>833</ele>
        <time>2019-06-30T12:35:57.000Z</time>
      </trkpt>
      <trkpt lat="42.98144" lon="0.55656">
        <ele>833</ele>
        <time>2019-06-30T12:35:59.000Z</time>
      </trkpt>
      <trkpt lat="42.98144" lon="0.55656">
        <ele>833</ele>
        <time>2019-06-30T12:36:01.000Z</time>
      </trkpt>
      <trkpt lat="42.98144" lon="0.55656">
        <ele>833</ele>
        <time>2019-06-30T12:36:03.000Z</time>
      </trkpt>
      <trkpt lat="42.98143" lon="0.55657">
        <ele>833</ele>
        <time>2019-06-30T12:36:05.000Z</time>
      </trkpt>
      <trkpt lat="42.98143" lon="0.55657">
        <ele>833</ele>
        <time>2019-06-30T12:36:07.000Z</time>
      </trkpt>
      <trkpt lat="42.98143" lon="0.55657">
        <ele>833</ele>
        <time>2019-06-30T12:36:09.000Z</time>
      </trkpt>
      <trkpt lat="42.98143" lon="0.55657">
        <ele>833</ele>
        <time>2019-06-30T12:36:11.000Z</time>
      </trkpt>
      <trkpt lat="42.98143" lon="0.55657">
        <ele>833</ele>
        <time>2019-06-30T12:36:13.000Z</time>
      </trkpt>
      <trkpt lat="42.98143" lon="0.55657">
        <ele>833</ele>
        <time>2019-06-30T12:36:15.000Z</time>
      </trkpt>
      <trkpt lat="42.98143" lon="0.55657">
        <ele>833</ele>
        <time>2019-06-30T12:36:17.000Z</time>
      </trkpt>
      <trkpt lat="42.98143" lon="0.55656">
        <ele>833</ele>
        <time>2019-06-30T12:36:19.000Z</time>
      </trkpt>
      <trkpt lat="42.98143" lon="0.55656">
        <ele>833</ele>
        <time>2019-06-30T12:36:21.000Z</time>
      </trkpt>
      <trkpt lat="42.98143" lon="0.55656">
        <ele>833</ele>
        <time>2019-06-30T12:36:23.000Z</time>
      </trkpt>
      <trkpt lat="42.98142" lon="0.55655">
        <ele>834</ele>
        <time>2019-06-30T12:36:25.000Z</time>
      </trkpt>
      <trkpt lat="42.98142" lon="0.55655">
        <ele>834</ele>
        <time>2019-06-30T12:36:27.000Z</time>
      </trkpt>
      <trkpt lat="42.98141" lon="0.55654">
        <ele>834</ele>
        <time>2019-06-30T12:36:29.000Z</time>
      </trkpt>
      <trkpt lat="42.9814" lon="0.55654">
        <ele>835</ele>
        <time>2019-06-30T12:36:31.000Z</time>
      </trkpt>
      <trkpt lat="42.9814" lon="0.55653">
        <ele>835</ele>
        <time>2019-06-30T12:36:33.000Z</time>
      </trkpt>
      <trkpt lat="42.98139" lon="0.55652">
        <ele>836</ele>
        <time>2019-06-30T12:36:35.000Z</time>
      </trkpt>
      <trkpt lat="42.98139" lon="0.55651">
        <ele>836</ele>
        <time>2019-06-30T12:36:37.000Z</time>
      </trkpt>
      <trkpt lat="42.98139" lon="0.55651">
        <ele>836</ele>
        <time>2019-06-30T12:36:39.000Z</time>
      </trkpt>
      <trkpt lat="42.98139" lon="0.5565">
        <ele>836</ele>
        <time>2019-06-30T12:36:41.000Z</time>
      </trkpt>
      <trkpt lat="42.98139" lon="0.5565">
        <ele>836</ele>
        <time>2019-06-30T12:36:43.000Z</time>
      </trkpt>
      <trkpt lat="42.9814" lon="0.5565">
        <ele>836</ele>
        <time>2019-06-30T12:36:45.000Z</time>
      </trkpt>
      <trkpt lat="42.9814" lon="0.5565">
        <ele>836</ele>
        <time>2019-06-30T12:36:47.000Z</time>
      </trkpt>
      <trkpt lat="42.98141" lon="0.5565">
        <ele>836</ele>
        <time>2019-06-30T12:36:49.000Z</time>
      </trkpt>
      <trkpt lat="42.98141" lon="0.55649">
        <ele>836</ele>
        <time>2019-06-30T12:36:51.000Z</time>
      </trkpt>
      <trkpt lat="42.98142" lon="0.55649">
        <ele>836</ele>
        <time>2019-06-30T12:36:53.000Z</time>
      </trkpt>
      <trkpt lat="42.98142" lon="0.55649">
        <ele>835</ele>
        <time>2019-06-30T12:36:55.000Z</time>
      </trkpt>
      <trkpt lat="42.98143" lon="0.5565">
        <ele>835</ele>
        <time>2019-06-30T12:36:57.000Z</time>
      </trkpt>
      <trkpt lat="42.98143" lon="0.5565">
        <ele>835</ele>
        <time>2019-06-30T12:36:59.000Z</time>
      </trkpt>
      <trkpt lat="42.98143" lon="0.55651">
        <ele>835</ele>
        <time>2019-06-30T12:37:01.000Z</time>
      </trkpt>
      <trkpt lat="42.98143" lon="0.55652">
        <ele>834</ele>
        <time>2019-06-30T12:37:03.000Z</time>
      </trkpt>
      <trkpt lat="42.98143" lon="0.55652">
        <ele>834</ele>
        <time>2019-06-30T12:37:05.000Z</time>
      </trkpt>
      <trkpt lat="42.98144" lon="0.55653">
        <ele>833</ele>
        <time>2019-06-30T12:37:07.000Z</time>
      </trkpt>
      <trkpt lat="42.98145" lon="0.55654">
        <ele>833</ele>
        <time>2019-06-30T12:37:09.000Z</time>
      </trkpt>
      <trkpt lat="42.98146" lon="0.55653">
        <ele>833</ele>
        <time>2019-06-30T12:37:11.000Z</time>
      </trkpt>
      <trkpt lat="42.98147" lon="0.55652">
        <ele>833</ele>
        <time>2019-06-30T12:37:13.000Z</time>
      </trkpt>
      <trkpt lat="42.98147" lon="0.55652">
        <ele>833</ele>
        <time>2019-06-30T12:37:15.000Z</time>
      </trkpt>
      <trkpt lat="42.98147" lon="0.55653">
        <ele>833</ele>
        <time>2019-06-30T12:37:17.000Z</time>
      </trkpt>
      <trkpt lat="42.98147" lon="0.55653">
        <ele>833</ele>
        <time>2019-06-30T12:37:19.000Z</time>
      </trkpt>
      <trkpt lat="42.98147" lon="0.55653">
        <ele>832</ele>
        <time>2019-06-30T12:37:21.000Z</time>
      </trkpt>
      <trkpt lat="42.98146" lon="0.55653">
        <ele>833</ele>
        <time>2019-06-30T12:37:23.000Z</time>
      </trkpt>
      <trkpt lat="42.98146" lon="0.55654">
        <ele>832</ele>
        <time>2019-06-30T12:37:25.000Z</time>
      </trkpt>
      <trkpt lat="42.98145" lon="0.55656">
        <ele>832</ele>
        <time>2019-06-30T12:37:27.000Z</time>
      </trkpt>
      <trkpt lat="42.98145" lon="0.55656">
        <ele>832</ele>
        <time>2019-06-30T12:37:29.000Z</time>
      </trkpt>
      <trkpt lat="42.98145" lon="0.55657">
        <ele>832</ele>
        <time>2019-06-30T12:37:31.000Z</time>
      </trkpt>
      <trkpt lat="42.98144" lon="0.55657">
        <ele>832</ele>
        <time>2019-06-30T12:37:33.000Z</time>
      </trkpt>
      <trkpt lat="42.98144" lon="0.55658">
        <ele>832</ele>
        <time>2019-06-30T12:37:35.000Z</time>
      </trkpt>
      <trkpt lat="42.98143" lon="0.55657">
        <ele>833</ele>
        <time>2019-06-30T12:37:37.000Z</time>
      </trkpt>
      <trkpt lat="42.98143" lon="0.55657">
        <ele>833</ele>
        <time>2019-06-30T12:37:39.000Z</time>
      </trkpt>
      <trkpt lat="42.98143" lon="0.55657">
        <ele>833</ele>
        <time>2019-06-30T12:37:41.000Z</time>
      </trkpt>
      <trkpt lat="42.98142" lon="0.55657">
        <ele>833</ele>
        <time>2019-06-30T12:37:43.000Z</time>
      </trkpt>
      <trkpt lat="42.98142" lon="0.55656">
        <ele>833</ele>
        <time>2019-06-30T12:37:45.000Z</time>
      </trkpt>
      <trkpt lat="42.98143" lon="0.55655">
        <ele>834</ele>
        <time>2019-06-30T12:37:47.000Z</time>
      </trkpt>
      <trkpt lat="42.98143" lon="0.55655">
        <ele>833</ele>
        <time>2019-06-30T12:37:49.000Z</time>
      </trkpt>
      <trkpt lat="42.98143" lon="0.55654">
        <ele>834</ele>
        <time>2019-06-30T12:37:51.000Z</time>
      </trkpt>
      <trkpt lat="42.98144" lon="0.55654">
        <ele>834</ele>
        <time>2019-06-30T12:37:53.000Z</time>
      </trkpt>
      <trkpt lat="42.98144" lon="0.55653">
        <ele>834</ele>
        <time>2019-06-30T12:37:55.000Z</time>
      </trkpt>
      <trkpt lat="42.98144" lon="0.55653">
        <ele>833</ele>
        <time>2019-06-30T12:37:57.000Z</time>
      </trkpt>
      <trkpt lat="42.98144" lon="0.55653">
        <ele>833</ele>
        <time>2019-06-30T12:37:59.000Z</time>
      </trkpt>
      <trkpt lat="42.98145" lon="0.55654">
        <ele>833</ele>
        <time>2019-06-30T12:38:01.000Z</time>
      </trkpt>
      <trkpt lat="42.98144" lon="0.55653">
        <ele>833</ele>
        <time>2019-06-30T12:38:03.000Z</time>
      </trkpt>
      <trkpt lat="42.98144" lon="0.55653">
        <ele>833</ele>
        <time>2019-06-30T12:38:05.000Z</time>
      </trkpt>
      <trkpt lat="42.98143" lon="0.55652">
        <ele>834</ele>
        <time>2019-06-30T12:38:07.000Z</time>
      </trkpt>
      <trkpt lat="42.98143" lon="0.55651">
        <ele>834</ele>
        <time>2019-06-30T12:38:09.000Z</time>
      </trkpt>
      <trkpt lat="42.98142" lon="0.55651">
        <ele>835</ele>
        <time>2019-06-30T12:38:11.000Z</time>
      </trkpt>
      <trkpt lat="42.98142" lon="0.5565">
        <ele>835</ele>
        <time>2019-06-30T12:38:13.000Z</time>
      </trkpt>
      <trkpt lat="42.98142" lon="0.55649">
        <ele>836</ele>
        <time>2019-06-30T12:38:15.000Z</time>
      </trkpt>
      <trkpt lat="42.98142" lon="0.55648">
        <ele>836</ele>
        <time>2019-06-30T12:38:17.000Z</time>
      </trkpt>
      <trkpt lat="42.98142" lon="0.55647">
        <ele>836</ele>
        <time>2019-06-30T12:38:19.000Z</time>
      </trkpt>
      <trkpt lat="42.98142" lon="0.55645">
        <ele>837</ele>
        <time>2019-06-30T12:38:21.000Z</time>
      </trkpt>
      <trkpt lat="42.98142" lon="0.55644">
        <ele>837</ele>
        <time>2019-06-30T12:38:23.000Z</time>
      </trkpt>
      <trkpt lat="42.98142" lon="0.55642">
        <ele>837</ele>
        <time>2019-06-30T12:38:25.000Z</time>
      </trkpt>
      <trkpt lat="42.98143" lon="0.55642">
        <ele>837</ele>
        <time>2019-06-30T12:38:27.000Z</time>
      </trkpt>
      <trkpt lat="42.98143" lon="0.55642">
        <ele>837</ele>
        <time>2019-06-30T12:38:29.000Z</time>
      </trkpt>
      <trkpt lat="42.98144" lon="0.55642">
        <ele>837</ele>
        <time>2019-06-30T12:38:31.000Z</time>
      </trkpt>
      <trkpt lat="42.98145" lon="0.55642">
        <ele>837</ele>
        <time>2019-06-30T12:38:33.000Z</time>
      </trkpt>
      <trkpt lat="42.98145" lon="0.55642">
        <ele>837</ele>
        <time>2019-06-30T12:38:35.000Z</time>
      </trkpt>
      <trkpt lat="42.98145" lon="0.55641">
        <ele>836</ele>
        <time>2019-06-30T12:38:37.000Z</time>
      </trkpt>
      <trkpt lat="42.98146" lon="0.55641">
        <ele>836</ele>
        <time>2019-06-30T12:38:39.000Z</time>
      </trkpt>
      <trkpt lat="42.98147" lon="0.55641">
        <ele>836</ele>
        <time>2019-06-30T12:38:41.000Z</time>
      </trkpt>
      <trkpt lat="42.98147" lon="0.55641">
        <ele>836</ele>
        <time>2019-06-30T12:38:43.000Z</time>
      </trkpt>
      <trkpt lat="42.98147" lon="0.55641">
        <ele>836</ele>
        <time>2019-06-30T12:38:45.000Z</time>
      </trkpt>
      <trkpt lat="42.98147" lon="0.55642">
        <ele>836</ele>
        <time>2019-06-30T12:38:47.000Z</time>
      </trkpt>
      <trkpt lat="42.98147" lon="0.55643">
        <ele>835</ele>
        <time>2019-06-30T12:38:49.000Z</time>
      </trkpt>
      <trkpt lat="42.98148" lon="0.55643">
        <ele>835</ele>
        <time>2019-06-30T12:38:51.000Z</time>
      </trkpt>
      <trkpt lat="42.98148" lon="0.55643">
        <ele>835</ele>
        <time>2019-06-30T12:38:53.000Z</time>
      </trkpt>
      <trkpt lat="42.98148" lon="0.55644">
        <ele>835</ele>
        <time>2019-06-30T12:38:55.000Z</time>
      </trkpt>
      <trkpt lat="42.98148" lon="0.55644">
        <ele>835</ele>
        <time>2019-06-30T12:38:57.000Z</time>
      </trkpt>
      <trkpt lat="42.98149" lon="0.55645">
        <ele>834</ele>
        <time>2019-06-30T12:38:59.000Z</time>
      </trkpt>
      <trkpt lat="42.98148" lon="0.55646">
        <ele>834</ele>
        <time>2019-06-30T12:39:01.000Z</time>
      </trkpt>
      <trkpt lat="42.98148" lon="0.55647">
        <ele>834</ele>
        <time>2019-06-30T12:39:03.000Z</time>
      </trkpt>
      <trkpt lat="42.98148" lon="0.55648">
        <ele>834</ele>
        <time>2019-06-30T12:39:05.000Z</time>
      </trkpt>
      <trkpt lat="42.98148" lon="0.55648">
        <ele>833</ele>
        <time>2019-06-30T12:39:07.000Z</time>
      </trkpt>
      <trkpt lat="42.98148" lon="0.55649">
        <ele>833</ele>
        <time>2019-06-30T12:39:09.000Z</time>
      </trkpt>
      <trkpt lat="42.98147" lon="0.5565">
        <ele>833</ele>
        <time>2019-06-30T12:39:11.000Z</time>
      </trkpt>
      <trkpt lat="42.98147" lon="0.55651">
        <ele>833</ele>
        <time>2019-06-30T12:39:13.000Z</time>
      </trkpt>
      <trkpt lat="42.98147" lon="0.55652">
        <ele>833</ele>
        <time>2019-06-30T12:39:15.000Z</time>
      </trkpt>
      <trkpt lat="42.98147" lon="0.55652">
        <ele>833</ele>
        <time>2019-06-30T12:39:17.000Z</time>
      </trkpt>
      <trkpt lat="42.98147" lon="0.55652">
        <ele>833</ele>
        <time>2019-06-30T12:39:19.000Z</time>
      </trkpt>
      <trkpt lat="42.98147" lon="0.55653">
        <ele>833</ele>
        <time>2019-06-30T12:39:21.000Z</time>
      </trkpt>
      <trkpt lat="42.98146" lon="0.55654">
        <ele>833</ele>
        <time>2019-06-30T12:39:23.000Z</time>
      </trkpt>
      <trkpt lat="42.98145" lon="0.55654">
        <ele>833</ele>
        <time>2019-06-30T12:39:25.000Z</time>
      </trkpt>
      <trkpt lat="42.98145" lon="0.55654">
        <ele>833</ele>
        <time>2019-06-30T12:39:27.000Z</time>
      </trkpt>
      <trkpt lat="42.98145" lon="0.55655">
        <ele>832</ele>
        <time>2019-06-30T12:39:29.000Z</time>
      </trkpt>
      <trkpt lat="42.98145" lon="0.55656">
        <ele>832</ele>
        <time>2019-06-30T12:39:31.000Z</time>
      </trkpt>
      <trkpt lat="42.98144" lon="0.55656">
        <ele>833</ele>
        <time>2019-06-30T12:39:33.000Z</time>
      </trkpt>
      <trkpt lat="42.98144" lon="0.55656">
        <ele>833</ele>
        <time>2019-06-30T12:39:35.000Z</time>
      </trkpt>
      <trkpt lat="42.98143" lon="0.55656">
        <ele>833</ele>
        <time>2019-06-30T12:39:37.000Z</time>
      </trkpt>
      <trkpt lat="42.98143" lon="0.55656">
        <ele>833</ele>
        <time>2019-06-30T12:39:39.000Z</time>
      </trkpt>
      <trkpt lat="42.98143" lon="0.55656">
        <ele>833</ele>
        <time>2019-06-30T12:39:41.000Z</time>
      </trkpt>
      <trkpt lat="42.98143" lon="0.55655">
        <ele>833</ele>
        <time>2019-06-30T12:39:43.000Z</time>
      </trkpt>
      <trkpt lat="42.98142" lon="0.55655">
        <ele>834</ele>
        <time>2019-06-30T12:39:45.000Z</time>
      </trkpt>
      <trkpt lat="42.98142" lon="0.55655">
        <ele>834</ele>
        <time>2019-06-30T12:39:47.000Z</time>
      </trkpt>
      <trkpt lat="42.98142" lon="0.55654">
        <ele>834</ele>
        <time>2019-06-30T12:39:49.000Z</time>
      </trkpt>
      <trkpt lat="42.98142" lon="0.55651">
        <ele>835</ele>
        <time>2019-06-30T12:39:51.000Z</time>
      </trkpt>
      <trkpt lat="42.98143" lon="0.55649">
        <ele>835</ele>
        <time>2019-06-30T12:39:53.000Z</time>
      </trkpt>
      <trkpt lat="42.98144" lon="0.55647">
        <ele>835</ele>
        <time>2019-06-30T12:39:55.000Z</time>
      </trkpt>
      <trkpt lat="42.98144" lon="0.55647">
        <ele>835</ele>
        <time>2019-06-30T12:39:57.000Z</time>
      </trkpt>
      <trkpt lat="42.98144" lon="0.55647">
        <ele>835</ele>
        <time>2019-06-30T12:39:59.000Z</time>
      </trkpt>
      <trkpt lat="42.98144" lon="0.55648">
        <ele>835</ele>
        <time>2019-06-30T12:40:01.000Z</time>
      </trkpt>
      <trkpt lat="42.98145" lon="0.55648">
        <ele>835</ele>
        <time>2019-06-30T12:40:03.000Z</time>
      </trkpt>
      <trkpt lat="42.98145" lon="0.55649">
        <ele>834</ele>
        <time>2019-06-30T12:40:05.000Z</time>
      </trkpt>
      <trkpt lat="42.98146" lon="0.55649">
        <ele>834</ele>
        <time>2019-06-30T12:40:07.000Z</time>
      </trkpt>
      <trkpt lat="42.98146" lon="0.55648">
        <ele>834</ele>
        <time>2019-06-30T12:40:09.000Z</time>
      </trkpt>
      <trkpt lat="42.98146" lon="0.55647">
        <ele>834</ele>
        <time>2019-06-30T12:40:11.000Z</time>
      </trkpt>
      <trkpt lat="42.98147" lon="0.55647">
        <ele>834</ele>
        <time>2019-06-30T12:40:13.000Z</time>
      </trkpt>
      <trkpt lat="42.98147" lon="0.55646">
        <ele>835</ele>
        <time>2019-06-30T12:40:15.000Z</time>
      </trkpt>
      <trkpt lat="42.98148" lon="0.55646">
        <ele>834</ele>
        <time>2019-06-30T12:40:17.000Z</time>
      </trkpt>
      <trkpt lat="42.98147" lon="0.55647">
        <ele>834</ele>
        <time>2019-06-30T12:40:19.000Z</time>
      </trkpt>
      <trkpt lat="42.98148" lon="0.55647">
        <ele>834</ele>
        <time>2019-06-30T12:40:21.000Z</time>
      </trkpt>
      <trkpt lat="42.98148" lon="0.55647">
        <ele>834</ele>
        <time>2019-06-30T12:40:23.000Z</time>
      </trkpt>
      <trkpt lat="42.98148" lon="0.55647">
        <ele>834</ele>
        <time>2019-06-30T12:40:25.000Z</time>
      </trkpt>
      <trkpt lat="42.98148" lon="0.55648">
        <ele>833</ele>
        <time>2019-06-30T12:40:27.000Z</time>
      </trkpt>
      <trkpt lat="42.98148" lon="0.55649">
        <ele>833</ele>
        <time>2019-06-30T12:40:29.000Z</time>
      </trkpt>
      <trkpt lat="42.98148" lon="0.55648">
        <ele>834</ele>
        <time>2019-06-30T12:40:31.000Z</time>
      </trkpt>
      <trkpt lat="42.98147" lon="0.55648">
        <ele>834</ele>
        <time>2019-06-30T12:40:33.000Z</time>
      </trkpt>
      <trkpt lat="42.98147" lon="0.55647">
        <ele>834</ele>
        <time>2019-06-30T12:40:35.000Z</time>
      </trkpt>
      <trkpt lat="42.98147" lon="0.55646">
        <ele>834</ele>
        <time>2019-06-30T12:40:37.000Z</time>
      </trkpt>
      <trkpt lat="42.98146" lon="0.55647">
        <ele>835</ele>
        <time>2019-06-30T12:40:39.000Z</time>
      </trkpt>
      <trkpt lat="42.98145" lon="0.55646">
        <ele>835</ele>
        <time>2019-06-30T12:40:41.000Z</time>
      </trkpt>
      <trkpt lat="42.98144" lon="0.55646">
        <ele>836</ele>
        <time>2019-06-30T12:40:43.000Z</time>
      </trkpt>
      <trkpt lat="42.98144" lon="0.55645">
        <ele>836</ele>
        <time>2019-06-30T12:40:45.000Z</time>
      </trkpt>
      <trkpt lat="42.98143" lon="0.55645">
        <ele>836</ele>
        <time>2019-06-30T12:40:47.000Z</time>
      </trkpt>
      <trkpt lat="42.98142" lon="0.55644">
        <ele>837</ele>
        <time>2019-06-30T12:40:49.000Z</time>
      </trkpt>
      <trkpt lat="42.98141" lon="0.55643">
        <ele>838</ele>
        <time>2019-06-30T12:40:51.000Z</time>
      </trkpt>
      <trkpt lat="42.9814" lon="0.55643">
        <ele>838</ele>
        <time>2019-06-30T12:40:53.000Z</time>
      </trkpt>
      <trkpt lat="42.98139" lon="0.55643">
        <ele>839</ele>
        <time>2019-06-30T12:40:55.000Z</time>
      </trkpt>
      <trkpt lat="42.98138" lon="0.55643">
        <ele>839</ele>
        <time>2019-06-30T12:40:57.000Z</time>
      </trkpt>
      <trkpt lat="42.98138" lon="0.55642">
        <ele>839</ele>
        <time>2019-06-30T12:40:59.000Z</time>
      </trkpt>
      <trkpt lat="42.98137" lon="0.55643">
        <ele>839</ele>
        <time>2019-06-30T12:41:01.000Z</time>
      </trkpt>
      <trkpt lat="42.98138" lon="0.55643">
        <ele>839</ele>
        <time>2019-06-30T12:41:03.000Z</time>
      </trkpt>
      <trkpt lat="42.98138" lon="0.55645">
        <ele>838</ele>
        <time>2019-06-30T12:41:05.000Z</time>
      </trkpt>
      <trkpt lat="42.98138" lon="0.55646">
        <ele>838</ele>
        <time>2019-06-30T12:41:07.000Z</time>
      </trkpt>
      <trkpt lat="42.9814" lon="0.55647">
        <ele>837</ele>
        <time>2019-06-30T12:41:09.000Z</time>
      </trkpt>
      <trkpt lat="42.9814" lon="0.55648">
        <ele>836</ele>
        <time>2019-06-30T12:41:11.000Z</time>
      </trkpt>
      <trkpt lat="42.98141" lon="0.55649">
        <ele>836</ele>
        <time>2019-06-30T12:41:13.000Z</time>
      </trkpt>
      <trkpt lat="42.98141" lon="0.55651">
        <ele>835</ele>
        <time>2019-06-30T12:41:15.000Z</time>
      </trkpt>
      <trkpt lat="42.98141" lon="0.55653">
        <ele>835</ele>
        <time>2019-06-30T12:41:17.000Z</time>
      </trkpt>
      <trkpt lat="42.98141" lon="0.55655">
        <ele>834</ele>
        <time>2019-06-30T12:41:19.000Z</time>
      </trkpt>
      <trkpt lat="42.98141" lon="0.55657">
        <ele>834</ele>
        <time>2019-06-30T12:41:21.000Z</time>
      </trkpt>
      <trkpt lat="42.98141" lon="0.55659">
        <ele>833</ele>
        <time>2019-06-30T12:41:23.000Z</time>
      </trkpt>
      <trkpt lat="42.98142" lon="0.55662">
        <ele>832</ele>
        <time>2019-06-30T12:41:25.000Z</time>
      </trkpt>
      <trkpt lat="42.98142" lon="0.55664">
        <ele>831</ele>
        <time>2019-06-30T12:41:27.000Z</time>
      </trkpt>
      <trkpt lat="42.98142" lon="0.55666">
        <ele>830</ele>
        <time>2019-06-30T12:41:29.000Z</time>
      </trkpt>
      <trkpt lat="42.98142" lon="0.55668">
        <ele>830</ele>
        <time>2019-06-30T12:41:31.000Z</time>
      </trkpt>
      <trkpt lat="42.98142" lon="0.5567">
        <ele>829</ele>
        <time>2019-06-30T12:41:33.000Z</time>
      </trkpt>
      <trkpt lat="42.98143" lon="0.55672">
        <ele>829</ele>
        <time>2019-06-30T12:41:35.000Z</time>
      </trkpt>
      <trkpt lat="42.98143" lon="0.55674">
        <ele>828</ele>
        <time>2019-06-30T12:41:37.000Z</time>
      </trkpt>
      <trkpt lat="42.98143" lon="0.55676">
        <ele>827</ele>
        <time>2019-06-30T12:41:39.000Z</time>
      </trkpt>
      <trkpt lat="42.98142" lon="0.55678">
        <ele>827</ele>
        <time>2019-06-30T12:41:41.000Z</time>
      </trkpt>
      <trkpt lat="42.9814" lon="0.5568">
        <ele>827</ele>
        <time>2019-06-30T12:41:43.000Z</time>
      </trkpt>
      <trkpt lat="42.9814" lon="0.55682">
        <ele>827</ele>
        <time>2019-06-30T12:41:45.000Z</time>
      </trkpt>
      <trkpt lat="42.98139" lon="0.55683">
        <ele>827</ele>
        <time>2019-06-30T12:41:47.000Z</time>
      </trkpt>
      <trkpt lat="42.98138" lon="0.55686">
        <ele>826</ele>
        <time>2019-06-30T12:41:49.000Z</time>
      </trkpt>
      <trkpt lat="42.98138" lon="0.55688">
        <ele>826</ele>
        <time>2019-06-30T12:41:51.000Z</time>
      </trkpt>
      <trkpt lat="42.98138" lon="0.55689">
        <ele>826</ele>
        <time>2019-06-30T12:41:53.000Z</time>
      </trkpt>
      <trkpt lat="42.98137" lon="0.55692">
        <ele>826</ele>
        <time>2019-06-30T12:41:55.000Z</time>
      </trkpt>
      <trkpt lat="42.98137" lon="0.55695">
        <ele>825</ele>
        <time>2019-06-30T12:41:57.000Z</time>
      </trkpt>
      <trkpt lat="42.98136" lon="0.55698">
        <ele>825</ele>
        <time>2019-06-30T12:41:59.000Z</time>
      </trkpt>
      <trkpt lat="42.98136" lon="0.557">
        <ele>824</ele>
        <time>2019-06-30T12:42:01.000Z</time>
      </trkpt>
      <trkpt lat="42.98137" lon="0.55702">
        <ele>823</ele>
        <time>2019-06-30T12:42:03.000Z</time>
      </trkpt>
      <trkpt lat="42.98137" lon="0.55704">
        <ele>823</ele>
        <time>2019-06-30T12:42:05.000Z</time>
      </trkpt>
      <trkpt lat="42.98136" lon="0.55705">
        <ele>823</ele>
        <time>2019-06-30T12:42:07.000Z</time>
      </trkpt>
      <trkpt lat="42.98135" lon="0.55707">
        <ele>823</ele>
        <time>2019-06-30T12:42:09.000Z</time>
      </trkpt>
      <trkpt lat="42.98134" lon="0.55708">
        <ele>823</ele>
        <time>2019-06-30T12:42:11.000Z</time>
      </trkpt>
      <trkpt lat="42.98135" lon="0.5571">
        <ele>822</ele>
        <time>2019-06-30T12:42:13.000Z</time>
      </trkpt>
      <trkpt lat="42.98135" lon="0.55712">
        <ele>822</ele>
        <time>2019-06-30T12:42:15.000Z</time>
      </trkpt>
      <trkpt lat="42.98134" lon="0.55716">
        <ele>822</ele>
        <time>2019-06-30T12:42:17.000Z</time>
      </trkpt>
      <trkpt lat="42.98133" lon="0.55718">
        <ele>821</ele>
        <time>2019-06-30T12:42:19.000Z</time>
      </trkpt>
      <trkpt lat="42.98133" lon="0.55721">
        <ele>821</ele>
        <time>2019-06-30T12:42:21.000Z</time>
      </trkpt>
      <trkpt lat="42.98134" lon="0.55723">
        <ele>820</ele>
        <time>2019-06-30T12:42:23.000Z</time>
      </trkpt>
      <trkpt lat="42.98134" lon="0.55725">
        <ele>819</ele>
        <time>2019-06-30T12:42:25.000Z</time>
      </trkpt>
      <trkpt lat="42.98134" lon="0.55727">
        <ele>818</ele>
        <time>2019-06-30T12:42:27.000Z</time>
      </trkpt>
      <trkpt lat="42.98134" lon="0.5573">
        <ele>817</ele>
        <time>2019-06-30T12:42:29.000Z</time>
      </trkpt>
      <trkpt lat="42.98134" lon="0.55733">
        <ele>817</ele>
        <time>2019-06-30T12:42:31.000Z</time>
      </trkpt>
      <trkpt lat="42.98133" lon="0.55735">
        <ele>817</ele>
        <time>2019-06-30T12:42:33.000Z</time>
      </trkpt>
      <trkpt lat="42.98133" lon="0.55737">
        <ele>816</ele>
        <time>2019-06-30T12:42:35.000Z</time>
      </trkpt>
      <trkpt lat="42.98132" lon="0.5574">
        <ele>816</ele>
        <time>2019-06-30T12:42:37.000Z</time>
      </trkpt>
      <trkpt lat="42.98133" lon="0.55742">
        <ele>815</ele>
        <time>2019-06-30T12:42:39.000Z</time>
      </trkpt>
      <trkpt lat="42.98133" lon="0.55745">
        <ele>814</ele>
        <time>2019-06-30T12:42:41.000Z</time>
      </trkpt>
      <trkpt lat="42.98133" lon="0.55747">
        <ele>814</ele>
        <time>2019-06-30T12:42:43.000Z</time>
      </trkpt>
      <trkpt lat="42.98134" lon="0.55749">
        <ele>812</ele>
        <time>2019-06-30T12:42:45.000Z</time>
      </trkpt>
      <trkpt lat="42.98134" lon="0.55751">
        <ele>812</ele>
        <time>2019-06-30T12:42:47.000Z</time>
      </trkpt>
      <trkpt lat="42.98134" lon="0.55753">
        <ele>811</ele>
        <time>2019-06-30T12:42:49.000Z</time>
      </trkpt>
      <trkpt lat="42.98134" lon="0.55756">
        <ele>810</ele>
        <time>2019-06-30T12:42:51.000Z</time>
      </trkpt>
      <trkpt lat="42.98134" lon="0.55759">
        <ele>810</ele>
        <time>2019-06-30T12:42:53.000Z</time>
      </trkpt>
      <trkpt lat="42.98133" lon="0.55762">
        <ele>809</ele>
        <time>2019-06-30T12:42:55.000Z</time>
      </trkpt>
      <trkpt lat="42.98133" lon="0.55764">
        <ele>809</ele>
        <time>2019-06-30T12:42:57.000Z</time>
      </trkpt>
      <trkpt lat="42.98133" lon="0.55766">
        <ele>808</ele>
        <time>2019-06-30T12:42:59.000Z</time>
      </trkpt>
      <trkpt lat="42.98132" lon="0.55768">
        <ele>808</ele>
        <time>2019-06-30T12:43:01.000Z</time>
      </trkpt>
      <trkpt lat="42.98132" lon="0.5577">
        <ele>807</ele>
        <time>2019-06-30T12:43:03.000Z</time>
      </trkpt>
      <trkpt lat="42.98131" lon="0.55772">
        <ele>807</ele>
        <time>2019-06-30T12:43:05.000Z</time>
      </trkpt>
      <trkpt lat="42.9813" lon="0.55774">
        <ele>807</ele>
        <time>2019-06-30T12:43:07.000Z</time>
      </trkpt>
      <trkpt lat="42.98129" lon="0.55777">
        <ele>807</ele>
        <time>2019-06-30T12:43:09.000Z</time>
      </trkpt>
      <trkpt lat="42.98128" lon="0.55779">
        <ele>806</ele>
        <time>2019-06-30T12:43:11.000Z</time>
      </trkpt>
      <trkpt lat="42.98127" lon="0.55781">
        <ele>806</ele>
        <time>2019-06-30T12:43:13.000Z</time>
      </trkpt>
      <trkpt lat="42.98127" lon="0.55784">
        <ele>806</ele>
        <time>2019-06-30T12:43:15.000Z</time>
      </trkpt>
      <trkpt lat="42.98126" lon="0.55786">
        <ele>805</ele>
        <time>2019-06-30T12:43:17.000Z</time>
      </trkpt>
      <trkpt lat="42.98125" lon="0.55789">
        <ele>805</ele>
        <time>2019-06-30T12:43:19.000Z</time>
      </trkpt>
      <trkpt lat="42.98125" lon="0.55792">
        <ele>804</ele>
        <time>2019-06-30T12:43:21.000Z</time>
      </trkpt>
      <trkpt lat="42.98125" lon="0.55794">
        <ele>803</ele>
        <time>2019-06-30T12:43:23.000Z</time>
      </trkpt>
      <trkpt lat="42.98125" lon="0.55797">
        <ele>803</ele>
        <time>2019-06-30T12:43:25.000Z</time>
      </trkpt>
      <trkpt lat="42.98124" lon="0.55799">
        <ele>802</ele>
        <time>2019-06-30T12:43:27.000Z</time>
      </trkpt>
      <trkpt lat="42.98123" lon="0.558">
        <ele>802</ele>
        <time>2019-06-30T12:43:29.000Z</time>
      </trkpt>
      <trkpt lat="42.98121" lon="0.55803">
        <ele>802</ele>
        <time>2019-06-30T12:43:31.000Z</time>
      </trkpt>
      <trkpt lat="42.9812" lon="0.55805">
        <ele>802</ele>
        <time>2019-06-30T12:43:33.000Z</time>
      </trkpt>
      <trkpt lat="42.98119" lon="0.55807">
        <ele>802</ele>
        <time>2019-06-30T12:43:35.000Z</time>
      </trkpt>
      <trkpt lat="42.98118" lon="0.55809">
        <ele>802</ele>
        <time>2019-06-30T12:43:37.000Z</time>
      </trkpt>
      <trkpt lat="42.98117" lon="0.55812">
        <ele>802</ele>
        <time>2019-06-30T12:43:39.000Z</time>
      </trkpt>
      <trkpt lat="42.98116" lon="0.55814">
        <ele>802</ele>
        <time>2019-06-30T12:43:41.000Z</time>
      </trkpt>
      <trkpt lat="42.98115" lon="0.55817">
        <ele>801</ele>
        <time>2019-06-30T12:43:43.000Z</time>
      </trkpt>
      <trkpt lat="42.98115" lon="0.55819">
        <ele>801</ele>
        <time>2019-06-30T12:43:45.000Z</time>
      </trkpt>
      <trkpt lat="42.98114" lon="0.55822">
        <ele>800</ele>
        <time>2019-06-30T12:43:47.000Z</time>
      </trkpt>
      <trkpt lat="42.98114" lon="0.55824">
        <ele>800</ele>
        <time>2019-06-30T12:43:49.000Z</time>
      </trkpt>
      <trkpt lat="42.98114" lon="0.55826">
        <ele>799</ele>
        <time>2019-06-30T12:43:51.000Z</time>
      </trkpt>
      <trkpt lat="42.98114" lon="0.55829">
        <ele>799</ele>
        <time>2019-06-30T12:43:53.000Z</time>
      </trkpt>
      <trkpt lat="42.98114" lon="0.55832">
        <ele>798</ele>
        <time>2019-06-30T12:43:55.000Z</time>
      </trkpt>
      <trkpt lat="42.98114" lon="0.55834">
        <ele>797</ele>
        <time>2019-06-30T12:43:57.000Z</time>
      </trkpt>
      <trkpt lat="42.98113" lon="0.55837">
        <ele>797</ele>
        <time>2019-06-30T12:43:59.000Z</time>
      </trkpt>
      <trkpt lat="42.98113" lon="0.5584">
        <ele>796</ele>
        <time>2019-06-30T12:44:01.000Z</time>
      </trkpt>
      <trkpt lat="42.98112" lon="0.55842">
        <ele>796</ele>
        <time>2019-06-30T12:44:03.000Z</time>
      </trkpt>
      <trkpt lat="42.98111" lon="0.55845">
        <ele>795</ele>
        <time>2019-06-30T12:44:05.000Z</time>
      </trkpt>
      <trkpt lat="42.9811" lon="0.55848">
        <ele>795</ele>
        <time>2019-06-30T12:44:07.000Z</time>
      </trkpt>
      <trkpt lat="42.9811" lon="0.55851">
        <ele>794</ele>
        <time>2019-06-30T12:44:09.000Z</time>
      </trkpt>
      <trkpt lat="42.9811" lon="0.55853">
        <ele>794</ele>
        <time>2019-06-30T12:44:11.000Z</time>
      </trkpt>
      <trkpt lat="42.98108" lon="0.55856">
        <ele>793</ele>
        <time>2019-06-30T12:44:13.000Z</time>
      </trkpt>
      <trkpt lat="42.98107" lon="0.55859">
        <ele>793</ele>
        <time>2019-06-30T12:44:15.000Z</time>
      </trkpt>
      <trkpt lat="42.98107" lon="0.55861">
        <ele>793</ele>
        <time>2019-06-30T12:44:17.000Z</time>
      </trkpt>
      <trkpt lat="42.98108" lon="0.55864">
        <ele>792</ele>
        <time>2019-06-30T12:44:19.000Z</time>
      </trkpt>
      <trkpt lat="42.98106" lon="0.55868">
        <ele>791</ele>
        <time>2019-06-30T12:44:21.000Z</time>
      </trkpt>
      <trkpt lat="42.98106" lon="0.55871">
        <ele>790</ele>
        <time>2019-06-30T12:44:23.000Z</time>
      </trkpt>
      <trkpt lat="42.98106" lon="0.55873">
        <ele>790</ele>
        <time>2019-06-30T12:44:25.000Z</time>
      </trkpt>
      <trkpt lat="42.98105" lon="0.55875">
        <ele>790</ele>
        <time>2019-06-30T12:44:27.000Z</time>
      </trkpt>
      <trkpt lat="42.98103" lon="0.55878">
        <ele>790</ele>
        <time>2019-06-30T12:44:29.000Z</time>
      </trkpt>
      <trkpt lat="42.98103" lon="0.5588">
        <ele>789</ele>
        <time>2019-06-30T12:44:31.000Z</time>
      </trkpt>
      <trkpt lat="42.98102" lon="0.55882">
        <ele>789</ele>
        <time>2019-06-30T12:44:33.000Z</time>
      </trkpt>
      <trkpt lat="42.98102" lon="0.55885">
        <ele>789</ele>
        <time>2019-06-30T12:44:35.000Z</time>
      </trkpt>
      <trkpt lat="42.98101" lon="0.55887">
        <ele>788</ele>
        <time>2019-06-30T12:44:37.000Z</time>
      </trkpt>
      <trkpt lat="42.98101" lon="0.55889">
        <ele>788</ele>
        <time>2019-06-30T12:44:39.000Z</time>
      </trkpt>
      <trkpt lat="42.981" lon="0.5589">
        <ele>788</ele>
        <time>2019-06-30T12:44:41.000Z</time>
      </trkpt>
      <trkpt lat="42.98099" lon="0.55893">
        <ele>787</ele>
        <time>2019-06-30T12:44:43.000Z</time>
      </trkpt>
      <trkpt lat="42.98098" lon="0.55895">
        <ele>787</ele>
        <time>2019-06-30T12:44:45.000Z</time>
      </trkpt>
      <trkpt lat="42.98097" lon="0.55899">
        <ele>787</ele>
        <time>2019-06-30T12:44:47.000Z</time>
      </trkpt>
      <trkpt lat="42.98095" lon="0.55901">
        <ele>787</ele>
        <time>2019-06-30T12:44:49.000Z</time>
      </trkpt>
      <trkpt lat="42.98094" lon="0.55903">
        <ele>787</ele>
        <time>2019-06-30T12:44:51.000Z</time>
      </trkpt>
      <trkpt lat="42.98093" lon="0.55905">
        <ele>787</ele>
        <time>2019-06-30T12:44:53.000Z</time>
      </trkpt>
      <trkpt lat="42.98093" lon="0.55908">
        <ele>787</ele>
        <time>2019-06-30T12:44:55.000Z</time>
      </trkpt>
      <trkpt lat="42.98091" lon="0.55911">
        <ele>787</ele>
        <time>2019-06-30T12:44:57.000Z</time>
      </trkpt>
      <trkpt lat="42.9809" lon="0.55913">
        <ele>787</ele>
        <time>2019-06-30T12:44:59.000Z</time>
      </trkpt>
      <trkpt lat="42.98089" lon="0.55916">
        <ele>787</ele>
        <time>2019-06-30T12:45:01.000Z</time>
      </trkpt>
      <trkpt lat="42.98089" lon="0.55919">
        <ele>786</ele>
        <time>2019-06-30T12:45:03.000Z</time>
      </trkpt>
      <trkpt lat="42.98088" lon="0.55921">
        <ele>786</ele>
        <time>2019-06-30T12:45:05.000Z</time>
      </trkpt>
      <trkpt lat="42.98086" lon="0.55924">
        <ele>786</ele>
        <time>2019-06-30T12:45:07.000Z</time>
      </trkpt>
      <trkpt lat="42.98087" lon="0.55927">
        <ele>785</ele>
        <time>2019-06-30T12:45:09.000Z</time>
      </trkpt>
      <trkpt lat="42.98086" lon="0.5593">
        <ele>785</ele>
        <time>2019-06-30T12:45:11.000Z</time>
      </trkpt>
      <trkpt lat="42.98086" lon="0.55932">
        <ele>785</ele>
        <time>2019-06-30T12:45:13.000Z</time>
      </trkpt>
      <trkpt lat="42.98085" lon="0.55934">
        <ele>785</ele>
        <time>2019-06-30T12:45:15.000Z</time>
      </trkpt>
      <trkpt lat="42.98084" lon="0.55937">
        <ele>784</ele>
        <time>2019-06-30T12:45:17.000Z</time>
      </trkpt>
      <trkpt lat="42.98084" lon="0.55938">
        <ele>784</ele>
        <time>2019-06-30T12:45:19.000Z</time>
      </trkpt>
      <trkpt lat="42.98083" lon="0.5594">
        <ele>784</ele>
        <time>2019-06-30T12:45:21.000Z</time>
      </trkpt>
      <trkpt lat="42.98081" lon="0.5594">
        <ele>785</ele>
        <time>2019-06-30T12:45:23.000Z</time>
      </trkpt>
      <trkpt lat="42.9808" lon="0.55942">
        <ele>785</ele>
        <time>2019-06-30T12:45:25.000Z</time>
      </trkpt>
      <trkpt lat="42.98079" lon="0.55945">
        <ele>785</ele>
        <time>2019-06-30T12:45:27.000Z</time>
      </trkpt>
      <trkpt lat="42.98078" lon="0.55947">
        <ele>785</ele>
        <time>2019-06-30T12:45:29.000Z</time>
      </trkpt>
      <trkpt lat="42.98077" lon="0.5595">
        <ele>785</ele>
        <time>2019-06-30T12:45:31.000Z</time>
      </trkpt>
      <trkpt lat="42.98077" lon="0.55953">
        <ele>784</ele>
        <time>2019-06-30T12:45:33.000Z</time>
      </trkpt>
      <trkpt lat="42.98075" lon="0.55957">
        <ele>784</ele>
        <time>2019-06-30T12:45:35.000Z</time>
      </trkpt>
      <trkpt lat="42.98074" lon="0.5596">
        <ele>783</ele>
        <time>2019-06-30T12:45:37.000Z</time>
      </trkpt>
      <trkpt lat="42.98072" lon="0.55962">
        <ele>784</ele>
        <time>2019-06-30T12:45:39.000Z</time>
      </trkpt>
      <trkpt lat="42.98071" lon="0.55965">
        <ele>783</ele>
        <time>2019-06-30T12:45:41.000Z</time>
      </trkpt>
      <trkpt lat="42.98069" lon="0.55969">
        <ele>783</ele>
        <time>2019-06-30T12:45:43.000Z</time>
      </trkpt>
      <trkpt lat="42.98068" lon="0.55972">
        <ele>783</ele>
        <time>2019-06-30T12:45:45.000Z</time>
      </trkpt>
      <trkpt lat="42.98067" lon="0.55974">
        <ele>783</ele>
        <time>2019-06-30T12:45:47.000Z</time>
      </trkpt>
      <trkpt lat="42.98066" lon="0.55977">
        <ele>782</ele>
        <time>2019-06-30T12:45:49.000Z</time>
      </trkpt>
      <trkpt lat="42.98064" lon="0.55981">
        <ele>782</ele>
        <time>2019-06-30T12:45:51.000Z</time>
      </trkpt>
      <trkpt lat="42.98063" lon="0.55984">
        <ele>782</ele>
        <time>2019-06-30T12:45:53.000Z</time>
      </trkpt>
      <trkpt lat="42.98062" lon="0.55987">
        <ele>782</ele>
        <time>2019-06-30T12:45:55.000Z</time>
      </trkpt>
      <trkpt lat="42.98061" lon="0.5599">
        <ele>782</ele>
        <time>2019-06-30T12:45:57.000Z</time>
      </trkpt>
      <trkpt lat="42.9806" lon="0.55993">
        <ele>782</ele>
        <time>2019-06-30T12:45:59.000Z</time>
      </trkpt>
      <trkpt lat="42.98058" lon="0.55997">
        <ele>781</ele>
        <time>2019-06-30T12:46:01.000Z</time>
      </trkpt>
      <trkpt lat="42.98057" lon="0.55999">
        <ele>781</ele>
        <time>2019-06-30T12:46:03.000Z</time>
      </trkpt>
      <trkpt lat="42.98055" lon="0.56001">
        <ele>782</ele>
        <time>2019-06-30T12:46:05.000Z</time>
      </trkpt>
      <trkpt lat="42.98055" lon="0.56005">
        <ele>781</ele>
        <time>2019-06-30T12:46:07.000Z</time>
      </trkpt>
      <trkpt lat="42.98054" lon="0.56008">
        <ele>780</ele>
        <time>2019-06-30T12:46:09.000Z</time>
      </trkpt>
      <trkpt lat="42.98053" lon="0.56011">
        <ele>780</ele>
        <time>2019-06-30T12:46:11.000Z</time>
      </trkpt>
      <trkpt lat="42.98052" lon="0.56012">
        <ele>780</ele>
        <time>2019-06-30T12:46:13.000Z</time>
      </trkpt>
      <trkpt lat="42.98052" lon="0.56014">
        <ele>780</ele>
        <time>2019-06-30T12:46:15.000Z</time>
      </trkpt>
      <trkpt lat="42.98051" lon="0.56017">
        <ele>780</ele>
        <time>2019-06-30T12:46:17.000Z</time>
      </trkpt>
      <trkpt lat="42.9805" lon="0.5602">
        <ele>779</ele>
        <time>2019-06-30T12:46:19.000Z</time>
      </trkpt>
      <trkpt lat="42.98049" lon="0.56023">
        <ele>779</ele>
        <time>2019-06-30T12:46:21.000Z</time>
      </trkpt>
      <trkpt lat="42.98049" lon="0.56026">
        <ele>778</ele>
        <time>2019-06-30T12:46:23.000Z</time>
      </trkpt>
      <trkpt lat="42.98048" lon="0.56029">
        <ele>778</ele>
        <time>2019-06-30T12:46:25.000Z</time>
      </trkpt>
      <trkpt lat="42.98048" lon="0.56032">
        <ele>777</ele>
        <time>2019-06-30T12:46:27.000Z</time>
      </trkpt>
      <trkpt lat="42.98047" lon="0.56034">
        <ele>777</ele>
        <time>2019-06-30T12:46:29.000Z</time>
      </trkpt>
      <trkpt lat="42.98046" lon="0.56037">
        <ele>776</ele>
        <time>2019-06-30T12:46:31.000Z</time>
      </trkpt>
      <trkpt lat="42.98046" lon="0.56041">
        <ele>776</ele>
        <time>2019-06-30T12:46:33.000Z</time>
      </trkpt>
      <trkpt lat="42.98046" lon="0.56043">
        <ele>775</ele>
        <time>2019-06-30T12:46:35.000Z</time>
      </trkpt>
      <trkpt lat="42.98046" lon="0.56047">
        <ele>774</ele>
        <time>2019-06-30T12:46:37.000Z</time>
      </trkpt>
      <trkpt lat="42.98045" lon="0.5605">
        <ele>774</ele>
        <time>2019-06-30T12:46:39.000Z</time>
      </trkpt>
      <trkpt lat="42.98045" lon="0.56053">
        <ele>773</ele>
        <time>2019-06-30T12:46:41.000Z</time>
      </trkpt>
      <trkpt lat="42.98045" lon="0.56055">
        <ele>772</ele>
        <time>2019-06-30T12:46:43.000Z</time>
      </trkpt>
      <trkpt lat="42.98043" lon="0.56058">
        <ele>772</ele>
        <time>2019-06-30T12:46:45.000Z</time>
      </trkpt>
      <trkpt lat="42.98044" lon="0.5606">
        <ele>771</ele>
        <time>2019-06-30T12:46:47.000Z</time>
      </trkpt>
      <trkpt lat="42.98044" lon="0.56064">
        <ele>771</ele>
        <time>2019-06-30T12:46:49.000Z</time>
      </trkpt>
      <trkpt lat="42.98043" lon="0.56066">
        <ele>770</ele>
        <time>2019-06-30T12:46:51.000Z</time>
      </trkpt>
      <trkpt lat="42.98043" lon="0.56068">
        <ele>770</ele>
        <time>2019-06-30T12:46:53.000Z</time>
      </trkpt>
      <trkpt lat="42.98043" lon="0.56071">
        <ele>769</ele>
        <time>2019-06-30T12:46:55.000Z</time>
      </trkpt>
      <trkpt lat="42.98043" lon="0.56072">
        <ele>769</ele>
        <time>2019-06-30T12:46:57.000Z</time>
      </trkpt>
      <trkpt lat="42.98042" lon="0.56074">
        <ele>768</ele>
        <time>2019-06-30T12:46:59.000Z</time>
      </trkpt>
      <trkpt lat="42.98041" lon="0.56077">
        <ele>768</ele>
        <time>2019-06-30T12:47:01.000Z</time>
      </trkpt>
      <trkpt lat="42.9804" lon="0.56078">
        <ele>768</ele>
        <time>2019-06-30T12:47:03.000Z</time>
      </trkpt>
      <trkpt lat="42.9804" lon="0.5608">
        <ele>768</ele>
        <time>2019-06-30T12:47:05.000Z</time>
      </trkpt>
      <trkpt lat="42.98039" lon="0.56082">
        <ele>768</ele>
        <time>2019-06-30T12:47:07.000Z</time>
      </trkpt>
      <trkpt lat="42.98039" lon="0.56084">
        <ele>767</ele>
        <time>2019-06-30T12:47:09.000Z</time>
      </trkpt>
      <trkpt lat="42.98039" lon="0.56086">
        <ele>767</ele>
        <time>2019-06-30T12:47:11.000Z</time>
      </trkpt>
      <trkpt lat="42.98039" lon="0.56089">
        <ele>766</ele>
        <time>2019-06-30T12:47:13.000Z</time>
      </trkpt>
      <trkpt lat="42.98039" lon="0.56091">
        <ele>766</ele>
        <time>2019-06-30T12:47:15.000Z</time>
      </trkpt>
      <trkpt lat="42.98037" lon="0.56093">
        <ele>766</ele>
        <time>2019-06-30T12:47:17.000Z</time>
      </trkpt>
      <trkpt lat="42.98036" lon="0.56094">
        <ele>766</ele>
        <time>2019-06-30T12:47:19.000Z</time>
      </trkpt>
      <trkpt lat="42.98035" lon="0.56095">
        <ele>766</ele>
        <time>2019-06-30T12:47:21.000Z</time>
      </trkpt>
      <trkpt lat="42.98035" lon="0.56097">
        <ele>766</ele>
        <time>2019-06-30T12:47:23.000Z</time>
      </trkpt>
      <trkpt lat="42.98035" lon="0.56099">
        <ele>766</ele>
        <time>2019-06-30T12:47:25.000Z</time>
      </trkpt>
      <trkpt lat="42.98036" lon="0.56102">
        <ele>765</ele>
        <time>2019-06-30T12:47:27.000Z</time>
      </trkpt>
      <trkpt lat="42.98037" lon="0.56103">
        <ele>764</ele>
        <time>2019-06-30T12:47:29.000Z</time>
      </trkpt>
      <trkpt lat="42.98039" lon="0.56106">
        <ele>763</ele>
        <time>2019-06-30T12:47:31.000Z</time>
      </trkpt>
      <trkpt lat="42.9804" lon="0.56108">
        <ele>762</ele>
        <time>2019-06-30T12:47:33.000Z</time>
      </trkpt>
      <trkpt lat="42.98041" lon="0.56111">
        <ele>761</ele>
        <time>2019-06-30T12:47:35.000Z</time>
      </trkpt>
      <trkpt lat="42.98041" lon="0.56113">
        <ele>760</ele>
        <time>2019-06-30T12:47:37.000Z</time>
      </trkpt>
      <trkpt lat="42.9804" lon="0.56114">
        <ele>760</ele>
        <time>2019-06-30T12:47:39.000Z</time>
      </trkpt>
      <trkpt lat="42.9804" lon="0.56116">
        <ele>760</ele>
        <time>2019-06-30T12:47:41.000Z</time>
      </trkpt>
      <trkpt lat="42.9804" lon="0.56119">
        <ele>759</ele>
        <time>2019-06-30T12:47:43.000Z</time>
      </trkpt>
      <trkpt lat="42.9804" lon="0.56122">
        <ele>758</ele>
        <time>2019-06-30T12:47:45.000Z</time>
      </trkpt>
      <trkpt lat="42.98041" lon="0.56124">
        <ele>758</ele>
        <time>2019-06-30T12:47:47.000Z</time>
      </trkpt>
      <trkpt lat="42.98041" lon="0.56127">
        <ele>757</ele>
        <time>2019-06-30T12:47:49.000Z</time>
      </trkpt>
      <trkpt lat="42.98042" lon="0.5613">
        <ele>756</ele>
        <time>2019-06-30T12:47:51.000Z</time>
      </trkpt>
      <trkpt lat="42.98043" lon="0.56133">
        <ele>755</ele>
        <time>2019-06-30T12:47:53.000Z</time>
      </trkpt>
      <trkpt lat="42.98043" lon="0.56136">
        <ele>754</ele>
        <time>2019-06-30T12:47:55.000Z</time>
      </trkpt>
      <trkpt lat="42.98043" lon="0.56139">
        <ele>754</ele>
        <time>2019-06-30T12:47:57.000Z</time>
      </trkpt>
      <trkpt lat="42.98043" lon="0.56142">
        <ele>753</ele>
        <time>2019-06-30T12:47:59.000Z</time>
      </trkpt>
      <trkpt lat="42.98042" lon="0.56144">
        <ele>753</ele>
        <time>2019-06-30T12:48:01.000Z</time>
      </trkpt>
      <trkpt lat="42.98042" lon="0.56148">
        <ele>753</ele>
        <time>2019-06-30T12:48:03.000Z</time>
      </trkpt>
      <trkpt lat="42.98042" lon="0.5615">
        <ele>752</ele>
        <time>2019-06-30T12:48:05.000Z</time>
      </trkpt>
      <trkpt lat="42.98042" lon="0.56154">
        <ele>752</ele>
        <time>2019-06-30T12:48:07.000Z</time>
      </trkpt>
      <trkpt lat="42.98042" lon="0.56157">
        <ele>751</ele>
        <time>2019-06-30T12:48:09.000Z</time>
      </trkpt>
      <trkpt lat="42.98042" lon="0.56159">
        <ele>750</ele>
        <time>2019-06-30T12:48:11.000Z</time>
      </trkpt>
      <trkpt lat="42.98042" lon="0.56162">
        <ele>750</ele>
        <time>2019-06-30T12:48:13.000Z</time>
      </trkpt>
      <trkpt lat="42.98042" lon="0.56163">
        <ele>750</ele>
        <time>2019-06-30T12:48:15.000Z</time>
      </trkpt>
      <trkpt lat="42.98041" lon="0.56165">
        <ele>750</ele>
        <time>2019-06-30T12:48:17.000Z</time>
      </trkpt>
      <trkpt lat="42.9804" lon="0.56166">
        <ele>750</ele>
        <time>2019-06-30T12:48:19.000Z</time>
      </trkpt>
      <trkpt lat="42.9804" lon="0.56168">
        <ele>750</ele>
        <time>2019-06-30T12:48:21.000Z</time>
      </trkpt>
      <trkpt lat="42.9804" lon="0.5617">
        <ele>749</ele>
        <time>2019-06-30T12:48:23.000Z</time>
      </trkpt>
      <trkpt lat="42.9804" lon="0.56173">
        <ele>749</ele>
        <time>2019-06-30T12:48:25.000Z</time>
      </trkpt>
      <trkpt lat="42.9804" lon="0.56175">
        <ele>748</ele>
        <time>2019-06-30T12:48:27.000Z</time>
      </trkpt>
      <trkpt lat="42.98039" lon="0.56178">
        <ele>748</ele>
        <time>2019-06-30T12:48:29.000Z</time>
      </trkpt>
      <trkpt lat="42.98037" lon="0.5618">
        <ele>748</ele>
        <time>2019-06-30T12:48:31.000Z</time>
      </trkpt>
      <trkpt lat="42.98037" lon="0.56183">
        <ele>747</ele>
        <time>2019-06-30T12:48:33.000Z</time>
      </trkpt>
      <trkpt lat="42.98036" lon="0.56185">
        <ele>747</ele>
        <time>2019-06-30T12:48:35.000Z</time>
      </trkpt>
      <trkpt lat="42.98036" lon="0.56188">
        <ele>747</ele>
        <time>2019-06-30T12:48:37.000Z</time>
      </trkpt>
      <trkpt lat="42.98035" lon="0.5619">
        <ele>746</ele>
        <time>2019-06-30T12:48:39.000Z</time>
      </trkpt>
      <trkpt lat="42.98035" lon="0.56193">
        <ele>746</ele>
        <time>2019-06-30T12:48:41.000Z</time>
      </trkpt>
      <trkpt lat="42.98035" lon="0.56195">
        <ele>745</ele>
        <time>2019-06-30T12:48:43.000Z</time>
      </trkpt>
      <trkpt lat="42.98035" lon="0.56198">
        <ele>745</ele>
        <time>2019-06-30T12:48:45.000Z</time>
      </trkpt>
      <trkpt lat="42.98035" lon="0.56201">
        <ele>744</ele>
        <time>2019-06-30T12:48:47.000Z</time>
      </trkpt>
      <trkpt lat="42.98036" lon="0.56203">
        <ele>743</ele>
        <time>2019-06-30T12:48:49.000Z</time>
      </trkpt>
      <trkpt lat="42.98036" lon="0.56205">
        <ele>742</ele>
        <time>2019-06-30T12:48:51.000Z</time>
      </trkpt>
      <trkpt lat="42.98036" lon="0.56209">
        <ele>741</ele>
        <time>2019-06-30T12:48:53.000Z</time>
      </trkpt>
      <trkpt lat="42.98036" lon="0.56212">
        <ele>741</ele>
        <time>2019-06-30T12:48:55.000Z</time>
      </trkpt>
      <trkpt lat="42.98035" lon="0.56214">
        <ele>741</ele>
        <time>2019-06-30T12:48:57.000Z</time>
      </trkpt>
      <trkpt lat="42.98034" lon="0.56216">
        <ele>740</ele>
        <time>2019-06-30T12:48:59.000Z</time>
      </trkpt>
      <trkpt lat="42.98035" lon="0.56218">
        <ele>740</ele>
        <time>2019-06-30T12:49:01.000Z</time>
      </trkpt>
      <trkpt lat="42.98035" lon="0.56221">
        <ele>739</ele>
        <time>2019-06-30T12:49:03.000Z</time>
      </trkpt>
      <trkpt lat="42.98035" lon="0.56224">
        <ele>739</ele>
        <time>2019-06-30T12:49:05.000Z</time>
      </trkpt>
      <trkpt lat="42.98035" lon="0.56227">
        <ele>738</ele>
        <time>2019-06-30T12:49:07.000Z</time>
      </trkpt>
      <trkpt lat="42.98035" lon="0.56229">
        <ele>738</ele>
        <time>2019-06-30T12:49:09.000Z</time>
      </trkpt>
      <trkpt lat="42.98035" lon="0.56232">
        <ele>737</ele>
        <time>2019-06-30T12:49:11.000Z</time>
      </trkpt>
      <trkpt lat="42.98036" lon="0.56235">
        <ele>737</ele>
        <time>2019-06-30T12:49:13.000Z</time>
      </trkpt>
      <trkpt lat="42.98035" lon="0.56236">
        <ele>737</ele>
        <time>2019-06-30T12:49:15.000Z</time>
      </trkpt>
      <trkpt lat="42.98036" lon="0.56236">
        <ele>737</ele>
        <time>2019-06-30T12:49:17.000Z</time>
      </trkpt>
      <trkpt lat="42.98036" lon="0.56236">
        <ele>737</ele>
        <time>2019-06-30T12:49:19.000Z</time>
      </trkpt>
      <trkpt lat="42.98036" lon="0.56236">
        <ele>737</ele>
        <time>2019-06-30T12:49:21.000Z</time>
      </trkpt>
      <trkpt lat="42.98036" lon="0.56237">
        <ele>737</ele>
        <time>2019-06-30T12:49:23.000Z</time>
      </trkpt>
      <trkpt lat="42.98036" lon="0.56235">
        <ele>737</ele>
        <time>2019-06-30T12:49:25.000Z</time>
      </trkpt>
      <trkpt lat="42.98037" lon="0.56233">
        <ele>737</ele>
        <time>2019-06-30T12:49:27.000Z</time>
      </trkpt>
      <trkpt lat="42.98039" lon="0.5623">
        <ele>736</ele>
        <time>2019-06-30T12:49:29.000Z</time>
      </trkpt>
      <trkpt lat="42.98039" lon="0.56228">
        <ele>737</ele>
        <time>2019-06-30T12:49:31.000Z</time>
      </trkpt>
      <trkpt lat="42.9804" lon="0.56227">
        <ele>737</ele>
        <time>2019-06-30T12:49:33.000Z</time>
      </trkpt>
      <trkpt lat="42.9804" lon="0.56226">
        <ele>736</ele>
        <time>2019-06-30T12:49:35.000Z</time>
      </trkpt>
      <trkpt lat="42.98041" lon="0.56224">
        <ele>737</ele>
        <time>2019-06-30T12:49:37.000Z</time>
      </trkpt>
      <trkpt lat="42.98041" lon="0.56222">
        <ele>737</ele>
        <time>2019-06-30T12:49:39.000Z</time>
      </trkpt>
      <trkpt lat="42.98043" lon="0.5622">
        <ele>736</ele>
        <time>2019-06-30T12:49:41.000Z</time>
      </trkpt>
      <trkpt lat="42.98043" lon="0.56219">
        <ele>736</ele>
        <time>2019-06-30T12:49:43.000Z</time>
      </trkpt>
      <trkpt lat="42.98044" lon="0.56218">
        <ele>736</ele>
        <time>2019-06-30T12:49:45.000Z</time>
      </trkpt>
      <trkpt lat="42.98045" lon="0.56217">
        <ele>736</ele>
        <time>2019-06-30T12:49:47.000Z</time>
      </trkpt>
      <trkpt lat="42.98047" lon="0.56216">
        <ele>736</ele>
        <time>2019-06-30T12:49:49.000Z</time>
      </trkpt>
      <trkpt lat="42.98048" lon="0.56214">
        <ele>736</ele>
        <time>2019-06-30T12:49:51.000Z</time>
      </trkpt>
      <trkpt lat="42.98049" lon="0.56212">
        <ele>736</ele>
        <time>2019-06-30T12:49:53.000Z</time>
      </trkpt>
      <trkpt lat="42.9805" lon="0.5621">
        <ele>736</ele>
        <time>2019-06-30T12:49:55.000Z</time>
      </trkpt>
      <trkpt lat="42.98052" lon="0.56209">
        <ele>735</ele>
        <time>2019-06-30T12:49:57.000Z</time>
      </trkpt>
      <trkpt lat="42.98054" lon="0.56208">
        <ele>735</ele>
        <time>2019-06-30T12:49:59.000Z</time>
      </trkpt>
      <trkpt lat="42.98056" lon="0.56207">
        <ele>734</ele>
        <time>2019-06-30T12:50:01.000Z</time>
      </trkpt>
      <trkpt lat="42.98057" lon="0.56207">
        <ele>734</ele>
        <time>2019-06-30T12:50:03.000Z</time>
      </trkpt>
      <trkpt lat="42.98058" lon="0.56205">
        <ele>734</ele>
        <time>2019-06-30T12:50:05.000Z</time>
      </trkpt>
      <trkpt lat="42.98059" lon="0.56203">
        <ele>734</ele>
        <time>2019-06-30T12:50:07.000Z</time>
      </trkpt>
      <trkpt lat="42.9806" lon="0.56201">
        <ele>734</ele>
        <time>2019-06-30T12:50:09.000Z</time>
      </trkpt>
      <trkpt lat="42.9806" lon="0.56199">
        <ele>735</ele>
        <time>2019-06-30T12:50:11.000Z</time>
      </trkpt>
      <trkpt lat="42.9806" lon="0.56197">
        <ele>735</ele>
        <time>2019-06-30T12:50:13.000Z</time>
      </trkpt>
      <trkpt lat="42.98061" lon="0.56195">
        <ele>735</ele>
        <time>2019-06-30T12:50:15.000Z</time>
      </trkpt>
      <trkpt lat="42.98062" lon="0.56194">
        <ele>735</ele>
        <time>2019-06-30T12:50:17.000Z</time>
      </trkpt>
      <trkpt lat="42.98064" lon="0.56193">
        <ele>734</ele>
        <time>2019-06-30T12:50:19.000Z</time>
      </trkpt>
      <trkpt lat="42.98065" lon="0.56192">
        <ele>734</ele>
        <time>2019-06-30T12:50:21.000Z</time>
      </trkpt>
      <trkpt lat="42.98066" lon="0.56191">
        <ele>734</ele>
        <time>2019-06-30T12:50:23.000Z</time>
      </trkpt>
      <trkpt lat="42.98067" lon="0.56189">
        <ele>734</ele>
        <time>2019-06-30T12:50:25.000Z</time>
      </trkpt>
      <trkpt lat="42.98068" lon="0.56189">
        <ele>733</ele>
        <time>2019-06-30T12:50:27.000Z</time>
      </trkpt>
      <trkpt lat="42.9807" lon="0.56189">
        <ele>733</ele>
        <time>2019-06-30T12:50:29.000Z</time>
      </trkpt>
      <trkpt lat="42.98071" lon="0.56188">
        <ele>732</ele>
        <time>2019-06-30T12:50:31.000Z</time>
      </trkpt>
      <trkpt lat="42.98074" lon="0.56189">
        <ele>731</ele>
        <time>2019-06-30T12:50:33.000Z</time>
      </trkpt>
      <trkpt lat="42.98076" lon="0.56186">
        <ele>731</ele>
        <time>2019-06-30T12:50:35.000Z</time>
      </trkpt>
      <trkpt lat="42.98078" lon="0.56184">
        <ele>730</ele>
        <time>2019-06-30T12:50:37.000Z</time>
      </trkpt>
      <trkpt lat="42.9808" lon="0.56185">
        <ele>729</ele>
        <time>2019-06-30T12:50:39.000Z</time>
      </trkpt>
      <trkpt lat="42.98081" lon="0.56184">
        <ele>729</ele>
        <time>2019-06-30T12:50:41.000Z</time>
      </trkpt>
      <trkpt lat="42.98081" lon="0.56184">
        <ele>729</ele>
        <time>2019-06-30T12:50:43.000Z</time>
      </trkpt>
      <trkpt lat="42.98084" lon="0.56185">
        <ele>727</ele>
        <time>2019-06-30T12:50:45.000Z</time>
      </trkpt>
      <trkpt lat="42.98086" lon="0.56184">
        <ele>727</ele>
        <time>2019-06-30T12:50:47.000Z</time>
      </trkpt>
      <trkpt lat="42.98087" lon="0.56184">
        <ele>726</ele>
        <time>2019-06-30T12:50:49.000Z</time>
      </trkpt>
      <trkpt lat="42.98089" lon="0.56184">
        <ele>725</ele>
        <time>2019-06-30T12:50:51.000Z</time>
      </trkpt>
      <trkpt lat="42.9809" lon="0.56184">
        <ele>725</ele>
        <time>2019-06-30T12:50:53.000Z</time>
      </trkpt>
      <trkpt lat="42.9809" lon="0.56185">
        <ele>725</ele>
        <time>2019-06-30T12:50:55.000Z</time>
      </trkpt>
      <trkpt lat="42.9809" lon="0.56183">
        <ele>725</ele>
        <time>2019-06-30T12:50:57.000Z</time>
      </trkpt>
      <trkpt lat="42.98091" lon="0.56182">
        <ele>725</ele>
        <time>2019-06-30T12:50:59.000Z</time>
      </trkpt>
      <trkpt lat="42.98094" lon="0.56182">
        <ele>723</ele>
        <time>2019-06-30T12:51:01.000Z</time>
      </trkpt>
      <trkpt lat="42.98094" lon="0.56183">
        <ele>723</ele>
        <time>2019-06-30T12:51:03.000Z</time>
      </trkpt>
      <trkpt lat="42.98094" lon="0.56181">
        <ele>723</ele>
        <time>2019-06-30T12:51:05.000Z</time>
      </trkpt>
      <trkpt lat="42.98095" lon="0.5618">
        <ele>723</ele>
        <time>2019-06-30T12:51:07.000Z</time>
      </trkpt>
      <trkpt lat="42.98096" lon="0.56178">
        <ele>723</ele>
        <time>2019-06-30T12:51:09.000Z</time>
      </trkpt>
      <trkpt lat="42.98098" lon="0.56176">
        <ele>722</ele>
        <time>2019-06-30T12:51:11.000Z</time>
      </trkpt>
      <trkpt lat="42.98099" lon="0.56174">
        <ele>722</ele>
        <time>2019-06-30T12:51:13.000Z</time>
      </trkpt>
      <trkpt lat="42.981" lon="0.56173">
        <ele>721</ele>
        <time>2019-06-30T12:51:15.000Z</time>
      </trkpt>
      <trkpt lat="42.98102" lon="0.56171">
        <ele>721</ele>
        <time>2019-06-30T12:51:17.000Z</time>
      </trkpt>
      <trkpt lat="42.98104" lon="0.5617">
        <ele>720</ele>
        <time>2019-06-30T12:51:19.000Z</time>
      </trkpt>
      <trkpt lat="42.98105" lon="0.56168">
        <ele>720</ele>
        <time>2019-06-30T12:51:21.000Z</time>
      </trkpt>
      <trkpt lat="42.98105" lon="0.56167">
        <ele>720</ele>
        <time>2019-06-30T12:51:23.000Z</time>
      </trkpt>
      <trkpt lat="42.98106" lon="0.56166">
        <ele>720</ele>
        <time>2019-06-30T12:51:25.000Z</time>
      </trkpt>
      <trkpt lat="42.98107" lon="0.56164">
        <ele>719</ele>
        <time>2019-06-30T12:51:27.000Z</time>
      </trkpt>
      <trkpt lat="42.98108" lon="0.56163">
        <ele>719</ele>
        <time>2019-06-30T12:51:29.000Z</time>
      </trkpt>
      <trkpt lat="42.98108" lon="0.56162">
        <ele>719</ele>
        <time>2019-06-30T12:51:31.000Z</time>
      </trkpt>
      <trkpt lat="42.98109" lon="0.56161">
        <ele>719</ele>
        <time>2019-06-30T12:51:33.000Z</time>
      </trkpt>
      <trkpt lat="42.9811" lon="0.5616">
        <ele>719</ele>
        <time>2019-06-30T12:51:35.000Z</time>
      </trkpt>
      <trkpt lat="42.98111" lon="0.56158">
        <ele>719</ele>
        <time>2019-06-30T12:51:37.000Z</time>
      </trkpt>
      <trkpt lat="42.98112" lon="0.56156">
        <ele>719</ele>
        <time>2019-06-30T12:51:39.000Z</time>
      </trkpt>
      <trkpt lat="42.98113" lon="0.56154">
        <ele>718</ele>
        <time>2019-06-30T12:51:41.000Z</time>
      </trkpt>
      <trkpt lat="42.98115" lon="0.56154">
        <ele>718</ele>
        <time>2019-06-30T12:51:43.000Z</time>
      </trkpt>
      <trkpt lat="42.98116" lon="0.56153">
        <ele>717</ele>
        <time>2019-06-30T12:51:45.000Z</time>
      </trkpt>
      <trkpt lat="42.98117" lon="0.56152">
        <ele>716</ele>
        <time>2019-06-30T12:51:47.000Z</time>
      </trkpt>
      <trkpt lat="42.98118" lon="0.56152">
        <ele>716</ele>
        <time>2019-06-30T12:51:49.000Z</time>
      </trkpt>
      <trkpt lat="42.98119" lon="0.5615">
        <ele>716</ele>
        <time>2019-06-30T12:51:51.000Z</time>
      </trkpt>
      <trkpt lat="42.9812" lon="0.56149">
        <ele>715</ele>
        <time>2019-06-30T12:51:53.000Z</time>
      </trkpt>
      <trkpt lat="42.98121" lon="0.56148">
        <ele>715</ele>
        <time>2019-06-30T12:51:55.000Z</time>
      </trkpt>
      <trkpt lat="42.98121" lon="0.56148">
        <ele>715</ele>
        <time>2019-06-30T12:51:57.000Z</time>
      </trkpt>
      <trkpt lat="42.98123" lon="0.56148">
        <ele>714</ele>
        <time>2019-06-30T12:51:59.000Z</time>
      </trkpt>
      <trkpt lat="42.98124" lon="0.56147">
        <ele>714</ele>
        <time>2019-06-30T12:52:01.000Z</time>
      </trkpt>
      <trkpt lat="42.98125" lon="0.56146">
        <ele>713</ele>
        <time>2019-06-30T12:52:03.000Z</time>
      </trkpt>
      <trkpt lat="42.98126" lon="0.56145">
        <ele>713</ele>
        <time>2019-06-30T12:52:05.000Z</time>
      </trkpt>
      <trkpt lat="42.98127" lon="0.56145">
        <ele>713</ele>
        <time>2019-06-30T12:52:07.000Z</time>
      </trkpt>
      <trkpt lat="42.98128" lon="0.56143">
        <ele>712</ele>
        <time>2019-06-30T12:52:09.000Z</time>
      </trkpt>
      <trkpt lat="42.9813" lon="0.56141">
        <ele>712</ele>
        <time>2019-06-30T12:52:11.000Z</time>
      </trkpt>
      <trkpt lat="42.98133" lon="0.56139">
        <ele>710</ele>
        <time>2019-06-30T12:52:13.000Z</time>
      </trkpt>
      <trkpt lat="42.98135" lon="0.56136">
        <ele>710</ele>
        <time>2019-06-30T12:52:15.000Z</time>
      </trkpt>
      <trkpt lat="42.98136" lon="0.56134">
        <ele>710</ele>
        <time>2019-06-30T12:52:17.000Z</time>
      </trkpt>
      <trkpt lat="42.98137" lon="0.56132">
        <ele>710</ele>
        <time>2019-06-30T12:52:19.000Z</time>
      </trkpt>
      <trkpt lat="42.98137" lon="0.5613">
        <ele>710</ele>
        <time>2019-06-30T12:52:21.000Z</time>
      </trkpt>
      <trkpt lat="42.98139" lon="0.56129">
        <ele>709</ele>
        <time>2019-06-30T12:52:23.000Z</time>
      </trkpt>
      <trkpt lat="42.9814" lon="0.56129">
        <ele>709</ele>
        <time>2019-06-30T12:52:25.000Z</time>
      </trkpt>
      <trkpt lat="42.9814" lon="0.56128">
        <ele>709</ele>
        <time>2019-06-30T12:52:27.000Z</time>
      </trkpt>
      <trkpt lat="42.98141" lon="0.56128">
        <ele>709</ele>
        <time>2019-06-30T12:52:29.000Z</time>
      </trkpt>
      <trkpt lat="42.98142" lon="0.56126">
        <ele>708</ele>
        <time>2019-06-30T12:52:31.000Z</time>
      </trkpt>
      <trkpt lat="42.98143" lon="0.56126">
        <ele>708</ele>
        <time>2019-06-30T12:52:33.000Z</time>
      </trkpt>
      <trkpt lat="42.98144" lon="0.56125">
        <ele>708</ele>
        <time>2019-06-30T12:52:35.000Z</time>
      </trkpt>
      <trkpt lat="42.98145" lon="0.56123">
        <ele>708</ele>
        <time>2019-06-30T12:52:37.000Z</time>
      </trkpt>
      <trkpt lat="42.98146" lon="0.5612">
        <ele>708</ele>
        <time>2019-06-30T12:52:39.000Z</time>
      </trkpt>
      <trkpt lat="42.98147" lon="0.56119">
        <ele>708</ele>
        <time>2019-06-30T12:52:41.000Z</time>
      </trkpt>
      <trkpt lat="42.98149" lon="0.56118">
        <ele>707</ele>
        <time>2019-06-30T12:52:43.000Z</time>
      </trkpt>
      <trkpt lat="42.98151" lon="0.56118">
        <ele>706</ele>
        <time>2019-06-30T12:52:45.000Z</time>
      </trkpt>
      <trkpt lat="42.98152" lon="0.56118">
        <ele>705</ele>
        <time>2019-06-30T12:52:47.000Z</time>
      </trkpt>
      <trkpt lat="42.98154" lon="0.56117">
        <ele>705</ele>
        <time>2019-06-30T12:52:49.000Z</time>
      </trkpt>
      <trkpt lat="42.98155" lon="0.56116">
        <ele>704</ele>
        <time>2019-06-30T12:52:51.000Z</time>
      </trkpt>
      <trkpt lat="42.98158" lon="0.56116">
        <ele>703</ele>
        <time>2019-06-30T12:52:53.000Z</time>
      </trkpt>
      <trkpt lat="42.98159" lon="0.56116">
        <ele>702</ele>
        <time>2019-06-30T12:52:55.000Z</time>
      </trkpt>
      <trkpt lat="42.98161" lon="0.56115">
        <ele>702</ele>
        <time>2019-06-30T12:52:57.000Z</time>
      </trkpt>
      <trkpt lat="42.98162" lon="0.56113">
        <ele>701</ele>
        <time>2019-06-30T12:52:59.000Z</time>
      </trkpt>
      <trkpt lat="42.98163" lon="0.56111">
        <ele>701</ele>
        <time>2019-06-30T12:53:01.000Z</time>
      </trkpt>
      <trkpt lat="42.98165" lon="0.5611">
        <ele>701</ele>
        <time>2019-06-30T12:53:03.000Z</time>
      </trkpt>
      <trkpt lat="42.98165" lon="0.56108">
        <ele>701</ele>
        <time>2019-06-30T12:53:05.000Z</time>
      </trkpt>
      <trkpt lat="42.98166" lon="0.56106">
        <ele>701</ele>
        <time>2019-06-30T12:53:07.000Z</time>
      </trkpt>
      <trkpt lat="42.98167" lon="0.56103">
        <ele>701</ele>
        <time>2019-06-30T12:53:09.000Z</time>
      </trkpt>
      <trkpt lat="42.98168" lon="0.56101">
        <ele>702</ele>
        <time>2019-06-30T12:53:11.000Z</time>
      </trkpt>
      <trkpt lat="42.98169" lon="0.561">
        <ele>701</ele>
        <time>2019-06-30T12:53:13.000Z</time>
      </trkpt>
      <trkpt lat="42.9817" lon="0.561">
        <ele>701</ele>
        <time>2019-06-30T12:53:15.000Z</time>
      </trkpt>
      <trkpt lat="42.98171" lon="0.56099">
        <ele>700</ele>
        <time>2019-06-30T12:53:17.000Z</time>
      </trkpt>
      <trkpt lat="42.98172" lon="0.56098">
        <ele>700</ele>
        <time>2019-06-30T12:53:19.000Z</time>
      </trkpt>
      <trkpt lat="42.98173" lon="0.56097">
        <ele>700</ele>
        <time>2019-06-30T12:53:21.000Z</time>
      </trkpt>
      <trkpt lat="42.98174" lon="0.56096">
        <ele>700</ele>
        <time>2019-06-30T12:53:23.000Z</time>
      </trkpt>
      <trkpt lat="42.98174" lon="0.56094">
        <ele>700</ele>
        <time>2019-06-30T12:53:25.000Z</time>
      </trkpt>
      <trkpt lat="42.98175" lon="0.56093">
        <ele>700</ele>
        <time>2019-06-30T12:53:27.000Z</time>
      </trkpt>
      <trkpt lat="42.98176" lon="0.56091">
        <ele>700</ele>
        <time>2019-06-30T12:53:29.000Z</time>
      </trkpt>
      <trkpt lat="42.98177" lon="0.56089">
        <ele>700</ele>
        <time>2019-06-30T12:53:31.000Z</time>
      </trkpt>
      <trkpt lat="42.98179" lon="0.56086">
        <ele>700</ele>
        <time>2019-06-30T12:53:33.000Z</time>
      </trkpt>
      <trkpt lat="42.98181" lon="0.56085">
        <ele>699</ele>
        <time>2019-06-30T12:53:35.000Z</time>
      </trkpt>
      <trkpt lat="42.98181" lon="0.56085">
        <ele>699</ele>
        <time>2019-06-30T12:53:37.000Z</time>
      </trkpt>
      <trkpt lat="42.98183" lon="0.56084">
        <ele>698</ele>
        <time>2019-06-30T12:53:39.000Z</time>
      </trkpt>
      <trkpt lat="42.98185" lon="0.56084">
        <ele>697</ele>
        <time>2019-06-30T12:53:41.000Z</time>
      </trkpt>
      <trkpt lat="42.98186" lon="0.56083">
        <ele>697</ele>
        <time>2019-06-30T12:53:43.000Z</time>
      </trkpt>
      <trkpt lat="42.98186" lon="0.56083">
        <ele>697</ele>
        <time>2019-06-30T12:53:45.000Z</time>
      </trkpt>
      <trkpt lat="42.98186" lon="0.56082">
        <ele>697</ele>
        <time>2019-06-30T12:53:47.000Z</time>
      </trkpt>
      <trkpt lat="42.98188" lon="0.56081">
        <ele>696</ele>
        <time>2019-06-30T12:53:49.000Z</time>
      </trkpt>
      <trkpt lat="42.9819" lon="0.56079">
        <ele>696</ele>
        <time>2019-06-30T12:53:51.000Z</time>
      </trkpt>
      <trkpt lat="42.98191" lon="0.56078">
        <ele>696</ele>
        <time>2019-06-30T12:53:53.000Z</time>
      </trkpt>
      <trkpt lat="42.98192" lon="0.56076">
        <ele>696</ele>
        <time>2019-06-30T12:53:55.000Z</time>
      </trkpt>
      <trkpt lat="42.98193" lon="0.56075">
        <ele>696</ele>
        <time>2019-06-30T12:53:57.000Z</time>
      </trkpt>
      <trkpt lat="42.98194" lon="0.56073">
        <ele>696</ele>
        <time>2019-06-30T12:53:59.000Z</time>
      </trkpt>
      <trkpt lat="42.98195" lon="0.56072">
        <ele>696</ele>
        <time>2019-06-30T12:54:01.000Z</time>
      </trkpt>
      <trkpt lat="42.98195" lon="0.5607">
        <ele>696</ele>
        <time>2019-06-30T12:54:03.000Z</time>
      </trkpt>
      <trkpt lat="42.98196" lon="0.56068">
        <ele>696</ele>
        <time>2019-06-30T12:54:05.000Z</time>
      </trkpt>
      <trkpt lat="42.98198" lon="0.56067">
        <ele>696</ele>
        <time>2019-06-30T12:54:07.000Z</time>
      </trkpt>
      <trkpt lat="42.982" lon="0.56066">
        <ele>695</ele>
        <time>2019-06-30T12:54:09.000Z</time>
      </trkpt>
      <trkpt lat="42.98201" lon="0.56064">
        <ele>695</ele>
        <time>2019-06-30T12:54:11.000Z</time>
      </trkpt>
      <trkpt lat="42.98203" lon="0.56063">
        <ele>694</ele>
        <time>2019-06-30T12:54:13.000Z</time>
      </trkpt>
      <trkpt lat="42.98205" lon="0.5606">
        <ele>694</ele>
        <time>2019-06-30T12:54:15.000Z</time>
      </trkpt>
      <trkpt lat="42.98207" lon="0.56058">
        <ele>693</ele>
        <time>2019-06-30T12:54:17.000Z</time>
      </trkpt>
      <trkpt lat="42.98209" lon="0.56057">
        <ele>693</ele>
        <time>2019-06-30T12:54:19.000Z</time>
      </trkpt>
      <trkpt lat="42.98209" lon="0.56055">
        <ele>693</ele>
        <time>2019-06-30T12:54:21.000Z</time>
      </trkpt>
      <trkpt lat="42.9821" lon="0.56054">
        <ele>693</ele>
        <time>2019-06-30T12:54:23.000Z</time>
      </trkpt>
      <trkpt lat="42.98211" lon="0.56052">
        <ele>693</ele>
        <time>2019-06-30T12:54:25.000Z</time>
      </trkpt>
      <trkpt lat="42.98211" lon="0.56051">
        <ele>693</ele>
        <time>2019-06-30T12:54:27.000Z</time>
      </trkpt>
      <trkpt lat="42.98212" lon="0.5605">
        <ele>693</ele>
        <time>2019-06-30T12:54:29.000Z</time>
      </trkpt>
      <trkpt lat="42.98212" lon="0.5605">
        <ele>693</ele>
        <time>2019-06-30T12:54:31.000Z</time>
      </trkpt>
      <trkpt lat="42.98213" lon="0.56048">
        <ele>693</ele>
        <time>2019-06-30T12:54:33.000Z</time>
      </trkpt>
      <trkpt lat="42.98214" lon="0.56049">
        <ele>692</ele>
        <time>2019-06-30T12:54:35.000Z</time>
      </trkpt>
      <trkpt lat="42.98215" lon="0.56048">
        <ele>692</ele>
        <time>2019-06-30T12:54:37.000Z</time>
      </trkpt>
      <trkpt lat="42.98216" lon="0.56047">
        <ele>692</ele>
        <time>2019-06-30T12:54:39.000Z</time>
      </trkpt>
      <trkpt lat="42.98218" lon="0.56045">
        <ele>692</ele>
        <time>2019-06-30T12:54:41.000Z</time>
      </trkpt>
      <trkpt lat="42.9822" lon="0.56045">
        <ele>691</ele>
        <time>2019-06-30T12:54:43.000Z</time>
      </trkpt>
      <trkpt lat="42.98222" lon="0.56042">
        <ele>691</ele>
        <time>2019-06-30T12:54:45.000Z</time>
      </trkpt>
      <trkpt lat="42.98223" lon="0.56039">
        <ele>691</ele>
        <time>2019-06-30T12:54:47.000Z</time>
      </trkpt>
      <trkpt lat="42.98224" lon="0.56036">
        <ele>691</ele>
        <time>2019-06-30T12:54:49.000Z</time>
      </trkpt>
      <trkpt lat="42.98225" lon="0.56035">
        <ele>691</ele>
        <time>2019-06-30T12:54:51.000Z</time>
      </trkpt>
      <trkpt lat="42.98225" lon="0.56034">
        <ele>691</ele>
        <time>2019-06-30T12:54:53.000Z</time>
      </trkpt>
      <trkpt lat="42.98227" lon="0.56034">
        <ele>690</ele>
        <time>2019-06-30T12:54:55.000Z</time>
      </trkpt>
      <trkpt lat="42.98227" lon="0.56034">
        <ele>690</ele>
        <time>2019-06-30T12:54:57.000Z</time>
      </trkpt>
      <trkpt lat="42.98226" lon="0.56033">
        <ele>691</ele>
        <time>2019-06-30T12:54:59.000Z</time>
      </trkpt>
      <trkpt lat="42.98228" lon="0.56033">
        <ele>690</ele>
        <time>2019-06-30T12:55:01.000Z</time>
      </trkpt>
      <trkpt lat="42.98229" lon="0.56032">
        <ele>690</ele>
        <time>2019-06-30T12:55:03.000Z</time>
      </trkpt>
      <trkpt lat="42.9823" lon="0.5603">
        <ele>690</ele>
        <time>2019-06-30T12:55:05.000Z</time>
      </trkpt>
      <trkpt lat="42.98231" lon="0.56029">
        <ele>690</ele>
        <time>2019-06-30T12:55:07.000Z</time>
      </trkpt>
      <trkpt lat="42.98232" lon="0.56027">
        <ele>690</ele>
        <time>2019-06-30T12:55:09.000Z</time>
      </trkpt>
      <trkpt lat="42.98233" lon="0.56027">
        <ele>689</ele>
        <time>2019-06-30T12:55:11.000Z</time>
      </trkpt>
      <trkpt lat="42.98234" lon="0.56026">
        <ele>689</ele>
        <time>2019-06-30T12:55:13.000Z</time>
      </trkpt>
      <trkpt lat="42.98236" lon="0.56024">
        <ele>688</ele>
        <time>2019-06-30T12:55:15.000Z</time>
      </trkpt>
      <trkpt lat="42.98237" lon="0.56023">
        <ele>688</ele>
        <time>2019-06-30T12:55:17.000Z</time>
      </trkpt>
      <trkpt lat="42.98238" lon="0.56022">
        <ele>688</ele>
        <time>2019-06-30T12:55:19.000Z</time>
      </trkpt>
      <trkpt lat="42.98239" lon="0.5602">
        <ele>688</ele>
        <time>2019-06-30T12:55:21.000Z</time>
      </trkpt>
      <trkpt lat="42.9824" lon="0.5602">
        <ele>687</ele>
        <time>2019-06-30T12:55:23.000Z</time>
      </trkpt>
      <trkpt lat="42.98241" lon="0.56018">
        <ele>687</ele>
        <time>2019-06-30T12:55:25.000Z</time>
      </trkpt>
      <trkpt lat="42.98243" lon="0.56016">
        <ele>686</ele>
        <time>2019-06-30T12:55:27.000Z</time>
      </trkpt>
      <trkpt lat="42.98244" lon="0.56015">
        <ele>686</ele>
        <time>2019-06-30T12:55:29.000Z</time>
      </trkpt>
      <trkpt lat="42.98246" lon="0.56013">
        <ele>686</ele>
        <time>2019-06-30T12:55:31.000Z</time>
      </trkpt>
      <trkpt lat="42.98247" lon="0.56011">
        <ele>685</ele>
        <time>2019-06-30T12:55:33.000Z</time>
      </trkpt>
      <trkpt lat="42.98247" lon="0.56007">
        <ele>686</ele>
        <time>2019-06-30T12:55:35.000Z</time>
      </trkpt>
      <trkpt lat="42.98248" lon="0.56005">
        <ele>686</ele>
        <time>2019-06-30T12:55:37.000Z</time>
      </trkpt>
      <trkpt lat="42.98249" lon="0.56004">
        <ele>686</ele>
        <time>2019-06-30T12:55:39.000Z</time>
      </trkpt>
      <trkpt lat="42.9825" lon="0.56003">
        <ele>686</ele>
        <time>2019-06-30T12:55:41.000Z</time>
      </trkpt>
      <trkpt lat="42.98252" lon="0.56001">
        <ele>685</ele>
        <time>2019-06-30T12:55:43.000Z</time>
      </trkpt>
      <trkpt lat="42.98253" lon="0.55999">
        <ele>685</ele>
        <time>2019-06-30T12:55:45.000Z</time>
      </trkpt>
      <trkpt lat="42.98255" lon="0.55996">
        <ele>685</ele>
        <time>2019-06-30T12:55:47.000Z</time>
      </trkpt>
      <trkpt lat="42.98255" lon="0.55995">
        <ele>685</ele>
        <time>2019-06-30T12:55:49.000Z</time>
      </trkpt>
      <trkpt lat="42.98256" lon="0.55994">
        <ele>685</ele>
        <time>2019-06-30T12:55:51.000Z</time>
      </trkpt>
      <trkpt lat="42.98258" lon="0.55993">
        <ele>684</ele>
        <time>2019-06-30T12:55:53.000Z</time>
      </trkpt>
      <trkpt lat="42.98258" lon="0.5599">
        <ele>684</ele>
        <time>2019-06-30T12:55:55.000Z</time>
      </trkpt>
      <trkpt lat="42.98259" lon="0.55987">
        <ele>685</ele>
        <time>2019-06-30T12:55:57.000Z</time>
      </trkpt>
      <trkpt lat="42.98261" lon="0.55984">
        <ele>685</ele>
        <time>2019-06-30T12:55:59.000Z</time>
      </trkpt>
      <trkpt lat="42.98262" lon="0.55981">
        <ele>685</ele>
        <time>2019-06-30T12:56:01.000Z</time>
      </trkpt>
      <trkpt lat="42.98264" lon="0.5598">
        <ele>685</ele>
        <time>2019-06-30T12:56:03.000Z</time>
      </trkpt>
      <trkpt lat="42.98265" lon="0.55977">
        <ele>685</ele>
        <time>2019-06-30T12:56:05.000Z</time>
      </trkpt>
      <trkpt lat="42.98266" lon="0.55975">
        <ele>684</ele>
        <time>2019-06-30T12:56:07.000Z</time>
      </trkpt>
      <trkpt lat="42.98268" lon="0.55973">
        <ele>684</ele>
        <time>2019-06-30T12:56:09.000Z</time>
      </trkpt>
      <trkpt lat="42.98268" lon="0.55972">
        <ele>684</ele>
        <time>2019-06-30T12:56:11.000Z</time>
      </trkpt>
      <trkpt lat="42.98269" lon="0.55969">
        <ele>685</ele>
        <time>2019-06-30T12:56:13.000Z</time>
      </trkpt>
      <trkpt lat="42.9827" lon="0.55968">
        <ele>685</ele>
        <time>2019-06-30T12:56:15.000Z</time>
      </trkpt>
      <trkpt lat="42.98271" lon="0.55967">
        <ele>684</ele>
        <time>2019-06-30T12:56:17.000Z</time>
      </trkpt>
      <trkpt lat="42.98273" lon="0.55967">
        <ele>683</ele>
        <time>2019-06-30T12:56:19.000Z</time>
      </trkpt>
      <trkpt lat="42.98274" lon="0.55966">
        <ele>683</ele>
        <time>2019-06-30T12:56:21.000Z</time>
      </trkpt>
      <trkpt lat="42.98275" lon="0.55963">
        <ele>683</ele>
        <time>2019-06-30T12:56:23.000Z</time>
      </trkpt>
      <trkpt lat="42.98277" lon="0.55962">
        <ele>683</ele>
        <time>2019-06-30T12:56:25.000Z</time>
      </trkpt>
      <trkpt lat="42.98278" lon="0.5596">
        <ele>683</ele>
        <time>2019-06-30T12:56:27.000Z</time>
      </trkpt>
      <trkpt lat="42.9828" lon="0.55958">
        <ele>683</ele>
        <time>2019-06-30T12:56:29.000Z</time>
      </trkpt>
      <trkpt lat="42.98281" lon="0.55956">
        <ele>683</ele>
        <time>2019-06-30T12:56:31.000Z</time>
      </trkpt>
      <trkpt lat="42.98283" lon="0.55954">
        <ele>683</ele>
        <time>2019-06-30T12:56:33.000Z</time>
      </trkpt>
      <trkpt lat="42.98283" lon="0.55951">
        <ele>683</ele>
        <time>2019-06-30T12:56:35.000Z</time>
      </trkpt>
      <trkpt lat="42.98285" lon="0.55949">
        <ele>683</ele>
        <time>2019-06-30T12:56:37.000Z</time>
      </trkpt>
      <trkpt lat="42.98286" lon="0.55948">
        <ele>683</ele>
        <time>2019-06-30T12:56:39.000Z</time>
      </trkpt>
      <trkpt lat="42.98287" lon="0.55947">
        <ele>682</ele>
        <time>2019-06-30T12:56:41.000Z</time>
      </trkpt>
      <trkpt lat="42.98289" lon="0.55945">
        <ele>682</ele>
        <time>2019-06-30T12:56:43.000Z</time>
      </trkpt>
      <trkpt lat="42.98292" lon="0.55944">
        <ele>681</ele>
        <time>2019-06-30T12:56:45.000Z</time>
      </trkpt>
      <trkpt lat="42.98294" lon="0.55942">
        <ele>681</ele>
        <time>2019-06-30T12:56:47.000Z</time>
      </trkpt>
      <trkpt lat="42.98295" lon="0.55941">
        <ele>681</ele>
        <time>2019-06-30T12:56:49.000Z</time>
      </trkpt>
      <trkpt lat="42.98296" lon="0.55938">
        <ele>681</ele>
        <time>2019-06-30T12:56:51.000Z</time>
      </trkpt>
      <trkpt lat="42.98296" lon="0.55936">
        <ele>681</ele>
        <time>2019-06-30T12:56:53.000Z</time>
      </trkpt>
      <trkpt lat="42.98298" lon="0.55934">
        <ele>681</ele>
        <time>2019-06-30T12:56:55.000Z</time>
      </trkpt>
      <trkpt lat="42.98299" lon="0.55933">
        <ele>681</ele>
        <time>2019-06-30T12:56:57.000Z</time>
      </trkpt>
      <trkpt lat="42.98301" lon="0.55932">
        <ele>680</ele>
        <time>2019-06-30T12:56:59.000Z</time>
      </trkpt>
      <trkpt lat="42.98303" lon="0.55931">
        <ele>680</ele>
        <time>2019-06-30T12:57:01.000Z</time>
      </trkpt>
      <trkpt lat="42.98305" lon="0.55929">
        <ele>679</ele>
        <time>2019-06-30T12:57:03.000Z</time>
      </trkpt>
      <trkpt lat="42.98306" lon="0.55927">
        <ele>679</ele>
        <time>2019-06-30T12:57:05.000Z</time>
      </trkpt>
      <trkpt lat="42.98308" lon="0.55926">
        <ele>679</ele>
        <time>2019-06-30T12:57:07.000Z</time>
      </trkpt>
      <trkpt lat="42.98308" lon="0.55926">
        <ele>679</ele>
        <time>2019-06-30T12:57:09.000Z</time>
      </trkpt>
      <trkpt lat="42.98309" lon="0.55925">
        <ele>679</ele>
        <time>2019-06-30T12:57:11.000Z</time>
      </trkpt>
      <trkpt lat="42.98309" lon="0.55923">
        <ele>679</ele>
        <time>2019-06-30T12:57:13.000Z</time>
      </trkpt>
      <trkpt lat="42.98309" lon="0.55921">
        <ele>680</ele>
        <time>2019-06-30T12:57:15.000Z</time>
      </trkpt>
      <trkpt lat="42.98309" lon="0.55918">
        <ele>681</ele>
        <time>2019-06-30T12:57:17.000Z</time>
      </trkpt>
      <trkpt lat="42.98309" lon="0.55916">
        <ele>681</ele>
        <time>2019-06-30T12:57:19.000Z</time>
      </trkpt>
      <trkpt lat="42.98311" lon="0.55916">
        <ele>681</ele>
        <time>2019-06-30T12:57:21.000Z</time>
      </trkpt>
      <trkpt lat="42.98312" lon="0.55915">
        <ele>680</ele>
        <time>2019-06-30T12:57:23.000Z</time>
      </trkpt>
      <trkpt lat="42.98313" lon="0.55914">
        <ele>680</ele>
        <time>2019-06-30T12:57:25.000Z</time>
      </trkpt>
      <trkpt lat="42.98314" lon="0.55911">
        <ele>681</ele>
        <time>2019-06-30T12:57:27.000Z</time>
      </trkpt>
      <trkpt lat="42.98315" lon="0.55909">
        <ele>681</ele>
        <time>2019-06-30T12:57:29.000Z</time>
      </trkpt>
      <trkpt lat="42.98316" lon="0.55909">
        <ele>680</ele>
        <time>2019-06-30T12:57:31.000Z</time>
      </trkpt>
      <trkpt lat="42.98317" lon="0.55908">
        <ele>680</ele>
        <time>2019-06-30T12:57:33.000Z</time>
      </trkpt>
      <trkpt lat="42.98318" lon="0.55908">
        <ele>680</ele>
        <time>2019-06-30T12:57:35.000Z</time>
      </trkpt>
      <trkpt lat="42.98319" lon="0.55909">
        <ele>679</ele>
        <time>2019-06-30T12:57:37.000Z</time>
      </trkpt>
      <trkpt lat="42.98321" lon="0.55909">
        <ele>678</ele>
        <time>2019-06-30T12:57:39.000Z</time>
      </trkpt>
      <trkpt lat="42.9832" lon="0.55909">
        <ele>678</ele>
        <time>2019-06-30T12:57:41.000Z</time>
      </trkpt>
      <trkpt lat="42.98319" lon="0.55907">
        <ele>679</ele>
        <time>2019-06-30T12:57:43.000Z</time>
      </trkpt>
      <trkpt lat="42.98319" lon="0.55907">
        <ele>679</ele>
        <time>2019-06-30T12:57:45.000Z</time>
      </trkpt>
      <trkpt lat="42.9832" lon="0.55908">
        <ele>679</ele>
        <time>2019-06-30T12:57:47.000Z</time>
      </trkpt>
      <trkpt lat="42.98322" lon="0.55909">
        <ele>677</ele>
        <time>2019-06-30T12:57:49.000Z</time>
      </trkpt>
      <trkpt lat="42.98323" lon="0.55912">
        <ele>676</ele>
        <time>2019-06-30T12:57:51.000Z</time>
      </trkpt>
      <trkpt lat="42.98324" lon="0.55913">
        <ele>676</ele>
        <time>2019-06-30T12:57:53.000Z</time>
      </trkpt>
      <trkpt lat="42.98324" lon="0.55914">
        <ele>675</ele>
        <time>2019-06-30T12:57:55.000Z</time>
      </trkpt>
      <trkpt lat="42.98324" lon="0.55914">
        <ele>675</ele>
        <time>2019-06-30T12:57:57.000Z</time>
      </trkpt>
      <trkpt lat="42.98324" lon="0.55914">
        <ele>675</ele>
        <time>2019-06-30T12:57:59.000Z</time>
      </trkpt>
      <trkpt lat="42.98324" lon="0.55915">
        <ele>675</ele>
        <time>2019-06-30T12:58:01.000Z</time>
      </trkpt>
      <trkpt lat="42.98325" lon="0.55917">
        <ele>674</ele>
        <time>2019-06-30T12:58:03.000Z</time>
      </trkpt>
      <trkpt lat="42.98326" lon="0.55918">
        <ele>673</ele>
        <time>2019-06-30T12:58:05.000Z</time>
      </trkpt>
      <trkpt lat="42.98326" lon="0.55919">
        <ele>673</ele>
        <time>2019-06-30T12:58:07.000Z</time>
      </trkpt>
      <trkpt lat="42.98326" lon="0.5592">
        <ele>673</ele>
        <time>2019-06-30T12:58:09.000Z</time>
      </trkpt>
      <trkpt lat="42.98326" lon="0.5592">
        <ele>673</ele>
        <time>2019-06-30T12:58:11.000Z</time>
      </trkpt>
      <trkpt lat="42.98327" lon="0.5592">
        <ele>672</ele>
        <time>2019-06-30T12:58:13.000Z</time>
      </trkpt>
      <trkpt lat="42.98328" lon="0.55922">
        <ele>671</ele>
        <time>2019-06-30T12:58:15.000Z</time>
      </trkpt>
      <trkpt lat="42.98328" lon="0.55924">
        <ele>671</ele>
        <time>2019-06-30T12:58:17.000Z</time>
      </trkpt>
      <trkpt lat="42.98328" lon="0.55925">
        <ele>670</ele>
        <time>2019-06-30T12:58:19.000Z</time>
      </trkpt>
      <trkpt lat="42.98328" lon="0.55927">
        <ele>670</ele>
        <time>2019-06-30T12:58:21.000Z</time>
      </trkpt>
      <trkpt lat="42.98328" lon="0.55928">
        <ele>669</ele>
        <time>2019-06-30T12:58:23.000Z</time>
      </trkpt>
      <trkpt lat="42.98327" lon="0.55931">
        <ele>669</ele>
        <time>2019-06-30T12:58:25.000Z</time>
      </trkpt>
      <trkpt lat="42.98327" lon="0.55932">
        <ele>669</ele>
        <time>2019-06-30T12:58:27.000Z</time>
      </trkpt>
      <trkpt lat="42.98327" lon="0.55935">
        <ele>668</ele>
        <time>2019-06-30T12:58:29.000Z</time>
      </trkpt>
      <trkpt lat="42.98327" lon="0.55936">
        <ele>668</ele>
        <time>2019-06-30T12:58:31.000Z</time>
      </trkpt>
      <trkpt lat="42.98328" lon="0.55938">
        <ele>667</ele>
        <time>2019-06-30T12:58:33.000Z</time>
      </trkpt>
      <trkpt lat="42.98327" lon="0.55941">
        <ele>666</ele>
        <time>2019-06-30T12:58:35.000Z</time>
      </trkpt>
      <trkpt lat="42.98327" lon="0.55944">
        <ele>665</ele>
        <time>2019-06-30T12:58:37.000Z</time>
      </trkpt>
      <trkpt lat="42.98327" lon="0.55947">
        <ele>665</ele>
        <time>2019-06-30T12:58:39.000Z</time>
      </trkpt>
      <trkpt lat="42.98326" lon="0.55949">
        <ele>664</ele>
        <time>2019-06-30T12:58:41.000Z</time>
      </trkpt>
      <trkpt lat="42.98326" lon="0.55951">
        <ele>664</ele>
        <time>2019-06-30T12:58:43.000Z</time>
      </trkpt>
      <trkpt lat="42.98325" lon="0.55953">
        <ele>663</ele>
        <time>2019-06-30T12:58:45.000Z</time>
      </trkpt>
      <trkpt lat="42.98325" lon="0.55956">
        <ele>663</ele>
        <time>2019-06-30T12:58:47.000Z</time>
      </trkpt>
      <trkpt lat="42.98325" lon="0.55957">
        <ele>662</ele>
        <time>2019-06-30T12:58:49.000Z</time>
      </trkpt>
      <trkpt lat="42.98326" lon="0.55958">
        <ele>662</ele>
        <time>2019-06-30T12:58:51.000Z</time>
      </trkpt>
      <trkpt lat="42.98326" lon="0.5596">
        <ele>661</ele>
        <time>2019-06-30T12:58:53.000Z</time>
      </trkpt>
      <trkpt lat="42.98326" lon="0.55961">
        <ele>661</ele>
        <time>2019-06-30T12:58:55.000Z</time>
      </trkpt>
      <trkpt lat="42.98325" lon="0.55962">
        <ele>661</ele>
        <time>2019-06-30T12:58:57.000Z</time>
      </trkpt>
      <trkpt lat="42.98325" lon="0.55963">
        <ele>661</ele>
        <time>2019-06-30T12:58:59.000Z</time>
      </trkpt>
      <trkpt lat="42.98325" lon="0.55966">
        <ele>660</ele>
        <time>2019-06-30T12:59:01.000Z</time>
      </trkpt>
      <trkpt lat="42.98324" lon="0.55967">
        <ele>660</ele>
        <time>2019-06-30T12:59:03.000Z</time>
      </trkpt>
      <trkpt lat="42.98323" lon="0.55969">
        <ele>660</ele>
        <time>2019-06-30T12:59:05.000Z</time>
      </trkpt>
      <trkpt lat="42.98322" lon="0.5597">
        <ele>660</ele>
        <time>2019-06-30T12:59:07.000Z</time>
      </trkpt>
      <trkpt lat="42.98322" lon="0.55972">
        <ele>660</ele>
        <time>2019-06-30T12:59:09.000Z</time>
      </trkpt>
      <trkpt lat="42.98321" lon="0.55973">
        <ele>660</ele>
        <time>2019-06-30T12:59:11.000Z</time>
      </trkpt>
      <trkpt lat="42.9832" lon="0.55975">
        <ele>660</ele>
        <time>2019-06-30T12:59:13.000Z</time>
      </trkpt>
      <trkpt lat="42.9832" lon="0.55975">
        <ele>660</ele>
        <time>2019-06-30T12:59:15.000Z</time>
      </trkpt>
      <trkpt lat="42.9832" lon="0.55978">
        <ele>660</ele>
        <time>2019-06-30T12:59:17.000Z</time>
      </trkpt>
      <trkpt lat="42.98319" lon="0.55979">
        <ele>660</ele>
        <time>2019-06-30T12:59:19.000Z</time>
      </trkpt>
      <trkpt lat="42.98319" lon="0.55981">
        <ele>659</ele>
        <time>2019-06-30T12:59:21.000Z</time>
      </trkpt>
      <trkpt lat="42.98318" lon="0.55983">
        <ele>659</ele>
        <time>2019-06-30T12:59:23.000Z</time>
      </trkpt>
      <trkpt lat="42.98318" lon="0.55984">
        <ele>659</ele>
        <time>2019-06-30T12:59:25.000Z</time>
      </trkpt>
      <trkpt lat="42.98318" lon="0.55986">
        <ele>658</ele>
        <time>2019-06-30T12:59:27.000Z</time>
      </trkpt>
      <trkpt lat="42.98318" lon="0.55988">
        <ele>658</ele>
        <time>2019-06-30T12:59:29.000Z</time>
      </trkpt>
      <trkpt lat="42.98318" lon="0.5599">
        <ele>657</ele>
        <time>2019-06-30T12:59:31.000Z</time>
      </trkpt>
      <trkpt lat="42.98317" lon="0.55991">
        <ele>657</ele>
        <time>2019-06-30T12:59:33.000Z</time>
      </trkpt>
      <trkpt lat="42.98317" lon="0.55993">
        <ele>657</ele>
        <time>2019-06-30T12:59:35.000Z</time>
      </trkpt>
      <trkpt lat="42.98316" lon="0.55995">
        <ele>657</ele>
        <time>2019-06-30T12:59:37.000Z</time>
      </trkpt>
      <trkpt lat="42.98316" lon="0.55997">
        <ele>657</ele>
        <time>2019-06-30T12:59:39.000Z</time>
      </trkpt>
      <trkpt lat="42.98315" lon="0.55999">
        <ele>657</ele>
        <time>2019-06-30T12:59:41.000Z</time>
      </trkpt>
      <trkpt lat="42.98314" lon="0.56001">
        <ele>656</ele>
        <time>2019-06-30T12:59:43.000Z</time>
      </trkpt>
      <trkpt lat="42.98314" lon="0.56001">
        <ele>656</ele>
        <time>2019-06-30T12:59:45.000Z</time>
      </trkpt>
      <trkpt lat="42.98314" lon="0.56003">
        <ele>656</ele>
        <time>2019-06-30T12:59:47.000Z</time>
      </trkpt>
      <trkpt lat="42.98313" lon="0.56005">
        <ele>656</ele>
        <time>2019-06-30T12:59:49.000Z</time>
      </trkpt>
      <trkpt lat="42.98313" lon="0.56007">
        <ele>656</ele>
        <time>2019-06-30T12:59:51.000Z</time>
      </trkpt>
      <trkpt lat="42.98314" lon="0.56009">
        <ele>655</ele>
        <time>2019-06-30T12:59:53.000Z</time>
      </trkpt>
      <trkpt lat="42.98313" lon="0.5601">
        <ele>655</ele>
        <time>2019-06-30T12:59:55.000Z</time>
      </trkpt>
      <trkpt lat="42.98313" lon="0.56012">
        <ele>654</ele>
        <time>2019-06-30T12:59:57.000Z</time>
      </trkpt>
      <trkpt lat="42.98313" lon="0.56014">
        <ele>654</ele>
        <time>2019-06-30T12:59:59.000Z</time>
      </trkpt>
      <trkpt lat="42.98312" lon="0.56017">
        <ele>654</ele>
        <time>2019-06-30T13:00:01.000Z</time>
      </trkpt>
      <trkpt lat="42.98312" lon="0.56019">
        <ele>653</ele>
        <time>2019-06-30T13:00:03.000Z</time>
      </trkpt>
      <trkpt lat="42.98311" lon="0.56021">
        <ele>653</ele>
        <time>2019-06-30T13:00:05.000Z</time>
      </trkpt>
      <trkpt lat="42.9831" lon="0.56024">
        <ele>653</ele>
        <time>2019-06-30T13:00:07.000Z</time>
      </trkpt>
      <trkpt lat="42.9831" lon="0.56027">
        <ele>652</ele>
        <time>2019-06-30T13:00:09.000Z</time>
      </trkpt>
      <trkpt lat="42.98309" lon="0.56031">
        <ele>652</ele>
        <time>2019-06-30T13:00:11.000Z</time>
      </trkpt>
      <trkpt lat="42.9831" lon="0.56034">
        <ele>651</ele>
        <time>2019-06-30T13:00:13.000Z</time>
      </trkpt>
      <trkpt lat="42.98309" lon="0.56037">
        <ele>650</ele>
        <time>2019-06-30T13:00:15.000Z</time>
      </trkpt>
      <trkpt lat="42.98308" lon="0.56039">
        <ele>650</ele>
        <time>2019-06-30T13:00:17.000Z</time>
      </trkpt>
      <trkpt lat="42.98308" lon="0.56042">
        <ele>649</ele>
        <time>2019-06-30T13:00:19.000Z</time>
      </trkpt>
      <trkpt lat="42.98308" lon="0.56045">
        <ele>649</ele>
        <time>2019-06-30T13:00:21.000Z</time>
      </trkpt>
      <trkpt lat="42.98307" lon="0.56048">
        <ele>648</ele>
        <time>2019-06-30T13:00:23.000Z</time>
      </trkpt>
      <trkpt lat="42.98307" lon="0.56051">
        <ele>648</ele>
        <time>2019-06-30T13:00:25.000Z</time>
      </trkpt>
      <trkpt lat="42.98307" lon="0.56054">
        <ele>647</ele>
        <time>2019-06-30T13:00:27.000Z</time>
      </trkpt>
      <trkpt lat="42.98307" lon="0.56056">
        <ele>647</ele>
        <time>2019-06-30T13:00:29.000Z</time>
      </trkpt>
      <trkpt lat="42.98306" lon="0.56058">
        <ele>647</ele>
        <time>2019-06-30T13:00:31.000Z</time>
      </trkpt>
      <trkpt lat="42.98306" lon="0.5606">
        <ele>647</ele>
        <time>2019-06-30T13:00:33.000Z</time>
      </trkpt>
      <trkpt lat="42.98306" lon="0.56062">
        <ele>646</ele>
        <time>2019-06-30T13:00:35.000Z</time>
      </trkpt>
      <trkpt lat="42.98306" lon="0.56064">
        <ele>646</ele>
        <time>2019-06-30T13:00:37.000Z</time>
      </trkpt>
      <trkpt lat="42.98306" lon="0.56067">
        <ele>645</ele>
        <time>2019-06-30T13:00:39.000Z</time>
      </trkpt>
      <trkpt lat="42.98306" lon="0.56069">
        <ele>645</ele>
        <time>2019-06-30T13:00:41.000Z</time>
      </trkpt>
      <trkpt lat="42.98307" lon="0.56071">
        <ele>644</ele>
        <time>2019-06-30T13:00:43.000Z</time>
      </trkpt>
      <trkpt lat="42.98307" lon="0.56073">
        <ele>644</ele>
        <time>2019-06-30T13:00:45.000Z</time>
      </trkpt>
      <trkpt lat="42.98307" lon="0.56074">
        <ele>644</ele>
        <time>2019-06-30T13:00:47.000Z</time>
      </trkpt>
      <trkpt lat="42.98307" lon="0.56076">
        <ele>644</ele>
        <time>2019-06-30T13:00:49.000Z</time>
      </trkpt>
      <trkpt lat="42.98307" lon="0.56077">
        <ele>644</ele>
        <time>2019-06-30T13:00:51.000Z</time>
      </trkpt>
      <trkpt lat="42.98306" lon="0.56079">
        <ele>643</ele>
        <time>2019-06-30T13:00:53.000Z</time>
      </trkpt>
      <trkpt lat="42.98305" lon="0.56082">
        <ele>643</ele>
        <time>2019-06-30T13:00:55.000Z</time>
      </trkpt>
      <trkpt lat="42.98305" lon="0.56084">
        <ele>643</ele>
        <time>2019-06-30T13:00:57.000Z</time>
      </trkpt>
      <trkpt lat="42.98304" lon="0.56086">
        <ele>643</ele>
        <time>2019-06-30T13:00:59.000Z</time>
      </trkpt>
      <trkpt lat="42.98302" lon="0.56089">
        <ele>643</ele>
        <time>2019-06-30T13:01:01.000Z</time>
      </trkpt>
      <trkpt lat="42.98301" lon="0.56091">
        <ele>644</ele>
        <time>2019-06-30T13:01:03.000Z</time>
      </trkpt>
      <trkpt lat="42.983" lon="0.56093">
        <ele>644</ele>
        <time>2019-06-30T13:01:05.000Z</time>
      </trkpt>
      <trkpt lat="42.98299" lon="0.56096">
        <ele>644</ele>
        <time>2019-06-30T13:01:07.000Z</time>
      </trkpt>
      <trkpt lat="42.98298" lon="0.56098">
        <ele>643</ele>
        <time>2019-06-30T13:01:09.000Z</time>
      </trkpt>
      <trkpt lat="42.98297" lon="0.56101">
        <ele>643</ele>
        <time>2019-06-30T13:01:11.000Z</time>
      </trkpt>
      <trkpt lat="42.98296" lon="0.56103">
        <ele>643</ele>
        <time>2019-06-30T13:01:13.000Z</time>
      </trkpt>
      <trkpt lat="42.98294" lon="0.56106">
        <ele>643</ele>
        <time>2019-06-30T13:01:15.000Z</time>
      </trkpt>
      <trkpt lat="42.98293" lon="0.56108">
        <ele>643</ele>
        <time>2019-06-30T13:01:17.000Z</time>
      </trkpt>
      <trkpt lat="42.98292" lon="0.56109">
        <ele>643</ele>
        <time>2019-06-30T13:01:19.000Z</time>
      </trkpt>
      <trkpt lat="42.9829" lon="0.56111">
        <ele>643</ele>
        <time>2019-06-30T13:01:21.000Z</time>
      </trkpt>
      <trkpt lat="42.98289" lon="0.56114">
        <ele>642</ele>
        <time>2019-06-30T13:01:23.000Z</time>
      </trkpt>
      <trkpt lat="42.98288" lon="0.56116">
        <ele>642</ele>
        <time>2019-06-30T13:01:25.000Z</time>
      </trkpt>
      <trkpt lat="42.98287" lon="0.56118">
        <ele>642</ele>
        <time>2019-06-30T13:01:27.000Z</time>
      </trkpt>
      <trkpt lat="42.98286" lon="0.5612">
        <ele>642</ele>
        <time>2019-06-30T13:01:29.000Z</time>
      </trkpt>
      <trkpt lat="42.98286" lon="0.56122">
        <ele>641</ele>
        <time>2019-06-30T13:01:31.000Z</time>
      </trkpt>
      <trkpt lat="42.98285" lon="0.56125">
        <ele>641</ele>
        <time>2019-06-30T13:01:33.000Z</time>
      </trkpt>
      <trkpt lat="42.98285" lon="0.56128">
        <ele>640</ele>
        <time>2019-06-30T13:01:35.000Z</time>
      </trkpt>
      <trkpt lat="42.98284" lon="0.56131">
        <ele>640</ele>
        <time>2019-06-30T13:01:37.000Z</time>
      </trkpt>
      <trkpt lat="42.98281" lon="0.56133">
        <ele>640</ele>
        <time>2019-06-30T13:01:39.000Z</time>
      </trkpt>
      <trkpt lat="42.98281" lon="0.56134">
        <ele>640</ele>
        <time>2019-06-30T13:01:41.000Z</time>
      </trkpt>
      <trkpt lat="42.9828" lon="0.56137">
        <ele>640</ele>
        <time>2019-06-30T13:01:43.000Z</time>
      </trkpt>
      <trkpt lat="42.9828" lon="0.56139">
        <ele>640</ele>
        <time>2019-06-30T13:01:45.000Z</time>
      </trkpt>
      <trkpt lat="42.98279" lon="0.56142">
        <ele>640</ele>
        <time>2019-06-30T13:01:47.000Z</time>
      </trkpt>
      <trkpt lat="42.98279" lon="0.56144">
        <ele>639</ele>
        <time>2019-06-30T13:01:49.000Z</time>
      </trkpt>
      <trkpt lat="42.9828" lon="0.56147">
        <ele>639</ele>
        <time>2019-06-30T13:01:51.000Z</time>
      </trkpt>
      <trkpt lat="42.98279" lon="0.56149">
        <ele>639</ele>
        <time>2019-06-30T13:01:53.000Z</time>
      </trkpt>
      <trkpt lat="42.9828" lon="0.56151">
        <ele>638</ele>
        <time>2019-06-30T13:01:55.000Z</time>
      </trkpt>
      <trkpt lat="42.9828" lon="0.56153">
        <ele>638</ele>
        <time>2019-06-30T13:01:57.000Z</time>
      </trkpt>
      <trkpt lat="42.98279" lon="0.56154">
        <ele>638</ele>
        <time>2019-06-30T13:01:59.000Z</time>
      </trkpt>
      <trkpt lat="42.98279" lon="0.56155">
        <ele>638</ele>
        <time>2019-06-30T13:02:01.000Z</time>
      </trkpt>
      <trkpt lat="42.98279" lon="0.56158">
        <ele>638</ele>
        <time>2019-06-30T13:02:03.000Z</time>
      </trkpt>
      <trkpt lat="42.98279" lon="0.56159">
        <ele>637</ele>
        <time>2019-06-30T13:02:05.000Z</time>
      </trkpt>
      <trkpt lat="42.98277" lon="0.56161">
        <ele>638</ele>
        <time>2019-06-30T13:02:07.000Z</time>
      </trkpt>
      <trkpt lat="42.98275" lon="0.56163">
        <ele>638</ele>
        <time>2019-06-30T13:02:09.000Z</time>
      </trkpt>
      <trkpt lat="42.98274" lon="0.56166">
        <ele>638</ele>
        <time>2019-06-30T13:02:11.000Z</time>
      </trkpt>
      <trkpt lat="42.98274" lon="0.5617">
        <ele>637</ele>
        <time>2019-06-30T13:02:13.000Z</time>
      </trkpt>
      <trkpt lat="42.98274" lon="0.56173">
        <ele>636</ele>
        <time>2019-06-30T13:02:15.000Z</time>
      </trkpt>
      <trkpt lat="42.98274" lon="0.56176">
        <ele>636</ele>
        <time>2019-06-30T13:02:17.000Z</time>
      </trkpt>
      <trkpt lat="42.98274" lon="0.56179">
        <ele>635</ele>
        <time>2019-06-30T13:02:19.000Z</time>
      </trkpt>
      <trkpt lat="42.98274" lon="0.56183">
        <ele>635</ele>
        <time>2019-06-30T13:02:21.000Z</time>
      </trkpt>
      <trkpt lat="42.98273" lon="0.56185">
        <ele>635</ele>
        <time>2019-06-30T13:02:23.000Z</time>
      </trkpt>
      <trkpt lat="42.98273" lon="0.56187">
        <ele>634</ele>
        <time>2019-06-30T13:02:25.000Z</time>
      </trkpt>
      <trkpt lat="42.98272" lon="0.56189">
        <ele>634</ele>
        <time>2019-06-30T13:02:27.000Z</time>
      </trkpt>
      <trkpt lat="42.98273" lon="0.56192">
        <ele>633</ele>
        <time>2019-06-30T13:02:29.000Z</time>
      </trkpt>
      <trkpt lat="42.98273" lon="0.56195">
        <ele>633</ele>
        <time>2019-06-30T13:02:31.000Z</time>
      </trkpt>
      <trkpt lat="42.98273" lon="0.56199">
        <ele>632</ele>
        <time>2019-06-30T13:02:33.000Z</time>
      </trkpt>
      <trkpt lat="42.98272" lon="0.56203">
        <ele>632</ele>
        <time>2019-06-30T13:02:35.000Z</time>
      </trkpt>
      <trkpt lat="42.98271" lon="0.56207">
        <ele>631</ele>
        <time>2019-06-30T13:02:37.000Z</time>
      </trkpt>
      <trkpt lat="42.98269" lon="0.56208">
        <ele>631</ele>
        <time>2019-06-30T13:02:39.000Z</time>
      </trkpt>
      <trkpt lat="42.98268" lon="0.5621">
        <ele>632</ele>
        <time>2019-06-30T13:02:41.000Z</time>
      </trkpt>
      <trkpt lat="42.98267" lon="0.56212">
        <ele>631</ele>
        <time>2019-06-30T13:02:43.000Z</time>
      </trkpt>
      <trkpt lat="42.98266" lon="0.56214">
        <ele>631</ele>
        <time>2019-06-30T13:02:45.000Z</time>
      </trkpt>
      <trkpt lat="42.98265" lon="0.56214">
        <ele>632</ele>
        <time>2019-06-30T13:02:47.000Z</time>
      </trkpt>
      <trkpt lat="42.98264" lon="0.56216">
        <ele>631</ele>
        <time>2019-06-30T13:02:49.000Z</time>
      </trkpt>
      <trkpt lat="42.98264" lon="0.56218">
        <ele>631</ele>
        <time>2019-06-30T13:02:51.000Z</time>
      </trkpt>
      <trkpt lat="42.98263" lon="0.5622">
        <ele>632</ele>
        <time>2019-06-30T13:02:53.000Z</time>
      </trkpt>
      <trkpt lat="42.98262" lon="0.56222">
        <ele>632</ele>
        <time>2019-06-30T13:02:55.000Z</time>
      </trkpt>
      <trkpt lat="42.98262" lon="0.56224">
        <ele>632</ele>
        <time>2019-06-30T13:02:57.000Z</time>
      </trkpt>
      <trkpt lat="42.98262" lon="0.56226">
        <ele>631</ele>
        <time>2019-06-30T13:02:59.000Z</time>
      </trkpt>
      <trkpt lat="42.98261" lon="0.56229">
        <ele>631</ele>
        <time>2019-06-30T13:03:01.000Z</time>
      </trkpt>
      <trkpt lat="42.98261" lon="0.56232">
        <ele>631</ele>
        <time>2019-06-30T13:03:03.000Z</time>
      </trkpt>
      <trkpt lat="42.98259" lon="0.56234">
        <ele>631</ele>
        <time>2019-06-30T13:03:05.000Z</time>
      </trkpt>
      <trkpt lat="42.98258" lon="0.56237">
        <ele>631</ele>
        <time>2019-06-30T13:03:07.000Z</time>
      </trkpt>
      <trkpt lat="42.98257" lon="0.5624">
        <ele>631</ele>
        <time>2019-06-30T13:03:09.000Z</time>
      </trkpt>
      <trkpt lat="42.98256" lon="0.56243">
        <ele>631</ele>
        <time>2019-06-30T13:03:11.000Z</time>
      </trkpt>
      <trkpt lat="42.98256" lon="0.56245">
        <ele>631</ele>
        <time>2019-06-30T13:03:13.000Z</time>
      </trkpt>
      <trkpt lat="42.98255" lon="0.56247">
        <ele>631</ele>
        <time>2019-06-30T13:03:15.000Z</time>
      </trkpt>
      <trkpt lat="42.98255" lon="0.56249">
        <ele>631</ele>
        <time>2019-06-30T13:03:17.000Z</time>
      </trkpt>
      <trkpt lat="42.98255" lon="0.56251">
        <ele>631</ele>
        <time>2019-06-30T13:03:19.000Z</time>
      </trkpt>
      <trkpt lat="42.98255" lon="0.56252">
        <ele>631</ele>
        <time>2019-06-30T13:03:21.000Z</time>
      </trkpt>
      <trkpt lat="42.98255" lon="0.56255">
        <ele>631</ele>
        <time>2019-06-30T13:03:23.000Z</time>
      </trkpt>
      <trkpt lat="42.98255" lon="0.56256">
        <ele>631</ele>
        <time>2019-06-30T13:03:25.000Z</time>
      </trkpt>
      <trkpt lat="42.98255" lon="0.56258">
        <ele>630</ele>
        <time>2019-06-30T13:03:27.000Z</time>
      </trkpt>
      <trkpt lat="42.98255" lon="0.56259">
        <ele>630</ele>
        <time>2019-06-30T13:03:29.000Z</time>
      </trkpt>
      <trkpt lat="42.98255" lon="0.56261">
        <ele>630</ele>
        <time>2019-06-30T13:03:31.000Z</time>
      </trkpt>
      <trkpt lat="42.98255" lon="0.56263">
        <ele>630</ele>
        <time>2019-06-30T13:03:33.000Z</time>
      </trkpt>
      <trkpt lat="42.98255" lon="0.56265">
        <ele>629</ele>
        <time>2019-06-30T13:03:35.000Z</time>
      </trkpt>
      <trkpt lat="42.98257" lon="0.56266">
        <ele>629</ele>
        <time>2019-06-30T13:03:37.000Z</time>
      </trkpt>
      <trkpt lat="42.98257" lon="0.56268">
        <ele>628</ele>
        <time>2019-06-30T13:03:39.000Z</time>
      </trkpt>
      <trkpt lat="42.98257" lon="0.56268">
        <ele>628</ele>
        <time>2019-06-30T13:03:41.000Z</time>
      </trkpt>
      <trkpt lat="42.98257" lon="0.56269">
        <ele>628</ele>
        <time>2019-06-30T13:03:43.000Z</time>
      </trkpt>
      <trkpt lat="42.98258" lon="0.5627">
        <ele>627</ele>
        <time>2019-06-30T13:03:45.000Z</time>
      </trkpt>
      <trkpt lat="42.98258" lon="0.5627">
        <ele>627</ele>
        <time>2019-06-30T13:03:47.000Z</time>
      </trkpt>
      <trkpt lat="42.98259" lon="0.5627">
        <ele>627</ele>
        <time>2019-06-30T13:03:49.000Z</time>
      </trkpt>
      <trkpt lat="42.9826" lon="0.56271">
        <ele>627</ele>
        <time>2019-06-30T13:03:51.000Z</time>
      </trkpt>
      <trkpt lat="42.9826" lon="0.56272">
        <ele>627</ele>
        <time>2019-06-30T13:03:53.000Z</time>
      </trkpt>
      <trkpt lat="42.9826" lon="0.56272">
        <ele>627</ele>
        <time>2019-06-30T13:03:55.000Z</time>
      </trkpt>
      <trkpt lat="42.98261" lon="0.56272">
        <ele>627</ele>
        <time>2019-06-30T13:03:57.000Z</time>
      </trkpt>
      <trkpt lat="42.98261" lon="0.56272">
        <ele>627</ele>
        <time>2019-06-30T13:03:59.000Z</time>
      </trkpt>
      <trkpt lat="42.98261" lon="0.56272">
        <ele>627</ele>
        <time>2019-06-30T13:04:01.000Z</time>
      </trkpt>
      <trkpt lat="42.98261" lon="0.56272">
        <ele>627</ele>
        <time>2019-06-30T13:04:03.000Z</time>
      </trkpt>
      <trkpt lat="42.9826" lon="0.56273">
        <ele>627</ele>
        <time>2019-06-30T13:04:05.000Z</time>
      </trkpt>
      <trkpt lat="42.98261" lon="0.56274">
        <ele>626</ele>
        <time>2019-06-30T13:04:07.000Z</time>
      </trkpt>
      <trkpt lat="42.9826" lon="0.56275">
        <ele>627</ele>
        <time>2019-06-30T13:04:09.000Z</time>
      </trkpt>
      <trkpt lat="42.98261" lon="0.56278">
        <ele>626</ele>
        <time>2019-06-30T13:04:11.000Z</time>
      </trkpt>
      <trkpt lat="42.98262" lon="0.56281">
        <ele>625</ele>
        <time>2019-06-30T13:04:13.000Z</time>
      </trkpt>
      <trkpt lat="42.98262" lon="0.56282">
        <ele>625</ele>
        <time>2019-06-30T13:04:15.000Z</time>
      </trkpt>
      <trkpt lat="42.98263" lon="0.56283">
        <ele>625</ele>
        <time>2019-06-30T13:04:17.000Z</time>
      </trkpt>
      <trkpt lat="42.98262" lon="0.56285">
        <ele>625</ele>
        <time>2019-06-30T13:04:19.000Z</time>
      </trkpt>
      <trkpt lat="42.98263" lon="0.56288">
        <ele>625</ele>
        <time>2019-06-30T13:04:21.000Z</time>
      </trkpt>
      <trkpt lat="42.98263" lon="0.5629">
        <ele>624</ele>
        <time>2019-06-30T13:04:23.000Z</time>
      </trkpt>
      <trkpt lat="42.98264" lon="0.56291">
        <ele>624</ele>
        <time>2019-06-30T13:04:25.000Z</time>
      </trkpt>
      <trkpt lat="42.98264" lon="0.56292">
        <ele>624</ele>
        <time>2019-06-30T13:04:27.000Z</time>
      </trkpt>
      <trkpt lat="42.98264" lon="0.56293">
        <ele>624</ele>
        <time>2019-06-30T13:04:29.000Z</time>
      </trkpt>
      <trkpt lat="42.98264" lon="0.56294">
        <ele>624</ele>
        <time>2019-06-30T13:04:31.000Z</time>
      </trkpt>
      <trkpt lat="42.98264" lon="0.56296">
        <ele>623</ele>
        <time>2019-06-30T13:04:33.000Z</time>
      </trkpt>
      <trkpt lat="42.98264" lon="0.56297">
        <ele>623</ele>
        <time>2019-06-30T13:04:35.000Z</time>
      </trkpt>
      <trkpt lat="42.98264" lon="0.563">
        <ele>623</ele>
        <time>2019-06-30T13:04:37.000Z</time>
      </trkpt>
      <trkpt lat="42.98265" lon="0.56303">
        <ele>623</ele>
        <time>2019-06-30T13:04:39.000Z</time>
      </trkpt>
      <trkpt lat="42.98267" lon="0.56308">
        <ele>622</ele>
        <time>2019-06-30T13:04:41.000Z</time>
      </trkpt>
      <trkpt lat="42.98268" lon="0.56313">
        <ele>622</ele>
        <time>2019-06-30T13:04:43.000Z</time>
      </trkpt>
      <trkpt lat="42.98267" lon="0.56316">
        <ele>622</ele>
        <time>2019-06-30T13:04:45.000Z</time>
      </trkpt>
      <trkpt lat="42.98268" lon="0.56319">
        <ele>621</ele>
        <time>2019-06-30T13:04:47.000Z</time>
      </trkpt>
      <trkpt lat="42.98267" lon="0.56322">
        <ele>621</ele>
        <time>2019-06-30T13:04:49.000Z</time>
      </trkpt>
      <trkpt lat="42.98265" lon="0.56324">
        <ele>621</ele>
        <time>2019-06-30T13:04:51.000Z</time>
      </trkpt>
      <trkpt lat="42.98264" lon="0.56327">
        <ele>621</ele>
        <time>2019-06-30T13:04:53.000Z</time>
      </trkpt>
      <trkpt lat="42.98264" lon="0.5633">
        <ele>621</ele>
        <time>2019-06-30T13:04:55.000Z</time>
      </trkpt>
      <trkpt lat="42.98264" lon="0.56332">
        <ele>621</ele>
        <time>2019-06-30T13:04:57.000Z</time>
      </trkpt>
      <trkpt lat="42.98263" lon="0.56335">
        <ele>621</ele>
        <time>2019-06-30T13:04:59.000Z</time>
      </trkpt>
      <trkpt lat="42.98263" lon="0.56336">
        <ele>621</ele>
        <time>2019-06-30T13:05:01.000Z</time>
      </trkpt>
      <trkpt lat="42.98263" lon="0.56339">
        <ele>620</ele>
        <time>2019-06-30T13:05:03.000Z</time>
      </trkpt>
      <trkpt lat="42.98264" lon="0.56343">
        <ele>620</ele>
        <time>2019-06-30T13:05:05.000Z</time>
      </trkpt>
      <trkpt lat="42.98264" lon="0.56345">
        <ele>620</ele>
        <time>2019-06-30T13:05:07.000Z</time>
      </trkpt>
      <trkpt lat="42.98265" lon="0.56347">
        <ele>619</ele>
        <time>2019-06-30T13:05:09.000Z</time>
      </trkpt>
      <trkpt lat="42.98265" lon="0.56349">
        <ele>619</ele>
        <time>2019-06-30T13:05:11.000Z</time>
      </trkpt>
      <trkpt lat="42.98265" lon="0.56351">
        <ele>619</ele>
        <time>2019-06-30T13:05:13.000Z</time>
      </trkpt>
      <trkpt lat="42.98265" lon="0.56354">
        <ele>619</ele>
        <time>2019-06-30T13:05:15.000Z</time>
      </trkpt>
      <trkpt lat="42.98266" lon="0.56357">
        <ele>618</ele>
        <time>2019-06-30T13:05:17.000Z</time>
      </trkpt>
      <trkpt lat="42.98266" lon="0.5636">
        <ele>618</ele>
        <time>2019-06-30T13:05:19.000Z</time>
      </trkpt>
      <trkpt lat="42.98267" lon="0.56363">
        <ele>618</ele>
        <time>2019-06-30T13:05:21.000Z</time>
      </trkpt>
      <trkpt lat="42.98267" lon="0.56366">
        <ele>618</ele>
        <time>2019-06-30T13:05:23.000Z</time>
      </trkpt>
      <trkpt lat="42.98266" lon="0.56368">
        <ele>618</ele>
        <time>2019-06-30T13:05:25.000Z</time>
      </trkpt>
      <trkpt lat="42.98266" lon="0.56371">
        <ele>617</ele>
        <time>2019-06-30T13:05:27.000Z</time>
      </trkpt>
      <trkpt lat="42.98265" lon="0.56373">
        <ele>617</ele>
        <time>2019-06-30T13:05:29.000Z</time>
      </trkpt>
      <trkpt lat="42.98264" lon="0.56376">
        <ele>617</ele>
        <time>2019-06-30T13:05:31.000Z</time>
      </trkpt>
      <trkpt lat="42.98264" lon="0.56378">
        <ele>617</ele>
        <time>2019-06-30T13:05:33.000Z</time>
      </trkpt>
      <trkpt lat="42.98264" lon="0.5638">
        <ele>617</ele>
        <time>2019-06-30T13:05:35.000Z</time>
      </trkpt>
      <trkpt lat="42.98264" lon="0.56382">
        <ele>617</ele>
        <time>2019-06-30T13:05:37.000Z</time>
      </trkpt>
      <trkpt lat="42.98264" lon="0.56384">
        <ele>616</ele>
        <time>2019-06-30T13:05:39.000Z</time>
      </trkpt>
      <trkpt lat="42.98264" lon="0.56386">
        <ele>616</ele>
        <time>2019-06-30T13:05:41.000Z</time>
      </trkpt>
      <trkpt lat="42.98264" lon="0.56389">
        <ele>616</ele>
        <time>2019-06-30T13:05:43.000Z</time>
      </trkpt>
      <trkpt lat="42.98263" lon="0.56391">
        <ele>615</ele>
        <time>2019-06-30T13:05:45.000Z</time>
      </trkpt>
      <trkpt lat="42.98263" lon="0.56393">
        <ele>615</ele>
        <time>2019-06-30T13:05:47.000Z</time>
      </trkpt>
      <trkpt lat="42.98263" lon="0.56396">
        <ele>615</ele>
        <time>2019-06-30T13:05:49.000Z</time>
      </trkpt>
      <trkpt lat="42.98263" lon="0.56399">
        <ele>615</ele>
        <time>2019-06-30T13:05:51.000Z</time>
      </trkpt>
      <trkpt lat="42.98263" lon="0.56403">
        <ele>614</ele>
        <time>2019-06-30T13:05:53.000Z</time>
      </trkpt>
      <trkpt lat="42.98263" lon="0.56407">
        <ele>614</ele>
        <time>2019-06-30T13:05:55.000Z</time>
      </trkpt>
      <trkpt lat="42.98263" lon="0.56411">
        <ele>613</ele>
        <time>2019-06-30T13:05:57.000Z</time>
      </trkpt>
      <trkpt lat="42.98263" lon="0.56415">
        <ele>613</ele>
        <time>2019-06-30T13:05:59.000Z</time>
      </trkpt>
      <trkpt lat="42.98262" lon="0.56418">
        <ele>613</ele>
        <time>2019-06-30T13:06:01.000Z</time>
      </trkpt>
      <trkpt lat="42.98261" lon="0.56421">
        <ele>613</ele>
        <time>2019-06-30T13:06:03.000Z</time>
      </trkpt>
      <trkpt lat="42.98261" lon="0.56424">
        <ele>612</ele>
        <time>2019-06-30T13:06:05.000Z</time>
      </trkpt>
      <trkpt lat="42.9826" lon="0.56427">
        <ele>612</ele>
        <time>2019-06-30T13:06:07.000Z</time>
      </trkpt>
      <trkpt lat="42.9826" lon="0.5643">
        <ele>612</ele>
        <time>2019-06-30T13:06:09.000Z</time>
      </trkpt>
      <trkpt lat="42.98259" lon="0.56431">
        <ele>612</ele>
        <time>2019-06-30T13:06:11.000Z</time>
      </trkpt>
      <trkpt lat="42.98259" lon="0.56432">
        <ele>612</ele>
        <time>2019-06-30T13:06:13.000Z</time>
      </trkpt>
      <trkpt lat="42.98259" lon="0.56433">
        <ele>612</ele>
        <time>2019-06-30T13:06:15.000Z</time>
      </trkpt>
      <trkpt lat="42.9826" lon="0.56435">
        <ele>611</ele>
        <time>2019-06-30T13:06:17.000Z</time>
      </trkpt>
      <trkpt lat="42.98261" lon="0.56436">
        <ele>611</ele>
        <time>2019-06-30T13:06:19.000Z</time>
      </trkpt>
      <trkpt lat="42.98262" lon="0.56435">
        <ele>611</ele>
        <time>2019-06-30T13:06:21.000Z</time>
      </trkpt>
      <trkpt lat="42.98264" lon="0.56437">
        <ele>610</ele>
        <time>2019-06-30T13:06:23.000Z</time>
      </trkpt>
      <trkpt lat="42.98265" lon="0.56438">
        <ele>610</ele>
        <time>2019-06-30T13:06:25.000Z</time>
      </trkpt>
      <trkpt lat="42.98266" lon="0.56439">
        <ele>610</ele>
        <time>2019-06-30T13:06:27.000Z</time>
      </trkpt>
      <trkpt lat="42.98267" lon="0.5644">
        <ele>609</ele>
        <time>2019-06-30T13:06:29.000Z</time>
      </trkpt>
      <trkpt lat="42.98268" lon="0.56441">
        <ele>609</ele>
        <time>2019-06-30T13:06:31.000Z</time>
      </trkpt>
      <trkpt lat="42.98268" lon="0.56441">
        <ele>609</ele>
        <time>2019-06-30T13:06:33.000Z</time>
      </trkpt>
      <trkpt lat="42.9827" lon="0.56442">
        <ele>609</ele>
        <time>2019-06-30T13:06:35.000Z</time>
      </trkpt>
      <trkpt lat="42.98271" lon="0.56443">
        <ele>608</ele>
        <time>2019-06-30T13:06:37.000Z</time>
      </trkpt>
      <trkpt lat="42.98273" lon="0.56443">
        <ele>608</ele>
        <time>2019-06-30T13:06:39.000Z</time>
      </trkpt>
      <trkpt lat="42.98275" lon="0.56444">
        <ele>608</ele>
        <time>2019-06-30T13:06:41.000Z</time>
      </trkpt>
      <trkpt lat="42.98277" lon="0.56444">
        <ele>607</ele>
        <time>2019-06-30T13:06:43.000Z</time>
      </trkpt>
      <trkpt lat="42.98279" lon="0.56444">
        <ele>607</ele>
        <time>2019-06-30T13:06:45.000Z</time>
      </trkpt>
      <trkpt lat="42.98281" lon="0.56446">
        <ele>607</ele>
        <time>2019-06-30T13:06:47.000Z</time>
      </trkpt>
      <trkpt lat="42.98283" lon="0.56448">
        <ele>606</ele>
        <time>2019-06-30T13:06:49.000Z</time>
      </trkpt>
      <trkpt lat="42.98283" lon="0.56449">
        <ele>606</ele>
        <time>2019-06-30T13:06:51.000Z</time>
      </trkpt>
      <trkpt lat="42.98284" lon="0.56449">
        <ele>606</ele>
        <time>2019-06-30T13:06:53.000Z</time>
      </trkpt>
      <trkpt lat="42.98286" lon="0.56449">
        <ele>605</ele>
        <time>2019-06-30T13:06:55.000Z</time>
      </trkpt>
      <trkpt lat="42.98288" lon="0.56449">
        <ele>605</ele>
        <time>2019-06-30T13:06:57.000Z</time>
      </trkpt>
      <trkpt lat="42.98289" lon="0.56448">
        <ele>605</ele>
        <time>2019-06-30T13:06:59.000Z</time>
      </trkpt>
      <trkpt lat="42.98291" lon="0.56446">
        <ele>605</ele>
        <time>2019-06-30T13:07:01.000Z</time>
      </trkpt>
      <trkpt lat="42.98293" lon="0.56444">
        <ele>605</ele>
        <time>2019-06-30T13:07:03.000Z</time>
      </trkpt>
      <trkpt lat="42.98294" lon="0.56442">
        <ele>605</ele>
        <time>2019-06-30T13:07:05.000Z</time>
      </trkpt>
      <trkpt lat="42.98295" lon="0.5644">
        <ele>605</ele>
        <time>2019-06-30T13:07:07.000Z</time>
      </trkpt>
      <trkpt lat="42.98296" lon="0.56438">
        <ele>605</ele>
        <time>2019-06-30T13:07:09.000Z</time>
      </trkpt>
      <trkpt lat="42.98296" lon="0.56435">
        <ele>605</ele>
        <time>2019-06-30T13:07:11.000Z</time>
      </trkpt>
      <trkpt lat="42.98298" lon="0.56433">
        <ele>605</ele>
        <time>2019-06-30T13:07:13.000Z</time>
      </trkpt>
      <trkpt lat="42.98299" lon="0.56431">
        <ele>605</ele>
        <time>2019-06-30T13:07:15.000Z</time>
      </trkpt>
      <trkpt lat="42.98301" lon="0.5643">
        <ele>605</ele>
        <time>2019-06-30T13:07:17.000Z</time>
      </trkpt>
      <trkpt lat="42.98302" lon="0.56428">
        <ele>605</ele>
        <time>2019-06-30T13:07:19.000Z</time>
      </trkpt>
      <trkpt lat="42.98303" lon="0.56427">
        <ele>605</ele>
        <time>2019-06-30T13:07:21.000Z</time>
      </trkpt>
      <trkpt lat="42.98304" lon="0.56425">
        <ele>605</ele>
        <time>2019-06-30T13:07:23.000Z</time>
      </trkpt>
      <trkpt lat="42.98305" lon="0.56421">
        <ele>606</ele>
        <time>2019-06-30T13:07:25.000Z</time>
      </trkpt>
      <trkpt lat="42.98306" lon="0.5641">
        <ele>607</ele>
        <time>2019-06-30T13:07:27.000Z</time>
      </trkpt>
      <trkpt lat="42.98307" lon="0.56401">
        <ele>609</ele>
        <time>2019-06-30T13:07:29.000Z</time>
      </trkpt>
      <trkpt lat="42.98309" lon="0.56396">
        <ele>610</ele>
        <time>2019-06-30T13:07:31.000Z</time>
      </trkpt>
      <trkpt lat="42.98312" lon="0.56396">
        <ele>609</ele>
        <time>2019-06-30T13:07:33.000Z</time>
      </trkpt>
      <trkpt lat="42.98315" lon="0.56394">
        <ele>609</ele>
        <time>2019-06-30T13:07:35.000Z</time>
      </trkpt>
      <trkpt lat="42.98317" lon="0.56394">
        <ele>609</ele>
        <time>2019-06-30T13:07:37.000Z</time>
      </trkpt>
      <trkpt lat="42.98319" lon="0.56395">
        <ele>609</ele>
        <time>2019-06-30T13:07:39.000Z</time>
      </trkpt>
      <trkpt lat="42.9832" lon="0.56394">
        <ele>609</ele>
        <time>2019-06-30T13:07:41.000Z</time>
      </trkpt>
      <trkpt lat="42.98321" lon="0.56394">
        <ele>609</ele>
        <time>2019-06-30T13:07:43.000Z</time>
      </trkpt>
      <trkpt lat="42.98322" lon="0.56392">
        <ele>609</ele>
        <time>2019-06-30T13:07:45.000Z</time>
      </trkpt>
      <trkpt lat="42.98324" lon="0.56393">
        <ele>608</ele>
        <time>2019-06-30T13:07:47.000Z</time>
      </trkpt>
      <trkpt lat="42.98323" lon="0.56393">
        <ele>609</ele>
        <time>2019-06-30T13:07:49.000Z</time>
      </trkpt>
      <trkpt lat="42.98323" lon="0.56392">
        <ele>609</ele>
        <time>2019-06-30T13:07:51.000Z</time>
      </trkpt>
      <trkpt lat="42.98322" lon="0.56391">
        <ele>609</ele>
        <time>2019-06-30T13:07:53.000Z</time>
      </trkpt>
      <trkpt lat="42.98323" lon="0.56392">
        <ele>609</ele>
        <time>2019-06-30T13:07:55.000Z</time>
      </trkpt>
      <trkpt lat="42.98323" lon="0.56392">
        <ele>609</ele>
        <time>2019-06-30T13:07:57.000Z</time>
      </trkpt>
      <trkpt lat="42.98323" lon="0.56392">
        <ele>609</ele>
        <time>2019-06-30T13:07:59.000Z</time>
      </trkpt>
      <trkpt lat="42.98323" lon="0.56393">
        <ele>609</ele>
        <time>2019-06-30T13:08:01.000Z</time>
      </trkpt>
      <trkpt lat="42.98323" lon="0.56393">
        <ele>609</ele>
        <time>2019-06-30T13:08:03.000Z</time>
      </trkpt>
      <trkpt lat="42.98323" lon="0.56393">
        <ele>609</ele>
        <time>2019-06-30T13:08:05.000Z</time>
      </trkpt>
      <trkpt lat="42.98322" lon="0.56393">
        <ele>609</ele>
        <time>2019-06-30T13:08:07.000Z</time>
      </trkpt>
      <trkpt lat="42.98322" lon="0.56393">
        <ele>609</ele>
        <time>2019-06-30T13:08:09.000Z</time>
      </trkpt>
      <trkpt lat="42.98324" lon="0.56396">
        <ele>608</ele>
        <time>2019-06-30T13:08:11.000Z</time>
      </trkpt>
      <trkpt lat="42.98324" lon="0.56396">
        <ele>608</ele>
        <time>2019-06-30T13:08:13.000Z</time>
      </trkpt>
      <trkpt lat="42.98324" lon="0.56397">
        <ele>608</ele>
        <time>2019-06-30T13:08:15.000Z</time>
      </trkpt>
      <trkpt lat="42.98325" lon="0.56398">
        <ele>607</ele>
        <time>2019-06-30T13:08:17.000Z</time>
      </trkpt>
      <trkpt lat="42.98324" lon="0.56399">
        <ele>607</ele>
        <time>2019-06-30T13:08:19.000Z</time>
      </trkpt>
      <trkpt lat="42.98325" lon="0.564">
        <ele>607</ele>
        <time>2019-06-30T13:08:21.000Z</time>
      </trkpt>
      <trkpt lat="42.98325" lon="0.56401">
        <ele>607</ele>
        <time>2019-06-30T13:08:23.000Z</time>
      </trkpt>
      <trkpt lat="42.98325" lon="0.56401">
        <ele>607</ele>
        <time>2019-06-30T13:08:25.000Z</time>
      </trkpt>
      <trkpt lat="42.98325" lon="0.56402">
        <ele>607</ele>
        <time>2019-06-30T13:08:27.000Z</time>
      </trkpt>
      <trkpt lat="42.98325" lon="0.56402">
        <ele>607</ele>
        <time>2019-06-30T13:08:29.000Z</time>
      </trkpt>
      <trkpt lat="42.98325" lon="0.56402">
        <ele>607</ele>
        <time>2019-06-30T13:08:31.000Z</time>
      </trkpt>
      <trkpt lat="42.98326" lon="0.56402">
        <ele>607</ele>
        <time>2019-06-30T13:08:33.000Z</time>
      </trkpt>
      <trkpt lat="42.98325" lon="0.56402">
        <ele>607</ele>
        <time>2019-06-30T13:08:35.000Z</time>
      </trkpt>
      <trkpt lat="42.98326" lon="0.56402">
        <ele>607</ele>
        <time>2019-06-30T13:08:37.000Z</time>
      </trkpt>
      <trkpt lat="42.98326" lon="0.56402">
        <ele>607</ele>
        <time>2019-06-30T13:08:39.000Z</time>
      </trkpt>
      <trkpt lat="42.98326" lon="0.56401">
        <ele>607</ele>
        <time>2019-06-30T13:08:41.000Z</time>
      </trkpt>
      <trkpt lat="42.98326" lon="0.56401">
        <ele>607</ele>
        <time>2019-06-30T13:08:43.000Z</time>
      </trkpt>
      <trkpt lat="42.98326" lon="0.56401">
        <ele>607</ele>
        <time>2019-06-30T13:08:45.000Z</time>
      </trkpt>
      <trkpt lat="42.98327" lon="0.56401">
        <ele>607</ele>
        <time>2019-06-30T13:08:47.000Z</time>
      </trkpt>
      <trkpt lat="42.98327" lon="0.56401">
        <ele>607</ele>
        <time>2019-06-30T13:08:49.000Z</time>
      </trkpt>
      <trkpt lat="42.98327" lon="0.56401">
        <ele>607</ele>
        <time>2019-06-30T13:08:51.000Z</time>
      </trkpt>
      <trkpt lat="42.98327" lon="0.564">
        <ele>607</ele>
        <time>2019-06-30T13:08:53.000Z</time>
      </trkpt>
      <trkpt lat="42.98327" lon="0.56401">
        <ele>607</ele>
        <time>2019-06-30T13:08:55.000Z</time>
      </trkpt>
      <trkpt lat="42.98327" lon="0.56402">
        <ele>607</ele>
        <time>2019-06-30T13:08:57.000Z</time>
      </trkpt>
      <trkpt lat="42.98327" lon="0.56402">
        <ele>607</ele>
        <time>2019-06-30T13:08:59.000Z</time>
      </trkpt>
      <trkpt lat="42.98327" lon="0.56401">
        <ele>607</ele>
        <time>2019-06-30T13:09:01.000Z</time>
      </trkpt>
      <trkpt lat="42.98327" lon="0.56401">
        <ele>607</ele>
        <time>2019-06-30T13:09:03.000Z</time>
      </trkpt>
      <trkpt lat="42.98327" lon="0.56402">
        <ele>607</ele>
        <time>2019-06-30T13:09:05.000Z</time>
      </trkpt>
      <trkpt lat="42.98327" lon="0.56402">
        <ele>607</ele>
        <time>2019-06-30T13:09:07.000Z</time>
      </trkpt>
      <trkpt lat="42.98327" lon="0.56402">
        <ele>607</ele>
        <time>2019-06-30T13:09:09.000Z</time>
      </trkpt>
      <trkpt lat="42.98327" lon="0.56402">
        <ele>607</ele>
        <time>2019-06-30T13:09:11.000Z</time>
      </trkpt>
      <trkpt lat="42.98327" lon="0.56403">
        <ele>606</ele>
        <time>2019-06-30T13:09:13.000Z</time>
      </trkpt>
      <trkpt lat="42.98328" lon="0.56402">
        <ele>607</ele>
        <time>2019-06-30T13:09:15.000Z</time>
      </trkpt>
      <trkpt lat="42.98328" lon="0.56401">
        <ele>607</ele>
        <time>2019-06-30T13:09:17.000Z</time>
      </trkpt>
      <trkpt lat="42.98328" lon="0.56401">
        <ele>607</ele>
        <time>2019-06-30T13:09:19.000Z</time>
      </trkpt>
      <trkpt lat="42.98327" lon="0.564">
        <ele>607</ele>
        <time>2019-06-30T13:09:21.000Z</time>
      </trkpt>
      <trkpt lat="42.98327" lon="0.56399">
        <ele>607</ele>
        <time>2019-06-30T13:09:23.000Z</time>
      </trkpt>
      <trkpt lat="42.98327" lon="0.56398">
        <ele>607</ele>
        <time>2019-06-30T13:09:25.000Z</time>
      </trkpt>
      <trkpt lat="42.98329" lon="0.56398">
        <ele>607</ele>
        <time>2019-06-30T13:09:27.000Z</time>
      </trkpt>
      <trkpt lat="42.98329" lon="0.56397">
        <ele>607</ele>
        <time>2019-06-30T13:09:29.000Z</time>
      </trkpt>
      <trkpt lat="42.98329" lon="0.56397">
        <ele>607</ele>
        <time>2019-06-30T13:09:31.000Z</time>
      </trkpt>
      <trkpt lat="42.98329" lon="0.56396">
        <ele>607</ele>
        <time>2019-06-30T13:09:33.000Z</time>
      </trkpt>
      <trkpt lat="42.98329" lon="0.56396">
        <ele>607</ele>
        <time>2019-06-30T13:09:35.000Z</time>
      </trkpt>
      <trkpt lat="42.98329" lon="0.56396">
        <ele>607</ele>
        <time>2019-06-30T13:09:37.000Z</time>
      </trkpt>
      <trkpt lat="42.9833" lon="0.56396">
        <ele>607</ele>
        <time>2019-06-30T13:09:39.000Z</time>
      </trkpt>
      <trkpt lat="42.9833" lon="0.56396">
        <ele>607</ele>
        <time>2019-06-30T13:09:41.000Z</time>
      </trkpt>
      <trkpt lat="42.9833" lon="0.56396">
        <ele>607</ele>
        <time>2019-06-30T13:09:43.000Z</time>
      </trkpt>
      <trkpt lat="42.98329" lon="0.56396">
        <ele>607</ele>
        <time>2019-06-30T13:09:45.000Z</time>
      </trkpt>
      <trkpt lat="42.9833" lon="0.56395">
        <ele>608</ele>
        <time>2019-06-30T13:09:47.000Z</time>
      </trkpt>
      <trkpt lat="42.98331" lon="0.56393">
        <ele>608</ele>
        <time>2019-06-30T13:09:49.000Z</time>
      </trkpt>
      <trkpt lat="42.98332" lon="0.56391">
        <ele>608</ele>
        <time>2019-06-30T13:09:51.000Z</time>
      </trkpt>
      <trkpt lat="42.98333" lon="0.56389">
        <ele>608</ele>
        <time>2019-06-30T13:09:53.000Z</time>
      </trkpt>
      <trkpt lat="42.98334" lon="0.56387">
        <ele>608</ele>
        <time>2019-06-30T13:09:55.000Z</time>
      </trkpt>
      <trkpt lat="42.98336" lon="0.56386">
        <ele>608</ele>
        <time>2019-06-30T13:09:57.000Z</time>
      </trkpt>
      <trkpt lat="42.98337" lon="0.56384">
        <ele>608</ele>
        <time>2019-06-30T13:09:59.000Z</time>
      </trkpt>
      <trkpt lat="42.98339" lon="0.56383">
        <ele>608</ele>
        <time>2019-06-30T13:10:01.000Z</time>
      </trkpt>
      <trkpt lat="42.98341" lon="0.56382">
        <ele>608</ele>
        <time>2019-06-30T13:10:03.000Z</time>
      </trkpt>
      <trkpt lat="42.98343" lon="0.5638">
        <ele>608</ele>
        <time>2019-06-30T13:10:05.000Z</time>
      </trkpt>
      <trkpt lat="42.98345" lon="0.56378">
        <ele>608</ele>
        <time>2019-06-30T13:10:07.000Z</time>
      </trkpt>
      <trkpt lat="42.98346" lon="0.56376">
        <ele>607</ele>
        <time>2019-06-30T13:10:09.000Z</time>
      </trkpt>
      <trkpt lat="42.98348" lon="0.56375">
        <ele>607</ele>
        <time>2019-06-30T13:10:11.000Z</time>
      </trkpt>
      <trkpt lat="42.9835" lon="0.56374">
        <ele>607</ele>
        <time>2019-06-30T13:10:13.000Z</time>
      </trkpt>
      <trkpt lat="42.98352" lon="0.56373">
        <ele>606</ele>
        <time>2019-06-30T13:10:15.000Z</time>
      </trkpt>
      <trkpt lat="42.98354" lon="0.56371">
        <ele>606</ele>
        <time>2019-06-30T13:10:17.000Z</time>
      </trkpt>
      <trkpt lat="42.98356" lon="0.5637">
        <ele>605</ele>
        <time>2019-06-30T13:10:19.000Z</time>
      </trkpt>
      <trkpt lat="42.98358" lon="0.56368">
        <ele>605</ele>
        <time>2019-06-30T13:10:21.000Z</time>
      </trkpt>
      <trkpt lat="42.9836" lon="0.56367">
        <ele>605</ele>
        <time>2019-06-30T13:10:23.000Z</time>
      </trkpt>
      <trkpt lat="42.98362" lon="0.56365">
        <ele>605</ele>
        <time>2019-06-30T13:10:25.000Z</time>
      </trkpt>
      <trkpt lat="42.98364" lon="0.56364">
        <ele>604</ele>
        <time>2019-06-30T13:10:27.000Z</time>
      </trkpt>
      <trkpt lat="42.98367" lon="0.56363">
        <ele>604</ele>
        <time>2019-06-30T13:10:29.000Z</time>
      </trkpt>
      <trkpt lat="42.98368" lon="0.56361">
        <ele>603</ele>
        <time>2019-06-30T13:10:31.000Z</time>
      </trkpt>
      <trkpt lat="42.9837" lon="0.5636">
        <ele>603</ele>
        <time>2019-06-30T13:10:33.000Z</time>
      </trkpt>
      <trkpt lat="42.98373" lon="0.56359">
        <ele>603</ele>
        <time>2019-06-30T13:10:35.000Z</time>
      </trkpt>
      <trkpt lat="42.98375" lon="0.56358">
        <ele>602</ele>
        <time>2019-06-30T13:10:37.000Z</time>
      </trkpt>
      <trkpt lat="42.98376" lon="0.56357">
        <ele>602</ele>
        <time>2019-06-30T13:10:39.000Z</time>
      </trkpt>
      <trkpt lat="42.98379" lon="0.56356">
        <ele>602</ele>
        <time>2019-06-30T13:10:41.000Z</time>
      </trkpt>
      <trkpt lat="42.98381" lon="0.56355">
        <ele>601</ele>
        <time>2019-06-30T13:10:43.000Z</time>
      </trkpt>
      <trkpt lat="42.98383" lon="0.56354">
        <ele>601</ele>
        <time>2019-06-30T13:10:45.000Z</time>
      </trkpt>
      <trkpt lat="42.98385" lon="0.56353">
        <ele>601</ele>
        <time>2019-06-30T13:10:47.000Z</time>
      </trkpt>
      <trkpt lat="42.98388" lon="0.56352">
        <ele>600</ele>
        <time>2019-06-30T13:10:49.000Z</time>
      </trkpt>
      <trkpt lat="42.98389" lon="0.56351">
        <ele>600</ele>
        <time>2019-06-30T13:10:51.000Z</time>
      </trkpt>
      <trkpt lat="42.98392" lon="0.56351">
        <ele>599</ele>
        <time>2019-06-30T13:10:53.000Z</time>
      </trkpt>
      <trkpt lat="42.98394" lon="0.5635">
        <ele>599</ele>
        <time>2019-06-30T13:10:55.000Z</time>
      </trkpt>
      <trkpt lat="42.98396" lon="0.56349">
        <ele>599</ele>
        <time>2019-06-30T13:10:57.000Z</time>
      </trkpt>
      <trkpt lat="42.98398" lon="0.56348">
        <ele>600</ele>
        <time>2019-06-30T13:10:59.000Z</time>
      </trkpt>
      <trkpt lat="42.98399" lon="0.56347">
        <ele>600</ele>
        <time>2019-06-30T13:11:01.000Z</time>
      </trkpt>
      <trkpt lat="42.98402" lon="0.56345">
        <ele>600</ele>
        <time>2019-06-30T13:11:03.000Z</time>
      </trkpt>
      <trkpt lat="42.98404" lon="0.56344">
        <ele>600</ele>
        <time>2019-06-30T13:11:05.000Z</time>
      </trkpt>
      <trkpt lat="42.98406" lon="0.56343">
        <ele>600</ele>
        <time>2019-06-30T13:11:07.000Z</time>
      </trkpt>
      <trkpt lat="42.98409" lon="0.56342">
        <ele>600</ele>
        <time>2019-06-30T13:11:09.000Z</time>
      </trkpt>
      <trkpt lat="42.98411" lon="0.56341">
        <ele>600</ele>
        <time>2019-06-30T13:11:11.000Z</time>
      </trkpt>
      <trkpt lat="42.98413" lon="0.56339">
        <ele>600</ele>
        <time>2019-06-30T13:11:13.000Z</time>
      </trkpt>
      <trkpt lat="42.98415" lon="0.56338">
        <ele>600</ele>
        <time>2019-06-30T13:11:15.000Z</time>
      </trkpt>
      <trkpt lat="42.98418" lon="0.56336">
        <ele>600</ele>
        <time>2019-06-30T13:11:17.000Z</time>
      </trkpt>
      <trkpt lat="42.9842" lon="0.56334">
        <ele>600</ele>
        <time>2019-06-30T13:11:19.000Z</time>
      </trkpt>
      <trkpt lat="42.98422" lon="0.56333">
        <ele>601</ele>
        <time>2019-06-30T13:11:21.000Z</time>
      </trkpt>
      <trkpt lat="42.98424" lon="0.56331">
        <ele>601</ele>
        <time>2019-06-30T13:11:23.000Z</time>
      </trkpt>
      <trkpt lat="42.98426" lon="0.5633">
        <ele>601</ele>
        <time>2019-06-30T13:11:25.000Z</time>
      </trkpt>
      <trkpt lat="42.98428" lon="0.56329">
        <ele>601</ele>
        <time>2019-06-30T13:11:27.000Z</time>
      </trkpt>
      <trkpt lat="42.98429" lon="0.56327">
        <ele>601</ele>
        <time>2019-06-30T13:11:29.000Z</time>
      </trkpt>
      <trkpt lat="42.98431" lon="0.56325">
        <ele>601</ele>
        <time>2019-06-30T13:11:31.000Z</time>
      </trkpt>
      <trkpt lat="42.98433" lon="0.56324">
        <ele>601</ele>
        <time>2019-06-30T13:11:33.000Z</time>
      </trkpt>
      <trkpt lat="42.98435" lon="0.56323">
        <ele>601</ele>
        <time>2019-06-30T13:11:35.000Z</time>
      </trkpt>
      <trkpt lat="42.98438" lon="0.56322">
        <ele>601</ele>
        <time>2019-06-30T13:11:37.000Z</time>
      </trkpt>
      <trkpt lat="42.98439" lon="0.5632">
        <ele>601</ele>
        <time>2019-06-30T13:11:39.000Z</time>
      </trkpt>
      <trkpt lat="42.98441" lon="0.56319">
        <ele>601</ele>
        <time>2019-06-30T13:11:41.000Z</time>
      </trkpt>
      <trkpt lat="42.98443" lon="0.56317">
        <ele>601</ele>
        <time>2019-06-30T13:11:43.000Z</time>
      </trkpt>
      <trkpt lat="42.98445" lon="0.56315">
        <ele>601</ele>
        <time>2019-06-30T13:11:45.000Z</time>
      </trkpt>
      <trkpt lat="42.98447" lon="0.56314">
        <ele>601</ele>
        <time>2019-06-30T13:11:47.000Z</time>
      </trkpt>
      <trkpt lat="42.98449" lon="0.56312">
        <ele>602</ele>
        <time>2019-06-30T13:11:49.000Z</time>
      </trkpt>
      <trkpt lat="42.98451" lon="0.5631">
        <ele>602</ele>
        <time>2019-06-30T13:11:51.000Z</time>
      </trkpt>
      <trkpt lat="42.98453" lon="0.56308">
        <ele>602</ele>
        <time>2019-06-30T13:11:53.000Z</time>
      </trkpt>
      <trkpt lat="42.98455" lon="0.56307">
        <ele>602</ele>
        <time>2019-06-30T13:11:55.000Z</time>
      </trkpt>
      <trkpt lat="42.98457" lon="0.56305">
        <ele>602</ele>
        <time>2019-06-30T13:11:57.000Z</time>
      </trkpt>
      <trkpt lat="42.98459" lon="0.56303">
        <ele>602</ele>
        <time>2019-06-30T13:11:59.000Z</time>
      </trkpt>
      <trkpt lat="42.98461" lon="0.56302">
        <ele>602</ele>
        <time>2019-06-30T13:12:01.000Z</time>
      </trkpt>
      <trkpt lat="42.98464" lon="0.56301">
        <ele>602</ele>
        <time>2019-06-30T13:12:03.000Z</time>
      </trkpt>
      <trkpt lat="42.98466" lon="0.563">
        <ele>602</ele>
        <time>2019-06-30T13:12:05.000Z</time>
      </trkpt>
      <trkpt lat="42.98468" lon="0.56299">
        <ele>602</ele>
        <time>2019-06-30T13:12:07.000Z</time>
      </trkpt>
      <trkpt lat="42.98471" lon="0.56299">
        <ele>602</ele>
        <time>2019-06-30T13:12:09.000Z</time>
      </trkpt>
      <trkpt lat="42.98474" lon="0.56299">
        <ele>601</ele>
        <time>2019-06-30T13:12:11.000Z</time>
      </trkpt>
      <trkpt lat="42.98478" lon="0.56299">
        <ele>601</ele>
        <time>2019-06-30T13:12:13.000Z</time>
      </trkpt>
      <trkpt lat="42.9848" lon="0.56299">
        <ele>601</ele>
        <time>2019-06-30T13:12:15.000Z</time>
      </trkpt>
      <trkpt lat="42.98483" lon="0.56299">
        <ele>601</ele>
        <time>2019-06-30T13:12:17.000Z</time>
      </trkpt>
      <trkpt lat="42.98486" lon="0.56298">
        <ele>600</ele>
        <time>2019-06-30T13:12:19.000Z</time>
      </trkpt>
      <trkpt lat="42.98488" lon="0.56297">
        <ele>600</ele>
        <time>2019-06-30T13:12:21.000Z</time>
      </trkpt>
      <trkpt lat="42.9849" lon="0.56297">
        <ele>600</ele>
        <time>2019-06-30T13:12:23.000Z</time>
      </trkpt>
      <trkpt lat="42.98493" lon="0.56297">
        <ele>600</ele>
        <time>2019-06-30T13:12:25.000Z</time>
      </trkpt>
      <trkpt lat="42.98494" lon="0.56298">
        <ele>600</ele>
        <time>2019-06-30T13:12:27.000Z</time>
      </trkpt>
      <trkpt lat="42.98496" lon="0.56298">
        <ele>600</ele>
        <time>2019-06-30T13:12:29.000Z</time>
      </trkpt>
      <trkpt lat="42.98497" lon="0.56298">
        <ele>600</ele>
        <time>2019-06-30T13:12:31.000Z</time>
      </trkpt>
      <trkpt lat="42.98499" lon="0.56298">
        <ele>600</ele>
        <time>2019-06-30T13:12:33.000Z</time>
      </trkpt>
      <trkpt lat="42.98502" lon="0.56297">
        <ele>599</ele>
        <time>2019-06-30T13:12:35.000Z</time>
      </trkpt>
      <trkpt lat="42.98505" lon="0.56297">
        <ele>599</ele>
        <time>2019-06-30T13:12:37.000Z</time>
      </trkpt>
      <trkpt lat="42.98507" lon="0.56298">
        <ele>599</ele>
        <time>2019-06-30T13:12:39.000Z</time>
      </trkpt>
      <trkpt lat="42.98509" lon="0.56298">
        <ele>599</ele>
        <time>2019-06-30T13:12:41.000Z</time>
      </trkpt>
      <trkpt lat="42.9851" lon="0.56298">
        <ele>599</ele>
        <time>2019-06-30T13:12:43.000Z</time>
      </trkpt>
      <trkpt lat="42.98512" lon="0.56298">
        <ele>599</ele>
        <time>2019-06-30T13:12:45.000Z</time>
      </trkpt>
      <trkpt lat="42.98514" lon="0.56299">
        <ele>599</ele>
        <time>2019-06-30T13:12:47.000Z</time>
      </trkpt>
      <trkpt lat="42.98516" lon="0.56299">
        <ele>599</ele>
        <time>2019-06-30T13:12:49.000Z</time>
      </trkpt>
      <trkpt lat="42.98518" lon="0.56299">
        <ele>599</ele>
        <time>2019-06-30T13:12:51.000Z</time>
      </trkpt>
      <trkpt lat="42.9852" lon="0.56299">
        <ele>599</ele>
        <time>2019-06-30T13:12:53.000Z</time>
      </trkpt>
      <trkpt lat="42.98523" lon="0.563">
        <ele>599</ele>
        <time>2019-06-30T13:12:55.000Z</time>
      </trkpt>
      <trkpt lat="42.98525" lon="0.563">
        <ele>599</ele>
        <time>2019-06-30T13:12:57.000Z</time>
      </trkpt>
      <trkpt lat="42.98527" lon="0.56301">
        <ele>599</ele>
        <time>2019-06-30T13:12:59.000Z</time>
      </trkpt>
      <trkpt lat="42.98529" lon="0.56302">
        <ele>599</ele>
        <time>2019-06-30T13:13:01.000Z</time>
      </trkpt>
      <trkpt lat="42.98531" lon="0.56302">
        <ele>599</ele>
        <time>2019-06-30T13:13:03.000Z</time>
      </trkpt>
      <trkpt lat="42.98534" lon="0.56302">
        <ele>598</ele>
        <time>2019-06-30T13:13:05.000Z</time>
      </trkpt>
      <trkpt lat="42.98535" lon="0.56302">
        <ele>598</ele>
        <time>2019-06-30T13:13:07.000Z</time>
      </trkpt>
      <trkpt lat="42.98538" lon="0.56302">
        <ele>598</ele>
        <time>2019-06-30T13:13:09.000Z</time>
      </trkpt>
      <trkpt lat="42.98539" lon="0.56302">
        <ele>598</ele>
        <time>2019-06-30T13:13:11.000Z</time>
      </trkpt>
      <trkpt lat="42.98541" lon="0.56302">
        <ele>598</ele>
        <time>2019-06-30T13:13:13.000Z</time>
      </trkpt>
      <trkpt lat="42.98543" lon="0.56302">
        <ele>598</ele>
        <time>2019-06-30T13:13:15.000Z</time>
      </trkpt>
      <trkpt lat="42.98545" lon="0.56301">
        <ele>598</ele>
        <time>2019-06-30T13:13:17.000Z</time>
      </trkpt>
      <trkpt lat="42.98547" lon="0.56301">
        <ele>599</ele>
        <time>2019-06-30T13:13:19.000Z</time>
      </trkpt>
      <trkpt lat="42.98549" lon="0.563">
        <ele>599</ele>
        <time>2019-06-30T13:13:21.000Z</time>
      </trkpt>
      <trkpt lat="42.98552" lon="0.563">
        <ele>599</ele>
        <time>2019-06-30T13:13:23.000Z</time>
      </trkpt>
      <trkpt lat="42.98554" lon="0.56299">
        <ele>599</ele>
        <time>2019-06-30T13:13:25.000Z</time>
      </trkpt>
      <trkpt lat="42.98556" lon="0.56298">
        <ele>599</ele>
        <time>2019-06-30T13:13:27.000Z</time>
      </trkpt>
      <trkpt lat="42.98559" lon="0.56298">
        <ele>599</ele>
        <time>2019-06-30T13:13:29.000Z</time>
      </trkpt>
      <trkpt lat="42.98561" lon="0.56298">
        <ele>598</ele>
        <time>2019-06-30T13:13:31.000Z</time>
      </trkpt>
      <trkpt lat="42.98564" lon="0.56298">
        <ele>598</ele>
        <time>2019-06-30T13:13:33.000Z</time>
      </trkpt>
      <trkpt lat="42.98567" lon="0.56298">
        <ele>598</ele>
        <time>2019-06-30T13:13:35.000Z</time>
      </trkpt>
      <trkpt lat="42.98568" lon="0.56297">
        <ele>598</ele>
        <time>2019-06-30T13:13:37.000Z</time>
      </trkpt>
      <trkpt lat="42.98571" lon="0.56297">
        <ele>598</ele>
        <time>2019-06-30T13:13:39.000Z</time>
      </trkpt>
      <trkpt lat="42.98573" lon="0.56296">
        <ele>598</ele>
        <time>2019-06-30T13:13:41.000Z</time>
      </trkpt>
      <trkpt lat="42.98575" lon="0.56295">
        <ele>598</ele>
        <time>2019-06-30T13:13:43.000Z</time>
      </trkpt>
      <trkpt lat="42.98577" lon="0.56294">
        <ele>598</ele>
        <time>2019-06-30T13:13:45.000Z</time>
      </trkpt>
      <trkpt lat="42.98579" lon="0.56293">
        <ele>598</ele>
        <time>2019-06-30T13:13:47.000Z</time>
      </trkpt>
      <trkpt lat="42.98582" lon="0.56293">
        <ele>598</ele>
        <time>2019-06-30T13:13:49.000Z</time>
      </trkpt>
      <trkpt lat="42.98584" lon="0.56292">
        <ele>598</ele>
        <time>2019-06-30T13:13:51.000Z</time>
      </trkpt>
      <trkpt lat="42.98587" lon="0.56292">
        <ele>598</ele>
        <time>2019-06-30T13:13:53.000Z</time>
      </trkpt>
      <trkpt lat="42.9859" lon="0.56292">
        <ele>598</ele>
        <time>2019-06-30T13:13:55.000Z</time>
      </trkpt>
      <trkpt lat="42.98593" lon="0.56292">
        <ele>598</ele>
        <time>2019-06-30T13:13:57.000Z</time>
      </trkpt>
      <trkpt lat="42.98595" lon="0.56292">
        <ele>598</ele>
        <time>2019-06-30T13:13:59.000Z</time>
      </trkpt>
      <trkpt lat="42.98597" lon="0.56293">
        <ele>598</ele>
        <time>2019-06-30T13:14:01.000Z</time>
      </trkpt>
      <trkpt lat="42.986" lon="0.56294">
        <ele>598</ele>
        <time>2019-06-30T13:14:03.000Z</time>
      </trkpt>
      <trkpt lat="42.98603" lon="0.56295">
        <ele>598</ele>
        <time>2019-06-30T13:14:05.000Z</time>
      </trkpt>
      <trkpt lat="42.98606" lon="0.56296">
        <ele>597</ele>
        <time>2019-06-30T13:14:07.000Z</time>
      </trkpt>
      <trkpt lat="42.98609" lon="0.56297">
        <ele>597</ele>
        <time>2019-06-30T13:14:09.000Z</time>
      </trkpt>
      <trkpt lat="42.9861" lon="0.56297">
        <ele>597</ele>
        <time>2019-06-30T13:14:11.000Z</time>
      </trkpt>
      <trkpt lat="42.98612" lon="0.56297">
        <ele>597</ele>
        <time>2019-06-30T13:14:13.000Z</time>
      </trkpt>
      <trkpt lat="42.98615" lon="0.56297">
        <ele>597</ele>
        <time>2019-06-30T13:14:15.000Z</time>
      </trkpt>
      <trkpt lat="42.98617" lon="0.56298">
        <ele>597</ele>
        <time>2019-06-30T13:14:17.000Z</time>
      </trkpt>
      <trkpt lat="42.98619" lon="0.56298">
        <ele>597</ele>
        <time>2019-06-30T13:14:19.000Z</time>
      </trkpt>
      <trkpt lat="42.98621" lon="0.56299">
        <ele>597</ele>
        <time>2019-06-30T13:14:21.000Z</time>
      </trkpt>
      <trkpt lat="42.98623" lon="0.56298">
        <ele>597</ele>
        <time>2019-06-30T13:14:23.000Z</time>
      </trkpt>
      <trkpt lat="42.98625" lon="0.56298">
        <ele>596</ele>
        <time>2019-06-30T13:14:25.000Z</time>
      </trkpt>
      <trkpt lat="42.98628" lon="0.56299">
        <ele>596</ele>
        <time>2019-06-30T13:14:27.000Z</time>
      </trkpt>
      <trkpt lat="42.98631" lon="0.56299">
        <ele>596</ele>
        <time>2019-06-30T13:14:29.000Z</time>
      </trkpt>
      <trkpt lat="42.98633" lon="0.563">
        <ele>596</ele>
        <time>2019-06-30T13:14:31.000Z</time>
      </trkpt>
      <trkpt lat="42.98635" lon="0.563">
        <ele>596</ele>
        <time>2019-06-30T13:14:33.000Z</time>
      </trkpt>
      <trkpt lat="42.98637" lon="0.56301">
        <ele>596</ele>
        <time>2019-06-30T13:14:35.000Z</time>
      </trkpt>
      <trkpt lat="42.9864" lon="0.56302">
        <ele>596</ele>
        <time>2019-06-30T13:14:37.000Z</time>
      </trkpt>
      <trkpt lat="42.98642" lon="0.56302">
        <ele>595</ele>
        <time>2019-06-30T13:14:39.000Z</time>
      </trkpt>
      <trkpt lat="42.98645" lon="0.56304">
        <ele>595</ele>
        <time>2019-06-30T13:14:41.000Z</time>
      </trkpt>
      <trkpt lat="42.98647" lon="0.56304">
        <ele>595</ele>
        <time>2019-06-30T13:14:43.000Z</time>
      </trkpt>
      <trkpt lat="42.98649" lon="0.56305">
        <ele>595</ele>
        <time>2019-06-30T13:14:45.000Z</time>
      </trkpt>
      <trkpt lat="42.98652" lon="0.56306">
        <ele>594</ele>
        <time>2019-06-30T13:14:47.000Z</time>
      </trkpt>
      <trkpt lat="42.98654" lon="0.56307">
        <ele>594</ele>
        <time>2019-06-30T13:14:49.000Z</time>
      </trkpt>
      <trkpt lat="42.98656" lon="0.56308">
        <ele>594</ele>
        <time>2019-06-30T13:14:51.000Z</time>
      </trkpt>
      <trkpt lat="42.98658" lon="0.56308">
        <ele>594</ele>
        <time>2019-06-30T13:14:53.000Z</time>
      </trkpt>
      <trkpt lat="42.98659" lon="0.56308">
        <ele>594</ele>
        <time>2019-06-30T13:14:55.000Z</time>
      </trkpt>
      <trkpt lat="42.98661" lon="0.56308">
        <ele>594</ele>
        <time>2019-06-30T13:14:57.000Z</time>
      </trkpt>
      <trkpt lat="42.98662" lon="0.56308">
        <ele>594</ele>
        <time>2019-06-30T13:14:59.000Z</time>
      </trkpt>
      <trkpt lat="42.98665" lon="0.56308">
        <ele>594</ele>
        <time>2019-06-30T13:15:01.000Z</time>
      </trkpt>
      <trkpt lat="42.98666" lon="0.56308">
        <ele>594</ele>
        <time>2019-06-30T13:15:03.000Z</time>
      </trkpt>
      <trkpt lat="42.98668" lon="0.56308">
        <ele>593</ele>
        <time>2019-06-30T13:15:05.000Z</time>
      </trkpt>
      <trkpt lat="42.98671" lon="0.56308">
        <ele>593</ele>
        <time>2019-06-30T13:15:07.000Z</time>
      </trkpt>
      <trkpt lat="42.98672" lon="0.56306">
        <ele>593</ele>
        <time>2019-06-30T13:15:09.000Z</time>
      </trkpt>
      <trkpt lat="42.98674" lon="0.56305">
        <ele>594</ele>
        <time>2019-06-30T13:15:11.000Z</time>
      </trkpt>
      <trkpt lat="42.98676" lon="0.56305">
        <ele>594</ele>
        <time>2019-06-30T13:15:13.000Z</time>
      </trkpt>
      <trkpt lat="42.98678" lon="0.56304">
        <ele>594</ele>
        <time>2019-06-30T13:15:15.000Z</time>
      </trkpt>
      <trkpt lat="42.98679" lon="0.56302">
        <ele>594</ele>
        <time>2019-06-30T13:15:17.000Z</time>
      </trkpt>
      <trkpt lat="42.98681" lon="0.56301">
        <ele>594</ele>
        <time>2019-06-30T13:15:19.000Z</time>
      </trkpt>
      <trkpt lat="42.98683" lon="0.563">
        <ele>594</ele>
        <time>2019-06-30T13:15:21.000Z</time>
      </trkpt>
      <trkpt lat="42.98685" lon="0.56299">
        <ele>594</ele>
        <time>2019-06-30T13:15:23.000Z</time>
      </trkpt>
      <trkpt lat="42.98687" lon="0.56299">
        <ele>594</ele>
        <time>2019-06-30T13:15:25.000Z</time>
      </trkpt>
      <trkpt lat="42.98689" lon="0.56299">
        <ele>594</ele>
        <time>2019-06-30T13:15:27.000Z</time>
      </trkpt>
      <trkpt lat="42.98692" lon="0.56299">
        <ele>595</ele>
        <time>2019-06-30T13:15:29.000Z</time>
      </trkpt>
      <trkpt lat="42.98695" lon="0.563">
        <ele>595</ele>
        <time>2019-06-30T13:15:31.000Z</time>
      </trkpt>
      <trkpt lat="42.98697" lon="0.56301">
        <ele>595</ele>
        <time>2019-06-30T13:15:33.000Z</time>
      </trkpt>
      <trkpt lat="42.98699" lon="0.56301">
        <ele>595</ele>
        <time>2019-06-30T13:15:35.000Z</time>
      </trkpt>
      <trkpt lat="42.98701" lon="0.56302">
        <ele>595</ele>
        <time>2019-06-30T13:15:37.000Z</time>
      </trkpt>
      <trkpt lat="42.98704" lon="0.56304">
        <ele>595</ele>
        <time>2019-06-30T13:15:39.000Z</time>
      </trkpt>
      <trkpt lat="42.98706" lon="0.56305">
        <ele>595</ele>
        <time>2019-06-30T13:15:41.000Z</time>
      </trkpt>
      <trkpt lat="42.98709" lon="0.56307">
        <ele>595</ele>
        <time>2019-06-30T13:15:43.000Z</time>
      </trkpt>
      <trkpt lat="42.9871" lon="0.56308">
        <ele>595</ele>
        <time>2019-06-30T13:15:45.000Z</time>
      </trkpt>
      <trkpt lat="42.98712" lon="0.5631">
        <ele>594</ele>
        <time>2019-06-30T13:15:47.000Z</time>
      </trkpt>
      <trkpt lat="42.98714" lon="0.56311">
        <ele>594</ele>
        <time>2019-06-30T13:15:49.000Z</time>
      </trkpt>
      <trkpt lat="42.98715" lon="0.56312">
        <ele>594</ele>
        <time>2019-06-30T13:15:51.000Z</time>
      </trkpt>
      <trkpt lat="42.98717" lon="0.56312">
        <ele>594</ele>
        <time>2019-06-30T13:15:53.000Z</time>
      </trkpt>
      <trkpt lat="42.98718" lon="0.56312">
        <ele>595</ele>
        <time>2019-06-30T13:15:55.000Z</time>
      </trkpt>
      <trkpt lat="42.9872" lon="0.56311">
        <ele>595</ele>
        <time>2019-06-30T13:15:57.000Z</time>
      </trkpt>
      <trkpt lat="42.9872" lon="0.56311">
        <ele>595</ele>
        <time>2019-06-30T13:15:59.000Z</time>
      </trkpt>
      <trkpt lat="42.98722" lon="0.56311">
        <ele>595</ele>
        <time>2019-06-30T13:16:01.000Z</time>
      </trkpt>
      <trkpt lat="42.98724" lon="0.56312">
        <ele>595</ele>
        <time>2019-06-30T13:16:03.000Z</time>
      </trkpt>
      <trkpt lat="42.98725" lon="0.56314">
        <ele>595</ele>
        <time>2019-06-30T13:16:05.000Z</time>
      </trkpt>
      <trkpt lat="42.98726" lon="0.56316">
        <ele>595</ele>
        <time>2019-06-30T13:16:07.000Z</time>
      </trkpt>
      <trkpt lat="42.98727" lon="0.56319">
        <ele>594</ele>
        <time>2019-06-30T13:16:09.000Z</time>
      </trkpt>
      <trkpt lat="42.98728" lon="0.56322">
        <ele>594</ele>
        <time>2019-06-30T13:16:11.000Z</time>
      </trkpt>
      <trkpt lat="42.98728" lon="0.56324">
        <ele>594</ele>
        <time>2019-06-30T13:16:13.000Z</time>
      </trkpt>
      <trkpt lat="42.98729" lon="0.56326">
        <ele>594</ele>
        <time>2019-06-30T13:16:15.000Z</time>
      </trkpt>
      <trkpt lat="42.9873" lon="0.56328">
        <ele>594</ele>
        <time>2019-06-30T13:16:17.000Z</time>
      </trkpt>
      <trkpt lat="42.98731" lon="0.5633">
        <ele>594</ele>
        <time>2019-06-30T13:16:19.000Z</time>
      </trkpt>
      <trkpt lat="42.98732" lon="0.56332">
        <ele>594</ele>
        <time>2019-06-30T13:16:21.000Z</time>
      </trkpt>
      <trkpt lat="42.98733" lon="0.56334">
        <ele>594</ele>
        <time>2019-06-30T13:16:23.000Z</time>
      </trkpt>
      <trkpt lat="42.98734" lon="0.56337">
        <ele>594</ele>
        <time>2019-06-30T13:16:25.000Z</time>
      </trkpt>
      <trkpt lat="42.98736" lon="0.56339">
        <ele>594</ele>
        <time>2019-06-30T13:16:27.000Z</time>
      </trkpt>
      <trkpt lat="42.98737" lon="0.56341">
        <ele>594</ele>
        <time>2019-06-30T13:16:29.000Z</time>
      </trkpt>
      <trkpt lat="42.98739" lon="0.56343">
        <ele>594</ele>
        <time>2019-06-30T13:16:31.000Z</time>
      </trkpt>
      <trkpt lat="42.98741" lon="0.56346">
        <ele>593</ele>
        <time>2019-06-30T13:16:33.000Z</time>
      </trkpt>
      <trkpt lat="42.98743" lon="0.56348">
        <ele>593</ele>
        <time>2019-06-30T13:16:35.000Z</time>
      </trkpt>
      <trkpt lat="42.98744" lon="0.5635">
        <ele>593</ele>
        <time>2019-06-30T13:16:37.000Z</time>
      </trkpt>
      <trkpt lat="42.98746" lon="0.56352">
        <ele>593</ele>
        <time>2019-06-30T13:16:39.000Z</time>
      </trkpt>
      <trkpt lat="42.98748" lon="0.56354">
        <ele>593</ele>
        <time>2019-06-30T13:16:41.000Z</time>
      </trkpt>
      <trkpt lat="42.98749" lon="0.56356">
        <ele>593</ele>
        <time>2019-06-30T13:16:43.000Z</time>
      </trkpt>
      <trkpt lat="42.9875" lon="0.56358">
        <ele>593</ele>
        <time>2019-06-30T13:16:45.000Z</time>
      </trkpt>
      <trkpt lat="42.98752" lon="0.56362">
        <ele>593</ele>
        <time>2019-06-30T13:16:47.000Z</time>
      </trkpt>
      <trkpt lat="42.98753" lon="0.56364">
        <ele>593</ele>
        <time>2019-06-30T13:16:49.000Z</time>
      </trkpt>
      <trkpt lat="42.98755" lon="0.56366">
        <ele>593</ele>
        <time>2019-06-30T13:16:51.000Z</time>
      </trkpt>
      <trkpt lat="42.98756" lon="0.56368">
        <ele>593</ele>
        <time>2019-06-30T13:16:53.000Z</time>
      </trkpt>
      <trkpt lat="42.98758" lon="0.56369">
        <ele>593</ele>
        <time>2019-06-30T13:16:55.000Z</time>
      </trkpt>
      <trkpt lat="42.98759" lon="0.56371">
        <ele>593</ele>
        <time>2019-06-30T13:16:57.000Z</time>
      </trkpt>
      <trkpt lat="42.9876" lon="0.56373">
        <ele>593</ele>
        <time>2019-06-30T13:16:59.000Z</time>
      </trkpt>
      <trkpt lat="42.98761" lon="0.56376">
        <ele>592</ele>
        <time>2019-06-30T13:17:01.000Z</time>
      </trkpt>
      <trkpt lat="42.98762" lon="0.56378">
        <ele>592</ele>
        <time>2019-06-30T13:17:03.000Z</time>
      </trkpt>
      <trkpt lat="42.98763" lon="0.56379">
        <ele>592</ele>
        <time>2019-06-30T13:17:05.000Z</time>
      </trkpt>
      <trkpt lat="42.98764" lon="0.56381">
        <ele>592</ele>
        <time>2019-06-30T13:17:07.000Z</time>
      </trkpt>
      <trkpt lat="42.98763" lon="0.56384">
        <ele>592</ele>
        <time>2019-06-30T13:17:09.000Z</time>
      </trkpt>
      <trkpt lat="42.98763" lon="0.56386">
        <ele>592</ele>
        <time>2019-06-30T13:17:11.000Z</time>
      </trkpt>
      <trkpt lat="42.98763" lon="0.56387">
        <ele>592</ele>
        <time>2019-06-30T13:17:13.000Z</time>
      </trkpt>
      <trkpt lat="42.98762" lon="0.56388">
        <ele>592</ele>
        <time>2019-06-30T13:17:15.000Z</time>
      </trkpt>
      <trkpt lat="42.98762" lon="0.56388">
        <ele>592</ele>
        <time>2019-06-30T13:17:17.000Z</time>
      </trkpt>
      <trkpt lat="42.98761" lon="0.56389">
        <ele>592</ele>
        <time>2019-06-30T13:17:19.000Z</time>
      </trkpt>
      <trkpt lat="42.98761" lon="0.56388">
        <ele>592</ele>
        <time>2019-06-30T13:17:21.000Z</time>
      </trkpt>
      <trkpt lat="42.98761" lon="0.56389">
        <ele>592</ele>
        <time>2019-06-30T13:17:23.000Z</time>
      </trkpt>
      <trkpt lat="42.98762" lon="0.5639">
        <ele>592</ele>
        <time>2019-06-30T13:17:25.000Z</time>
      </trkpt>
      <trkpt lat="42.98761" lon="0.5639">
        <ele>592</ele>
        <time>2019-06-30T13:17:27.000Z</time>
      </trkpt>
      <trkpt lat="42.98761" lon="0.5639">
        <ele>592</ele>
        <time>2019-06-30T13:17:29.000Z</time>
      </trkpt>
      <trkpt lat="42.9876" lon="0.5639">
        <ele>592</ele>
        <time>2019-06-30T13:17:31.000Z</time>
      </trkpt>
      <trkpt lat="42.98759" lon="0.5639">
        <ele>592</ele>
        <time>2019-06-30T13:17:33.000Z</time>
      </trkpt>
      <trkpt lat="42.9876" lon="0.5639">
        <ele>592</ele>
        <time>2019-06-30T13:17:35.000Z</time>
      </trkpt>
      <trkpt lat="42.9876" lon="0.56389">
        <ele>592</ele>
        <time>2019-06-30T13:17:37.000Z</time>
      </trkpt>
      <trkpt lat="42.98761" lon="0.56389">
        <ele>592</ele>
        <time>2019-06-30T13:17:39.000Z</time>
      </trkpt>
      <trkpt lat="42.98761" lon="0.56389">
        <ele>592</ele>
        <time>2019-06-30T13:17:41.000Z</time>
      </trkpt>
      <trkpt lat="42.98761" lon="0.56389">
        <ele>592</ele>
        <time>2019-06-30T13:17:43.000Z</time>
      </trkpt>
      <trkpt lat="42.98761" lon="0.56389">
        <ele>592</ele>
        <time>2019-06-30T13:17:45.000Z</time>
      </trkpt>
      <trkpt lat="42.98761" lon="0.56389">
        <ele>592</ele>
        <time>2019-06-30T13:17:47.000Z</time>
      </trkpt>
      <trkpt lat="42.98762" lon="0.56389">
        <ele>592</ele>
        <time>2019-06-30T13:17:49.000Z</time>
      </trkpt>
      <trkpt lat="42.98762" lon="0.56389">
        <ele>592</ele>
        <time>2019-06-30T13:17:51.000Z</time>
      </trkpt>
      <trkpt lat="42.98761" lon="0.56389">
        <ele>592</ele>
        <time>2019-06-30T13:17:53.000Z</time>
      </trkpt>
      <trkpt lat="42.9876" lon="0.56389">
        <ele>592</ele>
        <time>2019-06-30T13:17:55.000Z</time>
      </trkpt>
      <trkpt lat="42.98759" lon="0.56389">
        <ele>592</ele>
        <time>2019-06-30T13:17:57.000Z</time>
      </trkpt>
      <trkpt lat="42.98759" lon="0.56388">
        <ele>592</ele>
        <time>2019-06-30T13:17:59.000Z</time>
      </trkpt>
      <trkpt lat="42.98759" lon="0.56387">
        <ele>592</ele>
        <time>2019-06-30T13:18:01.000Z</time>
      </trkpt>
      <trkpt lat="42.98759" lon="0.56387">
        <ele>592</ele>
        <time>2019-06-30T13:18:03.000Z</time>
      </trkpt>
      <trkpt lat="42.98759" lon="0.56387">
        <ele>592</ele>
        <time>2019-06-30T13:18:05.000Z</time>
      </trkpt>
      <trkpt lat="42.98759" lon="0.56388">
        <ele>592</ele>
        <time>2019-06-30T13:18:07.000Z</time>
      </trkpt>
      <trkpt lat="42.9876" lon="0.56389">
        <ele>592</ele>
        <time>2019-06-30T13:18:09.000Z</time>
      </trkpt>
      <trkpt lat="42.9876" lon="0.56389">
        <ele>592</ele>
        <time>2019-06-30T13:18:11.000Z</time>
      </trkpt>
      <trkpt lat="42.9876" lon="0.5639">
        <ele>592</ele>
        <time>2019-06-30T13:18:13.000Z</time>
      </trkpt>
      <trkpt lat="42.98761" lon="0.5639">
        <ele>592</ele>
        <time>2019-06-30T13:18:15.000Z</time>
      </trkpt>
      <trkpt lat="42.98761" lon="0.5639">
        <ele>592</ele>
        <time>2019-06-30T13:18:17.000Z</time>
      </trkpt>
      <trkpt lat="42.98761" lon="0.5639">
        <ele>592</ele>
        <time>2019-06-30T13:18:19.000Z</time>
      </trkpt>
      <trkpt lat="42.98761" lon="0.5639">
        <ele>592</ele>
        <time>2019-06-30T13:18:21.000Z</time>
      </trkpt>
      <trkpt lat="42.98761" lon="0.5639">
        <ele>592</ele>
        <time>2019-06-30T13:18:23.000Z</time>
      </trkpt>
      <trkpt lat="42.98761" lon="0.5639">
        <ele>592</ele>
        <time>2019-06-30T13:18:25.000Z</time>
      </trkpt>
      <trkpt lat="42.98762" lon="0.56391">
        <ele>592</ele>
        <time>2019-06-30T13:18:27.000Z</time>
      </trkpt>
      <trkpt lat="42.98762" lon="0.56391">
        <ele>592</ele>
        <time>2019-06-30T13:18:29.000Z</time>
      </trkpt>
      <trkpt lat="42.98762" lon="0.56391">
        <ele>592</ele>
        <time>2019-06-30T13:18:31.000Z</time>
      </trkpt>
      <trkpt lat="42.98763" lon="0.56391">
        <ele>592</ele>
        <time>2019-06-30T13:18:33.000Z</time>
      </trkpt>
      <trkpt lat="42.98762" lon="0.5639">
        <ele>592</ele>
        <time>2019-06-30T13:18:35.000Z</time>
      </trkpt>
      <trkpt lat="42.98762" lon="0.5639">
        <ele>592</ele>
        <time>2019-06-30T13:18:37.000Z</time>
      </trkpt>
      <trkpt lat="42.98761" lon="0.5639">
        <ele>592</ele>
        <time>2019-06-30T13:18:39.000Z</time>
      </trkpt>
      <trkpt lat="42.9876" lon="0.5639">
        <ele>592</ele>
        <time>2019-06-30T13:18:41.000Z</time>
      </trkpt>
      <trkpt lat="42.9876" lon="0.56389">
        <ele>592</ele>
        <time>2019-06-30T13:18:43.000Z</time>
      </trkpt>
      <trkpt lat="42.9876" lon="0.56389">
        <ele>592</ele>
        <time>2019-06-30T13:18:45.000Z</time>
      </trkpt>
      <trkpt lat="42.9876" lon="0.56388">
        <ele>592</ele>
        <time>2019-06-30T13:18:47.000Z</time>
      </trkpt>
      <trkpt lat="42.9876" lon="0.56387">
        <ele>592</ele>
        <time>2019-06-30T13:18:49.000Z</time>
      </trkpt>
      <trkpt lat="42.9876" lon="0.56387">
        <ele>592</ele>
        <time>2019-06-30T13:18:51.000Z</time>
      </trkpt>
      <trkpt lat="42.9876" lon="0.56388">
        <ele>592</ele>
        <time>2019-06-30T13:18:53.000Z</time>
      </trkpt>
      <trkpt lat="42.9876" lon="0.56388">
        <ele>592</ele>
        <time>2019-06-30T13:18:55.000Z</time>
      </trkpt>
      <trkpt lat="42.98761" lon="0.56388">
        <ele>592</ele>
        <time>2019-06-30T13:18:57.000Z</time>
      </trkpt>
      <trkpt lat="42.98762" lon="0.56387">
        <ele>592</ele>
        <time>2019-06-30T13:18:59.000Z</time>
      </trkpt>
      <trkpt lat="42.98762" lon="0.56388">
        <ele>592</ele>
        <time>2019-06-30T13:19:01.000Z</time>
      </trkpt>
      <trkpt lat="42.98763" lon="0.5639">
        <ele>592</ele>
        <time>2019-06-30T13:19:03.000Z</time>
      </trkpt>
      <trkpt lat="42.98762" lon="0.5639">
        <ele>592</ele>
        <time>2019-06-30T13:19:05.000Z</time>
      </trkpt>
      <trkpt lat="42.98762" lon="0.5639">
        <ele>592</ele>
        <time>2019-06-30T13:19:07.000Z</time>
      </trkpt>
      <trkpt lat="42.98762" lon="0.5639">
        <ele>592</ele>
        <time>2019-06-30T13:19:09.000Z</time>
      </trkpt>
      <trkpt lat="42.98763" lon="0.5639">
        <ele>592</ele>
        <time>2019-06-30T13:19:11.000Z</time>
      </trkpt>
      <trkpt lat="42.98763" lon="0.5639">
        <ele>592</ele>
        <time>2019-06-30T13:19:13.000Z</time>
      </trkpt>
      <trkpt lat="42.98764" lon="0.5639">
        <ele>592</ele>
        <time>2019-06-30T13:19:15.000Z</time>
      </trkpt>
      <trkpt lat="42.98765" lon="0.56391">
        <ele>592</ele>
        <time>2019-06-30T13:19:17.000Z</time>
      </trkpt>
      <trkpt lat="42.98766" lon="0.56392">
        <ele>592</ele>
        <time>2019-06-30T13:19:19.000Z</time>
      </trkpt>
      <trkpt lat="42.98766" lon="0.56393">
        <ele>592</ele>
        <time>2019-06-30T13:19:21.000Z</time>
      </trkpt>
      <trkpt lat="42.98765" lon="0.56393">
        <ele>592</ele>
        <time>2019-06-30T13:19:23.000Z</time>
      </trkpt>
      <trkpt lat="42.98764" lon="0.56393">
        <ele>592</ele>
        <time>2019-06-30T13:19:25.000Z</time>
      </trkpt>
      <trkpt lat="42.98764" lon="0.56394">
        <ele>592</ele>
        <time>2019-06-30T13:19:27.000Z</time>
      </trkpt>
      <trkpt lat="42.98765" lon="0.56395">
        <ele>592</ele>
        <time>2019-06-30T13:19:29.000Z</time>
      </trkpt>
      <trkpt lat="42.98765" lon="0.56395">
        <ele>592</ele>
        <time>2019-06-30T13:19:31.000Z</time>
      </trkpt>
      <trkpt lat="42.98765" lon="0.56395">
        <ele>592</ele>
        <time>2019-06-30T13:19:33.000Z</time>
      </trkpt>
      <trkpt lat="42.98765" lon="0.56396">
        <ele>592</ele>
        <time>2019-06-30T13:19:35.000Z</time>
      </trkpt>
      <trkpt lat="42.98765" lon="0.56395">
        <ele>592</ele>
        <time>2019-06-30T13:19:37.000Z</time>
      </trkpt>
      <trkpt lat="42.98765" lon="0.56396">
        <ele>592</ele>
        <time>2019-06-30T13:19:39.000Z</time>
      </trkpt>
      <trkpt lat="42.98765" lon="0.56396">
        <ele>592</ele>
        <time>2019-06-30T13:19:41.000Z</time>
      </trkpt>
      <trkpt lat="42.98764" lon="0.56397">
        <ele>592</ele>
        <time>2019-06-30T13:19:43.000Z</time>
      </trkpt>
      <trkpt lat="42.98763" lon="0.56398">
        <ele>591</ele>
        <time>2019-06-30T13:19:45.000Z</time>
      </trkpt>
      <trkpt lat="42.98763" lon="0.56397">
        <ele>592</ele>
        <time>2019-06-30T13:19:47.000Z</time>
      </trkpt>
      <trkpt lat="42.98764" lon="0.56397">
        <ele>592</ele>
        <time>2019-06-30T13:19:49.000Z</time>
      </trkpt>
    </trkseg>
  </trk>
</gpx>